<?xml version="1.0" encoding="UTF-8" standalone="no" ?>
<gpx xmlns="http://www.topografix.com/GPX/1/1" xmlns:xsi="http://www.w3.org/2001/XMLSchema-instance" xsi:schemaLocation="http://www.topografix.com/GPX/1/1 http://www.topografix.com/GPX/1/1/gpx.xsd" version="1.1" creator="VisuGPX - https://www.visugpx.com">
  <metadata>
    <name>Réalisé 2019-01 _ Vers Parcours 4 du circuit de la Fraise Qu'île et Lopereth</name>
  </metadata>
  <trk>
    <name><![CDATA[Réalisé 2019-01 _ Vers Parcours 4 du circuit de la Fraise Qu'île et Lopereth]]></name>
    <trkseg>
      <trkpt lat="48.38282" lon="-4.3964">
        <ele>-73.4</ele>
        <time>2019-08-23T07:53:02Z</time>
      </trkpt>
      <trkpt lat="48.38285" lon="-4.39645">
        <ele>-73.4</ele>
        <time>2019-08-23T07:53:03Z</time>
      </trkpt>
      <trkpt lat="48.38292" lon="-4.39635">
        <ele>-73.4</ele>
        <time>2019-08-23T07:53:21Z</time>
      </trkpt>
      <trkpt lat="48.38292" lon="-4.39636">
        <ele>-71</ele>
        <time>2019-08-23T07:53:51Z</time>
      </trkpt>
      <trkpt lat="48.38292" lon="-4.39634">
        <ele>-71</ele>
        <time>2019-08-23T07:54:04Z</time>
      </trkpt>
      <trkpt lat="48.38291" lon="-4.39635">
        <ele>-70.04</ele>
        <time>2019-08-23T07:54:28Z</time>
      </trkpt>
      <trkpt lat="48.38294" lon="-4.39634">
        <ele>-68.6</ele>
        <time>2019-08-23T07:54:57Z</time>
      </trkpt>
      <trkpt lat="48.38294" lon="-4.39636">
        <ele>-67.64</ele>
        <time>2019-08-23T07:55:17Z</time>
      </trkpt>
      <trkpt lat="48.38292" lon="-4.39636">
        <ele>-65.71</ele>
        <time>2019-08-23T07:55:47Z</time>
      </trkpt>
      <trkpt lat="48.38292" lon="-4.39635">
        <ele>-64.27</ele>
        <time>2019-08-23T07:56:07Z</time>
      </trkpt>
      <trkpt lat="48.3829" lon="-4.39634">
        <ele>-62.83</ele>
        <time>2019-08-23T07:56:25Z</time>
      </trkpt>
      <trkpt lat="48.3829" lon="-4.39633">
        <ele>-62.83</ele>
        <time>2019-08-23T07:56:39Z</time>
      </trkpt>
      <trkpt lat="48.3829" lon="-4.39633">
        <ele>-62.83</ele>
        <time>2019-08-23T07:56:47Z</time>
      </trkpt>
      <trkpt lat="48.38285" lon="-4.39628">
        <ele>-62.35</ele>
        <time>2019-08-23T07:56:52Z</time>
      </trkpt>
      <trkpt lat="48.38285" lon="-4.396">
        <ele>-60.91</ele>
        <time>2019-08-23T07:57:02Z</time>
      </trkpt>
      <trkpt lat="48.38285" lon="-4.39595">
        <ele>-60.91</ele>
        <time>2019-08-23T07:57:04Z</time>
      </trkpt>
      <trkpt lat="48.38308" lon="-4.3954">
        <ele>-61.39</ele>
        <time>2019-08-23T07:57:15Z</time>
      </trkpt>
      <trkpt lat="48.38327" lon="-4.39487">
        <ele>-61.39</ele>
        <time>2019-08-23T07:57:22Z</time>
      </trkpt>
      <trkpt lat="48.38328" lon="-4.39479">
        <ele>-61.39</ele>
        <time>2019-08-23T07:57:23Z</time>
      </trkpt>
      <trkpt lat="48.38328" lon="-4.39472">
        <ele>-60.91</ele>
        <time>2019-08-23T07:57:24Z</time>
      </trkpt>
      <trkpt lat="48.38332" lon="-4.39457">
        <ele>-60.43</ele>
        <time>2019-08-23T07:57:26Z</time>
      </trkpt>
      <trkpt lat="48.38333" lon="-4.3945">
        <ele>-60.43</ele>
        <time>2019-08-23T07:57:27Z</time>
      </trkpt>
      <trkpt lat="48.38335" lon="-4.39443">
        <ele>-60.43</ele>
        <time>2019-08-23T07:57:28Z</time>
      </trkpt>
      <trkpt lat="48.38342" lon="-4.3937">
        <ele>-58.02</ele>
        <time>2019-08-23T07:57:40Z</time>
      </trkpt>
      <trkpt lat="48.38341" lon="-4.39358">
        <ele>-57.54</ele>
        <time>2019-08-23T07:57:43Z</time>
      </trkpt>
      <trkpt lat="48.38338" lon="-4.39356">
        <ele>-57.06</ele>
        <time>2019-08-23T07:57:44Z</time>
      </trkpt>
      <trkpt lat="48.38337" lon="-4.39355">
        <ele>-56.58</ele>
        <time>2019-08-23T07:57:45Z</time>
      </trkpt>
      <trkpt lat="48.38335" lon="-4.39354">
        <ele>-56.1</ele>
        <time>2019-08-23T07:57:46Z</time>
      </trkpt>
      <trkpt lat="48.38334" lon="-4.39353">
        <ele>-55.62</ele>
        <time>2019-08-23T07:57:47Z</time>
      </trkpt>
      <trkpt lat="48.38332" lon="-4.39352">
        <ele>-55.14</ele>
        <time>2019-08-23T07:57:48Z</time>
      </trkpt>
      <trkpt lat="48.3833" lon="-4.39351">
        <ele>-54.66</ele>
        <time>2019-08-23T07:57:49Z</time>
      </trkpt>
      <trkpt lat="48.38317" lon="-4.39346">
        <ele>-51.77</ele>
        <time>2019-08-23T07:57:58Z</time>
      </trkpt>
      <trkpt lat="48.383" lon="-4.39341">
        <ele>-48.89</ele>
        <time>2019-08-23T07:58:08Z</time>
      </trkpt>
      <trkpt lat="48.38294" lon="-4.39338">
        <ele>-47.93</ele>
        <time>2019-08-23T07:58:13Z</time>
      </trkpt>
      <trkpt lat="48.3828" lon="-4.39329">
        <ele>-45.53</ele>
        <time>2019-08-23T07:58:26Z</time>
      </trkpt>
      <trkpt lat="48.38272" lon="-4.39321">
        <ele>-44.08</ele>
        <time>2019-08-23T07:58:36Z</time>
      </trkpt>
      <trkpt lat="48.38272" lon="-4.39319">
        <ele>-43.6</ele>
        <time>2019-08-23T07:58:47Z</time>
      </trkpt>
      <trkpt lat="48.38271" lon="-4.39318">
        <ele>-43.12</ele>
        <time>2019-08-23T07:58:52Z</time>
      </trkpt>
      <trkpt lat="48.3827" lon="-4.39317">
        <ele>-43.12</ele>
        <time>2019-08-23T07:58:53Z</time>
      </trkpt>
      <trkpt lat="48.38268" lon="-4.39315">
        <ele>-42.64</ele>
        <time>2019-08-23T07:58:54Z</time>
      </trkpt>
      <trkpt lat="48.38267" lon="-4.39314">
        <ele>-42.16</ele>
        <time>2019-08-23T07:58:55Z</time>
      </trkpt>
      <trkpt lat="48.38265" lon="-4.39313">
        <ele>-42.16</ele>
        <time>2019-08-23T07:58:56Z</time>
      </trkpt>
      <trkpt lat="48.38257" lon="-4.39305">
        <ele>-40.24</ele>
        <time>2019-08-23T07:59:04Z</time>
      </trkpt>
      <trkpt lat="48.38255" lon="-4.39302">
        <ele>-40.24</ele>
        <time>2019-08-23T07:59:05Z</time>
      </trkpt>
      <trkpt lat="48.38254" lon="-4.393">
        <ele>-40.24</ele>
        <time>2019-08-23T07:59:06Z</time>
      </trkpt>
      <trkpt lat="48.38251" lon="-4.39293">
        <ele>-39.76</ele>
        <time>2019-08-23T07:59:11Z</time>
      </trkpt>
      <trkpt lat="48.38251" lon="-4.39287">
        <ele>-39.28</ele>
        <time>2019-08-23T07:59:16Z</time>
      </trkpt>
      <trkpt lat="48.38252" lon="-4.39284">
        <ele>-39.28</ele>
        <time>2019-08-23T07:59:18Z</time>
      </trkpt>
      <trkpt lat="48.38254" lon="-4.39274">
        <ele>-38.8</ele>
        <time>2019-08-23T07:59:24Z</time>
      </trkpt>
      <trkpt lat="48.38255" lon="-4.3927">
        <ele>-38.32</ele>
        <time>2019-08-23T07:59:27Z</time>
      </trkpt>
      <trkpt lat="48.38256" lon="-4.39269">
        <ele>-38.32</ele>
        <time>2019-08-23T07:59:28Z</time>
      </trkpt>
      <trkpt lat="48.38257" lon="-4.39268">
        <ele>-38.32</ele>
        <time>2019-08-23T07:59:29Z</time>
      </trkpt>
      <trkpt lat="48.38258" lon="-4.39264">
        <ele>-38.32</ele>
        <time>2019-08-23T07:59:31Z</time>
      </trkpt>
      <trkpt lat="48.38259" lon="-4.39261">
        <ele>-38.8</ele>
        <time>2019-08-23T07:59:32Z</time>
      </trkpt>
      <trkpt lat="48.3826" lon="-4.39258">
        <ele>-38.32</ele>
        <time>2019-08-23T07:59:33Z</time>
      </trkpt>
      <trkpt lat="48.38261" lon="-4.39256">
        <ele>-38.8</ele>
        <time>2019-08-23T07:59:34Z</time>
      </trkpt>
      <trkpt lat="48.38263" lon="-4.39252">
        <ele>-38.32</ele>
        <time>2019-08-23T07:59:35Z</time>
      </trkpt>
      <trkpt lat="48.38264" lon="-4.3925">
        <ele>-38.32</ele>
        <time>2019-08-23T07:59:36Z</time>
      </trkpt>
      <trkpt lat="48.38265" lon="-4.39247">
        <ele>-38.32</ele>
        <time>2019-08-23T07:59:37Z</time>
      </trkpt>
      <trkpt lat="48.38266" lon="-4.39238">
        <ele>-38.32</ele>
        <time>2019-08-23T07:59:39Z</time>
      </trkpt>
      <trkpt lat="48.38266" lon="-4.39234">
        <ele>-37.83</ele>
        <time>2019-08-23T07:59:40Z</time>
      </trkpt>
      <trkpt lat="48.38265" lon="-4.3923">
        <ele>-37.83</ele>
        <time>2019-08-23T07:59:41Z</time>
      </trkpt>
      <trkpt lat="48.38263" lon="-4.39227">
        <ele>-37.83</ele>
        <time>2019-08-23T07:59:42Z</time>
      </trkpt>
      <trkpt lat="48.38261" lon="-4.39225">
        <ele>-37.83</ele>
        <time>2019-08-23T07:59:43Z</time>
      </trkpt>
      <trkpt lat="48.3826" lon="-4.39222">
        <ele>-36.87</ele>
        <time>2019-08-23T07:59:44Z</time>
      </trkpt>
      <trkpt lat="48.38259" lon="-4.39219">
        <ele>-37.35</ele>
        <time>2019-08-23T07:59:45Z</time>
      </trkpt>
      <trkpt lat="48.38251" lon="-4.39209">
        <ele>-36.39</ele>
        <time>2019-08-23T07:59:49Z</time>
      </trkpt>
      <trkpt lat="48.38247" lon="-4.39198">
        <ele>-35.91</ele>
        <time>2019-08-23T07:59:52Z</time>
      </trkpt>
      <trkpt lat="48.38246" lon="-4.39195">
        <ele>-35.91</ele>
        <time>2019-08-23T07:59:53Z</time>
      </trkpt>
      <trkpt lat="48.38246" lon="-4.39193">
        <ele>-35.91</ele>
        <time>2019-08-23T07:59:54Z</time>
      </trkpt>
      <trkpt lat="48.38244" lon="-4.3919">
        <ele>-35.43</ele>
        <time>2019-08-23T07:59:55Z</time>
      </trkpt>
      <trkpt lat="48.3824" lon="-4.39186">
        <ele>-35.43</ele>
        <time>2019-08-23T07:59:57Z</time>
      </trkpt>
      <trkpt lat="48.38218" lon="-4.39162">
        <ele>-32.55</ele>
        <time>2019-08-23T08:00:08Z</time>
      </trkpt>
      <trkpt lat="48.3821" lon="-4.39147">
        <ele>-31.59</ele>
        <time>2019-08-23T08:00:13Z</time>
      </trkpt>
      <trkpt lat="48.38209" lon="-4.39143">
        <ele>-31.59</ele>
        <time>2019-08-23T08:00:14Z</time>
      </trkpt>
      <trkpt lat="48.38206" lon="-4.39132">
        <ele>-30.62</ele>
        <time>2019-08-23T08:00:18Z</time>
      </trkpt>
      <trkpt lat="48.38191" lon="-4.39107">
        <ele>-29.18</ele>
        <time>2019-08-23T08:00:26Z</time>
      </trkpt>
      <trkpt lat="48.3819" lon="-4.39105">
        <ele>-28.7</ele>
        <time>2019-08-23T08:00:27Z</time>
      </trkpt>
      <trkpt lat="48.38189" lon="-4.39103">
        <ele>-28.7</ele>
        <time>2019-08-23T08:00:28Z</time>
      </trkpt>
      <trkpt lat="48.38188" lon="-4.391">
        <ele>-28.22</ele>
        <time>2019-08-23T08:00:29Z</time>
      </trkpt>
      <trkpt lat="48.38182" lon="-4.39087">
        <ele>-26.78</ele>
        <time>2019-08-23T08:00:35Z</time>
      </trkpt>
      <trkpt lat="48.3818" lon="-4.39084">
        <ele>-26.78</ele>
        <time>2019-08-23T08:00:36Z</time>
      </trkpt>
      <trkpt lat="48.38179" lon="-4.39082">
        <ele>-25.82</ele>
        <time>2019-08-23T08:00:37Z</time>
      </trkpt>
      <trkpt lat="48.38178" lon="-4.39081">
        <ele>-25.82</ele>
        <time>2019-08-23T08:00:38Z</time>
      </trkpt>
      <trkpt lat="48.38177" lon="-4.39079">
        <ele>-25.34</ele>
        <time>2019-08-23T08:00:39Z</time>
      </trkpt>
      <trkpt lat="48.38175" lon="-4.39078">
        <ele>-25.34</ele>
        <time>2019-08-23T08:00:40Z</time>
      </trkpt>
      <trkpt lat="48.38156" lon="-4.39057">
        <ele>-21.97</ele>
        <time>2019-08-23T08:00:52Z</time>
      </trkpt>
      <trkpt lat="48.38147" lon="-4.39052">
        <ele>-20.53</ele>
        <time>2019-08-23T08:00:59Z</time>
      </trkpt>
      <trkpt lat="48.38144" lon="-4.39052">
        <ele>-19.57</ele>
        <time>2019-08-23T08:01:00Z</time>
      </trkpt>
      <trkpt lat="48.38136" lon="-4.39048">
        <ele>-18.61</ele>
        <time>2019-08-23T08:01:04Z</time>
      </trkpt>
      <trkpt lat="48.38134" lon="-4.39048">
        <ele>-18.13</ele>
        <time>2019-08-23T08:01:06Z</time>
      </trkpt>
      <trkpt lat="48.38131" lon="-4.39047">
        <ele>-17.65</ele>
        <time>2019-08-23T08:01:07Z</time>
      </trkpt>
      <trkpt lat="48.38129" lon="-4.39046">
        <ele>-17.65</ele>
        <time>2019-08-23T08:01:08Z</time>
      </trkpt>
      <trkpt lat="48.38126" lon="-4.39045">
        <ele>-17.65</ele>
        <time>2019-08-23T08:01:09Z</time>
      </trkpt>
      <trkpt lat="48.38124" lon="-4.39045">
        <ele>-17.17</ele>
        <time>2019-08-23T08:01:10Z</time>
      </trkpt>
      <trkpt lat="48.38122" lon="-4.39043">
        <ele>-17.17</ele>
        <time>2019-08-23T08:01:11Z</time>
      </trkpt>
      <trkpt lat="48.38121" lon="-4.39041">
        <ele>-16.69</ele>
        <time>2019-08-23T08:01:12Z</time>
      </trkpt>
      <trkpt lat="48.38119" lon="-4.3904">
        <ele>-16.69</ele>
        <time>2019-08-23T08:01:13Z</time>
      </trkpt>
      <trkpt lat="48.38117" lon="-4.39039">
        <ele>-16.21</ele>
        <time>2019-08-23T08:01:14Z</time>
      </trkpt>
      <trkpt lat="48.38112" lon="-4.39038">
        <ele>-15.24</ele>
        <time>2019-08-23T08:01:18Z</time>
      </trkpt>
      <trkpt lat="48.3811" lon="-4.39038">
        <ele>-15.24</ele>
        <time>2019-08-23T08:01:19Z</time>
      </trkpt>
      <trkpt lat="48.38107" lon="-4.39037">
        <ele>-14.76</ele>
        <time>2019-08-23T08:01:20Z</time>
      </trkpt>
      <trkpt lat="48.38105" lon="-4.39037">
        <ele>-14.76</ele>
        <time>2019-08-23T08:01:21Z</time>
      </trkpt>
      <trkpt lat="48.38089" lon="-4.39039">
        <ele>-12.36</ele>
        <time>2019-08-23T08:01:30Z</time>
      </trkpt>
      <trkpt lat="48.38079" lon="-4.39045">
        <ele>-10.92</ele>
        <time>2019-08-23T08:01:37Z</time>
      </trkpt>
      <trkpt lat="48.38077" lon="-4.39045">
        <ele>-10.44</ele>
        <time>2019-08-23T08:01:38Z</time>
      </trkpt>
      <trkpt lat="48.38075" lon="-4.39046">
        <ele>-10.44</ele>
        <time>2019-08-23T08:01:39Z</time>
      </trkpt>
      <trkpt lat="48.38072" lon="-4.39048">
        <ele>-9.96</ele>
        <time>2019-08-23T08:01:41Z</time>
      </trkpt>
      <trkpt lat="48.38071" lon="-4.39051">
        <ele>-9.48</ele>
        <time>2019-08-23T08:01:43Z</time>
      </trkpt>
      <trkpt lat="48.38066" lon="-4.39057">
        <ele>-8.03</ele>
        <time>2019-08-23T08:01:49Z</time>
      </trkpt>
      <trkpt lat="48.38064" lon="-4.39058">
        <ele>-8.03</ele>
        <time>2019-08-23T08:01:50Z</time>
      </trkpt>
      <trkpt lat="48.38039" lon="-4.39069">
        <ele>-5.63</ele>
        <time>2019-08-23T08:02:02Z</time>
      </trkpt>
      <trkpt lat="48.38018" lon="-4.39071">
        <ele>-3.71</ele>
        <time>2019-08-23T08:02:12Z</time>
      </trkpt>
      <trkpt lat="48.38007" lon="-4.39075">
        <ele>-2.27</ele>
        <time>2019-08-23T08:02:18Z</time>
      </trkpt>
      <trkpt lat="48.38006" lon="-4.39075">
        <ele>-1.79</ele>
        <time>2019-08-23T08:02:19Z</time>
      </trkpt>
      <trkpt lat="48.38004" lon="-4.39076">
        <ele>-1.79</ele>
        <time>2019-08-23T08:02:20Z</time>
      </trkpt>
      <trkpt lat="48.38003" lon="-4.39077">
        <ele>-1.79</ele>
        <time>2019-08-23T08:02:21Z</time>
      </trkpt>
      <trkpt lat="48.38001" lon="-4.39077">
        <ele>-1.3</ele>
        <time>2019-08-23T08:02:22Z</time>
      </trkpt>
      <trkpt lat="48.37983" lon="-4.39081">
        <ele>-0.34</ele>
        <time>2019-08-23T08:02:31Z</time>
      </trkpt>
      <trkpt lat="48.37981" lon="-4.39079">
        <ele>-0.34</ele>
        <time>2019-08-23T08:02:32Z</time>
      </trkpt>
      <trkpt lat="48.37981" lon="-4.39076">
        <ele>-0.34</ele>
        <time>2019-08-23T08:02:33Z</time>
      </trkpt>
      <trkpt lat="48.37981" lon="-4.39072">
        <ele>-0.34</ele>
        <time>2019-08-23T08:02:34Z</time>
      </trkpt>
      <trkpt lat="48.37982" lon="-4.39068">
        <ele>-0.34</ele>
        <time>2019-08-23T08:02:35Z</time>
      </trkpt>
      <trkpt lat="48.37984" lon="-4.39038">
        <ele>-1.3</ele>
        <time>2019-08-23T08:02:42Z</time>
      </trkpt>
      <trkpt lat="48.37984" lon="-4.39033">
        <ele>-1.3</ele>
        <time>2019-08-23T08:02:43Z</time>
      </trkpt>
      <trkpt lat="48.37984" lon="-4.39027">
        <ele>-1.3</ele>
        <time>2019-08-23T08:02:44Z</time>
      </trkpt>
      <trkpt lat="48.37986" lon="-4.39014">
        <ele>-1.79</ele>
        <time>2019-08-23T08:02:46Z</time>
      </trkpt>
      <trkpt lat="48.37987" lon="-4.39009">
        <ele>-1.79</ele>
        <time>2019-08-23T08:02:47Z</time>
      </trkpt>
      <trkpt lat="48.37988" lon="-4.39003">
        <ele>-2.27</ele>
        <time>2019-08-23T08:02:48Z</time>
      </trkpt>
      <trkpt lat="48.37989" lon="-4.38997">
        <ele>-2.27</ele>
        <time>2019-08-23T08:02:49Z</time>
      </trkpt>
      <trkpt lat="48.37991" lon="-4.3899">
        <ele>-2.27</ele>
        <time>2019-08-23T08:02:50Z</time>
      </trkpt>
      <trkpt lat="48.37992" lon="-4.38983">
        <ele>-1.79</ele>
        <time>2019-08-23T08:02:51Z</time>
      </trkpt>
      <trkpt lat="48.37994" lon="-4.38969">
        <ele>-1.79</ele>
        <time>2019-08-23T08:02:53Z</time>
      </trkpt>
      <trkpt lat="48.37996" lon="-4.38963">
        <ele>-1.79</ele>
        <time>2019-08-23T08:02:54Z</time>
      </trkpt>
      <trkpt lat="48.37997" lon="-4.38957">
        <ele>-1.79</ele>
        <time>2019-08-23T08:02:55Z</time>
      </trkpt>
      <trkpt lat="48.37997" lon="-4.38923">
        <ele>-1.3</ele>
        <time>2019-08-23T08:03:01Z</time>
      </trkpt>
      <trkpt lat="48.37996" lon="-4.38913">
        <ele>-0.82</ele>
        <time>2019-08-23T08:03:03Z</time>
      </trkpt>
      <trkpt lat="48.37993" lon="-4.38901">
        <ele>-1.3</ele>
        <time>2019-08-23T08:03:06Z</time>
      </trkpt>
      <trkpt lat="48.37994" lon="-4.38895">
        <ele>-1.3</ele>
        <time>2019-08-23T08:03:07Z</time>
      </trkpt>
      <trkpt lat="48.37996" lon="-4.38883">
        <ele>-1.79</ele>
        <time>2019-08-23T08:03:09Z</time>
      </trkpt>
      <trkpt lat="48.38" lon="-4.3887">
        <ele>-2.27</ele>
        <time>2019-08-23T08:03:11Z</time>
      </trkpt>
      <trkpt lat="48.38002" lon="-4.38863">
        <ele>-2.27</ele>
        <time>2019-08-23T08:03:12Z</time>
      </trkpt>
      <trkpt lat="48.38003" lon="-4.38855">
        <ele>-2.75</ele>
        <time>2019-08-23T08:03:13Z</time>
      </trkpt>
      <trkpt lat="48.38005" lon="-4.38847">
        <ele>-2.75</ele>
        <time>2019-08-23T08:03:14Z</time>
      </trkpt>
      <trkpt lat="48.38006" lon="-4.38839">
        <ele>-3.23</ele>
        <time>2019-08-23T08:03:15Z</time>
      </trkpt>
      <trkpt lat="48.38007" lon="-4.38822">
        <ele>-3.71</ele>
        <time>2019-08-23T08:03:17Z</time>
      </trkpt>
      <trkpt lat="48.38008" lon="-4.38815">
        <ele>-3.71</ele>
        <time>2019-08-23T08:03:18Z</time>
      </trkpt>
      <trkpt lat="48.38009" lon="-4.38809">
        <ele>-3.23</ele>
        <time>2019-08-23T08:03:19Z</time>
      </trkpt>
      <trkpt lat="48.38009" lon="-4.38802">
        <ele>-3.23</ele>
        <time>2019-08-23T08:03:20Z</time>
      </trkpt>
      <trkpt lat="48.3801" lon="-4.38795">
        <ele>-3.23</ele>
        <time>2019-08-23T08:03:21Z</time>
      </trkpt>
      <trkpt lat="48.38013" lon="-4.38779">
        <ele>-3.23</ele>
        <time>2019-08-23T08:03:23Z</time>
      </trkpt>
      <trkpt lat="48.38015" lon="-4.38764">
        <ele>-3.23</ele>
        <time>2019-08-23T08:03:25Z</time>
      </trkpt>
      <trkpt lat="48.38016" lon="-4.38756">
        <ele>-3.23</ele>
        <time>2019-08-23T08:03:26Z</time>
      </trkpt>
      <trkpt lat="48.38016" lon="-4.38749">
        <ele>-3.23</ele>
        <time>2019-08-23T08:03:27Z</time>
      </trkpt>
      <trkpt lat="48.38011" lon="-4.38705">
        <ele>-1.79</ele>
        <time>2019-08-23T08:03:34Z</time>
      </trkpt>
      <trkpt lat="48.38005" lon="-4.38654">
        <ele>-0.82</ele>
        <time>2019-08-23T08:03:42Z</time>
      </trkpt>
      <trkpt lat="48.38004" lon="-4.38648">
        <ele>-0.82</ele>
        <time>2019-08-23T08:03:43Z</time>
      </trkpt>
      <trkpt lat="48.38004" lon="-4.38641">
        <ele>0.14</ele>
        <time>2019-08-23T08:03:44Z</time>
      </trkpt>
      <trkpt lat="48.38005" lon="-4.38635">
        <ele>-0.34</ele>
        <time>2019-08-23T08:03:45Z</time>
      </trkpt>
      <trkpt lat="48.38004" lon="-4.38616">
        <ele>0.14</ele>
        <time>2019-08-23T08:03:54Z</time>
      </trkpt>
      <trkpt lat="48.38005" lon="-4.38606">
        <ele>0.62</ele>
        <time>2019-08-23T08:04:02Z</time>
      </trkpt>
      <trkpt lat="48.38006" lon="-4.38603">
        <ele>0.62</ele>
        <time>2019-08-23T08:04:03Z</time>
      </trkpt>
      <trkpt lat="48.38007" lon="-4.386">
        <ele>0.62</ele>
        <time>2019-08-23T08:04:04Z</time>
      </trkpt>
      <trkpt lat="48.38009" lon="-4.38596">
        <ele>0.62</ele>
        <time>2019-08-23T08:04:05Z</time>
      </trkpt>
      <trkpt lat="48.38009" lon="-4.38591">
        <ele>0.62</ele>
        <time>2019-08-23T08:04:06Z</time>
      </trkpt>
      <trkpt lat="48.3801" lon="-4.38585">
        <ele>0.62</ele>
        <time>2019-08-23T08:04:07Z</time>
      </trkpt>
      <trkpt lat="48.38014" lon="-4.38543">
        <ele>1.58</ele>
        <time>2019-08-23T08:04:14Z</time>
      </trkpt>
      <trkpt lat="48.38014" lon="-4.38536">
        <ele>1.58</ele>
        <time>2019-08-23T08:04:15Z</time>
      </trkpt>
      <trkpt lat="48.38011" lon="-4.38499">
        <ele>2.54</ele>
        <time>2019-08-23T08:04:21Z</time>
      </trkpt>
      <trkpt lat="48.38009" lon="-4.38495">
        <ele>2.54</ele>
        <time>2019-08-23T08:04:22Z</time>
      </trkpt>
      <trkpt lat="48.38007" lon="-4.38491">
        <ele>2.54</ele>
        <time>2019-08-23T08:04:23Z</time>
      </trkpt>
      <trkpt lat="48.37983" lon="-4.38448">
        <ele>3.98</ele>
        <time>2019-08-23T08:04:32Z</time>
      </trkpt>
      <trkpt lat="48.37981" lon="-4.38443">
        <ele>3.98</ele>
        <time>2019-08-23T08:04:33Z</time>
      </trkpt>
      <trkpt lat="48.37959" lon="-4.38389">
        <ele>5.42</ele>
        <time>2019-08-23T08:04:44Z</time>
      </trkpt>
      <trkpt lat="48.37938" lon="-4.38321">
        <ele>7.83</ele>
        <time>2019-08-23T08:04:57Z</time>
      </trkpt>
      <trkpt lat="48.37914" lon="-4.38265">
        <ele>9.27</ele>
        <time>2019-08-23T08:05:09Z</time>
      </trkpt>
      <trkpt lat="48.37888" lon="-4.38214">
        <ele>11.19</ele>
        <time>2019-08-23T08:05:21Z</time>
      </trkpt>
      <trkpt lat="48.37885" lon="-4.38205">
        <ele>11.67</ele>
        <time>2019-08-23T08:05:23Z</time>
      </trkpt>
      <trkpt lat="48.37868" lon="-4.38196">
        <ele>12.63</ele>
        <time>2019-08-23T08:05:32Z</time>
      </trkpt>
      <trkpt lat="48.37836" lon="-4.38198">
        <ele>13.6</ele>
        <time>2019-08-23T08:05:41Z</time>
      </trkpt>
      <trkpt lat="48.3781" lon="-4.38206">
        <ele>14.56</ele>
        <time>2019-08-23T08:05:50Z</time>
      </trkpt>
      <trkpt lat="48.37802" lon="-4.38209">
        <ele>14.56</ele>
        <time>2019-08-23T08:05:52Z</time>
      </trkpt>
      <trkpt lat="48.37797" lon="-4.38211">
        <ele>15.04</ele>
        <time>2019-08-23T08:05:53Z</time>
      </trkpt>
      <trkpt lat="48.37793" lon="-4.38213">
        <ele>15.04</ele>
        <time>2019-08-23T08:05:54Z</time>
      </trkpt>
      <trkpt lat="48.37789" lon="-4.38215">
        <ele>15.04</ele>
        <time>2019-08-23T08:05:55Z</time>
      </trkpt>
      <trkpt lat="48.37781" lon="-4.38219">
        <ele>15.04</ele>
        <time>2019-08-23T08:05:57Z</time>
      </trkpt>
      <trkpt lat="48.37758" lon="-4.38222">
        <ele>15.52</ele>
        <time>2019-08-23T08:06:04Z</time>
      </trkpt>
      <trkpt lat="48.37754" lon="-4.3822">
        <ele>15.52</ele>
        <time>2019-08-23T08:06:05Z</time>
      </trkpt>
      <trkpt lat="48.37717" lon="-4.38206">
        <ele>16.48</ele>
        <time>2019-08-23T08:06:14Z</time>
      </trkpt>
      <trkpt lat="48.37701" lon="-4.38202">
        <ele>16.96</ele>
        <time>2019-08-23T08:06:18Z</time>
      </trkpt>
      <trkpt lat="48.37673" lon="-4.38226">
        <ele>17.44</ele>
        <time>2019-08-23T08:06:27Z</time>
      </trkpt>
      <trkpt lat="48.37649" lon="-4.38248">
        <ele>17.92</ele>
        <time>2019-08-23T08:06:33Z</time>
      </trkpt>
      <trkpt lat="48.37644" lon="-4.38251">
        <ele>17.92</ele>
        <time>2019-08-23T08:06:34Z</time>
      </trkpt>
      <trkpt lat="48.37634" lon="-4.38259">
        <ele>18.4</ele>
        <time>2019-08-23T08:06:36Z</time>
      </trkpt>
      <trkpt lat="48.37629" lon="-4.38261">
        <ele>18.4</ele>
        <time>2019-08-23T08:06:37Z</time>
      </trkpt>
      <trkpt lat="48.37625" lon="-4.38262">
        <ele>18.4</ele>
        <time>2019-08-23T08:06:38Z</time>
      </trkpt>
      <trkpt lat="48.37621" lon="-4.38262">
        <ele>18.88</ele>
        <time>2019-08-23T08:06:39Z</time>
      </trkpt>
      <trkpt lat="48.37618" lon="-4.3826">
        <ele>18.88</ele>
        <time>2019-08-23T08:06:40Z</time>
      </trkpt>
      <trkpt lat="48.37615" lon="-4.38256">
        <ele>19.36</ele>
        <time>2019-08-23T08:06:41Z</time>
      </trkpt>
      <trkpt lat="48.37613" lon="-4.38252">
        <ele>19.36</ele>
        <time>2019-08-23T08:06:42Z</time>
      </trkpt>
      <trkpt lat="48.37611" lon="-4.38246">
        <ele>19.36</ele>
        <time>2019-08-23T08:06:43Z</time>
      </trkpt>
      <trkpt lat="48.37609" lon="-4.38241">
        <ele>19.36</ele>
        <time>2019-08-23T08:06:44Z</time>
      </trkpt>
      <trkpt lat="48.37607" lon="-4.38237">
        <ele>19.84</ele>
        <time>2019-08-23T08:06:45Z</time>
      </trkpt>
      <trkpt lat="48.37583" lon="-4.38179">
        <ele>22.73</ele>
        <time>2019-08-23T08:06:58Z</time>
      </trkpt>
      <trkpt lat="48.37568" lon="-4.38141">
        <ele>25.13</ele>
        <time>2019-08-23T08:07:07Z</time>
      </trkpt>
      <trkpt lat="48.37565" lon="-4.3814">
        <ele>25.13</ele>
        <time>2019-08-23T08:07:08Z</time>
      </trkpt>
      <trkpt lat="48.37562" lon="-4.38142">
        <ele>25.61</ele>
        <time>2019-08-23T08:07:09Z</time>
      </trkpt>
      <trkpt lat="48.37559" lon="-4.38146">
        <ele>25.61</ele>
        <time>2019-08-23T08:07:10Z</time>
      </trkpt>
      <trkpt lat="48.37532" lon="-4.38195">
        <ele>26.09</ele>
        <time>2019-08-23T08:07:21Z</time>
      </trkpt>
      <trkpt lat="48.37493" lon="-4.38261">
        <ele>27.05</ele>
        <time>2019-08-23T08:07:35Z</time>
      </trkpt>
      <trkpt lat="48.3749" lon="-4.38265">
        <ele>27.05</ele>
        <time>2019-08-23T08:07:36Z</time>
      </trkpt>
      <trkpt lat="48.37487" lon="-4.38269">
        <ele>27.05</ele>
        <time>2019-08-23T08:07:37Z</time>
      </trkpt>
      <trkpt lat="48.37483" lon="-4.38273">
        <ele>27.53</ele>
        <time>2019-08-23T08:07:38Z</time>
      </trkpt>
      <trkpt lat="48.37468" lon="-4.38272">
        <ele>28.02</ele>
        <time>2019-08-23T08:07:42Z</time>
      </trkpt>
      <trkpt lat="48.37464" lon="-4.3827">
        <ele>28.02</ele>
        <time>2019-08-23T08:07:43Z</time>
      </trkpt>
      <trkpt lat="48.37419" lon="-4.38242">
        <ele>29.94</ele>
        <time>2019-08-23T08:07:55Z</time>
      </trkpt>
      <trkpt lat="48.37415" lon="-4.38242">
        <ele>29.94</ele>
        <time>2019-08-23T08:07:56Z</time>
      </trkpt>
      <trkpt lat="48.37411" lon="-4.38243">
        <ele>29.94</ele>
        <time>2019-08-23T08:07:57Z</time>
      </trkpt>
      <trkpt lat="48.37389" lon="-4.38261">
        <ele>29.94</ele>
        <time>2019-08-23T08:08:03Z</time>
      </trkpt>
      <trkpt lat="48.37387" lon="-4.38265">
        <ele>30.42</ele>
        <time>2019-08-23T08:08:04Z</time>
      </trkpt>
      <trkpt lat="48.37364" lon="-4.38314">
        <ele>29.94</ele>
        <time>2019-08-23T08:08:14Z</time>
      </trkpt>
      <trkpt lat="48.37357" lon="-4.38329">
        <ele>29.46</ele>
        <time>2019-08-23T08:08:17Z</time>
      </trkpt>
      <trkpt lat="48.37347" lon="-4.38348">
        <ele>29.46</ele>
        <time>2019-08-23T08:08:21Z</time>
      </trkpt>
      <trkpt lat="48.37343" lon="-4.38351">
        <ele>29.46</ele>
        <time>2019-08-23T08:08:22Z</time>
      </trkpt>
      <trkpt lat="48.37339" lon="-4.38353">
        <ele>28.98</ele>
        <time>2019-08-23T08:08:23Z</time>
      </trkpt>
      <trkpt lat="48.37334" lon="-4.38353">
        <ele>29.46</ele>
        <time>2019-08-23T08:08:24Z</time>
      </trkpt>
      <trkpt lat="48.37329" lon="-4.38352">
        <ele>29.46</ele>
        <time>2019-08-23T08:08:25Z</time>
      </trkpt>
      <trkpt lat="48.37325" lon="-4.3835">
        <ele>29.46</ele>
        <time>2019-08-23T08:08:26Z</time>
      </trkpt>
      <trkpt lat="48.37321" lon="-4.38347">
        <ele>29.46</ele>
        <time>2019-08-23T08:08:27Z</time>
      </trkpt>
      <trkpt lat="48.37316" lon="-4.38344">
        <ele>29.46</ele>
        <time>2019-08-23T08:08:28Z</time>
      </trkpt>
      <trkpt lat="48.37312" lon="-4.38343">
        <ele>29.46</ele>
        <time>2019-08-23T08:08:29Z</time>
      </trkpt>
      <trkpt lat="48.37308" lon="-4.38342">
        <ele>29.46</ele>
        <time>2019-08-23T08:08:30Z</time>
      </trkpt>
      <trkpt lat="48.3729" lon="-4.38339">
        <ele>28.98</ele>
        <time>2019-08-23T08:08:35Z</time>
      </trkpt>
      <trkpt lat="48.37287" lon="-4.38336">
        <ele>28.98</ele>
        <time>2019-08-23T08:08:36Z</time>
      </trkpt>
      <trkpt lat="48.37269" lon="-4.38317">
        <ele>29.46</ele>
        <time>2019-08-23T08:08:40Z</time>
      </trkpt>
      <trkpt lat="48.37266" lon="-4.38311">
        <ele>29.46</ele>
        <time>2019-08-23T08:08:41Z</time>
      </trkpt>
      <trkpt lat="48.37263" lon="-4.38305">
        <ele>29.46</ele>
        <time>2019-08-23T08:08:42Z</time>
      </trkpt>
      <trkpt lat="48.3726" lon="-4.38299">
        <ele>29.46</ele>
        <time>2019-08-23T08:08:43Z</time>
      </trkpt>
      <trkpt lat="48.37256" lon="-4.38295">
        <ele>29.46</ele>
        <time>2019-08-23T08:08:44Z</time>
      </trkpt>
      <trkpt lat="48.37252" lon="-4.38291">
        <ele>28.98</ele>
        <time>2019-08-23T08:08:45Z</time>
      </trkpt>
      <trkpt lat="48.37248" lon="-4.38287">
        <ele>29.46</ele>
        <time>2019-08-23T08:08:46Z</time>
      </trkpt>
      <trkpt lat="48.37245" lon="-4.38283">
        <ele>28.98</ele>
        <time>2019-08-23T08:08:47Z</time>
      </trkpt>
      <trkpt lat="48.3722" lon="-4.3826">
        <ele>29.46</ele>
        <time>2019-08-23T08:08:53Z</time>
      </trkpt>
      <trkpt lat="48.37216" lon="-4.38257">
        <ele>29.46</ele>
        <time>2019-08-23T08:08:54Z</time>
      </trkpt>
      <trkpt lat="48.37212" lon="-4.38253">
        <ele>29.46</ele>
        <time>2019-08-23T08:08:55Z</time>
      </trkpt>
      <trkpt lat="48.37208" lon="-4.38249">
        <ele>29.46</ele>
        <time>2019-08-23T08:08:56Z</time>
      </trkpt>
      <trkpt lat="48.37205" lon="-4.38244">
        <ele>29.94</ele>
        <time>2019-08-23T08:08:57Z</time>
      </trkpt>
      <trkpt lat="48.37203" lon="-4.38239">
        <ele>29.46</ele>
        <time>2019-08-23T08:08:58Z</time>
      </trkpt>
      <trkpt lat="48.37201" lon="-4.38234">
        <ele>29.46</ele>
        <time>2019-08-23T08:08:59Z</time>
      </trkpt>
      <trkpt lat="48.372" lon="-4.38231">
        <ele>29.46</ele>
        <time>2019-08-23T08:09:00Z</time>
      </trkpt>
      <trkpt lat="48.37199" lon="-4.38227">
        <ele>29.46</ele>
        <time>2019-08-23T08:09:01Z</time>
      </trkpt>
      <trkpt lat="48.37199" lon="-4.38222">
        <ele>29.46</ele>
        <time>2019-08-23T08:09:02Z</time>
      </trkpt>
      <trkpt lat="48.37205" lon="-4.38139">
        <ele>30.9</ele>
        <time>2019-08-23T08:09:15Z</time>
      </trkpt>
      <trkpt lat="48.37207" lon="-4.38112">
        <ele>31.38</ele>
        <time>2019-08-23T08:09:19Z</time>
      </trkpt>
      <trkpt lat="48.37216" lon="-4.38002">
        <ele>32.82</ele>
        <time>2019-08-23T08:09:34Z</time>
      </trkpt>
      <trkpt lat="48.37215" lon="-4.37995">
        <ele>32.82</ele>
        <time>2019-08-23T08:09:35Z</time>
      </trkpt>
      <trkpt lat="48.37214" lon="-4.37991">
        <ele>32.82</ele>
        <time>2019-08-23T08:09:36Z</time>
      </trkpt>
      <trkpt lat="48.37213" lon="-4.37989">
        <ele>33.3</ele>
        <time>2019-08-23T08:09:37Z</time>
      </trkpt>
      <trkpt lat="48.37212" lon="-4.37986">
        <ele>33.3</ele>
        <time>2019-08-23T08:09:38Z</time>
      </trkpt>
      <trkpt lat="48.37209" lon="-4.37983">
        <ele>33.3</ele>
        <time>2019-08-23T08:09:39Z</time>
      </trkpt>
      <trkpt lat="48.37205" lon="-4.3798">
        <ele>33.3</ele>
        <time>2019-08-23T08:09:40Z</time>
      </trkpt>
      <trkpt lat="48.372" lon="-4.37978">
        <ele>32.82</ele>
        <time>2019-08-23T08:09:41Z</time>
      </trkpt>
      <trkpt lat="48.37195" lon="-4.37977">
        <ele>32.82</ele>
        <time>2019-08-23T08:09:42Z</time>
      </trkpt>
      <trkpt lat="48.37119" lon="-4.37949">
        <ele>29.94</ele>
        <time>2019-08-23T08:09:55Z</time>
      </trkpt>
      <trkpt lat="48.37052" lon="-4.37913">
        <ele>27.53</ele>
        <time>2019-08-23T08:10:06Z</time>
      </trkpt>
      <trkpt lat="48.37041" lon="-4.37905">
        <ele>27.05</ele>
        <time>2019-08-23T08:10:08Z</time>
      </trkpt>
      <trkpt lat="48.37031" lon="-4.37903">
        <ele>26.57</ele>
        <time>2019-08-23T08:10:10Z</time>
      </trkpt>
      <trkpt lat="48.37021" lon="-4.37905">
        <ele>26.57</ele>
        <time>2019-08-23T08:10:12Z</time>
      </trkpt>
      <trkpt lat="48.37017" lon="-4.3791">
        <ele>26.09</ele>
        <time>2019-08-23T08:10:13Z</time>
      </trkpt>
      <trkpt lat="48.37015" lon="-4.37917">
        <ele>26.09</ele>
        <time>2019-08-23T08:10:14Z</time>
      </trkpt>
      <trkpt lat="48.37014" lon="-4.37925">
        <ele>26.09</ele>
        <time>2019-08-23T08:10:15Z</time>
      </trkpt>
      <trkpt lat="48.37013" lon="-4.37933">
        <ele>26.09</ele>
        <time>2019-08-23T08:10:16Z</time>
      </trkpt>
      <trkpt lat="48.37009" lon="-4.38016">
        <ele>26.57</ele>
        <time>2019-08-23T08:10:26Z</time>
      </trkpt>
      <trkpt lat="48.37006" lon="-4.38046">
        <ele>26.57</ele>
        <time>2019-08-23T08:10:30Z</time>
      </trkpt>
      <trkpt lat="48.37002" lon="-4.38049">
        <ele>26.57</ele>
        <time>2019-08-23T08:10:31Z</time>
      </trkpt>
      <trkpt lat="48.36997" lon="-4.38049">
        <ele>26.57</ele>
        <time>2019-08-23T08:10:32Z</time>
      </trkpt>
      <trkpt lat="48.36992" lon="-4.38046">
        <ele>26.09</ele>
        <time>2019-08-23T08:10:33Z</time>
      </trkpt>
      <trkpt lat="48.36987" lon="-4.3804">
        <ele>25.61</ele>
        <time>2019-08-23T08:10:34Z</time>
      </trkpt>
      <trkpt lat="48.36982" lon="-4.38034">
        <ele>25.61</ele>
        <time>2019-08-23T08:10:35Z</time>
      </trkpt>
      <trkpt lat="48.36946" lon="-4.38">
        <ele>22.25</ele>
        <time>2019-08-23T08:10:41Z</time>
      </trkpt>
      <trkpt lat="48.36905" lon="-4.37965">
        <ele>18.88</ele>
        <time>2019-08-23T08:10:47Z</time>
      </trkpt>
      <trkpt lat="48.36853" lon="-4.37923">
        <ele>16</ele>
        <time>2019-08-23T08:10:54Z</time>
      </trkpt>
      <trkpt lat="48.36833" lon="-4.37906">
        <ele>14.56</ele>
        <time>2019-08-23T08:10:57Z</time>
      </trkpt>
      <trkpt lat="48.36827" lon="-4.37904">
        <ele>14.08</ele>
        <time>2019-08-23T08:10:58Z</time>
      </trkpt>
      <trkpt lat="48.36821" lon="-4.37905">
        <ele>14.08</ele>
        <time>2019-08-23T08:10:59Z</time>
      </trkpt>
      <trkpt lat="48.36815" lon="-4.37908">
        <ele>14.08</ele>
        <time>2019-08-23T08:11:00Z</time>
      </trkpt>
      <trkpt lat="48.36807" lon="-4.37922">
        <ele>13.12</ele>
        <time>2019-08-23T08:11:02Z</time>
      </trkpt>
      <trkpt lat="48.36804" lon="-4.3793">
        <ele>13.12</ele>
        <time>2019-08-23T08:11:03Z</time>
      </trkpt>
      <trkpt lat="48.36785" lon="-4.37969">
        <ele>12.63</ele>
        <time>2019-08-23T08:11:09Z</time>
      </trkpt>
      <trkpt lat="48.36766" lon="-4.38">
        <ele>12.15</ele>
        <time>2019-08-23T08:11:14Z</time>
      </trkpt>
      <trkpt lat="48.36746" lon="-4.38021">
        <ele>11.67</ele>
        <time>2019-08-23T08:11:18Z</time>
      </trkpt>
      <trkpt lat="48.36741" lon="-4.38021">
        <ele>11.67</ele>
        <time>2019-08-23T08:11:19Z</time>
      </trkpt>
      <trkpt lat="48.36736" lon="-4.38017">
        <ele>11.67</ele>
        <time>2019-08-23T08:11:20Z</time>
      </trkpt>
      <trkpt lat="48.3673" lon="-4.38014">
        <ele>11.19</ele>
        <time>2019-08-23T08:11:21Z</time>
      </trkpt>
      <trkpt lat="48.36724" lon="-4.38011">
        <ele>11.19</ele>
        <time>2019-08-23T08:11:22Z</time>
      </trkpt>
      <trkpt lat="48.3672" lon="-4.38007">
        <ele>10.71</ele>
        <time>2019-08-23T08:11:23Z</time>
      </trkpt>
      <trkpt lat="48.36715" lon="-4.38004">
        <ele>11.19</ele>
        <time>2019-08-23T08:11:24Z</time>
      </trkpt>
      <trkpt lat="48.3671" lon="-4.38">
        <ele>10.71</ele>
        <time>2019-08-23T08:11:25Z</time>
      </trkpt>
      <trkpt lat="48.36705" lon="-4.37996">
        <ele>10.71</ele>
        <time>2019-08-23T08:11:26Z</time>
      </trkpt>
      <trkpt lat="48.36669" lon="-4.37964">
        <ele>9.75</ele>
        <time>2019-08-23T08:11:33Z</time>
      </trkpt>
      <trkpt lat="48.36664" lon="-4.37959">
        <ele>9.75</ele>
        <time>2019-08-23T08:11:34Z</time>
      </trkpt>
      <trkpt lat="48.36621" lon="-4.37917">
        <ele>9.27</ele>
        <time>2019-08-23T08:11:43Z</time>
      </trkpt>
      <trkpt lat="48.36617" lon="-4.37913">
        <ele>9.27</ele>
        <time>2019-08-23T08:11:44Z</time>
      </trkpt>
      <trkpt lat="48.36613" lon="-4.37913">
        <ele>10.23</ele>
        <time>2019-08-23T08:11:45Z</time>
      </trkpt>
      <trkpt lat="48.36609" lon="-4.37913">
        <ele>9.75</ele>
        <time>2019-08-23T08:11:46Z</time>
      </trkpt>
      <trkpt lat="48.36606" lon="-4.37915">
        <ele>9.27</ele>
        <time>2019-08-23T08:11:47Z</time>
      </trkpt>
      <trkpt lat="48.36604" lon="-4.37918">
        <ele>9.27</ele>
        <time>2019-08-23T08:11:48Z</time>
      </trkpt>
      <trkpt lat="48.36596" lon="-4.37948">
        <ele>9.27</ele>
        <time>2019-08-23T08:11:54Z</time>
      </trkpt>
      <trkpt lat="48.3659" lon="-4.37961">
        <ele>9.27</ele>
        <time>2019-08-23T08:11:56Z</time>
      </trkpt>
      <trkpt lat="48.36586" lon="-4.37975">
        <ele>9.27</ele>
        <time>2019-08-23T08:11:58Z</time>
      </trkpt>
      <trkpt lat="48.36584" lon="-4.37982">
        <ele>9.27</ele>
        <time>2019-08-23T08:11:59Z</time>
      </trkpt>
      <trkpt lat="48.36574" lon="-4.38017">
        <ele>8.79</ele>
        <time>2019-08-23T08:12:04Z</time>
      </trkpt>
      <trkpt lat="48.36568" lon="-4.38033">
        <ele>8.79</ele>
        <time>2019-08-23T08:12:06Z</time>
      </trkpt>
      <trkpt lat="48.36565" lon="-4.38039">
        <ele>8.79</ele>
        <time>2019-08-23T08:12:07Z</time>
      </trkpt>
      <trkpt lat="48.36553" lon="-4.38071">
        <ele>8.31</ele>
        <time>2019-08-23T08:12:11Z</time>
      </trkpt>
      <trkpt lat="48.36529" lon="-4.38125">
        <ele>8.31</ele>
        <time>2019-08-23T08:12:18Z</time>
      </trkpt>
      <trkpt lat="48.3652" lon="-4.38158">
        <ele>7.83</ele>
        <time>2019-08-23T08:12:22Z</time>
      </trkpt>
      <trkpt lat="48.36495" lon="-4.38238">
        <ele>7.35</ele>
        <time>2019-08-23T08:12:32Z</time>
      </trkpt>
      <trkpt lat="48.36491" lon="-4.38244">
        <ele>7.35</ele>
        <time>2019-08-23T08:12:33Z</time>
      </trkpt>
      <trkpt lat="48.36486" lon="-4.38249">
        <ele>7.35</ele>
        <time>2019-08-23T08:12:34Z</time>
      </trkpt>
      <trkpt lat="48.36482" lon="-4.38253">
        <ele>7.35</ele>
        <time>2019-08-23T08:12:35Z</time>
      </trkpt>
      <trkpt lat="48.36477" lon="-4.38257">
        <ele>7.35</ele>
        <time>2019-08-23T08:12:36Z</time>
      </trkpt>
      <trkpt lat="48.36472" lon="-4.38261">
        <ele>7.35</ele>
        <time>2019-08-23T08:12:37Z</time>
      </trkpt>
      <trkpt lat="48.36467" lon="-4.38265">
        <ele>7.35</ele>
        <time>2019-08-23T08:12:38Z</time>
      </trkpt>
      <trkpt lat="48.36457" lon="-4.38273">
        <ele>7.83</ele>
        <time>2019-08-23T08:12:40Z</time>
      </trkpt>
      <trkpt lat="48.36447" lon="-4.38279">
        <ele>8.31</ele>
        <time>2019-08-23T08:12:46Z</time>
      </trkpt>
      <trkpt lat="48.36436" lon="-4.38274">
        <ele>8.31</ele>
        <time>2019-08-23T08:12:48Z</time>
      </trkpt>
      <trkpt lat="48.36421" lon="-4.38276">
        <ele>8.79</ele>
        <time>2019-08-23T08:12:51Z</time>
      </trkpt>
      <trkpt lat="48.36386" lon="-4.38289">
        <ele>8.79</ele>
        <time>2019-08-23T08:12:58Z</time>
      </trkpt>
      <trkpt lat="48.36367" lon="-4.38299">
        <ele>9.27</ele>
        <time>2019-08-23T08:13:02Z</time>
      </trkpt>
      <trkpt lat="48.36363" lon="-4.38301">
        <ele>9.27</ele>
        <time>2019-08-23T08:13:03Z</time>
      </trkpt>
      <trkpt lat="48.36336" lon="-4.38319">
        <ele>10.23</ele>
        <time>2019-08-23T08:13:10Z</time>
      </trkpt>
      <trkpt lat="48.36333" lon="-4.38319">
        <ele>10.71</ele>
        <time>2019-08-23T08:13:11Z</time>
      </trkpt>
      <trkpt lat="48.36329" lon="-4.38319">
        <ele>10.71</ele>
        <time>2019-08-23T08:13:12Z</time>
      </trkpt>
      <trkpt lat="48.36319" lon="-4.38318">
        <ele>11.19</ele>
        <time>2019-08-23T08:13:15Z</time>
      </trkpt>
      <trkpt lat="48.36317" lon="-4.38316">
        <ele>11.19</ele>
        <time>2019-08-23T08:13:16Z</time>
      </trkpt>
      <trkpt lat="48.36289" lon="-4.38295">
        <ele>13.6</ele>
        <time>2019-08-23T08:13:27Z</time>
      </trkpt>
      <trkpt lat="48.36259" lon="-4.38263">
        <ele>16</ele>
        <time>2019-08-23T08:13:37Z</time>
      </trkpt>
      <trkpt lat="48.36233" lon="-4.3823">
        <ele>18.4</ele>
        <time>2019-08-23T08:13:48Z</time>
      </trkpt>
      <trkpt lat="48.36209" lon="-4.38202">
        <ele>20.32</ele>
        <time>2019-08-23T08:13:58Z</time>
      </trkpt>
      <trkpt lat="48.36185" lon="-4.38175">
        <ele>22.73</ele>
        <time>2019-08-23T08:14:09Z</time>
      </trkpt>
      <trkpt lat="48.36172" lon="-4.38151">
        <ele>24.65</ele>
        <time>2019-08-23T08:14:18Z</time>
      </trkpt>
      <trkpt lat="48.36171" lon="-4.3815">
        <ele>25.13</ele>
        <time>2019-08-23T08:14:19Z</time>
      </trkpt>
      <trkpt lat="48.36169" lon="-4.38149">
        <ele>25.13</ele>
        <time>2019-08-23T08:14:20Z</time>
      </trkpt>
      <trkpt lat="48.36168" lon="-4.38147">
        <ele>25.13</ele>
        <time>2019-08-23T08:14:21Z</time>
      </trkpt>
      <trkpt lat="48.36166" lon="-4.38146">
        <ele>25.13</ele>
        <time>2019-08-23T08:14:22Z</time>
      </trkpt>
      <trkpt lat="48.36161" lon="-4.38148">
        <ele>25.61</ele>
        <time>2019-08-23T08:14:25Z</time>
      </trkpt>
      <trkpt lat="48.36155" lon="-4.38146">
        <ele>25.61</ele>
        <time>2019-08-23T08:14:27Z</time>
      </trkpt>
      <trkpt lat="48.36131" lon="-4.38131">
        <ele>27.05</ele>
        <time>2019-08-23T08:14:37Z</time>
      </trkpt>
      <trkpt lat="48.3611" lon="-4.38108">
        <ele>27.53</ele>
        <time>2019-08-23T08:14:47Z</time>
      </trkpt>
      <trkpt lat="48.36086" lon="-4.38085">
        <ele>27.05</ele>
        <time>2019-08-23T08:14:56Z</time>
      </trkpt>
      <trkpt lat="48.36082" lon="-4.38081">
        <ele>27.05</ele>
        <time>2019-08-23T08:14:57Z</time>
      </trkpt>
      <trkpt lat="48.36053" lon="-4.38058">
        <ele>26.09</ele>
        <time>2019-08-23T08:15:06Z</time>
      </trkpt>
      <trkpt lat="48.3605" lon="-4.38052">
        <ele>25.61</ele>
        <time>2019-08-23T08:15:07Z</time>
      </trkpt>
      <trkpt lat="48.36047" lon="-4.38046">
        <ele>25.13</ele>
        <time>2019-08-23T08:15:08Z</time>
      </trkpt>
      <trkpt lat="48.36045" lon="-4.38039">
        <ele>25.13</ele>
        <time>2019-08-23T08:15:09Z</time>
      </trkpt>
      <trkpt lat="48.36044" lon="-4.38034">
        <ele>25.61</ele>
        <time>2019-08-23T08:15:10Z</time>
      </trkpt>
      <trkpt lat="48.36043" lon="-4.38029">
        <ele>25.13</ele>
        <time>2019-08-23T08:15:11Z</time>
      </trkpt>
      <trkpt lat="48.36041" lon="-4.38014">
        <ele>25.13</ele>
        <time>2019-08-23T08:15:17Z</time>
      </trkpt>
      <trkpt lat="48.36043" lon="-4.38014">
        <ele>25.13</ele>
        <time>2019-08-23T08:15:18Z</time>
      </trkpt>
      <trkpt lat="48.36044" lon="-4.38014">
        <ele>25.13</ele>
        <time>2019-08-23T08:15:19Z</time>
      </trkpt>
      <trkpt lat="48.36045" lon="-4.38012">
        <ele>25.13</ele>
        <time>2019-08-23T08:15:20Z</time>
      </trkpt>
      <trkpt lat="48.36046" lon="-4.3801">
        <ele>25.61</ele>
        <time>2019-08-23T08:15:21Z</time>
      </trkpt>
      <trkpt lat="48.36055" lon="-4.37982">
        <ele>22.25</ele>
        <time>2019-08-23T08:15:31Z</time>
      </trkpt>
      <trkpt lat="48.36056" lon="-4.3798">
        <ele>28.02</ele>
        <time>2019-08-23T08:15:32Z</time>
      </trkpt>
      <trkpt lat="48.36057" lon="-4.37978">
        <ele>16</ele>
        <time>2019-08-23T08:15:33Z</time>
      </trkpt>
      <trkpt lat="48.36058" lon="-4.37976">
        <ele>32.82</ele>
        <time>2019-08-23T08:15:34Z</time>
      </trkpt>
      <trkpt lat="48.36058" lon="-4.37974">
        <ele>26.09</ele>
        <time>2019-08-23T08:15:35Z</time>
      </trkpt>
      <trkpt lat="48.36065" lon="-4.37951">
        <ele>22.73</ele>
        <time>2019-08-23T08:15:43Z</time>
      </trkpt>
      <trkpt lat="48.36066" lon="-4.37948">
        <ele>28.02</ele>
        <time>2019-08-23T08:15:44Z</time>
      </trkpt>
      <trkpt lat="48.3607" lon="-4.37939">
        <ele>25.61</ele>
        <time>2019-08-23T08:15:47Z</time>
      </trkpt>
      <trkpt lat="48.36091" lon="-4.37894">
        <ele>25.13</ele>
        <time>2019-08-23T08:15:57Z</time>
      </trkpt>
      <trkpt lat="48.36095" lon="-4.37883">
        <ele>24.65</ele>
        <time>2019-08-23T08:15:59Z</time>
      </trkpt>
      <trkpt lat="48.36104" lon="-4.37855">
        <ele>24.65</ele>
        <time>2019-08-23T08:16:03Z</time>
      </trkpt>
      <trkpt lat="48.36106" lon="-4.37849">
        <ele>24.65</ele>
        <time>2019-08-23T08:16:04Z</time>
      </trkpt>
      <trkpt lat="48.36107" lon="-4.37843">
        <ele>24.17</ele>
        <time>2019-08-23T08:16:05Z</time>
      </trkpt>
      <trkpt lat="48.36128" lon="-4.37789">
        <ele>23.21</ele>
        <time>2019-08-23T08:16:13Z</time>
      </trkpt>
      <trkpt lat="48.3613" lon="-4.37782">
        <ele>23.21</ele>
        <time>2019-08-23T08:16:14Z</time>
      </trkpt>
      <trkpt lat="48.36133" lon="-4.37769">
        <ele>22.73</ele>
        <time>2019-08-23T08:16:16Z</time>
      </trkpt>
      <trkpt lat="48.36134" lon="-4.37762">
        <ele>22.25</ele>
        <time>2019-08-23T08:16:17Z</time>
      </trkpt>
      <trkpt lat="48.36135" lon="-4.37755">
        <ele>21.77</ele>
        <time>2019-08-23T08:16:18Z</time>
      </trkpt>
      <trkpt lat="48.36134" lon="-4.37748">
        <ele>21.29</ele>
        <time>2019-08-23T08:16:19Z</time>
      </trkpt>
      <trkpt lat="48.36131" lon="-4.37713">
        <ele>19.84</ele>
        <time>2019-08-23T08:16:23Z</time>
      </trkpt>
      <trkpt lat="48.36128" lon="-4.37704">
        <ele>19.36</ele>
        <time>2019-08-23T08:16:24Z</time>
      </trkpt>
      <trkpt lat="48.36125" lon="-4.37688">
        <ele>18.4</ele>
        <time>2019-08-23T08:16:26Z</time>
      </trkpt>
      <trkpt lat="48.36123" lon="-4.37662">
        <ele>16.96</ele>
        <time>2019-08-23T08:16:29Z</time>
      </trkpt>
      <trkpt lat="48.36125" lon="-4.37645">
        <ele>16</ele>
        <time>2019-08-23T08:16:31Z</time>
      </trkpt>
      <trkpt lat="48.36123" lon="-4.37635">
        <ele>15.52</ele>
        <time>2019-08-23T08:16:32Z</time>
      </trkpt>
      <trkpt lat="48.36122" lon="-4.37624">
        <ele>15.04</ele>
        <time>2019-08-23T08:16:33Z</time>
      </trkpt>
      <trkpt lat="48.3612" lon="-4.37604">
        <ele>14.56</ele>
        <time>2019-08-23T08:16:35Z</time>
      </trkpt>
      <trkpt lat="48.36119" lon="-4.37595">
        <ele>14.56</ele>
        <time>2019-08-23T08:16:36Z</time>
      </trkpt>
      <trkpt lat="48.36118" lon="-4.37585">
        <ele>14.56</ele>
        <time>2019-08-23T08:16:37Z</time>
      </trkpt>
      <trkpt lat="48.36118" lon="-4.37497">
        <ele>13.6</ele>
        <time>2019-08-23T08:16:47Z</time>
      </trkpt>
      <trkpt lat="48.36114" lon="-4.37453">
        <ele>12.15</ele>
        <time>2019-08-23T08:16:52Z</time>
      </trkpt>
      <trkpt lat="48.36105" lon="-4.37413">
        <ele>8.79</ele>
        <time>2019-08-23T08:16:56Z</time>
      </trkpt>
      <trkpt lat="48.36104" lon="-4.37402">
        <ele>7.83</ele>
        <time>2019-08-23T08:16:57Z</time>
      </trkpt>
      <trkpt lat="48.36103" lon="-4.3738">
        <ele>6.39</ele>
        <time>2019-08-23T08:16:59Z</time>
      </trkpt>
      <trkpt lat="48.36102" lon="-4.37369">
        <ele>5.42</ele>
        <time>2019-08-23T08:17:00Z</time>
      </trkpt>
      <trkpt lat="48.361" lon="-4.37343">
        <ele>4.46</ele>
        <time>2019-08-23T08:17:02Z</time>
      </trkpt>
      <trkpt lat="48.36098" lon="-4.37332">
        <ele>3.98</ele>
        <time>2019-08-23T08:17:03Z</time>
      </trkpt>
      <trkpt lat="48.36095" lon="-4.37322">
        <ele>3.5</ele>
        <time>2019-08-23T08:17:04Z</time>
      </trkpt>
      <trkpt lat="48.36091" lon="-4.37312">
        <ele>2.54</ele>
        <time>2019-08-23T08:17:05Z</time>
      </trkpt>
      <trkpt lat="48.36086" lon="-4.37302">
        <ele>2.06</ele>
        <time>2019-08-23T08:17:06Z</time>
      </trkpt>
      <trkpt lat="48.36081" lon="-4.37294">
        <ele>1.1</ele>
        <time>2019-08-23T08:17:07Z</time>
      </trkpt>
      <trkpt lat="48.36075" lon="-4.37287">
        <ele>0.14</ele>
        <time>2019-08-23T08:17:08Z</time>
      </trkpt>
      <trkpt lat="48.36069" lon="-4.3728">
        <ele>-0.34</ele>
        <time>2019-08-23T08:17:09Z</time>
      </trkpt>
      <trkpt lat="48.36059" lon="-4.37267">
        <ele>-1.3</ele>
        <time>2019-08-23T08:17:11Z</time>
      </trkpt>
      <trkpt lat="48.36057" lon="-4.3726">
        <ele>-2.27</ele>
        <time>2019-08-23T08:17:12Z</time>
      </trkpt>
      <trkpt lat="48.36053" lon="-4.37234">
        <ele>-3.23</ele>
        <time>2019-08-23T08:17:15Z</time>
      </trkpt>
      <trkpt lat="48.3605" lon="-4.37228">
        <ele>-3.71</ele>
        <time>2019-08-23T08:17:16Z</time>
      </trkpt>
      <trkpt lat="48.36046" lon="-4.37222">
        <ele>-4.19</ele>
        <time>2019-08-23T08:17:17Z</time>
      </trkpt>
      <trkpt lat="48.36038" lon="-4.37212">
        <ele>-5.63</ele>
        <time>2019-08-23T08:17:19Z</time>
      </trkpt>
      <trkpt lat="48.36033" lon="-4.37205">
        <ele>-5.63</ele>
        <time>2019-08-23T08:17:20Z</time>
      </trkpt>
      <trkpt lat="48.36018" lon="-4.37185">
        <ele>-7.07</ele>
        <time>2019-08-23T08:17:23Z</time>
      </trkpt>
      <trkpt lat="48.36015" lon="-4.37177">
        <ele>-7.55</ele>
        <time>2019-08-23T08:17:24Z</time>
      </trkpt>
      <trkpt lat="48.36011" lon="-4.37169">
        <ele>-8.03</ele>
        <time>2019-08-23T08:17:25Z</time>
      </trkpt>
      <trkpt lat="48.36008" lon="-4.3716">
        <ele>-8.51</ele>
        <time>2019-08-23T08:17:26Z</time>
      </trkpt>
      <trkpt lat="48.36005" lon="-4.37151">
        <ele>-9</ele>
        <time>2019-08-23T08:17:27Z</time>
      </trkpt>
      <trkpt lat="48.36001" lon="-4.37141">
        <ele>-9.48</ele>
        <time>2019-08-23T08:17:28Z</time>
      </trkpt>
      <trkpt lat="48.35986" lon="-4.37104">
        <ele>-10.44</ele>
        <time>2019-08-23T08:17:32Z</time>
      </trkpt>
      <trkpt lat="48.35981" lon="-4.37097">
        <ele>-10.44</ele>
        <time>2019-08-23T08:17:33Z</time>
      </trkpt>
      <trkpt lat="48.35976" lon="-4.37093">
        <ele>-10.92</ele>
        <time>2019-08-23T08:17:34Z</time>
      </trkpt>
      <trkpt lat="48.35972" lon="-4.37089">
        <ele>-11.4</ele>
        <time>2019-08-23T08:17:35Z</time>
      </trkpt>
      <trkpt lat="48.35967" lon="-4.37085">
        <ele>-11.88</ele>
        <time>2019-08-23T08:17:36Z</time>
      </trkpt>
      <trkpt lat="48.35962" lon="-4.37079">
        <ele>-12.36</ele>
        <time>2019-08-23T08:17:37Z</time>
      </trkpt>
      <trkpt lat="48.35958" lon="-4.37074">
        <ele>-12.84</ele>
        <time>2019-08-23T08:17:38Z</time>
      </trkpt>
      <trkpt lat="48.35952" lon="-4.3706">
        <ele>-13.8</ele>
        <time>2019-08-23T08:17:40Z</time>
      </trkpt>
      <trkpt lat="48.35949" lon="-4.37055">
        <ele>-14.28</ele>
        <time>2019-08-23T08:17:42Z</time>
      </trkpt>
      <trkpt lat="48.35948" lon="-4.37052">
        <ele>-14.28</ele>
        <time>2019-08-23T08:17:43Z</time>
      </trkpt>
      <trkpt lat="48.35948" lon="-4.37049">
        <ele>-14.76</ele>
        <time>2019-08-23T08:17:44Z</time>
      </trkpt>
      <trkpt lat="48.35949" lon="-4.37046">
        <ele>-14.28</ele>
        <time>2019-08-23T08:17:45Z</time>
      </trkpt>
      <trkpt lat="48.35952" lon="-4.37043">
        <ele>-14.28</ele>
        <time>2019-08-23T08:17:46Z</time>
      </trkpt>
      <trkpt lat="48.35977" lon="-4.36999">
        <ele>-13.32</ele>
        <time>2019-08-23T08:17:56Z</time>
      </trkpt>
      <trkpt lat="48.35979" lon="-4.36993">
        <ele>-13.32</ele>
        <time>2019-08-23T08:17:57Z</time>
      </trkpt>
      <trkpt lat="48.3598" lon="-4.36988">
        <ele>-12.84</ele>
        <time>2019-08-23T08:17:58Z</time>
      </trkpt>
      <trkpt lat="48.35982" lon="-4.36982">
        <ele>-12.36</ele>
        <time>2019-08-23T08:17:59Z</time>
      </trkpt>
      <trkpt lat="48.35983" lon="-4.36976">
        <ele>-12.36</ele>
        <time>2019-08-23T08:18:00Z</time>
      </trkpt>
      <trkpt lat="48.3599" lon="-4.36937">
        <ele>-12.84</ele>
        <time>2019-08-23T08:18:06Z</time>
      </trkpt>
      <trkpt lat="48.35995" lon="-4.36916">
        <ele>-13.32</ele>
        <time>2019-08-23T08:18:09Z</time>
      </trkpt>
      <trkpt lat="48.36001" lon="-4.36878">
        <ele>-14.76</ele>
        <time>2019-08-23T08:18:14Z</time>
      </trkpt>
      <trkpt lat="48.36002" lon="-4.36873">
        <ele>-14.76</ele>
        <time>2019-08-23T08:18:15Z</time>
      </trkpt>
      <trkpt lat="48.36002" lon="-4.3687">
        <ele>-14.28</ele>
        <time>2019-08-23T08:18:16Z</time>
      </trkpt>
      <trkpt lat="48.36002" lon="-4.36866">
        <ele>-14.28</ele>
        <time>2019-08-23T08:18:18Z</time>
      </trkpt>
      <trkpt lat="48.36002" lon="-4.36862">
        <ele>-14.76</ele>
        <time>2019-08-23T08:18:19Z</time>
      </trkpt>
      <trkpt lat="48.36001" lon="-4.36857">
        <ele>-15.24</ele>
        <time>2019-08-23T08:18:20Z</time>
      </trkpt>
      <trkpt lat="48.35999" lon="-4.36851">
        <ele>-15.72</ele>
        <time>2019-08-23T08:18:21Z</time>
      </trkpt>
      <trkpt lat="48.35997" lon="-4.36844">
        <ele>-16.21</ele>
        <time>2019-08-23T08:18:22Z</time>
      </trkpt>
      <trkpt lat="48.35993" lon="-4.3683">
        <ele>-17.17</ele>
        <time>2019-08-23T08:18:24Z</time>
      </trkpt>
      <trkpt lat="48.35992" lon="-4.36822">
        <ele>-17.65</ele>
        <time>2019-08-23T08:18:25Z</time>
      </trkpt>
      <trkpt lat="48.35992" lon="-4.36814">
        <ele>-18.13</ele>
        <time>2019-08-23T08:18:26Z</time>
      </trkpt>
      <trkpt lat="48.35992" lon="-4.36807">
        <ele>-18.61</ele>
        <time>2019-08-23T08:18:27Z</time>
      </trkpt>
      <trkpt lat="48.35995" lon="-4.36803">
        <ele>-19.09</ele>
        <time>2019-08-23T08:18:28Z</time>
      </trkpt>
      <trkpt lat="48.35999" lon="-4.368">
        <ele>-19.09</ele>
        <time>2019-08-23T08:18:29Z</time>
      </trkpt>
      <trkpt lat="48.36003" lon="-4.36798">
        <ele>-19.09</ele>
        <time>2019-08-23T08:18:30Z</time>
      </trkpt>
      <trkpt lat="48.36015" lon="-4.36788">
        <ele>-24.38</ele>
        <time>2019-08-23T08:18:34Z</time>
      </trkpt>
      <trkpt lat="48.36017" lon="-4.36785">
        <ele>-14.76</ele>
        <time>2019-08-23T08:18:35Z</time>
      </trkpt>
      <trkpt lat="48.36041" lon="-4.36748">
        <ele>-16.21</ele>
        <time>2019-08-23T08:18:46Z</time>
      </trkpt>
      <trkpt lat="48.36046" lon="-4.3673">
        <ele>-15.72</ele>
        <time>2019-08-23T08:18:51Z</time>
      </trkpt>
      <trkpt lat="48.36052" lon="-4.36725">
        <ele>-17.17</ele>
        <time>2019-08-23T08:18:53Z</time>
      </trkpt>
      <trkpt lat="48.36055" lon="-4.36722">
        <ele>-14.28</ele>
        <time>2019-08-23T08:18:54Z</time>
      </trkpt>
      <trkpt lat="48.36057" lon="-4.36718">
        <ele>-15.72</ele>
        <time>2019-08-23T08:18:55Z</time>
      </trkpt>
      <trkpt lat="48.36066" lon="-4.36701">
        <ele>-9.96</ele>
        <time>2019-08-23T08:18:59Z</time>
      </trkpt>
      <trkpt lat="48.36068" lon="-4.36697">
        <ele>-15.24</ele>
        <time>2019-08-23T08:19:00Z</time>
      </trkpt>
      <trkpt lat="48.36072" lon="-4.36695">
        <ele>-15.72</ele>
        <time>2019-08-23T08:19:01Z</time>
      </trkpt>
      <trkpt lat="48.36075" lon="-4.36692">
        <ele>-25.34</ele>
        <time>2019-08-23T08:19:02Z</time>
      </trkpt>
      <trkpt lat="48.36077" lon="-4.36691">
        <ele>-7.55</ele>
        <time>2019-08-23T08:19:03Z</time>
      </trkpt>
      <trkpt lat="48.36083" lon="-4.36689">
        <ele>-15.24</ele>
        <time>2019-08-23T08:19:04Z</time>
      </trkpt>
      <trkpt lat="48.36087" lon="-4.36687">
        <ele>-15.24</ele>
        <time>2019-08-23T08:19:05Z</time>
      </trkpt>
      <trkpt lat="48.36126" lon="-4.36674">
        <ele>-14.76</ele>
        <time>2019-08-23T08:19:14Z</time>
      </trkpt>
      <trkpt lat="48.36131" lon="-4.36672">
        <ele>-14.76</ele>
        <time>2019-08-23T08:19:15Z</time>
      </trkpt>
      <trkpt lat="48.36135" lon="-4.36669">
        <ele>-14.28</ele>
        <time>2019-08-23T08:19:16Z</time>
      </trkpt>
      <trkpt lat="48.36158" lon="-4.36649">
        <ele>-13.8</ele>
        <time>2019-08-23T08:19:22Z</time>
      </trkpt>
      <trkpt lat="48.36194" lon="-4.36624">
        <ele>-12.36</ele>
        <time>2019-08-23T08:19:32Z</time>
      </trkpt>
      <trkpt lat="48.36223" lon="-4.366">
        <ele>-10.92</ele>
        <time>2019-08-23T08:19:41Z</time>
      </trkpt>
      <trkpt lat="48.36226" lon="-4.36598">
        <ele>-10.92</ele>
        <time>2019-08-23T08:19:42Z</time>
      </trkpt>
      <trkpt lat="48.36245" lon="-4.36563">
        <ele>-10.44</ele>
        <time>2019-08-23T08:19:51Z</time>
      </trkpt>
      <trkpt lat="48.36247" lon="-4.36557">
        <ele>-10.44</ele>
        <time>2019-08-23T08:19:52Z</time>
      </trkpt>
      <trkpt lat="48.36273" lon="-4.36501">
        <ele>-9</ele>
        <time>2019-08-23T08:20:03Z</time>
      </trkpt>
      <trkpt lat="48.36297" lon="-4.36453">
        <ele>-9</ele>
        <time>2019-08-23T08:20:12Z</time>
      </trkpt>
      <trkpt lat="48.36301" lon="-4.36433">
        <ele>-9</ele>
        <time>2019-08-23T08:20:15Z</time>
      </trkpt>
      <trkpt lat="48.36303" lon="-4.36426">
        <ele>-9</ele>
        <time>2019-08-23T08:20:16Z</time>
      </trkpt>
      <trkpt lat="48.36304" lon="-4.36419">
        <ele>-9</ele>
        <time>2019-08-23T08:20:17Z</time>
      </trkpt>
      <trkpt lat="48.36306" lon="-4.36412">
        <ele>-9</ele>
        <time>2019-08-23T08:20:18Z</time>
      </trkpt>
      <trkpt lat="48.36308" lon="-4.36407">
        <ele>-9</ele>
        <time>2019-08-23T08:20:19Z</time>
      </trkpt>
      <trkpt lat="48.36323" lon="-4.36368">
        <ele>-9</ele>
        <time>2019-08-23T08:20:25Z</time>
      </trkpt>
      <trkpt lat="48.36325" lon="-4.3636">
        <ele>-9</ele>
        <time>2019-08-23T08:20:26Z</time>
      </trkpt>
      <trkpt lat="48.36329" lon="-4.36354">
        <ele>-9</ele>
        <time>2019-08-23T08:20:27Z</time>
      </trkpt>
      <trkpt lat="48.36332" lon="-4.36348">
        <ele>-8.51</ele>
        <time>2019-08-23T08:20:28Z</time>
      </trkpt>
      <trkpt lat="48.36334" lon="-4.36342">
        <ele>-8.51</ele>
        <time>2019-08-23T08:20:29Z</time>
      </trkpt>
      <trkpt lat="48.36336" lon="-4.36336">
        <ele>-8.51</ele>
        <time>2019-08-23T08:20:30Z</time>
      </trkpt>
      <trkpt lat="48.36337" lon="-4.36329">
        <ele>-8.03</ele>
        <time>2019-08-23T08:20:31Z</time>
      </trkpt>
      <trkpt lat="48.36339" lon="-4.36323">
        <ele>-8.03</ele>
        <time>2019-08-23T08:20:32Z</time>
      </trkpt>
      <trkpt lat="48.36364" lon="-4.36277">
        <ele>-6.11</ele>
        <time>2019-08-23T08:20:42Z</time>
      </trkpt>
      <trkpt lat="48.36393" lon="-4.36259">
        <ele>-5.63</ele>
        <time>2019-08-23T08:20:49Z</time>
      </trkpt>
      <trkpt lat="48.36397" lon="-4.36254">
        <ele>-5.15</ele>
        <time>2019-08-23T08:20:50Z</time>
      </trkpt>
      <trkpt lat="48.36411" lon="-4.36226">
        <ele>-4.67</ele>
        <time>2019-08-23T08:20:55Z</time>
      </trkpt>
      <trkpt lat="48.36414" lon="-4.36221">
        <ele>-4.67</ele>
        <time>2019-08-23T08:20:56Z</time>
      </trkpt>
      <trkpt lat="48.36435" lon="-4.36178">
        <ele>-4.67</ele>
        <time>2019-08-23T08:21:06Z</time>
      </trkpt>
      <trkpt lat="48.36434" lon="-4.36171">
        <ele>-4.67</ele>
        <time>2019-08-23T08:21:08Z</time>
      </trkpt>
      <trkpt lat="48.36431" lon="-4.36167">
        <ele>-5.15</ele>
        <time>2019-08-23T08:21:09Z</time>
      </trkpt>
      <trkpt lat="48.36428" lon="-4.36162">
        <ele>-5.15</ele>
        <time>2019-08-23T08:21:10Z</time>
      </trkpt>
      <trkpt lat="48.36396" lon="-4.36121">
        <ele>-9</ele>
        <time>2019-08-23T08:21:17Z</time>
      </trkpt>
      <trkpt lat="48.3639" lon="-4.36116">
        <ele>-9</ele>
        <time>2019-08-23T08:21:18Z</time>
      </trkpt>
      <trkpt lat="48.36365" lon="-4.36078">
        <ele>-12.36</ele>
        <time>2019-08-23T08:21:23Z</time>
      </trkpt>
      <trkpt lat="48.36354" lon="-4.36054">
        <ele>-13.8</ele>
        <time>2019-08-23T08:21:26Z</time>
      </trkpt>
      <trkpt lat="48.36354" lon="-4.36045">
        <ele>-14.28</ele>
        <time>2019-08-23T08:21:27Z</time>
      </trkpt>
      <trkpt lat="48.36356" lon="-4.36038">
        <ele>-14.76</ele>
        <time>2019-08-23T08:21:28Z</time>
      </trkpt>
      <trkpt lat="48.3636" lon="-4.36032">
        <ele>-14.76</ele>
        <time>2019-08-23T08:21:29Z</time>
      </trkpt>
      <trkpt lat="48.36364" lon="-4.36027">
        <ele>-14.28</ele>
        <time>2019-08-23T08:21:30Z</time>
      </trkpt>
      <trkpt lat="48.36383" lon="-4.36002">
        <ele>-13.32</ele>
        <time>2019-08-23T08:21:35Z</time>
      </trkpt>
      <trkpt lat="48.36421" lon="-4.35957">
        <ele>-11.4</ele>
        <time>2019-08-23T08:21:45Z</time>
      </trkpt>
      <trkpt lat="48.36425" lon="-4.35954">
        <ele>-10.44</ele>
        <time>2019-08-23T08:21:46Z</time>
      </trkpt>
      <trkpt lat="48.3643" lon="-4.35952">
        <ele>-10.92</ele>
        <time>2019-08-23T08:21:47Z</time>
      </trkpt>
      <trkpt lat="48.36434" lon="-4.35951">
        <ele>-10.44</ele>
        <time>2019-08-23T08:21:48Z</time>
      </trkpt>
      <trkpt lat="48.36438" lon="-4.35952">
        <ele>-10.44</ele>
        <time>2019-08-23T08:21:49Z</time>
      </trkpt>
      <trkpt lat="48.36442" lon="-4.35953">
        <ele>-9.96</ele>
        <time>2019-08-23T08:21:50Z</time>
      </trkpt>
      <trkpt lat="48.36446" lon="-4.35955">
        <ele>-9.48</ele>
        <time>2019-08-23T08:21:51Z</time>
      </trkpt>
      <trkpt lat="48.3645" lon="-4.35958">
        <ele>-9.48</ele>
        <time>2019-08-23T08:21:52Z</time>
      </trkpt>
      <trkpt lat="48.36457" lon="-4.35961">
        <ele>-8.51</ele>
        <time>2019-08-23T08:21:54Z</time>
      </trkpt>
      <trkpt lat="48.36461" lon="-4.35959">
        <ele>-8.51</ele>
        <time>2019-08-23T08:21:55Z</time>
      </trkpt>
      <trkpt lat="48.36471" lon="-4.35949">
        <ele>-8.03</ele>
        <time>2019-08-23T08:21:58Z</time>
      </trkpt>
      <trkpt lat="48.36475" lon="-4.35947">
        <ele>-8.51</ele>
        <time>2019-08-23T08:21:59Z</time>
      </trkpt>
      <trkpt lat="48.36479" lon="-4.35947">
        <ele>-8.03</ele>
        <time>2019-08-23T08:22:00Z</time>
      </trkpt>
      <trkpt lat="48.36483" lon="-4.35947">
        <ele>-8.03</ele>
        <time>2019-08-23T08:22:01Z</time>
      </trkpt>
      <trkpt lat="48.36487" lon="-4.35949">
        <ele>-8.03</ele>
        <time>2019-08-23T08:22:02Z</time>
      </trkpt>
      <trkpt lat="48.36491" lon="-4.35949">
        <ele>-7.55</ele>
        <time>2019-08-23T08:22:03Z</time>
      </trkpt>
      <trkpt lat="48.36495" lon="-4.3595">
        <ele>-7.07</ele>
        <time>2019-08-23T08:22:04Z</time>
      </trkpt>
      <trkpt lat="48.36551" lon="-4.35943">
        <ele>-4.67</ele>
        <time>2019-08-23T08:22:18Z</time>
      </trkpt>
      <trkpt lat="48.36563" lon="-4.35941">
        <ele>-3.71</ele>
        <time>2019-08-23T08:22:21Z</time>
      </trkpt>
      <trkpt lat="48.36567" lon="-4.35939">
        <ele>-3.23</ele>
        <time>2019-08-23T08:22:22Z</time>
      </trkpt>
      <trkpt lat="48.3657" lon="-4.35936">
        <ele>-3.23</ele>
        <time>2019-08-23T08:22:23Z</time>
      </trkpt>
      <trkpt lat="48.36574" lon="-4.35932">
        <ele>-3.23</ele>
        <time>2019-08-23T08:22:24Z</time>
      </trkpt>
      <trkpt lat="48.36576" lon="-4.35927">
        <ele>-3.23</ele>
        <time>2019-08-23T08:22:25Z</time>
      </trkpt>
      <trkpt lat="48.36579" lon="-4.35922">
        <ele>-3.23</ele>
        <time>2019-08-23T08:22:26Z</time>
      </trkpt>
      <trkpt lat="48.36582" lon="-4.35916">
        <ele>-3.23</ele>
        <time>2019-08-23T08:22:27Z</time>
      </trkpt>
      <trkpt lat="48.36584" lon="-4.3591">
        <ele>-3.23</ele>
        <time>2019-08-23T08:22:28Z</time>
      </trkpt>
      <trkpt lat="48.36586" lon="-4.35904">
        <ele>-3.23</ele>
        <time>2019-08-23T08:22:29Z</time>
      </trkpt>
      <trkpt lat="48.36618" lon="-4.35813">
        <ele>-1.79</ele>
        <time>2019-08-23T08:22:44Z</time>
      </trkpt>
      <trkpt lat="48.36638" lon="-4.35772">
        <ele>-1.3</ele>
        <time>2019-08-23T08:22:51Z</time>
      </trkpt>
      <trkpt lat="48.36659" lon="-4.35743">
        <ele>-1.3</ele>
        <time>2019-08-23T08:22:57Z</time>
      </trkpt>
      <trkpt lat="48.36662" lon="-4.35738">
        <ele>-1.3</ele>
        <time>2019-08-23T08:22:58Z</time>
      </trkpt>
      <trkpt lat="48.36666" lon="-4.35733">
        <ele>-1.3</ele>
        <time>2019-08-23T08:22:59Z</time>
      </trkpt>
      <trkpt lat="48.36669" lon="-4.35729">
        <ele>-1.3</ele>
        <time>2019-08-23T08:23:00Z</time>
      </trkpt>
      <trkpt lat="48.36673" lon="-4.35723">
        <ele>-1.3</ele>
        <time>2019-08-23T08:23:01Z</time>
      </trkpt>
      <trkpt lat="48.36676" lon="-4.35717">
        <ele>-1.3</ele>
        <time>2019-08-23T08:23:02Z</time>
      </trkpt>
      <trkpt lat="48.36702" lon="-4.35665">
        <ele>-1.79</ele>
        <time>2019-08-23T08:23:10Z</time>
      </trkpt>
      <trkpt lat="48.36709" lon="-4.35652">
        <ele>-2.27</ele>
        <time>2019-08-23T08:23:12Z</time>
      </trkpt>
      <trkpt lat="48.36714" lon="-4.35645">
        <ele>-2.75</ele>
        <time>2019-08-23T08:23:13Z</time>
      </trkpt>
      <trkpt lat="48.36733" lon="-4.3562">
        <ele>-3.71</ele>
        <time>2019-08-23T08:23:17Z</time>
      </trkpt>
      <trkpt lat="48.36768" lon="-4.3558">
        <ele>-4.19</ele>
        <time>2019-08-23T08:23:25Z</time>
      </trkpt>
      <trkpt lat="48.36778" lon="-4.35571">
        <ele>-4.19</ele>
        <time>2019-08-23T08:23:27Z</time>
      </trkpt>
      <trkpt lat="48.36804" lon="-4.35546">
        <ele>-4.19</ele>
        <time>2019-08-23T08:23:32Z</time>
      </trkpt>
      <trkpt lat="48.36816" lon="-4.35532">
        <ele>-4.19</ele>
        <time>2019-08-23T08:23:35Z</time>
      </trkpt>
      <trkpt lat="48.36851" lon="-4.35496">
        <ele>-3.71</ele>
        <time>2019-08-23T08:23:43Z</time>
      </trkpt>
      <trkpt lat="48.36865" lon="-4.35475">
        <ele>-3.23</ele>
        <time>2019-08-23T08:23:47Z</time>
      </trkpt>
      <trkpt lat="48.36867" lon="-4.35469">
        <ele>-3.23</ele>
        <time>2019-08-23T08:23:48Z</time>
      </trkpt>
      <trkpt lat="48.3687" lon="-4.35457">
        <ele>-3.23</ele>
        <time>2019-08-23T08:23:50Z</time>
      </trkpt>
      <trkpt lat="48.36877" lon="-4.35445">
        <ele>-2.75</ele>
        <time>2019-08-23T08:23:52Z</time>
      </trkpt>
      <trkpt lat="48.3688" lon="-4.35439">
        <ele>-2.75</ele>
        <time>2019-08-23T08:23:53Z</time>
      </trkpt>
      <trkpt lat="48.36899" lon="-4.35402">
        <ele>0.14</ele>
        <time>2019-08-23T08:24:01Z</time>
      </trkpt>
      <trkpt lat="48.369" lon="-4.354">
        <ele>0.62</ele>
        <time>2019-08-23T08:24:02Z</time>
      </trkpt>
      <trkpt lat="48.3692" lon="-4.3537">
        <ele>3.98</ele>
        <time>2019-08-23T08:24:12Z</time>
      </trkpt>
      <trkpt lat="48.36941" lon="-4.3533">
        <ele>4.94</ele>
        <time>2019-08-23T08:24:21Z</time>
      </trkpt>
      <trkpt lat="48.36985" lon="-4.35269">
        <ele>1.58</ele>
        <time>2019-08-23T08:24:32Z</time>
      </trkpt>
      <trkpt lat="48.36987" lon="-4.35261">
        <ele>1.58</ele>
        <time>2019-08-23T08:24:33Z</time>
      </trkpt>
      <trkpt lat="48.3699" lon="-4.35251">
        <ele>1.58</ele>
        <time>2019-08-23T08:24:34Z</time>
      </trkpt>
      <trkpt lat="48.36998" lon="-4.35223">
        <ele>0.14</ele>
        <time>2019-08-23T08:24:37Z</time>
      </trkpt>
      <trkpt lat="48.37001" lon="-4.35215">
        <ele>0.14</ele>
        <time>2019-08-23T08:24:38Z</time>
      </trkpt>
      <trkpt lat="48.37004" lon="-4.35208">
        <ele>-0.34</ele>
        <time>2019-08-23T08:24:39Z</time>
      </trkpt>
      <trkpt lat="48.37008" lon="-4.35201">
        <ele>-0.82</ele>
        <time>2019-08-23T08:24:40Z</time>
      </trkpt>
      <trkpt lat="48.37011" lon="-4.35197">
        <ele>-0.82</ele>
        <time>2019-08-23T08:24:41Z</time>
      </trkpt>
      <trkpt lat="48.37015" lon="-4.35192">
        <ele>-1.3</ele>
        <time>2019-08-23T08:24:43Z</time>
      </trkpt>
      <trkpt lat="48.37018" lon="-4.35192">
        <ele>-0.82</ele>
        <time>2019-08-23T08:24:44Z</time>
      </trkpt>
      <trkpt lat="48.3702" lon="-4.35193">
        <ele>-1.3</ele>
        <time>2019-08-23T08:24:45Z</time>
      </trkpt>
      <trkpt lat="48.37037" lon="-4.35228">
        <ele>0.62</ele>
        <time>2019-08-23T08:24:54Z</time>
      </trkpt>
      <trkpt lat="48.37037" lon="-4.35233">
        <ele>1.1</ele>
        <time>2019-08-23T08:24:55Z</time>
      </trkpt>
      <trkpt lat="48.3704" lon="-4.35285">
        <ele>3.98</ele>
        <time>2019-08-23T08:25:06Z</time>
      </trkpt>
      <trkpt lat="48.37039" lon="-4.35309">
        <ele>4.94</ele>
        <time>2019-08-23T08:25:11Z</time>
      </trkpt>
      <trkpt lat="48.37035" lon="-4.3532">
        <ele>5.42</ele>
        <time>2019-08-23T08:25:14Z</time>
      </trkpt>
      <trkpt lat="48.37037" lon="-4.35322">
        <ele>5.91</ele>
        <time>2019-08-23T08:25:15Z</time>
      </trkpt>
      <trkpt lat="48.37058" lon="-4.35328">
        <ele>7.35</ele>
        <time>2019-08-23T08:25:24Z</time>
      </trkpt>
      <trkpt lat="48.37081" lon="-4.35329">
        <ele>8.79</ele>
        <time>2019-08-23T08:25:33Z</time>
      </trkpt>
      <trkpt lat="48.37119" lon="-4.35329">
        <ele>10.71</ele>
        <time>2019-08-23T08:25:44Z</time>
      </trkpt>
      <trkpt lat="48.37156" lon="-4.35333">
        <ele>12.15</ele>
        <time>2019-08-23T08:25:55Z</time>
      </trkpt>
      <trkpt lat="48.37182" lon="-4.3533">
        <ele>13.12</ele>
        <time>2019-08-23T08:26:05Z</time>
      </trkpt>
      <trkpt lat="48.37187" lon="-4.35325">
        <ele>12.63</ele>
        <time>2019-08-23T08:26:08Z</time>
      </trkpt>
      <trkpt lat="48.37212" lon="-4.35281">
        <ele>10.23</ele>
        <time>2019-08-23T08:26:15Z</time>
      </trkpt>
      <trkpt lat="48.37217" lon="-4.35265">
        <ele>9.75</ele>
        <time>2019-08-23T08:26:17Z</time>
      </trkpt>
      <trkpt lat="48.37227" lon="-4.35223">
        <ele>8.79</ele>
        <time>2019-08-23T08:26:22Z</time>
      </trkpt>
      <trkpt lat="48.37229" lon="-4.35215">
        <ele>8.31</ele>
        <time>2019-08-23T08:26:23Z</time>
      </trkpt>
      <trkpt lat="48.37234" lon="-4.35198">
        <ele>7.83</ele>
        <time>2019-08-23T08:26:25Z</time>
      </trkpt>
      <trkpt lat="48.37241" lon="-4.35163">
        <ele>4.46</ele>
        <time>2019-08-23T08:26:29Z</time>
      </trkpt>
      <trkpt lat="48.37243" lon="-4.35154">
        <ele>4.46</ele>
        <time>2019-08-23T08:26:30Z</time>
      </trkpt>
      <trkpt lat="48.37249" lon="-4.35135">
        <ele>3.02</ele>
        <time>2019-08-23T08:26:32Z</time>
      </trkpt>
      <trkpt lat="48.37257" lon="-4.35117">
        <ele>1.58</ele>
        <time>2019-08-23T08:26:34Z</time>
      </trkpt>
      <trkpt lat="48.37263" lon="-4.35108">
        <ele>1.58</ele>
        <time>2019-08-23T08:26:35Z</time>
      </trkpt>
      <trkpt lat="48.37282" lon="-4.35085">
        <ele>2.06</ele>
        <time>2019-08-23T08:26:40Z</time>
      </trkpt>
      <trkpt lat="48.37285" lon="-4.35086">
        <ele>2.54</ele>
        <time>2019-08-23T08:26:41Z</time>
      </trkpt>
      <trkpt lat="48.37289" lon="-4.3509">
        <ele>2.54</ele>
        <time>2019-08-23T08:26:42Z</time>
      </trkpt>
      <trkpt lat="48.37292" lon="-4.35094">
        <ele>2.54</ele>
        <time>2019-08-23T08:26:43Z</time>
      </trkpt>
      <trkpt lat="48.37297" lon="-4.35098">
        <ele>3.02</ele>
        <time>2019-08-23T08:26:44Z</time>
      </trkpt>
      <trkpt lat="48.37301" lon="-4.35101">
        <ele>3.02</ele>
        <time>2019-08-23T08:26:45Z</time>
      </trkpt>
      <trkpt lat="48.37305" lon="-4.35105">
        <ele>3.02</ele>
        <time>2019-08-23T08:26:46Z</time>
      </trkpt>
      <trkpt lat="48.37313" lon="-4.35117">
        <ele>3.02</ele>
        <time>2019-08-23T08:26:49Z</time>
      </trkpt>
      <trkpt lat="48.3733" lon="-4.3515">
        <ele>3.98</ele>
        <time>2019-08-23T08:26:55Z</time>
      </trkpt>
      <trkpt lat="48.37336" lon="-4.35175">
        <ele>4.46</ele>
        <time>2019-08-23T08:26:59Z</time>
      </trkpt>
      <trkpt lat="48.37336" lon="-4.35182">
        <ele>4.46</ele>
        <time>2019-08-23T08:27:00Z</time>
      </trkpt>
      <trkpt lat="48.37341" lon="-4.35214">
        <ele>4.94</ele>
        <time>2019-08-23T08:27:05Z</time>
      </trkpt>
      <trkpt lat="48.37341" lon="-4.35221">
        <ele>4.94</ele>
        <time>2019-08-23T08:27:06Z</time>
      </trkpt>
      <trkpt lat="48.37341" lon="-4.35227">
        <ele>4.94</ele>
        <time>2019-08-23T08:27:07Z</time>
      </trkpt>
      <trkpt lat="48.37349" lon="-4.35288">
        <ele>6.39</ele>
        <time>2019-08-23T08:27:17Z</time>
      </trkpt>
      <trkpt lat="48.37349" lon="-4.35294">
        <ele>-0.82</ele>
        <time>2019-08-23T08:27:18Z</time>
      </trkpt>
      <trkpt lat="48.37349" lon="-4.35299">
        <ele>10.71</ele>
        <time>2019-08-23T08:27:19Z</time>
      </trkpt>
      <trkpt lat="48.37349" lon="-4.35305">
        <ele>6.87</ele>
        <time>2019-08-23T08:27:20Z</time>
      </trkpt>
      <trkpt lat="48.37357" lon="-4.35363">
        <ele>8.79</ele>
        <time>2019-08-23T08:27:30Z</time>
      </trkpt>
      <trkpt lat="48.3736" lon="-4.35426">
        <ele>10.23</ele>
        <time>2019-08-23T08:27:40Z</time>
      </trkpt>
      <trkpt lat="48.37359" lon="-4.35432">
        <ele>10.23</ele>
        <time>2019-08-23T08:27:41Z</time>
      </trkpt>
      <trkpt lat="48.37346" lon="-4.3554">
        <ele>12.63</ele>
        <time>2019-08-23T08:27:58Z</time>
      </trkpt>
      <trkpt lat="48.37344" lon="-4.3556">
        <ele>13.12</ele>
        <time>2019-08-23T08:28:01Z</time>
      </trkpt>
      <trkpt lat="48.37343" lon="-4.35566">
        <ele>13.12</ele>
        <time>2019-08-23T08:28:02Z</time>
      </trkpt>
      <trkpt lat="48.37341" lon="-4.35592">
        <ele>13.6</ele>
        <time>2019-08-23T08:28:06Z</time>
      </trkpt>
      <trkpt lat="48.37342" lon="-4.35598">
        <ele>14.08</ele>
        <time>2019-08-23T08:28:07Z</time>
      </trkpt>
      <trkpt lat="48.3734" lon="-4.35648">
        <ele>15.04</ele>
        <time>2019-08-23T08:28:15Z</time>
      </trkpt>
      <trkpt lat="48.37325" lon="-4.35697">
        <ele>16.48</ele>
        <time>2019-08-23T08:28:24Z</time>
      </trkpt>
      <trkpt lat="48.37313" lon="-4.35715">
        <ele>16.48</ele>
        <time>2019-08-23T08:28:28Z</time>
      </trkpt>
      <trkpt lat="48.37297" lon="-4.35737">
        <ele>17.44</ele>
        <time>2019-08-23T08:28:33Z</time>
      </trkpt>
      <trkpt lat="48.37294" lon="-4.35742">
        <ele>17.44</ele>
        <time>2019-08-23T08:28:34Z</time>
      </trkpt>
      <trkpt lat="48.37291" lon="-4.35747">
        <ele>17.44</ele>
        <time>2019-08-23T08:28:35Z</time>
      </trkpt>
      <trkpt lat="48.37289" lon="-4.35753">
        <ele>17.44</ele>
        <time>2019-08-23T08:28:36Z</time>
      </trkpt>
      <trkpt lat="48.37287" lon="-4.35758">
        <ele>17.92</ele>
        <time>2019-08-23T08:28:37Z</time>
      </trkpt>
      <trkpt lat="48.37259" lon="-4.35842">
        <ele>19.36</ele>
        <time>2019-08-23T08:28:51Z</time>
      </trkpt>
      <trkpt lat="48.37258" lon="-4.35848">
        <ele>19.36</ele>
        <time>2019-08-23T08:28:52Z</time>
      </trkpt>
      <trkpt lat="48.37247" lon="-4.35891">
        <ele>20.32</ele>
        <time>2019-08-23T08:28:59Z</time>
      </trkpt>
      <trkpt lat="48.37246" lon="-4.35897">
        <ele>20.32</ele>
        <time>2019-08-23T08:29:00Z</time>
      </trkpt>
      <trkpt lat="48.37244" lon="-4.35902">
        <ele>20.81</ele>
        <time>2019-08-23T08:29:01Z</time>
      </trkpt>
      <trkpt lat="48.37237" lon="-4.35924">
        <ele>21.29</ele>
        <time>2019-08-23T08:29:05Z</time>
      </trkpt>
      <trkpt lat="48.37218" lon="-4.35984">
        <ele>22.73</ele>
        <time>2019-08-23T08:29:16Z</time>
      </trkpt>
      <trkpt lat="48.37216" lon="-4.35996">
        <ele>22.73</ele>
        <time>2019-08-23T08:29:18Z</time>
      </trkpt>
      <trkpt lat="48.37214" lon="-4.36002">
        <ele>23.21</ele>
        <time>2019-08-23T08:29:19Z</time>
      </trkpt>
      <trkpt lat="48.37207" lon="-4.36032">
        <ele>24.17</ele>
        <time>2019-08-23T08:29:28Z</time>
      </trkpt>
      <trkpt lat="48.37207" lon="-4.36033">
        <ele>18.88</ele>
        <time>2019-08-23T08:29:29Z</time>
      </trkpt>
      <trkpt lat="48.37206" lon="-4.36033">
        <ele>37.15</ele>
        <time>2019-08-23T08:29:30Z</time>
      </trkpt>
      <trkpt lat="48.37206" lon="-4.36033">
        <ele>24.65</ele>
        <time>2019-08-23T08:29:31Z</time>
      </trkpt>
      <trkpt lat="48.37205" lon="-4.36034">
        <ele>24.17</ele>
        <time>2019-08-23T08:29:33Z</time>
      </trkpt>
      <trkpt lat="48.37204" lon="-4.36033">
        <ele>24.17</ele>
        <time>2019-08-23T08:29:36Z</time>
      </trkpt>
      <trkpt lat="48.37203" lon="-4.36031">
        <ele>24.17</ele>
        <time>2019-08-23T08:29:37Z</time>
      </trkpt>
      <trkpt lat="48.37203" lon="-4.3603">
        <ele>24.17</ele>
        <time>2019-08-23T08:29:38Z</time>
      </trkpt>
      <trkpt lat="48.37204" lon="-4.36026">
        <ele>24.17</ele>
        <time>2019-08-23T08:29:40Z</time>
      </trkpt>
      <trkpt lat="48.37204" lon="-4.36023">
        <ele>24.17</ele>
        <time>2019-08-23T08:29:41Z</time>
      </trkpt>
      <trkpt lat="48.37208" lon="-4.36007">
        <ele>23.69</ele>
        <time>2019-08-23T08:29:45Z</time>
      </trkpt>
      <trkpt lat="48.3721" lon="-4.36">
        <ele>23.21</ele>
        <time>2019-08-23T08:29:46Z</time>
      </trkpt>
      <trkpt lat="48.37231" lon="-4.35939">
        <ele>22.25</ele>
        <time>2019-08-23T08:29:55Z</time>
      </trkpt>
      <trkpt lat="48.37234" lon="-4.35934">
        <ele>22.25</ele>
        <time>2019-08-23T08:29:56Z</time>
      </trkpt>
      <trkpt lat="48.37236" lon="-4.35927">
        <ele>22.25</ele>
        <time>2019-08-23T08:29:57Z</time>
      </trkpt>
      <trkpt lat="48.3724" lon="-4.35913">
        <ele>21.77</ele>
        <time>2019-08-23T08:29:59Z</time>
      </trkpt>
      <trkpt lat="48.37244" lon="-4.35898">
        <ele>21.77</ele>
        <time>2019-08-23T08:30:01Z</time>
      </trkpt>
      <trkpt lat="48.37246" lon="-4.35891">
        <ele>21.29</ele>
        <time>2019-08-23T08:30:02Z</time>
      </trkpt>
      <trkpt lat="48.37248" lon="-4.35883">
        <ele>21.29</ele>
        <time>2019-08-23T08:30:03Z</time>
      </trkpt>
      <trkpt lat="48.37249" lon="-4.35876">
        <ele>21.77</ele>
        <time>2019-08-23T08:30:04Z</time>
      </trkpt>
      <trkpt lat="48.37251" lon="-4.35869">
        <ele>21.29</ele>
        <time>2019-08-23T08:30:05Z</time>
      </trkpt>
      <trkpt lat="48.37258" lon="-4.35839">
        <ele>20.81</ele>
        <time>2019-08-23T08:30:09Z</time>
      </trkpt>
      <trkpt lat="48.37289" lon="-4.35749">
        <ele>19.84</ele>
        <time>2019-08-23T08:30:20Z</time>
      </trkpt>
      <trkpt lat="48.37293" lon="-4.35742">
        <ele>19.36</ele>
        <time>2019-08-23T08:30:21Z</time>
      </trkpt>
      <trkpt lat="48.3733" lon="-4.35685">
        <ele>18.4</ele>
        <time>2019-08-23T08:30:30Z</time>
      </trkpt>
      <trkpt lat="48.37334" lon="-4.35677">
        <ele>18.4</ele>
        <time>2019-08-23T08:30:31Z</time>
      </trkpt>
      <trkpt lat="48.37336" lon="-4.35669">
        <ele>18.4</ele>
        <time>2019-08-23T08:30:32Z</time>
      </trkpt>
      <trkpt lat="48.37338" lon="-4.3566">
        <ele>17.92</ele>
        <time>2019-08-23T08:30:33Z</time>
      </trkpt>
      <trkpt lat="48.3734" lon="-4.3565">
        <ele>17.92</ele>
        <time>2019-08-23T08:30:34Z</time>
      </trkpt>
      <trkpt lat="48.37349" lon="-4.35524">
        <ele>15.52</ele>
        <time>2019-08-23T08:30:47Z</time>
      </trkpt>
      <trkpt lat="48.37351" lon="-4.35514">
        <ele>20.81</ele>
        <time>2019-08-23T08:30:48Z</time>
      </trkpt>
      <trkpt lat="48.37352" lon="-4.35505">
        <ele>14.56</ele>
        <time>2019-08-23T08:30:49Z</time>
      </trkpt>
      <trkpt lat="48.37365" lon="-4.35394">
        <ele>13.6</ele>
        <time>2019-08-23T08:31:01Z</time>
      </trkpt>
      <trkpt lat="48.37351" lon="-4.35299">
        <ele>11.67</ele>
        <time>2019-08-23T08:31:11Z</time>
      </trkpt>
      <trkpt lat="48.37349" lon="-4.3529">
        <ele>11.19</ele>
        <time>2019-08-23T08:31:12Z</time>
      </trkpt>
      <trkpt lat="48.37346" lon="-4.3528">
        <ele>11.19</ele>
        <time>2019-08-23T08:31:13Z</time>
      </trkpt>
      <trkpt lat="48.3734" lon="-4.35258">
        <ele>10.71</ele>
        <time>2019-08-23T08:31:15Z</time>
      </trkpt>
      <trkpt lat="48.37338" lon="-4.35248">
        <ele>10.23</ele>
        <time>2019-08-23T08:31:16Z</time>
      </trkpt>
      <trkpt lat="48.37337" lon="-4.35238">
        <ele>10.23</ele>
        <time>2019-08-23T08:31:17Z</time>
      </trkpt>
      <trkpt lat="48.37335" lon="-4.35197">
        <ele>9.75</ele>
        <time>2019-08-23T08:31:21Z</time>
      </trkpt>
      <trkpt lat="48.37334" lon="-4.35188">
        <ele>9.75</ele>
        <time>2019-08-23T08:31:22Z</time>
      </trkpt>
      <trkpt lat="48.37326" lon="-4.35151">
        <ele>8.79</ele>
        <time>2019-08-23T08:31:26Z</time>
      </trkpt>
      <trkpt lat="48.37323" lon="-4.35143">
        <ele>8.79</ele>
        <time>2019-08-23T08:31:27Z</time>
      </trkpt>
      <trkpt lat="48.37311" lon="-4.35123">
        <ele>8.79</ele>
        <time>2019-08-23T08:31:30Z</time>
      </trkpt>
      <trkpt lat="48.37306" lon="-4.35117">
        <ele>8.79</ele>
        <time>2019-08-23T08:31:31Z</time>
      </trkpt>
      <trkpt lat="48.37284" lon="-4.35074">
        <ele>7.83</ele>
        <time>2019-08-23T08:31:37Z</time>
      </trkpt>
      <trkpt lat="48.37282" lon="-4.35065">
        <ele>7.83</ele>
        <time>2019-08-23T08:31:38Z</time>
      </trkpt>
      <trkpt lat="48.37282" lon="-4.35048">
        <ele>7.83</ele>
        <time>2019-08-23T08:31:40Z</time>
      </trkpt>
      <trkpt lat="48.3728" lon="-4.35024">
        <ele>8.31</ele>
        <time>2019-08-23T08:31:43Z</time>
      </trkpt>
      <trkpt lat="48.37279" lon="-4.35017">
        <ele>8.31</ele>
        <time>2019-08-23T08:31:44Z</time>
      </trkpt>
      <trkpt lat="48.37278" lon="-4.3501">
        <ele>8.31</ele>
        <time>2019-08-23T08:31:45Z</time>
      </trkpt>
      <trkpt lat="48.37278" lon="-4.35003">
        <ele>8.31</ele>
        <time>2019-08-23T08:31:46Z</time>
      </trkpt>
      <trkpt lat="48.3728" lon="-4.34997">
        <ele>9.75</ele>
        <time>2019-08-23T08:31:47Z</time>
      </trkpt>
      <trkpt lat="48.37283" lon="-4.34994">
        <ele>9.27</ele>
        <time>2019-08-23T08:31:48Z</time>
      </trkpt>
      <trkpt lat="48.37288" lon="-4.34993">
        <ele>9.27</ele>
        <time>2019-08-23T08:31:49Z</time>
      </trkpt>
      <trkpt lat="48.37292" lon="-4.34994">
        <ele>9.27</ele>
        <time>2019-08-23T08:31:50Z</time>
      </trkpt>
      <trkpt lat="48.37296" lon="-4.34994">
        <ele>9.27</ele>
        <time>2019-08-23T08:31:51Z</time>
      </trkpt>
      <trkpt lat="48.37308" lon="-4.34995">
        <ele>-0.34</ele>
        <time>2019-08-23T08:31:54Z</time>
      </trkpt>
      <trkpt lat="48.37312" lon="-4.34996">
        <ele>17.92</ele>
        <time>2019-08-23T08:31:55Z</time>
      </trkpt>
      <trkpt lat="48.37316" lon="-4.34996">
        <ele>10.23</ele>
        <time>2019-08-23T08:31:56Z</time>
      </trkpt>
      <trkpt lat="48.37334" lon="-4.34998">
        <ele>6.39</ele>
        <time>2019-08-23T08:32:01Z</time>
      </trkpt>
      <trkpt lat="48.37338" lon="-4.34999">
        <ele>11.67</ele>
        <time>2019-08-23T08:32:02Z</time>
      </trkpt>
      <trkpt lat="48.37363" lon="-4.35004">
        <ele>16.48</ele>
        <time>2019-08-23T08:32:14Z</time>
      </trkpt>
      <trkpt lat="48.37363" lon="-4.35003">
        <ele>11.19</ele>
        <time>2019-08-23T08:32:22Z</time>
      </trkpt>
      <trkpt lat="48.37363" lon="-4.35003">
        <ele>15.04</ele>
        <time>2019-08-23T08:32:23Z</time>
      </trkpt>
      <trkpt lat="48.37366" lon="-4.35004">
        <ele>14.56</ele>
        <time>2019-08-23T08:32:33Z</time>
      </trkpt>
      <trkpt lat="48.37368" lon="-4.35004">
        <ele>14.08</ele>
        <time>2019-08-23T08:32:34Z</time>
      </trkpt>
      <trkpt lat="48.37371" lon="-4.35005">
        <ele>14.08</ele>
        <time>2019-08-23T08:32:35Z</time>
      </trkpt>
      <trkpt lat="48.37374" lon="-4.35006">
        <ele>14.56</ele>
        <time>2019-08-23T08:32:36Z</time>
      </trkpt>
      <trkpt lat="48.37377" lon="-4.35007">
        <ele>14.56</ele>
        <time>2019-08-23T08:32:37Z</time>
      </trkpt>
      <trkpt lat="48.37421" lon="-4.35015">
        <ele>16.48</ele>
        <time>2019-08-23T08:32:49Z</time>
      </trkpt>
      <trkpt lat="48.37466" lon="-4.35022">
        <ele>19.84</ele>
        <time>2019-08-23T08:33:02Z</time>
      </trkpt>
      <trkpt lat="48.37504" lon="-4.35034">
        <ele>22.73</ele>
        <time>2019-08-23T08:33:14Z</time>
      </trkpt>
      <trkpt lat="48.37544" lon="-4.35052">
        <ele>26.09</ele>
        <time>2019-08-23T08:33:27Z</time>
      </trkpt>
      <trkpt lat="48.37588" lon="-4.35072">
        <ele>28.98</ele>
        <time>2019-08-23T08:33:42Z</time>
      </trkpt>
      <trkpt lat="48.37617" lon="-4.35063">
        <ele>31.38</ele>
        <time>2019-08-23T08:33:52Z</time>
      </trkpt>
      <trkpt lat="48.37637" lon="-4.35043">
        <ele>32.82</ele>
        <time>2019-08-23T08:34:02Z</time>
      </trkpt>
      <trkpt lat="48.37639" lon="-4.35042">
        <ele>33.3</ele>
        <time>2019-08-23T08:34:03Z</time>
      </trkpt>
      <trkpt lat="48.3764" lon="-4.35039">
        <ele>33.3</ele>
        <time>2019-08-23T08:34:04Z</time>
      </trkpt>
      <trkpt lat="48.37642" lon="-4.35037">
        <ele>33.3</ele>
        <time>2019-08-23T08:34:05Z</time>
      </trkpt>
      <trkpt lat="48.37644" lon="-4.35035">
        <ele>33.78</ele>
        <time>2019-08-23T08:34:06Z</time>
      </trkpt>
      <trkpt lat="48.37646" lon="-4.35032">
        <ele>33.78</ele>
        <time>2019-08-23T08:34:07Z</time>
      </trkpt>
      <trkpt lat="48.37648" lon="-4.3503">
        <ele>34.26</ele>
        <time>2019-08-23T08:34:08Z</time>
      </trkpt>
      <trkpt lat="48.37669" lon="-4.34998">
        <ele>36.19</ele>
        <time>2019-08-23T08:34:18Z</time>
      </trkpt>
      <trkpt lat="48.37692" lon="-4.3495">
        <ele>38.11</ele>
        <time>2019-08-23T08:34:30Z</time>
      </trkpt>
      <trkpt lat="48.37708" lon="-4.34899">
        <ele>39.07</ele>
        <time>2019-08-23T08:34:41Z</time>
      </trkpt>
      <trkpt lat="48.3772" lon="-4.34835">
        <ele>39.55</ele>
        <time>2019-08-23T08:34:53Z</time>
      </trkpt>
      <trkpt lat="48.37725" lon="-4.34812">
        <ele>40.03</ele>
        <time>2019-08-23T08:34:57Z</time>
      </trkpt>
      <trkpt lat="48.37728" lon="-4.348">
        <ele>40.03</ele>
        <time>2019-08-23T08:34:59Z</time>
      </trkpt>
      <trkpt lat="48.3773" lon="-4.34794">
        <ele>40.03</ele>
        <time>2019-08-23T08:35:00Z</time>
      </trkpt>
      <trkpt lat="48.37733" lon="-4.34788">
        <ele>40.03</ele>
        <time>2019-08-23T08:35:01Z</time>
      </trkpt>
      <trkpt lat="48.37754" lon="-4.34735">
        <ele>40.51</ele>
        <time>2019-08-23T08:35:12Z</time>
      </trkpt>
      <trkpt lat="48.37764" lon="-4.34714">
        <ele>40.03</ele>
        <time>2019-08-23T08:35:16Z</time>
      </trkpt>
      <trkpt lat="48.37764" lon="-4.34707">
        <ele>40.03</ele>
        <time>2019-08-23T08:35:17Z</time>
      </trkpt>
      <trkpt lat="48.37763" lon="-4.34701">
        <ele>40.03</ele>
        <time>2019-08-23T08:35:18Z</time>
      </trkpt>
      <trkpt lat="48.37762" lon="-4.34694">
        <ele>39.55</ele>
        <time>2019-08-23T08:35:19Z</time>
      </trkpt>
      <trkpt lat="48.37762" lon="-4.34682">
        <ele>39.07</ele>
        <time>2019-08-23T08:35:21Z</time>
      </trkpt>
      <trkpt lat="48.37762" lon="-4.34658">
        <ele>38.59</ele>
        <time>2019-08-23T08:35:25Z</time>
      </trkpt>
      <trkpt lat="48.37759" lon="-4.34631">
        <ele>37.63</ele>
        <time>2019-08-23T08:35:29Z</time>
      </trkpt>
      <trkpt lat="48.37759" lon="-4.34624">
        <ele>37.63</ele>
        <time>2019-08-23T08:35:30Z</time>
      </trkpt>
      <trkpt lat="48.37758" lon="-4.34617">
        <ele>37.15</ele>
        <time>2019-08-23T08:35:31Z</time>
      </trkpt>
      <trkpt lat="48.37759" lon="-4.3461">
        <ele>37.15</ele>
        <time>2019-08-23T08:35:32Z</time>
      </trkpt>
      <trkpt lat="48.37758" lon="-4.34602">
        <ele>36.67</ele>
        <time>2019-08-23T08:35:33Z</time>
      </trkpt>
      <trkpt lat="48.37757" lon="-4.34594">
        <ele>36.67</ele>
        <time>2019-08-23T08:35:34Z</time>
      </trkpt>
      <trkpt lat="48.37755" lon="-4.34586">
        <ele>36.67</ele>
        <time>2019-08-23T08:35:35Z</time>
      </trkpt>
      <trkpt lat="48.37753" lon="-4.34579">
        <ele>36.19</ele>
        <time>2019-08-23T08:35:36Z</time>
      </trkpt>
      <trkpt lat="48.3775" lon="-4.34572">
        <ele>36.19</ele>
        <time>2019-08-23T08:35:37Z</time>
      </trkpt>
      <trkpt lat="48.37746" lon="-4.34565">
        <ele>36.19</ele>
        <time>2019-08-23T08:35:38Z</time>
      </trkpt>
      <trkpt lat="48.37736" lon="-4.34546">
        <ele>35.23</ele>
        <time>2019-08-23T08:35:41Z</time>
      </trkpt>
      <trkpt lat="48.3773" lon="-4.3452">
        <ele>34.26</ele>
        <time>2019-08-23T08:35:45Z</time>
      </trkpt>
      <trkpt lat="48.37729" lon="-4.34504">
        <ele>34.26</ele>
        <time>2019-08-23T08:35:47Z</time>
      </trkpt>
      <trkpt lat="48.3773" lon="-4.34495">
        <ele>34.26</ele>
        <time>2019-08-23T08:35:48Z</time>
      </trkpt>
      <trkpt lat="48.37731" lon="-4.34486">
        <ele>33.78</ele>
        <time>2019-08-23T08:35:49Z</time>
      </trkpt>
      <trkpt lat="48.37731" lon="-4.3445">
        <ele>32.82</ele>
        <time>2019-08-23T08:35:53Z</time>
      </trkpt>
      <trkpt lat="48.37732" lon="-4.3444">
        <ele>32.82</ele>
        <time>2019-08-23T08:35:54Z</time>
      </trkpt>
      <trkpt lat="48.37728" lon="-4.34393">
        <ele>29.46</ele>
        <time>2019-08-23T08:35:59Z</time>
      </trkpt>
      <trkpt lat="48.37729" lon="-4.34386">
        <ele>29.46</ele>
        <time>2019-08-23T08:36:00Z</time>
      </trkpt>
      <trkpt lat="48.37735" lon="-4.34352">
        <ele>28.02</ele>
        <time>2019-08-23T08:36:03Z</time>
      </trkpt>
      <trkpt lat="48.37755" lon="-4.34264">
        <ele>25.13</ele>
        <time>2019-08-23T08:36:09Z</time>
      </trkpt>
      <trkpt lat="48.37757" lon="-4.3425">
        <ele>24.65</ele>
        <time>2019-08-23T08:36:10Z</time>
      </trkpt>
      <trkpt lat="48.37759" lon="-4.34237">
        <ele>24.65</ele>
        <time>2019-08-23T08:36:11Z</time>
      </trkpt>
      <trkpt lat="48.37768" lon="-4.34171">
        <ele>25.13</ele>
        <time>2019-08-23T08:36:17Z</time>
      </trkpt>
      <trkpt lat="48.37768" lon="-4.34161">
        <ele>25.13</ele>
        <time>2019-08-23T08:36:18Z</time>
      </trkpt>
      <trkpt lat="48.37766" lon="-4.34151">
        <ele>24.65</ele>
        <time>2019-08-23T08:36:19Z</time>
      </trkpt>
      <trkpt lat="48.37763" lon="-4.34141">
        <ele>23.69</ele>
        <time>2019-08-23T08:36:20Z</time>
      </trkpt>
      <trkpt lat="48.37759" lon="-4.3413">
        <ele>23.21</ele>
        <time>2019-08-23T08:36:21Z</time>
      </trkpt>
      <trkpt lat="48.37754" lon="-4.3412">
        <ele>22.25</ele>
        <time>2019-08-23T08:36:22Z</time>
      </trkpt>
      <trkpt lat="48.37746" lon="-4.34099">
        <ele>21.29</ele>
        <time>2019-08-23T08:36:24Z</time>
      </trkpt>
      <trkpt lat="48.37735" lon="-4.34066">
        <ele>21.77</ele>
        <time>2019-08-23T08:36:28Z</time>
      </trkpt>
      <trkpt lat="48.37731" lon="-4.34058">
        <ele>21.29</ele>
        <time>2019-08-23T08:36:29Z</time>
      </trkpt>
      <trkpt lat="48.37716" lon="-4.34026">
        <ele>20.32</ele>
        <time>2019-08-23T08:36:33Z</time>
      </trkpt>
      <trkpt lat="48.37713" lon="-4.34017">
        <ele>20.32</ele>
        <time>2019-08-23T08:36:34Z</time>
      </trkpt>
      <trkpt lat="48.37711" lon="-4.34007">
        <ele>19.84</ele>
        <time>2019-08-23T08:36:35Z</time>
      </trkpt>
      <trkpt lat="48.37709" lon="-4.33997">
        <ele>19.36</ele>
        <time>2019-08-23T08:36:36Z</time>
      </trkpt>
      <trkpt lat="48.37709" lon="-4.33987">
        <ele>19.36</ele>
        <time>2019-08-23T08:36:37Z</time>
      </trkpt>
      <trkpt lat="48.37707" lon="-4.33967">
        <ele>19.36</ele>
        <time>2019-08-23T08:36:39Z</time>
      </trkpt>
      <trkpt lat="48.37705" lon="-4.33958">
        <ele>18.88</ele>
        <time>2019-08-23T08:36:40Z</time>
      </trkpt>
      <trkpt lat="48.37701" lon="-4.3395">
        <ele>18.88</ele>
        <time>2019-08-23T08:36:41Z</time>
      </trkpt>
      <trkpt lat="48.37697" lon="-4.33942">
        <ele>18.88</ele>
        <time>2019-08-23T08:36:42Z</time>
      </trkpt>
      <trkpt lat="48.37692" lon="-4.33935">
        <ele>18.4</ele>
        <time>2019-08-23T08:36:43Z</time>
      </trkpt>
      <trkpt lat="48.37668" lon="-4.33894">
        <ele>16.48</ele>
        <time>2019-08-23T08:36:48Z</time>
      </trkpt>
      <trkpt lat="48.3766" lon="-4.33877">
        <ele>15.52</ele>
        <time>2019-08-23T08:36:50Z</time>
      </trkpt>
      <trkpt lat="48.37654" lon="-4.33859">
        <ele>15.52</ele>
        <time>2019-08-23T08:36:52Z</time>
      </trkpt>
      <trkpt lat="48.37653" lon="-4.33849">
        <ele>15.04</ele>
        <time>2019-08-23T08:36:53Z</time>
      </trkpt>
      <trkpt lat="48.37654" lon="-4.33839">
        <ele>15.04</ele>
        <time>2019-08-23T08:36:54Z</time>
      </trkpt>
      <trkpt lat="48.37655" lon="-4.33821">
        <ele>15.52</ele>
        <time>2019-08-23T08:36:56Z</time>
      </trkpt>
      <trkpt lat="48.37656" lon="-4.33812">
        <ele>15.52</ele>
        <time>2019-08-23T08:36:57Z</time>
      </trkpt>
      <trkpt lat="48.37655" lon="-4.33802">
        <ele>15.52</ele>
        <time>2019-08-23T08:36:58Z</time>
      </trkpt>
      <trkpt lat="48.37645" lon="-4.33752">
        <ele>14.08</ele>
        <time>2019-08-23T08:37:03Z</time>
      </trkpt>
      <trkpt lat="48.37644" lon="-4.33742">
        <ele>14.56</ele>
        <time>2019-08-23T08:37:04Z</time>
      </trkpt>
      <trkpt lat="48.37643" lon="-4.33732">
        <ele>13.6</ele>
        <time>2019-08-23T08:37:05Z</time>
      </trkpt>
      <trkpt lat="48.37643" lon="-4.33722">
        <ele>13.6</ele>
        <time>2019-08-23T08:37:06Z</time>
      </trkpt>
      <trkpt lat="48.37644" lon="-4.33711">
        <ele>13.6</ele>
        <time>2019-08-23T08:37:07Z</time>
      </trkpt>
      <trkpt lat="48.37646" lon="-4.33678">
        <ele>12.63</ele>
        <time>2019-08-23T08:37:10Z</time>
      </trkpt>
      <trkpt lat="48.37645" lon="-4.33668">
        <ele>12.15</ele>
        <time>2019-08-23T08:37:11Z</time>
      </trkpt>
      <trkpt lat="48.37638" lon="-4.33611">
        <ele>9.75</ele>
        <time>2019-08-23T08:37:16Z</time>
      </trkpt>
      <trkpt lat="48.3763" lon="-4.33551">
        <ele>7.35</ele>
        <time>2019-08-23T08:37:21Z</time>
      </trkpt>
      <trkpt lat="48.37632" lon="-4.335">
        <ele>4.94</ele>
        <time>2019-08-23T08:37:25Z</time>
      </trkpt>
      <trkpt lat="48.37637" lon="-4.3345">
        <ele>3.98</ele>
        <time>2019-08-23T08:37:29Z</time>
      </trkpt>
      <trkpt lat="48.37639" lon="-4.33439">
        <ele>3.5</ele>
        <time>2019-08-23T08:37:30Z</time>
      </trkpt>
      <trkpt lat="48.37644" lon="-4.3343">
        <ele>3.5</ele>
        <time>2019-08-23T08:37:31Z</time>
      </trkpt>
      <trkpt lat="48.37676" lon="-4.33384">
        <ele>3.02</ele>
        <time>2019-08-23T08:37:38Z</time>
      </trkpt>
      <trkpt lat="48.3768" lon="-4.33378">
        <ele>3.02</ele>
        <time>2019-08-23T08:37:39Z</time>
      </trkpt>
      <trkpt lat="48.37683" lon="-4.33371">
        <ele>2.54</ele>
        <time>2019-08-23T08:37:40Z</time>
      </trkpt>
      <trkpt lat="48.37683" lon="-4.33364">
        <ele>2.54</ele>
        <time>2019-08-23T08:37:41Z</time>
      </trkpt>
      <trkpt lat="48.37681" lon="-4.33357">
        <ele>2.06</ele>
        <time>2019-08-23T08:37:42Z</time>
      </trkpt>
      <trkpt lat="48.37678" lon="-4.3335">
        <ele>2.06</ele>
        <time>2019-08-23T08:37:43Z</time>
      </trkpt>
      <trkpt lat="48.37675" lon="-4.33343">
        <ele>1.58</ele>
        <time>2019-08-23T08:37:44Z</time>
      </trkpt>
      <trkpt lat="48.37672" lon="-4.33338">
        <ele>1.58</ele>
        <time>2019-08-23T08:37:45Z</time>
      </trkpt>
      <trkpt lat="48.37669" lon="-4.33332">
        <ele>1.1</ele>
        <time>2019-08-23T08:37:46Z</time>
      </trkpt>
      <trkpt lat="48.37665" lon="-4.33325">
        <ele>1.1</ele>
        <time>2019-08-23T08:37:47Z</time>
      </trkpt>
      <trkpt lat="48.37662" lon="-4.33318">
        <ele>1.1</ele>
        <time>2019-08-23T08:37:48Z</time>
      </trkpt>
      <trkpt lat="48.37652" lon="-4.33293">
        <ele>0.14</ele>
        <time>2019-08-23T08:37:51Z</time>
      </trkpt>
      <trkpt lat="48.37649" lon="-4.33284">
        <ele>0.14</ele>
        <time>2019-08-23T08:37:52Z</time>
      </trkpt>
      <trkpt lat="48.37646" lon="-4.33275">
        <ele>0.14</ele>
        <time>2019-08-23T08:37:53Z</time>
      </trkpt>
      <trkpt lat="48.37641" lon="-4.3326">
        <ele>0.14</ele>
        <time>2019-08-23T08:37:55Z</time>
      </trkpt>
      <trkpt lat="48.37641" lon="-4.33254">
        <ele>0.14</ele>
        <time>2019-08-23T08:37:56Z</time>
      </trkpt>
      <trkpt lat="48.37639" lon="-4.33246">
        <ele>0.14</ele>
        <time>2019-08-23T08:37:57Z</time>
      </trkpt>
      <trkpt lat="48.37636" lon="-4.33233">
        <ele>0.14</ele>
        <time>2019-08-23T08:37:59Z</time>
      </trkpt>
      <trkpt lat="48.37633" lon="-4.33227">
        <ele>0.14</ele>
        <time>2019-08-23T08:38:00Z</time>
      </trkpt>
      <trkpt lat="48.3763" lon="-4.33221">
        <ele>0.14</ele>
        <time>2019-08-23T08:38:01Z</time>
      </trkpt>
      <trkpt lat="48.37627" lon="-4.33216">
        <ele>0.14</ele>
        <time>2019-08-23T08:38:02Z</time>
      </trkpt>
      <trkpt lat="48.37593" lon="-4.33163">
        <ele>-1.3</ele>
        <time>2019-08-23T08:38:11Z</time>
      </trkpt>
      <trkpt lat="48.37582" lon="-4.33147">
        <ele>-2.27</ele>
        <time>2019-08-23T08:38:14Z</time>
      </trkpt>
      <trkpt lat="48.37574" lon="-4.33134">
        <ele>-2.75</ele>
        <time>2019-08-23T08:38:16Z</time>
      </trkpt>
      <trkpt lat="48.3757" lon="-4.33128">
        <ele>-3.71</ele>
        <time>2019-08-23T08:38:17Z</time>
      </trkpt>
      <trkpt lat="48.37567" lon="-4.33123">
        <ele>-4.19</ele>
        <time>2019-08-23T08:38:18Z</time>
      </trkpt>
      <trkpt lat="48.37564" lon="-4.33119">
        <ele>-4.19</ele>
        <time>2019-08-23T08:38:19Z</time>
      </trkpt>
      <trkpt lat="48.37561" lon="-4.33114">
        <ele>-5.15</ele>
        <time>2019-08-23T08:38:20Z</time>
      </trkpt>
      <trkpt lat="48.37559" lon="-4.33106">
        <ele>-6.11</ele>
        <time>2019-08-23T08:38:21Z</time>
      </trkpt>
      <trkpt lat="48.37553" lon="-4.33077">
        <ele>-7.55</ele>
        <time>2019-08-23T08:38:24Z</time>
      </trkpt>
      <trkpt lat="48.37551" lon="-4.33066">
        <ele>-8.03</ele>
        <time>2019-08-23T08:38:25Z</time>
      </trkpt>
      <trkpt lat="48.37547" lon="-4.33056">
        <ele>-8.03</ele>
        <time>2019-08-23T08:38:26Z</time>
      </trkpt>
      <trkpt lat="48.37543" lon="-4.33048">
        <ele>-8.51</ele>
        <time>2019-08-23T08:38:27Z</time>
      </trkpt>
      <trkpt lat="48.37539" lon="-4.3304">
        <ele>-9</ele>
        <time>2019-08-23T08:38:28Z</time>
      </trkpt>
      <trkpt lat="48.37535" lon="-4.33032">
        <ele>-9.48</ele>
        <time>2019-08-23T08:38:29Z</time>
      </trkpt>
      <trkpt lat="48.3753" lon="-4.33024">
        <ele>-9.96</ele>
        <time>2019-08-23T08:38:30Z</time>
      </trkpt>
      <trkpt lat="48.37525" lon="-4.33017">
        <ele>-10.44</ele>
        <time>2019-08-23T08:38:31Z</time>
      </trkpt>
      <trkpt lat="48.37521" lon="-4.33012">
        <ele>-9.96</ele>
        <time>2019-08-23T08:38:32Z</time>
      </trkpt>
      <trkpt lat="48.37516" lon="-4.3301">
        <ele>-9.96</ele>
        <time>2019-08-23T08:38:33Z</time>
      </trkpt>
      <trkpt lat="48.37512" lon="-4.3301">
        <ele>-9.48</ele>
        <time>2019-08-23T08:38:34Z</time>
      </trkpt>
      <trkpt lat="48.3751" lon="-4.33011">
        <ele>-9.96</ele>
        <time>2019-08-23T08:38:35Z</time>
      </trkpt>
      <trkpt lat="48.37508" lon="-4.33011">
        <ele>-9.48</ele>
        <time>2019-08-23T08:38:36Z</time>
      </trkpt>
      <trkpt lat="48.37506" lon="-4.33012">
        <ele>-9.48</ele>
        <time>2019-08-23T08:38:37Z</time>
      </trkpt>
      <trkpt lat="48.37504" lon="-4.33013">
        <ele>-9.48</ele>
        <time>2019-08-23T08:38:38Z</time>
      </trkpt>
      <trkpt lat="48.375" lon="-4.33016">
        <ele>-9.48</ele>
        <time>2019-08-23T08:38:39Z</time>
      </trkpt>
      <trkpt lat="48.37485" lon="-4.33032">
        <ele>-8.51</ele>
        <time>2019-08-23T08:38:45Z</time>
      </trkpt>
      <trkpt lat="48.37483" lon="-4.33034">
        <ele>-8.51</ele>
        <time>2019-08-23T08:38:46Z</time>
      </trkpt>
      <trkpt lat="48.37478" lon="-4.33044">
        <ele>-7.55</ele>
        <time>2019-08-23T08:38:51Z</time>
      </trkpt>
      <trkpt lat="48.37476" lon="-4.33046">
        <ele>-7.07</ele>
        <time>2019-08-23T08:38:53Z</time>
      </trkpt>
      <trkpt lat="48.37474" lon="-4.33048">
        <ele>-6.59</ele>
        <time>2019-08-23T08:38:54Z</time>
      </trkpt>
      <trkpt lat="48.37473" lon="-4.33049">
        <ele>-6.59</ele>
        <time>2019-08-23T08:38:55Z</time>
      </trkpt>
      <trkpt lat="48.37471" lon="-4.33051">
        <ele>-6.11</ele>
        <time>2019-08-23T08:38:56Z</time>
      </trkpt>
      <trkpt lat="48.3747" lon="-4.33054">
        <ele>-6.11</ele>
        <time>2019-08-23T08:38:57Z</time>
      </trkpt>
      <trkpt lat="48.37468" lon="-4.33055">
        <ele>-5.63</ele>
        <time>2019-08-23T08:38:58Z</time>
      </trkpt>
      <trkpt lat="48.37465" lon="-4.33058">
        <ele>-5.15</ele>
        <time>2019-08-23T08:39:00Z</time>
      </trkpt>
      <trkpt lat="48.37459" lon="-4.33065">
        <ele>-4.19</ele>
        <time>2019-08-23T08:39:04Z</time>
      </trkpt>
      <trkpt lat="48.37457" lon="-4.33067">
        <ele>-3.71</ele>
        <time>2019-08-23T08:39:05Z</time>
      </trkpt>
      <trkpt lat="48.37456" lon="-4.3307">
        <ele>-3.23</ele>
        <time>2019-08-23T08:39:06Z</time>
      </trkpt>
      <trkpt lat="48.37454" lon="-4.33073">
        <ele>-2.75</ele>
        <time>2019-08-23T08:39:07Z</time>
      </trkpt>
      <trkpt lat="48.37453" lon="-4.33075">
        <ele>-2.75</ele>
        <time>2019-08-23T08:39:08Z</time>
      </trkpt>
      <trkpt lat="48.37451" lon="-4.33077">
        <ele>-2.27</ele>
        <time>2019-08-23T08:39:09Z</time>
      </trkpt>
      <trkpt lat="48.37447" lon="-4.33081">
        <ele>-1.3</ele>
        <time>2019-08-23T08:39:12Z</time>
      </trkpt>
      <trkpt lat="48.37445" lon="-4.33083">
        <ele>-0.82</ele>
        <time>2019-08-23T08:39:13Z</time>
      </trkpt>
      <trkpt lat="48.37443" lon="-4.33085">
        <ele>-0.82</ele>
        <time>2019-08-23T08:39:14Z</time>
      </trkpt>
      <trkpt lat="48.37432" lon="-4.33093">
        <ele>0.62</ele>
        <time>2019-08-23T08:39:20Z</time>
      </trkpt>
      <trkpt lat="48.3743" lon="-4.33095">
        <ele>1.1</ele>
        <time>2019-08-23T08:39:21Z</time>
      </trkpt>
      <trkpt lat="48.37425" lon="-4.33102">
        <ele>1.58</ele>
        <time>2019-08-23T08:39:25Z</time>
      </trkpt>
      <trkpt lat="48.37419" lon="-4.33111">
        <ele>2.06</ele>
        <time>2019-08-23T08:39:30Z</time>
      </trkpt>
      <trkpt lat="48.37411" lon="-4.33124">
        <ele>3.02</ele>
        <time>2019-08-23T08:39:36Z</time>
      </trkpt>
      <trkpt lat="48.37408" lon="-4.33131">
        <ele>3.02</ele>
        <time>2019-08-23T08:39:39Z</time>
      </trkpt>
      <trkpt lat="48.37404" lon="-4.33138">
        <ele>3.5</ele>
        <time>2019-08-23T08:39:43Z</time>
      </trkpt>
      <trkpt lat="48.37403" lon="-4.3314">
        <ele>3.5</ele>
        <time>2019-08-23T08:39:44Z</time>
      </trkpt>
      <trkpt lat="48.37401" lon="-4.33144">
        <ele>3.5</ele>
        <time>2019-08-23T08:39:45Z</time>
      </trkpt>
      <trkpt lat="48.37392" lon="-4.33165">
        <ele>4.46</ele>
        <time>2019-08-23T08:39:50Z</time>
      </trkpt>
      <trkpt lat="48.37389" lon="-4.3317">
        <ele>4.46</ele>
        <time>2019-08-23T08:39:51Z</time>
      </trkpt>
      <trkpt lat="48.37388" lon="-4.33173">
        <ele>4.46</ele>
        <time>2019-08-23T08:39:52Z</time>
      </trkpt>
      <trkpt lat="48.37372" lon="-4.33211">
        <ele>6.39</ele>
        <time>2019-08-23T08:40:03Z</time>
      </trkpt>
      <trkpt lat="48.37369" lon="-4.33224">
        <ele>6.39</ele>
        <time>2019-08-23T08:40:07Z</time>
      </trkpt>
      <trkpt lat="48.37368" lon="-4.33228">
        <ele>6.39</ele>
        <time>2019-08-23T08:40:08Z</time>
      </trkpt>
      <trkpt lat="48.37359" lon="-4.3325">
        <ele>6.39</ele>
        <time>2019-08-23T08:40:13Z</time>
      </trkpt>
      <trkpt lat="48.37356" lon="-4.33256">
        <ele>6.87</ele>
        <time>2019-08-23T08:40:15Z</time>
      </trkpt>
      <trkpt lat="48.37354" lon="-4.3326">
        <ele>6.87</ele>
        <time>2019-08-23T08:40:16Z</time>
      </trkpt>
      <trkpt lat="48.37352" lon="-4.33265">
        <ele>6.87</ele>
        <time>2019-08-23T08:40:17Z</time>
      </trkpt>
      <trkpt lat="48.37351" lon="-4.3327">
        <ele>7.35</ele>
        <time>2019-08-23T08:40:18Z</time>
      </trkpt>
      <trkpt lat="48.3735" lon="-4.33273">
        <ele>7.35</ele>
        <time>2019-08-23T08:40:19Z</time>
      </trkpt>
      <trkpt lat="48.37349" lon="-4.33277">
        <ele>7.35</ele>
        <time>2019-08-23T08:40:20Z</time>
      </trkpt>
      <trkpt lat="48.37346" lon="-4.33287">
        <ele>7.83</ele>
        <time>2019-08-23T08:40:23Z</time>
      </trkpt>
      <trkpt lat="48.37344" lon="-4.33291">
        <ele>7.83</ele>
        <time>2019-08-23T08:40:24Z</time>
      </trkpt>
      <trkpt lat="48.37343" lon="-4.33295">
        <ele>7.83</ele>
        <time>2019-08-23T08:40:25Z</time>
      </trkpt>
      <trkpt lat="48.37341" lon="-4.33299">
        <ele>7.83</ele>
        <time>2019-08-23T08:40:26Z</time>
      </trkpt>
      <trkpt lat="48.3734" lon="-4.33303">
        <ele>8.31</ele>
        <time>2019-08-23T08:40:27Z</time>
      </trkpt>
      <trkpt lat="48.37339" lon="-4.33307">
        <ele>8.31</ele>
        <time>2019-08-23T08:40:28Z</time>
      </trkpt>
      <trkpt lat="48.37337" lon="-4.33311">
        <ele>8.31</ele>
        <time>2019-08-23T08:40:29Z</time>
      </trkpt>
      <trkpt lat="48.37336" lon="-4.33315">
        <ele>8.31</ele>
        <time>2019-08-23T08:40:30Z</time>
      </trkpt>
      <trkpt lat="48.37334" lon="-4.3332">
        <ele>8.31</ele>
        <time>2019-08-23T08:40:31Z</time>
      </trkpt>
      <trkpt lat="48.37333" lon="-4.33324">
        <ele>8.79</ele>
        <time>2019-08-23T08:40:32Z</time>
      </trkpt>
      <trkpt lat="48.37332" lon="-4.33328">
        <ele>8.79</ele>
        <time>2019-08-23T08:40:33Z</time>
      </trkpt>
      <trkpt lat="48.37331" lon="-4.33332">
        <ele>9.27</ele>
        <time>2019-08-23T08:40:34Z</time>
      </trkpt>
      <trkpt lat="48.37329" lon="-4.33337">
        <ele>9.27</ele>
        <time>2019-08-23T08:40:35Z</time>
      </trkpt>
      <trkpt lat="48.37328" lon="-4.33341">
        <ele>9.27</ele>
        <time>2019-08-23T08:40:36Z</time>
      </trkpt>
      <trkpt lat="48.37324" lon="-4.33352">
        <ele>9.75</ele>
        <time>2019-08-23T08:40:39Z</time>
      </trkpt>
      <trkpt lat="48.37306" lon="-4.33391">
        <ele>10.71</ele>
        <time>2019-08-23T08:40:48Z</time>
      </trkpt>
      <trkpt lat="48.37304" lon="-4.33395">
        <ele>11.19</ele>
        <time>2019-08-23T08:40:49Z</time>
      </trkpt>
      <trkpt lat="48.37302" lon="-4.33399">
        <ele>11.19</ele>
        <time>2019-08-23T08:40:50Z</time>
      </trkpt>
      <trkpt lat="48.373" lon="-4.33404">
        <ele>11.19</ele>
        <time>2019-08-23T08:40:51Z</time>
      </trkpt>
      <trkpt lat="48.37298" lon="-4.33408">
        <ele>11.67</ele>
        <time>2019-08-23T08:40:52Z</time>
      </trkpt>
      <trkpt lat="48.37296" lon="-4.33413">
        <ele>11.67</ele>
        <time>2019-08-23T08:40:53Z</time>
      </trkpt>
      <trkpt lat="48.37295" lon="-4.33417">
        <ele>11.67</ele>
        <time>2019-08-23T08:40:54Z</time>
      </trkpt>
      <trkpt lat="48.37284" lon="-4.33443">
        <ele>12.63</ele>
        <time>2019-08-23T08:41:02Z</time>
      </trkpt>
      <trkpt lat="48.37271" lon="-4.33473">
        <ele>14.08</ele>
        <time>2019-08-23T08:41:11Z</time>
      </trkpt>
      <trkpt lat="48.37266" lon="-4.33483">
        <ele>14.08</ele>
        <time>2019-08-23T08:41:14Z</time>
      </trkpt>
      <trkpt lat="48.37264" lon="-4.33487">
        <ele>14.08</ele>
        <time>2019-08-23T08:41:15Z</time>
      </trkpt>
      <trkpt lat="48.37262" lon="-4.3349">
        <ele>14.08</ele>
        <time>2019-08-23T08:41:16Z</time>
      </trkpt>
      <trkpt lat="48.37258" lon="-4.335">
        <ele>14.56</ele>
        <time>2019-08-23T08:41:19Z</time>
      </trkpt>
      <trkpt lat="48.37249" lon="-4.33525">
        <ele>15.04</ele>
        <time>2019-08-23T08:41:28Z</time>
      </trkpt>
      <trkpt lat="48.37233" lon="-4.33557">
        <ele>15.04</ele>
        <time>2019-08-23T08:41:37Z</time>
      </trkpt>
      <trkpt lat="48.37223" lon="-4.3358">
        <ele>15.52</ele>
        <time>2019-08-23T08:41:42Z</time>
      </trkpt>
      <trkpt lat="48.37221" lon="-4.33584">
        <ele>15.52</ele>
        <time>2019-08-23T08:41:43Z</time>
      </trkpt>
      <trkpt lat="48.37219" lon="-4.33587">
        <ele>15.52</ele>
        <time>2019-08-23T08:41:44Z</time>
      </trkpt>
      <trkpt lat="48.37217" lon="-4.33591">
        <ele>16</ele>
        <time>2019-08-23T08:41:45Z</time>
      </trkpt>
      <trkpt lat="48.37216" lon="-4.33594">
        <ele>16</ele>
        <time>2019-08-23T08:41:46Z</time>
      </trkpt>
      <trkpt lat="48.37203" lon="-4.33612">
        <ele>16.48</ele>
        <time>2019-08-23T08:41:52Z</time>
      </trkpt>
      <trkpt lat="48.37198" lon="-4.33619">
        <ele>16.48</ele>
        <time>2019-08-23T08:41:54Z</time>
      </trkpt>
      <trkpt lat="48.37194" lon="-4.33622">
        <ele>16.48</ele>
        <time>2019-08-23T08:41:55Z</time>
      </trkpt>
      <trkpt lat="48.37191" lon="-4.33625">
        <ele>16.96</ele>
        <time>2019-08-23T08:41:56Z</time>
      </trkpt>
      <trkpt lat="48.37189" lon="-4.33628">
        <ele>16.96</ele>
        <time>2019-08-23T08:41:57Z</time>
      </trkpt>
      <trkpt lat="48.37186" lon="-4.33631">
        <ele>16.96</ele>
        <time>2019-08-23T08:41:58Z</time>
      </trkpt>
      <trkpt lat="48.37183" lon="-4.33634">
        <ele>16.96</ele>
        <time>2019-08-23T08:41:59Z</time>
      </trkpt>
      <trkpt lat="48.3718" lon="-4.33637">
        <ele>16.96</ele>
        <time>2019-08-23T08:42:00Z</time>
      </trkpt>
      <trkpt lat="48.37116" lon="-4.33698">
        <ele>18.4</ele>
        <time>2019-08-23T08:42:16Z</time>
      </trkpt>
      <trkpt lat="48.37103" lon="-4.33708">
        <ele>18.4</ele>
        <time>2019-08-23T08:42:20Z</time>
      </trkpt>
      <trkpt lat="48.37101" lon="-4.3371">
        <ele>15.52</ele>
        <time>2019-08-23T08:42:21Z</time>
      </trkpt>
      <trkpt lat="48.37098" lon="-4.33712">
        <ele>20.32</ele>
        <time>2019-08-23T08:42:22Z</time>
      </trkpt>
      <trkpt lat="48.37082" lon="-4.33716">
        <ele>17.92</ele>
        <time>2019-08-23T08:42:26Z</time>
      </trkpt>
      <trkpt lat="48.37077" lon="-4.33714">
        <ele>17.44</ele>
        <time>2019-08-23T08:42:27Z</time>
      </trkpt>
      <trkpt lat="48.37072" lon="-4.33712">
        <ele>16.96</ele>
        <time>2019-08-23T08:42:28Z</time>
      </trkpt>
      <trkpt lat="48.37068" lon="-4.33708">
        <ele>16.48</ele>
        <time>2019-08-23T08:42:29Z</time>
      </trkpt>
      <trkpt lat="48.37064" lon="-4.33704">
        <ele>16</ele>
        <time>2019-08-23T08:42:30Z</time>
      </trkpt>
      <trkpt lat="48.3706" lon="-4.33699">
        <ele>15.52</ele>
        <time>2019-08-23T08:42:31Z</time>
      </trkpt>
      <trkpt lat="48.37056" lon="-4.33693">
        <ele>15.04</ele>
        <time>2019-08-23T08:42:32Z</time>
      </trkpt>
      <trkpt lat="48.3704" lon="-4.33678">
        <ele>14.08</ele>
        <time>2019-08-23T08:42:37Z</time>
      </trkpt>
      <trkpt lat="48.37037" lon="-4.33679">
        <ele>13.6</ele>
        <time>2019-08-23T08:42:38Z</time>
      </trkpt>
      <trkpt lat="48.37034" lon="-4.33681">
        <ele>14.08</ele>
        <time>2019-08-23T08:42:39Z</time>
      </trkpt>
      <trkpt lat="48.37032" lon="-4.33682">
        <ele>14.08</ele>
        <time>2019-08-23T08:42:40Z</time>
      </trkpt>
      <trkpt lat="48.37029" lon="-4.33685">
        <ele>14.56</ele>
        <time>2019-08-23T08:42:41Z</time>
      </trkpt>
      <trkpt lat="48.37026" lon="-4.33688">
        <ele>14.56</ele>
        <time>2019-08-23T08:42:42Z</time>
      </trkpt>
      <trkpt lat="48.37023" lon="-4.33689">
        <ele>14.56</ele>
        <time>2019-08-23T08:42:43Z</time>
      </trkpt>
      <trkpt lat="48.37021" lon="-4.33689">
        <ele>14.56</ele>
        <time>2019-08-23T08:42:44Z</time>
      </trkpt>
      <trkpt lat="48.37015" lon="-4.33691">
        <ele>14.56</ele>
        <time>2019-08-23T08:42:46Z</time>
      </trkpt>
      <trkpt lat="48.37007" lon="-4.33697">
        <ele>14.56</ele>
        <time>2019-08-23T08:42:48Z</time>
      </trkpt>
      <trkpt lat="48.37003" lon="-4.337">
        <ele>14.56</ele>
        <time>2019-08-23T08:42:49Z</time>
      </trkpt>
      <trkpt lat="48.36999" lon="-4.33703">
        <ele>14.56</ele>
        <time>2019-08-23T08:42:50Z</time>
      </trkpt>
      <trkpt lat="48.36994" lon="-4.33706">
        <ele>14.08</ele>
        <time>2019-08-23T08:42:51Z</time>
      </trkpt>
      <trkpt lat="48.36989" lon="-4.3371">
        <ele>13.6</ele>
        <time>2019-08-23T08:42:52Z</time>
      </trkpt>
      <trkpt lat="48.36985" lon="-4.33713">
        <ele>13.6</ele>
        <time>2019-08-23T08:42:53Z</time>
      </trkpt>
      <trkpt lat="48.36956" lon="-4.33743">
        <ele>12.63</ele>
        <time>2019-08-23T08:43:01Z</time>
      </trkpt>
      <trkpt lat="48.36952" lon="-4.33747">
        <ele>12.63</ele>
        <time>2019-08-23T08:43:02Z</time>
      </trkpt>
      <trkpt lat="48.36948" lon="-4.3375">
        <ele>12.63</ele>
        <time>2019-08-23T08:43:03Z</time>
      </trkpt>
      <trkpt lat="48.36937" lon="-4.33759">
        <ele>11.67</ele>
        <time>2019-08-23T08:43:06Z</time>
      </trkpt>
      <trkpt lat="48.36932" lon="-4.33763">
        <ele>11.67</ele>
        <time>2019-08-23T08:43:07Z</time>
      </trkpt>
      <trkpt lat="48.36923" lon="-4.33772">
        <ele>10.71</ele>
        <time>2019-08-23T08:43:09Z</time>
      </trkpt>
      <trkpt lat="48.36919" lon="-4.33778">
        <ele>10.71</ele>
        <time>2019-08-23T08:43:10Z</time>
      </trkpt>
      <trkpt lat="48.36915" lon="-4.33784">
        <ele>10.23</ele>
        <time>2019-08-23T08:43:11Z</time>
      </trkpt>
      <trkpt lat="48.36905" lon="-4.33794">
        <ele>10.23</ele>
        <time>2019-08-23T08:43:13Z</time>
      </trkpt>
      <trkpt lat="48.369" lon="-4.33798">
        <ele>9.75</ele>
        <time>2019-08-23T08:43:14Z</time>
      </trkpt>
      <trkpt lat="48.36884" lon="-4.33811">
        <ele>9.27</ele>
        <time>2019-08-23T08:43:17Z</time>
      </trkpt>
      <trkpt lat="48.36878" lon="-4.33815">
        <ele>8.79</ele>
        <time>2019-08-23T08:43:18Z</time>
      </trkpt>
      <trkpt lat="48.36845" lon="-4.33841">
        <ele>9.27</ele>
        <time>2019-08-23T08:43:25Z</time>
      </trkpt>
      <trkpt lat="48.36841" lon="-4.33846">
        <ele>9.27</ele>
        <time>2019-08-23T08:43:26Z</time>
      </trkpt>
      <trkpt lat="48.36837" lon="-4.3385">
        <ele>9.27</ele>
        <time>2019-08-23T08:43:27Z</time>
      </trkpt>
      <trkpt lat="48.36834" lon="-4.33856">
        <ele>9.27</ele>
        <time>2019-08-23T08:43:28Z</time>
      </trkpt>
      <trkpt lat="48.36825" lon="-4.33874">
        <ele>9.27</ele>
        <time>2019-08-23T08:43:32Z</time>
      </trkpt>
      <trkpt lat="48.36823" lon="-4.33879">
        <ele>9.27</ele>
        <time>2019-08-23T08:43:33Z</time>
      </trkpt>
      <trkpt lat="48.36822" lon="-4.33883">
        <ele>9.27</ele>
        <time>2019-08-23T08:43:34Z</time>
      </trkpt>
      <trkpt lat="48.36801" lon="-4.3392">
        <ele>8.79</ele>
        <time>2019-08-23T08:43:44Z</time>
      </trkpt>
      <trkpt lat="48.36792" lon="-4.33955">
        <ele>8.31</ele>
        <time>2019-08-23T08:43:52Z</time>
      </trkpt>
      <trkpt lat="48.3679" lon="-4.33961">
        <ele>8.31</ele>
        <time>2019-08-23T08:43:53Z</time>
      </trkpt>
      <trkpt lat="48.36777" lon="-4.33992">
        <ele>8.79</ele>
        <time>2019-08-23T08:43:57Z</time>
      </trkpt>
      <trkpt lat="48.3677" lon="-4.34007">
        <ele>8.31</ele>
        <time>2019-08-23T08:43:59Z</time>
      </trkpt>
      <trkpt lat="48.36757" lon="-4.3403">
        <ele>7.83</ele>
        <time>2019-08-23T08:44:02Z</time>
      </trkpt>
      <trkpt lat="48.36733" lon="-4.34057">
        <ele>6.87</ele>
        <time>2019-08-23T08:44:06Z</time>
      </trkpt>
      <trkpt lat="48.36726" lon="-4.34063">
        <ele>6.39</ele>
        <time>2019-08-23T08:44:07Z</time>
      </trkpt>
      <trkpt lat="48.36713" lon="-4.3407">
        <ele>5.91</ele>
        <time>2019-08-23T08:44:09Z</time>
      </trkpt>
      <trkpt lat="48.36706" lon="-4.34072">
        <ele>5.42</ele>
        <time>2019-08-23T08:44:10Z</time>
      </trkpt>
      <trkpt lat="48.36662" lon="-4.34072">
        <ele>4.94</ele>
        <time>2019-08-23T08:44:17Z</time>
      </trkpt>
      <trkpt lat="48.36656" lon="-4.34073">
        <ele>4.94</ele>
        <time>2019-08-23T08:44:18Z</time>
      </trkpt>
      <trkpt lat="48.3665" lon="-4.34075">
        <ele>4.94</ele>
        <time>2019-08-23T08:44:19Z</time>
      </trkpt>
      <trkpt lat="48.36645" lon="-4.34078">
        <ele>5.42</ele>
        <time>2019-08-23T08:44:20Z</time>
      </trkpt>
      <trkpt lat="48.36621" lon="-4.34098">
        <ele>5.91</ele>
        <time>2019-08-23T08:44:26Z</time>
      </trkpt>
      <trkpt lat="48.36618" lon="-4.34096">
        <ele>6.39</ele>
        <time>2019-08-23T08:44:27Z</time>
      </trkpt>
      <trkpt lat="48.36615" lon="-4.34092">
        <ele>6.87</ele>
        <time>2019-08-23T08:44:28Z</time>
      </trkpt>
      <trkpt lat="48.36611" lon="-4.34082">
        <ele>-9</ele>
        <time>2019-08-23T08:44:30Z</time>
      </trkpt>
      <trkpt lat="48.36609" lon="-4.34078">
        <ele>16.48</ele>
        <time>2019-08-23T08:44:31Z</time>
      </trkpt>
      <trkpt lat="48.36608" lon="-4.34074">
        <ele>7.35</ele>
        <time>2019-08-23T08:44:32Z</time>
      </trkpt>
      <trkpt lat="48.36602" lon="-4.34063">
        <ele>7.83</ele>
        <time>2019-08-23T08:44:42Z</time>
      </trkpt>
      <trkpt lat="48.36603" lon="-4.34061">
        <ele>7.83</ele>
        <time>2019-08-23T08:44:44Z</time>
      </trkpt>
      <trkpt lat="48.36604" lon="-4.34061">
        <ele>7.83</ele>
        <time>2019-08-23T08:44:45Z</time>
      </trkpt>
      <trkpt lat="48.36606" lon="-4.34063">
        <ele>7.83</ele>
        <time>2019-08-23T08:44:46Z</time>
      </trkpt>
      <trkpt lat="48.36607" lon="-4.34068">
        <ele>7.83</ele>
        <time>2019-08-23T08:44:48Z</time>
      </trkpt>
      <trkpt lat="48.36617" lon="-4.34094">
        <ele>7.35</ele>
        <time>2019-08-23T08:44:54Z</time>
      </trkpt>
      <trkpt lat="48.36619" lon="-4.34108">
        <ele>6.87</ele>
        <time>2019-08-23T08:44:56Z</time>
      </trkpt>
      <trkpt lat="48.36619" lon="-4.34115">
        <ele>7.35</ele>
        <time>2019-08-23T08:44:57Z</time>
      </trkpt>
      <trkpt lat="48.36617" lon="-4.3413">
        <ele>7.35</ele>
        <time>2019-08-23T08:44:59Z</time>
      </trkpt>
      <trkpt lat="48.36605" lon="-4.34237">
        <ele>8.79</ele>
        <time>2019-08-23T08:45:13Z</time>
      </trkpt>
      <trkpt lat="48.36604" lon="-4.34244">
        <ele>8.79</ele>
        <time>2019-08-23T08:45:14Z</time>
      </trkpt>
      <trkpt lat="48.36602" lon="-4.34251">
        <ele>8.79</ele>
        <time>2019-08-23T08:45:15Z</time>
      </trkpt>
      <trkpt lat="48.36575" lon="-4.34323">
        <ele>8.79</ele>
        <time>2019-08-23T08:45:26Z</time>
      </trkpt>
      <trkpt lat="48.36563" lon="-4.34349">
        <ele>8.31</ele>
        <time>2019-08-23T08:45:30Z</time>
      </trkpt>
      <trkpt lat="48.36538" lon="-4.3441">
        <ele>8.31</ele>
        <time>2019-08-23T08:45:40Z</time>
      </trkpt>
      <trkpt lat="48.36534" lon="-4.34412">
        <ele>8.31</ele>
        <time>2019-08-23T08:45:41Z</time>
      </trkpt>
      <trkpt lat="48.3653" lon="-4.34412">
        <ele>7.83</ele>
        <time>2019-08-23T08:45:42Z</time>
      </trkpt>
      <trkpt lat="48.3651" lon="-4.34401">
        <ele>7.83</ele>
        <time>2019-08-23T08:45:47Z</time>
      </trkpt>
      <trkpt lat="48.36506" lon="-4.34401">
        <ele>7.83</ele>
        <time>2019-08-23T08:45:48Z</time>
      </trkpt>
      <trkpt lat="48.36502" lon="-4.34404">
        <ele>9.27</ele>
        <time>2019-08-23T08:45:49Z</time>
      </trkpt>
      <trkpt lat="48.36497" lon="-4.34413">
        <ele>8.79</ele>
        <time>2019-08-23T08:45:51Z</time>
      </trkpt>
      <trkpt lat="48.36494" lon="-4.34417">
        <ele>8.79</ele>
        <time>2019-08-23T08:45:52Z</time>
      </trkpt>
      <trkpt lat="48.36492" lon="-4.34423">
        <ele>8.31</ele>
        <time>2019-08-23T08:45:53Z</time>
      </trkpt>
      <trkpt lat="48.3649" lon="-4.34428">
        <ele>8.31</ele>
        <time>2019-08-23T08:45:54Z</time>
      </trkpt>
      <trkpt lat="48.36488" lon="-4.34432">
        <ele>8.79</ele>
        <time>2019-08-23T08:45:55Z</time>
      </trkpt>
      <trkpt lat="48.36486" lon="-4.34436">
        <ele>8.79</ele>
        <time>2019-08-23T08:45:56Z</time>
      </trkpt>
      <trkpt lat="48.36484" lon="-4.34441">
        <ele>8.79</ele>
        <time>2019-08-23T08:45:57Z</time>
      </trkpt>
      <trkpt lat="48.36481" lon="-4.34445">
        <ele>8.79</ele>
        <time>2019-08-23T08:45:58Z</time>
      </trkpt>
      <trkpt lat="48.36478" lon="-4.34451">
        <ele>8.79</ele>
        <time>2019-08-23T08:45:59Z</time>
      </trkpt>
      <trkpt lat="48.36475" lon="-4.34457">
        <ele>8.79</ele>
        <time>2019-08-23T08:46:00Z</time>
      </trkpt>
      <trkpt lat="48.36471" lon="-4.34463">
        <ele>8.79</ele>
        <time>2019-08-23T08:46:01Z</time>
      </trkpt>
      <trkpt lat="48.36467" lon="-4.34468">
        <ele>8.79</ele>
        <time>2019-08-23T08:46:02Z</time>
      </trkpt>
      <trkpt lat="48.36455" lon="-4.34485">
        <ele>8.31</ele>
        <time>2019-08-23T08:46:05Z</time>
      </trkpt>
      <trkpt lat="48.3645" lon="-4.3449">
        <ele>8.31</ele>
        <time>2019-08-23T08:46:06Z</time>
      </trkpt>
      <trkpt lat="48.36446" lon="-4.34496">
        <ele>8.31</ele>
        <time>2019-08-23T08:46:07Z</time>
      </trkpt>
      <trkpt lat="48.36388" lon="-4.3456">
        <ele>7.83</ele>
        <time>2019-08-23T08:46:20Z</time>
      </trkpt>
      <trkpt lat="48.36376" lon="-4.34577">
        <ele>7.83</ele>
        <time>2019-08-23T08:46:23Z</time>
      </trkpt>
      <trkpt lat="48.36373" lon="-4.34583">
        <ele>7.83</ele>
        <time>2019-08-23T08:46:24Z</time>
      </trkpt>
      <trkpt lat="48.36371" lon="-4.34589">
        <ele>7.83</ele>
        <time>2019-08-23T08:46:25Z</time>
      </trkpt>
      <trkpt lat="48.36368" lon="-4.34595">
        <ele>7.83</ele>
        <time>2019-08-23T08:46:26Z</time>
      </trkpt>
      <trkpt lat="48.36365" lon="-4.34601">
        <ele>8.31</ele>
        <time>2019-08-23T08:46:27Z</time>
      </trkpt>
      <trkpt lat="48.36363" lon="-4.34606">
        <ele>8.31</ele>
        <time>2019-08-23T08:46:28Z</time>
      </trkpt>
      <trkpt lat="48.36346" lon="-4.34644">
        <ele>8.31</ele>
        <time>2019-08-23T08:46:34Z</time>
      </trkpt>
      <trkpt lat="48.36343" lon="-4.34649">
        <ele>8.31</ele>
        <time>2019-08-23T08:46:35Z</time>
      </trkpt>
      <trkpt lat="48.3634" lon="-4.34654">
        <ele>8.31</ele>
        <time>2019-08-23T08:46:36Z</time>
      </trkpt>
      <trkpt lat="48.3633" lon="-4.34671">
        <ele>8.31</ele>
        <time>2019-08-23T08:46:39Z</time>
      </trkpt>
      <trkpt lat="48.36315" lon="-4.34696">
        <ele>8.79</ele>
        <time>2019-08-23T08:46:44Z</time>
      </trkpt>
      <trkpt lat="48.36312" lon="-4.34701">
        <ele>8.79</ele>
        <time>2019-08-23T08:46:45Z</time>
      </trkpt>
      <trkpt lat="48.36309" lon="-4.34705">
        <ele>8.79</ele>
        <time>2019-08-23T08:46:46Z</time>
      </trkpt>
      <trkpt lat="48.36305" lon="-4.34709">
        <ele>8.79</ele>
        <time>2019-08-23T08:46:47Z</time>
      </trkpt>
      <trkpt lat="48.36302" lon="-4.34714">
        <ele>8.79</ele>
        <time>2019-08-23T08:46:48Z</time>
      </trkpt>
      <trkpt lat="48.36298" lon="-4.34719">
        <ele>8.79</ele>
        <time>2019-08-23T08:46:49Z</time>
      </trkpt>
      <trkpt lat="48.36282" lon="-4.3474">
        <ele>9.27</ele>
        <time>2019-08-23T08:46:54Z</time>
      </trkpt>
      <trkpt lat="48.36261" lon="-4.34766">
        <ele>9.75</ele>
        <time>2019-08-23T08:46:59Z</time>
      </trkpt>
      <trkpt lat="48.3624" lon="-4.34797">
        <ele>9.75</ele>
        <time>2019-08-23T08:47:05Z</time>
      </trkpt>
      <trkpt lat="48.36237" lon="-4.34801">
        <ele>9.75</ele>
        <time>2019-08-23T08:47:06Z</time>
      </trkpt>
      <trkpt lat="48.3621" lon="-4.34847">
        <ele>9.27</ele>
        <time>2019-08-23T08:47:16Z</time>
      </trkpt>
      <trkpt lat="48.36173" lon="-4.34895">
        <ele>7.35</ele>
        <time>2019-08-23T08:47:26Z</time>
      </trkpt>
      <trkpt lat="48.36165" lon="-4.34911">
        <ele>6.87</ele>
        <time>2019-08-23T08:47:28Z</time>
      </trkpt>
      <trkpt lat="48.36162" lon="-4.34919">
        <ele>6.87</ele>
        <time>2019-08-23T08:47:29Z</time>
      </trkpt>
      <trkpt lat="48.36148" lon="-4.34951">
        <ele>5.42</ele>
        <time>2019-08-23T08:47:33Z</time>
      </trkpt>
      <trkpt lat="48.36145" lon="-4.34958">
        <ele>5.42</ele>
        <time>2019-08-23T08:47:34Z</time>
      </trkpt>
      <trkpt lat="48.36138" lon="-4.34971">
        <ele>4.94</ele>
        <time>2019-08-23T08:47:36Z</time>
      </trkpt>
      <trkpt lat="48.36128" lon="-4.3499">
        <ele>4.94</ele>
        <time>2019-08-23T08:47:39Z</time>
      </trkpt>
      <trkpt lat="48.36124" lon="-4.34995">
        <ele>4.94</ele>
        <time>2019-08-23T08:47:40Z</time>
      </trkpt>
      <trkpt lat="48.36122" lon="-4.35001">
        <ele>4.94</ele>
        <time>2019-08-23T08:47:41Z</time>
      </trkpt>
      <trkpt lat="48.36119" lon="-4.35007">
        <ele>4.94</ele>
        <time>2019-08-23T08:47:42Z</time>
      </trkpt>
      <trkpt lat="48.36117" lon="-4.35012">
        <ele>4.46</ele>
        <time>2019-08-23T08:47:43Z</time>
      </trkpt>
      <trkpt lat="48.36115" lon="-4.35018">
        <ele>4.46</ele>
        <time>2019-08-23T08:47:44Z</time>
      </trkpt>
      <trkpt lat="48.36111" lon="-4.35026">
        <ele>4.46</ele>
        <time>2019-08-23T08:47:45Z</time>
      </trkpt>
      <trkpt lat="48.36106" lon="-4.35034">
        <ele>3.98</ele>
        <time>2019-08-23T08:47:46Z</time>
      </trkpt>
      <trkpt lat="48.36103" lon="-4.35043">
        <ele>3.98</ele>
        <time>2019-08-23T08:47:47Z</time>
      </trkpt>
      <trkpt lat="48.36099" lon="-4.35051">
        <ele>3.98</ele>
        <time>2019-08-23T08:47:48Z</time>
      </trkpt>
      <trkpt lat="48.36096" lon="-4.35059">
        <ele>4.46</ele>
        <time>2019-08-23T08:47:49Z</time>
      </trkpt>
      <trkpt lat="48.36094" lon="-4.35068">
        <ele>3.5</ele>
        <time>2019-08-23T08:47:50Z</time>
      </trkpt>
      <trkpt lat="48.36092" lon="-4.35075">
        <ele>3.5</ele>
        <time>2019-08-23T08:47:51Z</time>
      </trkpt>
      <trkpt lat="48.3609" lon="-4.35082">
        <ele>3.5</ele>
        <time>2019-08-23T08:47:52Z</time>
      </trkpt>
      <trkpt lat="48.36087" lon="-4.35088">
        <ele>3.02</ele>
        <time>2019-08-23T08:47:53Z</time>
      </trkpt>
      <trkpt lat="48.36085" lon="-4.35095">
        <ele>3.02</ele>
        <time>2019-08-23T08:47:54Z</time>
      </trkpt>
      <trkpt lat="48.36083" lon="-4.35101">
        <ele>3.02</ele>
        <time>2019-08-23T08:47:55Z</time>
      </trkpt>
      <trkpt lat="48.36082" lon="-4.35107">
        <ele>3.02</ele>
        <time>2019-08-23T08:47:56Z</time>
      </trkpt>
      <trkpt lat="48.3608" lon="-4.35113">
        <ele>3.02</ele>
        <time>2019-08-23T08:47:57Z</time>
      </trkpt>
      <trkpt lat="48.36078" lon="-4.3512">
        <ele>3.02</ele>
        <time>2019-08-23T08:47:58Z</time>
      </trkpt>
      <trkpt lat="48.36075" lon="-4.35126">
        <ele>3.02</ele>
        <time>2019-08-23T08:47:59Z</time>
      </trkpt>
      <trkpt lat="48.36072" lon="-4.3513">
        <ele>3.02</ele>
        <time>2019-08-23T08:48:00Z</time>
      </trkpt>
      <trkpt lat="48.36069" lon="-4.35137">
        <ele>3.02</ele>
        <time>2019-08-23T08:48:01Z</time>
      </trkpt>
      <trkpt lat="48.36055" lon="-4.3516">
        <ele>2.54</ele>
        <time>2019-08-23T08:48:05Z</time>
      </trkpt>
      <trkpt lat="48.3605" lon="-4.35166">
        <ele>3.02</ele>
        <time>2019-08-23T08:48:06Z</time>
      </trkpt>
      <trkpt lat="48.36035" lon="-4.35189">
        <ele>3.02</ele>
        <time>2019-08-23T08:48:10Z</time>
      </trkpt>
      <trkpt lat="48.36031" lon="-4.35196">
        <ele>3.02</ele>
        <time>2019-08-23T08:48:11Z</time>
      </trkpt>
      <trkpt lat="48.35992" lon="-4.35261">
        <ele>3.98</ele>
        <time>2019-08-23T08:48:22Z</time>
      </trkpt>
      <trkpt lat="48.35974" lon="-4.35292">
        <ele>3.98</ele>
        <time>2019-08-23T08:48:28Z</time>
      </trkpt>
      <trkpt lat="48.3597" lon="-4.35296">
        <ele>3.98</ele>
        <time>2019-08-23T08:48:29Z</time>
      </trkpt>
      <trkpt lat="48.35965" lon="-4.35298">
        <ele>3.98</ele>
        <time>2019-08-23T08:48:30Z</time>
      </trkpt>
      <trkpt lat="48.3596" lon="-4.35298">
        <ele>3.5</ele>
        <time>2019-08-23T08:48:31Z</time>
      </trkpt>
      <trkpt lat="48.35956" lon="-4.35295">
        <ele>3.5</ele>
        <time>2019-08-23T08:48:32Z</time>
      </trkpt>
      <trkpt lat="48.35952" lon="-4.35292">
        <ele>3.5</ele>
        <time>2019-08-23T08:48:33Z</time>
      </trkpt>
      <trkpt lat="48.35949" lon="-4.35287">
        <ele>3.02</ele>
        <time>2019-08-23T08:48:34Z</time>
      </trkpt>
      <trkpt lat="48.35946" lon="-4.35282">
        <ele>3.02</ele>
        <time>2019-08-23T08:48:35Z</time>
      </trkpt>
      <trkpt lat="48.35932" lon="-4.35258">
        <ele>2.54</ele>
        <time>2019-08-23T08:48:39Z</time>
      </trkpt>
      <trkpt lat="48.3593" lon="-4.35251">
        <ele>2.06</ele>
        <time>2019-08-23T08:48:40Z</time>
      </trkpt>
      <trkpt lat="48.35924" lon="-4.35237">
        <ele>1.58</ele>
        <time>2019-08-23T08:48:42Z</time>
      </trkpt>
      <trkpt lat="48.3592" lon="-4.35235">
        <ele>1.58</ele>
        <time>2019-08-23T08:48:43Z</time>
      </trkpt>
      <trkpt lat="48.35916" lon="-4.35235">
        <ele>1.58</ele>
        <time>2019-08-23T08:48:44Z</time>
      </trkpt>
      <trkpt lat="48.35912" lon="-4.35235">
        <ele>1.58</ele>
        <time>2019-08-23T08:48:45Z</time>
      </trkpt>
      <trkpt lat="48.35907" lon="-4.35234">
        <ele>1.58</ele>
        <time>2019-08-23T08:48:46Z</time>
      </trkpt>
      <trkpt lat="48.35902" lon="-4.35231">
        <ele>1.1</ele>
        <time>2019-08-23T08:48:47Z</time>
      </trkpt>
      <trkpt lat="48.35897" lon="-4.35228">
        <ele>0.62</ele>
        <time>2019-08-23T08:48:48Z</time>
      </trkpt>
      <trkpt lat="48.35889" lon="-4.35224">
        <ele>-0.34</ele>
        <time>2019-08-23T08:48:50Z</time>
      </trkpt>
      <trkpt lat="48.35887" lon="-4.35226">
        <ele>-0.34</ele>
        <time>2019-08-23T08:48:51Z</time>
      </trkpt>
      <trkpt lat="48.35885" lon="-4.3523">
        <ele>-1.3</ele>
        <time>2019-08-23T08:48:52Z</time>
      </trkpt>
      <trkpt lat="48.35875" lon="-4.35256">
        <ele>-2.75</ele>
        <time>2019-08-23T08:48:56Z</time>
      </trkpt>
      <trkpt lat="48.35872" lon="-4.35264">
        <ele>-3.23</ele>
        <time>2019-08-23T08:48:57Z</time>
      </trkpt>
      <trkpt lat="48.35869" lon="-4.35271">
        <ele>-3.23</ele>
        <time>2019-08-23T08:48:58Z</time>
      </trkpt>
      <trkpt lat="48.35865" lon="-4.35277">
        <ele>-3.71</ele>
        <time>2019-08-23T08:48:59Z</time>
      </trkpt>
      <trkpt lat="48.35862" lon="-4.35284">
        <ele>-4.19</ele>
        <time>2019-08-23T08:49:00Z</time>
      </trkpt>
      <trkpt lat="48.35851" lon="-4.35306">
        <ele>-4.19</ele>
        <time>2019-08-23T08:49:03Z</time>
      </trkpt>
      <trkpt lat="48.35843" lon="-4.35319">
        <ele>-4.19</ele>
        <time>2019-08-23T08:49:05Z</time>
      </trkpt>
      <trkpt lat="48.35804" lon="-4.35397">
        <ele>-3.23</ele>
        <time>2019-08-23T08:49:17Z</time>
      </trkpt>
      <trkpt lat="48.35783" lon="-4.35458">
        <ele>-0.82</ele>
        <time>2019-08-23T08:49:28Z</time>
      </trkpt>
      <trkpt lat="48.35778" lon="-4.35474">
        <ele>0.62</ele>
        <time>2019-08-23T08:49:32Z</time>
      </trkpt>
      <trkpt lat="48.35776" lon="-4.35476">
        <ele>0.62</ele>
        <time>2019-08-23T08:49:33Z</time>
      </trkpt>
      <trkpt lat="48.35767" lon="-4.3548">
        <ele>0.62</ele>
        <time>2019-08-23T08:49:36Z</time>
      </trkpt>
      <trkpt lat="48.35766" lon="-4.35483">
        <ele>1.1</ele>
        <time>2019-08-23T08:49:37Z</time>
      </trkpt>
      <trkpt lat="48.35766" lon="-4.35487">
        <ele>1.1</ele>
        <time>2019-08-23T08:49:38Z</time>
      </trkpt>
      <trkpt lat="48.35766" lon="-4.35501">
        <ele>4.46</ele>
        <time>2019-08-23T08:49:43Z</time>
      </trkpt>
      <trkpt lat="48.35766" lon="-4.35505">
        <ele>3.5</ele>
        <time>2019-08-23T08:49:44Z</time>
      </trkpt>
      <trkpt lat="48.35767" lon="-4.3554">
        <ele>5.42</ele>
        <time>2019-08-23T08:49:55Z</time>
      </trkpt>
      <trkpt lat="48.35768" lon="-4.35543">
        <ele>5.91</ele>
        <time>2019-08-23T08:49:56Z</time>
      </trkpt>
      <trkpt lat="48.35768" lon="-4.35546">
        <ele>6.39</ele>
        <time>2019-08-23T08:49:57Z</time>
      </trkpt>
      <trkpt lat="48.35769" lon="-4.35549">
        <ele>6.39</ele>
        <time>2019-08-23T08:49:58Z</time>
      </trkpt>
      <trkpt lat="48.35769" lon="-4.35553">
        <ele>6.87</ele>
        <time>2019-08-23T08:49:59Z</time>
      </trkpt>
      <trkpt lat="48.3577" lon="-4.35556">
        <ele>6.87</ele>
        <time>2019-08-23T08:50:00Z</time>
      </trkpt>
      <trkpt lat="48.3577" lon="-4.3556">
        <ele>7.35</ele>
        <time>2019-08-23T08:50:01Z</time>
      </trkpt>
      <trkpt lat="48.35769" lon="-4.35564">
        <ele>7.35</ele>
        <time>2019-08-23T08:50:02Z</time>
      </trkpt>
      <trkpt lat="48.35768" lon="-4.35581">
        <ele>8.31</ele>
        <time>2019-08-23T08:50:06Z</time>
      </trkpt>
      <trkpt lat="48.35767" lon="-4.35585">
        <ele>8.31</ele>
        <time>2019-08-23T08:50:07Z</time>
      </trkpt>
      <trkpt lat="48.35767" lon="-4.35589">
        <ele>8.79</ele>
        <time>2019-08-23T08:50:08Z</time>
      </trkpt>
      <trkpt lat="48.35767" lon="-4.35593">
        <ele>8.79</ele>
        <time>2019-08-23T08:50:09Z</time>
      </trkpt>
      <trkpt lat="48.35767" lon="-4.35597">
        <ele>9.27</ele>
        <time>2019-08-23T08:50:10Z</time>
      </trkpt>
      <trkpt lat="48.35775" lon="-4.35637">
        <ele>10.71</ele>
        <time>2019-08-23T08:50:21Z</time>
      </trkpt>
      <trkpt lat="48.35768" lon="-4.35688">
        <ele>11.67</ele>
        <time>2019-08-23T08:50:31Z</time>
      </trkpt>
      <trkpt lat="48.3576" lon="-4.35699">
        <ele>12.15</ele>
        <time>2019-08-23T08:50:34Z</time>
      </trkpt>
      <trkpt lat="48.35757" lon="-4.35701">
        <ele>12.63</ele>
        <time>2019-08-23T08:50:35Z</time>
      </trkpt>
      <trkpt lat="48.35754" lon="-4.35702">
        <ele>13.12</ele>
        <time>2019-08-23T08:50:36Z</time>
      </trkpt>
      <trkpt lat="48.35752" lon="-4.35703">
        <ele>13.12</ele>
        <time>2019-08-23T08:50:37Z</time>
      </trkpt>
      <trkpt lat="48.3575" lon="-4.35704">
        <ele>13.6</ele>
        <time>2019-08-23T08:50:38Z</time>
      </trkpt>
      <trkpt lat="48.35748" lon="-4.35705">
        <ele>13.6</ele>
        <time>2019-08-23T08:50:39Z</time>
      </trkpt>
      <trkpt lat="48.35746" lon="-4.35705">
        <ele>14.08</ele>
        <time>2019-08-23T08:50:40Z</time>
      </trkpt>
      <trkpt lat="48.35744" lon="-4.35705">
        <ele>14.56</ele>
        <time>2019-08-23T08:50:41Z</time>
      </trkpt>
      <trkpt lat="48.35742" lon="-4.35705">
        <ele>14.56</ele>
        <time>2019-08-23T08:50:42Z</time>
      </trkpt>
      <trkpt lat="48.35739" lon="-4.35705">
        <ele>14.56</ele>
        <time>2019-08-23T08:50:43Z</time>
      </trkpt>
      <trkpt lat="48.35713" lon="-4.35702">
        <ele>16.48</ele>
        <time>2019-08-23T08:50:53Z</time>
      </trkpt>
      <trkpt lat="48.35686" lon="-4.35695">
        <ele>18.4</ele>
        <time>2019-08-23T08:51:03Z</time>
      </trkpt>
      <trkpt lat="48.35651" lon="-4.35679">
        <ele>19.36</ele>
        <time>2019-08-23T08:51:14Z</time>
      </trkpt>
      <trkpt lat="48.35632" lon="-4.35666">
        <ele>19.36</ele>
        <time>2019-08-23T08:51:20Z</time>
      </trkpt>
      <trkpt lat="48.35621" lon="-4.35673">
        <ele>19.84</ele>
        <time>2019-08-23T08:51:24Z</time>
      </trkpt>
      <trkpt lat="48.3561" lon="-4.35681">
        <ele>20.81</ele>
        <time>2019-08-23T08:51:28Z</time>
      </trkpt>
      <trkpt lat="48.35586" lon="-4.35712">
        <ele>23.69</ele>
        <time>2019-08-23T08:51:39Z</time>
      </trkpt>
      <trkpt lat="48.35585" lon="-4.35714">
        <ele>23.69</ele>
        <time>2019-08-23T08:51:40Z</time>
      </trkpt>
      <trkpt lat="48.35562" lon="-4.3574">
        <ele>25.61</ele>
        <time>2019-08-23T08:51:51Z</time>
      </trkpt>
      <trkpt lat="48.35536" lon="-4.35769">
        <ele>26.57</ele>
        <time>2019-08-23T08:52:02Z</time>
      </trkpt>
      <trkpt lat="48.35526" lon="-4.35791">
        <ele>27.05</ele>
        <time>2019-08-23T08:52:08Z</time>
      </trkpt>
      <trkpt lat="48.35494" lon="-4.35831">
        <ele>28.5</ele>
        <time>2019-08-23T08:52:20Z</time>
      </trkpt>
      <trkpt lat="48.35464" lon="-4.35865">
        <ele>28.98</ele>
        <time>2019-08-23T08:52:30Z</time>
      </trkpt>
      <trkpt lat="48.35437" lon="-4.35889">
        <ele>29.94</ele>
        <time>2019-08-23T08:52:40Z</time>
      </trkpt>
      <trkpt lat="48.35407" lon="-4.35901">
        <ele>31.38</ele>
        <time>2019-08-23T08:52:49Z</time>
      </trkpt>
      <trkpt lat="48.35378" lon="-4.35909">
        <ele>33.3</ele>
        <time>2019-08-23T08:52:58Z</time>
      </trkpt>
      <trkpt lat="48.35345" lon="-4.35902">
        <ele>33.78</ele>
        <time>2019-08-23T08:53:08Z</time>
      </trkpt>
      <trkpt lat="48.35317" lon="-4.35889">
        <ele>31.86</ele>
        <time>2019-08-23T08:53:15Z</time>
      </trkpt>
      <trkpt lat="48.35291" lon="-4.3588">
        <ele>29.94</ele>
        <time>2019-08-23T08:53:20Z</time>
      </trkpt>
      <trkpt lat="48.35287" lon="-4.3588">
        <ele>29.46</ele>
        <time>2019-08-23T08:53:21Z</time>
      </trkpt>
      <trkpt lat="48.35282" lon="-4.35883">
        <ele>28.98</ele>
        <time>2019-08-23T08:53:22Z</time>
      </trkpt>
      <trkpt lat="48.35278" lon="-4.35887">
        <ele>28.5</ele>
        <time>2019-08-23T08:53:23Z</time>
      </trkpt>
      <trkpt lat="48.35275" lon="-4.3589">
        <ele>28.02</ele>
        <time>2019-08-23T08:53:24Z</time>
      </trkpt>
      <trkpt lat="48.35272" lon="-4.35893">
        <ele>28.02</ele>
        <time>2019-08-23T08:53:25Z</time>
      </trkpt>
      <trkpt lat="48.35262" lon="-4.35895">
        <ele>27.05</ele>
        <time>2019-08-23T08:53:28Z</time>
      </trkpt>
      <trkpt lat="48.35259" lon="-4.35893">
        <ele>26.57</ele>
        <time>2019-08-23T08:53:29Z</time>
      </trkpt>
      <trkpt lat="48.35257" lon="-4.35889">
        <ele>26.09</ele>
        <time>2019-08-23T08:53:32Z</time>
      </trkpt>
      <trkpt lat="48.3526" lon="-4.35876">
        <ele>24.65</ele>
        <time>2019-08-23T08:53:35Z</time>
      </trkpt>
      <trkpt lat="48.3526" lon="-4.35868">
        <ele>24.17</ele>
        <time>2019-08-23T08:53:36Z</time>
      </trkpt>
      <trkpt lat="48.35257" lon="-4.35849">
        <ele>22.25</ele>
        <time>2019-08-23T08:53:38Z</time>
      </trkpt>
      <trkpt lat="48.35256" lon="-4.35838">
        <ele>20.81</ele>
        <time>2019-08-23T08:53:39Z</time>
      </trkpt>
      <trkpt lat="48.35256" lon="-4.35826">
        <ele>19.84</ele>
        <time>2019-08-23T08:53:40Z</time>
      </trkpt>
      <trkpt lat="48.35256" lon="-4.35773">
        <ele>15.52</ele>
        <time>2019-08-23T08:53:44Z</time>
      </trkpt>
      <trkpt lat="48.35254" lon="-4.35738">
        <ele>13.6</ele>
        <time>2019-08-23T08:53:47Z</time>
      </trkpt>
      <trkpt lat="48.35251" lon="-4.35713">
        <ele>13.6</ele>
        <time>2019-08-23T08:53:50Z</time>
      </trkpt>
      <trkpt lat="48.35249" lon="-4.35707">
        <ele>12.63</ele>
        <time>2019-08-23T08:53:51Z</time>
      </trkpt>
      <trkpt lat="48.35246" lon="-4.35702">
        <ele>12.15</ele>
        <time>2019-08-23T08:53:52Z</time>
      </trkpt>
      <trkpt lat="48.35242" lon="-4.357">
        <ele>12.15</ele>
        <time>2019-08-23T08:53:53Z</time>
      </trkpt>
      <trkpt lat="48.35238" lon="-4.357">
        <ele>12.63</ele>
        <time>2019-08-23T08:53:54Z</time>
      </trkpt>
      <trkpt lat="48.35234" lon="-4.35702">
        <ele>12.63</ele>
        <time>2019-08-23T08:53:55Z</time>
      </trkpt>
      <trkpt lat="48.35231" lon="-4.35705">
        <ele>13.12</ele>
        <time>2019-08-23T08:53:56Z</time>
      </trkpt>
      <trkpt lat="48.35227" lon="-4.35708">
        <ele>13.12</ele>
        <time>2019-08-23T08:53:57Z</time>
      </trkpt>
      <trkpt lat="48.35188" lon="-4.35742">
        <ele>14.56</ele>
        <time>2019-08-23T08:54:09Z</time>
      </trkpt>
      <trkpt lat="48.35172" lon="-4.35761">
        <ele>14.56</ele>
        <time>2019-08-23T08:54:14Z</time>
      </trkpt>
      <trkpt lat="48.35151" lon="-4.35791">
        <ele>15.52</ele>
        <time>2019-08-23T08:54:21Z</time>
      </trkpt>
      <trkpt lat="48.35148" lon="-4.35795">
        <ele>15.52</ele>
        <time>2019-08-23T08:54:22Z</time>
      </trkpt>
      <trkpt lat="48.35134" lon="-4.35809">
        <ele>15.04</ele>
        <time>2019-08-23T08:54:26Z</time>
      </trkpt>
      <trkpt lat="48.3513" lon="-4.35812">
        <ele>15.04</ele>
        <time>2019-08-23T08:54:27Z</time>
      </trkpt>
      <trkpt lat="48.35112" lon="-4.35821">
        <ele>14.56</ele>
        <time>2019-08-23T08:54:31Z</time>
      </trkpt>
      <trkpt lat="48.35107" lon="-4.35823">
        <ele>14.08</ele>
        <time>2019-08-23T08:54:32Z</time>
      </trkpt>
      <trkpt lat="48.35102" lon="-4.35825">
        <ele>14.08</ele>
        <time>2019-08-23T08:54:33Z</time>
      </trkpt>
      <trkpt lat="48.35083" lon="-4.35837">
        <ele>12.63</ele>
        <time>2019-08-23T08:54:39Z</time>
      </trkpt>
      <trkpt lat="48.3508" lon="-4.35836">
        <ele>11.67</ele>
        <time>2019-08-23T08:54:40Z</time>
      </trkpt>
      <trkpt lat="48.35077" lon="-4.35833">
        <ele>11.67</ele>
        <time>2019-08-23T08:54:41Z</time>
      </trkpt>
      <trkpt lat="48.35075" lon="-4.35828">
        <ele>11.19</ele>
        <time>2019-08-23T08:54:42Z</time>
      </trkpt>
      <trkpt lat="48.35072" lon="-4.35822">
        <ele>10.23</ele>
        <time>2019-08-23T08:54:43Z</time>
      </trkpt>
      <trkpt lat="48.35068" lon="-4.35816">
        <ele>9.75</ele>
        <time>2019-08-23T08:54:44Z</time>
      </trkpt>
      <trkpt lat="48.35063" lon="-4.3581">
        <ele>8.79</ele>
        <time>2019-08-23T08:54:45Z</time>
      </trkpt>
      <trkpt lat="48.35057" lon="-4.35804">
        <ele>7.83</ele>
        <time>2019-08-23T08:54:46Z</time>
      </trkpt>
      <trkpt lat="48.35047" lon="-4.35793">
        <ele>6.39</ele>
        <time>2019-08-23T08:54:48Z</time>
      </trkpt>
      <trkpt lat="48.35042" lon="-4.3579">
        <ele>5.91</ele>
        <time>2019-08-23T08:54:49Z</time>
      </trkpt>
      <trkpt lat="48.35036" lon="-4.35788">
        <ele>5.42</ele>
        <time>2019-08-23T08:54:50Z</time>
      </trkpt>
      <trkpt lat="48.35031" lon="-4.35788">
        <ele>5.42</ele>
        <time>2019-08-23T08:54:51Z</time>
      </trkpt>
      <trkpt lat="48.35027" lon="-4.3579">
        <ele>4.94</ele>
        <time>2019-08-23T08:54:52Z</time>
      </trkpt>
      <trkpt lat="48.35023" lon="-4.35794">
        <ele>4.94</ele>
        <time>2019-08-23T08:54:53Z</time>
      </trkpt>
      <trkpt lat="48.3502" lon="-4.35798">
        <ele>4.46</ele>
        <time>2019-08-23T08:54:54Z</time>
      </trkpt>
      <trkpt lat="48.35016" lon="-4.35804">
        <ele>4.46</ele>
        <time>2019-08-23T08:54:55Z</time>
      </trkpt>
      <trkpt lat="48.35009" lon="-4.35815">
        <ele>3.5</ele>
        <time>2019-08-23T08:54:57Z</time>
      </trkpt>
      <trkpt lat="48.35006" lon="-4.35823">
        <ele>3.02</ele>
        <time>2019-08-23T08:54:58Z</time>
      </trkpt>
      <trkpt lat="48.35003" lon="-4.3583">
        <ele>3.02</ele>
        <time>2019-08-23T08:54:59Z</time>
      </trkpt>
      <trkpt lat="48.35" lon="-4.35837">
        <ele>3.02</ele>
        <time>2019-08-23T08:55:00Z</time>
      </trkpt>
      <trkpt lat="48.34997" lon="-4.35844">
        <ele>2.54</ele>
        <time>2019-08-23T08:55:01Z</time>
      </trkpt>
      <trkpt lat="48.3499" lon="-4.35854">
        <ele>2.54</ele>
        <time>2019-08-23T08:55:03Z</time>
      </trkpt>
      <trkpt lat="48.34986" lon="-4.3586">
        <ele>2.54</ele>
        <time>2019-08-23T08:55:04Z</time>
      </trkpt>
      <trkpt lat="48.34979" lon="-4.35871">
        <ele>2.54</ele>
        <time>2019-08-23T08:55:06Z</time>
      </trkpt>
      <trkpt lat="48.3497" lon="-4.35885">
        <ele>2.06</ele>
        <time>2019-08-23T08:55:09Z</time>
      </trkpt>
      <trkpt lat="48.34967" lon="-4.35891">
        <ele>2.54</ele>
        <time>2019-08-23T08:55:10Z</time>
      </trkpt>
      <trkpt lat="48.34964" lon="-4.35896">
        <ele>2.54</ele>
        <time>2019-08-23T08:55:11Z</time>
      </trkpt>
      <trkpt lat="48.34942" lon="-4.35933">
        <ele>3.02</ele>
        <time>2019-08-23T08:55:19Z</time>
      </trkpt>
      <trkpt lat="48.34924" lon="-4.35985">
        <ele>3.5</ele>
        <time>2019-08-23T08:55:29Z</time>
      </trkpt>
      <trkpt lat="48.34913" lon="-4.36015">
        <ele>2.54</ele>
        <time>2019-08-23T08:55:34Z</time>
      </trkpt>
      <trkpt lat="48.34911" lon="-4.36021">
        <ele>2.06</ele>
        <time>2019-08-23T08:55:35Z</time>
      </trkpt>
      <trkpt lat="48.34909" lon="-4.36026">
        <ele>2.06</ele>
        <time>2019-08-23T08:55:36Z</time>
      </trkpt>
      <trkpt lat="48.34882" lon="-4.36095">
        <ele>2.54</ele>
        <time>2019-08-23T08:55:48Z</time>
      </trkpt>
      <trkpt lat="48.34856" lon="-4.36137">
        <ele>2.54</ele>
        <time>2019-08-23T08:55:57Z</time>
      </trkpt>
      <trkpt lat="48.34852" lon="-4.36142">
        <ele>2.06</ele>
        <time>2019-08-23T08:55:58Z</time>
      </trkpt>
      <trkpt lat="48.34834" lon="-4.36159">
        <ele>1.58</ele>
        <time>2019-08-23T08:56:02Z</time>
      </trkpt>
      <trkpt lat="48.34816" lon="-4.3618">
        <ele>0.14</ele>
        <time>2019-08-23T08:56:06Z</time>
      </trkpt>
      <trkpt lat="48.34811" lon="-4.36186">
        <ele>-0.34</ele>
        <time>2019-08-23T08:56:07Z</time>
      </trkpt>
      <trkpt lat="48.34806" lon="-4.36191">
        <ele>-0.34</ele>
        <time>2019-08-23T08:56:08Z</time>
      </trkpt>
      <trkpt lat="48.34775" lon="-4.36211">
        <ele>-3.71</ele>
        <time>2019-08-23T08:56:13Z</time>
      </trkpt>
      <trkpt lat="48.34752" lon="-4.36224">
        <ele>-7.07</ele>
        <time>2019-08-23T08:56:17Z</time>
      </trkpt>
      <trkpt lat="48.34735" lon="-4.36236">
        <ele>-9.48</ele>
        <time>2019-08-23T08:56:20Z</time>
      </trkpt>
      <trkpt lat="48.34724" lon="-4.36246">
        <ele>-11.88</ele>
        <time>2019-08-23T08:56:22Z</time>
      </trkpt>
      <trkpt lat="48.3472" lon="-4.36253">
        <ele>-12.36</ele>
        <time>2019-08-23T08:56:23Z</time>
      </trkpt>
      <trkpt lat="48.34716" lon="-4.3626">
        <ele>-13.8</ele>
        <time>2019-08-23T08:56:24Z</time>
      </trkpt>
      <trkpt lat="48.34713" lon="-4.36269">
        <ele>-14.76</ele>
        <time>2019-08-23T08:56:25Z</time>
      </trkpt>
      <trkpt lat="48.3471" lon="-4.36279">
        <ele>-15.72</ele>
        <time>2019-08-23T08:56:26Z</time>
      </trkpt>
      <trkpt lat="48.34708" lon="-4.3629">
        <ele>-16.21</ele>
        <time>2019-08-23T08:56:27Z</time>
      </trkpt>
      <trkpt lat="48.34702" lon="-4.36311">
        <ele>-17.17</ele>
        <time>2019-08-23T08:56:29Z</time>
      </trkpt>
      <trkpt lat="48.347" lon="-4.3632">
        <ele>-17.17</ele>
        <time>2019-08-23T08:56:30Z</time>
      </trkpt>
      <trkpt lat="48.34696" lon="-4.36346">
        <ele>-17.65</ele>
        <time>2019-08-23T08:56:33Z</time>
      </trkpt>
      <trkpt lat="48.34693" lon="-4.36353">
        <ele>-17.65</ele>
        <time>2019-08-23T08:56:34Z</time>
      </trkpt>
      <trkpt lat="48.3469" lon="-4.36357">
        <ele>-17.65</ele>
        <time>2019-08-23T08:56:35Z</time>
      </trkpt>
      <trkpt lat="48.34687" lon="-4.36361">
        <ele>-18.13</ele>
        <time>2019-08-23T08:56:36Z</time>
      </trkpt>
      <trkpt lat="48.34684" lon="-4.36363">
        <ele>-18.13</ele>
        <time>2019-08-23T08:56:37Z</time>
      </trkpt>
      <trkpt lat="48.34681" lon="-4.36366">
        <ele>-18.13</ele>
        <time>2019-08-23T08:56:38Z</time>
      </trkpt>
      <trkpt lat="48.34679" lon="-4.36368">
        <ele>-18.13</ele>
        <time>2019-08-23T08:56:39Z</time>
      </trkpt>
      <trkpt lat="48.34677" lon="-4.36371">
        <ele>-23.9</ele>
        <time>2019-08-23T08:56:48Z</time>
      </trkpt>
      <trkpt lat="48.34677" lon="-4.36371">
        <ele>-13.8</ele>
        <time>2019-08-23T08:56:49Z</time>
      </trkpt>
      <trkpt lat="48.34677" lon="-4.36371">
        <ele>-19.09</ele>
        <time>2019-08-23T08:56:50Z</time>
      </trkpt>
      <trkpt lat="48.34677" lon="-4.36371">
        <ele>-9</ele>
        <time>2019-08-23T08:56:51Z</time>
      </trkpt>
      <trkpt lat="48.34676" lon="-4.36371">
        <ele>-17.65</ele>
        <time>2019-08-23T08:56:52Z</time>
      </trkpt>
      <trkpt lat="48.34676" lon="-4.36373">
        <ele>-17.65</ele>
        <time>2019-08-23T08:57:10Z</time>
      </trkpt>
      <trkpt lat="48.34674" lon="-4.36373">
        <ele>-17.65</ele>
        <time>2019-08-23T08:57:25Z</time>
      </trkpt>
      <trkpt lat="48.34675" lon="-4.36373">
        <ele>-17.65</ele>
        <time>2019-08-23T08:57:39Z</time>
      </trkpt>
      <trkpt lat="48.34675" lon="-4.36372">
        <ele>-15.72</ele>
        <time>2019-08-23T08:57:54Z</time>
      </trkpt>
      <trkpt lat="48.34671" lon="-4.36373">
        <ele>-16.69</ele>
        <time>2019-08-23T08:58:04Z</time>
      </trkpt>
      <trkpt lat="48.34669" lon="-4.36375">
        <ele>-17.17</ele>
        <time>2019-08-23T08:58:06Z</time>
      </trkpt>
      <trkpt lat="48.34667" lon="-4.36371">
        <ele>-16.69</ele>
        <time>2019-08-23T08:58:11Z</time>
      </trkpt>
      <trkpt lat="48.34666" lon="-4.3637">
        <ele>-17.17</ele>
        <time>2019-08-23T08:58:12Z</time>
      </trkpt>
      <trkpt lat="48.34664" lon="-4.3637">
        <ele>-17.65</ele>
        <time>2019-08-23T08:58:13Z</time>
      </trkpt>
      <trkpt lat="48.34663" lon="-4.3637">
        <ele>-17.65</ele>
        <time>2019-08-23T08:58:14Z</time>
      </trkpt>
      <trkpt lat="48.34662" lon="-4.36371">
        <ele>-18.13</ele>
        <time>2019-08-23T08:58:15Z</time>
      </trkpt>
      <trkpt lat="48.3466" lon="-4.36372">
        <ele>-18.13</ele>
        <time>2019-08-23T08:58:16Z</time>
      </trkpt>
      <trkpt lat="48.34659" lon="-4.36374">
        <ele>-18.13</ele>
        <time>2019-08-23T08:58:17Z</time>
      </trkpt>
      <trkpt lat="48.34658" lon="-4.36378">
        <ele>-17.65</ele>
        <time>2019-08-23T08:58:28Z</time>
      </trkpt>
      <trkpt lat="48.34659" lon="-4.36377">
        <ele>-17.17</ele>
        <time>2019-08-23T08:58:52Z</time>
      </trkpt>
      <trkpt lat="48.34659" lon="-4.36377">
        <ele>-16.21</ele>
        <time>2019-08-23T08:59:08Z</time>
      </trkpt>
      <trkpt lat="48.34658" lon="-4.36377">
        <ele>-16.21</ele>
        <time>2019-08-23T08:59:35Z</time>
      </trkpt>
      <trkpt lat="48.34659" lon="-4.36377">
        <ele>-15.72</ele>
        <time>2019-08-23T08:59:55Z</time>
      </trkpt>
      <trkpt lat="48.3466" lon="-4.36376">
        <ele>-15.72</ele>
        <time>2019-08-23T09:00:14Z</time>
      </trkpt>
      <trkpt lat="48.34661" lon="-4.36374">
        <ele>-16.21</ele>
        <time>2019-08-23T09:00:16Z</time>
      </trkpt>
      <trkpt lat="48.34667" lon="-4.36373">
        <ele>-15.72</ele>
        <time>2019-08-23T09:00:29Z</time>
      </trkpt>
      <trkpt lat="48.34667" lon="-4.36372">
        <ele>-15.24</ele>
        <time>2019-08-23T09:01:07Z</time>
      </trkpt>
      <trkpt lat="48.34667" lon="-4.36372">
        <ele>-14.76</ele>
        <time>2019-08-23T09:01:41Z</time>
      </trkpt>
      <trkpt lat="48.34668" lon="-4.36371">
        <ele>-14.28</ele>
        <time>2019-08-23T09:01:57Z</time>
      </trkpt>
      <trkpt lat="48.34668" lon="-4.36371">
        <ele>-14.28</ele>
        <time>2019-08-23T09:02:02Z</time>
      </trkpt>
      <trkpt lat="48.34669" lon="-4.3637">
        <ele>-14.28</ele>
        <time>2019-08-23T09:02:05Z</time>
      </trkpt>
      <trkpt lat="48.34671" lon="-4.36368">
        <ele>-14.28</ele>
        <time>2019-08-23T09:02:14Z</time>
      </trkpt>
      <trkpt lat="48.3467" lon="-4.3637">
        <ele>-14.76</ele>
        <time>2019-08-23T09:02:25Z</time>
      </trkpt>
      <trkpt lat="48.3467" lon="-4.36369">
        <ele>-14.76</ele>
        <time>2019-08-23T09:02:38Z</time>
      </trkpt>
      <trkpt lat="48.34671" lon="-4.3637">
        <ele>-13.8</ele>
        <time>2019-08-23T09:02:50Z</time>
      </trkpt>
      <trkpt lat="48.34674" lon="-4.36372">
        <ele>-13.32</ele>
        <time>2019-08-23T09:02:57Z</time>
      </trkpt>
      <trkpt lat="48.34675" lon="-4.36373">
        <ele>-12.84</ele>
        <time>2019-08-23T09:03:14Z</time>
      </trkpt>
      <trkpt lat="48.34676" lon="-4.36373">
        <ele>-12.84</ele>
        <time>2019-08-23T09:03:37Z</time>
      </trkpt>
      <trkpt lat="48.34677" lon="-4.36373">
        <ele>-12.36</ele>
        <time>2019-08-23T09:04:04Z</time>
      </trkpt>
      <trkpt lat="48.34678" lon="-4.36373">
        <ele>-11.88</ele>
        <time>2019-08-23T09:04:36Z</time>
      </trkpt>
      <trkpt lat="48.34677" lon="-4.36372">
        <ele>-11.88</ele>
        <time>2019-08-23T09:04:58Z</time>
      </trkpt>
      <trkpt lat="48.34677" lon="-4.36372">
        <ele>-11.4</ele>
        <time>2019-08-23T09:05:12Z</time>
      </trkpt>
      <trkpt lat="48.34675" lon="-4.36373">
        <ele>-10.92</ele>
        <time>2019-08-23T09:05:45Z</time>
      </trkpt>
      <trkpt lat="48.34676" lon="-4.36372">
        <ele>-10.92</ele>
        <time>2019-08-23T09:06:09Z</time>
      </trkpt>
      <trkpt lat="48.34676" lon="-4.36373">
        <ele>-10.44</ele>
        <time>2019-08-23T09:06:25Z</time>
      </trkpt>
      <trkpt lat="48.34676" lon="-4.36372">
        <ele>-8.51</ele>
        <time>2019-08-23T09:06:37Z</time>
      </trkpt>
      <trkpt lat="48.34676" lon="-4.36372">
        <ele>-12.36</ele>
        <time>2019-08-23T09:06:41Z</time>
      </trkpt>
      <trkpt lat="48.34676" lon="-4.36372">
        <ele>-9</ele>
        <time>2019-08-23T09:06:42Z</time>
      </trkpt>
      <trkpt lat="48.34675" lon="-4.36373">
        <ele>-10.44</ele>
        <time>2019-08-23T09:06:53Z</time>
      </trkpt>
      <trkpt lat="48.34676" lon="-4.3637">
        <ele>-10.44</ele>
        <time>2019-08-23T09:07:00Z</time>
      </trkpt>
      <trkpt lat="48.34694" lon="-4.36348">
        <ele>-9.48</ele>
        <time>2019-08-23T09:07:12Z</time>
      </trkpt>
      <trkpt lat="48.34706" lon="-4.36292">
        <ele>-7.55</ele>
        <time>2019-08-23T09:07:26Z</time>
      </trkpt>
      <trkpt lat="48.34717" lon="-4.36258">
        <ele>-4.19</ele>
        <time>2019-08-23T09:07:37Z</time>
      </trkpt>
      <trkpt lat="48.34733" lon="-4.36242">
        <ele>-1.3</ele>
        <time>2019-08-23T09:07:47Z</time>
      </trkpt>
      <trkpt lat="48.3475" lon="-4.36229">
        <ele>2.06</ele>
        <time>2019-08-23T09:07:58Z</time>
      </trkpt>
      <trkpt lat="48.34755" lon="-4.36227">
        <ele>3.02</ele>
        <time>2019-08-23T09:08:01Z</time>
      </trkpt>
      <trkpt lat="48.34757" lon="-4.36226">
        <ele>3.02</ele>
        <time>2019-08-23T09:08:02Z</time>
      </trkpt>
      <trkpt lat="48.34758" lon="-4.36225">
        <ele>3.02</ele>
        <time>2019-08-23T09:08:03Z</time>
      </trkpt>
      <trkpt lat="48.34759" lon="-4.36224">
        <ele>3.5</ele>
        <time>2019-08-23T09:08:04Z</time>
      </trkpt>
      <trkpt lat="48.34761" lon="-4.36222">
        <ele>3.5</ele>
        <time>2019-08-23T09:08:05Z</time>
      </trkpt>
      <trkpt lat="48.3478" lon="-4.36209">
        <ele>6.87</ele>
        <time>2019-08-23T09:08:16Z</time>
      </trkpt>
      <trkpt lat="48.34809" lon="-4.3619">
        <ele>9.75</ele>
        <time>2019-08-23T09:08:30Z</time>
      </trkpt>
      <trkpt lat="48.34835" lon="-4.36163">
        <ele>11.67</ele>
        <time>2019-08-23T09:08:43Z</time>
      </trkpt>
      <trkpt lat="48.34861" lon="-4.36131">
        <ele>13.12</ele>
        <time>2019-08-23T09:08:54Z</time>
      </trkpt>
      <trkpt lat="48.34884" lon="-4.36087">
        <ele>12.63</ele>
        <time>2019-08-23T09:09:04Z</time>
      </trkpt>
      <trkpt lat="48.3489" lon="-4.3607">
        <ele>13.12</ele>
        <time>2019-08-23T09:09:07Z</time>
      </trkpt>
      <trkpt lat="48.34892" lon="-4.36064">
        <ele>12.63</ele>
        <time>2019-08-23T09:09:08Z</time>
      </trkpt>
      <trkpt lat="48.34912" lon="-4.36008">
        <ele>13.12</ele>
        <time>2019-08-23T09:09:18Z</time>
      </trkpt>
      <trkpt lat="48.34926" lon="-4.35968">
        <ele>14.08</ele>
        <time>2019-08-23T09:09:25Z</time>
      </trkpt>
      <trkpt lat="48.34928" lon="-4.35962">
        <ele>14.08</ele>
        <time>2019-08-23T09:09:26Z</time>
      </trkpt>
      <trkpt lat="48.3493" lon="-4.35956">
        <ele>14.08</ele>
        <time>2019-08-23T09:09:27Z</time>
      </trkpt>
      <trkpt lat="48.34935" lon="-4.35944">
        <ele>14.08</ele>
        <time>2019-08-23T09:09:29Z</time>
      </trkpt>
      <trkpt lat="48.34945" lon="-4.35922">
        <ele>13.6</ele>
        <time>2019-08-23T09:09:33Z</time>
      </trkpt>
      <trkpt lat="48.34957" lon="-4.35901">
        <ele>13.6</ele>
        <time>2019-08-23T09:09:37Z</time>
      </trkpt>
      <trkpt lat="48.34961" lon="-4.35896">
        <ele>13.6</ele>
        <time>2019-08-23T09:09:38Z</time>
      </trkpt>
      <trkpt lat="48.34983" lon="-4.35861">
        <ele>13.6</ele>
        <time>2019-08-23T09:09:45Z</time>
      </trkpt>
      <trkpt lat="48.34986" lon="-4.35855">
        <ele>13.6</ele>
        <time>2019-08-23T09:09:46Z</time>
      </trkpt>
      <trkpt lat="48.34996" lon="-4.35838">
        <ele>14.08</ele>
        <time>2019-08-23T09:09:49Z</time>
      </trkpt>
      <trkpt lat="48.34999" lon="-4.35832">
        <ele>14.08</ele>
        <time>2019-08-23T09:09:50Z</time>
      </trkpt>
      <trkpt lat="48.35041" lon="-4.35796">
        <ele>16.96</ele>
        <time>2019-08-23T09:10:03Z</time>
      </trkpt>
      <trkpt lat="48.35061" lon="-4.35819">
        <ele>20.32</ele>
        <time>2019-08-23T09:10:13Z</time>
      </trkpt>
      <trkpt lat="48.35064" lon="-4.35823">
        <ele>20.81</ele>
        <time>2019-08-23T09:10:15Z</time>
      </trkpt>
      <trkpt lat="48.35067" lon="-4.3583">
        <ele>21.77</ele>
        <time>2019-08-23T09:10:18Z</time>
      </trkpt>
      <trkpt lat="48.35068" lon="-4.35831">
        <ele>22.25</ele>
        <time>2019-08-23T09:10:19Z</time>
      </trkpt>
      <trkpt lat="48.35069" lon="-4.35833">
        <ele>22.25</ele>
        <time>2019-08-23T09:10:20Z</time>
      </trkpt>
      <trkpt lat="48.35075" lon="-4.35839">
        <ele>23.69</ele>
        <time>2019-08-23T09:10:24Z</time>
      </trkpt>
      <trkpt lat="48.35076" lon="-4.35839">
        <ele>23.69</ele>
        <time>2019-08-23T09:10:25Z</time>
      </trkpt>
      <trkpt lat="48.35078" lon="-4.35839">
        <ele>24.17</ele>
        <time>2019-08-23T09:10:26Z</time>
      </trkpt>
      <trkpt lat="48.35103" lon="-4.35826">
        <ele>25.13</ele>
        <time>2019-08-23T09:10:36Z</time>
      </trkpt>
      <trkpt lat="48.35145" lon="-4.35796">
        <ele>27.05</ele>
        <time>2019-08-23T09:10:50Z</time>
      </trkpt>
      <trkpt lat="48.3519" lon="-4.35742">
        <ele>26.57</ele>
        <time>2019-08-23T09:11:04Z</time>
      </trkpt>
      <trkpt lat="48.35206" lon="-4.35729">
        <ele>26.57</ele>
        <time>2019-08-23T09:11:08Z</time>
      </trkpt>
      <trkpt lat="48.35217" lon="-4.3572">
        <ele>26.09</ele>
        <time>2019-08-23T09:11:11Z</time>
      </trkpt>
      <trkpt lat="48.35221" lon="-4.35716">
        <ele>26.09</ele>
        <time>2019-08-23T09:11:12Z</time>
      </trkpt>
      <trkpt lat="48.35225" lon="-4.35713">
        <ele>25.61</ele>
        <time>2019-08-23T09:11:13Z</time>
      </trkpt>
      <trkpt lat="48.35245" lon="-4.357">
        <ele>25.13</ele>
        <time>2019-08-23T09:11:18Z</time>
      </trkpt>
      <trkpt lat="48.35248" lon="-4.35701">
        <ele>25.13</ele>
        <time>2019-08-23T09:11:19Z</time>
      </trkpt>
      <trkpt lat="48.3525" lon="-4.35704">
        <ele>24.65</ele>
        <time>2019-08-23T09:11:20Z</time>
      </trkpt>
      <trkpt lat="48.35252" lon="-4.35708">
        <ele>25.13</ele>
        <time>2019-08-23T09:11:21Z</time>
      </trkpt>
      <trkpt lat="48.35252" lon="-4.35712">
        <ele>25.13</ele>
        <time>2019-08-23T09:11:22Z</time>
      </trkpt>
      <trkpt lat="48.35253" lon="-4.35716">
        <ele>25.13</ele>
        <time>2019-08-23T09:11:23Z</time>
      </trkpt>
      <trkpt lat="48.35254" lon="-4.3572">
        <ele>25.61</ele>
        <time>2019-08-23T09:11:24Z</time>
      </trkpt>
      <trkpt lat="48.35254" lon="-4.35725">
        <ele>25.61</ele>
        <time>2019-08-23T09:11:25Z</time>
      </trkpt>
      <trkpt lat="48.35255" lon="-4.3573">
        <ele>26.09</ele>
        <time>2019-08-23T09:11:26Z</time>
      </trkpt>
      <trkpt lat="48.35257" lon="-4.35789">
        <ele>29.46</ele>
        <time>2019-08-23T09:11:38Z</time>
      </trkpt>
      <trkpt lat="48.35256" lon="-4.35834">
        <ele>32.82</ele>
        <time>2019-08-23T09:11:49Z</time>
      </trkpt>
      <trkpt lat="48.35257" lon="-4.35863">
        <ele>35.71</ele>
        <time>2019-08-23T09:11:57Z</time>
      </trkpt>
      <trkpt lat="48.35256" lon="-4.3589">
        <ele>38.59</ele>
        <time>2019-08-23T09:12:06Z</time>
      </trkpt>
      <trkpt lat="48.35257" lon="-4.35893">
        <ele>39.07</ele>
        <time>2019-08-23T09:12:07Z</time>
      </trkpt>
      <trkpt lat="48.35257" lon="-4.35896">
        <ele>39.07</ele>
        <time>2019-08-23T09:12:08Z</time>
      </trkpt>
      <trkpt lat="48.35259" lon="-4.35899">
        <ele>39.55</ele>
        <time>2019-08-23T09:12:09Z</time>
      </trkpt>
      <trkpt lat="48.35261" lon="-4.359">
        <ele>40.03</ele>
        <time>2019-08-23T09:12:10Z</time>
      </trkpt>
      <trkpt lat="48.35263" lon="-4.35901">
        <ele>40.03</ele>
        <time>2019-08-23T09:12:11Z</time>
      </trkpt>
      <trkpt lat="48.35265" lon="-4.359">
        <ele>40.51</ele>
        <time>2019-08-23T09:12:12Z</time>
      </trkpt>
      <trkpt lat="48.35267" lon="-4.35899">
        <ele>40.99</ele>
        <time>2019-08-23T09:12:13Z</time>
      </trkpt>
      <trkpt lat="48.35293" lon="-4.35883">
        <ele>43.88</ele>
        <time>2019-08-23T09:12:25Z</time>
      </trkpt>
      <trkpt lat="48.35323" lon="-4.35891">
        <ele>46.28</ele>
        <time>2019-08-23T09:12:39Z</time>
      </trkpt>
      <trkpt lat="48.35346" lon="-4.35902">
        <ele>48.2</ele>
        <time>2019-08-23T09:12:49Z</time>
      </trkpt>
      <trkpt lat="48.35354" lon="-4.35906">
        <ele>48.2</ele>
        <time>2019-08-23T09:12:53Z</time>
      </trkpt>
      <trkpt lat="48.35356" lon="-4.35905">
        <ele>48.2</ele>
        <time>2019-08-23T09:12:54Z</time>
      </trkpt>
      <trkpt lat="48.35359" lon="-4.35903">
        <ele>48.2</ele>
        <time>2019-08-23T09:12:55Z</time>
      </trkpt>
      <trkpt lat="48.35362" lon="-4.35903">
        <ele>47.72</ele>
        <time>2019-08-23T09:12:56Z</time>
      </trkpt>
      <trkpt lat="48.35364" lon="-4.35903">
        <ele>47.72</ele>
        <time>2019-08-23T09:12:57Z</time>
      </trkpt>
      <trkpt lat="48.35367" lon="-4.35903">
        <ele>47.24</ele>
        <time>2019-08-23T09:12:58Z</time>
      </trkpt>
      <trkpt lat="48.35388" lon="-4.35896">
        <ele>46.28</ele>
        <time>2019-08-23T09:13:04Z</time>
      </trkpt>
      <trkpt lat="48.35429" lon="-4.35884">
        <ele>44.36</ele>
        <time>2019-08-23T09:13:12Z</time>
      </trkpt>
      <trkpt lat="48.35434" lon="-4.35882">
        <ele>44.84</ele>
        <time>2019-08-23T09:13:13Z</time>
      </trkpt>
      <trkpt lat="48.35438" lon="-4.35878">
        <ele>44.36</ele>
        <time>2019-08-23T09:13:14Z</time>
      </trkpt>
      <trkpt lat="48.35472" lon="-4.35848">
        <ele>43.88</ele>
        <time>2019-08-23T09:13:22Z</time>
      </trkpt>
      <trkpt lat="48.35477" lon="-4.35843">
        <ele>43.88</ele>
        <time>2019-08-23T09:13:23Z</time>
      </trkpt>
      <trkpt lat="48.3549" lon="-4.35828">
        <ele>43.4</ele>
        <time>2019-08-23T09:13:26Z</time>
      </trkpt>
      <trkpt lat="48.35495" lon="-4.35825">
        <ele>42.92</ele>
        <time>2019-08-23T09:13:27Z</time>
      </trkpt>
      <trkpt lat="48.35517" lon="-4.3579">
        <ele>42.44</ele>
        <time>2019-08-23T09:13:35Z</time>
      </trkpt>
      <trkpt lat="48.35519" lon="-4.35784">
        <ele>41.95</ele>
        <time>2019-08-23T09:13:36Z</time>
      </trkpt>
      <trkpt lat="48.35523" lon="-4.35779">
        <ele>41.95</ele>
        <time>2019-08-23T09:13:37Z</time>
      </trkpt>
      <trkpt lat="48.35527" lon="-4.35773">
        <ele>41.95</ele>
        <time>2019-08-23T09:13:38Z</time>
      </trkpt>
      <trkpt lat="48.35551" lon="-4.35741">
        <ele>40.99</ele>
        <time>2019-08-23T09:13:45Z</time>
      </trkpt>
      <trkpt lat="48.3556" lon="-4.35731">
        <ele>40.03</ele>
        <time>2019-08-23T09:13:47Z</time>
      </trkpt>
      <trkpt lat="48.35563" lon="-4.35725">
        <ele>39.55</ele>
        <time>2019-08-23T09:13:48Z</time>
      </trkpt>
      <trkpt lat="48.35567" lon="-4.3572">
        <ele>39.55</ele>
        <time>2019-08-23T09:13:49Z</time>
      </trkpt>
      <trkpt lat="48.35586" lon="-4.35692">
        <ele>38.11</ele>
        <time>2019-08-23T09:13:54Z</time>
      </trkpt>
      <trkpt lat="48.35591" lon="-4.35686">
        <ele>38.11</ele>
        <time>2019-08-23T09:13:55Z</time>
      </trkpt>
      <trkpt lat="48.35616" lon="-4.3566">
        <ele>35.23</ele>
        <time>2019-08-23T09:14:00Z</time>
      </trkpt>
      <trkpt lat="48.3562" lon="-4.35657">
        <ele>35.23</ele>
        <time>2019-08-23T09:14:01Z</time>
      </trkpt>
      <trkpt lat="48.35624" lon="-4.35656">
        <ele>34.74</ele>
        <time>2019-08-23T09:14:02Z</time>
      </trkpt>
      <trkpt lat="48.3563" lon="-4.35658">
        <ele>35.23</ele>
        <time>2019-08-23T09:14:04Z</time>
      </trkpt>
      <trkpt lat="48.35632" lon="-4.3566">
        <ele>35.23</ele>
        <time>2019-08-23T09:14:05Z</time>
      </trkpt>
      <trkpt lat="48.35633" lon="-4.35663">
        <ele>34.74</ele>
        <time>2019-08-23T09:14:06Z</time>
      </trkpt>
      <trkpt lat="48.35636" lon="-4.35665">
        <ele>34.74</ele>
        <time>2019-08-23T09:14:07Z</time>
      </trkpt>
      <trkpt lat="48.35641" lon="-4.35667">
        <ele>34.74</ele>
        <time>2019-08-23T09:14:08Z</time>
      </trkpt>
      <trkpt lat="48.35646" lon="-4.35669">
        <ele>34.74</ele>
        <time>2019-08-23T09:14:09Z</time>
      </trkpt>
      <trkpt lat="48.35651" lon="-4.35672">
        <ele>34.74</ele>
        <time>2019-08-23T09:14:10Z</time>
      </trkpt>
      <trkpt lat="48.35664" lon="-4.35682">
        <ele>33.78</ele>
        <time>2019-08-23T09:14:13Z</time>
      </trkpt>
      <trkpt lat="48.35675" lon="-4.35686">
        <ele>33.3</ele>
        <time>2019-08-23T09:14:15Z</time>
      </trkpt>
      <trkpt lat="48.35694" lon="-4.35691">
        <ele>32.34</ele>
        <time>2019-08-23T09:14:18Z</time>
      </trkpt>
      <trkpt lat="48.35707" lon="-4.35693">
        <ele>31.38</ele>
        <time>2019-08-23T09:14:20Z</time>
      </trkpt>
      <trkpt lat="48.35712" lon="-4.35695">
        <ele>31.38</ele>
        <time>2019-08-23T09:14:21Z</time>
      </trkpt>
      <trkpt lat="48.35745" lon="-4.35696">
        <ele>28.5</ele>
        <time>2019-08-23T09:14:27Z</time>
      </trkpt>
      <trkpt lat="48.35754" lon="-4.35689">
        <ele>28.02</ele>
        <time>2019-08-23T09:14:29Z</time>
      </trkpt>
      <trkpt lat="48.35756" lon="-4.35683">
        <ele>27.53</ele>
        <time>2019-08-23T09:14:30Z</time>
      </trkpt>
      <trkpt lat="48.35758" lon="-4.35675">
        <ele>27.53</ele>
        <time>2019-08-23T09:14:31Z</time>
      </trkpt>
      <trkpt lat="48.3576" lon="-4.35667">
        <ele>27.53</ele>
        <time>2019-08-23T09:14:32Z</time>
      </trkpt>
      <trkpt lat="48.35762" lon="-4.3566">
        <ele>27.05</ele>
        <time>2019-08-23T09:14:33Z</time>
      </trkpt>
      <trkpt lat="48.35762" lon="-4.35638">
        <ele>26.57</ele>
        <time>2019-08-23T09:14:36Z</time>
      </trkpt>
      <trkpt lat="48.35761" lon="-4.35631">
        <ele>26.57</ele>
        <time>2019-08-23T09:14:37Z</time>
      </trkpt>
      <trkpt lat="48.3576" lon="-4.35624">
        <ele>26.57</ele>
        <time>2019-08-23T09:14:38Z</time>
      </trkpt>
      <trkpt lat="48.35759" lon="-4.35616">
        <ele>26.09</ele>
        <time>2019-08-23T09:14:39Z</time>
      </trkpt>
      <trkpt lat="48.35759" lon="-4.35607">
        <ele>25.61</ele>
        <time>2019-08-23T09:14:40Z</time>
      </trkpt>
      <trkpt lat="48.35759" lon="-4.35581">
        <ele>24.65</ele>
        <time>2019-08-23T09:14:43Z</time>
      </trkpt>
      <trkpt lat="48.3576" lon="-4.35545">
        <ele>21.29</ele>
        <time>2019-08-23T09:14:48Z</time>
      </trkpt>
      <trkpt lat="48.35761" lon="-4.35532">
        <ele>20.32</ele>
        <time>2019-08-23T09:14:50Z</time>
      </trkpt>
      <trkpt lat="48.35767" lon="-4.35485">
        <ele>17.92</ele>
        <time>2019-08-23T09:14:58Z</time>
      </trkpt>
      <trkpt lat="48.35771" lon="-4.35483">
        <ele>18.4</ele>
        <time>2019-08-23T09:14:59Z</time>
      </trkpt>
      <trkpt lat="48.35774" lon="-4.35483">
        <ele>17.92</ele>
        <time>2019-08-23T09:15:00Z</time>
      </trkpt>
      <trkpt lat="48.35824" lon="-4.355">
        <ele>19.36</ele>
        <time>2019-08-23T09:15:13Z</time>
      </trkpt>
      <trkpt lat="48.35831" lon="-4.35503">
        <ele>20.32</ele>
        <time>2019-08-23T09:15:23Z</time>
      </trkpt>
      <trkpt lat="48.35831" lon="-4.35502">
        <ele>20.32</ele>
        <time>2019-08-23T09:15:49Z</time>
      </trkpt>
      <trkpt lat="48.35829" lon="-4.35503">
        <ele>20.32</ele>
        <time>2019-08-23T09:15:57Z</time>
      </trkpt>
      <trkpt lat="48.35828" lon="-4.35504">
        <ele>20.32</ele>
        <time>2019-08-23T09:15:58Z</time>
      </trkpt>
      <trkpt lat="48.35826" lon="-4.35503">
        <ele>20.32</ele>
        <time>2019-08-23T09:15:59Z</time>
      </trkpt>
      <trkpt lat="48.35824" lon="-4.35502">
        <ele>20.32</ele>
        <time>2019-08-23T09:16:00Z</time>
      </trkpt>
      <trkpt lat="48.35822" lon="-4.35501">
        <ele>20.32</ele>
        <time>2019-08-23T09:16:01Z</time>
      </trkpt>
      <trkpt lat="48.3582" lon="-4.355">
        <ele>19.84</ele>
        <time>2019-08-23T09:16:02Z</time>
      </trkpt>
      <trkpt lat="48.35817" lon="-4.35498">
        <ele>19.84</ele>
        <time>2019-08-23T09:16:03Z</time>
      </trkpt>
      <trkpt lat="48.35785" lon="-4.35482">
        <ele>18.88</ele>
        <time>2019-08-23T09:16:12Z</time>
      </trkpt>
      <trkpt lat="48.35766" lon="-4.35476">
        <ele>18.88</ele>
        <time>2019-08-23T09:16:16Z</time>
      </trkpt>
      <trkpt lat="48.35762" lon="-4.35475">
        <ele>18.4</ele>
        <time>2019-08-23T09:16:17Z</time>
      </trkpt>
      <trkpt lat="48.35753" lon="-4.35476">
        <ele>18.4</ele>
        <time>2019-08-23T09:16:19Z</time>
      </trkpt>
      <trkpt lat="48.35749" lon="-4.35475">
        <ele>18.88</ele>
        <time>2019-08-23T09:16:20Z</time>
      </trkpt>
      <trkpt lat="48.35728" lon="-4.35473">
        <ele>18.4</ele>
        <time>2019-08-23T09:16:30Z</time>
      </trkpt>
      <trkpt lat="48.35718" lon="-4.3547">
        <ele>18.88</ele>
        <time>2019-08-23T09:16:42Z</time>
      </trkpt>
      <trkpt lat="48.35718" lon="-4.35471">
        <ele>18.88</ele>
        <time>2019-08-23T09:17:13Z</time>
      </trkpt>
      <trkpt lat="48.35717" lon="-4.35472">
        <ele>18.88</ele>
        <time>2019-08-23T09:17:17Z</time>
      </trkpt>
      <trkpt lat="48.35719" lon="-4.35473">
        <ele>18.88</ele>
        <time>2019-08-23T09:17:18Z</time>
      </trkpt>
      <trkpt lat="48.35739" lon="-4.35473">
        <ele>18.88</ele>
        <time>2019-08-23T09:17:27Z</time>
      </trkpt>
      <trkpt lat="48.35764" lon="-4.35474">
        <ele>18.88</ele>
        <time>2019-08-23T09:17:33Z</time>
      </trkpt>
      <trkpt lat="48.35779" lon="-4.35476">
        <ele>19.36</ele>
        <time>2019-08-23T09:17:37Z</time>
      </trkpt>
      <trkpt lat="48.3578" lon="-4.35474">
        <ele>19.36</ele>
        <time>2019-08-23T09:17:38Z</time>
      </trkpt>
      <trkpt lat="48.35781" lon="-4.3547">
        <ele>19.36</ele>
        <time>2019-08-23T09:17:39Z</time>
      </trkpt>
      <trkpt lat="48.35782" lon="-4.35466">
        <ele>19.36</ele>
        <time>2019-08-23T09:17:40Z</time>
      </trkpt>
      <trkpt lat="48.35784" lon="-4.35461">
        <ele>18.88</ele>
        <time>2019-08-23T09:17:41Z</time>
      </trkpt>
      <trkpt lat="48.35785" lon="-4.35455">
        <ele>18.88</ele>
        <time>2019-08-23T09:17:42Z</time>
      </trkpt>
      <trkpt lat="48.35811" lon="-4.3538">
        <ele>16</ele>
        <time>2019-08-23T09:17:55Z</time>
      </trkpt>
      <trkpt lat="48.35813" lon="-4.35375">
        <ele>15.52</ele>
        <time>2019-08-23T09:17:56Z</time>
      </trkpt>
      <trkpt lat="48.3585" lon="-4.35305">
        <ele>15.52</ele>
        <time>2019-08-23T09:18:08Z</time>
      </trkpt>
      <trkpt lat="48.35874" lon="-4.35259">
        <ele>16</ele>
        <time>2019-08-23T09:18:16Z</time>
      </trkpt>
      <trkpt lat="48.35881" lon="-4.35243">
        <ele>16.96</ele>
        <time>2019-08-23T09:18:19Z</time>
      </trkpt>
      <trkpt lat="48.35884" lon="-4.35238">
        <ele>16.96</ele>
        <time>2019-08-23T09:18:20Z</time>
      </trkpt>
      <trkpt lat="48.35885" lon="-4.35233">
        <ele>17.44</ele>
        <time>2019-08-23T09:18:21Z</time>
      </trkpt>
      <trkpt lat="48.35887" lon="-4.35227">
        <ele>17.92</ele>
        <time>2019-08-23T09:18:23Z</time>
      </trkpt>
      <trkpt lat="48.35889" lon="-4.35226">
        <ele>18.4</ele>
        <time>2019-08-23T09:18:24Z</time>
      </trkpt>
      <trkpt lat="48.35891" lon="-4.35225">
        <ele>18.88</ele>
        <time>2019-08-23T09:18:25Z</time>
      </trkpt>
      <trkpt lat="48.35917" lon="-4.35233">
        <ele>21.29</ele>
        <time>2019-08-23T09:18:36Z</time>
      </trkpt>
      <trkpt lat="48.35919" lon="-4.35234">
        <ele>21.29</ele>
        <time>2019-08-23T09:18:37Z</time>
      </trkpt>
      <trkpt lat="48.35921" lon="-4.35234">
        <ele>21.29</ele>
        <time>2019-08-23T09:18:46Z</time>
      </trkpt>
      <trkpt lat="48.35922" lon="-4.35233">
        <ele>21.29</ele>
        <time>2019-08-23T09:18:47Z</time>
      </trkpt>
      <trkpt lat="48.35923" lon="-4.35231">
        <ele>21.29</ele>
        <time>2019-08-23T09:18:48Z</time>
      </trkpt>
      <trkpt lat="48.35923" lon="-4.35227">
        <ele>21.29</ele>
        <time>2019-08-23T09:18:49Z</time>
      </trkpt>
      <trkpt lat="48.35922" lon="-4.35224">
        <ele>20.81</ele>
        <time>2019-08-23T09:18:50Z</time>
      </trkpt>
      <trkpt lat="48.35921" lon="-4.3522">
        <ele>20.81</ele>
        <time>2019-08-23T09:18:51Z</time>
      </trkpt>
      <trkpt lat="48.35919" lon="-4.35216">
        <ele>20.81</ele>
        <time>2019-08-23T09:18:52Z</time>
      </trkpt>
      <trkpt lat="48.35912" lon="-4.35183">
        <ele>18.88</ele>
        <time>2019-08-23T09:19:01Z</time>
      </trkpt>
      <trkpt lat="48.35912" lon="-4.35182">
        <ele>18.88</ele>
        <time>2019-08-23T09:19:02Z</time>
      </trkpt>
      <trkpt lat="48.35911" lon="-4.3518">
        <ele>18.88</ele>
        <time>2019-08-23T09:19:03Z</time>
      </trkpt>
      <trkpt lat="48.35911" lon="-4.35178">
        <ele>18.88</ele>
        <time>2019-08-23T09:19:04Z</time>
      </trkpt>
      <trkpt lat="48.35913" lon="-4.35176">
        <ele>18.4</ele>
        <time>2019-08-23T09:19:07Z</time>
      </trkpt>
      <trkpt lat="48.35914" lon="-4.35178">
        <ele>18.4</ele>
        <time>2019-08-23T09:19:08Z</time>
      </trkpt>
      <trkpt lat="48.35913" lon="-4.35181">
        <ele>18.4</ele>
        <time>2019-08-23T09:19:09Z</time>
      </trkpt>
      <trkpt lat="48.35913" lon="-4.35185">
        <ele>18.88</ele>
        <time>2019-08-23T09:19:10Z</time>
      </trkpt>
      <trkpt lat="48.35914" lon="-4.35189">
        <ele>19.36</ele>
        <time>2019-08-23T09:19:11Z</time>
      </trkpt>
      <trkpt lat="48.35925" lon="-4.35237">
        <ele>21.29</ele>
        <time>2019-08-23T09:19:20Z</time>
      </trkpt>
      <trkpt lat="48.3595" lon="-4.35292">
        <ele>23.21</ele>
        <time>2019-08-23T09:19:31Z</time>
      </trkpt>
      <trkpt lat="48.35953" lon="-4.35298">
        <ele>23.21</ele>
        <time>2019-08-23T09:19:32Z</time>
      </trkpt>
      <trkpt lat="48.35956" lon="-4.35302">
        <ele>23.21</ele>
        <time>2019-08-23T09:19:33Z</time>
      </trkpt>
      <trkpt lat="48.3596" lon="-4.35304">
        <ele>23.69</ele>
        <time>2019-08-23T09:19:34Z</time>
      </trkpt>
      <trkpt lat="48.35964" lon="-4.35304">
        <ele>23.69</ele>
        <time>2019-08-23T09:19:35Z</time>
      </trkpt>
      <trkpt lat="48.35968" lon="-4.35301">
        <ele>23.69</ele>
        <time>2019-08-23T09:19:36Z</time>
      </trkpt>
      <trkpt lat="48.35971" lon="-4.35297">
        <ele>24.17</ele>
        <time>2019-08-23T09:19:37Z</time>
      </trkpt>
      <trkpt lat="48.35974" lon="-4.35292">
        <ele>24.17</ele>
        <time>2019-08-23T09:19:38Z</time>
      </trkpt>
      <trkpt lat="48.35976" lon="-4.35287">
        <ele>23.69</ele>
        <time>2019-08-23T09:19:39Z</time>
      </trkpt>
      <trkpt lat="48.36002" lon="-4.35242">
        <ele>23.69</ele>
        <time>2019-08-23T09:19:48Z</time>
      </trkpt>
      <trkpt lat="48.36005" lon="-4.35236">
        <ele>23.69</ele>
        <time>2019-08-23T09:19:49Z</time>
      </trkpt>
      <trkpt lat="48.36008" lon="-4.35231">
        <ele>23.69</ele>
        <time>2019-08-23T09:19:50Z</time>
      </trkpt>
      <trkpt lat="48.36011" lon="-4.35226">
        <ele>23.69</ele>
        <time>2019-08-23T09:19:51Z</time>
      </trkpt>
      <trkpt lat="48.36014" lon="-4.35221">
        <ele>23.69</ele>
        <time>2019-08-23T09:19:52Z</time>
      </trkpt>
      <trkpt lat="48.36022" lon="-4.35206">
        <ele>23.69</ele>
        <time>2019-08-23T09:19:55Z</time>
      </trkpt>
      <trkpt lat="48.3605" lon="-4.35163">
        <ele>23.69</ele>
        <time>2019-08-23T09:20:03Z</time>
      </trkpt>
      <trkpt lat="48.36058" lon="-4.35153">
        <ele>23.69</ele>
        <time>2019-08-23T09:20:05Z</time>
      </trkpt>
      <trkpt lat="48.36061" lon="-4.35147">
        <ele>23.69</ele>
        <time>2019-08-23T09:20:06Z</time>
      </trkpt>
      <trkpt lat="48.36065" lon="-4.35141">
        <ele>23.69</ele>
        <time>2019-08-23T09:20:07Z</time>
      </trkpt>
      <trkpt lat="48.36075" lon="-4.35115">
        <ele>24.17</ele>
        <time>2019-08-23T09:20:11Z</time>
      </trkpt>
      <trkpt lat="48.36088" lon="-4.3508">
        <ele>24.65</ele>
        <time>2019-08-23T09:20:17Z</time>
      </trkpt>
      <trkpt lat="48.36105" lon="-4.3504">
        <ele>25.61</ele>
        <time>2019-08-23T09:20:24Z</time>
      </trkpt>
      <trkpt lat="48.36129" lon="-4.34992">
        <ele>26.09</ele>
        <time>2019-08-23T09:20:33Z</time>
      </trkpt>
      <trkpt lat="48.36132" lon="-4.34988">
        <ele>26.09</ele>
        <time>2019-08-23T09:20:34Z</time>
      </trkpt>
      <trkpt lat="48.36134" lon="-4.34983">
        <ele>26.57</ele>
        <time>2019-08-23T09:20:35Z</time>
      </trkpt>
      <trkpt lat="48.36137" lon="-4.34977">
        <ele>26.57</ele>
        <time>2019-08-23T09:20:36Z</time>
      </trkpt>
      <trkpt lat="48.36138" lon="-4.34972">
        <ele>27.05</ele>
        <time>2019-08-23T09:20:37Z</time>
      </trkpt>
      <trkpt lat="48.3614" lon="-4.34967">
        <ele>27.05</ele>
        <time>2019-08-23T09:20:38Z</time>
      </trkpt>
      <trkpt lat="48.36166" lon="-4.34909">
        <ele>28.98</ele>
        <time>2019-08-23T09:20:50Z</time>
      </trkpt>
      <trkpt lat="48.36197" lon="-4.34862">
        <ele>30.9</ele>
        <time>2019-08-23T09:21:01Z</time>
      </trkpt>
      <trkpt lat="48.36224" lon="-4.3482">
        <ele>31.38</ele>
        <time>2019-08-23T09:21:11Z</time>
      </trkpt>
      <trkpt lat="48.36256" lon="-4.34773">
        <ele>31.38</ele>
        <time>2019-08-23T09:21:22Z</time>
      </trkpt>
      <trkpt lat="48.36285" lon="-4.34738">
        <ele>31.38</ele>
        <time>2019-08-23T09:21:30Z</time>
      </trkpt>
      <trkpt lat="48.36288" lon="-4.34734">
        <ele>31.38</ele>
        <time>2019-08-23T09:21:31Z</time>
      </trkpt>
      <trkpt lat="48.36302" lon="-4.34714">
        <ele>31.38</ele>
        <time>2019-08-23T09:21:35Z</time>
      </trkpt>
      <trkpt lat="48.36305" lon="-4.34709">
        <ele>30.9</ele>
        <time>2019-08-23T09:21:36Z</time>
      </trkpt>
      <trkpt lat="48.36337" lon="-4.34654">
        <ele>30.9</ele>
        <time>2019-08-23T09:21:47Z</time>
      </trkpt>
      <trkpt lat="48.36347" lon="-4.34637">
        <ele>30.9</ele>
        <time>2019-08-23T09:21:50Z</time>
      </trkpt>
      <trkpt lat="48.36381" lon="-4.34574">
        <ele>30.9</ele>
        <time>2019-08-23T09:22:02Z</time>
      </trkpt>
      <trkpt lat="48.36384" lon="-4.34569">
        <ele>30.9</ele>
        <time>2019-08-23T09:22:03Z</time>
      </trkpt>
      <trkpt lat="48.36395" lon="-4.34556">
        <ele>31.38</ele>
        <time>2019-08-23T09:22:06Z</time>
      </trkpt>
      <trkpt lat="48.36447" lon="-4.34496">
        <ele>31.38</ele>
        <time>2019-08-23T09:22:20Z</time>
      </trkpt>
      <trkpt lat="48.3648" lon="-4.34441">
        <ele>32.34</ele>
        <time>2019-08-23T09:22:32Z</time>
      </trkpt>
      <trkpt lat="48.36494" lon="-4.34407">
        <ele>31.86</ele>
        <time>2019-08-23T09:22:42Z</time>
      </trkpt>
      <trkpt lat="48.36498" lon="-4.344">
        <ele>32.34</ele>
        <time>2019-08-23T09:23:05Z</time>
      </trkpt>
      <trkpt lat="48.36508" lon="-4.34395">
        <ele>31.86</ele>
        <time>2019-08-23T09:23:15Z</time>
      </trkpt>
      <trkpt lat="48.36511" lon="-4.34397">
        <ele>31.86</ele>
        <time>2019-08-23T09:23:16Z</time>
      </trkpt>
      <trkpt lat="48.36515" lon="-4.34399">
        <ele>31.86</ele>
        <time>2019-08-23T09:23:17Z</time>
      </trkpt>
      <trkpt lat="48.36518" lon="-4.34402">
        <ele>31.86</ele>
        <time>2019-08-23T09:23:18Z</time>
      </trkpt>
      <trkpt lat="48.36522" lon="-4.34405">
        <ele>31.86</ele>
        <time>2019-08-23T09:23:19Z</time>
      </trkpt>
      <trkpt lat="48.36526" lon="-4.34408">
        <ele>31.86</ele>
        <time>2019-08-23T09:23:20Z</time>
      </trkpt>
      <trkpt lat="48.36529" lon="-4.3441">
        <ele>31.86</ele>
        <time>2019-08-23T09:23:21Z</time>
      </trkpt>
      <trkpt lat="48.36533" lon="-4.34411">
        <ele>31.86</ele>
        <time>2019-08-23T09:23:22Z</time>
      </trkpt>
      <trkpt lat="48.36536" lon="-4.3441">
        <ele>31.86</ele>
        <time>2019-08-23T09:23:23Z</time>
      </trkpt>
      <trkpt lat="48.36539" lon="-4.34407">
        <ele>31.86</ele>
        <time>2019-08-23T09:23:24Z</time>
      </trkpt>
      <trkpt lat="48.36541" lon="-4.34403">
        <ele>31.86</ele>
        <time>2019-08-23T09:23:25Z</time>
      </trkpt>
      <trkpt lat="48.36543" lon="-4.34399">
        <ele>31.86</ele>
        <time>2019-08-23T09:23:26Z</time>
      </trkpt>
      <trkpt lat="48.36545" lon="-4.34395">
        <ele>31.86</ele>
        <time>2019-08-23T09:23:27Z</time>
      </trkpt>
      <trkpt lat="48.36546" lon="-4.34391">
        <ele>31.86</ele>
        <time>2019-08-23T09:23:28Z</time>
      </trkpt>
      <trkpt lat="48.36568" lon="-4.34337">
        <ele>32.82</ele>
        <time>2019-08-23T09:23:38Z</time>
      </trkpt>
      <trkpt lat="48.36602" lon="-4.34249">
        <ele>33.3</ele>
        <time>2019-08-23T09:23:52Z</time>
      </trkpt>
      <trkpt lat="48.36604" lon="-4.34242">
        <ele>34.26</ele>
        <time>2019-08-23T09:23:53Z</time>
      </trkpt>
      <trkpt lat="48.36611" lon="-4.34174">
        <ele>32.82</ele>
        <time>2019-08-23T09:24:02Z</time>
      </trkpt>
      <trkpt lat="48.36615" lon="-4.3409">
        <ele>31.86</ele>
        <time>2019-08-23T09:24:15Z</time>
      </trkpt>
      <trkpt lat="48.36611" lon="-4.34078">
        <ele>32.34</ele>
        <time>2019-08-23T09:24:19Z</time>
      </trkpt>
      <trkpt lat="48.3661" lon="-4.34077">
        <ele>32.34</ele>
        <time>2019-08-23T09:24:20Z</time>
      </trkpt>
      <trkpt lat="48.36609" lon="-4.34077">
        <ele>32.34</ele>
        <time>2019-08-23T09:24:21Z</time>
      </trkpt>
      <trkpt lat="48.36609" lon="-4.34079">
        <ele>32.34</ele>
        <time>2019-08-23T09:24:22Z</time>
      </trkpt>
      <trkpt lat="48.3661" lon="-4.34081">
        <ele>32.34</ele>
        <time>2019-08-23T09:24:23Z</time>
      </trkpt>
      <trkpt lat="48.36611" lon="-4.34084">
        <ele>32.34</ele>
        <time>2019-08-23T09:24:24Z</time>
      </trkpt>
      <trkpt lat="48.36621" lon="-4.34099">
        <ele>31.86</ele>
        <time>2019-08-23T09:24:28Z</time>
      </trkpt>
      <trkpt lat="48.36625" lon="-4.34098">
        <ele>31.86</ele>
        <time>2019-08-23T09:24:29Z</time>
      </trkpt>
      <trkpt lat="48.36629" lon="-4.34095">
        <ele>31.86</ele>
        <time>2019-08-23T09:24:30Z</time>
      </trkpt>
      <trkpt lat="48.36646" lon="-4.34079">
        <ele>31.38</ele>
        <time>2019-08-23T09:24:34Z</time>
      </trkpt>
      <trkpt lat="48.3665" lon="-4.34076">
        <ele>31.38</ele>
        <time>2019-08-23T09:24:35Z</time>
      </trkpt>
      <trkpt lat="48.36656" lon="-4.34075">
        <ele>30.9</ele>
        <time>2019-08-23T09:24:36Z</time>
      </trkpt>
      <trkpt lat="48.36661" lon="-4.34074">
        <ele>30.9</ele>
        <time>2019-08-23T09:24:37Z</time>
      </trkpt>
      <trkpt lat="48.36666" lon="-4.34074">
        <ele>30.9</ele>
        <time>2019-08-23T09:24:38Z</time>
      </trkpt>
      <trkpt lat="48.36672" lon="-4.34075">
        <ele>30.9</ele>
        <time>2019-08-23T09:24:39Z</time>
      </trkpt>
      <trkpt lat="48.36677" lon="-4.34077">
        <ele>30.9</ele>
        <time>2019-08-23T09:24:40Z</time>
      </trkpt>
      <trkpt lat="48.36683" lon="-4.34078">
        <ele>30.9</ele>
        <time>2019-08-23T09:24:41Z</time>
      </trkpt>
      <trkpt lat="48.36714" lon="-4.34076">
        <ele>31.86</ele>
        <time>2019-08-23T09:24:47Z</time>
      </trkpt>
      <trkpt lat="48.36718" lon="-4.34073">
        <ele>31.86</ele>
        <time>2019-08-23T09:24:48Z</time>
      </trkpt>
      <trkpt lat="48.36738" lon="-4.34056">
        <ele>33.78</ele>
        <time>2019-08-23T09:24:53Z</time>
      </trkpt>
      <trkpt lat="48.36741" lon="-4.34052">
        <ele>33.3</ele>
        <time>2019-08-23T09:24:54Z</time>
      </trkpt>
      <trkpt lat="48.36766" lon="-4.34">
        <ele>34.26</ele>
        <time>2019-08-23T09:25:04Z</time>
      </trkpt>
      <trkpt lat="48.36768" lon="-4.33993">
        <ele>34.26</ele>
        <time>2019-08-23T09:25:05Z</time>
      </trkpt>
      <trkpt lat="48.36771" lon="-4.33986">
        <ele>34.26</ele>
        <time>2019-08-23T09:25:06Z</time>
      </trkpt>
      <trkpt lat="48.36777" lon="-4.33967">
        <ele>33.78</ele>
        <time>2019-08-23T09:25:09Z</time>
      </trkpt>
      <trkpt lat="48.36783" lon="-4.33949">
        <ele>34.26</ele>
        <time>2019-08-23T09:25:12Z</time>
      </trkpt>
      <trkpt lat="48.36786" lon="-4.33944">
        <ele>34.74</ele>
        <time>2019-08-23T09:25:13Z</time>
      </trkpt>
      <trkpt lat="48.36789" lon="-4.33938">
        <ele>34.74</ele>
        <time>2019-08-23T09:25:14Z</time>
      </trkpt>
      <trkpt lat="48.36796" lon="-4.33922">
        <ele>35.23</ele>
        <time>2019-08-23T09:25:17Z</time>
      </trkpt>
      <trkpt lat="48.36811" lon="-4.33899">
        <ele>35.71</ele>
        <time>2019-08-23T09:25:22Z</time>
      </trkpt>
      <trkpt lat="48.36815" lon="-4.33894">
        <ele>35.23</ele>
        <time>2019-08-23T09:25:23Z</time>
      </trkpt>
      <trkpt lat="48.36827" lon="-4.33872">
        <ele>35.23</ele>
        <time>2019-08-23T09:25:27Z</time>
      </trkpt>
      <trkpt lat="48.36833" lon="-4.33861">
        <ele>35.23</ele>
        <time>2019-08-23T09:25:29Z</time>
      </trkpt>
      <trkpt lat="48.36847" lon="-4.33842">
        <ele>35.23</ele>
        <time>2019-08-23T09:25:33Z</time>
      </trkpt>
      <trkpt lat="48.36877" lon="-4.33819">
        <ele>35.23</ele>
        <time>2019-08-23T09:25:40Z</time>
      </trkpt>
      <trkpt lat="48.36917" lon="-4.33777">
        <ele>38.59</ele>
        <time>2019-08-23T09:25:53Z</time>
      </trkpt>
      <trkpt lat="48.36947" lon="-4.33753">
        <ele>38.59</ele>
        <time>2019-08-23T09:26:02Z</time>
      </trkpt>
      <trkpt lat="48.36988" lon="-4.33714">
        <ele>40.03</ele>
        <time>2019-08-23T09:26:13Z</time>
      </trkpt>
      <trkpt lat="48.36999" lon="-4.33705">
        <ele>40.03</ele>
        <time>2019-08-23T09:26:16Z</time>
      </trkpt>
      <trkpt lat="48.37003" lon="-4.33704">
        <ele>40.51</ele>
        <time>2019-08-23T09:26:17Z</time>
      </trkpt>
      <trkpt lat="48.37007" lon="-4.33702">
        <ele>40.51</ele>
        <time>2019-08-23T09:26:18Z</time>
      </trkpt>
      <trkpt lat="48.37037" lon="-4.33684">
        <ele>40.03</ele>
        <time>2019-08-23T09:26:28Z</time>
      </trkpt>
      <trkpt lat="48.37037" lon="-4.33681">
        <ele>40.03</ele>
        <time>2019-08-23T09:26:29Z</time>
      </trkpt>
      <trkpt lat="48.37037" lon="-4.33678">
        <ele>40.03</ele>
        <time>2019-08-23T09:26:30Z</time>
      </trkpt>
      <trkpt lat="48.37036" lon="-4.33674">
        <ele>40.03</ele>
        <time>2019-08-23T09:26:31Z</time>
      </trkpt>
      <trkpt lat="48.37035" lon="-4.3367">
        <ele>39.55</ele>
        <time>2019-08-23T09:26:32Z</time>
      </trkpt>
      <trkpt lat="48.37031" lon="-4.33656">
        <ele>38.11</ele>
        <time>2019-08-23T09:26:35Z</time>
      </trkpt>
      <trkpt lat="48.3703" lon="-4.33649">
        <ele>37.63</ele>
        <time>2019-08-23T09:26:36Z</time>
      </trkpt>
      <trkpt lat="48.37029" lon="-4.33641">
        <ele>37.15</ele>
        <time>2019-08-23T09:26:37Z</time>
      </trkpt>
      <trkpt lat="48.37019" lon="-4.33593">
        <ele>33.3</ele>
        <time>2019-08-23T09:26:42Z</time>
      </trkpt>
      <trkpt lat="48.37011" lon="-4.33561">
        <ele>30.42</ele>
        <time>2019-08-23T09:26:45Z</time>
      </trkpt>
      <trkpt lat="48.37007" lon="-4.33551">
        <ele>29.46</ele>
        <time>2019-08-23T09:26:46Z</time>
      </trkpt>
      <trkpt lat="48.37003" lon="-4.3354">
        <ele>28.5</ele>
        <time>2019-08-23T09:26:47Z</time>
      </trkpt>
      <trkpt lat="48.36997" lon="-4.3353">
        <ele>27.53</ele>
        <time>2019-08-23T09:26:48Z</time>
      </trkpt>
      <trkpt lat="48.3699" lon="-4.3352">
        <ele>26.09</ele>
        <time>2019-08-23T09:26:49Z</time>
      </trkpt>
      <trkpt lat="48.36982" lon="-4.3351">
        <ele>24.65</ele>
        <time>2019-08-23T09:26:50Z</time>
      </trkpt>
      <trkpt lat="48.36975" lon="-4.33498">
        <ele>23.69</ele>
        <time>2019-08-23T09:26:51Z</time>
      </trkpt>
      <trkpt lat="48.36968" lon="-4.33485">
        <ele>22.25</ele>
        <time>2019-08-23T09:26:52Z</time>
      </trkpt>
      <trkpt lat="48.36952" lon="-4.33457">
        <ele>18.88</ele>
        <time>2019-08-23T09:26:54Z</time>
      </trkpt>
      <trkpt lat="48.36944" lon="-4.33445">
        <ele>16.96</ele>
        <time>2019-08-23T09:26:55Z</time>
      </trkpt>
      <trkpt lat="48.36936" lon="-4.33434">
        <ele>15.52</ele>
        <time>2019-08-23T09:26:56Z</time>
      </trkpt>
      <trkpt lat="48.36927" lon="-4.33427">
        <ele>14.08</ele>
        <time>2019-08-23T09:26:57Z</time>
      </trkpt>
      <trkpt lat="48.36918" lon="-4.33422">
        <ele>13.12</ele>
        <time>2019-08-23T09:26:58Z</time>
      </trkpt>
      <trkpt lat="48.36909" lon="-4.33418">
        <ele>13.12</ele>
        <time>2019-08-23T09:26:59Z</time>
      </trkpt>
      <trkpt lat="48.369" lon="-4.33417">
        <ele>13.12</ele>
        <time>2019-08-23T09:27:00Z</time>
      </trkpt>
      <trkpt lat="48.36868" lon="-4.33407">
        <ele>16.48</ele>
        <time>2019-08-23T09:27:06Z</time>
      </trkpt>
      <trkpt lat="48.36824" lon="-4.33378">
        <ele>17.44</ele>
        <time>2019-08-23T09:27:17Z</time>
      </trkpt>
      <trkpt lat="48.36808" lon="-4.33363">
        <ele>17.44</ele>
        <time>2019-08-23T09:27:21Z</time>
      </trkpt>
      <trkpt lat="48.36804" lon="-4.33359">
        <ele>16.96</ele>
        <time>2019-08-23T09:27:22Z</time>
      </trkpt>
      <trkpt lat="48.36794" lon="-4.33346">
        <ele>16.48</ele>
        <time>2019-08-23T09:27:25Z</time>
      </trkpt>
      <trkpt lat="48.36791" lon="-4.33342">
        <ele>16.48</ele>
        <time>2019-08-23T09:27:26Z</time>
      </trkpt>
      <trkpt lat="48.36788" lon="-4.33338">
        <ele>16</ele>
        <time>2019-08-23T09:27:27Z</time>
      </trkpt>
      <trkpt lat="48.36785" lon="-4.33334">
        <ele>16</ele>
        <time>2019-08-23T09:27:28Z</time>
      </trkpt>
      <trkpt lat="48.36782" lon="-4.33331">
        <ele>15.52</ele>
        <time>2019-08-23T09:27:29Z</time>
      </trkpt>
      <trkpt lat="48.36765" lon="-4.33299">
        <ele>13.12</ele>
        <time>2019-08-23T09:27:39Z</time>
      </trkpt>
      <trkpt lat="48.36761" lon="-4.33279">
        <ele>11.67</ele>
        <time>2019-08-23T09:27:52Z</time>
      </trkpt>
      <trkpt lat="48.36759" lon="-4.33276">
        <ele>11.67</ele>
        <time>2019-08-23T09:28:07Z</time>
      </trkpt>
      <trkpt lat="48.36757" lon="-4.33274">
        <ele>12.15</ele>
        <time>2019-08-23T09:28:25Z</time>
      </trkpt>
      <trkpt lat="48.36756" lon="-4.33274">
        <ele>12.15</ele>
        <time>2019-08-23T09:28:26Z</time>
      </trkpt>
      <trkpt lat="48.36754" lon="-4.33275">
        <ele>11.67</ele>
        <time>2019-08-23T09:28:27Z</time>
      </trkpt>
      <trkpt lat="48.36749" lon="-4.33276">
        <ele>10.71</ele>
        <time>2019-08-23T09:28:29Z</time>
      </trkpt>
      <trkpt lat="48.36747" lon="-4.33275">
        <ele>10.23</ele>
        <time>2019-08-23T09:28:30Z</time>
      </trkpt>
      <trkpt lat="48.36747" lon="-4.33273">
        <ele>10.71</ele>
        <time>2019-08-23T09:28:31Z</time>
      </trkpt>
      <trkpt lat="48.36746" lon="-4.33269">
        <ele>10.23</ele>
        <time>2019-08-23T09:28:32Z</time>
      </trkpt>
      <trkpt lat="48.36746" lon="-4.33266">
        <ele>9.75</ele>
        <time>2019-08-23T09:28:33Z</time>
      </trkpt>
      <trkpt lat="48.36746" lon="-4.33262">
        <ele>9.27</ele>
        <time>2019-08-23T09:28:34Z</time>
      </trkpt>
      <trkpt lat="48.36746" lon="-4.33257">
        <ele>8.79</ele>
        <time>2019-08-23T09:28:35Z</time>
      </trkpt>
      <trkpt lat="48.36746" lon="-4.33255">
        <ele>8.31</ele>
        <time>2019-08-23T09:28:36Z</time>
      </trkpt>
      <trkpt lat="48.36746" lon="-4.33253">
        <ele>8.31</ele>
        <time>2019-08-23T09:28:37Z</time>
      </trkpt>
      <trkpt lat="48.36747" lon="-4.33251">
        <ele>7.83</ele>
        <time>2019-08-23T09:28:42Z</time>
      </trkpt>
      <trkpt lat="48.36745" lon="-4.3325">
        <ele>7.35</ele>
        <time>2019-08-23T09:28:43Z</time>
      </trkpt>
      <trkpt lat="48.36743" lon="-4.33248">
        <ele>7.35</ele>
        <time>2019-08-23T09:28:44Z</time>
      </trkpt>
      <trkpt lat="48.36741" lon="-4.33246">
        <ele>7.35</ele>
        <time>2019-08-23T09:28:45Z</time>
      </trkpt>
      <trkpt lat="48.36738" lon="-4.33245">
        <ele>7.35</ele>
        <time>2019-08-23T09:28:46Z</time>
      </trkpt>
      <trkpt lat="48.36735" lon="-4.33245">
        <ele>6.87</ele>
        <time>2019-08-23T09:28:47Z</time>
      </trkpt>
      <trkpt lat="48.36733" lon="-4.33245">
        <ele>6.87</ele>
        <time>2019-08-23T09:28:48Z</time>
      </trkpt>
      <trkpt lat="48.3673" lon="-4.33245">
        <ele>6.87</ele>
        <time>2019-08-23T09:28:49Z</time>
      </trkpt>
      <trkpt lat="48.36727" lon="-4.33246">
        <ele>6.39</ele>
        <time>2019-08-23T09:28:50Z</time>
      </trkpt>
      <trkpt lat="48.36705" lon="-4.33246">
        <ele>6.87</ele>
        <time>2019-08-23T09:28:59Z</time>
      </trkpt>
      <trkpt lat="48.36675" lon="-4.33245">
        <ele>7.83</ele>
        <time>2019-08-23T09:29:09Z</time>
      </trkpt>
      <trkpt lat="48.36641" lon="-4.33255">
        <ele>9.75</ele>
        <time>2019-08-23T09:29:21Z</time>
      </trkpt>
      <trkpt lat="48.36614" lon="-4.33268">
        <ele>11.19</ele>
        <time>2019-08-23T09:29:33Z</time>
      </trkpt>
      <trkpt lat="48.36599" lon="-4.33277">
        <ele>12.63</ele>
        <time>2019-08-23T09:29:41Z</time>
      </trkpt>
      <trkpt lat="48.36597" lon="-4.33278">
        <ele>12.63</ele>
        <time>2019-08-23T09:29:42Z</time>
      </trkpt>
      <trkpt lat="48.36595" lon="-4.33278">
        <ele>12.63</ele>
        <time>2019-08-23T09:29:43Z</time>
      </trkpt>
      <trkpt lat="48.36593" lon="-4.3328">
        <ele>13.12</ele>
        <time>2019-08-23T09:29:44Z</time>
      </trkpt>
      <trkpt lat="48.36591" lon="-4.33282">
        <ele>13.12</ele>
        <time>2019-08-23T09:29:45Z</time>
      </trkpt>
      <trkpt lat="48.3659" lon="-4.33283">
        <ele>13.12</ele>
        <time>2019-08-23T09:29:46Z</time>
      </trkpt>
      <trkpt lat="48.36589" lon="-4.33285">
        <ele>13.6</ele>
        <time>2019-08-23T09:29:47Z</time>
      </trkpt>
      <trkpt lat="48.36588" lon="-4.33287">
        <ele>14.08</ele>
        <time>2019-08-23T09:29:48Z</time>
      </trkpt>
      <trkpt lat="48.36572" lon="-4.33309">
        <ele>16.48</ele>
        <time>2019-08-23T09:30:01Z</time>
      </trkpt>
      <trkpt lat="48.36565" lon="-4.33319">
        <ele>17.44</ele>
        <time>2019-08-23T09:30:06Z</time>
      </trkpt>
      <trkpt lat="48.36563" lon="-4.33322">
        <ele>17.92</ele>
        <time>2019-08-23T09:30:07Z</time>
      </trkpt>
      <trkpt lat="48.36562" lon="-4.33324">
        <ele>17.92</ele>
        <time>2019-08-23T09:30:08Z</time>
      </trkpt>
      <trkpt lat="48.36557" lon="-4.3333">
        <ele>17.92</ele>
        <time>2019-08-23T09:30:11Z</time>
      </trkpt>
      <trkpt lat="48.36555" lon="-4.33332">
        <ele>18.4</ele>
        <time>2019-08-23T09:30:12Z</time>
      </trkpt>
      <trkpt lat="48.36553" lon="-4.33334">
        <ele>18.4</ele>
        <time>2019-08-23T09:30:13Z</time>
      </trkpt>
      <trkpt lat="48.36529" lon="-4.33366">
        <ele>19.84</ele>
        <time>2019-08-23T09:30:27Z</time>
      </trkpt>
      <trkpt lat="48.36515" lon="-4.33403">
        <ele>20.32</ele>
        <time>2019-08-23T09:30:40Z</time>
      </trkpt>
      <trkpt lat="48.36512" lon="-4.3343">
        <ele>20.81</ele>
        <time>2019-08-23T09:30:49Z</time>
      </trkpt>
      <trkpt lat="48.36512" lon="-4.33433">
        <ele>20.81</ele>
        <time>2019-08-23T09:30:50Z</time>
      </trkpt>
      <trkpt lat="48.36514" lon="-4.33445">
        <ele>21.29</ele>
        <time>2019-08-23T09:30:54Z</time>
      </trkpt>
      <trkpt lat="48.36509" lon="-4.33497">
        <ele>21.29</ele>
        <time>2019-08-23T09:31:04Z</time>
      </trkpt>
      <trkpt lat="48.36515" lon="-4.33552">
        <ele>22.25</ele>
        <time>2019-08-23T09:31:16Z</time>
      </trkpt>
      <trkpt lat="48.36517" lon="-4.33556">
        <ele>22.25</ele>
        <time>2019-08-23T09:31:17Z</time>
      </trkpt>
      <trkpt lat="48.36518" lon="-4.33559">
        <ele>22.73</ele>
        <time>2019-08-23T09:31:18Z</time>
      </trkpt>
      <trkpt lat="48.3652" lon="-4.33562">
        <ele>22.73</ele>
        <time>2019-08-23T09:31:19Z</time>
      </trkpt>
      <trkpt lat="48.36522" lon="-4.33564">
        <ele>22.73</ele>
        <time>2019-08-23T09:31:20Z</time>
      </trkpt>
      <trkpt lat="48.36524" lon="-4.33566">
        <ele>23.21</ele>
        <time>2019-08-23T09:31:21Z</time>
      </trkpt>
      <trkpt lat="48.36527" lon="-4.33571">
        <ele>23.21</ele>
        <time>2019-08-23T09:31:23Z</time>
      </trkpt>
      <trkpt lat="48.36528" lon="-4.33575">
        <ele>23.69</ele>
        <time>2019-08-23T09:31:24Z</time>
      </trkpt>
      <trkpt lat="48.3653" lon="-4.33579">
        <ele>23.69</ele>
        <time>2019-08-23T09:31:25Z</time>
      </trkpt>
      <trkpt lat="48.36542" lon="-4.33611">
        <ele>25.13</ele>
        <time>2019-08-23T09:31:37Z</time>
      </trkpt>
      <trkpt lat="48.36541" lon="-4.33612">
        <ele>25.13</ele>
        <time>2019-08-23T09:31:38Z</time>
      </trkpt>
      <trkpt lat="48.36537" lon="-4.3361">
        <ele>24.65</ele>
        <time>2019-08-23T09:31:40Z</time>
      </trkpt>
      <trkpt lat="48.36533" lon="-4.336">
        <ele>24.65</ele>
        <time>2019-08-23T09:31:43Z</time>
      </trkpt>
      <trkpt lat="48.36528" lon="-4.33579">
        <ele>24.17</ele>
        <time>2019-08-23T09:31:50Z</time>
      </trkpt>
      <trkpt lat="48.36529" lon="-4.33578">
        <ele>24.65</ele>
        <time>2019-08-23T09:31:51Z</time>
      </trkpt>
      <trkpt lat="48.36538" lon="-4.33573">
        <ele>25.61</ele>
        <time>2019-08-23T09:31:56Z</time>
      </trkpt>
      <trkpt lat="48.36544" lon="-4.3357">
        <ele>26.09</ele>
        <time>2019-08-23T09:31:59Z</time>
      </trkpt>
      <trkpt lat="48.3657" lon="-4.33563">
        <ele>28.98</ele>
        <time>2019-08-23T09:32:13Z</time>
      </trkpt>
      <trkpt lat="48.36589" lon="-4.33559">
        <ele>31.86</ele>
        <time>2019-08-23T09:32:24Z</time>
      </trkpt>
      <trkpt lat="48.36593" lon="-4.33559">
        <ele>32.34</ele>
        <time>2019-08-23T09:32:26Z</time>
      </trkpt>
      <trkpt lat="48.36614" lon="-4.33557">
        <ele>35.23</ele>
        <time>2019-08-23T09:32:38Z</time>
      </trkpt>
      <trkpt lat="48.3663" lon="-4.33558">
        <ele>37.15</ele>
        <time>2019-08-23T09:32:47Z</time>
      </trkpt>
      <trkpt lat="48.36635" lon="-4.33564">
        <ele>38.59</ele>
        <time>2019-08-23T09:32:51Z</time>
      </trkpt>
      <trkpt lat="48.3665" lon="-4.33595">
        <ele>39.07</ele>
        <time>2019-08-23T09:33:02Z</time>
      </trkpt>
      <trkpt lat="48.36651" lon="-4.33598">
        <ele>39.07</ele>
        <time>2019-08-23T09:33:03Z</time>
      </trkpt>
      <trkpt lat="48.36676" lon="-4.33629">
        <ele>38.11</ele>
        <time>2019-08-23T09:33:17Z</time>
      </trkpt>
      <trkpt lat="48.36683" lon="-4.33641">
        <ele>36.67</ele>
        <time>2019-08-23T09:33:22Z</time>
      </trkpt>
      <trkpt lat="48.36687" lon="-4.33653">
        <ele>36.19</ele>
        <time>2019-08-23T09:33:35Z</time>
      </trkpt>
      <trkpt lat="48.36688" lon="-4.33655">
        <ele>36.19</ele>
        <time>2019-08-23T09:34:00Z</time>
      </trkpt>
      <trkpt lat="48.36689" lon="-4.33654">
        <ele>36.19</ele>
        <time>2019-08-23T09:34:27Z</time>
      </trkpt>
      <trkpt lat="48.36689" lon="-4.33652">
        <ele>36.67</ele>
        <time>2019-08-23T09:34:32Z</time>
      </trkpt>
      <trkpt lat="48.36668" lon="-4.33624">
        <ele>39.07</ele>
        <time>2019-08-23T09:34:44Z</time>
      </trkpt>
      <trkpt lat="48.36655" lon="-4.33606">
        <ele>39.55</ele>
        <time>2019-08-23T09:34:53Z</time>
      </trkpt>
      <trkpt lat="48.36656" lon="-4.33603">
        <ele>39.55</ele>
        <time>2019-08-23T09:35:01Z</time>
      </trkpt>
      <trkpt lat="48.36656" lon="-4.33573">
        <ele>40.99</ele>
        <time>2019-08-23T09:35:14Z</time>
      </trkpt>
      <trkpt lat="48.36656" lon="-4.33576">
        <ele>40.99</ele>
        <time>2019-08-23T09:35:32Z</time>
      </trkpt>
      <trkpt lat="48.36658" lon="-4.33579">
        <ele>40.99</ele>
        <time>2019-08-23T09:35:34Z</time>
      </trkpt>
      <trkpt lat="48.36659" lon="-4.3359">
        <ele>40.51</ele>
        <time>2019-08-23T09:35:38Z</time>
      </trkpt>
      <trkpt lat="48.36659" lon="-4.33596">
        <ele>40.51</ele>
        <time>2019-08-23T09:35:40Z</time>
      </trkpt>
      <trkpt lat="48.36652" lon="-4.33595">
        <ele>40.03</ele>
        <time>2019-08-23T09:35:46Z</time>
      </trkpt>
      <trkpt lat="48.36642" lon="-4.33573">
        <ele>40.99</ele>
        <time>2019-08-23T09:35:54Z</time>
      </trkpt>
      <trkpt lat="48.36636" lon="-4.33562">
        <ele>38.59</ele>
        <time>2019-08-23T09:36:00Z</time>
      </trkpt>
      <trkpt lat="48.36629" lon="-4.3356">
        <ele>38.11</ele>
        <time>2019-08-23T09:36:04Z</time>
      </trkpt>
      <trkpt lat="48.3662" lon="-4.33559">
        <ele>36.19</ele>
        <time>2019-08-23T09:36:10Z</time>
      </trkpt>
      <trkpt lat="48.36619" lon="-4.3355">
        <ele>36.67</ele>
        <time>2019-08-23T09:36:20Z</time>
      </trkpt>
      <trkpt lat="48.36619" lon="-4.33547">
        <ele>36.67</ele>
        <time>2019-08-23T09:36:22Z</time>
      </trkpt>
      <trkpt lat="48.36622" lon="-4.33524">
        <ele>37.63</ele>
        <time>2019-08-23T09:36:32Z</time>
      </trkpt>
      <trkpt lat="48.36625" lon="-4.33517">
        <ele>37.63</ele>
        <time>2019-08-23T09:36:36Z</time>
      </trkpt>
      <trkpt lat="48.36641" lon="-4.3352">
        <ele>39.55</ele>
        <time>2019-08-23T09:36:49Z</time>
      </trkpt>
      <trkpt lat="48.36645" lon="-4.33522">
        <ele>39.55</ele>
        <time>2019-08-23T09:37:09Z</time>
      </trkpt>
      <trkpt lat="48.36646" lon="-4.33522">
        <ele>40.51</ele>
        <time>2019-08-23T09:37:41Z</time>
      </trkpt>
      <trkpt lat="48.36648" lon="-4.33523">
        <ele>40.03</ele>
        <time>2019-08-23T09:38:13Z</time>
      </trkpt>
      <trkpt lat="48.36647" lon="-4.33523">
        <ele>40.51</ele>
        <time>2019-08-23T09:38:44Z</time>
      </trkpt>
      <trkpt lat="48.36648" lon="-4.33524">
        <ele>40.03</ele>
        <time>2019-08-23T09:39:12Z</time>
      </trkpt>
      <trkpt lat="48.36648" lon="-4.33525">
        <ele>40.51</ele>
        <time>2019-08-23T09:39:41Z</time>
      </trkpt>
      <trkpt lat="48.36648" lon="-4.33522">
        <ele>40.99</ele>
        <time>2019-08-23T09:40:15Z</time>
      </trkpt>
      <trkpt lat="48.36648" lon="-4.33523">
        <ele>40.99</ele>
        <time>2019-08-23T09:40:47Z</time>
      </trkpt>
      <trkpt lat="48.3665" lon="-4.33522">
        <ele>41.47</ele>
        <time>2019-08-23T09:41:18Z</time>
      </trkpt>
      <trkpt lat="48.3665" lon="-4.33521">
        <ele>40.99</ele>
        <time>2019-08-23T09:41:48Z</time>
      </trkpt>
      <trkpt lat="48.36649" lon="-4.33521">
        <ele>40.99</ele>
        <time>2019-08-23T09:41:49Z</time>
      </trkpt>
      <trkpt lat="48.36647" lon="-4.33521">
        <ele>40.99</ele>
        <time>2019-08-23T09:41:51Z</time>
      </trkpt>
      <trkpt lat="48.36644" lon="-4.3352">
        <ele>40.99</ele>
        <time>2019-08-23T09:41:53Z</time>
      </trkpt>
      <trkpt lat="48.3663" lon="-4.3352">
        <ele>39.07</ele>
        <time>2019-08-23T09:42:02Z</time>
      </trkpt>
      <trkpt lat="48.36624" lon="-4.33532">
        <ele>38.59</ele>
        <time>2019-08-23T09:42:09Z</time>
      </trkpt>
      <trkpt lat="48.36622" lon="-4.33542">
        <ele>38.11</ele>
        <time>2019-08-23T09:42:13Z</time>
      </trkpt>
      <trkpt lat="48.36616" lon="-4.33554">
        <ele>36.67</ele>
        <time>2019-08-23T09:42:19Z</time>
      </trkpt>
      <trkpt lat="48.36608" lon="-4.33557">
        <ele>35.23</ele>
        <time>2019-08-23T09:42:24Z</time>
      </trkpt>
      <trkpt lat="48.36604" lon="-4.33559">
        <ele>34.74</ele>
        <time>2019-08-23T09:42:26Z</time>
      </trkpt>
      <trkpt lat="48.36598" lon="-4.33561">
        <ele>33.78</ele>
        <time>2019-08-23T09:42:29Z</time>
      </trkpt>
      <trkpt lat="48.36592" lon="-4.33566">
        <ele>32.82</ele>
        <time>2019-08-23T09:42:32Z</time>
      </trkpt>
      <trkpt lat="48.36561" lon="-4.33576">
        <ele>29.46</ele>
        <time>2019-08-23T09:42:42Z</time>
      </trkpt>
      <trkpt lat="48.36537" lon="-4.33581">
        <ele>26.57</ele>
        <time>2019-08-23T09:42:50Z</time>
      </trkpt>
      <trkpt lat="48.36524" lon="-4.33576">
        <ele>25.13</ele>
        <time>2019-08-23T09:42:54Z</time>
      </trkpt>
      <trkpt lat="48.36512" lon="-4.33547">
        <ele>24.65</ele>
        <time>2019-08-23T09:43:00Z</time>
      </trkpt>
      <trkpt lat="48.3651" lon="-4.33541">
        <ele>24.65</ele>
        <time>2019-08-23T09:43:01Z</time>
      </trkpt>
      <trkpt lat="48.36509" lon="-4.33535">
        <ele>24.17</ele>
        <time>2019-08-23T09:43:02Z</time>
      </trkpt>
      <trkpt lat="48.36508" lon="-4.33529">
        <ele>24.17</ele>
        <time>2019-08-23T09:43:03Z</time>
      </trkpt>
      <trkpt lat="48.36507" lon="-4.33523">
        <ele>24.17</ele>
        <time>2019-08-23T09:43:04Z</time>
      </trkpt>
      <trkpt lat="48.36506" lon="-4.33517">
        <ele>24.17</ele>
        <time>2019-08-23T09:43:05Z</time>
      </trkpt>
      <trkpt lat="48.36504" lon="-4.33479">
        <ele>23.69</ele>
        <time>2019-08-23T09:43:11Z</time>
      </trkpt>
      <trkpt lat="48.36504" lon="-4.33473">
        <ele>24.17</ele>
        <time>2019-08-23T09:43:12Z</time>
      </trkpt>
      <trkpt lat="48.36503" lon="-4.33468">
        <ele>24.17</ele>
        <time>2019-08-23T09:43:13Z</time>
      </trkpt>
      <trkpt lat="48.36503" lon="-4.33462">
        <ele>24.17</ele>
        <time>2019-08-23T09:43:14Z</time>
      </trkpt>
      <trkpt lat="48.36503" lon="-4.33457">
        <ele>23.69</ele>
        <time>2019-08-23T09:43:15Z</time>
      </trkpt>
      <trkpt lat="48.36503" lon="-4.33451">
        <ele>23.69</ele>
        <time>2019-08-23T09:43:16Z</time>
      </trkpt>
      <trkpt lat="48.36503" lon="-4.33444">
        <ele>23.69</ele>
        <time>2019-08-23T09:43:17Z</time>
      </trkpt>
      <trkpt lat="48.36504" lon="-4.33437">
        <ele>23.69</ele>
        <time>2019-08-23T09:43:18Z</time>
      </trkpt>
      <trkpt lat="48.36505" lon="-4.33429">
        <ele>23.69</ele>
        <time>2019-08-23T09:43:19Z</time>
      </trkpt>
      <trkpt lat="48.36506" lon="-4.33422">
        <ele>23.21</ele>
        <time>2019-08-23T09:43:20Z</time>
      </trkpt>
      <trkpt lat="48.36507" lon="-4.33416">
        <ele>23.21</ele>
        <time>2019-08-23T09:43:21Z</time>
      </trkpt>
      <trkpt lat="48.36508" lon="-4.33409">
        <ele>23.21</ele>
        <time>2019-08-23T09:43:22Z</time>
      </trkpt>
      <trkpt lat="48.36511" lon="-4.33398">
        <ele>22.73</ele>
        <time>2019-08-23T09:43:24Z</time>
      </trkpt>
      <trkpt lat="48.36513" lon="-4.33391">
        <ele>23.21</ele>
        <time>2019-08-23T09:43:25Z</time>
      </trkpt>
      <trkpt lat="48.36514" lon="-4.33385">
        <ele>22.73</ele>
        <time>2019-08-23T09:43:26Z</time>
      </trkpt>
      <trkpt lat="48.36538" lon="-4.33341">
        <ele>21.29</ele>
        <time>2019-08-23T09:43:36Z</time>
      </trkpt>
      <trkpt lat="48.36542" lon="-4.33335">
        <ele>20.81</ele>
        <time>2019-08-23T09:43:37Z</time>
      </trkpt>
      <trkpt lat="48.36545" lon="-4.33331">
        <ele>20.81</ele>
        <time>2019-08-23T09:43:38Z</time>
      </trkpt>
      <trkpt lat="48.36549" lon="-4.33326">
        <ele>20.32</ele>
        <time>2019-08-23T09:43:39Z</time>
      </trkpt>
      <trkpt lat="48.36554" lon="-4.33319">
        <ele>19.84</ele>
        <time>2019-08-23T09:43:40Z</time>
      </trkpt>
      <trkpt lat="48.36558" lon="-4.33314">
        <ele>19.36</ele>
        <time>2019-08-23T09:43:41Z</time>
      </trkpt>
      <trkpt lat="48.36561" lon="-4.33307">
        <ele>18.88</ele>
        <time>2019-08-23T09:43:42Z</time>
      </trkpt>
      <trkpt lat="48.36565" lon="-4.33302">
        <ele>17.92</ele>
        <time>2019-08-23T09:43:43Z</time>
      </trkpt>
      <trkpt lat="48.36568" lon="-4.33296">
        <ele>17.44</ele>
        <time>2019-08-23T09:43:44Z</time>
      </trkpt>
      <trkpt lat="48.36572" lon="-4.33289">
        <ele>16.96</ele>
        <time>2019-08-23T09:43:45Z</time>
      </trkpt>
      <trkpt lat="48.36575" lon="-4.33284">
        <ele>16</ele>
        <time>2019-08-23T09:43:46Z</time>
      </trkpt>
      <trkpt lat="48.36579" lon="-4.33279">
        <ele>15.52</ele>
        <time>2019-08-23T09:43:47Z</time>
      </trkpt>
      <trkpt lat="48.36582" lon="-4.33275">
        <ele>15.52</ele>
        <time>2019-08-23T09:43:48Z</time>
      </trkpt>
      <trkpt lat="48.36613" lon="-4.33254">
        <ele>12.63</ele>
        <time>2019-08-23T09:43:56Z</time>
      </trkpt>
      <trkpt lat="48.36649" lon="-4.33242">
        <ele>11.19</ele>
        <time>2019-08-23T09:44:03Z</time>
      </trkpt>
      <trkpt lat="48.36712" lon="-4.33239">
        <ele>9.75</ele>
        <time>2019-08-23T09:44:15Z</time>
      </trkpt>
      <trkpt lat="48.36735" lon="-4.3325">
        <ele>10.71</ele>
        <time>2019-08-23T09:44:20Z</time>
      </trkpt>
      <trkpt lat="48.3674" lon="-4.33254">
        <ele>11.19</ele>
        <time>2019-08-23T09:44:21Z</time>
      </trkpt>
      <trkpt lat="48.36742" lon="-4.33258">
        <ele>11.67</ele>
        <time>2019-08-23T09:44:22Z</time>
      </trkpt>
      <trkpt lat="48.36747" lon="-4.33273">
        <ele>13.12</ele>
        <time>2019-08-23T09:44:26Z</time>
      </trkpt>
      <trkpt lat="48.3675" lon="-4.33274">
        <ele>13.6</ele>
        <time>2019-08-23T09:44:27Z</time>
      </trkpt>
      <trkpt lat="48.36752" lon="-4.33274">
        <ele>14.08</ele>
        <time>2019-08-23T09:44:28Z</time>
      </trkpt>
      <trkpt lat="48.36754" lon="-4.33273">
        <ele>14.56</ele>
        <time>2019-08-23T09:44:29Z</time>
      </trkpt>
      <trkpt lat="48.36756" lon="-4.33272">
        <ele>14.56</ele>
        <time>2019-08-23T09:44:30Z</time>
      </trkpt>
      <trkpt lat="48.3676" lon="-4.3327">
        <ele>15.04</ele>
        <time>2019-08-23T09:44:32Z</time>
      </trkpt>
      <trkpt lat="48.36761" lon="-4.33266">
        <ele>15.04</ele>
        <time>2019-08-23T09:44:33Z</time>
      </trkpt>
      <trkpt lat="48.36776" lon="-4.33206">
        <ele>14.56</ele>
        <time>2019-08-23T09:44:45Z</time>
      </trkpt>
      <trkpt lat="48.36789" lon="-4.3315">
        <ele>16</ele>
        <time>2019-08-23T09:44:57Z</time>
      </trkpt>
      <trkpt lat="48.36791" lon="-4.33113">
        <ele>18.88</ele>
        <time>2019-08-23T09:45:08Z</time>
      </trkpt>
      <trkpt lat="48.36794" lon="-4.33077">
        <ele>22.25</ele>
        <time>2019-08-23T09:45:20Z</time>
      </trkpt>
      <trkpt lat="48.368" lon="-4.33045">
        <ele>25.61</ele>
        <time>2019-08-23T09:45:32Z</time>
      </trkpt>
      <trkpt lat="48.36802" lon="-4.33034">
        <ele>26.57</ele>
        <time>2019-08-23T09:45:38Z</time>
      </trkpt>
      <trkpt lat="48.36801" lon="-4.33032">
        <ele>26.57</ele>
        <time>2019-08-23T09:45:39Z</time>
      </trkpt>
      <trkpt lat="48.36778" lon="-4.33011">
        <ele>27.53</ele>
        <time>2019-08-23T09:45:51Z</time>
      </trkpt>
      <trkpt lat="48.36768" lon="-4.33004">
        <ele>27.53</ele>
        <time>2019-08-23T09:45:56Z</time>
      </trkpt>
      <trkpt lat="48.36765" lon="-4.33003">
        <ele>27.53</ele>
        <time>2019-08-23T09:45:57Z</time>
      </trkpt>
      <trkpt lat="48.36763" lon="-4.33001">
        <ele>27.53</ele>
        <time>2019-08-23T09:45:58Z</time>
      </trkpt>
      <trkpt lat="48.3676" lon="-4.32999">
        <ele>27.53</ele>
        <time>2019-08-23T09:45:59Z</time>
      </trkpt>
      <trkpt lat="48.36756" lon="-4.32997">
        <ele>27.05</ele>
        <time>2019-08-23T09:46:00Z</time>
      </trkpt>
      <trkpt lat="48.36752" lon="-4.32995">
        <ele>26.57</ele>
        <time>2019-08-23T09:46:01Z</time>
      </trkpt>
      <trkpt lat="48.36749" lon="-4.32993">
        <ele>26.09</ele>
        <time>2019-08-23T09:46:02Z</time>
      </trkpt>
      <trkpt lat="48.36746" lon="-4.32991">
        <ele>25.61</ele>
        <time>2019-08-23T09:46:03Z</time>
      </trkpt>
      <trkpt lat="48.36743" lon="-4.32989">
        <ele>24.65</ele>
        <time>2019-08-23T09:46:04Z</time>
      </trkpt>
      <trkpt lat="48.36729" lon="-4.32981">
        <ele>22.73</ele>
        <time>2019-08-23T09:46:08Z</time>
      </trkpt>
      <trkpt lat="48.36725" lon="-4.32977">
        <ele>22.25</ele>
        <time>2019-08-23T09:46:09Z</time>
      </trkpt>
      <trkpt lat="48.36723" lon="-4.32972">
        <ele>22.25</ele>
        <time>2019-08-23T09:46:10Z</time>
      </trkpt>
      <trkpt lat="48.36722" lon="-4.32967">
        <ele>22.25</ele>
        <time>2019-08-23T09:46:11Z</time>
      </trkpt>
      <trkpt lat="48.36722" lon="-4.32963">
        <ele>22.25</ele>
        <time>2019-08-23T09:46:12Z</time>
      </trkpt>
      <trkpt lat="48.36722" lon="-4.32959">
        <ele>22.25</ele>
        <time>2019-08-23T09:46:13Z</time>
      </trkpt>
      <trkpt lat="48.36723" lon="-4.32955">
        <ele>22.25</ele>
        <time>2019-08-23T09:46:14Z</time>
      </trkpt>
      <trkpt lat="48.36729" lon="-4.32898">
        <ele>25.13</ele>
        <time>2019-08-23T09:46:26Z</time>
      </trkpt>
      <trkpt lat="48.36734" lon="-4.32845">
        <ele>26.09</ele>
        <time>2019-08-23T09:46:36Z</time>
      </trkpt>
      <trkpt lat="48.36735" lon="-4.32802">
        <ele>25.61</ele>
        <time>2019-08-23T09:46:43Z</time>
      </trkpt>
      <trkpt lat="48.36735" lon="-4.32796">
        <ele>25.13</ele>
        <time>2019-08-23T09:46:44Z</time>
      </trkpt>
      <trkpt lat="48.36736" lon="-4.32782">
        <ele>24.65</ele>
        <time>2019-08-23T09:46:46Z</time>
      </trkpt>
      <trkpt lat="48.36739" lon="-4.32768">
        <ele>24.65</ele>
        <time>2019-08-23T09:46:48Z</time>
      </trkpt>
      <trkpt lat="48.3674" lon="-4.32762">
        <ele>24.65</ele>
        <time>2019-08-23T09:46:49Z</time>
      </trkpt>
      <trkpt lat="48.36741" lon="-4.32756">
        <ele>24.65</ele>
        <time>2019-08-23T09:46:50Z</time>
      </trkpt>
      <trkpt lat="48.36741" lon="-4.3275">
        <ele>24.65</ele>
        <time>2019-08-23T09:46:51Z</time>
      </trkpt>
      <trkpt lat="48.3674" lon="-4.32745">
        <ele>25.13</ele>
        <time>2019-08-23T09:46:52Z</time>
      </trkpt>
      <trkpt lat="48.3674" lon="-4.32739">
        <ele>25.13</ele>
        <time>2019-08-23T09:46:53Z</time>
      </trkpt>
      <trkpt lat="48.3674" lon="-4.32733">
        <ele>25.13</ele>
        <time>2019-08-23T09:46:54Z</time>
      </trkpt>
      <trkpt lat="48.36726" lon="-4.32702">
        <ele>28.02</ele>
        <time>2019-08-23T09:47:03Z</time>
      </trkpt>
      <trkpt lat="48.36695" lon="-4.3266">
        <ele>28.5</ele>
        <time>2019-08-23T09:47:15Z</time>
      </trkpt>
      <trkpt lat="48.36676" lon="-4.32634">
        <ele>29.46</ele>
        <time>2019-08-23T09:47:23Z</time>
      </trkpt>
      <trkpt lat="48.36654" lon="-4.3259">
        <ele>29.46</ele>
        <time>2019-08-23T09:47:32Z</time>
      </trkpt>
      <trkpt lat="48.36651" lon="-4.32587">
        <ele>29.46</ele>
        <time>2019-08-23T09:47:33Z</time>
      </trkpt>
      <trkpt lat="48.36647" lon="-4.32585">
        <ele>28.98</ele>
        <time>2019-08-23T09:47:34Z</time>
      </trkpt>
      <trkpt lat="48.36606" lon="-4.32565">
        <ele>28.98</ele>
        <time>2019-08-23T09:47:44Z</time>
      </trkpt>
      <trkpt lat="48.36603" lon="-4.32562">
        <ele>28.98</ele>
        <time>2019-08-23T09:47:45Z</time>
      </trkpt>
      <trkpt lat="48.366" lon="-4.32558">
        <ele>28.98</ele>
        <time>2019-08-23T09:47:46Z</time>
      </trkpt>
      <trkpt lat="48.36599" lon="-4.32553">
        <ele>29.46</ele>
        <time>2019-08-23T09:47:47Z</time>
      </trkpt>
      <trkpt lat="48.36597" lon="-4.32548">
        <ele>29.46</ele>
        <time>2019-08-23T09:47:48Z</time>
      </trkpt>
      <trkpt lat="48.36573" lon="-4.32479">
        <ele>31.38</ele>
        <time>2019-08-23T09:48:02Z</time>
      </trkpt>
      <trkpt lat="48.36564" lon="-4.32464">
        <ele>31.38</ele>
        <time>2019-08-23T09:48:08Z</time>
      </trkpt>
      <trkpt lat="48.36561" lon="-4.32464">
        <ele>31.38</ele>
        <time>2019-08-23T09:48:09Z</time>
      </trkpt>
      <trkpt lat="48.36559" lon="-4.32465">
        <ele>31.38</ele>
        <time>2019-08-23T09:48:10Z</time>
      </trkpt>
      <trkpt lat="48.36556" lon="-4.32465">
        <ele>31.38</ele>
        <time>2019-08-23T09:48:11Z</time>
      </trkpt>
      <trkpt lat="48.36554" lon="-4.32465">
        <ele>31.38</ele>
        <time>2019-08-23T09:48:12Z</time>
      </trkpt>
      <trkpt lat="48.36511" lon="-4.32474">
        <ele>31.38</ele>
        <time>2019-08-23T09:48:23Z</time>
      </trkpt>
      <trkpt lat="48.36507" lon="-4.32476">
        <ele>31.38</ele>
        <time>2019-08-23T09:48:24Z</time>
      </trkpt>
      <trkpt lat="48.36438" lon="-4.32508">
        <ele>33.78</ele>
        <time>2019-08-23T09:48:41Z</time>
      </trkpt>
      <trkpt lat="48.36404" lon="-4.32536">
        <ele>37.15</ele>
        <time>2019-08-23T09:48:53Z</time>
      </trkpt>
      <trkpt lat="48.36386" lon="-4.32555">
        <ele>39.07</ele>
        <time>2019-08-23T09:49:01Z</time>
      </trkpt>
      <trkpt lat="48.36383" lon="-4.32555">
        <ele>39.07</ele>
        <time>2019-08-23T09:49:02Z</time>
      </trkpt>
      <trkpt lat="48.3638" lon="-4.32554">
        <ele>39.55</ele>
        <time>2019-08-23T09:49:03Z</time>
      </trkpt>
      <trkpt lat="48.36378" lon="-4.32553">
        <ele>39.55</ele>
        <time>2019-08-23T09:49:04Z</time>
      </trkpt>
      <trkpt lat="48.36375" lon="-4.32551">
        <ele>39.55</ele>
        <time>2019-08-23T09:49:05Z</time>
      </trkpt>
      <trkpt lat="48.36373" lon="-4.32551">
        <ele>40.03</ele>
        <time>2019-08-23T09:49:06Z</time>
      </trkpt>
      <trkpt lat="48.3637" lon="-4.32551">
        <ele>40.03</ele>
        <time>2019-08-23T09:49:07Z</time>
      </trkpt>
      <trkpt lat="48.36368" lon="-4.32551">
        <ele>40.03</ele>
        <time>2019-08-23T09:49:08Z</time>
      </trkpt>
      <trkpt lat="48.36365" lon="-4.32551">
        <ele>40.03</ele>
        <time>2019-08-23T09:49:09Z</time>
      </trkpt>
      <trkpt lat="48.36329" lon="-4.32549">
        <ele>40.51</ele>
        <time>2019-08-23T09:49:20Z</time>
      </trkpt>
      <trkpt lat="48.36297" lon="-4.32529">
        <ele>40.99</ele>
        <time>2019-08-23T09:49:30Z</time>
      </trkpt>
      <trkpt lat="48.3629" lon="-4.32523">
        <ele>40.99</ele>
        <time>2019-08-23T09:49:32Z</time>
      </trkpt>
      <trkpt lat="48.36286" lon="-4.3252">
        <ele>40.99</ele>
        <time>2019-08-23T09:49:33Z</time>
      </trkpt>
      <trkpt lat="48.36271" lon="-4.32509">
        <ele>40.51</ele>
        <time>2019-08-23T09:49:37Z</time>
      </trkpt>
      <trkpt lat="48.36267" lon="-4.32506">
        <ele>40.03</ele>
        <time>2019-08-23T09:49:38Z</time>
      </trkpt>
      <trkpt lat="48.36263" lon="-4.32505">
        <ele>40.03</ele>
        <time>2019-08-23T09:49:39Z</time>
      </trkpt>
      <trkpt lat="48.36258" lon="-4.32504">
        <ele>40.03</ele>
        <time>2019-08-23T09:49:40Z</time>
      </trkpt>
      <trkpt lat="48.36254" lon="-4.32503">
        <ele>40.51</ele>
        <time>2019-08-23T09:49:41Z</time>
      </trkpt>
      <trkpt lat="48.36209" lon="-4.32491">
        <ele>37.15</ele>
        <time>2019-08-23T09:49:51Z</time>
      </trkpt>
      <trkpt lat="48.3617" lon="-4.32482">
        <ele>33.3</ele>
        <time>2019-08-23T09:49:58Z</time>
      </trkpt>
      <trkpt lat="48.36164" lon="-4.32482">
        <ele>32.34</ele>
        <time>2019-08-23T09:49:59Z</time>
      </trkpt>
      <trkpt lat="48.36159" lon="-4.32484">
        <ele>31.38</ele>
        <time>2019-08-23T09:50:00Z</time>
      </trkpt>
      <trkpt lat="48.36133" lon="-4.32494">
        <ele>27.53</ele>
        <time>2019-08-23T09:50:05Z</time>
      </trkpt>
      <trkpt lat="48.36127" lon="-4.32495">
        <ele>27.53</ele>
        <time>2019-08-23T09:50:06Z</time>
      </trkpt>
      <trkpt lat="48.36101" lon="-4.32504">
        <ele>24.65</ele>
        <time>2019-08-23T09:50:10Z</time>
      </trkpt>
      <trkpt lat="48.36065" lon="-4.32513">
        <ele>22.25</ele>
        <time>2019-08-23T09:50:15Z</time>
      </trkpt>
      <trkpt lat="48.3602" lon="-4.32514">
        <ele>19.84</ele>
        <time>2019-08-23T09:50:24Z</time>
      </trkpt>
      <trkpt lat="48.36017" lon="-4.32513">
        <ele>19.84</ele>
        <time>2019-08-23T09:50:25Z</time>
      </trkpt>
      <trkpt lat="48.36014" lon="-4.32513">
        <ele>19.36</ele>
        <time>2019-08-23T09:50:26Z</time>
      </trkpt>
      <trkpt lat="48.36012" lon="-4.32513">
        <ele>19.36</ele>
        <time>2019-08-23T09:50:27Z</time>
      </trkpt>
      <trkpt lat="48.36009" lon="-4.32513">
        <ele>19.84</ele>
        <time>2019-08-23T09:50:28Z</time>
      </trkpt>
      <trkpt lat="48.36007" lon="-4.32513">
        <ele>19.84</ele>
        <time>2019-08-23T09:50:29Z</time>
      </trkpt>
      <trkpt lat="48.36003" lon="-4.32511">
        <ele>19.36</ele>
        <time>2019-08-23T09:50:45Z</time>
      </trkpt>
      <trkpt lat="48.36002" lon="-4.3251">
        <ele>19.36</ele>
        <time>2019-08-23T09:51:04Z</time>
      </trkpt>
      <trkpt lat="48.36001" lon="-4.32508">
        <ele>19.36</ele>
        <time>2019-08-23T09:51:07Z</time>
      </trkpt>
      <trkpt lat="48.36002" lon="-4.32506">
        <ele>19.36</ele>
        <time>2019-08-23T09:51:08Z</time>
      </trkpt>
      <trkpt lat="48.36003" lon="-4.32504">
        <ele>19.36</ele>
        <time>2019-08-23T09:51:09Z</time>
      </trkpt>
      <trkpt lat="48.36004" lon="-4.32502">
        <ele>19.36</ele>
        <time>2019-08-23T09:51:10Z</time>
      </trkpt>
      <trkpt lat="48.36004" lon="-4.325">
        <ele>19.36</ele>
        <time>2019-08-23T09:51:11Z</time>
      </trkpt>
      <trkpt lat="48.36005" lon="-4.32497">
        <ele>19.36</ele>
        <time>2019-08-23T09:51:12Z</time>
      </trkpt>
      <trkpt lat="48.36005" lon="-4.32495">
        <ele>19.36</ele>
        <time>2019-08-23T09:51:13Z</time>
      </trkpt>
      <trkpt lat="48.36006" lon="-4.32491">
        <ele>18.88</ele>
        <time>2019-08-23T09:51:14Z</time>
      </trkpt>
      <trkpt lat="48.36006" lon="-4.32487">
        <ele>18.88</ele>
        <time>2019-08-23T09:51:15Z</time>
      </trkpt>
      <trkpt lat="48.36006" lon="-4.32483">
        <ele>18.4</ele>
        <time>2019-08-23T09:51:16Z</time>
      </trkpt>
      <trkpt lat="48.36009" lon="-4.32432">
        <ele>15.04</ele>
        <time>2019-08-23T09:51:24Z</time>
      </trkpt>
      <trkpt lat="48.36015" lon="-4.32392">
        <ele>11.67</ele>
        <time>2019-08-23T09:51:28Z</time>
      </trkpt>
      <trkpt lat="48.36018" lon="-4.32382">
        <ele>11.19</ele>
        <time>2019-08-23T09:51:29Z</time>
      </trkpt>
      <trkpt lat="48.36022" lon="-4.32374">
        <ele>10.71</ele>
        <time>2019-08-23T09:51:30Z</time>
      </trkpt>
      <trkpt lat="48.36027" lon="-4.32369">
        <ele>10.23</ele>
        <time>2019-08-23T09:51:31Z</time>
      </trkpt>
      <trkpt lat="48.36031" lon="-4.32365">
        <ele>9.75</ele>
        <time>2019-08-23T09:51:32Z</time>
      </trkpt>
      <trkpt lat="48.36036" lon="-4.32363">
        <ele>9.75</ele>
        <time>2019-08-23T09:51:33Z</time>
      </trkpt>
      <trkpt lat="48.36049" lon="-4.32358">
        <ele>10.71</ele>
        <time>2019-08-23T09:51:40Z</time>
      </trkpt>
      <trkpt lat="48.36048" lon="-4.3236">
        <ele>10.71</ele>
        <time>2019-08-23T09:51:41Z</time>
      </trkpt>
      <trkpt lat="48.36046" lon="-4.3236">
        <ele>10.71</ele>
        <time>2019-08-23T09:51:42Z</time>
      </trkpt>
      <trkpt lat="48.36038" lon="-4.32363">
        <ele>10.71</ele>
        <time>2019-08-23T09:51:45Z</time>
      </trkpt>
      <trkpt lat="48.36037" lon="-4.32362">
        <ele>10.23</ele>
        <time>2019-08-23T09:51:46Z</time>
      </trkpt>
      <trkpt lat="48.36037" lon="-4.3236">
        <ele>10.23</ele>
        <time>2019-08-23T09:51:47Z</time>
      </trkpt>
      <trkpt lat="48.36037" lon="-4.32356">
        <ele>9.75</ele>
        <time>2019-08-23T09:51:48Z</time>
      </trkpt>
      <trkpt lat="48.36037" lon="-4.32351">
        <ele>9.27</ele>
        <time>2019-08-23T09:51:49Z</time>
      </trkpt>
      <trkpt lat="48.36037" lon="-4.32345">
        <ele>9.27</ele>
        <time>2019-08-23T09:51:50Z</time>
      </trkpt>
      <trkpt lat="48.36037" lon="-4.3234">
        <ele>8.79</ele>
        <time>2019-08-23T09:51:51Z</time>
      </trkpt>
      <trkpt lat="48.36038" lon="-4.32334">
        <ele>8.31</ele>
        <time>2019-08-23T09:51:52Z</time>
      </trkpt>
      <trkpt lat="48.3604" lon="-4.32327">
        <ele>8.31</ele>
        <time>2019-08-23T09:51:53Z</time>
      </trkpt>
      <trkpt lat="48.36041" lon="-4.32321">
        <ele>7.83</ele>
        <time>2019-08-23T09:51:54Z</time>
      </trkpt>
      <trkpt lat="48.36043" lon="-4.32314">
        <ele>7.83</ele>
        <time>2019-08-23T09:51:55Z</time>
      </trkpt>
      <trkpt lat="48.36045" lon="-4.32307">
        <ele>8.31</ele>
        <time>2019-08-23T09:51:56Z</time>
      </trkpt>
      <trkpt lat="48.36046" lon="-4.32301">
        <ele>6.87</ele>
        <time>2019-08-23T09:51:57Z</time>
      </trkpt>
      <trkpt lat="48.36058" lon="-4.3222">
        <ele>4.94</ele>
        <time>2019-08-23T09:52:08Z</time>
      </trkpt>
      <trkpt lat="48.3606" lon="-4.32213">
        <ele>4.46</ele>
        <time>2019-08-23T09:52:09Z</time>
      </trkpt>
      <trkpt lat="48.36062" lon="-4.32207">
        <ele>4.46</ele>
        <time>2019-08-23T09:52:10Z</time>
      </trkpt>
      <trkpt lat="48.36064" lon="-4.322">
        <ele>4.46</ele>
        <time>2019-08-23T09:52:11Z</time>
      </trkpt>
      <trkpt lat="48.36065" lon="-4.32193">
        <ele>4.46</ele>
        <time>2019-08-23T09:52:12Z</time>
      </trkpt>
      <trkpt lat="48.36067" lon="-4.32185">
        <ele>3.98</ele>
        <time>2019-08-23T09:52:13Z</time>
      </trkpt>
      <trkpt lat="48.3607" lon="-4.32179">
        <ele>3.98</ele>
        <time>2019-08-23T09:52:14Z</time>
      </trkpt>
      <trkpt lat="48.36072" lon="-4.32173">
        <ele>3.5</ele>
        <time>2019-08-23T09:52:15Z</time>
      </trkpt>
      <trkpt lat="48.36074" lon="-4.32166">
        <ele>3.02</ele>
        <time>2019-08-23T09:52:16Z</time>
      </trkpt>
      <trkpt lat="48.36076" lon="-4.32158">
        <ele>3.5</ele>
        <time>2019-08-23T09:52:17Z</time>
      </trkpt>
      <trkpt lat="48.36079" lon="-4.32151">
        <ele>3.02</ele>
        <time>2019-08-23T09:52:18Z</time>
      </trkpt>
      <trkpt lat="48.36081" lon="-4.32145">
        <ele>3.02</ele>
        <time>2019-08-23T09:52:19Z</time>
      </trkpt>
      <trkpt lat="48.36084" lon="-4.32138">
        <ele>3.02</ele>
        <time>2019-08-23T09:52:20Z</time>
      </trkpt>
      <trkpt lat="48.36086" lon="-4.32131">
        <ele>3.02</ele>
        <time>2019-08-23T09:52:21Z</time>
      </trkpt>
      <trkpt lat="48.36107" lon="-4.32085">
        <ele>1.58</ele>
        <time>2019-08-23T09:52:30Z</time>
      </trkpt>
      <trkpt lat="48.36112" lon="-4.32081">
        <ele>2.06</ele>
        <time>2019-08-23T09:52:32Z</time>
      </trkpt>
      <trkpt lat="48.36114" lon="-4.32077">
        <ele>1.58</ele>
        <time>2019-08-23T09:52:33Z</time>
      </trkpt>
      <trkpt lat="48.36115" lon="-4.32073">
        <ele>1.58</ele>
        <time>2019-08-23T09:52:34Z</time>
      </trkpt>
      <trkpt lat="48.36116" lon="-4.32069">
        <ele>1.1</ele>
        <time>2019-08-23T09:52:35Z</time>
      </trkpt>
      <trkpt lat="48.36118" lon="-4.32065">
        <ele>1.1</ele>
        <time>2019-08-23T09:52:36Z</time>
      </trkpt>
      <trkpt lat="48.36121" lon="-4.32062">
        <ele>0.62</ele>
        <time>2019-08-23T09:52:37Z</time>
      </trkpt>
      <trkpt lat="48.36123" lon="-4.32058">
        <ele>0.62</ele>
        <time>2019-08-23T09:52:38Z</time>
      </trkpt>
      <trkpt lat="48.36125" lon="-4.32053">
        <ele>0.62</ele>
        <time>2019-08-23T09:52:39Z</time>
      </trkpt>
      <trkpt lat="48.36127" lon="-4.3205">
        <ele>1.1</ele>
        <time>2019-08-23T09:52:40Z</time>
      </trkpt>
      <trkpt lat="48.36131" lon="-4.32044">
        <ele>1.58</ele>
        <time>2019-08-23T09:52:42Z</time>
      </trkpt>
      <trkpt lat="48.36132" lon="-4.3204">
        <ele>1.1</ele>
        <time>2019-08-23T09:52:43Z</time>
      </trkpt>
      <trkpt lat="48.36134" lon="-4.32034">
        <ele>0.14</ele>
        <time>2019-08-23T09:52:44Z</time>
      </trkpt>
      <trkpt lat="48.36138" lon="-4.32028">
        <ele>0.14</ele>
        <time>2019-08-23T09:52:45Z</time>
      </trkpt>
      <trkpt lat="48.36142" lon="-4.32024">
        <ele>-0.34</ele>
        <time>2019-08-23T09:52:46Z</time>
      </trkpt>
      <trkpt lat="48.36144" lon="-4.3202">
        <ele>0.14</ele>
        <time>2019-08-23T09:52:47Z</time>
      </trkpt>
      <trkpt lat="48.36147" lon="-4.32017">
        <ele>-0.34</ele>
        <time>2019-08-23T09:52:48Z</time>
      </trkpt>
      <trkpt lat="48.36149" lon="-4.32015">
        <ele>0.14</ele>
        <time>2019-08-23T09:52:49Z</time>
      </trkpt>
      <trkpt lat="48.36151" lon="-4.32011">
        <ele>-0.34</ele>
        <time>2019-08-23T09:52:50Z</time>
      </trkpt>
      <trkpt lat="48.36153" lon="-4.32006">
        <ele>0.14</ele>
        <time>2019-08-23T09:52:51Z</time>
      </trkpt>
      <trkpt lat="48.36155" lon="-4.32001">
        <ele>0.14</ele>
        <time>2019-08-23T09:52:52Z</time>
      </trkpt>
      <trkpt lat="48.36156" lon="-4.31997">
        <ele>0.14</ele>
        <time>2019-08-23T09:52:53Z</time>
      </trkpt>
      <trkpt lat="48.36158" lon="-4.31992">
        <ele>0.14</ele>
        <time>2019-08-23T09:52:54Z</time>
      </trkpt>
      <trkpt lat="48.3616" lon="-4.31988">
        <ele>0.14</ele>
        <time>2019-08-23T09:52:55Z</time>
      </trkpt>
      <trkpt lat="48.36162" lon="-4.31985">
        <ele>-0.34</ele>
        <time>2019-08-23T09:52:56Z</time>
      </trkpt>
      <trkpt lat="48.36164" lon="-4.31981">
        <ele>-0.34</ele>
        <time>2019-08-23T09:52:57Z</time>
      </trkpt>
      <trkpt lat="48.36171" lon="-4.31967">
        <ele>-0.34</ele>
        <time>2019-08-23T09:53:01Z</time>
      </trkpt>
      <trkpt lat="48.36172" lon="-4.31964">
        <ele>-0.34</ele>
        <time>2019-08-23T09:53:02Z</time>
      </trkpt>
      <trkpt lat="48.36173" lon="-4.31961">
        <ele>-0.34</ele>
        <time>2019-08-23T09:53:03Z</time>
      </trkpt>
      <trkpt lat="48.36174" lon="-4.31959">
        <ele>0.14</ele>
        <time>2019-08-23T09:53:04Z</time>
      </trkpt>
      <trkpt lat="48.36175" lon="-4.31957">
        <ele>-0.34</ele>
        <time>2019-08-23T09:53:05Z</time>
      </trkpt>
      <trkpt lat="48.3618" lon="-4.31946">
        <ele>0.14</ele>
        <time>2019-08-23T09:53:09Z</time>
      </trkpt>
      <trkpt lat="48.36181" lon="-4.31944">
        <ele>0.62</ele>
        <time>2019-08-23T09:53:10Z</time>
      </trkpt>
      <trkpt lat="48.36183" lon="-4.31944">
        <ele>0.62</ele>
        <time>2019-08-23T09:53:11Z</time>
      </trkpt>
      <trkpt lat="48.36187" lon="-4.3194">
        <ele>1.1</ele>
        <time>2019-08-23T09:53:27Z</time>
      </trkpt>
      <trkpt lat="48.36187" lon="-4.31938">
        <ele>1.1</ele>
        <time>2019-08-23T09:53:28Z</time>
      </trkpt>
      <trkpt lat="48.36188" lon="-4.31937">
        <ele>1.1</ele>
        <time>2019-08-23T09:53:29Z</time>
      </trkpt>
      <trkpt lat="48.36189" lon="-4.31936">
        <ele>1.1</ele>
        <time>2019-08-23T09:53:30Z</time>
      </trkpt>
      <trkpt lat="48.3619" lon="-4.31935">
        <ele>1.1</ele>
        <time>2019-08-23T09:53:31Z</time>
      </trkpt>
      <trkpt lat="48.36191" lon="-4.31933">
        <ele>1.58</ele>
        <time>2019-08-23T09:53:32Z</time>
      </trkpt>
      <trkpt lat="48.36193" lon="-4.31932">
        <ele>1.58</ele>
        <time>2019-08-23T09:53:33Z</time>
      </trkpt>
      <trkpt lat="48.36194" lon="-4.31929">
        <ele>1.58</ele>
        <time>2019-08-23T09:53:34Z</time>
      </trkpt>
      <trkpt lat="48.36196" lon="-4.31926">
        <ele>1.58</ele>
        <time>2019-08-23T09:53:35Z</time>
      </trkpt>
      <trkpt lat="48.36219" lon="-4.31883">
        <ele>1.1</ele>
        <time>2019-08-23T09:53:45Z</time>
      </trkpt>
      <trkpt lat="48.36225" lon="-4.31872">
        <ele>2.06</ele>
        <time>2019-08-23T09:53:54Z</time>
      </trkpt>
      <trkpt lat="48.36232" lon="-4.31845">
        <ele>2.06</ele>
        <time>2019-08-23T09:54:03Z</time>
      </trkpt>
      <trkpt lat="48.3624" lon="-4.31805">
        <ele>2.54</ele>
        <time>2019-08-23T09:54:11Z</time>
      </trkpt>
      <trkpt lat="48.36245" lon="-4.3179">
        <ele>2.54</ele>
        <time>2019-08-23T09:54:15Z</time>
      </trkpt>
      <trkpt lat="48.36244" lon="-4.31777">
        <ele>2.06</ele>
        <time>2019-08-23T09:54:18Z</time>
      </trkpt>
      <trkpt lat="48.36243" lon="-4.31774">
        <ele>2.06</ele>
        <time>2019-08-23T09:54:19Z</time>
      </trkpt>
      <trkpt lat="48.36241" lon="-4.31772">
        <ele>2.06</ele>
        <time>2019-08-23T09:54:20Z</time>
      </trkpt>
      <trkpt lat="48.36207" lon="-4.31724">
        <ele>2.06</ele>
        <time>2019-08-23T09:54:33Z</time>
      </trkpt>
      <trkpt lat="48.36172" lon="-4.31681">
        <ele>3.5</ele>
        <time>2019-08-23T09:54:45Z</time>
      </trkpt>
      <trkpt lat="48.36158" lon="-4.31678">
        <ele>3.98</ele>
        <time>2019-08-23T09:54:49Z</time>
      </trkpt>
      <trkpt lat="48.36155" lon="-4.3168">
        <ele>3.98</ele>
        <time>2019-08-23T09:54:50Z</time>
      </trkpt>
      <trkpt lat="48.36152" lon="-4.31683">
        <ele>3.98</ele>
        <time>2019-08-23T09:54:51Z</time>
      </trkpt>
      <trkpt lat="48.36146" lon="-4.31697">
        <ele>3.98</ele>
        <time>2019-08-23T09:54:54Z</time>
      </trkpt>
      <trkpt lat="48.3614" lon="-4.31707">
        <ele>3.5</ele>
        <time>2019-08-23T09:54:56Z</time>
      </trkpt>
      <trkpt lat="48.36137" lon="-4.31711">
        <ele>3.5</ele>
        <time>2019-08-23T09:54:57Z</time>
      </trkpt>
      <trkpt lat="48.36133" lon="-4.31715">
        <ele>3.02</ele>
        <time>2019-08-23T09:54:58Z</time>
      </trkpt>
      <trkpt lat="48.36119" lon="-4.31721">
        <ele>3.5</ele>
        <time>2019-08-23T09:55:03Z</time>
      </trkpt>
      <trkpt lat="48.36117" lon="-4.31721">
        <ele>3.5</ele>
        <time>2019-08-23T09:55:04Z</time>
      </trkpt>
      <trkpt lat="48.36116" lon="-4.31724">
        <ele>3.5</ele>
        <time>2019-08-23T09:55:05Z</time>
      </trkpt>
      <trkpt lat="48.36116" lon="-4.31727">
        <ele>3.5</ele>
        <time>2019-08-23T09:55:06Z</time>
      </trkpt>
      <trkpt lat="48.36115" lon="-4.31731">
        <ele>3.5</ele>
        <time>2019-08-23T09:55:07Z</time>
      </trkpt>
      <trkpt lat="48.36114" lon="-4.31734">
        <ele>3.02</ele>
        <time>2019-08-23T09:55:08Z</time>
      </trkpt>
      <trkpt lat="48.36112" lon="-4.31738">
        <ele>3.02</ele>
        <time>2019-08-23T09:55:09Z</time>
      </trkpt>
      <trkpt lat="48.36084" lon="-4.31781">
        <ele>2.54</ele>
        <time>2019-08-23T09:55:19Z</time>
      </trkpt>
      <trkpt lat="48.3607" lon="-4.31804">
        <ele>2.54</ele>
        <time>2019-08-23T09:55:24Z</time>
      </trkpt>
      <trkpt lat="48.36067" lon="-4.31809">
        <ele>2.54</ele>
        <time>2019-08-23T09:55:25Z</time>
      </trkpt>
      <trkpt lat="48.36058" lon="-4.31825">
        <ele>2.06</ele>
        <time>2019-08-23T09:55:28Z</time>
      </trkpt>
      <trkpt lat="48.36032" lon="-4.31868">
        <ele>2.06</ele>
        <time>2019-08-23T09:55:36Z</time>
      </trkpt>
      <trkpt lat="48.36007" lon="-4.31914">
        <ele>1.1</ele>
        <time>2019-08-23T09:55:48Z</time>
      </trkpt>
      <trkpt lat="48.36" lon="-4.31921">
        <ele>1.1</ele>
        <time>2019-08-23T09:55:59Z</time>
      </trkpt>
      <trkpt lat="48.36" lon="-4.31919">
        <ele>1.1</ele>
        <time>2019-08-23T09:56:04Z</time>
      </trkpt>
      <trkpt lat="48.36001" lon="-4.31917">
        <ele>1.1</ele>
        <time>2019-08-23T09:56:05Z</time>
      </trkpt>
      <trkpt lat="48.36002" lon="-4.31916">
        <ele>1.1</ele>
        <time>2019-08-23T09:56:06Z</time>
      </trkpt>
      <trkpt lat="48.36003" lon="-4.31916">
        <ele>1.1</ele>
        <time>2019-08-23T09:56:07Z</time>
      </trkpt>
      <trkpt lat="48.36005" lon="-4.31914">
        <ele>1.1</ele>
        <time>2019-08-23T09:56:08Z</time>
      </trkpt>
      <trkpt lat="48.36006" lon="-4.31913">
        <ele>1.1</ele>
        <time>2019-08-23T09:56:09Z</time>
      </trkpt>
      <trkpt lat="48.36008" lon="-4.31911">
        <ele>1.1</ele>
        <time>2019-08-23T09:56:10Z</time>
      </trkpt>
      <trkpt lat="48.36008" lon="-4.31909">
        <ele>1.1</ele>
        <time>2019-08-23T09:56:11Z</time>
      </trkpt>
      <trkpt lat="48.36008" lon="-4.31907">
        <ele>1.1</ele>
        <time>2019-08-23T09:56:12Z</time>
      </trkpt>
      <trkpt lat="48.36007" lon="-4.31905">
        <ele>1.1</ele>
        <time>2019-08-23T09:56:13Z</time>
      </trkpt>
      <trkpt lat="48.36005" lon="-4.31903">
        <ele>1.58</ele>
        <time>2019-08-23T09:56:14Z</time>
      </trkpt>
      <trkpt lat="48.36003" lon="-4.31902">
        <ele>1.58</ele>
        <time>2019-08-23T09:56:15Z</time>
      </trkpt>
      <trkpt lat="48.36001" lon="-4.31901">
        <ele>1.58</ele>
        <time>2019-08-23T09:56:16Z</time>
      </trkpt>
      <trkpt lat="48.35999" lon="-4.31901">
        <ele>1.58</ele>
        <time>2019-08-23T09:56:17Z</time>
      </trkpt>
      <trkpt lat="48.35997" lon="-4.31901">
        <ele>1.58</ele>
        <time>2019-08-23T09:56:18Z</time>
      </trkpt>
      <trkpt lat="48.35996" lon="-4.31901">
        <ele>1.58</ele>
        <time>2019-08-23T09:56:19Z</time>
      </trkpt>
      <trkpt lat="48.35995" lon="-4.31902">
        <ele>1.1</ele>
        <time>2019-08-23T09:56:20Z</time>
      </trkpt>
      <trkpt lat="48.35993" lon="-4.31902">
        <ele>1.1</ele>
        <time>2019-08-23T09:56:21Z</time>
      </trkpt>
      <trkpt lat="48.35977" lon="-4.31908">
        <ele>1.58</ele>
        <time>2019-08-23T09:56:30Z</time>
      </trkpt>
      <trkpt lat="48.3596" lon="-4.31905">
        <ele>2.06</ele>
        <time>2019-08-23T09:56:38Z</time>
      </trkpt>
      <trkpt lat="48.35958" lon="-4.31906">
        <ele>2.06</ele>
        <time>2019-08-23T09:56:39Z</time>
      </trkpt>
      <trkpt lat="48.35956" lon="-4.31908">
        <ele>1.58</ele>
        <time>2019-08-23T09:56:40Z</time>
      </trkpt>
      <trkpt lat="48.35953" lon="-4.31909">
        <ele>1.58</ele>
        <time>2019-08-23T09:56:41Z</time>
      </trkpt>
      <trkpt lat="48.35952" lon="-4.3191">
        <ele>1.58</ele>
        <time>2019-08-23T09:56:42Z</time>
      </trkpt>
      <trkpt lat="48.3595" lon="-4.31911">
        <ele>1.1</ele>
        <time>2019-08-23T09:56:43Z</time>
      </trkpt>
      <trkpt lat="48.3594" lon="-4.31916">
        <ele>1.1</ele>
        <time>2019-08-23T09:56:48Z</time>
      </trkpt>
      <trkpt lat="48.35939" lon="-4.31919">
        <ele>1.58</ele>
        <time>2019-08-23T09:56:49Z</time>
      </trkpt>
      <trkpt lat="48.35937" lon="-4.31922">
        <ele>1.58</ele>
        <time>2019-08-23T09:56:50Z</time>
      </trkpt>
      <trkpt lat="48.35935" lon="-4.31925">
        <ele>1.58</ele>
        <time>2019-08-23T09:56:51Z</time>
      </trkpt>
      <trkpt lat="48.35933" lon="-4.31929">
        <ele>2.06</ele>
        <time>2019-08-23T09:56:52Z</time>
      </trkpt>
      <trkpt lat="48.359" lon="-4.31956">
        <ele>1.58</ele>
        <time>2019-08-23T09:57:02Z</time>
      </trkpt>
      <trkpt lat="48.35852" lon="-4.31962">
        <ele>2.06</ele>
        <time>2019-08-23T09:57:15Z</time>
      </trkpt>
      <trkpt lat="48.3581" lon="-4.31997">
        <ele>2.54</ele>
        <time>2019-08-23T09:57:28Z</time>
      </trkpt>
      <trkpt lat="48.35803" lon="-4.32004">
        <ele>2.54</ele>
        <time>2019-08-23T09:57:31Z</time>
      </trkpt>
      <trkpt lat="48.35802" lon="-4.32006">
        <ele>2.06</ele>
        <time>2019-08-23T09:57:32Z</time>
      </trkpt>
      <trkpt lat="48.35801" lon="-4.32007">
        <ele>2.06</ele>
        <time>2019-08-23T09:57:33Z</time>
      </trkpt>
      <trkpt lat="48.358" lon="-4.32008">
        <ele>2.06</ele>
        <time>2019-08-23T09:57:34Z</time>
      </trkpt>
      <trkpt lat="48.35798" lon="-4.32009">
        <ele>2.54</ele>
        <time>2019-08-23T09:57:35Z</time>
      </trkpt>
      <trkpt lat="48.35792" lon="-4.32012">
        <ele>2.54</ele>
        <time>2019-08-23T09:57:40Z</time>
      </trkpt>
      <trkpt lat="48.35791" lon="-4.32013">
        <ele>2.54</ele>
        <time>2019-08-23T09:57:52Z</time>
      </trkpt>
      <trkpt lat="48.35793" lon="-4.32012">
        <ele>2.54</ele>
        <time>2019-08-23T09:57:54Z</time>
      </trkpt>
      <trkpt lat="48.35797" lon="-4.32009">
        <ele>3.02</ele>
        <time>2019-08-23T09:57:57Z</time>
      </trkpt>
      <trkpt lat="48.35799" lon="-4.32008">
        <ele>2.06</ele>
        <time>2019-08-23T09:57:58Z</time>
      </trkpt>
      <trkpt lat="48.35799" lon="-4.32007">
        <ele>2.06</ele>
        <time>2019-08-23T09:57:59Z</time>
      </trkpt>
      <trkpt lat="48.35799" lon="-4.32005">
        <ele>1.58</ele>
        <time>2019-08-23T09:58:00Z</time>
      </trkpt>
      <trkpt lat="48.35799" lon="-4.32004">
        <ele>2.06</ele>
        <time>2019-08-23T09:58:01Z</time>
      </trkpt>
      <trkpt lat="48.35793" lon="-4.3199">
        <ele>3.02</ele>
        <time>2019-08-23T09:58:08Z</time>
      </trkpt>
      <trkpt lat="48.35793" lon="-4.31988">
        <ele>3.02</ele>
        <time>2019-08-23T09:58:09Z</time>
      </trkpt>
      <trkpt lat="48.35792" lon="-4.31986">
        <ele>3.5</ele>
        <time>2019-08-23T09:58:10Z</time>
      </trkpt>
      <trkpt lat="48.35782" lon="-4.3197">
        <ele>4.94</ele>
        <time>2019-08-23T09:58:19Z</time>
      </trkpt>
      <trkpt lat="48.3577" lon="-4.31947">
        <ele>7.35</ele>
        <time>2019-08-23T09:58:30Z</time>
      </trkpt>
      <trkpt lat="48.35766" lon="-4.31933">
        <ele>8.79</ele>
        <time>2019-08-23T09:58:42Z</time>
      </trkpt>
      <trkpt lat="48.35766" lon="-4.31933">
        <ele>8.79</ele>
        <time>2019-08-23T09:58:45Z</time>
      </trkpt>
      <trkpt lat="48.35762" lon="-4.31909">
        <ele>9.75</ele>
        <time>2019-08-23T09:58:55Z</time>
      </trkpt>
      <trkpt lat="48.35761" lon="-4.31906">
        <ele>10.23</ele>
        <time>2019-08-23T09:58:56Z</time>
      </trkpt>
      <trkpt lat="48.35761" lon="-4.31903">
        <ele>10.23</ele>
        <time>2019-08-23T09:58:57Z</time>
      </trkpt>
      <trkpt lat="48.35761" lon="-4.31901">
        <ele>10.23</ele>
        <time>2019-08-23T09:58:58Z</time>
      </trkpt>
      <trkpt lat="48.35762" lon="-4.31898">
        <ele>10.71</ele>
        <time>2019-08-23T09:58:59Z</time>
      </trkpt>
      <trkpt lat="48.35765" lon="-4.31861">
        <ele>12.15</ele>
        <time>2019-08-23T09:59:12Z</time>
      </trkpt>
      <trkpt lat="48.35763" lon="-4.3185">
        <ele>12.63</ele>
        <time>2019-08-23T09:59:16Z</time>
      </trkpt>
      <trkpt lat="48.3576" lon="-4.31846">
        <ele>12.63</ele>
        <time>2019-08-23T09:59:19Z</time>
      </trkpt>
      <trkpt lat="48.35757" lon="-4.31843">
        <ele>13.12</ele>
        <time>2019-08-23T09:59:21Z</time>
      </trkpt>
      <trkpt lat="48.35744" lon="-4.31827">
        <ele>16</ele>
        <time>2019-08-23T09:59:32Z</time>
      </trkpt>
      <trkpt lat="48.35742" lon="-4.31822">
        <ele>16.48</ele>
        <time>2019-08-23T09:59:36Z</time>
      </trkpt>
      <trkpt lat="48.3574" lon="-4.3182">
        <ele>16.48</ele>
        <time>2019-08-23T09:59:37Z</time>
      </trkpt>
      <trkpt lat="48.35728" lon="-4.31802">
        <ele>17.92</ele>
        <time>2019-08-23T09:59:47Z</time>
      </trkpt>
      <trkpt lat="48.3571" lon="-4.31787">
        <ele>20.32</ele>
        <time>2019-08-23T09:59:59Z</time>
      </trkpt>
      <trkpt lat="48.35708" lon="-4.31786">
        <ele>20.32</ele>
        <time>2019-08-23T10:00:00Z</time>
      </trkpt>
      <trkpt lat="48.35706" lon="-4.31785">
        <ele>20.32</ele>
        <time>2019-08-23T10:00:01Z</time>
      </trkpt>
      <trkpt lat="48.35702" lon="-4.31782">
        <ele>20.81</ele>
        <time>2019-08-23T10:00:04Z</time>
      </trkpt>
      <trkpt lat="48.35681" lon="-4.31767">
        <ele>22.73</ele>
        <time>2019-08-23T10:00:17Z</time>
      </trkpt>
      <trkpt lat="48.35674" lon="-4.31761">
        <ele>23.21</ele>
        <time>2019-08-23T10:00:22Z</time>
      </trkpt>
      <trkpt lat="48.35672" lon="-4.31759">
        <ele>23.21</ele>
        <time>2019-08-23T10:00:24Z</time>
      </trkpt>
      <trkpt lat="48.35671" lon="-4.31758">
        <ele>23.21</ele>
        <time>2019-08-23T10:00:25Z</time>
      </trkpt>
      <trkpt lat="48.3567" lon="-4.31756">
        <ele>23.21</ele>
        <time>2019-08-23T10:00:26Z</time>
      </trkpt>
      <trkpt lat="48.35669" lon="-4.31755">
        <ele>23.69</ele>
        <time>2019-08-23T10:00:27Z</time>
      </trkpt>
      <trkpt lat="48.35666" lon="-4.31753">
        <ele>23.69</ele>
        <time>2019-08-23T10:00:30Z</time>
      </trkpt>
      <trkpt lat="48.35665" lon="-4.31752">
        <ele>23.69</ele>
        <time>2019-08-23T10:00:31Z</time>
      </trkpt>
      <trkpt lat="48.35664" lon="-4.31751">
        <ele>23.69</ele>
        <time>2019-08-23T10:00:32Z</time>
      </trkpt>
      <trkpt lat="48.35663" lon="-4.3175">
        <ele>23.69</ele>
        <time>2019-08-23T10:00:33Z</time>
      </trkpt>
      <trkpt lat="48.35662" lon="-4.3175">
        <ele>23.69</ele>
        <time>2019-08-23T10:00:34Z</time>
      </trkpt>
      <trkpt lat="48.3566" lon="-4.31749">
        <ele>23.69</ele>
        <time>2019-08-23T10:00:35Z</time>
      </trkpt>
      <trkpt lat="48.35659" lon="-4.31748">
        <ele>23.69</ele>
        <time>2019-08-23T10:00:36Z</time>
      </trkpt>
      <trkpt lat="48.35657" lon="-4.31748">
        <ele>24.17</ele>
        <time>2019-08-23T10:00:37Z</time>
      </trkpt>
      <trkpt lat="48.35655" lon="-4.31747">
        <ele>24.65</ele>
        <time>2019-08-23T10:00:38Z</time>
      </trkpt>
      <trkpt lat="48.35654" lon="-4.31747">
        <ele>24.17</ele>
        <time>2019-08-23T10:00:39Z</time>
      </trkpt>
      <trkpt lat="48.35652" lon="-4.31747">
        <ele>24.65</ele>
        <time>2019-08-23T10:00:40Z</time>
      </trkpt>
      <trkpt lat="48.35651" lon="-4.31746">
        <ele>24.65</ele>
        <time>2019-08-23T10:00:41Z</time>
      </trkpt>
      <trkpt lat="48.3565" lon="-4.31745">
        <ele>24.65</ele>
        <time>2019-08-23T10:00:42Z</time>
      </trkpt>
      <trkpt lat="48.35649" lon="-4.31745">
        <ele>24.65</ele>
        <time>2019-08-23T10:00:43Z</time>
      </trkpt>
      <trkpt lat="48.35648" lon="-4.31745">
        <ele>25.13</ele>
        <time>2019-08-23T10:00:44Z</time>
      </trkpt>
      <trkpt lat="48.35647" lon="-4.31745">
        <ele>25.13</ele>
        <time>2019-08-23T10:00:45Z</time>
      </trkpt>
      <trkpt lat="48.35646" lon="-4.31745">
        <ele>25.13</ele>
        <time>2019-08-23T10:00:46Z</time>
      </trkpt>
      <trkpt lat="48.35644" lon="-4.31744">
        <ele>25.13</ele>
        <time>2019-08-23T10:00:47Z</time>
      </trkpt>
      <trkpt lat="48.35643" lon="-4.31744">
        <ele>25.13</ele>
        <time>2019-08-23T10:00:48Z</time>
      </trkpt>
      <trkpt lat="48.35641" lon="-4.31743">
        <ele>25.61</ele>
        <time>2019-08-23T10:00:49Z</time>
      </trkpt>
      <trkpt lat="48.3564" lon="-4.31742">
        <ele>25.61</ele>
        <time>2019-08-23T10:00:50Z</time>
      </trkpt>
      <trkpt lat="48.35638" lon="-4.31742">
        <ele>25.61</ele>
        <time>2019-08-23T10:00:51Z</time>
      </trkpt>
      <trkpt lat="48.35632" lon="-4.31738">
        <ele>25.61</ele>
        <time>2019-08-23T10:00:56Z</time>
      </trkpt>
      <trkpt lat="48.3563" lon="-4.31738">
        <ele>26.09</ele>
        <time>2019-08-23T10:00:57Z</time>
      </trkpt>
      <trkpt lat="48.35628" lon="-4.31737">
        <ele>26.09</ele>
        <time>2019-08-23T10:00:58Z</time>
      </trkpt>
      <trkpt lat="48.35627" lon="-4.31735">
        <ele>26.09</ele>
        <time>2019-08-23T10:00:59Z</time>
      </trkpt>
      <trkpt lat="48.35625" lon="-4.31733">
        <ele>25.61</ele>
        <time>2019-08-23T10:01:00Z</time>
      </trkpt>
      <trkpt lat="48.35619" lon="-4.31723">
        <ele>26.09</ele>
        <time>2019-08-23T10:01:05Z</time>
      </trkpt>
      <trkpt lat="48.35619" lon="-4.3172">
        <ele>26.09</ele>
        <time>2019-08-23T10:01:06Z</time>
      </trkpt>
      <trkpt lat="48.35618" lon="-4.31717">
        <ele>25.61</ele>
        <time>2019-08-23T10:01:07Z</time>
      </trkpt>
      <trkpt lat="48.35612" lon="-4.31671">
        <ele>24.65</ele>
        <time>2019-08-23T10:01:18Z</time>
      </trkpt>
      <trkpt lat="48.35602" lon="-4.31611">
        <ele>24.65</ele>
        <time>2019-08-23T10:01:30Z</time>
      </trkpt>
      <trkpt lat="48.35581" lon="-4.31586">
        <ele>24.17</ele>
        <time>2019-08-23T10:01:38Z</time>
      </trkpt>
      <trkpt lat="48.35578" lon="-4.31587">
        <ele>24.17</ele>
        <time>2019-08-23T10:01:39Z</time>
      </trkpt>
      <trkpt lat="48.35575" lon="-4.3159">
        <ele>24.17</ele>
        <time>2019-08-23T10:01:40Z</time>
      </trkpt>
      <trkpt lat="48.35573" lon="-4.31595">
        <ele>24.17</ele>
        <time>2019-08-23T10:01:41Z</time>
      </trkpt>
      <trkpt lat="48.35571" lon="-4.316">
        <ele>24.65</ele>
        <time>2019-08-23T10:01:42Z</time>
      </trkpt>
      <trkpt lat="48.35553" lon="-4.31652">
        <ele>25.13</ele>
        <time>2019-08-23T10:01:53Z</time>
      </trkpt>
      <trkpt lat="48.35546" lon="-4.31668">
        <ele>25.13</ele>
        <time>2019-08-23T10:01:56Z</time>
      </trkpt>
      <trkpt lat="48.355" lon="-4.31768">
        <ele>23.21</ele>
        <time>2019-08-23T10:02:12Z</time>
      </trkpt>
      <trkpt lat="48.35482" lon="-4.31801">
        <ele>21.77</ele>
        <time>2019-08-23T10:02:18Z</time>
      </trkpt>
      <trkpt lat="48.35481" lon="-4.31806">
        <ele>21.77</ele>
        <time>2019-08-23T10:02:19Z</time>
      </trkpt>
      <trkpt lat="48.35482" lon="-4.31812">
        <ele>20.81</ele>
        <time>2019-08-23T10:02:20Z</time>
      </trkpt>
      <trkpt lat="48.35484" lon="-4.31823">
        <ele>20.81</ele>
        <time>2019-08-23T10:02:23Z</time>
      </trkpt>
      <trkpt lat="48.35483" lon="-4.31826">
        <ele>20.81</ele>
        <time>2019-08-23T10:02:24Z</time>
      </trkpt>
      <trkpt lat="48.35483" lon="-4.3183">
        <ele>20.32</ele>
        <time>2019-08-23T10:02:25Z</time>
      </trkpt>
      <trkpt lat="48.35483" lon="-4.31835">
        <ele>20.32</ele>
        <time>2019-08-23T10:02:26Z</time>
      </trkpt>
      <trkpt lat="48.35483" lon="-4.31839">
        <ele>19.84</ele>
        <time>2019-08-23T10:02:28Z</time>
      </trkpt>
      <trkpt lat="48.35484" lon="-4.31841">
        <ele>19.36</ele>
        <time>2019-08-23T10:02:29Z</time>
      </trkpt>
      <trkpt lat="48.35485" lon="-4.31843">
        <ele>19.84</ele>
        <time>2019-08-23T10:02:30Z</time>
      </trkpt>
      <trkpt lat="48.35486" lon="-4.31844">
        <ele>19.84</ele>
        <time>2019-08-23T10:02:31Z</time>
      </trkpt>
      <trkpt lat="48.35487" lon="-4.31848">
        <ele>19.36</ele>
        <time>2019-08-23T10:02:33Z</time>
      </trkpt>
      <trkpt lat="48.35487" lon="-4.3185">
        <ele>19.84</ele>
        <time>2019-08-23T10:02:34Z</time>
      </trkpt>
      <trkpt lat="48.35487" lon="-4.31856">
        <ele>19.36</ele>
        <time>2019-08-23T10:02:46Z</time>
      </trkpt>
      <trkpt lat="48.35486" lon="-4.3186">
        <ele>19.36</ele>
        <time>2019-08-23T10:03:08Z</time>
      </trkpt>
      <trkpt lat="48.35486" lon="-4.31864">
        <ele>19.84</ele>
        <time>2019-08-23T10:03:40Z</time>
      </trkpt>
      <trkpt lat="48.35485" lon="-4.31861">
        <ele>20.81</ele>
        <time>2019-08-23T10:03:58Z</time>
      </trkpt>
      <trkpt lat="48.35485" lon="-4.31859">
        <ele>19.36</ele>
        <time>2019-08-23T10:04:10Z</time>
      </trkpt>
      <trkpt lat="48.35488" lon="-4.31838">
        <ele>20.32</ele>
        <time>2019-08-23T10:04:20Z</time>
      </trkpt>
      <trkpt lat="48.35488" lon="-4.31836">
        <ele>20.81</ele>
        <time>2019-08-23T10:04:21Z</time>
      </trkpt>
      <trkpt lat="48.35487" lon="-4.31833">
        <ele>20.81</ele>
        <time>2019-08-23T10:04:22Z</time>
      </trkpt>
      <trkpt lat="48.35486" lon="-4.3183">
        <ele>20.81</ele>
        <time>2019-08-23T10:04:23Z</time>
      </trkpt>
      <trkpt lat="48.35486" lon="-4.31826">
        <ele>20.81</ele>
        <time>2019-08-23T10:04:24Z</time>
      </trkpt>
      <trkpt lat="48.35479" lon="-4.31808">
        <ele>22.25</ele>
        <time>2019-08-23T10:04:31Z</time>
      </trkpt>
      <trkpt lat="48.35477" lon="-4.31808">
        <ele>22.25</ele>
        <time>2019-08-23T10:04:32Z</time>
      </trkpt>
      <trkpt lat="48.35476" lon="-4.31808">
        <ele>22.25</ele>
        <time>2019-08-23T10:04:33Z</time>
      </trkpt>
      <trkpt lat="48.35475" lon="-4.31808">
        <ele>22.25</ele>
        <time>2019-08-23T10:04:34Z</time>
      </trkpt>
      <trkpt lat="48.35474" lon="-4.31809">
        <ele>22.25</ele>
        <time>2019-08-23T10:04:35Z</time>
      </trkpt>
      <trkpt lat="48.35473" lon="-4.31809">
        <ele>22.25</ele>
        <time>2019-08-23T10:04:36Z</time>
      </trkpt>
      <trkpt lat="48.35447" lon="-4.31834">
        <ele>22.25</ele>
        <time>2019-08-23T10:04:49Z</time>
      </trkpt>
      <trkpt lat="48.35404" lon="-4.3188">
        <ele>20.81</ele>
        <time>2019-08-23T10:05:05Z</time>
      </trkpt>
      <trkpt lat="48.35401" lon="-4.31884">
        <ele>20.32</ele>
        <time>2019-08-23T10:05:06Z</time>
      </trkpt>
      <trkpt lat="48.35397" lon="-4.31888">
        <ele>20.32</ele>
        <time>2019-08-23T10:05:07Z</time>
      </trkpt>
      <trkpt lat="48.35388" lon="-4.31896">
        <ele>19.84</ele>
        <time>2019-08-23T10:05:09Z</time>
      </trkpt>
      <trkpt lat="48.3538" lon="-4.31906">
        <ele>19.36</ele>
        <time>2019-08-23T10:05:11Z</time>
      </trkpt>
      <trkpt lat="48.35375" lon="-4.31911">
        <ele>18.88</ele>
        <time>2019-08-23T10:05:12Z</time>
      </trkpt>
      <trkpt lat="48.3534" lon="-4.3196">
        <ele>16</ele>
        <time>2019-08-23T10:05:19Z</time>
      </trkpt>
      <trkpt lat="48.35312" lon="-4.32029">
        <ele>13.12</ele>
        <time>2019-08-23T10:05:26Z</time>
      </trkpt>
      <trkpt lat="48.35307" lon="-4.32038">
        <ele>13.12</ele>
        <time>2019-08-23T10:05:27Z</time>
      </trkpt>
      <trkpt lat="48.35272" lon="-4.32096">
        <ele>14.08</ele>
        <time>2019-08-23T10:05:35Z</time>
      </trkpt>
      <trkpt lat="48.3525" lon="-4.32138">
        <ele>16.96</ele>
        <time>2019-08-23T10:05:44Z</time>
      </trkpt>
      <trkpt lat="48.35228" lon="-4.32193">
        <ele>20.32</ele>
        <time>2019-08-23T10:05:57Z</time>
      </trkpt>
      <trkpt lat="48.352" lon="-4.32244">
        <ele>19.84</ele>
        <time>2019-08-23T10:06:10Z</time>
      </trkpt>
      <trkpt lat="48.35172" lon="-4.32289">
        <ele>17.92</ele>
        <time>2019-08-23T10:06:21Z</time>
      </trkpt>
      <trkpt lat="48.3516" lon="-4.32313">
        <ele>17.44</ele>
        <time>2019-08-23T10:06:25Z</time>
      </trkpt>
      <trkpt lat="48.35149" lon="-4.32357">
        <ele>15.52</ele>
        <time>2019-08-23T10:06:33Z</time>
      </trkpt>
      <trkpt lat="48.35147" lon="-4.3236">
        <ele>15.04</ele>
        <time>2019-08-23T10:06:34Z</time>
      </trkpt>
      <trkpt lat="48.35143" lon="-4.32361">
        <ele>15.04</ele>
        <time>2019-08-23T10:06:35Z</time>
      </trkpt>
      <trkpt lat="48.35119" lon="-4.32361">
        <ele>13.12</ele>
        <time>2019-08-23T10:06:40Z</time>
      </trkpt>
      <trkpt lat="48.35114" lon="-4.32362">
        <ele>12.63</ele>
        <time>2019-08-23T10:06:41Z</time>
      </trkpt>
      <trkpt lat="48.35105" lon="-4.32366">
        <ele>13.12</ele>
        <time>2019-08-23T10:06:43Z</time>
      </trkpt>
      <trkpt lat="48.35101" lon="-4.32366">
        <ele>13.6</ele>
        <time>2019-08-23T10:06:44Z</time>
      </trkpt>
      <trkpt lat="48.35069" lon="-4.3236">
        <ele>16.48</ele>
        <time>2019-08-23T10:06:54Z</time>
      </trkpt>
      <trkpt lat="48.35068" lon="-4.32356">
        <ele>16.48</ele>
        <time>2019-08-23T10:06:55Z</time>
      </trkpt>
      <trkpt lat="48.35068" lon="-4.32351">
        <ele>16.96</ele>
        <time>2019-08-23T10:06:56Z</time>
      </trkpt>
      <trkpt lat="48.35066" lon="-4.32287">
        <ele>19.84</ele>
        <time>2019-08-23T10:07:11Z</time>
      </trkpt>
      <trkpt lat="48.35062" lon="-4.32234">
        <ele>21.77</ele>
        <time>2019-08-23T10:07:23Z</time>
      </trkpt>
      <trkpt lat="48.3505" lon="-4.32195">
        <ele>23.69</ele>
        <time>2019-08-23T10:07:35Z</time>
      </trkpt>
      <trkpt lat="48.3504" lon="-4.32159">
        <ele>26.57</ele>
        <time>2019-08-23T10:07:47Z</time>
      </trkpt>
      <trkpt lat="48.35038" lon="-4.32126">
        <ele>28.02</ele>
        <time>2019-08-23T10:07:57Z</time>
      </trkpt>
      <trkpt lat="48.35022" lon="-4.32104">
        <ele>29.94</ele>
        <time>2019-08-23T10:08:08Z</time>
      </trkpt>
      <trkpt lat="48.35003" lon="-4.32091">
        <ele>32.34</ele>
        <time>2019-08-23T10:08:19Z</time>
      </trkpt>
      <trkpt lat="48.34984" lon="-4.32073">
        <ele>34.26</ele>
        <time>2019-08-23T10:08:30Z</time>
      </trkpt>
      <trkpt lat="48.34981" lon="-4.32071">
        <ele>34.74</ele>
        <time>2019-08-23T10:08:32Z</time>
      </trkpt>
      <trkpt lat="48.3498" lon="-4.3207">
        <ele>34.74</ele>
        <time>2019-08-23T10:08:33Z</time>
      </trkpt>
      <trkpt lat="48.34978" lon="-4.32068">
        <ele>35.23</ele>
        <time>2019-08-23T10:08:34Z</time>
      </trkpt>
      <trkpt lat="48.34976" lon="-4.32066">
        <ele>35.23</ele>
        <time>2019-08-23T10:08:35Z</time>
      </trkpt>
      <trkpt lat="48.34974" lon="-4.32065">
        <ele>35.71</ele>
        <time>2019-08-23T10:08:36Z</time>
      </trkpt>
      <trkpt lat="48.34973" lon="-4.32063">
        <ele>36.19</ele>
        <time>2019-08-23T10:08:37Z</time>
      </trkpt>
      <trkpt lat="48.34971" lon="-4.32062">
        <ele>36.19</ele>
        <time>2019-08-23T10:08:38Z</time>
      </trkpt>
      <trkpt lat="48.34951" lon="-4.32034">
        <ele>38.59</ele>
        <time>2019-08-23T10:08:51Z</time>
      </trkpt>
      <trkpt lat="48.34929" lon="-4.32008">
        <ele>39.55</ele>
        <time>2019-08-23T10:09:03Z</time>
      </trkpt>
      <trkpt lat="48.34908" lon="-4.31976">
        <ele>40.99</ele>
        <time>2019-08-23T10:09:17Z</time>
      </trkpt>
      <trkpt lat="48.34904" lon="-4.31952">
        <ele>41.47</ele>
        <time>2019-08-23T10:09:25Z</time>
      </trkpt>
      <trkpt lat="48.34905" lon="-4.31949">
        <ele>41.95</ele>
        <time>2019-08-23T10:09:26Z</time>
      </trkpt>
      <trkpt lat="48.34906" lon="-4.31914">
        <ele>42.44</ele>
        <time>2019-08-23T10:09:37Z</time>
      </trkpt>
      <trkpt lat="48.34906" lon="-4.31912">
        <ele>42.44</ele>
        <time>2019-08-23T10:09:38Z</time>
      </trkpt>
      <trkpt lat="48.34908" lon="-4.31876">
        <ele>42.92</ele>
        <time>2019-08-23T10:09:49Z</time>
      </trkpt>
      <trkpt lat="48.34907" lon="-4.31833">
        <ele>42.92</ele>
        <time>2019-08-23T10:10:00Z</time>
      </trkpt>
      <trkpt lat="48.34912" lon="-4.31794">
        <ele>43.4</ele>
        <time>2019-08-23T10:10:11Z</time>
      </trkpt>
      <trkpt lat="48.34926" lon="-4.31739">
        <ele>42.92</ele>
        <time>2019-08-23T10:10:23Z</time>
      </trkpt>
      <trkpt lat="48.3493" lon="-4.31731">
        <ele>42.44</ele>
        <time>2019-08-23T10:10:25Z</time>
      </trkpt>
      <trkpt lat="48.34932" lon="-4.31729">
        <ele>42.44</ele>
        <time>2019-08-23T10:10:26Z</time>
      </trkpt>
      <trkpt lat="48.34934" lon="-4.31728">
        <ele>41.95</ele>
        <time>2019-08-23T10:10:27Z</time>
      </trkpt>
      <trkpt lat="48.34936" lon="-4.31728">
        <ele>41.95</ele>
        <time>2019-08-23T10:10:28Z</time>
      </trkpt>
      <trkpt lat="48.34937" lon="-4.31727">
        <ele>41.95</ele>
        <time>2019-08-23T10:10:29Z</time>
      </trkpt>
      <trkpt lat="48.34939" lon="-4.31727">
        <ele>41.95</ele>
        <time>2019-08-23T10:10:30Z</time>
      </trkpt>
      <trkpt lat="48.34944" lon="-4.31726">
        <ele>40.51</ele>
        <time>2019-08-23T10:10:33Z</time>
      </trkpt>
      <trkpt lat="48.34945" lon="-4.31725">
        <ele>40.51</ele>
        <time>2019-08-23T10:10:34Z</time>
      </trkpt>
      <trkpt lat="48.34947" lon="-4.31724">
        <ele>40.03</ele>
        <time>2019-08-23T10:10:35Z</time>
      </trkpt>
      <trkpt lat="48.34963" lon="-4.31713">
        <ele>40.03</ele>
        <time>2019-08-23T10:10:40Z</time>
      </trkpt>
      <trkpt lat="48.34967" lon="-4.31706">
        <ele>40.03</ele>
        <time>2019-08-23T10:10:42Z</time>
      </trkpt>
      <trkpt lat="48.34976" lon="-4.3167">
        <ele>40.03</ele>
        <time>2019-08-23T10:10:53Z</time>
      </trkpt>
      <trkpt lat="48.34989" lon="-4.31634">
        <ele>39.55</ele>
        <time>2019-08-23T10:11:02Z</time>
      </trkpt>
      <trkpt lat="48.34991" lon="-4.3163">
        <ele>39.55</ele>
        <time>2019-08-23T10:11:03Z</time>
      </trkpt>
      <trkpt lat="48.35015" lon="-4.31573">
        <ele>38.11</ele>
        <time>2019-08-23T10:11:14Z</time>
      </trkpt>
      <trkpt lat="48.35031" lon="-4.31538">
        <ele>37.63</ele>
        <time>2019-08-23T10:11:21Z</time>
      </trkpt>
      <trkpt lat="48.35034" lon="-4.31532">
        <ele>37.15</ele>
        <time>2019-08-23T10:11:22Z</time>
      </trkpt>
      <trkpt lat="48.35037" lon="-4.31526">
        <ele>36.67</ele>
        <time>2019-08-23T10:11:23Z</time>
      </trkpt>
      <trkpt lat="48.35052" lon="-4.31486">
        <ele>36.19</ele>
        <time>2019-08-23T10:11:30Z</time>
      </trkpt>
      <trkpt lat="48.35052" lon="-4.3148">
        <ele>35.71</ele>
        <time>2019-08-23T10:11:31Z</time>
      </trkpt>
      <trkpt lat="48.35051" lon="-4.31475">
        <ele>35.71</ele>
        <time>2019-08-23T10:11:32Z</time>
      </trkpt>
      <trkpt lat="48.35049" lon="-4.3147">
        <ele>35.71</ele>
        <time>2019-08-23T10:11:33Z</time>
      </trkpt>
      <trkpt lat="48.35046" lon="-4.31466">
        <ele>35.71</ele>
        <time>2019-08-23T10:11:34Z</time>
      </trkpt>
      <trkpt lat="48.35042" lon="-4.31462">
        <ele>35.23</ele>
        <time>2019-08-23T10:11:35Z</time>
      </trkpt>
      <trkpt lat="48.35039" lon="-4.31457">
        <ele>34.74</ele>
        <time>2019-08-23T10:11:36Z</time>
      </trkpt>
      <trkpt lat="48.34989" lon="-4.31378">
        <ele>32.82</ele>
        <time>2019-08-23T10:11:49Z</time>
      </trkpt>
      <trkpt lat="48.34965" lon="-4.31303">
        <ele>32.82</ele>
        <time>2019-08-23T10:12:00Z</time>
      </trkpt>
      <trkpt lat="48.34965" lon="-4.31294">
        <ele>32.34</ele>
        <time>2019-08-23T10:12:01Z</time>
      </trkpt>
      <trkpt lat="48.34965" lon="-4.3126">
        <ele>31.86</ele>
        <time>2019-08-23T10:12:05Z</time>
      </trkpt>
      <trkpt lat="48.34966" lon="-4.31252">
        <ele>31.38</ele>
        <time>2019-08-23T10:12:06Z</time>
      </trkpt>
      <trkpt lat="48.34969" lon="-4.31244">
        <ele>31.86</ele>
        <time>2019-08-23T10:12:07Z</time>
      </trkpt>
      <trkpt lat="48.34996" lon="-4.31214">
        <ele>34.26</ele>
        <time>2019-08-23T10:12:16Z</time>
      </trkpt>
      <trkpt lat="48.35032" lon="-4.31198">
        <ele>37.15</ele>
        <time>2019-08-23T10:12:29Z</time>
      </trkpt>
      <trkpt lat="48.35057" lon="-4.3115">
        <ele>38.59</ele>
        <time>2019-08-23T10:12:43Z</time>
      </trkpt>
      <trkpt lat="48.3508" lon="-4.31069">
        <ele>40.51</ele>
        <time>2019-08-23T10:13:00Z</time>
      </trkpt>
      <trkpt lat="48.35105" lon="-4.31004">
        <ele>40.03</ele>
        <time>2019-08-23T10:13:14Z</time>
      </trkpt>
      <trkpt lat="48.35108" lon="-4.31">
        <ele>40.03</ele>
        <time>2019-08-23T10:13:17Z</time>
      </trkpt>
      <trkpt lat="48.3511" lon="-4.31">
        <ele>40.03</ele>
        <time>2019-08-23T10:13:18Z</time>
      </trkpt>
      <trkpt lat="48.35113" lon="-4.31001">
        <ele>39.55</ele>
        <time>2019-08-23T10:13:19Z</time>
      </trkpt>
      <trkpt lat="48.35115" lon="-4.31003">
        <ele>40.03</ele>
        <time>2019-08-23T10:13:20Z</time>
      </trkpt>
      <trkpt lat="48.35117" lon="-4.31006">
        <ele>40.03</ele>
        <time>2019-08-23T10:13:21Z</time>
      </trkpt>
      <trkpt lat="48.35119" lon="-4.31009">
        <ele>40.03</ele>
        <time>2019-08-23T10:13:22Z</time>
      </trkpt>
      <trkpt lat="48.3512" lon="-4.31013">
        <ele>40.51</ele>
        <time>2019-08-23T10:13:23Z</time>
      </trkpt>
      <trkpt lat="48.35122" lon="-4.31016">
        <ele>40.51</ele>
        <time>2019-08-23T10:13:24Z</time>
      </trkpt>
      <trkpt lat="48.35128" lon="-4.31031">
        <ele>41.95</ele>
        <time>2019-08-23T10:13:31Z</time>
      </trkpt>
      <trkpt lat="48.35129" lon="-4.31032">
        <ele>42.44</ele>
        <time>2019-08-23T10:13:32Z</time>
      </trkpt>
      <trkpt lat="48.3513" lon="-4.31034">
        <ele>42.44</ele>
        <time>2019-08-23T10:13:33Z</time>
      </trkpt>
      <trkpt lat="48.35131" lon="-4.31035">
        <ele>42.44</ele>
        <time>2019-08-23T10:13:34Z</time>
      </trkpt>
      <trkpt lat="48.35132" lon="-4.31036">
        <ele>42.44</ele>
        <time>2019-08-23T10:13:35Z</time>
      </trkpt>
      <trkpt lat="48.35133" lon="-4.31037">
        <ele>42.92</ele>
        <time>2019-08-23T10:13:36Z</time>
      </trkpt>
      <trkpt lat="48.35134" lon="-4.31038">
        <ele>42.92</ele>
        <time>2019-08-23T10:13:37Z</time>
      </trkpt>
      <trkpt lat="48.35134" lon="-4.31042">
        <ele>42.92</ele>
        <time>2019-08-23T10:13:41Z</time>
      </trkpt>
      <trkpt lat="48.35132" lon="-4.31041">
        <ele>42.92</ele>
        <time>2019-08-23T10:13:42Z</time>
      </trkpt>
      <trkpt lat="48.35132" lon="-4.31038">
        <ele>42.92</ele>
        <time>2019-08-23T10:13:43Z</time>
      </trkpt>
      <trkpt lat="48.35124" lon="-4.31019">
        <ele>41.47</ele>
        <time>2019-08-23T10:13:48Z</time>
      </trkpt>
      <trkpt lat="48.35119" lon="-4.31008">
        <ele>40.51</ele>
        <time>2019-08-23T10:13:50Z</time>
      </trkpt>
      <trkpt lat="48.35116" lon="-4.31004">
        <ele>40.51</ele>
        <time>2019-08-23T10:13:51Z</time>
      </trkpt>
      <trkpt lat="48.35109" lon="-4.30997">
        <ele>40.03</ele>
        <time>2019-08-23T10:13:54Z</time>
      </trkpt>
      <trkpt lat="48.3511" lon="-4.30994">
        <ele>39.55</ele>
        <time>2019-08-23T10:13:55Z</time>
      </trkpt>
      <trkpt lat="48.35111" lon="-4.30991">
        <ele>39.07</ele>
        <time>2019-08-23T10:13:56Z</time>
      </trkpt>
      <trkpt lat="48.35119" lon="-4.30979">
        <ele>38.59</ele>
        <time>2019-08-23T10:13:59Z</time>
      </trkpt>
      <trkpt lat="48.35123" lon="-4.30975">
        <ele>37.15</ele>
        <time>2019-08-23T10:14:00Z</time>
      </trkpt>
      <trkpt lat="48.35147" lon="-4.30953">
        <ele>34.26</ele>
        <time>2019-08-23T10:14:04Z</time>
      </trkpt>
      <trkpt lat="48.3517" lon="-4.30925">
        <ele>31.38</ele>
        <time>2019-08-23T10:14:08Z</time>
      </trkpt>
      <trkpt lat="48.35187" lon="-4.3091">
        <ele>30.9</ele>
        <time>2019-08-23T10:14:14Z</time>
      </trkpt>
      <trkpt lat="48.35188" lon="-4.30909">
        <ele>30.9</ele>
        <time>2019-08-23T10:14:15Z</time>
      </trkpt>
      <trkpt lat="48.35191" lon="-4.30907">
        <ele>30.9</ele>
        <time>2019-08-23T10:14:27Z</time>
      </trkpt>
      <trkpt lat="48.35193" lon="-4.30903">
        <ele>30.9</ele>
        <time>2019-08-23T10:14:42Z</time>
      </trkpt>
      <trkpt lat="48.35194" lon="-4.30902">
        <ele>30.9</ele>
        <time>2019-08-23T10:14:43Z</time>
      </trkpt>
      <trkpt lat="48.35194" lon="-4.309">
        <ele>30.9</ele>
        <time>2019-08-23T10:14:44Z</time>
      </trkpt>
      <trkpt lat="48.35197" lon="-4.30884">
        <ele>29.46</ele>
        <time>2019-08-23T10:14:48Z</time>
      </trkpt>
      <trkpt lat="48.35199" lon="-4.30878">
        <ele>29.46</ele>
        <time>2019-08-23T10:14:49Z</time>
      </trkpt>
      <trkpt lat="48.35201" lon="-4.30871">
        <ele>28.5</ele>
        <time>2019-08-23T10:14:50Z</time>
      </trkpt>
      <trkpt lat="48.35204" lon="-4.3086">
        <ele>27.53</ele>
        <time>2019-08-23T10:14:52Z</time>
      </trkpt>
      <trkpt lat="48.35216" lon="-4.30849">
        <ele>27.53</ele>
        <time>2019-08-23T10:15:00Z</time>
      </trkpt>
      <trkpt lat="48.35249" lon="-4.30843">
        <ele>28.02</ele>
        <time>2019-08-23T10:15:13Z</time>
      </trkpt>
      <trkpt lat="48.35251" lon="-4.30842">
        <ele>28.02</ele>
        <time>2019-08-23T10:15:22Z</time>
      </trkpt>
      <trkpt lat="48.35258" lon="-4.3084">
        <ele>28.02</ele>
        <time>2019-08-23T10:15:52Z</time>
      </trkpt>
      <trkpt lat="48.35276" lon="-4.30839">
        <ele>27.05</ele>
        <time>2019-08-23T10:16:01Z</time>
      </trkpt>
      <trkpt lat="48.35279" lon="-4.30836">
        <ele>26.57</ele>
        <time>2019-08-23T10:16:16Z</time>
      </trkpt>
      <trkpt lat="48.3528" lon="-4.30837">
        <ele>27.05</ele>
        <time>2019-08-23T10:16:45Z</time>
      </trkpt>
      <trkpt lat="48.3528" lon="-4.30836">
        <ele>27.05</ele>
        <time>2019-08-23T10:17:04Z</time>
      </trkpt>
      <trkpt lat="48.35281" lon="-4.30834">
        <ele>27.05</ele>
        <time>2019-08-23T10:17:05Z</time>
      </trkpt>
      <trkpt lat="48.35282" lon="-4.30832">
        <ele>26.57</ele>
        <time>2019-08-23T10:17:06Z</time>
      </trkpt>
      <trkpt lat="48.35283" lon="-4.30828">
        <ele>26.09</ele>
        <time>2019-08-23T10:17:07Z</time>
      </trkpt>
      <trkpt lat="48.35285" lon="-4.30825">
        <ele>25.61</ele>
        <time>2019-08-23T10:17:08Z</time>
      </trkpt>
      <trkpt lat="48.35285" lon="-4.30822">
        <ele>25.13</ele>
        <time>2019-08-23T10:17:09Z</time>
      </trkpt>
      <trkpt lat="48.35285" lon="-4.3082">
        <ele>24.65</ele>
        <time>2019-08-23T10:17:10Z</time>
      </trkpt>
      <trkpt lat="48.35285" lon="-4.30818">
        <ele>24.17</ele>
        <time>2019-08-23T10:17:11Z</time>
      </trkpt>
      <trkpt lat="48.35286" lon="-4.30816">
        <ele>24.17</ele>
        <time>2019-08-23T10:17:12Z</time>
      </trkpt>
      <trkpt lat="48.35288" lon="-4.30814">
        <ele>23.69</ele>
        <time>2019-08-23T10:17:13Z</time>
      </trkpt>
      <trkpt lat="48.35289" lon="-4.30812">
        <ele>23.21</ele>
        <time>2019-08-23T10:17:14Z</time>
      </trkpt>
      <trkpt lat="48.3529" lon="-4.3081">
        <ele>23.21</ele>
        <time>2019-08-23T10:17:15Z</time>
      </trkpt>
      <trkpt lat="48.35299" lon="-4.30797">
        <ele>21.77</ele>
        <time>2019-08-23T10:17:20Z</time>
      </trkpt>
      <trkpt lat="48.353" lon="-4.30794">
        <ele>21.29</ele>
        <time>2019-08-23T10:17:21Z</time>
      </trkpt>
      <trkpt lat="48.35301" lon="-4.30791">
        <ele>20.81</ele>
        <time>2019-08-23T10:17:22Z</time>
      </trkpt>
      <trkpt lat="48.35303" lon="-4.30787">
        <ele>20.32</ele>
        <time>2019-08-23T10:17:23Z</time>
      </trkpt>
      <trkpt lat="48.35305" lon="-4.30784">
        <ele>19.84</ele>
        <time>2019-08-23T10:17:24Z</time>
      </trkpt>
      <trkpt lat="48.35306" lon="-4.30781">
        <ele>19.84</ele>
        <time>2019-08-23T10:17:25Z</time>
      </trkpt>
      <trkpt lat="48.35307" lon="-4.30777">
        <ele>18.88</ele>
        <time>2019-08-23T10:17:26Z</time>
      </trkpt>
      <trkpt lat="48.35309" lon="-4.30774">
        <ele>18.4</ele>
        <time>2019-08-23T10:17:27Z</time>
      </trkpt>
      <trkpt lat="48.3531" lon="-4.3077">
        <ele>17.92</ele>
        <time>2019-08-23T10:17:28Z</time>
      </trkpt>
      <trkpt lat="48.35313" lon="-4.30764">
        <ele>17.44</ele>
        <time>2019-08-23T10:17:31Z</time>
      </trkpt>
      <trkpt lat="48.35315" lon="-4.30763">
        <ele>17.44</ele>
        <time>2019-08-23T10:17:32Z</time>
      </trkpt>
      <trkpt lat="48.35316" lon="-4.30761">
        <ele>16.96</ele>
        <time>2019-08-23T10:17:33Z</time>
      </trkpt>
      <trkpt lat="48.35317" lon="-4.30759">
        <ele>16.48</ele>
        <time>2019-08-23T10:17:34Z</time>
      </trkpt>
      <trkpt lat="48.35319" lon="-4.30756">
        <ele>16.48</ele>
        <time>2019-08-23T10:17:35Z</time>
      </trkpt>
      <trkpt lat="48.3532" lon="-4.30753">
        <ele>16</ele>
        <time>2019-08-23T10:17:36Z</time>
      </trkpt>
      <trkpt lat="48.35321" lon="-4.3075">
        <ele>15.52</ele>
        <time>2019-08-23T10:17:37Z</time>
      </trkpt>
      <trkpt lat="48.35322" lon="-4.30747">
        <ele>15.04</ele>
        <time>2019-08-23T10:17:38Z</time>
      </trkpt>
      <trkpt lat="48.35324" lon="-4.30744">
        <ele>14.56</ele>
        <time>2019-08-23T10:17:39Z</time>
      </trkpt>
      <trkpt lat="48.35326" lon="-4.3074">
        <ele>14.08</ele>
        <time>2019-08-23T10:17:40Z</time>
      </trkpt>
      <trkpt lat="48.35327" lon="-4.30736">
        <ele>14.08</ele>
        <time>2019-08-23T10:17:41Z</time>
      </trkpt>
      <trkpt lat="48.35329" lon="-4.30732">
        <ele>13.6</ele>
        <time>2019-08-23T10:17:42Z</time>
      </trkpt>
      <trkpt lat="48.35331" lon="-4.30729">
        <ele>13.12</ele>
        <time>2019-08-23T10:17:43Z</time>
      </trkpt>
      <trkpt lat="48.35333" lon="-4.30725">
        <ele>12.63</ele>
        <time>2019-08-23T10:17:44Z</time>
      </trkpt>
      <trkpt lat="48.35337" lon="-4.30715">
        <ele>12.15</ele>
        <time>2019-08-23T10:17:46Z</time>
      </trkpt>
      <trkpt lat="48.35337" lon="-4.3071">
        <ele>11.67</ele>
        <time>2019-08-23T10:17:47Z</time>
      </trkpt>
      <trkpt lat="48.35339" lon="-4.30706">
        <ele>11.67</ele>
        <time>2019-08-23T10:17:48Z</time>
      </trkpt>
      <trkpt lat="48.3534" lon="-4.30701">
        <ele>11.19</ele>
        <time>2019-08-23T10:17:49Z</time>
      </trkpt>
      <trkpt lat="48.35343" lon="-4.30695">
        <ele>10.23</ele>
        <time>2019-08-23T10:17:50Z</time>
      </trkpt>
      <trkpt lat="48.35344" lon="-4.30689">
        <ele>10.23</ele>
        <time>2019-08-23T10:17:51Z</time>
      </trkpt>
      <trkpt lat="48.35347" lon="-4.30684">
        <ele>9.75</ele>
        <time>2019-08-23T10:17:52Z</time>
      </trkpt>
      <trkpt lat="48.3536" lon="-4.30657">
        <ele>8.31</ele>
        <time>2019-08-23T10:17:57Z</time>
      </trkpt>
      <trkpt lat="48.3536" lon="-4.30652">
        <ele>7.83</ele>
        <time>2019-08-23T10:17:58Z</time>
      </trkpt>
      <trkpt lat="48.35369" lon="-4.30627">
        <ele>6.39</ele>
        <time>2019-08-23T10:18:03Z</time>
      </trkpt>
      <trkpt lat="48.35374" lon="-4.3058">
        <ele>4.46</ele>
        <time>2019-08-23T10:18:13Z</time>
      </trkpt>
      <trkpt lat="48.35374" lon="-4.30573">
        <ele>4.46</ele>
        <time>2019-08-23T10:18:14Z</time>
      </trkpt>
      <trkpt lat="48.35374" lon="-4.30567">
        <ele>4.46</ele>
        <time>2019-08-23T10:18:15Z</time>
      </trkpt>
      <trkpt lat="48.35375" lon="-4.30561">
        <ele>4.46</ele>
        <time>2019-08-23T10:18:16Z</time>
      </trkpt>
      <trkpt lat="48.35375" lon="-4.30556">
        <ele>3.98</ele>
        <time>2019-08-23T10:18:17Z</time>
      </trkpt>
      <trkpt lat="48.35376" lon="-4.3055">
        <ele>3.98</ele>
        <time>2019-08-23T10:18:18Z</time>
      </trkpt>
      <trkpt lat="48.35376" lon="-4.30546">
        <ele>3.98</ele>
        <time>2019-08-23T10:18:19Z</time>
      </trkpt>
      <trkpt lat="48.35376" lon="-4.30541">
        <ele>3.98</ele>
        <time>2019-08-23T10:18:20Z</time>
      </trkpt>
      <trkpt lat="48.35376" lon="-4.30535">
        <ele>3.5</ele>
        <time>2019-08-23T10:18:21Z</time>
      </trkpt>
      <trkpt lat="48.35373" lon="-4.30513">
        <ele>3.02</ele>
        <time>2019-08-23T10:18:29Z</time>
      </trkpt>
      <trkpt lat="48.35373" lon="-4.3051">
        <ele>4.94</ele>
        <time>2019-08-23T10:18:42Z</time>
      </trkpt>
      <trkpt lat="48.35373" lon="-4.3051">
        <ele>3.02</ele>
        <time>2019-08-23T10:18:44Z</time>
      </trkpt>
      <trkpt lat="48.35372" lon="-4.30507">
        <ele>2.54</ele>
        <time>2019-08-23T10:19:03Z</time>
      </trkpt>
      <trkpt lat="48.3537" lon="-4.30502">
        <ele>2.06</ele>
        <time>2019-08-23T10:19:36Z</time>
      </trkpt>
      <trkpt lat="48.3537" lon="-4.30501">
        <ele>2.54</ele>
        <time>2019-08-23T10:20:09Z</time>
      </trkpt>
      <trkpt lat="48.3537" lon="-4.30501">
        <ele>2.54</ele>
        <time>2019-08-23T10:20:44Z</time>
      </trkpt>
      <trkpt lat="48.3537" lon="-4.30501">
        <ele>3.5</ele>
        <time>2019-08-23T10:20:55Z</time>
      </trkpt>
      <trkpt lat="48.3537" lon="-4.30502">
        <ele>3.02</ele>
        <time>2019-08-23T10:21:05Z</time>
      </trkpt>
      <trkpt lat="48.35371" lon="-4.30504">
        <ele>3.5</ele>
        <time>2019-08-23T10:21:13Z</time>
      </trkpt>
      <trkpt lat="48.35373" lon="-4.30504">
        <ele>3.5</ele>
        <time>2019-08-23T10:21:14Z</time>
      </trkpt>
      <trkpt lat="48.35376" lon="-4.30506">
        <ele>3.5</ele>
        <time>2019-08-23T10:21:17Z</time>
      </trkpt>
      <trkpt lat="48.35377" lon="-4.30508">
        <ele>3.5</ele>
        <time>2019-08-23T10:21:18Z</time>
      </trkpt>
      <trkpt lat="48.35392" lon="-4.30517">
        <ele>3.5</ele>
        <time>2019-08-23T10:21:27Z</time>
      </trkpt>
      <trkpt lat="48.35407" lon="-4.30524">
        <ele>3.5</ele>
        <time>2019-08-23T10:21:34Z</time>
      </trkpt>
      <trkpt lat="48.35411" lon="-4.30524">
        <ele>3.02</ele>
        <time>2019-08-23T10:21:35Z</time>
      </trkpt>
      <trkpt lat="48.35414" lon="-4.30524">
        <ele>3.02</ele>
        <time>2019-08-23T10:21:36Z</time>
      </trkpt>
      <trkpt lat="48.35416" lon="-4.30523">
        <ele>3.02</ele>
        <time>2019-08-23T10:21:37Z</time>
      </trkpt>
      <trkpt lat="48.3542" lon="-4.30524">
        <ele>3.02</ele>
        <time>2019-08-23T10:21:38Z</time>
      </trkpt>
      <trkpt lat="48.35423" lon="-4.30523">
        <ele>3.02</ele>
        <time>2019-08-23T10:21:39Z</time>
      </trkpt>
      <trkpt lat="48.35425" lon="-4.30522">
        <ele>3.02</ele>
        <time>2019-08-23T10:21:40Z</time>
      </trkpt>
      <trkpt lat="48.35427" lon="-4.3052">
        <ele>3.5</ele>
        <time>2019-08-23T10:21:41Z</time>
      </trkpt>
      <trkpt lat="48.35428" lon="-4.30517">
        <ele>3.98</ele>
        <time>2019-08-23T10:21:42Z</time>
      </trkpt>
      <trkpt lat="48.35437" lon="-4.30485">
        <ele>3.98</ele>
        <time>2019-08-23T10:21:51Z</time>
      </trkpt>
      <trkpt lat="48.35439" lon="-4.30482">
        <ele>3.5</ele>
        <time>2019-08-23T10:21:52Z</time>
      </trkpt>
      <trkpt lat="48.35461" lon="-4.30449">
        <ele>4.94</ele>
        <time>2019-08-23T10:22:04Z</time>
      </trkpt>
      <trkpt lat="48.35484" lon="-4.30418">
        <ele>4.94</ele>
        <time>2019-08-23T10:22:15Z</time>
      </trkpt>
      <trkpt lat="48.35493" lon="-4.30409">
        <ele>5.42</ele>
        <time>2019-08-23T10:22:19Z</time>
      </trkpt>
      <trkpt lat="48.35513" lon="-4.30376">
        <ele>5.91</ele>
        <time>2019-08-23T10:22:30Z</time>
      </trkpt>
      <trkpt lat="48.35517" lon="-4.30369">
        <ele>5.91</ele>
        <time>2019-08-23T10:22:43Z</time>
      </trkpt>
      <trkpt lat="48.3552" lon="-4.3037">
        <ele>5.91</ele>
        <time>2019-08-23T10:22:57Z</time>
      </trkpt>
      <trkpt lat="48.35522" lon="-4.30371">
        <ele>6.39</ele>
        <time>2019-08-23T10:23:00Z</time>
      </trkpt>
      <trkpt lat="48.35536" lon="-4.30387">
        <ele>7.83</ele>
        <time>2019-08-23T10:23:11Z</time>
      </trkpt>
      <trkpt lat="48.35549" lon="-4.30397">
        <ele>8.79</ele>
        <time>2019-08-23T10:23:20Z</time>
      </trkpt>
      <trkpt lat="48.35571" lon="-4.30385">
        <ele>10.23</ele>
        <time>2019-08-23T10:23:33Z</time>
      </trkpt>
      <trkpt lat="48.35578" lon="-4.30381">
        <ele>10.23</ele>
        <time>2019-08-23T10:23:44Z</time>
      </trkpt>
      <trkpt lat="48.35596" lon="-4.30377">
        <ele>11.67</ele>
        <time>2019-08-23T10:24:00Z</time>
      </trkpt>
      <trkpt lat="48.35602" lon="-4.3038">
        <ele>11.67</ele>
        <time>2019-08-23T10:24:03Z</time>
      </trkpt>
      <trkpt lat="48.3562" lon="-4.30377">
        <ele>12.63</ele>
        <time>2019-08-23T10:24:12Z</time>
      </trkpt>
      <trkpt lat="48.35631" lon="-4.30371">
        <ele>13.6</ele>
        <time>2019-08-23T10:24:19Z</time>
      </trkpt>
      <trkpt lat="48.35675" lon="-4.3036">
        <ele>15.04</ele>
        <time>2019-08-23T10:24:35Z</time>
      </trkpt>
      <trkpt lat="48.35704" lon="-4.30353">
        <ele>16</ele>
        <time>2019-08-23T10:24:46Z</time>
      </trkpt>
      <trkpt lat="48.3573" lon="-4.30339">
        <ele>15.52</ele>
        <time>2019-08-23T10:24:56Z</time>
      </trkpt>
      <trkpt lat="48.35745" lon="-4.30334">
        <ele>16.48</ele>
        <time>2019-08-23T10:25:03Z</time>
      </trkpt>
      <trkpt lat="48.35771" lon="-4.30317">
        <ele>17.92</ele>
        <time>2019-08-23T10:25:15Z</time>
      </trkpt>
      <trkpt lat="48.3578" lon="-4.30313">
        <ele>17.92</ele>
        <time>2019-08-23T10:25:18Z</time>
      </trkpt>
      <trkpt lat="48.35802" lon="-4.30304">
        <ele>18.4</ele>
        <time>2019-08-23T10:25:26Z</time>
      </trkpt>
      <trkpt lat="48.35825" lon="-4.30297">
        <ele>19.36</ele>
        <time>2019-08-23T10:25:34Z</time>
      </trkpt>
      <trkpt lat="48.35848" lon="-4.30292">
        <ele>21.29</ele>
        <time>2019-08-23T10:25:44Z</time>
      </trkpt>
      <trkpt lat="48.35867" lon="-4.30286">
        <ele>21.77</ele>
        <time>2019-08-23T10:25:50Z</time>
      </trkpt>
      <trkpt lat="48.35872" lon="-4.3026">
        <ele>20.32</ele>
        <time>2019-08-23T10:25:56Z</time>
      </trkpt>
      <trkpt lat="48.3587" lon="-4.30255">
        <ele>19.84</ele>
        <time>2019-08-23T10:25:57Z</time>
      </trkpt>
      <trkpt lat="48.35867" lon="-4.3025">
        <ele>19.36</ele>
        <time>2019-08-23T10:25:58Z</time>
      </trkpt>
      <trkpt lat="48.35864" lon="-4.30243">
        <ele>18.88</ele>
        <time>2019-08-23T10:25:59Z</time>
      </trkpt>
      <trkpt lat="48.35861" lon="-4.30235">
        <ele>19.36</ele>
        <time>2019-08-23T10:26:00Z</time>
      </trkpt>
      <trkpt lat="48.35843" lon="-4.30192">
        <ele>16</ele>
        <time>2019-08-23T10:26:05Z</time>
      </trkpt>
      <trkpt lat="48.35818" lon="-4.30138">
        <ele>12.63</ele>
        <time>2019-08-23T10:26:11Z</time>
      </trkpt>
      <trkpt lat="48.35814" lon="-4.30128">
        <ele>12.63</ele>
        <time>2019-08-23T10:26:12Z</time>
      </trkpt>
      <trkpt lat="48.35767" lon="-4.30042">
        <ele>9.27</ele>
        <time>2019-08-23T10:26:21Z</time>
      </trkpt>
      <trkpt lat="48.35706" lon="-4.29948">
        <ele>5.91</ele>
        <time>2019-08-23T10:26:32Z</time>
      </trkpt>
      <trkpt lat="48.35657" lon="-4.29864">
        <ele>3.98</ele>
        <time>2019-08-23T10:26:43Z</time>
      </trkpt>
      <trkpt lat="48.35642" lon="-4.29825">
        <ele>3.5</ele>
        <time>2019-08-23T10:26:48Z</time>
      </trkpt>
      <trkpt lat="48.35639" lon="-4.29822">
        <ele>3.5</ele>
        <time>2019-08-23T10:26:49Z</time>
      </trkpt>
      <trkpt lat="48.35635" lon="-4.29821">
        <ele>3.5</ele>
        <time>2019-08-23T10:26:50Z</time>
      </trkpt>
      <trkpt lat="48.35632" lon="-4.29823">
        <ele>3.5</ele>
        <time>2019-08-23T10:26:51Z</time>
      </trkpt>
      <trkpt lat="48.35625" lon="-4.29827">
        <ele>3.98</ele>
        <time>2019-08-23T10:27:02Z</time>
      </trkpt>
      <trkpt lat="48.35625" lon="-4.2983">
        <ele>3.98</ele>
        <time>2019-08-23T10:27:15Z</time>
      </trkpt>
      <trkpt lat="48.35624" lon="-4.29831">
        <ele>4.46</ele>
        <time>2019-08-23T10:27:47Z</time>
      </trkpt>
      <trkpt lat="48.35624" lon="-4.29831">
        <ele>3.5</ele>
        <time>2019-08-23T10:27:51Z</time>
      </trkpt>
      <trkpt lat="48.3563" lon="-4.29815">
        <ele>4.94</ele>
        <time>2019-08-23T10:47:48Z</time>
      </trkpt>
      <trkpt lat="48.35629" lon="-4.29814">
        <ele>4.94</ele>
        <time>2019-08-23T10:47:49Z</time>
      </trkpt>
      <trkpt lat="48.35628" lon="-4.29829">
        <ele>4.46</ele>
        <time>2019-08-23T10:48:02Z</time>
      </trkpt>
      <trkpt lat="48.35634" lon="-4.29811">
        <ele>4.46</ele>
        <time>2019-08-23T10:48:08Z</time>
      </trkpt>
      <trkpt lat="48.35626" lon="-4.29774">
        <ele>3.98</ele>
        <time>2019-08-23T10:48:21Z</time>
      </trkpt>
      <trkpt lat="48.35603" lon="-4.29717">
        <ele>4.46</ele>
        <time>2019-08-23T10:48:34Z</time>
      </trkpt>
      <trkpt lat="48.35576" lon="-4.29641">
        <ele>4.94</ele>
        <time>2019-08-23T10:48:50Z</time>
      </trkpt>
      <trkpt lat="48.35578" lon="-4.29587">
        <ele>5.91</ele>
        <time>2019-08-23T10:49:02Z</time>
      </trkpt>
      <trkpt lat="48.35614" lon="-4.29561">
        <ele>7.83</ele>
        <time>2019-08-23T10:49:16Z</time>
      </trkpt>
      <trkpt lat="48.35634" lon="-4.29514">
        <ele>9.75</ele>
        <time>2019-08-23T10:49:30Z</time>
      </trkpt>
      <trkpt lat="48.35637" lon="-4.29498">
        <ele>10.23</ele>
        <time>2019-08-23T10:49:34Z</time>
      </trkpt>
      <trkpt lat="48.3564" lon="-4.29483">
        <ele>11.19</ele>
        <time>2019-08-23T10:49:38Z</time>
      </trkpt>
      <trkpt lat="48.35643" lon="-4.29468">
        <ele>11.67</ele>
        <time>2019-08-23T10:49:42Z</time>
      </trkpt>
      <trkpt lat="48.35651" lon="-4.29433">
        <ele>13.6</ele>
        <time>2019-08-23T10:49:53Z</time>
      </trkpt>
      <trkpt lat="48.35651" lon="-4.29429">
        <ele>13.6</ele>
        <time>2019-08-23T10:49:54Z</time>
      </trkpt>
      <trkpt lat="48.35653" lon="-4.29419">
        <ele>14.08</ele>
        <time>2019-08-23T10:49:57Z</time>
      </trkpt>
      <trkpt lat="48.35655" lon="-4.29406">
        <ele>15.04</ele>
        <time>2019-08-23T10:50:02Z</time>
      </trkpt>
      <trkpt lat="48.35657" lon="-4.29398">
        <ele>15.52</ele>
        <time>2019-08-23T10:50:05Z</time>
      </trkpt>
      <trkpt lat="48.35664" lon="-4.29387">
        <ele>16</ele>
        <time>2019-08-23T10:50:09Z</time>
      </trkpt>
      <trkpt lat="48.35675" lon="-4.29366">
        <ele>16.96</ele>
        <time>2019-08-23T10:50:16Z</time>
      </trkpt>
      <trkpt lat="48.35681" lon="-4.29342">
        <ele>17.92</ele>
        <time>2019-08-23T10:50:22Z</time>
      </trkpt>
      <trkpt lat="48.35684" lon="-4.29335">
        <ele>17.92</ele>
        <time>2019-08-23T10:50:24Z</time>
      </trkpt>
      <trkpt lat="48.35701" lon="-4.29324">
        <ele>17.92</ele>
        <time>2019-08-23T10:50:30Z</time>
      </trkpt>
      <trkpt lat="48.35739" lon="-4.29369">
        <ele>17.44</ele>
        <time>2019-08-23T10:50:42Z</time>
      </trkpt>
      <trkpt lat="48.35774" lon="-4.29426">
        <ele>17.44</ele>
        <time>2019-08-23T10:50:54Z</time>
      </trkpt>
      <trkpt lat="48.35778" lon="-4.29426">
        <ele>17.44</ele>
        <time>2019-08-23T10:50:55Z</time>
      </trkpt>
      <trkpt lat="48.35781" lon="-4.29424">
        <ele>17.92</ele>
        <time>2019-08-23T10:50:56Z</time>
      </trkpt>
      <trkpt lat="48.35784" lon="-4.29421">
        <ele>18.4</ele>
        <time>2019-08-23T10:50:57Z</time>
      </trkpt>
      <trkpt lat="48.35786" lon="-4.29418">
        <ele>18.4</ele>
        <time>2019-08-23T10:50:58Z</time>
      </trkpt>
      <trkpt lat="48.35796" lon="-4.29405">
        <ele>19.84</ele>
        <time>2019-08-23T10:51:04Z</time>
      </trkpt>
      <trkpt lat="48.35797" lon="-4.29403">
        <ele>19.84</ele>
        <time>2019-08-23T10:51:05Z</time>
      </trkpt>
      <trkpt lat="48.35799" lon="-4.29401">
        <ele>20.32</ele>
        <time>2019-08-23T10:51:06Z</time>
      </trkpt>
      <trkpt lat="48.358" lon="-4.29399">
        <ele>20.81</ele>
        <time>2019-08-23T10:51:07Z</time>
      </trkpt>
      <trkpt lat="48.35802" lon="-4.29397">
        <ele>20.81</ele>
        <time>2019-08-23T10:51:08Z</time>
      </trkpt>
      <trkpt lat="48.35823" lon="-4.29371">
        <ele>23.69</ele>
        <time>2019-08-23T10:51:22Z</time>
      </trkpt>
      <trkpt lat="48.35832" lon="-4.2936">
        <ele>25.13</ele>
        <time>2019-08-23T10:51:29Z</time>
      </trkpt>
      <trkpt lat="48.35833" lon="-4.29359">
        <ele>25.61</ele>
        <time>2019-08-23T10:51:30Z</time>
      </trkpt>
      <trkpt lat="48.35833" lon="-4.29357">
        <ele>25.61</ele>
        <time>2019-08-23T10:51:31Z</time>
      </trkpt>
      <trkpt lat="48.35835" lon="-4.29356">
        <ele>26.09</ele>
        <time>2019-08-23T10:51:32Z</time>
      </trkpt>
      <trkpt lat="48.35836" lon="-4.29354">
        <ele>26.09</ele>
        <time>2019-08-23T10:51:33Z</time>
      </trkpt>
      <trkpt lat="48.35854" lon="-4.2933">
        <ele>28.98</ele>
        <time>2019-08-23T10:51:48Z</time>
      </trkpt>
      <trkpt lat="48.35861" lon="-4.2932">
        <ele>30.42</ele>
        <time>2019-08-23T10:51:55Z</time>
      </trkpt>
      <trkpt lat="48.35862" lon="-4.29318">
        <ele>30.9</ele>
        <time>2019-08-23T10:51:56Z</time>
      </trkpt>
      <trkpt lat="48.35878" lon="-4.29303">
        <ele>33.78</ele>
        <time>2019-08-23T10:52:08Z</time>
      </trkpt>
      <trkpt lat="48.35897" lon="-4.29292">
        <ele>35.71</ele>
        <time>2019-08-23T10:52:21Z</time>
      </trkpt>
      <trkpt lat="48.35923" lon="-4.2928">
        <ele>38.59</ele>
        <time>2019-08-23T10:52:37Z</time>
      </trkpt>
      <trkpt lat="48.35945" lon="-4.2927">
        <ele>40.03</ele>
        <time>2019-08-23T10:52:49Z</time>
      </trkpt>
      <trkpt lat="48.35971" lon="-4.29258">
        <ele>40.99</ele>
        <time>2019-08-23T10:53:02Z</time>
      </trkpt>
      <trkpt lat="48.36012" lon="-4.29242">
        <ele>41.95</ele>
        <time>2019-08-23T10:53:18Z</time>
      </trkpt>
      <trkpt lat="48.36051" lon="-4.29233">
        <ele>43.4</ele>
        <time>2019-08-23T10:53:32Z</time>
      </trkpt>
      <trkpt lat="48.36081" lon="-4.29227">
        <ele>44.36</ele>
        <time>2019-08-23T10:53:43Z</time>
      </trkpt>
      <trkpt lat="48.36121" lon="-4.29223">
        <ele>45.32</ele>
        <time>2019-08-23T10:53:57Z</time>
      </trkpt>
      <trkpt lat="48.36169" lon="-4.29215">
        <ele>46.76</ele>
        <time>2019-08-23T10:54:12Z</time>
      </trkpt>
      <trkpt lat="48.36211" lon="-4.29195">
        <ele>46.76</ele>
        <time>2019-08-23T10:54:26Z</time>
      </trkpt>
      <trkpt lat="48.36266" lon="-4.29165">
        <ele>47.24</ele>
        <time>2019-08-23T10:54:43Z</time>
      </trkpt>
      <trkpt lat="48.36299" lon="-4.29146">
        <ele>48.2</ele>
        <time>2019-08-23T10:54:55Z</time>
      </trkpt>
      <trkpt lat="48.36324" lon="-4.29091">
        <ele>48.68</ele>
        <time>2019-08-23T10:55:08Z</time>
      </trkpt>
      <trkpt lat="48.36333" lon="-4.29">
        <ele>48.2</ele>
        <time>2019-08-23T10:55:23Z</time>
      </trkpt>
      <trkpt lat="48.36343" lon="-4.28922">
        <ele>49.65</ele>
        <time>2019-08-23T10:55:37Z</time>
      </trkpt>
      <trkpt lat="48.36346" lon="-4.28919">
        <ele>50.13</ele>
        <time>2019-08-23T10:55:38Z</time>
      </trkpt>
      <trkpt lat="48.36349" lon="-4.28918">
        <ele>50.13</ele>
        <time>2019-08-23T10:55:39Z</time>
      </trkpt>
      <trkpt lat="48.36353" lon="-4.28918">
        <ele>50.61</ele>
        <time>2019-08-23T10:55:40Z</time>
      </trkpt>
      <trkpt lat="48.36356" lon="-4.28919">
        <ele>50.61</ele>
        <time>2019-08-23T10:55:41Z</time>
      </trkpt>
      <trkpt lat="48.36412" lon="-4.28952">
        <ele>52.05</ele>
        <time>2019-08-23T10:55:56Z</time>
      </trkpt>
      <trkpt lat="48.36461" lon="-4.2898">
        <ele>52.05</ele>
        <time>2019-08-23T10:56:09Z</time>
      </trkpt>
      <trkpt lat="48.36464" lon="-4.28983">
        <ele>52.05</ele>
        <time>2019-08-23T10:56:10Z</time>
      </trkpt>
      <trkpt lat="48.36468" lon="-4.28985">
        <ele>51.57</ele>
        <time>2019-08-23T10:56:11Z</time>
      </trkpt>
      <trkpt lat="48.36473" lon="-4.28987">
        <ele>51.57</ele>
        <time>2019-08-23T10:56:12Z</time>
      </trkpt>
      <trkpt lat="48.36536" lon="-4.28997">
        <ele>52.05</ele>
        <time>2019-08-23T10:56:26Z</time>
      </trkpt>
      <trkpt lat="48.36557" lon="-4.28994">
        <ele>52.53</ele>
        <time>2019-08-23T10:56:31Z</time>
      </trkpt>
      <trkpt lat="48.36561" lon="-4.28993">
        <ele>53.01</ele>
        <time>2019-08-23T10:56:32Z</time>
      </trkpt>
      <trkpt lat="48.36619" lon="-4.28973">
        <ele>55.41</ele>
        <time>2019-08-23T10:56:47Z</time>
      </trkpt>
      <trkpt lat="48.36625" lon="-4.28976">
        <ele>55.89</ele>
        <time>2019-08-23T10:56:49Z</time>
      </trkpt>
      <trkpt lat="48.36628" lon="-4.2898">
        <ele>56.37</ele>
        <time>2019-08-23T10:56:50Z</time>
      </trkpt>
      <trkpt lat="48.3663" lon="-4.28985">
        <ele>56.37</ele>
        <time>2019-08-23T10:56:51Z</time>
      </trkpt>
      <trkpt lat="48.36631" lon="-4.28991">
        <ele>56.37</ele>
        <time>2019-08-23T10:56:52Z</time>
      </trkpt>
      <trkpt lat="48.36632" lon="-4.28996">
        <ele>56.37</ele>
        <time>2019-08-23T10:56:53Z</time>
      </trkpt>
      <trkpt lat="48.36634" lon="-4.29002">
        <ele>55.89</ele>
        <time>2019-08-23T10:56:54Z</time>
      </trkpt>
      <trkpt lat="48.36659" lon="-4.29104">
        <ele>55.89</ele>
        <time>2019-08-23T10:57:10Z</time>
      </trkpt>
      <trkpt lat="48.36673" lon="-4.29158">
        <ele>55.41</ele>
        <time>2019-08-23T10:57:18Z</time>
      </trkpt>
      <trkpt lat="48.3669" lon="-4.2919">
        <ele>55.41</ele>
        <time>2019-08-23T10:57:24Z</time>
      </trkpt>
      <trkpt lat="48.36694" lon="-4.29194">
        <ele>55.89</ele>
        <time>2019-08-23T10:57:25Z</time>
      </trkpt>
      <trkpt lat="48.36749" lon="-4.29251">
        <ele>58.78</ele>
        <time>2019-08-23T10:57:42Z</time>
      </trkpt>
      <trkpt lat="48.36781" lon="-4.29266">
        <ele>61.66</ele>
        <time>2019-08-23T10:57:54Z</time>
      </trkpt>
      <trkpt lat="48.36809" lon="-4.29247">
        <ele>65.03</ele>
        <time>2019-08-23T10:58:07Z</time>
      </trkpt>
      <trkpt lat="48.36833" lon="-4.29223">
        <ele>67.91</ele>
        <time>2019-08-23T10:58:21Z</time>
      </trkpt>
      <trkpt lat="48.36856" lon="-4.29204">
        <ele>70.79</ele>
        <time>2019-08-23T10:58:34Z</time>
      </trkpt>
      <trkpt lat="48.3688" lon="-4.29189">
        <ele>74.16</ele>
        <time>2019-08-23T10:58:47Z</time>
      </trkpt>
      <trkpt lat="48.369" lon="-4.29178">
        <ele>77.04</ele>
        <time>2019-08-23T10:58:59Z</time>
      </trkpt>
      <trkpt lat="48.36921" lon="-4.29171">
        <ele>78.97</ele>
        <time>2019-08-23T10:59:11Z</time>
      </trkpt>
      <trkpt lat="48.36947" lon="-4.29171">
        <ele>81.37</ele>
        <time>2019-08-23T10:59:25Z</time>
      </trkpt>
      <trkpt lat="48.36986" lon="-4.29182">
        <ele>82.33</ele>
        <time>2019-08-23T10:59:40Z</time>
      </trkpt>
      <trkpt lat="48.37042" lon="-4.29201">
        <ele>82.81</ele>
        <time>2019-08-23T10:59:56Z</time>
      </trkpt>
      <trkpt lat="48.37087" lon="-4.29228">
        <ele>83.29</ele>
        <time>2019-08-23T11:00:10Z</time>
      </trkpt>
      <trkpt lat="48.37088" lon="-4.29233">
        <ele>83.29</ele>
        <time>2019-08-23T11:00:11Z</time>
      </trkpt>
      <trkpt lat="48.37088" lon="-4.29239">
        <ele>83.29</ele>
        <time>2019-08-23T11:00:12Z</time>
      </trkpt>
      <trkpt lat="48.37087" lon="-4.29246">
        <ele>83.29</ele>
        <time>2019-08-23T11:00:13Z</time>
      </trkpt>
      <trkpt lat="48.37086" lon="-4.29252">
        <ele>82.33</ele>
        <time>2019-08-23T11:00:14Z</time>
      </trkpt>
      <trkpt lat="48.37084" lon="-4.29258">
        <ele>81.85</ele>
        <time>2019-08-23T11:00:15Z</time>
      </trkpt>
      <trkpt lat="48.37083" lon="-4.29265">
        <ele>81.37</ele>
        <time>2019-08-23T11:00:16Z</time>
      </trkpt>
      <trkpt lat="48.37083" lon="-4.29272">
        <ele>81.37</ele>
        <time>2019-08-23T11:00:17Z</time>
      </trkpt>
      <trkpt lat="48.37082" lon="-4.29279">
        <ele>80.89</ele>
        <time>2019-08-23T11:00:18Z</time>
      </trkpt>
      <trkpt lat="48.3708" lon="-4.29293">
        <ele>79.93</ele>
        <time>2019-08-23T11:00:20Z</time>
      </trkpt>
      <trkpt lat="48.3708" lon="-4.29305">
        <ele>79.93</ele>
        <time>2019-08-23T11:00:22Z</time>
      </trkpt>
      <trkpt lat="48.37082" lon="-4.2931">
        <ele>79.45</ele>
        <time>2019-08-23T11:00:23Z</time>
      </trkpt>
      <trkpt lat="48.37085" lon="-4.29315">
        <ele>78.97</ele>
        <time>2019-08-23T11:00:24Z</time>
      </trkpt>
      <trkpt lat="48.37089" lon="-4.29318">
        <ele>78.97</ele>
        <time>2019-08-23T11:00:25Z</time>
      </trkpt>
      <trkpt lat="48.37092" lon="-4.2932">
        <ele>78.97</ele>
        <time>2019-08-23T11:00:26Z</time>
      </trkpt>
      <trkpt lat="48.37139" lon="-4.29334">
        <ele>78</ele>
        <time>2019-08-23T11:00:39Z</time>
      </trkpt>
      <trkpt lat="48.37159" lon="-4.2934">
        <ele>77.04</ele>
        <time>2019-08-23T11:00:46Z</time>
      </trkpt>
      <trkpt lat="48.372" lon="-4.29353">
        <ele>74.64</ele>
        <time>2019-08-23T11:00:56Z</time>
      </trkpt>
      <trkpt lat="48.3722" lon="-4.2936">
        <ele>74.16</ele>
        <time>2019-08-23T11:01:05Z</time>
      </trkpt>
      <trkpt lat="48.37222" lon="-4.29365">
        <ele>74.64</ele>
        <time>2019-08-23T11:01:09Z</time>
      </trkpt>
      <trkpt lat="48.37222" lon="-4.29365">
        <ele>74.16</ele>
        <time>2019-08-23T11:01:10Z</time>
      </trkpt>
      <trkpt lat="48.3722" lon="-4.29364">
        <ele>74.16</ele>
        <time>2019-08-23T11:01:11Z</time>
      </trkpt>
      <trkpt lat="48.37218" lon="-4.29363">
        <ele>74.16</ele>
        <time>2019-08-23T11:01:12Z</time>
      </trkpt>
      <trkpt lat="48.37217" lon="-4.29363">
        <ele>74.64</ele>
        <time>2019-08-23T11:01:13Z</time>
      </trkpt>
      <trkpt lat="48.37215" lon="-4.29362">
        <ele>74.64</ele>
        <time>2019-08-23T11:01:14Z</time>
      </trkpt>
      <trkpt lat="48.37213" lon="-4.29361">
        <ele>74.64</ele>
        <time>2019-08-23T11:01:15Z</time>
      </trkpt>
      <trkpt lat="48.37211" lon="-4.29361">
        <ele>74.64</ele>
        <time>2019-08-23T11:01:16Z</time>
      </trkpt>
      <trkpt lat="48.37209" lon="-4.2936">
        <ele>74.64</ele>
        <time>2019-08-23T11:01:17Z</time>
      </trkpt>
      <trkpt lat="48.37207" lon="-4.29361">
        <ele>75.12</ele>
        <time>2019-08-23T11:01:18Z</time>
      </trkpt>
      <trkpt lat="48.37206" lon="-4.29362">
        <ele>75.12</ele>
        <time>2019-08-23T11:01:19Z</time>
      </trkpt>
      <trkpt lat="48.37205" lon="-4.29365">
        <ele>75.12</ele>
        <time>2019-08-23T11:01:20Z</time>
      </trkpt>
      <trkpt lat="48.37206" lon="-4.29367">
        <ele>75.12</ele>
        <time>2019-08-23T11:01:21Z</time>
      </trkpt>
      <trkpt lat="48.37215" lon="-4.2939">
        <ele>71.76</ele>
        <time>2019-08-23T11:01:30Z</time>
      </trkpt>
      <trkpt lat="48.37223" lon="-4.29414">
        <ele>69.83</ele>
        <time>2019-08-23T11:01:35Z</time>
      </trkpt>
      <trkpt lat="48.37226" lon="-4.2942">
        <ele>68.87</ele>
        <time>2019-08-23T11:01:36Z</time>
      </trkpt>
      <trkpt lat="48.37228" lon="-4.29426">
        <ele>68.39</ele>
        <time>2019-08-23T11:01:37Z</time>
      </trkpt>
      <trkpt lat="48.3723" lon="-4.29431">
        <ele>67.91</ele>
        <time>2019-08-23T11:01:38Z</time>
      </trkpt>
      <trkpt lat="48.37233" lon="-4.29438">
        <ele>66.95</ele>
        <time>2019-08-23T11:01:39Z</time>
      </trkpt>
      <trkpt lat="48.37237" lon="-4.29445">
        <ele>66.47</ele>
        <time>2019-08-23T11:01:40Z</time>
      </trkpt>
      <trkpt lat="48.3724" lon="-4.29452">
        <ele>65.99</ele>
        <time>2019-08-23T11:01:41Z</time>
      </trkpt>
      <trkpt lat="48.37244" lon="-4.2946">
        <ele>65.51</ele>
        <time>2019-08-23T11:01:42Z</time>
      </trkpt>
      <trkpt lat="48.37247" lon="-4.29468">
        <ele>64.55</ele>
        <time>2019-08-23T11:01:43Z</time>
      </trkpt>
      <trkpt lat="48.3725" lon="-4.29477">
        <ele>63.58</ele>
        <time>2019-08-23T11:01:44Z</time>
      </trkpt>
      <trkpt lat="48.37253" lon="-4.29488">
        <ele>63.1</ele>
        <time>2019-08-23T11:01:45Z</time>
      </trkpt>
      <trkpt lat="48.37255" lon="-4.29499">
        <ele>62.62</ele>
        <time>2019-08-23T11:01:46Z</time>
      </trkpt>
      <trkpt lat="48.37257" lon="-4.2951">
        <ele>61.18</ele>
        <time>2019-08-23T11:01:47Z</time>
      </trkpt>
      <trkpt lat="48.37265" lon="-4.29577">
        <ele>57.34</ele>
        <time>2019-08-23T11:01:53Z</time>
      </trkpt>
      <trkpt lat="48.37268" lon="-4.29587">
        <ele>56.86</ele>
        <time>2019-08-23T11:01:54Z</time>
      </trkpt>
      <trkpt lat="48.37274" lon="-4.29607">
        <ele>54.45</ele>
        <time>2019-08-23T11:01:56Z</time>
      </trkpt>
      <trkpt lat="48.37297" lon="-4.29655">
        <ele>50.61</ele>
        <time>2019-08-23T11:02:01Z</time>
      </trkpt>
      <trkpt lat="48.37307" lon="-4.29674">
        <ele>48.2</ele>
        <time>2019-08-23T11:02:03Z</time>
      </trkpt>
      <trkpt lat="48.37311" lon="-4.29684">
        <ele>46.76</ele>
        <time>2019-08-23T11:02:04Z</time>
      </trkpt>
      <trkpt lat="48.37328" lon="-4.29719">
        <ele>43.4</ele>
        <time>2019-08-23T11:02:08Z</time>
      </trkpt>
      <trkpt lat="48.37351" lon="-4.29759">
        <ele>40.03</ele>
        <time>2019-08-23T11:02:13Z</time>
      </trkpt>
      <trkpt lat="48.37367" lon="-4.29796">
        <ele>37.15</ele>
        <time>2019-08-23T11:02:17Z</time>
      </trkpt>
      <trkpt lat="48.37374" lon="-4.29814">
        <ele>36.67</ele>
        <time>2019-08-23T11:02:19Z</time>
      </trkpt>
      <trkpt lat="48.37378" lon="-4.29821">
        <ele>36.19</ele>
        <time>2019-08-23T11:02:20Z</time>
      </trkpt>
      <trkpt lat="48.374" lon="-4.29874">
        <ele>32.82</ele>
        <time>2019-08-23T11:02:29Z</time>
      </trkpt>
      <trkpt lat="48.37405" lon="-4.29892">
        <ele>30.9</ele>
        <time>2019-08-23T11:02:32Z</time>
      </trkpt>
      <trkpt lat="48.37407" lon="-4.299">
        <ele>30.42</ele>
        <time>2019-08-23T11:02:33Z</time>
      </trkpt>
      <trkpt lat="48.37408" lon="-4.29907">
        <ele>29.94</ele>
        <time>2019-08-23T11:02:34Z</time>
      </trkpt>
      <trkpt lat="48.37413" lon="-4.29932">
        <ele>29.46</ele>
        <time>2019-08-23T11:02:37Z</time>
      </trkpt>
      <trkpt lat="48.37415" lon="-4.29942">
        <ele>28.98</ele>
        <time>2019-08-23T11:02:38Z</time>
      </trkpt>
      <trkpt lat="48.37417" lon="-4.29951">
        <ele>28.98</ele>
        <time>2019-08-23T11:02:39Z</time>
      </trkpt>
      <trkpt lat="48.37419" lon="-4.29959">
        <ele>28.98</ele>
        <time>2019-08-23T11:02:40Z</time>
      </trkpt>
      <trkpt lat="48.37422" lon="-4.29968">
        <ele>28.5</ele>
        <time>2019-08-23T11:02:41Z</time>
      </trkpt>
      <trkpt lat="48.37452" lon="-4.30015">
        <ele>28.98</ele>
        <time>2019-08-23T11:02:49Z</time>
      </trkpt>
      <trkpt lat="48.37473" lon="-4.30055">
        <ele>30.42</ele>
        <time>2019-08-23T11:02:58Z</time>
      </trkpt>
      <trkpt lat="48.37475" lon="-4.30064">
        <ele>30.42</ele>
        <time>2019-08-23T11:03:00Z</time>
      </trkpt>
      <trkpt lat="48.3748" lon="-4.30082">
        <ele>31.38</ele>
        <time>2019-08-23T11:03:05Z</time>
      </trkpt>
      <trkpt lat="48.3748" lon="-4.30085">
        <ele>31.38</ele>
        <time>2019-08-23T11:03:06Z</time>
      </trkpt>
      <trkpt lat="48.3748" lon="-4.30091">
        <ele>31.86</ele>
        <time>2019-08-23T11:03:09Z</time>
      </trkpt>
      <trkpt lat="48.37481" lon="-4.30094">
        <ele>31.86</ele>
        <time>2019-08-23T11:03:10Z</time>
      </trkpt>
      <trkpt lat="48.37483" lon="-4.301">
        <ele>32.34</ele>
        <time>2019-08-23T11:03:12Z</time>
      </trkpt>
      <trkpt lat="48.37487" lon="-4.30111">
        <ele>33.3</ele>
        <time>2019-08-23T11:03:16Z</time>
      </trkpt>
      <trkpt lat="48.37487" lon="-4.30113">
        <ele>33.3</ele>
        <time>2019-08-23T11:03:17Z</time>
      </trkpt>
      <trkpt lat="48.37508" lon="-4.30094">
        <ele>34.74</ele>
        <time>2019-08-23T11:03:30Z</time>
      </trkpt>
      <trkpt lat="48.37509" lon="-4.30093">
        <ele>34.74</ele>
        <time>2019-08-23T11:03:31Z</time>
      </trkpt>
      <trkpt lat="48.37524" lon="-4.30072">
        <ele>35.71</ele>
        <time>2019-08-23T11:03:41Z</time>
      </trkpt>
      <trkpt lat="48.37542" lon="-4.30048">
        <ele>35.71</ele>
        <time>2019-08-23T11:03:50Z</time>
      </trkpt>
      <trkpt lat="48.37568" lon="-4.30014">
        <ele>36.67</ele>
        <time>2019-08-23T11:04:03Z</time>
      </trkpt>
      <trkpt lat="48.37593" lon="-4.29987">
        <ele>37.63</ele>
        <time>2019-08-23T11:04:15Z</time>
      </trkpt>
      <trkpt lat="48.37611" lon="-4.29954">
        <ele>39.07</ele>
        <time>2019-08-23T11:04:27Z</time>
      </trkpt>
      <trkpt lat="48.37624" lon="-4.29913">
        <ele>39.55</ele>
        <time>2019-08-23T11:04:39Z</time>
      </trkpt>
      <trkpt lat="48.37632" lon="-4.29853">
        <ele>38.11</ele>
        <time>2019-08-23T11:04:52Z</time>
      </trkpt>
      <trkpt lat="48.37653" lon="-4.29821">
        <ele>38.59</ele>
        <time>2019-08-23T11:05:05Z</time>
      </trkpt>
      <trkpt lat="48.37687" lon="-4.29772">
        <ele>40.03</ele>
        <time>2019-08-23T11:05:22Z</time>
      </trkpt>
      <trkpt lat="48.37692" lon="-4.29769">
        <ele>40.51</ele>
        <time>2019-08-23T11:05:24Z</time>
      </trkpt>
      <trkpt lat="48.37694" lon="-4.29769">
        <ele>40.51</ele>
        <time>2019-08-23T11:05:25Z</time>
      </trkpt>
      <trkpt lat="48.37697" lon="-4.29769">
        <ele>40.99</ele>
        <time>2019-08-23T11:05:26Z</time>
      </trkpt>
      <trkpt lat="48.37699" lon="-4.2977">
        <ele>40.99</ele>
        <time>2019-08-23T11:05:27Z</time>
      </trkpt>
      <trkpt lat="48.37702" lon="-4.2977">
        <ele>41.47</ele>
        <time>2019-08-23T11:05:28Z</time>
      </trkpt>
      <trkpt lat="48.37721" lon="-4.29791">
        <ele>44.36</ele>
        <time>2019-08-23T11:05:40Z</time>
      </trkpt>
      <trkpt lat="48.37732" lon="-4.29808">
        <ele>46.28</ele>
        <time>2019-08-23T11:05:53Z</time>
      </trkpt>
      <trkpt lat="48.37733" lon="-4.2981">
        <ele>46.28</ele>
        <time>2019-08-23T11:06:20Z</time>
      </trkpt>
      <trkpt lat="48.37734" lon="-4.2981">
        <ele>46.76</ele>
        <time>2019-08-23T11:06:48Z</time>
      </trkpt>
      <trkpt lat="48.37735" lon="-4.29807">
        <ele>46.28</ele>
        <time>2019-08-23T11:07:09Z</time>
      </trkpt>
      <trkpt lat="48.37735" lon="-4.29802">
        <ele>46.76</ele>
        <time>2019-08-23T11:07:23Z</time>
      </trkpt>
      <trkpt lat="48.37734" lon="-4.298">
        <ele>46.76</ele>
        <time>2019-08-23T11:07:54Z</time>
      </trkpt>
      <trkpt lat="48.37734" lon="-4.29799">
        <ele>46.76</ele>
        <time>2019-08-23T11:08:25Z</time>
      </trkpt>
      <trkpt lat="48.37733" lon="-4.29799">
        <ele>46.76</ele>
        <time>2019-08-23T11:08:54Z</time>
      </trkpt>
      <trkpt lat="48.37734" lon="-4.298">
        <ele>46.76</ele>
        <time>2019-08-23T11:09:08Z</time>
      </trkpt>
      <trkpt lat="48.37735" lon="-4.298">
        <ele>46.76</ele>
        <time>2019-08-23T11:09:09Z</time>
      </trkpt>
      <trkpt lat="48.37736" lon="-4.29801">
        <ele>46.76</ele>
        <time>2019-08-23T11:09:10Z</time>
      </trkpt>
      <trkpt lat="48.37737" lon="-4.29802">
        <ele>46.76</ele>
        <time>2019-08-23T11:09:11Z</time>
      </trkpt>
      <trkpt lat="48.37738" lon="-4.29803">
        <ele>46.76</ele>
        <time>2019-08-23T11:09:12Z</time>
      </trkpt>
      <trkpt lat="48.37739" lon="-4.29805">
        <ele>46.76</ele>
        <time>2019-08-23T11:09:13Z</time>
      </trkpt>
      <trkpt lat="48.37739" lon="-4.29807">
        <ele>46.76</ele>
        <time>2019-08-23T11:09:14Z</time>
      </trkpt>
      <trkpt lat="48.37738" lon="-4.29809">
        <ele>44.84</ele>
        <time>2019-08-23T11:09:15Z</time>
      </trkpt>
      <trkpt lat="48.37737" lon="-4.29812">
        <ele>47.72</ele>
        <time>2019-08-23T11:09:16Z</time>
      </trkpt>
      <trkpt lat="48.37737" lon="-4.29814">
        <ele>46.76</ele>
        <time>2019-08-23T11:09:17Z</time>
      </trkpt>
      <trkpt lat="48.37722" lon="-4.29852">
        <ele>47.24</ele>
        <time>2019-08-23T11:09:30Z</time>
      </trkpt>
      <trkpt lat="48.37708" lon="-4.29891">
        <ele>47.72</ele>
        <time>2019-08-23T11:09:40Z</time>
      </trkpt>
      <trkpt lat="48.3769" lon="-4.29936">
        <ele>48.68</ele>
        <time>2019-08-23T11:09:51Z</time>
      </trkpt>
      <trkpt lat="48.37663" lon="-4.29999">
        <ele>51.09</ele>
        <time>2019-08-23T11:10:06Z</time>
      </trkpt>
      <trkpt lat="48.37627" lon="-4.30081">
        <ele>53.97</ele>
        <time>2019-08-23T11:10:25Z</time>
      </trkpt>
      <trkpt lat="48.37602" lon="-4.30138">
        <ele>55.89</ele>
        <time>2019-08-23T11:10:38Z</time>
      </trkpt>
      <trkpt lat="48.37576" lon="-4.30203">
        <ele>57.82</ele>
        <time>2019-08-23T11:10:53Z</time>
      </trkpt>
      <trkpt lat="48.37548" lon="-4.30288">
        <ele>60.7</ele>
        <time>2019-08-23T11:11:11Z</time>
      </trkpt>
      <trkpt lat="48.37537" lon="-4.30375">
        <ele>63.1</ele>
        <time>2019-08-23T11:11:28Z</time>
      </trkpt>
      <trkpt lat="48.37536" lon="-4.30457">
        <ele>65.51</ele>
        <time>2019-08-23T11:11:44Z</time>
      </trkpt>
      <trkpt lat="48.37538" lon="-4.30514">
        <ele>64.07</ele>
        <time>2019-08-23T11:11:56Z</time>
      </trkpt>
      <trkpt lat="48.37547" lon="-4.30561">
        <ele>63.58</ele>
        <time>2019-08-23T11:12:07Z</time>
      </trkpt>
      <trkpt lat="48.37555" lon="-4.30616">
        <ele>63.1</ele>
        <time>2019-08-23T11:12:17Z</time>
      </trkpt>
      <trkpt lat="48.37564" lon="-4.30645">
        <ele>63.1</ele>
        <time>2019-08-23T11:12:22Z</time>
      </trkpt>
      <trkpt lat="48.37601" lon="-4.30728">
        <ele>64.55</ele>
        <time>2019-08-23T11:12:37Z</time>
      </trkpt>
      <trkpt lat="48.37637" lon="-4.30786">
        <ele>66.95</ele>
        <time>2019-08-23T11:12:52Z</time>
      </trkpt>
      <trkpt lat="48.37674" lon="-4.30849">
        <ele>67.43</ele>
        <time>2019-08-23T11:13:07Z</time>
      </trkpt>
      <trkpt lat="48.37712" lon="-4.30914">
        <ele>68.39</ele>
        <time>2019-08-23T11:13:21Z</time>
      </trkpt>
      <trkpt lat="48.37742" lon="-4.30976">
        <ele>66.95</ele>
        <time>2019-08-23T11:13:32Z</time>
      </trkpt>
      <trkpt lat="48.37753" lon="-4.31003">
        <ele>66.95</ele>
        <time>2019-08-23T11:13:36Z</time>
      </trkpt>
      <trkpt lat="48.37762" lon="-4.31031">
        <ele>66.47</ele>
        <time>2019-08-23T11:13:40Z</time>
      </trkpt>
      <trkpt lat="48.37764" lon="-4.31039">
        <ele>66.47</ele>
        <time>2019-08-23T11:13:41Z</time>
      </trkpt>
      <trkpt lat="48.3777" lon="-4.31069">
        <ele>66.47</ele>
        <time>2019-08-23T11:13:45Z</time>
      </trkpt>
      <trkpt lat="48.37772" lon="-4.31076">
        <ele>66.47</ele>
        <time>2019-08-23T11:13:46Z</time>
      </trkpt>
      <trkpt lat="48.37775" lon="-4.31083">
        <ele>67.43</ele>
        <time>2019-08-23T11:13:47Z</time>
      </trkpt>
      <trkpt lat="48.37776" lon="-4.3109">
        <ele>66.47</ele>
        <time>2019-08-23T11:13:48Z</time>
      </trkpt>
      <trkpt lat="48.37778" lon="-4.31098">
        <ele>66.47</ele>
        <time>2019-08-23T11:13:49Z</time>
      </trkpt>
      <trkpt lat="48.37787" lon="-4.31176">
        <ele>65.03</ele>
        <time>2019-08-23T11:13:59Z</time>
      </trkpt>
      <trkpt lat="48.37788" lon="-4.31185">
        <ele>65.03</ele>
        <time>2019-08-23T11:14:00Z</time>
      </trkpt>
      <trkpt lat="48.37788" lon="-4.31193">
        <ele>65.03</ele>
        <time>2019-08-23T11:14:01Z</time>
      </trkpt>
      <trkpt lat="48.37792" lon="-4.31297">
        <ele>61.66</ele>
        <time>2019-08-23T11:14:11Z</time>
      </trkpt>
      <trkpt lat="48.37795" lon="-4.31403">
        <ele>58.3</ele>
        <time>2019-08-23T11:14:20Z</time>
      </trkpt>
      <trkpt lat="48.37792" lon="-4.31468">
        <ele>55.89</ele>
        <time>2019-08-23T11:14:25Z</time>
      </trkpt>
      <trkpt lat="48.37787" lon="-4.31508">
        <ele>53.97</ele>
        <time>2019-08-23T11:14:28Z</time>
      </trkpt>
      <trkpt lat="48.37785" lon="-4.31522">
        <ele>53.01</ele>
        <time>2019-08-23T11:14:29Z</time>
      </trkpt>
      <trkpt lat="48.37781" lon="-4.31597">
        <ele>50.13</ele>
        <time>2019-08-23T11:14:34Z</time>
      </trkpt>
      <trkpt lat="48.37788" lon="-4.31702">
        <ele>46.76</ele>
        <time>2019-08-23T11:14:41Z</time>
      </trkpt>
      <trkpt lat="48.37795" lon="-4.31794">
        <ele>43.4</ele>
        <time>2019-08-23T11:14:47Z</time>
      </trkpt>
      <trkpt lat="48.37802" lon="-4.31899">
        <ele>40.51</ele>
        <time>2019-08-23T11:14:54Z</time>
      </trkpt>
      <trkpt lat="48.37838" lon="-4.32039">
        <ele>37.63</ele>
        <time>2019-08-23T11:15:05Z</time>
      </trkpt>
      <trkpt lat="48.37888" lon="-4.32157">
        <ele>39.07</ele>
        <time>2019-08-23T11:15:18Z</time>
      </trkpt>
      <trkpt lat="48.37902" lon="-4.32202">
        <ele>40.03</ele>
        <time>2019-08-23T11:15:24Z</time>
      </trkpt>
      <trkpt lat="48.37914" lon="-4.32281">
        <ele>41.47</ele>
        <time>2019-08-23T11:15:35Z</time>
      </trkpt>
      <trkpt lat="48.37914" lon="-4.32287">
        <ele>41.47</ele>
        <time>2019-08-23T11:15:36Z</time>
      </trkpt>
      <trkpt lat="48.37915" lon="-4.32308">
        <ele>43.4</ele>
        <time>2019-08-23T11:15:39Z</time>
      </trkpt>
      <trkpt lat="48.37916" lon="-4.3237">
        <ele>42.92</ele>
        <time>2019-08-23T11:15:48Z</time>
      </trkpt>
      <trkpt lat="48.37917" lon="-4.32384">
        <ele>42.92</ele>
        <time>2019-08-23T11:15:50Z</time>
      </trkpt>
      <trkpt lat="48.37915" lon="-4.32446">
        <ele>43.88</ele>
        <time>2019-08-23T11:15:59Z</time>
      </trkpt>
      <trkpt lat="48.37915" lon="-4.32531">
        <ele>45.8</ele>
        <time>2019-08-23T11:16:13Z</time>
      </trkpt>
      <trkpt lat="48.37915" lon="-4.32601">
        <ele>49.16</ele>
        <time>2019-08-23T11:16:27Z</time>
      </trkpt>
      <trkpt lat="48.37919" lon="-4.32649">
        <ele>51.57</ele>
        <time>2019-08-23T11:16:39Z</time>
      </trkpt>
      <trkpt lat="48.37933" lon="-4.32722">
        <ele>53.97</ele>
        <time>2019-08-23T11:16:56Z</time>
      </trkpt>
      <trkpt lat="48.3794" lon="-4.3276">
        <ele>54.45</ele>
        <time>2019-08-23T11:17:05Z</time>
      </trkpt>
      <trkpt lat="48.37939" lon="-4.32762">
        <ele>54.45</ele>
        <time>2019-08-23T11:17:06Z</time>
      </trkpt>
      <trkpt lat="48.37938" lon="-4.32764">
        <ele>54.45</ele>
        <time>2019-08-23T11:17:07Z</time>
      </trkpt>
      <trkpt lat="48.37936" lon="-4.32765">
        <ele>54.45</ele>
        <time>2019-08-23T11:17:08Z</time>
      </trkpt>
      <trkpt lat="48.37935" lon="-4.32765">
        <ele>54.45</ele>
        <time>2019-08-23T11:17:09Z</time>
      </trkpt>
      <trkpt lat="48.37934" lon="-4.32764">
        <ele>54.45</ele>
        <time>2019-08-23T11:17:10Z</time>
      </trkpt>
      <trkpt lat="48.37932" lon="-4.32763">
        <ele>54.45</ele>
        <time>2019-08-23T11:17:11Z</time>
      </trkpt>
      <trkpt lat="48.37931" lon="-4.32761">
        <ele>54.45</ele>
        <time>2019-08-23T11:17:12Z</time>
      </trkpt>
      <trkpt lat="48.3793" lon="-4.3276">
        <ele>54.45</ele>
        <time>2019-08-23T11:17:13Z</time>
      </trkpt>
      <trkpt lat="48.37929" lon="-4.32758">
        <ele>54.45</ele>
        <time>2019-08-23T11:17:14Z</time>
      </trkpt>
      <trkpt lat="48.37928" lon="-4.32757">
        <ele>54.45</ele>
        <time>2019-08-23T11:17:15Z</time>
      </trkpt>
      <trkpt lat="48.37927" lon="-4.32755">
        <ele>54.45</ele>
        <time>2019-08-23T11:17:16Z</time>
      </trkpt>
      <trkpt lat="48.37925" lon="-4.32752">
        <ele>54.93</ele>
        <time>2019-08-23T11:17:17Z</time>
      </trkpt>
      <trkpt lat="48.37915" lon="-4.32737">
        <ele>54.45</ele>
        <time>2019-08-23T11:17:25Z</time>
      </trkpt>
      <trkpt lat="48.37917" lon="-4.32735">
        <ele>54.45</ele>
        <time>2019-08-23T11:17:28Z</time>
      </trkpt>
      <trkpt lat="48.37918" lon="-4.32736">
        <ele>54.45</ele>
        <time>2019-08-23T11:17:29Z</time>
      </trkpt>
      <trkpt lat="48.3792" lon="-4.32738">
        <ele>54.45</ele>
        <time>2019-08-23T11:17:30Z</time>
      </trkpt>
      <trkpt lat="48.37921" lon="-4.32742">
        <ele>54.45</ele>
        <time>2019-08-23T11:17:31Z</time>
      </trkpt>
      <trkpt lat="48.37922" lon="-4.32746">
        <ele>54.45</ele>
        <time>2019-08-23T11:17:32Z</time>
      </trkpt>
      <trkpt lat="48.37929" lon="-4.32765">
        <ele>54.45</ele>
        <time>2019-08-23T11:17:37Z</time>
      </trkpt>
      <trkpt lat="48.37928" lon="-4.32767">
        <ele>54.93</ele>
        <time>2019-08-23T11:17:38Z</time>
      </trkpt>
      <trkpt lat="48.37926" lon="-4.32769">
        <ele>54.45</ele>
        <time>2019-08-23T11:17:39Z</time>
      </trkpt>
      <trkpt lat="48.37924" lon="-4.3277">
        <ele>54.45</ele>
        <time>2019-08-23T11:17:40Z</time>
      </trkpt>
      <trkpt lat="48.37921" lon="-4.3277">
        <ele>54.45</ele>
        <time>2019-08-23T11:17:41Z</time>
      </trkpt>
      <trkpt lat="48.37919" lon="-4.32771">
        <ele>54.45</ele>
        <time>2019-08-23T11:17:42Z</time>
      </trkpt>
      <trkpt lat="48.37899" lon="-4.3278">
        <ele>54.45</ele>
        <time>2019-08-23T11:17:53Z</time>
      </trkpt>
      <trkpt lat="48.37893" lon="-4.32783">
        <ele>54.45</ele>
        <time>2019-08-23T11:18:20Z</time>
      </trkpt>
      <trkpt lat="48.37863" lon="-4.32803">
        <ele>52.53</ele>
        <time>2019-08-23T11:18:32Z</time>
      </trkpt>
      <trkpt lat="48.37841" lon="-4.32812">
        <ele>49.65</ele>
        <time>2019-08-23T11:18:40Z</time>
      </trkpt>
      <trkpt lat="48.3784" lon="-4.32812">
        <ele>49.65</ele>
        <time>2019-08-23T11:18:51Z</time>
      </trkpt>
      <trkpt lat="48.3784" lon="-4.32811">
        <ele>49.65</ele>
        <time>2019-08-23T11:19:07Z</time>
      </trkpt>
      <trkpt lat="48.37839" lon="-4.3281">
        <ele>49.65</ele>
        <time>2019-08-23T11:19:09Z</time>
      </trkpt>
      <trkpt lat="48.37839" lon="-4.32808">
        <ele>49.16</ele>
        <time>2019-08-23T11:19:10Z</time>
      </trkpt>
      <trkpt lat="48.37838" lon="-4.32806">
        <ele>49.16</ele>
        <time>2019-08-23T11:19:11Z</time>
      </trkpt>
      <trkpt lat="48.37836" lon="-4.32805">
        <ele>48.68</ele>
        <time>2019-08-23T11:19:12Z</time>
      </trkpt>
      <trkpt lat="48.37834" lon="-4.32803">
        <ele>48.2</ele>
        <time>2019-08-23T11:19:13Z</time>
      </trkpt>
      <trkpt lat="48.37826" lon="-4.32795">
        <ele>47.24</ele>
        <time>2019-08-23T11:19:17Z</time>
      </trkpt>
      <trkpt lat="48.37824" lon="-4.32792">
        <ele>46.76</ele>
        <time>2019-08-23T11:19:18Z</time>
      </trkpt>
      <trkpt lat="48.37822" lon="-4.32789">
        <ele>46.76</ele>
        <time>2019-08-23T11:19:19Z</time>
      </trkpt>
      <trkpt lat="48.37807" lon="-4.32762">
        <ele>44.36</ele>
        <time>2019-08-23T11:19:25Z</time>
      </trkpt>
      <trkpt lat="48.37801" lon="-4.32753">
        <ele>44.36</ele>
        <time>2019-08-23T11:19:27Z</time>
      </trkpt>
      <trkpt lat="48.37778" lon="-4.32721">
        <ele>41.47</ele>
        <time>2019-08-23T11:19:33Z</time>
      </trkpt>
      <trkpt lat="48.37754" lon="-4.32701">
        <ele>40.51</ele>
        <time>2019-08-23T11:19:39Z</time>
      </trkpt>
      <trkpt lat="48.37752" lon="-4.32701">
        <ele>40.51</ele>
        <time>2019-08-23T11:19:40Z</time>
      </trkpt>
      <trkpt lat="48.37751" lon="-4.32704">
        <ele>40.51</ele>
        <time>2019-08-23T11:19:41Z</time>
      </trkpt>
      <trkpt lat="48.3775" lon="-4.32708">
        <ele>40.51</ele>
        <time>2019-08-23T11:19:42Z</time>
      </trkpt>
      <trkpt lat="48.37749" lon="-4.32711">
        <ele>40.51</ele>
        <time>2019-08-23T11:19:43Z</time>
      </trkpt>
      <trkpt lat="48.37745" lon="-4.32729">
        <ele>41.47</ele>
        <time>2019-08-23T11:19:48Z</time>
      </trkpt>
      <trkpt lat="48.37742" lon="-4.32732">
        <ele>40.99</ele>
        <time>2019-08-23T11:19:49Z</time>
      </trkpt>
      <trkpt lat="48.37741" lon="-4.32735">
        <ele>40.99</ele>
        <time>2019-08-23T11:19:50Z</time>
      </trkpt>
      <trkpt lat="48.3773" lon="-4.32777">
        <ele>41.47</ele>
        <time>2019-08-23T11:20:00Z</time>
      </trkpt>
      <trkpt lat="48.37718" lon="-4.32831">
        <ele>40.99</ele>
        <time>2019-08-23T11:20:10Z</time>
      </trkpt>
      <trkpt lat="48.37716" lon="-4.32831">
        <ele>40.99</ele>
        <time>2019-08-23T11:20:11Z</time>
      </trkpt>
      <trkpt lat="48.37713" lon="-4.32831">
        <ele>40.99</ele>
        <time>2019-08-23T11:20:12Z</time>
      </trkpt>
      <trkpt lat="48.3771" lon="-4.32831">
        <ele>40.99</ele>
        <time>2019-08-23T11:20:13Z</time>
      </trkpt>
      <trkpt lat="48.37706" lon="-4.32831">
        <ele>40.99</ele>
        <time>2019-08-23T11:20:14Z</time>
      </trkpt>
      <trkpt lat="48.37693" lon="-4.32829">
        <ele>40.51</ele>
        <time>2019-08-23T11:20:18Z</time>
      </trkpt>
      <trkpt lat="48.37673" lon="-4.32825">
        <ele>39.55</ele>
        <time>2019-08-23T11:20:23Z</time>
      </trkpt>
      <trkpt lat="48.37669" lon="-4.32825">
        <ele>39.55</ele>
        <time>2019-08-23T11:20:24Z</time>
      </trkpt>
      <trkpt lat="48.37666" lon="-4.32826">
        <ele>39.55</ele>
        <time>2019-08-23T11:20:25Z</time>
      </trkpt>
      <trkpt lat="48.37663" lon="-4.32828">
        <ele>39.07</ele>
        <time>2019-08-23T11:20:26Z</time>
      </trkpt>
      <trkpt lat="48.37661" lon="-4.32832">
        <ele>39.07</ele>
        <time>2019-08-23T11:20:27Z</time>
      </trkpt>
      <trkpt lat="48.37659" lon="-4.32836">
        <ele>39.07</ele>
        <time>2019-08-23T11:20:28Z</time>
      </trkpt>
      <trkpt lat="48.37657" lon="-4.32841">
        <ele>39.07</ele>
        <time>2019-08-23T11:20:29Z</time>
      </trkpt>
      <trkpt lat="48.37655" lon="-4.32845">
        <ele>38.59</ele>
        <time>2019-08-23T11:20:30Z</time>
      </trkpt>
      <trkpt lat="48.37652" lon="-4.3285">
        <ele>38.11</ele>
        <time>2019-08-23T11:20:31Z</time>
      </trkpt>
      <trkpt lat="48.3765" lon="-4.32854">
        <ele>38.11</ele>
        <time>2019-08-23T11:20:32Z</time>
      </trkpt>
      <trkpt lat="48.37634" lon="-4.32895">
        <ele>37.15</ele>
        <time>2019-08-23T11:20:42Z</time>
      </trkpt>
      <trkpt lat="48.37631" lon="-4.32898">
        <ele>36.67</ele>
        <time>2019-08-23T11:20:43Z</time>
      </trkpt>
      <trkpt lat="48.37628" lon="-4.32902">
        <ele>36.19</ele>
        <time>2019-08-23T11:20:44Z</time>
      </trkpt>
      <trkpt lat="48.37624" lon="-4.32904">
        <ele>36.19</ele>
        <time>2019-08-23T11:20:45Z</time>
      </trkpt>
      <trkpt lat="48.37621" lon="-4.32908">
        <ele>36.19</ele>
        <time>2019-08-23T11:20:46Z</time>
      </trkpt>
      <trkpt lat="48.37617" lon="-4.32912">
        <ele>35.23</ele>
        <time>2019-08-23T11:20:47Z</time>
      </trkpt>
      <trkpt lat="48.37613" lon="-4.32915">
        <ele>35.23</ele>
        <time>2019-08-23T11:20:48Z</time>
      </trkpt>
      <trkpt lat="48.37599" lon="-4.32933">
        <ele>33.3</ele>
        <time>2019-08-23T11:20:53Z</time>
      </trkpt>
      <trkpt lat="48.37595" lon="-4.32938">
        <ele>32.34</ele>
        <time>2019-08-23T11:20:54Z</time>
      </trkpt>
      <trkpt lat="48.37591" lon="-4.32942">
        <ele>31.86</ele>
        <time>2019-08-23T11:20:55Z</time>
      </trkpt>
      <trkpt lat="48.37587" lon="-4.32945">
        <ele>30.9</ele>
        <time>2019-08-23T11:20:56Z</time>
      </trkpt>
      <trkpt lat="48.37584" lon="-4.32948">
        <ele>30.42</ele>
        <time>2019-08-23T11:20:57Z</time>
      </trkpt>
      <trkpt lat="48.37581" lon="-4.3295">
        <ele>29.94</ele>
        <time>2019-08-23T11:20:58Z</time>
      </trkpt>
      <trkpt lat="48.37577" lon="-4.32952">
        <ele>29.46</ele>
        <time>2019-08-23T11:20:59Z</time>
      </trkpt>
      <trkpt lat="48.37568" lon="-4.32959">
        <ele>28.5</ele>
        <time>2019-08-23T11:21:01Z</time>
      </trkpt>
      <trkpt lat="48.37563" lon="-4.32963">
        <ele>28.5</ele>
        <time>2019-08-23T11:21:02Z</time>
      </trkpt>
      <trkpt lat="48.37558" lon="-4.32965">
        <ele>28.02</ele>
        <time>2019-08-23T11:21:03Z</time>
      </trkpt>
      <trkpt lat="48.37538" lon="-4.3298">
        <ele>27.53</ele>
        <time>2019-08-23T11:21:08Z</time>
      </trkpt>
      <trkpt lat="48.37537" lon="-4.32982">
        <ele>27.53</ele>
        <time>2019-08-23T11:21:09Z</time>
      </trkpt>
      <trkpt lat="48.37521" lon="-4.32991">
        <ele>27.53</ele>
        <time>2019-08-23T11:21:24Z</time>
      </trkpt>
      <trkpt lat="48.37519" lon="-4.32993">
        <ele>27.53</ele>
        <time>2019-08-23T11:21:49Z</time>
      </trkpt>
      <trkpt lat="48.37518" lon="-4.32993">
        <ele>28.02</ele>
        <time>2019-08-23T11:22:21Z</time>
      </trkpt>
      <trkpt lat="48.3752" lon="-4.32993">
        <ele>27.53</ele>
        <time>2019-08-23T11:22:52Z</time>
      </trkpt>
      <trkpt lat="48.37522" lon="-4.32993">
        <ele>26.57</ele>
        <time>2019-08-23T11:23:24Z</time>
      </trkpt>
      <trkpt lat="48.3752" lon="-4.32993">
        <ele>28.02</ele>
        <time>2019-08-23T11:23:51Z</time>
      </trkpt>
      <trkpt lat="48.37519" lon="-4.32994">
        <ele>27.05</ele>
        <time>2019-08-23T11:24:24Z</time>
      </trkpt>
      <trkpt lat="48.37519" lon="-4.32994">
        <ele>28.02</ele>
        <time>2019-08-23T11:24:55Z</time>
      </trkpt>
      <trkpt lat="48.37518" lon="-4.32995">
        <ele>28.02</ele>
        <time>2019-08-23T11:25:17Z</time>
      </trkpt>
      <trkpt lat="48.37517" lon="-4.32997">
        <ele>28.02</ele>
        <time>2019-08-23T11:25:18Z</time>
      </trkpt>
      <trkpt lat="48.37515" lon="-4.32999">
        <ele>28.02</ele>
        <time>2019-08-23T11:25:20Z</time>
      </trkpt>
      <trkpt lat="48.37497" lon="-4.33019">
        <ele>28.5</ele>
        <time>2019-08-23T11:25:28Z</time>
      </trkpt>
      <trkpt lat="48.37493" lon="-4.33024">
        <ele>28.5</ele>
        <time>2019-08-23T11:25:30Z</time>
      </trkpt>
      <trkpt lat="48.37492" lon="-4.33026">
        <ele>28.5</ele>
        <time>2019-08-23T11:25:31Z</time>
      </trkpt>
      <trkpt lat="48.3749" lon="-4.33029">
        <ele>28.5</ele>
        <time>2019-08-23T11:25:32Z</time>
      </trkpt>
      <trkpt lat="48.37487" lon="-4.33031">
        <ele>28.98</ele>
        <time>2019-08-23T11:25:33Z</time>
      </trkpt>
      <trkpt lat="48.37485" lon="-4.33033">
        <ele>28.98</ele>
        <time>2019-08-23T11:25:34Z</time>
      </trkpt>
      <trkpt lat="48.37483" lon="-4.33035">
        <ele>28.98</ele>
        <time>2019-08-23T11:25:35Z</time>
      </trkpt>
      <trkpt lat="48.37463" lon="-4.33057">
        <ele>30.9</ele>
        <time>2019-08-23T11:25:45Z</time>
      </trkpt>
      <trkpt lat="48.37462" lon="-4.33058">
        <ele>31.38</ele>
        <time>2019-08-23T11:25:46Z</time>
      </trkpt>
      <trkpt lat="48.37445" lon="-4.33078">
        <ele>33.78</ele>
        <time>2019-08-23T11:25:58Z</time>
      </trkpt>
      <trkpt lat="48.37432" lon="-4.33096">
        <ele>36.67</ele>
        <time>2019-08-23T11:26:10Z</time>
      </trkpt>
      <trkpt lat="48.3743" lon="-4.33098">
        <ele>37.15</ele>
        <time>2019-08-23T11:26:11Z</time>
      </trkpt>
      <trkpt lat="48.37428" lon="-4.33099">
        <ele>37.15</ele>
        <time>2019-08-23T11:26:12Z</time>
      </trkpt>
      <trkpt lat="48.37426" lon="-4.331">
        <ele>37.15</ele>
        <time>2019-08-23T11:26:13Z</time>
      </trkpt>
      <trkpt lat="48.37424" lon="-4.33101">
        <ele>37.15</ele>
        <time>2019-08-23T11:26:14Z</time>
      </trkpt>
      <trkpt lat="48.37422" lon="-4.33104">
        <ele>37.63</ele>
        <time>2019-08-23T11:26:15Z</time>
      </trkpt>
      <trkpt lat="48.37421" lon="-4.33106">
        <ele>37.63</ele>
        <time>2019-08-23T11:26:16Z</time>
      </trkpt>
      <trkpt lat="48.37419" lon="-4.33108">
        <ele>37.63</ele>
        <time>2019-08-23T11:26:17Z</time>
      </trkpt>
      <trkpt lat="48.37418" lon="-4.3311">
        <ele>37.63</ele>
        <time>2019-08-23T11:26:18Z</time>
      </trkpt>
      <trkpt lat="48.37416" lon="-4.33112">
        <ele>38.11</ele>
        <time>2019-08-23T11:26:19Z</time>
      </trkpt>
      <trkpt lat="48.37401" lon="-4.33138">
        <ele>38.59</ele>
        <time>2019-08-23T11:26:29Z</time>
      </trkpt>
      <trkpt lat="48.374" lon="-4.33141">
        <ele>39.07</ele>
        <time>2019-08-23T11:26:30Z</time>
      </trkpt>
      <trkpt lat="48.37398" lon="-4.33143">
        <ele>39.07</ele>
        <time>2019-08-23T11:26:31Z</time>
      </trkpt>
      <trkpt lat="48.37396" lon="-4.33146">
        <ele>39.07</ele>
        <time>2019-08-23T11:26:32Z</time>
      </trkpt>
      <trkpt lat="48.37395" lon="-4.33149">
        <ele>39.07</ele>
        <time>2019-08-23T11:26:33Z</time>
      </trkpt>
      <trkpt lat="48.37393" lon="-4.33152">
        <ele>39.55</ele>
        <time>2019-08-23T11:26:34Z</time>
      </trkpt>
      <trkpt lat="48.37392" lon="-4.33154">
        <ele>39.55</ele>
        <time>2019-08-23T11:26:35Z</time>
      </trkpt>
      <trkpt lat="48.37389" lon="-4.33158">
        <ele>39.55</ele>
        <time>2019-08-23T11:26:36Z</time>
      </trkpt>
      <trkpt lat="48.37388" lon="-4.3316">
        <ele>39.55</ele>
        <time>2019-08-23T11:26:37Z</time>
      </trkpt>
      <trkpt lat="48.37386" lon="-4.33163">
        <ele>40.03</ele>
        <time>2019-08-23T11:26:38Z</time>
      </trkpt>
      <trkpt lat="48.37368" lon="-4.33199">
        <ele>40.99</ele>
        <time>2019-08-23T11:26:50Z</time>
      </trkpt>
      <trkpt lat="48.37357" lon="-4.33229">
        <ele>41.95</ele>
        <time>2019-08-23T11:27:00Z</time>
      </trkpt>
      <trkpt lat="48.37355" lon="-4.33234">
        <ele>41.95</ele>
        <time>2019-08-23T11:27:02Z</time>
      </trkpt>
      <trkpt lat="48.37354" lon="-4.33237">
        <ele>41.95</ele>
        <time>2019-08-23T11:27:03Z</time>
      </trkpt>
      <trkpt lat="48.37353" lon="-4.33241">
        <ele>41.95</ele>
        <time>2019-08-23T11:27:04Z</time>
      </trkpt>
      <trkpt lat="48.37352" lon="-4.33244">
        <ele>42.44</ele>
        <time>2019-08-23T11:27:05Z</time>
      </trkpt>
      <trkpt lat="48.37351" lon="-4.33247">
        <ele>42.44</ele>
        <time>2019-08-23T11:27:06Z</time>
      </trkpt>
      <trkpt lat="48.37342" lon="-4.33271">
        <ele>42.92</ele>
        <time>2019-08-23T11:27:13Z</time>
      </trkpt>
      <trkpt lat="48.37341" lon="-4.33275">
        <ele>42.92</ele>
        <time>2019-08-23T11:27:14Z</time>
      </trkpt>
      <trkpt lat="48.3734" lon="-4.33278">
        <ele>42.92</ele>
        <time>2019-08-23T11:27:15Z</time>
      </trkpt>
      <trkpt lat="48.37326" lon="-4.33318">
        <ele>43.88</ele>
        <time>2019-08-23T11:27:26Z</time>
      </trkpt>
      <trkpt lat="48.37323" lon="-4.33329">
        <ele>44.36</ele>
        <time>2019-08-23T11:27:29Z</time>
      </trkpt>
      <trkpt lat="48.37321" lon="-4.33333">
        <ele>44.36</ele>
        <time>2019-08-23T11:27:30Z</time>
      </trkpt>
      <trkpt lat="48.3732" lon="-4.33337">
        <ele>44.36</ele>
        <time>2019-08-23T11:27:31Z</time>
      </trkpt>
      <trkpt lat="48.37319" lon="-4.3334">
        <ele>44.84</ele>
        <time>2019-08-23T11:27:32Z</time>
      </trkpt>
      <trkpt lat="48.37318" lon="-4.33343">
        <ele>44.84</ele>
        <time>2019-08-23T11:27:33Z</time>
      </trkpt>
      <trkpt lat="48.37301" lon="-4.33385">
        <ele>46.28</ele>
        <time>2019-08-23T11:27:46Z</time>
      </trkpt>
      <trkpt lat="48.37286" lon="-4.33428">
        <ele>47.72</ele>
        <time>2019-08-23T11:27:59Z</time>
      </trkpt>
      <trkpt lat="48.37272" lon="-4.33462">
        <ele>49.16</ele>
        <time>2019-08-23T11:28:10Z</time>
      </trkpt>
      <trkpt lat="48.37271" lon="-4.33465">
        <ele>49.16</ele>
        <time>2019-08-23T11:28:11Z</time>
      </trkpt>
      <trkpt lat="48.37252" lon="-4.33501">
        <ele>50.13</ele>
        <time>2019-08-23T11:28:22Z</time>
      </trkpt>
      <trkpt lat="48.37238" lon="-4.33534">
        <ele>50.61</ele>
        <time>2019-08-23T11:28:33Z</time>
      </trkpt>
      <trkpt lat="48.37223" lon="-4.33567">
        <ele>51.09</ele>
        <time>2019-08-23T11:28:43Z</time>
      </trkpt>
      <trkpt lat="48.37214" lon="-4.33586">
        <ele>51.57</ele>
        <time>2019-08-23T11:28:48Z</time>
      </trkpt>
      <trkpt lat="48.37212" lon="-4.33588">
        <ele>51.09</ele>
        <time>2019-08-23T11:28:49Z</time>
      </trkpt>
      <trkpt lat="48.3721" lon="-4.33592">
        <ele>51.09</ele>
        <time>2019-08-23T11:28:50Z</time>
      </trkpt>
      <trkpt lat="48.37209" lon="-4.33596">
        <ele>51.57</ele>
        <time>2019-08-23T11:28:51Z</time>
      </trkpt>
      <trkpt lat="48.37208" lon="-4.33599">
        <ele>51.57</ele>
        <time>2019-08-23T11:28:52Z</time>
      </trkpt>
      <trkpt lat="48.372" lon="-4.33617">
        <ele>52.05</ele>
        <time>2019-08-23T11:28:57Z</time>
      </trkpt>
      <trkpt lat="48.37197" lon="-4.3362">
        <ele>51.57</ele>
        <time>2019-08-23T11:28:58Z</time>
      </trkpt>
      <trkpt lat="48.37172" lon="-4.33659">
        <ele>53.01</ele>
        <time>2019-08-23T11:29:10Z</time>
      </trkpt>
      <trkpt lat="48.3714" lon="-4.33689">
        <ele>53.49</ele>
        <time>2019-08-23T11:29:20Z</time>
      </trkpt>
      <trkpt lat="48.37104" lon="-4.33717">
        <ele>54.45</ele>
        <time>2019-08-23T11:29:33Z</time>
      </trkpt>
      <trkpt lat="48.37076" lon="-4.33725">
        <ele>54.45</ele>
        <time>2019-08-23T11:29:43Z</time>
      </trkpt>
      <trkpt lat="48.37073" lon="-4.33723">
        <ele>53.97</ele>
        <time>2019-08-23T11:29:44Z</time>
      </trkpt>
      <trkpt lat="48.3707" lon="-4.3372">
        <ele>53.97</ele>
        <time>2019-08-23T11:29:45Z</time>
      </trkpt>
      <trkpt lat="48.37068" lon="-4.33717">
        <ele>53.49</ele>
        <time>2019-08-23T11:29:46Z</time>
      </trkpt>
      <trkpt lat="48.37065" lon="-4.33714">
        <ele>53.01</ele>
        <time>2019-08-23T11:29:47Z</time>
      </trkpt>
      <trkpt lat="48.37055" lon="-4.33699">
        <ele>53.01</ele>
        <time>2019-08-23T11:29:52Z</time>
      </trkpt>
      <trkpt lat="48.37039" lon="-4.3368">
        <ele>50.61</ele>
        <time>2019-08-23T11:29:58Z</time>
      </trkpt>
      <trkpt lat="48.37034" lon="-4.33682">
        <ele>50.61</ele>
        <time>2019-08-23T11:29:59Z</time>
      </trkpt>
      <trkpt lat="48.3703" lon="-4.33683">
        <ele>50.61</ele>
        <time>2019-08-23T11:30:00Z</time>
      </trkpt>
      <trkpt lat="48.37006" lon="-4.33697">
        <ele>51.57</ele>
        <time>2019-08-23T11:30:07Z</time>
      </trkpt>
      <trkpt lat="48.36976" lon="-4.3372">
        <ele>50.13</ele>
        <time>2019-08-23T11:30:15Z</time>
      </trkpt>
      <trkpt lat="48.36972" lon="-4.33723">
        <ele>50.13</ele>
        <time>2019-08-23T11:30:16Z</time>
      </trkpt>
      <trkpt lat="48.36952" lon="-4.33744">
        <ele>49.65</ele>
        <time>2019-08-23T11:30:22Z</time>
      </trkpt>
      <trkpt lat="48.36913" lon="-4.33786">
        <ele>47.24</ele>
        <time>2019-08-23T11:30:33Z</time>
      </trkpt>
      <trkpt lat="48.36857" lon="-4.33834">
        <ele>45.8</ele>
        <time>2019-08-23T11:30:46Z</time>
      </trkpt>
      <trkpt lat="48.36831" lon="-4.33869">
        <ele>46.28</ele>
        <time>2019-08-23T11:30:56Z</time>
      </trkpt>
      <trkpt lat="48.36807" lon="-4.33915">
        <ele>46.28</ele>
        <time>2019-08-23T11:31:07Z</time>
      </trkpt>
      <trkpt lat="48.36791" lon="-4.33946">
        <ele>45.8</ele>
        <time>2019-08-23T11:31:14Z</time>
      </trkpt>
      <trkpt lat="48.36785" lon="-4.33964">
        <ele>44.84</ele>
        <time>2019-08-23T11:31:17Z</time>
      </trkpt>
      <trkpt lat="48.36781" lon="-4.33971">
        <ele>44.84</ele>
        <time>2019-08-23T11:31:18Z</time>
      </trkpt>
      <trkpt lat="48.36773" lon="-4.33993">
        <ele>44.84</ele>
        <time>2019-08-23T11:31:21Z</time>
      </trkpt>
      <trkpt lat="48.3677" lon="-4.33999">
        <ele>44.84</ele>
        <time>2019-08-23T11:31:22Z</time>
      </trkpt>
      <trkpt lat="48.36736" lon="-4.34055">
        <ele>43.88</ele>
        <time>2019-08-23T11:31:32Z</time>
      </trkpt>
      <trkpt lat="48.36726" lon="-4.34064">
        <ele>42.92</ele>
        <time>2019-08-23T11:31:34Z</time>
      </trkpt>
      <trkpt lat="48.3671" lon="-4.34074">
        <ele>42.44</ele>
        <time>2019-08-23T11:31:37Z</time>
      </trkpt>
      <trkpt lat="48.36704" lon="-4.34075">
        <ele>41.95</ele>
        <time>2019-08-23T11:31:38Z</time>
      </trkpt>
      <trkpt lat="48.36697" lon="-4.34076">
        <ele>41.47</ele>
        <time>2019-08-23T11:31:39Z</time>
      </trkpt>
      <trkpt lat="48.36661" lon="-4.34073">
        <ele>41.47</ele>
        <time>2019-08-23T11:31:45Z</time>
      </trkpt>
      <trkpt lat="48.36656" lon="-4.34073">
        <ele>41.95</ele>
        <time>2019-08-23T11:31:46Z</time>
      </trkpt>
      <trkpt lat="48.3665" lon="-4.34075">
        <ele>42.44</ele>
        <time>2019-08-23T11:31:47Z</time>
      </trkpt>
      <trkpt lat="48.36645" lon="-4.34078">
        <ele>41.95</ele>
        <time>2019-08-23T11:31:48Z</time>
      </trkpt>
      <trkpt lat="48.3664" lon="-4.34082">
        <ele>42.92</ele>
        <time>2019-08-23T11:31:49Z</time>
      </trkpt>
      <trkpt lat="48.36636" lon="-4.34086">
        <ele>42.44</ele>
        <time>2019-08-23T11:31:50Z</time>
      </trkpt>
      <trkpt lat="48.36624" lon="-4.34099">
        <ele>42.92</ele>
        <time>2019-08-23T11:31:53Z</time>
      </trkpt>
      <trkpt lat="48.36621" lon="-4.34105">
        <ele>42.92</ele>
        <time>2019-08-23T11:31:54Z</time>
      </trkpt>
      <trkpt lat="48.36619" lon="-4.34111">
        <ele>42.92</ele>
        <time>2019-08-23T11:31:55Z</time>
      </trkpt>
      <trkpt lat="48.36617" lon="-4.34117">
        <ele>43.4</ele>
        <time>2019-08-23T11:31:56Z</time>
      </trkpt>
      <trkpt lat="48.36616" lon="-4.34123">
        <ele>43.4</ele>
        <time>2019-08-23T11:31:57Z</time>
      </trkpt>
      <trkpt lat="48.36615" lon="-4.3413">
        <ele>43.4</ele>
        <time>2019-08-23T11:31:58Z</time>
      </trkpt>
      <trkpt lat="48.36606" lon="-4.34227">
        <ele>44.36</ele>
        <time>2019-08-23T11:32:12Z</time>
      </trkpt>
      <trkpt lat="48.36606" lon="-4.34234">
        <ele>44.36</ele>
        <time>2019-08-23T11:32:13Z</time>
      </trkpt>
      <trkpt lat="48.36604" lon="-4.34247">
        <ele>44.84</ele>
        <time>2019-08-23T11:32:15Z</time>
      </trkpt>
      <trkpt lat="48.36602" lon="-4.34253">
        <ele>44.84</ele>
        <time>2019-08-23T11:32:16Z</time>
      </trkpt>
      <trkpt lat="48.36575" lon="-4.34326">
        <ele>44.36</ele>
        <time>2019-08-23T11:32:28Z</time>
      </trkpt>
      <trkpt lat="48.36573" lon="-4.34332">
        <ele>44.36</ele>
        <time>2019-08-23T11:32:29Z</time>
      </trkpt>
      <trkpt lat="48.36547" lon="-4.34395">
        <ele>43.88</ele>
        <time>2019-08-23T11:32:40Z</time>
      </trkpt>
      <trkpt lat="48.36545" lon="-4.34401">
        <ele>43.88</ele>
        <time>2019-08-23T11:32:41Z</time>
      </trkpt>
      <trkpt lat="48.36543" lon="-4.34405">
        <ele>43.4</ele>
        <time>2019-08-23T11:32:42Z</time>
      </trkpt>
      <trkpt lat="48.36542" lon="-4.34409">
        <ele>43.88</ele>
        <time>2019-08-23T11:32:43Z</time>
      </trkpt>
      <trkpt lat="48.3654" lon="-4.34411">
        <ele>43.88</ele>
        <time>2019-08-23T11:32:44Z</time>
      </trkpt>
      <trkpt lat="48.36537" lon="-4.34412">
        <ele>43.4</ele>
        <time>2019-08-23T11:32:45Z</time>
      </trkpt>
      <trkpt lat="48.36534" lon="-4.34411">
        <ele>43.4</ele>
        <time>2019-08-23T11:32:46Z</time>
      </trkpt>
      <trkpt lat="48.3653" lon="-4.34409">
        <ele>43.4</ele>
        <time>2019-08-23T11:32:47Z</time>
      </trkpt>
      <trkpt lat="48.36527" lon="-4.34407">
        <ele>42.92</ele>
        <time>2019-08-23T11:32:48Z</time>
      </trkpt>
      <trkpt lat="48.36511" lon="-4.34398">
        <ele>42.92</ele>
        <time>2019-08-23T11:32:52Z</time>
      </trkpt>
      <trkpt lat="48.36507" lon="-4.34398">
        <ele>42.92</ele>
        <time>2019-08-23T11:32:53Z</time>
      </trkpt>
      <trkpt lat="48.36503" lon="-4.344">
        <ele>42.92</ele>
        <time>2019-08-23T11:32:54Z</time>
      </trkpt>
      <trkpt lat="48.36501" lon="-4.34404">
        <ele>43.4</ele>
        <time>2019-08-23T11:32:55Z</time>
      </trkpt>
      <trkpt lat="48.36499" lon="-4.34408">
        <ele>43.88</ele>
        <time>2019-08-23T11:32:56Z</time>
      </trkpt>
      <trkpt lat="48.36497" lon="-4.34411">
        <ele>43.88</ele>
        <time>2019-08-23T11:32:57Z</time>
      </trkpt>
      <trkpt lat="48.36477" lon="-4.34451">
        <ele>43.88</ele>
        <time>2019-08-23T11:33:07Z</time>
      </trkpt>
      <trkpt lat="48.36475" lon="-4.34456">
        <ele>43.88</ele>
        <time>2019-08-23T11:33:08Z</time>
      </trkpt>
      <trkpt lat="48.36454" lon="-4.34486">
        <ele>43.4</ele>
        <time>2019-08-23T11:33:14Z</time>
      </trkpt>
      <trkpt lat="48.36451" lon="-4.3449">
        <ele>43.4</ele>
        <time>2019-08-23T11:33:15Z</time>
      </trkpt>
      <trkpt lat="48.36413" lon="-4.34535">
        <ele>42.92</ele>
        <time>2019-08-23T11:33:25Z</time>
      </trkpt>
      <trkpt lat="48.36387" lon="-4.34563">
        <ele>42.92</ele>
        <time>2019-08-23T11:33:31Z</time>
      </trkpt>
      <trkpt lat="48.36384" lon="-4.34569">
        <ele>42.92</ele>
        <time>2019-08-23T11:33:32Z</time>
      </trkpt>
      <trkpt lat="48.3638" lon="-4.34575">
        <ele>42.92</ele>
        <time>2019-08-23T11:33:33Z</time>
      </trkpt>
      <trkpt lat="48.36362" lon="-4.34615">
        <ele>42.92</ele>
        <time>2019-08-23T11:33:40Z</time>
      </trkpt>
      <trkpt lat="48.36339" lon="-4.34656">
        <ele>42.92</ele>
        <time>2019-08-23T11:33:47Z</time>
      </trkpt>
      <trkpt lat="48.36335" lon="-4.34661">
        <ele>42.92</ele>
        <time>2019-08-23T11:33:48Z</time>
      </trkpt>
      <trkpt lat="48.36332" lon="-4.34665">
        <ele>42.44</ele>
        <time>2019-08-23T11:33:49Z</time>
      </trkpt>
      <trkpt lat="48.36328" lon="-4.3467">
        <ele>42.92</ele>
        <time>2019-08-23T11:33:50Z</time>
      </trkpt>
      <trkpt lat="48.36325" lon="-4.34676">
        <ele>42.92</ele>
        <time>2019-08-23T11:33:51Z</time>
      </trkpt>
      <trkpt lat="48.36301" lon="-4.34719">
        <ele>42.92</ele>
        <time>2019-08-23T11:34:00Z</time>
      </trkpt>
      <trkpt lat="48.36298" lon="-4.34723">
        <ele>43.4</ele>
        <time>2019-08-23T11:34:01Z</time>
      </trkpt>
      <trkpt lat="48.36294" lon="-4.34727">
        <ele>43.4</ele>
        <time>2019-08-23T11:34:02Z</time>
      </trkpt>
      <trkpt lat="48.36284" lon="-4.34741">
        <ele>43.4</ele>
        <time>2019-08-23T11:34:05Z</time>
      </trkpt>
      <trkpt lat="48.36281" lon="-4.34746">
        <ele>43.88</ele>
        <time>2019-08-23T11:34:06Z</time>
      </trkpt>
      <trkpt lat="48.36277" lon="-4.34751">
        <ele>43.4</ele>
        <time>2019-08-23T11:34:07Z</time>
      </trkpt>
      <trkpt lat="48.36273" lon="-4.34755">
        <ele>43.88</ele>
        <time>2019-08-23T11:34:08Z</time>
      </trkpt>
      <trkpt lat="48.36269" lon="-4.3476">
        <ele>43.4</ele>
        <time>2019-08-23T11:34:09Z</time>
      </trkpt>
      <trkpt lat="48.36264" lon="-4.34764">
        <ele>43.88</ele>
        <time>2019-08-23T11:34:10Z</time>
      </trkpt>
      <trkpt lat="48.3626" lon="-4.34769">
        <ele>43.88</ele>
        <time>2019-08-23T11:34:11Z</time>
      </trkpt>
      <trkpt lat="48.36257" lon="-4.34773">
        <ele>43.4</ele>
        <time>2019-08-23T11:34:12Z</time>
      </trkpt>
      <trkpt lat="48.36253" lon="-4.34777">
        <ele>43.4</ele>
        <time>2019-08-23T11:34:13Z</time>
      </trkpt>
      <trkpt lat="48.36249" lon="-4.34782">
        <ele>43.4</ele>
        <time>2019-08-23T11:34:14Z</time>
      </trkpt>
      <trkpt lat="48.36246" lon="-4.34788">
        <ele>43.4</ele>
        <time>2019-08-23T11:34:15Z</time>
      </trkpt>
      <trkpt lat="48.36221" lon="-4.34831">
        <ele>43.4</ele>
        <time>2019-08-23T11:34:24Z</time>
      </trkpt>
      <trkpt lat="48.36218" lon="-4.34837">
        <ele>42.92</ele>
        <time>2019-08-23T11:34:25Z</time>
      </trkpt>
      <trkpt lat="48.36216" lon="-4.34842">
        <ele>42.92</ele>
        <time>2019-08-23T11:34:26Z</time>
      </trkpt>
      <trkpt lat="48.36213" lon="-4.34847">
        <ele>42.92</ele>
        <time>2019-08-23T11:34:27Z</time>
      </trkpt>
      <trkpt lat="48.3621" lon="-4.34852">
        <ele>42.92</ele>
        <time>2019-08-23T11:34:28Z</time>
      </trkpt>
      <trkpt lat="48.36206" lon="-4.34856">
        <ele>42.44</ele>
        <time>2019-08-23T11:34:29Z</time>
      </trkpt>
      <trkpt lat="48.36203" lon="-4.34861">
        <ele>42.44</ele>
        <time>2019-08-23T11:34:30Z</time>
      </trkpt>
      <trkpt lat="48.36199" lon="-4.34866">
        <ele>42.44</ele>
        <time>2019-08-23T11:34:31Z</time>
      </trkpt>
      <trkpt lat="48.36194" lon="-4.34871">
        <ele>41.95</ele>
        <time>2019-08-23T11:34:32Z</time>
      </trkpt>
      <trkpt lat="48.3619" lon="-4.34876">
        <ele>41.95</ele>
        <time>2019-08-23T11:34:33Z</time>
      </trkpt>
      <trkpt lat="48.36168" lon="-4.34911">
        <ele>40.51</ele>
        <time>2019-08-23T11:34:39Z</time>
      </trkpt>
      <trkpt lat="48.36141" lon="-4.34973">
        <ele>37.63</ele>
        <time>2019-08-23T11:34:47Z</time>
      </trkpt>
      <trkpt lat="48.36124" lon="-4.35004">
        <ele>37.63</ele>
        <time>2019-08-23T11:34:51Z</time>
      </trkpt>
      <trkpt lat="48.3612" lon="-4.3501">
        <ele>37.63</ele>
        <time>2019-08-23T11:34:52Z</time>
      </trkpt>
      <trkpt lat="48.36117" lon="-4.35017">
        <ele>37.15</ele>
        <time>2019-08-23T11:34:53Z</time>
      </trkpt>
      <trkpt lat="48.36113" lon="-4.35025">
        <ele>37.15</ele>
        <time>2019-08-23T11:34:54Z</time>
      </trkpt>
      <trkpt lat="48.36111" lon="-4.35033">
        <ele>37.15</ele>
        <time>2019-08-23T11:34:55Z</time>
      </trkpt>
      <trkpt lat="48.36105" lon="-4.35048">
        <ele>36.67</ele>
        <time>2019-08-23T11:34:57Z</time>
      </trkpt>
      <trkpt lat="48.36102" lon="-4.35056">
        <ele>36.67</ele>
        <time>2019-08-23T11:34:58Z</time>
      </trkpt>
      <trkpt lat="48.36095" lon="-4.35082">
        <ele>35.71</ele>
        <time>2019-08-23T11:35:01Z</time>
      </trkpt>
      <trkpt lat="48.36092" lon="-4.3509">
        <ele>35.71</ele>
        <time>2019-08-23T11:35:02Z</time>
      </trkpt>
      <trkpt lat="48.3608" lon="-4.35121">
        <ele>35.71</ele>
        <time>2019-08-23T11:35:06Z</time>
      </trkpt>
      <trkpt lat="48.36071" lon="-4.35136">
        <ele>35.23</ele>
        <time>2019-08-23T11:35:08Z</time>
      </trkpt>
      <trkpt lat="48.36046" lon="-4.35173">
        <ele>35.23</ele>
        <time>2019-08-23T11:35:14Z</time>
      </trkpt>
      <trkpt lat="48.36042" lon="-4.35179">
        <ele>35.23</ele>
        <time>2019-08-23T11:35:15Z</time>
      </trkpt>
      <trkpt lat="48.36033" lon="-4.35194">
        <ele>35.23</ele>
        <time>2019-08-23T11:35:18Z</time>
      </trkpt>
      <trkpt lat="48.36029" lon="-4.352">
        <ele>35.23</ele>
        <time>2019-08-23T11:35:19Z</time>
      </trkpt>
      <trkpt lat="48.36016" lon="-4.35223">
        <ele>35.71</ele>
        <time>2019-08-23T11:35:23Z</time>
      </trkpt>
      <trkpt lat="48.36013" lon="-4.35228">
        <ele>35.71</ele>
        <time>2019-08-23T11:35:24Z</time>
      </trkpt>
      <trkpt lat="48.36007" lon="-4.35237">
        <ele>35.71</ele>
        <time>2019-08-23T11:35:26Z</time>
      </trkpt>
      <trkpt lat="48.36003" lon="-4.35242">
        <ele>35.71</ele>
        <time>2019-08-23T11:35:27Z</time>
      </trkpt>
      <trkpt lat="48.36001" lon="-4.35247">
        <ele>35.71</ele>
        <time>2019-08-23T11:35:28Z</time>
      </trkpt>
      <trkpt lat="48.35998" lon="-4.35252">
        <ele>35.71</ele>
        <time>2019-08-23T11:35:29Z</time>
      </trkpt>
      <trkpt lat="48.35995" lon="-4.35257">
        <ele>36.19</ele>
        <time>2019-08-23T11:35:30Z</time>
      </trkpt>
      <trkpt lat="48.35992" lon="-4.35263">
        <ele>35.71</ele>
        <time>2019-08-23T11:35:31Z</time>
      </trkpt>
      <trkpt lat="48.3599" lon="-4.35267">
        <ele>36.19</ele>
        <time>2019-08-23T11:35:32Z</time>
      </trkpt>
      <trkpt lat="48.35967" lon="-4.35292">
        <ele>36.19</ele>
        <time>2019-08-23T11:35:38Z</time>
      </trkpt>
      <trkpt lat="48.35962" lon="-4.35292">
        <ele>35.71</ele>
        <time>2019-08-23T11:35:39Z</time>
      </trkpt>
      <trkpt lat="48.35957" lon="-4.3529">
        <ele>35.71</ele>
        <time>2019-08-23T11:35:40Z</time>
      </trkpt>
      <trkpt lat="48.35953" lon="-4.35286">
        <ele>35.23</ele>
        <time>2019-08-23T11:35:41Z</time>
      </trkpt>
      <trkpt lat="48.35949" lon="-4.35282">
        <ele>35.23</ele>
        <time>2019-08-23T11:35:42Z</time>
      </trkpt>
      <trkpt lat="48.35945" lon="-4.35277">
        <ele>35.23</ele>
        <time>2019-08-23T11:35:43Z</time>
      </trkpt>
      <trkpt lat="48.35941" lon="-4.35272">
        <ele>34.74</ele>
        <time>2019-08-23T11:35:44Z</time>
      </trkpt>
      <trkpt lat="48.35932" lon="-4.35254">
        <ele>34.26</ele>
        <time>2019-08-23T11:35:47Z</time>
      </trkpt>
      <trkpt lat="48.3593" lon="-4.35247">
        <ele>34.26</ele>
        <time>2019-08-23T11:35:48Z</time>
      </trkpt>
      <trkpt lat="48.35927" lon="-4.35239">
        <ele>34.26</ele>
        <time>2019-08-23T11:35:49Z</time>
      </trkpt>
      <trkpt lat="48.35924" lon="-4.35234">
        <ele>34.74</ele>
        <time>2019-08-23T11:35:50Z</time>
      </trkpt>
      <trkpt lat="48.3592" lon="-4.35232">
        <ele>33.78</ele>
        <time>2019-08-23T11:35:51Z</time>
      </trkpt>
      <trkpt lat="48.35915" lon="-4.35232">
        <ele>33.3</ele>
        <time>2019-08-23T11:35:52Z</time>
      </trkpt>
      <trkpt lat="48.35911" lon="-4.35232">
        <ele>33.3</ele>
        <time>2019-08-23T11:35:53Z</time>
      </trkpt>
      <trkpt lat="48.35906" lon="-4.35229">
        <ele>33.3</ele>
        <time>2019-08-23T11:35:54Z</time>
      </trkpt>
      <trkpt lat="48.35901" lon="-4.35226">
        <ele>32.82</ele>
        <time>2019-08-23T11:35:55Z</time>
      </trkpt>
      <trkpt lat="48.35896" lon="-4.35222">
        <ele>31.86</ele>
        <time>2019-08-23T11:35:56Z</time>
      </trkpt>
      <trkpt lat="48.35892" lon="-4.3522">
        <ele>31.86</ele>
        <time>2019-08-23T11:35:57Z</time>
      </trkpt>
      <trkpt lat="48.35889" lon="-4.35221">
        <ele>31.38</ele>
        <time>2019-08-23T11:35:58Z</time>
      </trkpt>
      <trkpt lat="48.35887" lon="-4.35226">
        <ele>30.9</ele>
        <time>2019-08-23T11:35:59Z</time>
      </trkpt>
      <trkpt lat="48.35885" lon="-4.35232">
        <ele>29.94</ele>
        <time>2019-08-23T11:36:00Z</time>
      </trkpt>
      <trkpt lat="48.35883" lon="-4.35239">
        <ele>29.94</ele>
        <time>2019-08-23T11:36:01Z</time>
      </trkpt>
      <trkpt lat="48.3588" lon="-4.35246">
        <ele>29.46</ele>
        <time>2019-08-23T11:36:02Z</time>
      </trkpt>
      <trkpt lat="48.35872" lon="-4.35267">
        <ele>28.5</ele>
        <time>2019-08-23T11:36:05Z</time>
      </trkpt>
      <trkpt lat="48.35846" lon="-4.35316">
        <ele>27.53</ele>
        <time>2019-08-23T11:36:12Z</time>
      </trkpt>
      <trkpt lat="48.35839" lon="-4.3533">
        <ele>27.53</ele>
        <time>2019-08-23T11:36:14Z</time>
      </trkpt>
      <trkpt lat="48.35812" lon="-4.3538">
        <ele>28.5</ele>
        <time>2019-08-23T11:36:22Z</time>
      </trkpt>
      <trkpt lat="48.35804" lon="-4.35397">
        <ele>28.5</ele>
        <time>2019-08-23T11:36:25Z</time>
      </trkpt>
      <trkpt lat="48.35784" lon="-4.35467">
        <ele>31.38</ele>
        <time>2019-08-23T11:36:40Z</time>
      </trkpt>
      <trkpt lat="48.35783" lon="-4.3547">
        <ele>31.86</ele>
        <time>2019-08-23T11:36:41Z</time>
      </trkpt>
      <trkpt lat="48.35778" lon="-4.35476">
        <ele>31.86</ele>
        <time>2019-08-23T11:36:44Z</time>
      </trkpt>
      <trkpt lat="48.35775" lon="-4.35475">
        <ele>31.86</ele>
        <time>2019-08-23T11:36:45Z</time>
      </trkpt>
      <trkpt lat="48.35771" lon="-4.35475">
        <ele>31.86</ele>
        <time>2019-08-23T11:36:46Z</time>
      </trkpt>
      <trkpt lat="48.35768" lon="-4.35478">
        <ele>31.86</ele>
        <time>2019-08-23T11:36:47Z</time>
      </trkpt>
      <trkpt lat="48.35766" lon="-4.35482">
        <ele>31.86</ele>
        <time>2019-08-23T11:36:48Z</time>
      </trkpt>
      <trkpt lat="48.35765" lon="-4.35486">
        <ele>32.34</ele>
        <time>2019-08-23T11:36:49Z</time>
      </trkpt>
      <trkpt lat="48.35762" lon="-4.35497">
        <ele>32.82</ele>
        <time>2019-08-23T11:36:52Z</time>
      </trkpt>
      <trkpt lat="48.35763" lon="-4.35518">
        <ele>34.26</ele>
        <time>2019-08-23T11:36:58Z</time>
      </trkpt>
      <trkpt lat="48.35766" lon="-4.35532">
        <ele>35.23</ele>
        <time>2019-08-23T11:37:04Z</time>
      </trkpt>
      <trkpt lat="48.35766" lon="-4.35534">
        <ele>35.71</ele>
        <time>2019-08-23T11:37:05Z</time>
      </trkpt>
      <trkpt lat="48.35766" lon="-4.3554">
        <ele>36.19</ele>
        <time>2019-08-23T11:37:07Z</time>
      </trkpt>
      <trkpt lat="48.35767" lon="-4.35542">
        <ele>36.19</ele>
        <time>2019-08-23T11:37:08Z</time>
      </trkpt>
      <trkpt lat="48.35767" lon="-4.35545">
        <ele>36.67</ele>
        <time>2019-08-23T11:37:09Z</time>
      </trkpt>
      <trkpt lat="48.35767" lon="-4.35548">
        <ele>37.15</ele>
        <time>2019-08-23T11:37:10Z</time>
      </trkpt>
      <trkpt lat="48.35768" lon="-4.35552">
        <ele>37.15</ele>
        <time>2019-08-23T11:37:11Z</time>
      </trkpt>
      <trkpt lat="48.35769" lon="-4.35556">
        <ele>37.15</ele>
        <time>2019-08-23T11:37:12Z</time>
      </trkpt>
      <trkpt lat="48.3577" lon="-4.35559">
        <ele>37.63</ele>
        <time>2019-08-23T11:37:13Z</time>
      </trkpt>
      <trkpt lat="48.35771" lon="-4.35563">
        <ele>37.63</ele>
        <time>2019-08-23T11:37:14Z</time>
      </trkpt>
      <trkpt lat="48.35771" lon="-4.35566">
        <ele>38.11</ele>
        <time>2019-08-23T11:37:15Z</time>
      </trkpt>
      <trkpt lat="48.35772" lon="-4.3557">
        <ele>38.11</ele>
        <time>2019-08-23T11:37:16Z</time>
      </trkpt>
      <trkpt lat="48.35771" lon="-4.35573">
        <ele>38.59</ele>
        <time>2019-08-23T11:37:17Z</time>
      </trkpt>
      <trkpt lat="48.35769" lon="-4.35591">
        <ele>39.07</ele>
        <time>2019-08-23T11:37:22Z</time>
      </trkpt>
      <trkpt lat="48.35769" lon="-4.35595">
        <ele>39.55</ele>
        <time>2019-08-23T11:37:23Z</time>
      </trkpt>
      <trkpt lat="48.35769" lon="-4.35599">
        <ele>39.55</ele>
        <time>2019-08-23T11:37:24Z</time>
      </trkpt>
      <trkpt lat="48.3577" lon="-4.35603">
        <ele>39.55</ele>
        <time>2019-08-23T11:37:25Z</time>
      </trkpt>
      <trkpt lat="48.3577" lon="-4.35607">
        <ele>40.03</ele>
        <time>2019-08-23T11:37:26Z</time>
      </trkpt>
      <trkpt lat="48.3577" lon="-4.35612">
        <ele>40.03</ele>
        <time>2019-08-23T11:37:27Z</time>
      </trkpt>
      <trkpt lat="48.35769" lon="-4.35662">
        <ele>40.99</ele>
        <time>2019-08-23T11:37:38Z</time>
      </trkpt>
      <trkpt lat="48.35761" lon="-4.35699">
        <ele>41.95</ele>
        <time>2019-08-23T11:37:48Z</time>
      </trkpt>
      <trkpt lat="48.35756" lon="-4.357">
        <ele>42.92</ele>
        <time>2019-08-23T11:37:51Z</time>
      </trkpt>
      <trkpt lat="48.35753" lon="-4.357">
        <ele>42.92</ele>
        <time>2019-08-23T11:37:52Z</time>
      </trkpt>
      <trkpt lat="48.35719" lon="-4.35698">
        <ele>45.32</ele>
        <time>2019-08-23T11:38:06Z</time>
      </trkpt>
      <trkpt lat="48.35703" lon="-4.35696">
        <ele>46.28</ele>
        <time>2019-08-23T11:38:12Z</time>
      </trkpt>
      <trkpt lat="48.35701" lon="-4.35695">
        <ele>46.28</ele>
        <time>2019-08-23T11:38:13Z</time>
      </trkpt>
      <trkpt lat="48.35699" lon="-4.35695">
        <ele>46.28</ele>
        <time>2019-08-23T11:38:14Z</time>
      </trkpt>
      <trkpt lat="48.35697" lon="-4.35696">
        <ele>46.76</ele>
        <time>2019-08-23T11:38:15Z</time>
      </trkpt>
      <trkpt lat="48.35694" lon="-4.35696">
        <ele>46.76</ele>
        <time>2019-08-23T11:38:16Z</time>
      </trkpt>
      <trkpt lat="48.35666" lon="-4.3568">
        <ele>48.2</ele>
        <time>2019-08-23T11:38:28Z</time>
      </trkpt>
      <trkpt lat="48.35647" lon="-4.35667">
        <ele>48.68</ele>
        <time>2019-08-23T11:38:36Z</time>
      </trkpt>
      <trkpt lat="48.35645" lon="-4.35664">
        <ele>48.68</ele>
        <time>2019-08-23T11:38:37Z</time>
      </trkpt>
      <trkpt lat="48.35642" lon="-4.35662">
        <ele>48.68</ele>
        <time>2019-08-23T11:38:38Z</time>
      </trkpt>
      <trkpt lat="48.3564" lon="-4.3566">
        <ele>48.68</ele>
        <time>2019-08-23T11:38:39Z</time>
      </trkpt>
      <trkpt lat="48.35638" lon="-4.35658">
        <ele>48.68</ele>
        <time>2019-08-23T11:38:40Z</time>
      </trkpt>
      <trkpt lat="48.35635" lon="-4.35658">
        <ele>48.68</ele>
        <time>2019-08-23T11:38:41Z</time>
      </trkpt>
      <trkpt lat="48.35633" lon="-4.35658">
        <ele>49.16</ele>
        <time>2019-08-23T11:38:42Z</time>
      </trkpt>
      <trkpt lat="48.35618" lon="-4.35669">
        <ele>49.65</ele>
        <time>2019-08-23T11:38:49Z</time>
      </trkpt>
      <trkpt lat="48.35609" lon="-4.35677">
        <ele>50.61</ele>
        <time>2019-08-23T11:38:53Z</time>
      </trkpt>
      <trkpt lat="48.35588" lon="-4.35702">
        <ele>53.01</ele>
        <time>2019-08-23T11:39:05Z</time>
      </trkpt>
      <trkpt lat="48.35572" lon="-4.35723">
        <ele>53.49</ele>
        <time>2019-08-23T11:39:13Z</time>
      </trkpt>
      <trkpt lat="48.35567" lon="-4.35731">
        <ele>54.45</ele>
        <time>2019-08-23T11:39:17Z</time>
      </trkpt>
      <trkpt lat="48.35539" lon="-4.35764">
        <ele>54.93</ele>
        <time>2019-08-23T11:39:28Z</time>
      </trkpt>
      <trkpt lat="48.35532" lon="-4.35773">
        <ele>54.93</ele>
        <time>2019-08-23T11:39:31Z</time>
      </trkpt>
      <trkpt lat="48.35529" lon="-4.35782">
        <ele>55.41</ele>
        <time>2019-08-23T11:39:34Z</time>
      </trkpt>
      <trkpt lat="48.35521" lon="-4.35802">
        <ele>55.89</ele>
        <time>2019-08-23T11:39:40Z</time>
      </trkpt>
      <trkpt lat="48.35491" lon="-4.35835">
        <ele>57.34</ele>
        <time>2019-08-23T11:39:51Z</time>
      </trkpt>
      <trkpt lat="48.35465" lon="-4.35862">
        <ele>57.82</ele>
        <time>2019-08-23T11:40:00Z</time>
      </trkpt>
      <trkpt lat="48.3545" lon="-4.35877">
        <ele>58.3</ele>
        <time>2019-08-23T11:40:06Z</time>
      </trkpt>
      <trkpt lat="48.35442" lon="-4.35881">
        <ele>58.3</ele>
        <time>2019-08-23T11:40:09Z</time>
      </trkpt>
      <trkpt lat="48.35409" lon="-4.35898">
        <ele>59.74</ele>
        <time>2019-08-23T11:40:20Z</time>
      </trkpt>
      <trkpt lat="48.35381" lon="-4.35904">
        <ele>61.18</ele>
        <time>2019-08-23T11:40:30Z</time>
      </trkpt>
      <trkpt lat="48.35344" lon="-4.35897">
        <ele>61.18</ele>
        <time>2019-08-23T11:40:41Z</time>
      </trkpt>
      <trkpt lat="48.3534" lon="-4.35896">
        <ele>60.7</ele>
        <time>2019-08-23T11:40:42Z</time>
      </trkpt>
      <trkpt lat="48.35336" lon="-4.35894">
        <ele>60.22</ele>
        <time>2019-08-23T11:40:43Z</time>
      </trkpt>
      <trkpt lat="48.3533" lon="-4.35893">
        <ele>60.22</ele>
        <time>2019-08-23T11:40:44Z</time>
      </trkpt>
      <trkpt lat="48.35296" lon="-4.35885">
        <ele>57.34</ele>
        <time>2019-08-23T11:40:50Z</time>
      </trkpt>
      <trkpt lat="48.3529" lon="-4.35887">
        <ele>56.86</ele>
        <time>2019-08-23T11:40:51Z</time>
      </trkpt>
      <trkpt lat="48.35285" lon="-4.35891">
        <ele>56.37</ele>
        <time>2019-08-23T11:40:52Z</time>
      </trkpt>
      <trkpt lat="48.3528" lon="-4.35895">
        <ele>55.89</ele>
        <time>2019-08-23T11:40:53Z</time>
      </trkpt>
      <trkpt lat="48.35275" lon="-4.35898">
        <ele>55.41</ele>
        <time>2019-08-23T11:40:54Z</time>
      </trkpt>
      <trkpt lat="48.35271" lon="-4.35899">
        <ele>54.93</ele>
        <time>2019-08-23T11:40:55Z</time>
      </trkpt>
      <trkpt lat="48.35267" lon="-4.35899">
        <ele>54.93</ele>
        <time>2019-08-23T11:40:56Z</time>
      </trkpt>
      <trkpt lat="48.35264" lon="-4.35897">
        <ele>54.45</ele>
        <time>2019-08-23T11:40:57Z</time>
      </trkpt>
      <trkpt lat="48.35262" lon="-4.35893">
        <ele>53.97</ele>
        <time>2019-08-23T11:40:58Z</time>
      </trkpt>
      <trkpt lat="48.35261" lon="-4.35888">
        <ele>52.53</ele>
        <time>2019-08-23T11:40:59Z</time>
      </trkpt>
      <trkpt lat="48.35263" lon="-4.35882">
        <ele>52.05</ele>
        <time>2019-08-23T11:41:00Z</time>
      </trkpt>
      <trkpt lat="48.35263" lon="-4.35875">
        <ele>51.57</ele>
        <time>2019-08-23T11:41:01Z</time>
      </trkpt>
      <trkpt lat="48.35262" lon="-4.35867">
        <ele>50.61</ele>
        <time>2019-08-23T11:41:02Z</time>
      </trkpt>
      <trkpt lat="48.35261" lon="-4.35858">
        <ele>49.65</ele>
        <time>2019-08-23T11:41:03Z</time>
      </trkpt>
      <trkpt lat="48.3526" lon="-4.35848">
        <ele>49.16</ele>
        <time>2019-08-23T11:41:04Z</time>
      </trkpt>
      <trkpt lat="48.3526" lon="-4.35836">
        <ele>47.72</ele>
        <time>2019-08-23T11:41:05Z</time>
      </trkpt>
      <trkpt lat="48.3526" lon="-4.35797">
        <ele>44.36</ele>
        <time>2019-08-23T11:41:08Z</time>
      </trkpt>
      <trkpt lat="48.35258" lon="-4.35753">
        <ele>41.47</ele>
        <time>2019-08-23T11:41:11Z</time>
      </trkpt>
      <trkpt lat="48.35255" lon="-4.3572">
        <ele>40.03</ele>
        <time>2019-08-23T11:41:14Z</time>
      </trkpt>
      <trkpt lat="48.35253" lon="-4.35711">
        <ele>39.55</ele>
        <time>2019-08-23T11:41:15Z</time>
      </trkpt>
      <trkpt lat="48.3525" lon="-4.35706">
        <ele>39.55</ele>
        <time>2019-08-23T11:41:16Z</time>
      </trkpt>
      <trkpt lat="48.35247" lon="-4.35703">
        <ele>39.55</ele>
        <time>2019-08-23T11:41:17Z</time>
      </trkpt>
      <trkpt lat="48.35244" lon="-4.35702">
        <ele>39.55</ele>
        <time>2019-08-23T11:41:18Z</time>
      </trkpt>
      <trkpt lat="48.3524" lon="-4.35703">
        <ele>39.55</ele>
        <time>2019-08-23T11:41:19Z</time>
      </trkpt>
      <trkpt lat="48.35236" lon="-4.35705">
        <ele>39.55</ele>
        <time>2019-08-23T11:41:20Z</time>
      </trkpt>
      <trkpt lat="48.35234" lon="-4.35708">
        <ele>40.03</ele>
        <time>2019-08-23T11:41:21Z</time>
      </trkpt>
      <trkpt lat="48.35231" lon="-4.3571">
        <ele>40.03</ele>
        <time>2019-08-23T11:41:22Z</time>
      </trkpt>
      <trkpt lat="48.35227" lon="-4.35712">
        <ele>40.03</ele>
        <time>2019-08-23T11:41:23Z</time>
      </trkpt>
      <trkpt lat="48.35205" lon="-4.35729">
        <ele>41.47</ele>
        <time>2019-08-23T11:41:34Z</time>
      </trkpt>
      <trkpt lat="48.35187" lon="-4.35744">
        <ele>41.47</ele>
        <time>2019-08-23T11:41:44Z</time>
      </trkpt>
      <trkpt lat="48.35149" lon="-4.35793">
        <ele>41.95</ele>
        <time>2019-08-23T11:41:57Z</time>
      </trkpt>
      <trkpt lat="48.35133" lon="-4.3581">
        <ele>41.95</ele>
        <time>2019-08-23T11:42:02Z</time>
      </trkpt>
      <trkpt lat="48.35117" lon="-4.3582">
        <ele>40.99</ele>
        <time>2019-08-23T11:42:06Z</time>
      </trkpt>
      <trkpt lat="48.35112" lon="-4.35822">
        <ele>40.99</ele>
        <time>2019-08-23T11:42:07Z</time>
      </trkpt>
      <trkpt lat="48.35107" lon="-4.35823">
        <ele>40.51</ele>
        <time>2019-08-23T11:42:08Z</time>
      </trkpt>
      <trkpt lat="48.35102" lon="-4.35826">
        <ele>40.03</ele>
        <time>2019-08-23T11:42:09Z</time>
      </trkpt>
      <trkpt lat="48.35097" lon="-4.35829">
        <ele>40.03</ele>
        <time>2019-08-23T11:42:10Z</time>
      </trkpt>
      <trkpt lat="48.35092" lon="-4.35831">
        <ele>39.55</ele>
        <time>2019-08-23T11:42:11Z</time>
      </trkpt>
      <trkpt lat="48.35079" lon="-4.35837">
        <ele>38.59</ele>
        <time>2019-08-23T11:42:16Z</time>
      </trkpt>
      <trkpt lat="48.35077" lon="-4.35834">
        <ele>38.59</ele>
        <time>2019-08-23T11:42:17Z</time>
      </trkpt>
      <trkpt lat="48.35075" lon="-4.35829">
        <ele>38.11</ele>
        <time>2019-08-23T11:42:18Z</time>
      </trkpt>
      <trkpt lat="48.35072" lon="-4.35823">
        <ele>36.67</ele>
        <time>2019-08-23T11:42:19Z</time>
      </trkpt>
      <trkpt lat="48.35067" lon="-4.35817">
        <ele>36.19</ele>
        <time>2019-08-23T11:42:20Z</time>
      </trkpt>
      <trkpt lat="48.35063" lon="-4.35811">
        <ele>34.74</ele>
        <time>2019-08-23T11:42:21Z</time>
      </trkpt>
      <trkpt lat="48.35046" lon="-4.35793">
        <ele>32.34</ele>
        <time>2019-08-23T11:42:24Z</time>
      </trkpt>
      <trkpt lat="48.3504" lon="-4.35791">
        <ele>31.86</ele>
        <time>2019-08-23T11:42:25Z</time>
      </trkpt>
      <trkpt lat="48.35034" lon="-4.35791">
        <ele>31.38</ele>
        <time>2019-08-23T11:42:26Z</time>
      </trkpt>
      <trkpt lat="48.35028" lon="-4.35794">
        <ele>31.38</ele>
        <time>2019-08-23T11:42:27Z</time>
      </trkpt>
      <trkpt lat="48.35023" lon="-4.35799">
        <ele>30.9</ele>
        <time>2019-08-23T11:42:28Z</time>
      </trkpt>
      <trkpt lat="48.35018" lon="-4.35806">
        <ele>30.42</ele>
        <time>2019-08-23T11:42:29Z</time>
      </trkpt>
      <trkpt lat="48.35014" lon="-4.35813">
        <ele>30.42</ele>
        <time>2019-08-23T11:42:30Z</time>
      </trkpt>
      <trkpt lat="48.3501" lon="-4.3582">
        <ele>29.46</ele>
        <time>2019-08-23T11:42:31Z</time>
      </trkpt>
      <trkpt lat="48.34971" lon="-4.35887">
        <ele>28.5</ele>
        <time>2019-08-23T11:42:42Z</time>
      </trkpt>
      <trkpt lat="48.34964" lon="-4.35901">
        <ele>28.5</ele>
        <time>2019-08-23T11:42:45Z</time>
      </trkpt>
      <trkpt lat="48.3496" lon="-4.35906">
        <ele>28.5</ele>
        <time>2019-08-23T11:42:46Z</time>
      </trkpt>
      <trkpt lat="48.34957" lon="-4.35911">
        <ele>28.98</ele>
        <time>2019-08-23T11:42:47Z</time>
      </trkpt>
      <trkpt lat="48.34954" lon="-4.35916">
        <ele>28.98</ele>
        <time>2019-08-23T11:42:48Z</time>
      </trkpt>
      <trkpt lat="48.34951" lon="-4.35921">
        <ele>28.98</ele>
        <time>2019-08-23T11:42:49Z</time>
      </trkpt>
      <trkpt lat="48.34948" lon="-4.35926">
        <ele>28.98</ele>
        <time>2019-08-23T11:42:50Z</time>
      </trkpt>
      <trkpt lat="48.34946" lon="-4.35931">
        <ele>28.98</ele>
        <time>2019-08-23T11:42:51Z</time>
      </trkpt>
      <trkpt lat="48.34944" lon="-4.35936">
        <ele>28.98</ele>
        <time>2019-08-23T11:42:52Z</time>
      </trkpt>
      <trkpt lat="48.3494" lon="-4.35943">
        <ele>28.98</ele>
        <time>2019-08-23T11:42:53Z</time>
      </trkpt>
      <trkpt lat="48.34937" lon="-4.35949">
        <ele>28.98</ele>
        <time>2019-08-23T11:42:54Z</time>
      </trkpt>
      <trkpt lat="48.34926" lon="-4.3599">
        <ele>28.98</ele>
        <time>2019-08-23T11:43:01Z</time>
      </trkpt>
      <trkpt lat="48.34925" lon="-4.35995">
        <ele>28.98</ele>
        <time>2019-08-23T11:43:02Z</time>
      </trkpt>
      <trkpt lat="48.34924" lon="-4.36001">
        <ele>28.98</ele>
        <time>2019-08-23T11:43:03Z</time>
      </trkpt>
      <trkpt lat="48.34923" lon="-4.36007">
        <ele>28.5</ele>
        <time>2019-08-23T11:43:04Z</time>
      </trkpt>
      <trkpt lat="48.3492" lon="-4.36014">
        <ele>28.5</ele>
        <time>2019-08-23T11:43:05Z</time>
      </trkpt>
      <trkpt lat="48.34918" lon="-4.36021">
        <ele>28.02</ele>
        <time>2019-08-23T11:43:06Z</time>
      </trkpt>
      <trkpt lat="48.34915" lon="-4.36028">
        <ele>28.02</ele>
        <time>2019-08-23T11:43:07Z</time>
      </trkpt>
      <trkpt lat="48.34906" lon="-4.36056">
        <ele>28.02</ele>
        <time>2019-08-23T11:43:11Z</time>
      </trkpt>
      <trkpt lat="48.34898" lon="-4.36075">
        <ele>28.02</ele>
        <time>2019-08-23T11:43:14Z</time>
      </trkpt>
      <trkpt lat="48.34895" lon="-4.36081">
        <ele>28.5</ele>
        <time>2019-08-23T11:43:15Z</time>
      </trkpt>
      <trkpt lat="48.34878" lon="-4.36111">
        <ele>28.5</ele>
        <time>2019-08-23T11:43:21Z</time>
      </trkpt>
      <trkpt lat="48.34875" lon="-4.36116">
        <ele>28.5</ele>
        <time>2019-08-23T11:43:22Z</time>
      </trkpt>
      <trkpt lat="48.34846" lon="-4.36157">
        <ele>27.05</ele>
        <time>2019-08-23T11:43:31Z</time>
      </trkpt>
      <trkpt lat="48.34809" lon="-4.3619">
        <ele>25.13</ele>
        <time>2019-08-23T11:43:38Z</time>
      </trkpt>
      <trkpt lat="48.34787" lon="-4.36203">
        <ele>22.73</ele>
        <time>2019-08-23T11:43:42Z</time>
      </trkpt>
      <trkpt lat="48.34782" lon="-4.36205">
        <ele>22.25</ele>
        <time>2019-08-23T11:43:43Z</time>
      </trkpt>
      <trkpt lat="48.34764" lon="-4.36217">
        <ele>19.84</ele>
        <time>2019-08-23T11:43:47Z</time>
      </trkpt>
      <trkpt lat="48.3476" lon="-4.36221">
        <ele>18.88</ele>
        <time>2019-08-23T11:43:48Z</time>
      </trkpt>
      <trkpt lat="48.34755" lon="-4.36225">
        <ele>18.4</ele>
        <time>2019-08-23T11:43:49Z</time>
      </trkpt>
      <trkpt lat="48.34733" lon="-4.3624">
        <ele>15.04</ele>
        <time>2019-08-23T11:43:53Z</time>
      </trkpt>
      <trkpt lat="48.34724" lon="-4.36249">
        <ele>13.6</ele>
        <time>2019-08-23T11:43:55Z</time>
      </trkpt>
      <trkpt lat="48.34721" lon="-4.36254">
        <ele>13.12</ele>
        <time>2019-08-23T11:43:56Z</time>
      </trkpt>
      <trkpt lat="48.34718" lon="-4.3626">
        <ele>12.63</ele>
        <time>2019-08-23T11:43:57Z</time>
      </trkpt>
      <trkpt lat="48.34715" lon="-4.36267">
        <ele>12.15</ele>
        <time>2019-08-23T11:43:58Z</time>
      </trkpt>
      <trkpt lat="48.34713" lon="-4.36275">
        <ele>10.23</ele>
        <time>2019-08-23T11:43:59Z</time>
      </trkpt>
      <trkpt lat="48.34711" lon="-4.36284">
        <ele>9.27</ele>
        <time>2019-08-23T11:44:00Z</time>
      </trkpt>
      <trkpt lat="48.34709" lon="-4.36293">
        <ele>9.27</ele>
        <time>2019-08-23T11:44:01Z</time>
      </trkpt>
      <trkpt lat="48.34702" lon="-4.36328">
        <ele>8.31</ele>
        <time>2019-08-23T11:44:05Z</time>
      </trkpt>
      <trkpt lat="48.34699" lon="-4.36344">
        <ele>7.83</ele>
        <time>2019-08-23T11:44:07Z</time>
      </trkpt>
      <trkpt lat="48.34696" lon="-4.3635">
        <ele>7.83</ele>
        <time>2019-08-23T11:44:08Z</time>
      </trkpt>
      <trkpt lat="48.34692" lon="-4.36356">
        <ele>7.35</ele>
        <time>2019-08-23T11:44:09Z</time>
      </trkpt>
      <trkpt lat="48.34688" lon="-4.3636">
        <ele>6.87</ele>
        <time>2019-08-23T11:44:10Z</time>
      </trkpt>
      <trkpt lat="48.34683" lon="-4.36365">
        <ele>6.87</ele>
        <time>2019-08-23T11:44:11Z</time>
      </trkpt>
      <trkpt lat="48.34651" lon="-4.36383">
        <ele>7.83</ele>
        <time>2019-08-23T11:44:20Z</time>
      </trkpt>
      <trkpt lat="48.34623" lon="-4.36385">
        <ele>10.23</ele>
        <time>2019-08-23T11:44:33Z</time>
      </trkpt>
      <trkpt lat="48.34597" lon="-4.36404">
        <ele>12.15</ele>
        <time>2019-08-23T11:44:45Z</time>
      </trkpt>
      <trkpt lat="48.34576" lon="-4.36448">
        <ele>12.63</ele>
        <time>2019-08-23T11:44:57Z</time>
      </trkpt>
      <trkpt lat="48.34592" lon="-4.36492">
        <ele>13.6</ele>
        <time>2019-08-23T11:45:08Z</time>
      </trkpt>
      <trkpt lat="48.34607" lon="-4.36541">
        <ele>16.96</ele>
        <time>2019-08-23T11:45:21Z</time>
      </trkpt>
      <trkpt lat="48.34629" lon="-4.36591">
        <ele>19.84</ele>
        <time>2019-08-23T11:45:35Z</time>
      </trkpt>
      <trkpt lat="48.34666" lon="-4.36648">
        <ele>21.29</ele>
        <time>2019-08-23T11:45:50Z</time>
      </trkpt>
      <trkpt lat="48.34672" lon="-4.36661">
        <ele>21.29</ele>
        <time>2019-08-23T11:45:53Z</time>
      </trkpt>
      <trkpt lat="48.34672" lon="-4.36667">
        <ele>20.81</ele>
        <time>2019-08-23T11:45:54Z</time>
      </trkpt>
      <trkpt lat="48.3467" lon="-4.36671">
        <ele>20.81</ele>
        <time>2019-08-23T11:45:55Z</time>
      </trkpt>
      <trkpt lat="48.34666" lon="-4.36674">
        <ele>20.81</ele>
        <time>2019-08-23T11:45:56Z</time>
      </trkpt>
      <trkpt lat="48.34663" lon="-4.36678">
        <ele>20.81</ele>
        <time>2019-08-23T11:45:57Z</time>
      </trkpt>
      <trkpt lat="48.3466" lon="-4.36683">
        <ele>20.81</ele>
        <time>2019-08-23T11:45:58Z</time>
      </trkpt>
      <trkpt lat="48.34657" lon="-4.36687">
        <ele>20.32</ele>
        <time>2019-08-23T11:45:59Z</time>
      </trkpt>
      <trkpt lat="48.34654" lon="-4.36692">
        <ele>20.32</ele>
        <time>2019-08-23T11:46:00Z</time>
      </trkpt>
      <trkpt lat="48.34641" lon="-4.36723">
        <ele>19.84</ele>
        <time>2019-08-23T11:46:07Z</time>
      </trkpt>
      <trkpt lat="48.3464" lon="-4.36727">
        <ele>19.36</ele>
        <time>2019-08-23T11:46:08Z</time>
      </trkpt>
      <trkpt lat="48.34632" lon="-4.36752">
        <ele>16</ele>
        <time>2019-08-23T11:46:14Z</time>
      </trkpt>
      <trkpt lat="48.34627" lon="-4.36756">
        <ele>15.52</ele>
        <time>2019-08-23T11:46:15Z</time>
      </trkpt>
      <trkpt lat="48.34623" lon="-4.36758">
        <ele>15.52</ele>
        <time>2019-08-23T11:46:16Z</time>
      </trkpt>
      <trkpt lat="48.34613" lon="-4.3676">
        <ele>15.04</ele>
        <time>2019-08-23T11:46:18Z</time>
      </trkpt>
      <trkpt lat="48.34609" lon="-4.36759">
        <ele>15.04</ele>
        <time>2019-08-23T11:46:19Z</time>
      </trkpt>
      <trkpt lat="48.34606" lon="-4.36758">
        <ele>15.04</ele>
        <time>2019-08-23T11:46:20Z</time>
      </trkpt>
      <trkpt lat="48.34603" lon="-4.36757">
        <ele>15.52</ele>
        <time>2019-08-23T11:46:21Z</time>
      </trkpt>
      <trkpt lat="48.34599" lon="-4.36757">
        <ele>15.04</ele>
        <time>2019-08-23T11:46:22Z</time>
      </trkpt>
      <trkpt lat="48.34594" lon="-4.36756">
        <ele>15.04</ele>
        <time>2019-08-23T11:46:23Z</time>
      </trkpt>
      <trkpt lat="48.34584" lon="-4.36755">
        <ele>14.08</ele>
        <time>2019-08-23T11:46:25Z</time>
      </trkpt>
      <trkpt lat="48.34579" lon="-4.36753">
        <ele>14.08</ele>
        <time>2019-08-23T11:46:26Z</time>
      </trkpt>
      <trkpt lat="48.34574" lon="-4.3675">
        <ele>13.6</ele>
        <time>2019-08-23T11:46:27Z</time>
      </trkpt>
      <trkpt lat="48.3456" lon="-4.3674">
        <ele>13.12</ele>
        <time>2019-08-23T11:46:30Z</time>
      </trkpt>
      <trkpt lat="48.34555" lon="-4.36737">
        <ele>12.63</ele>
        <time>2019-08-23T11:46:31Z</time>
      </trkpt>
      <trkpt lat="48.34551" lon="-4.36733">
        <ele>12.15</ele>
        <time>2019-08-23T11:46:32Z</time>
      </trkpt>
      <trkpt lat="48.34542" lon="-4.3672">
        <ele>11.19</ele>
        <time>2019-08-23T11:46:35Z</time>
      </trkpt>
      <trkpt lat="48.3454" lon="-4.36715">
        <ele>11.19</ele>
        <time>2019-08-23T11:46:36Z</time>
      </trkpt>
      <trkpt lat="48.34533" lon="-4.36704">
        <ele>10.23</ele>
        <time>2019-08-23T11:46:38Z</time>
      </trkpt>
      <trkpt lat="48.34519" lon="-4.36673">
        <ele>8.79</ele>
        <time>2019-08-23T11:46:44Z</time>
      </trkpt>
      <trkpt lat="48.34517" lon="-4.36673">
        <ele>8.31</ele>
        <time>2019-08-23T11:46:45Z</time>
      </trkpt>
      <trkpt lat="48.34514" lon="-4.36674">
        <ele>7.83</ele>
        <time>2019-08-23T11:46:46Z</time>
      </trkpt>
      <trkpt lat="48.34511" lon="-4.36692">
        <ele>7.83</ele>
        <time>2019-08-23T11:46:53Z</time>
      </trkpt>
      <trkpt lat="48.3451" lon="-4.36696">
        <ele>8.79</ele>
        <time>2019-08-23T11:46:55Z</time>
      </trkpt>
      <trkpt lat="48.34502" lon="-4.36706">
        <ele>9.75</ele>
        <time>2019-08-23T11:47:00Z</time>
      </trkpt>
      <trkpt lat="48.34484" lon="-4.36724">
        <ele>12.15</ele>
        <time>2019-08-23T11:47:11Z</time>
      </trkpt>
      <trkpt lat="48.34478" lon="-4.36725">
        <ele>13.12</ele>
        <time>2019-08-23T11:47:14Z</time>
      </trkpt>
      <trkpt lat="48.34471" lon="-4.36731">
        <ele>12.63</ele>
        <time>2019-08-23T11:47:18Z</time>
      </trkpt>
      <trkpt lat="48.34432" lon="-4.36737">
        <ele>14.08</ele>
        <time>2019-08-23T11:47:31Z</time>
      </trkpt>
      <trkpt lat="48.34409" lon="-4.36753">
        <ele>13.6</ele>
        <time>2019-08-23T11:47:40Z</time>
      </trkpt>
      <trkpt lat="48.34372" lon="-4.3678">
        <ele>13.6</ele>
        <time>2019-08-23T11:47:52Z</time>
      </trkpt>
      <trkpt lat="48.34367" lon="-4.36784">
        <ele>13.6</ele>
        <time>2019-08-23T11:47:54Z</time>
      </trkpt>
      <trkpt lat="48.34343" lon="-4.36811">
        <ele>14.08</ele>
        <time>2019-08-23T11:48:04Z</time>
      </trkpt>
      <trkpt lat="48.34322" lon="-4.36858">
        <ele>15.04</ele>
        <time>2019-08-23T11:48:15Z</time>
      </trkpt>
      <trkpt lat="48.34316" lon="-4.36878">
        <ele>15.52</ele>
        <time>2019-08-23T11:48:19Z</time>
      </trkpt>
      <trkpt lat="48.34315" lon="-4.36883">
        <ele>15.52</ele>
        <time>2019-08-23T11:48:20Z</time>
      </trkpt>
      <trkpt lat="48.34314" lon="-4.36887">
        <ele>15.52</ele>
        <time>2019-08-23T11:48:21Z</time>
      </trkpt>
      <trkpt lat="48.3431" lon="-4.36902">
        <ele>16</ele>
        <time>2019-08-23T11:48:24Z</time>
      </trkpt>
      <trkpt lat="48.3431" lon="-4.36907">
        <ele>16</ele>
        <time>2019-08-23T11:48:25Z</time>
      </trkpt>
      <trkpt lat="48.3431" lon="-4.36912">
        <ele>16</ele>
        <time>2019-08-23T11:48:26Z</time>
      </trkpt>
      <trkpt lat="48.34309" lon="-4.36917">
        <ele>16</ele>
        <time>2019-08-23T11:48:27Z</time>
      </trkpt>
      <trkpt lat="48.34308" lon="-4.36922">
        <ele>16</ele>
        <time>2019-08-23T11:48:28Z</time>
      </trkpt>
      <trkpt lat="48.34305" lon="-4.36928">
        <ele>16</ele>
        <time>2019-08-23T11:48:29Z</time>
      </trkpt>
      <trkpt lat="48.34303" lon="-4.36934">
        <ele>16</ele>
        <time>2019-08-23T11:48:30Z</time>
      </trkpt>
      <trkpt lat="48.3428" lon="-4.36995">
        <ele>16.48</ele>
        <time>2019-08-23T11:48:40Z</time>
      </trkpt>
      <trkpt lat="48.34265" lon="-4.37022">
        <ele>16.48</ele>
        <time>2019-08-23T11:48:49Z</time>
      </trkpt>
      <trkpt lat="48.34238" lon="-4.37056">
        <ele>16</ele>
        <time>2019-08-23T11:48:59Z</time>
      </trkpt>
      <trkpt lat="48.34231" lon="-4.37065">
        <ele>15.52</ele>
        <time>2019-08-23T11:49:01Z</time>
      </trkpt>
      <trkpt lat="48.34214" lon="-4.3709">
        <ele>15.04</ele>
        <time>2019-08-23T11:49:06Z</time>
      </trkpt>
      <trkpt lat="48.34212" lon="-4.37095">
        <ele>14.56</ele>
        <time>2019-08-23T11:49:07Z</time>
      </trkpt>
      <trkpt lat="48.34207" lon="-4.37108">
        <ele>14.56</ele>
        <time>2019-08-23T11:49:09Z</time>
      </trkpt>
      <trkpt lat="48.34205" lon="-4.37113">
        <ele>14.56</ele>
        <time>2019-08-23T11:49:10Z</time>
      </trkpt>
      <trkpt lat="48.34203" lon="-4.37118">
        <ele>15.04</ele>
        <time>2019-08-23T11:49:11Z</time>
      </trkpt>
      <trkpt lat="48.342" lon="-4.37122">
        <ele>15.04</ele>
        <time>2019-08-23T11:49:12Z</time>
      </trkpt>
      <trkpt lat="48.34197" lon="-4.37125">
        <ele>15.04</ele>
        <time>2019-08-23T11:49:13Z</time>
      </trkpt>
      <trkpt lat="48.34193" lon="-4.37128">
        <ele>15.04</ele>
        <time>2019-08-23T11:49:14Z</time>
      </trkpt>
      <trkpt lat="48.34189" lon="-4.3713">
        <ele>15.52</ele>
        <time>2019-08-23T11:49:15Z</time>
      </trkpt>
      <trkpt lat="48.34184" lon="-4.3713">
        <ele>15.52</ele>
        <time>2019-08-23T11:49:16Z</time>
      </trkpt>
      <trkpt lat="48.34179" lon="-4.3713">
        <ele>15.04</ele>
        <time>2019-08-23T11:49:17Z</time>
      </trkpt>
      <trkpt lat="48.34174" lon="-4.3713">
        <ele>15.04</ele>
        <time>2019-08-23T11:49:18Z</time>
      </trkpt>
      <trkpt lat="48.3417" lon="-4.3713">
        <ele>15.52</ele>
        <time>2019-08-23T11:49:19Z</time>
      </trkpt>
      <trkpt lat="48.34132" lon="-4.37127">
        <ele>16.48</ele>
        <time>2019-08-23T11:49:28Z</time>
      </trkpt>
      <trkpt lat="48.34128" lon="-4.37128">
        <ele>16.48</ele>
        <time>2019-08-23T11:49:29Z</time>
      </trkpt>
      <trkpt lat="48.34125" lon="-4.37129">
        <ele>16.96</ele>
        <time>2019-08-23T11:49:30Z</time>
      </trkpt>
      <trkpt lat="48.34121" lon="-4.37128">
        <ele>16.96</ele>
        <time>2019-08-23T11:49:31Z</time>
      </trkpt>
      <trkpt lat="48.34117" lon="-4.37126">
        <ele>16.96</ele>
        <time>2019-08-23T11:49:32Z</time>
      </trkpt>
      <trkpt lat="48.34114" lon="-4.37124">
        <ele>16.96</ele>
        <time>2019-08-23T11:49:33Z</time>
      </trkpt>
      <trkpt lat="48.3411" lon="-4.3712">
        <ele>16.48</ele>
        <time>2019-08-23T11:49:34Z</time>
      </trkpt>
      <trkpt lat="48.34106" lon="-4.37115">
        <ele>16.48</ele>
        <time>2019-08-23T11:49:35Z</time>
      </trkpt>
      <trkpt lat="48.34103" lon="-4.37109">
        <ele>16</ele>
        <time>2019-08-23T11:49:36Z</time>
      </trkpt>
      <trkpt lat="48.341" lon="-4.37102">
        <ele>15.04</ele>
        <time>2019-08-23T11:49:37Z</time>
      </trkpt>
      <trkpt lat="48.34096" lon="-4.37096">
        <ele>15.04</ele>
        <time>2019-08-23T11:49:38Z</time>
      </trkpt>
      <trkpt lat="48.34092" lon="-4.3709">
        <ele>14.56</ele>
        <time>2019-08-23T11:49:39Z</time>
      </trkpt>
      <trkpt lat="48.34088" lon="-4.37085">
        <ele>15.04</ele>
        <time>2019-08-23T11:49:40Z</time>
      </trkpt>
      <trkpt lat="48.34085" lon="-4.3708">
        <ele>15.04</ele>
        <time>2019-08-23T11:49:41Z</time>
      </trkpt>
      <trkpt lat="48.34081" lon="-4.37075">
        <ele>15.04</ele>
        <time>2019-08-23T11:49:42Z</time>
      </trkpt>
      <trkpt lat="48.34077" lon="-4.37071">
        <ele>15.04</ele>
        <time>2019-08-23T11:49:43Z</time>
      </trkpt>
      <trkpt lat="48.3407" lon="-4.37064">
        <ele>15.52</ele>
        <time>2019-08-23T11:49:45Z</time>
      </trkpt>
      <trkpt lat="48.34065" lon="-4.37062">
        <ele>15.52</ele>
        <time>2019-08-23T11:49:46Z</time>
      </trkpt>
      <trkpt lat="48.34061" lon="-4.37063">
        <ele>15.52</ele>
        <time>2019-08-23T11:49:47Z</time>
      </trkpt>
      <trkpt lat="48.34058" lon="-4.37065">
        <ele>15.52</ele>
        <time>2019-08-23T11:49:48Z</time>
      </trkpt>
      <trkpt lat="48.34054" lon="-4.37067">
        <ele>16</ele>
        <time>2019-08-23T11:49:49Z</time>
      </trkpt>
      <trkpt lat="48.34047" lon="-4.37068">
        <ele>16</ele>
        <time>2019-08-23T11:49:51Z</time>
      </trkpt>
      <trkpt lat="48.34044" lon="-4.37065">
        <ele>17.44</ele>
        <time>2019-08-23T11:49:52Z</time>
      </trkpt>
      <trkpt lat="48.34041" lon="-4.37061">
        <ele>16.48</ele>
        <time>2019-08-23T11:49:53Z</time>
      </trkpt>
      <trkpt lat="48.34038" lon="-4.37058">
        <ele>16.48</ele>
        <time>2019-08-23T11:49:54Z</time>
      </trkpt>
      <trkpt lat="48.34034" lon="-4.37055">
        <ele>16.48</ele>
        <time>2019-08-23T11:49:55Z</time>
      </trkpt>
      <trkpt lat="48.34031" lon="-4.37052">
        <ele>16</ele>
        <time>2019-08-23T11:49:56Z</time>
      </trkpt>
      <trkpt lat="48.34026" lon="-4.37051">
        <ele>16.48</ele>
        <time>2019-08-23T11:49:57Z</time>
      </trkpt>
      <trkpt lat="48.34022" lon="-4.3705">
        <ele>16.48</ele>
        <time>2019-08-23T11:49:58Z</time>
      </trkpt>
      <trkpt lat="48.33977" lon="-4.37034">
        <ele>16.96</ele>
        <time>2019-08-23T11:50:10Z</time>
      </trkpt>
      <trkpt lat="48.33973" lon="-4.37033">
        <ele>16.48</ele>
        <time>2019-08-23T11:50:11Z</time>
      </trkpt>
      <trkpt lat="48.33968" lon="-4.37032">
        <ele>16.48</ele>
        <time>2019-08-23T11:50:12Z</time>
      </trkpt>
      <trkpt lat="48.33962" lon="-4.37033">
        <ele>16</ele>
        <time>2019-08-23T11:50:13Z</time>
      </trkpt>
      <trkpt lat="48.33957" lon="-4.37034">
        <ele>16</ele>
        <time>2019-08-23T11:50:14Z</time>
      </trkpt>
      <trkpt lat="48.3394" lon="-4.37036">
        <ele>15.04</ele>
        <time>2019-08-23T11:50:17Z</time>
      </trkpt>
      <trkpt lat="48.33935" lon="-4.37035">
        <ele>15.04</ele>
        <time>2019-08-23T11:50:18Z</time>
      </trkpt>
      <trkpt lat="48.33929" lon="-4.37033">
        <ele>14.56</ele>
        <time>2019-08-23T11:50:19Z</time>
      </trkpt>
      <trkpt lat="48.33923" lon="-4.37031">
        <ele>14.56</ele>
        <time>2019-08-23T11:50:20Z</time>
      </trkpt>
      <trkpt lat="48.33918" lon="-4.37027">
        <ele>14.08</ele>
        <time>2019-08-23T11:50:21Z</time>
      </trkpt>
      <trkpt lat="48.33913" lon="-4.37022">
        <ele>13.6</ele>
        <time>2019-08-23T11:50:22Z</time>
      </trkpt>
      <trkpt lat="48.33909" lon="-4.37014">
        <ele>13.12</ele>
        <time>2019-08-23T11:50:23Z</time>
      </trkpt>
      <trkpt lat="48.33905" lon="-4.37006">
        <ele>12.63</ele>
        <time>2019-08-23T11:50:24Z</time>
      </trkpt>
      <trkpt lat="48.33901" lon="-4.36998">
        <ele>12.15</ele>
        <time>2019-08-23T11:50:25Z</time>
      </trkpt>
      <trkpt lat="48.33883" lon="-4.36966">
        <ele>10.71</ele>
        <time>2019-08-23T11:50:29Z</time>
      </trkpt>
      <trkpt lat="48.33876" lon="-4.3696">
        <ele>10.71</ele>
        <time>2019-08-23T11:50:30Z</time>
      </trkpt>
      <trkpt lat="48.33869" lon="-4.36958">
        <ele>9.75</ele>
        <time>2019-08-23T11:50:31Z</time>
      </trkpt>
      <trkpt lat="48.33861" lon="-4.36959">
        <ele>9.27</ele>
        <time>2019-08-23T11:50:32Z</time>
      </trkpt>
      <trkpt lat="48.33853" lon="-4.36962">
        <ele>8.79</ele>
        <time>2019-08-23T11:50:33Z</time>
      </trkpt>
      <trkpt lat="48.33844" lon="-4.36967">
        <ele>8.31</ele>
        <time>2019-08-23T11:50:34Z</time>
      </trkpt>
      <trkpt lat="48.3382" lon="-4.36976">
        <ele>6.87</ele>
        <time>2019-08-23T11:50:37Z</time>
      </trkpt>
      <trkpt lat="48.33812" lon="-4.36977">
        <ele>6.87</ele>
        <time>2019-08-23T11:50:38Z</time>
      </trkpt>
      <trkpt lat="48.33733" lon="-4.36967">
        <ele>7.35</ele>
        <time>2019-08-23T11:50:51Z</time>
      </trkpt>
      <trkpt lat="48.33678" lon="-4.36951">
        <ele>7.83</ele>
        <time>2019-08-23T11:51:02Z</time>
      </trkpt>
      <trkpt lat="48.33643" lon="-4.36943">
        <ele>7.35</ele>
        <time>2019-08-23T11:51:10Z</time>
      </trkpt>
      <trkpt lat="48.33639" lon="-4.36942">
        <ele>7.35</ele>
        <time>2019-08-23T11:51:11Z</time>
      </trkpt>
      <trkpt lat="48.33596" lon="-4.36932">
        <ele>7.83</ele>
        <time>2019-08-23T11:51:23Z</time>
      </trkpt>
      <trkpt lat="48.33562" lon="-4.36902">
        <ele>7.35</ele>
        <time>2019-08-23T11:51:34Z</time>
      </trkpt>
      <trkpt lat="48.33551" lon="-4.36871">
        <ele>7.35</ele>
        <time>2019-08-23T11:51:41Z</time>
      </trkpt>
      <trkpt lat="48.33549" lon="-4.36871">
        <ele>7.83</ele>
        <time>2019-08-23T11:51:42Z</time>
      </trkpt>
      <trkpt lat="48.33533" lon="-4.36883">
        <ele>9.75</ele>
        <time>2019-08-23T11:51:52Z</time>
      </trkpt>
      <trkpt lat="48.33504" lon="-4.36908">
        <ele>9.75</ele>
        <time>2019-08-23T11:52:04Z</time>
      </trkpt>
      <trkpt lat="48.33476" lon="-4.36953">
        <ele>11.67</ele>
        <time>2019-08-23T11:52:17Z</time>
      </trkpt>
      <trkpt lat="48.33447" lon="-4.37009">
        <ele>14.08</ele>
        <time>2019-08-23T11:52:32Z</time>
      </trkpt>
      <trkpt lat="48.33407" lon="-4.37046">
        <ele>15.52</ele>
        <time>2019-08-23T11:52:46Z</time>
      </trkpt>
      <trkpt lat="48.33366" lon="-4.37087">
        <ele>16</ele>
        <time>2019-08-23T11:52:59Z</time>
      </trkpt>
      <trkpt lat="48.33321" lon="-4.37126">
        <ele>16</ele>
        <time>2019-08-23T11:53:12Z</time>
      </trkpt>
      <trkpt lat="48.33304" lon="-4.37134">
        <ele>16</ele>
        <time>2019-08-23T11:53:16Z</time>
      </trkpt>
      <trkpt lat="48.33301" lon="-4.37135">
        <ele>15.52</ele>
        <time>2019-08-23T11:53:17Z</time>
      </trkpt>
      <trkpt lat="48.33297" lon="-4.37135">
        <ele>16</ele>
        <time>2019-08-23T11:53:18Z</time>
      </trkpt>
      <trkpt lat="48.33294" lon="-4.37132">
        <ele>15.52</ele>
        <time>2019-08-23T11:53:19Z</time>
      </trkpt>
      <trkpt lat="48.33291" lon="-4.37128">
        <ele>15.52</ele>
        <time>2019-08-23T11:53:20Z</time>
      </trkpt>
      <trkpt lat="48.3329" lon="-4.37123">
        <ele>15.52</ele>
        <time>2019-08-23T11:53:21Z</time>
      </trkpt>
      <trkpt lat="48.33287" lon="-4.37119">
        <ele>15.52</ele>
        <time>2019-08-23T11:53:22Z</time>
      </trkpt>
      <trkpt lat="48.33285" lon="-4.37116">
        <ele>15.52</ele>
        <time>2019-08-23T11:53:23Z</time>
      </trkpt>
      <trkpt lat="48.33284" lon="-4.37116">
        <ele>15.52</ele>
        <time>2019-08-23T11:53:33Z</time>
      </trkpt>
      <trkpt lat="48.33286" lon="-4.3712">
        <ele>15.52</ele>
        <time>2019-08-23T11:53:40Z</time>
      </trkpt>
      <trkpt lat="48.33287" lon="-4.37121">
        <ele>15.52</ele>
        <time>2019-08-23T11:53:41Z</time>
      </trkpt>
      <trkpt lat="48.33288" lon="-4.37122">
        <ele>15.52</ele>
        <time>2019-08-23T11:53:42Z</time>
      </trkpt>
      <trkpt lat="48.33289" lon="-4.37124">
        <ele>15.52</ele>
        <time>2019-08-23T11:53:43Z</time>
      </trkpt>
      <trkpt lat="48.3329" lon="-4.37127">
        <ele>15.52</ele>
        <time>2019-08-23T11:53:44Z</time>
      </trkpt>
      <trkpt lat="48.33291" lon="-4.37129">
        <ele>15.52</ele>
        <time>2019-08-23T11:53:45Z</time>
      </trkpt>
      <trkpt lat="48.33292" lon="-4.37132">
        <ele>15.52</ele>
        <time>2019-08-23T11:53:46Z</time>
      </trkpt>
      <trkpt lat="48.33293" lon="-4.37135">
        <ele>16</ele>
        <time>2019-08-23T11:53:47Z</time>
      </trkpt>
      <trkpt lat="48.33293" lon="-4.37137">
        <ele>16</ele>
        <time>2019-08-23T11:53:48Z</time>
      </trkpt>
      <trkpt lat="48.33291" lon="-4.37139">
        <ele>16</ele>
        <time>2019-08-23T11:53:49Z</time>
      </trkpt>
      <trkpt lat="48.33289" lon="-4.3714">
        <ele>16</ele>
        <time>2019-08-23T11:53:50Z</time>
      </trkpt>
      <trkpt lat="48.33287" lon="-4.37142">
        <ele>16</ele>
        <time>2019-08-23T11:53:51Z</time>
      </trkpt>
      <trkpt lat="48.3327" lon="-4.37154">
        <ele>16</ele>
        <time>2019-08-23T11:53:57Z</time>
      </trkpt>
      <trkpt lat="48.33266" lon="-4.37163">
        <ele>16.48</ele>
        <time>2019-08-23T11:54:00Z</time>
      </trkpt>
      <trkpt lat="48.33244" lon="-4.37175">
        <ele>16</ele>
        <time>2019-08-23T11:54:08Z</time>
      </trkpt>
      <trkpt lat="48.33241" lon="-4.37179">
        <ele>16</ele>
        <time>2019-08-23T11:54:09Z</time>
      </trkpt>
      <trkpt lat="48.33227" lon="-4.37195">
        <ele>15.52</ele>
        <time>2019-08-23T11:54:13Z</time>
      </trkpt>
      <trkpt lat="48.33223" lon="-4.37198">
        <ele>15.04</ele>
        <time>2019-08-23T11:54:14Z</time>
      </trkpt>
      <trkpt lat="48.33213" lon="-4.37202">
        <ele>14.56</ele>
        <time>2019-08-23T11:54:16Z</time>
      </trkpt>
      <trkpt lat="48.3319" lon="-4.37211">
        <ele>12.63</ele>
        <time>2019-08-23T11:54:20Z</time>
      </trkpt>
      <trkpt lat="48.33176" lon="-4.37219">
        <ele>11.19</ele>
        <time>2019-08-23T11:54:22Z</time>
      </trkpt>
      <trkpt lat="48.33169" lon="-4.37225">
        <ele>10.23</ele>
        <time>2019-08-23T11:54:23Z</time>
      </trkpt>
      <trkpt lat="48.33163" lon="-4.37234">
        <ele>9.75</ele>
        <time>2019-08-23T11:54:24Z</time>
      </trkpt>
      <trkpt lat="48.33158" lon="-4.37244">
        <ele>8.79</ele>
        <time>2019-08-23T11:54:25Z</time>
      </trkpt>
      <trkpt lat="48.33154" lon="-4.37254">
        <ele>7.83</ele>
        <time>2019-08-23T11:54:26Z</time>
      </trkpt>
      <trkpt lat="48.3315" lon="-4.37265">
        <ele>7.83</ele>
        <time>2019-08-23T11:54:27Z</time>
      </trkpt>
      <trkpt lat="48.33146" lon="-4.37276">
        <ele>7.35</ele>
        <time>2019-08-23T11:54:28Z</time>
      </trkpt>
      <trkpt lat="48.3314" lon="-4.37284">
        <ele>7.35</ele>
        <time>2019-08-23T11:54:29Z</time>
      </trkpt>
      <trkpt lat="48.33133" lon="-4.37288">
        <ele>7.35</ele>
        <time>2019-08-23T11:54:30Z</time>
      </trkpt>
      <trkpt lat="48.33126" lon="-4.3729">
        <ele>7.35</ele>
        <time>2019-08-23T11:54:31Z</time>
      </trkpt>
      <trkpt lat="48.33119" lon="-4.37289">
        <ele>6.87</ele>
        <time>2019-08-23T11:54:32Z</time>
      </trkpt>
      <trkpt lat="48.33112" lon="-4.37287">
        <ele>6.87</ele>
        <time>2019-08-23T11:54:33Z</time>
      </trkpt>
      <trkpt lat="48.33105" lon="-4.37285">
        <ele>6.87</ele>
        <time>2019-08-23T11:54:34Z</time>
      </trkpt>
      <trkpt lat="48.33063" lon="-4.37268">
        <ele>7.35</ele>
        <time>2019-08-23T11:54:42Z</time>
      </trkpt>
      <trkpt lat="48.33058" lon="-4.3727">
        <ele>7.83</ele>
        <time>2019-08-23T11:54:43Z</time>
      </trkpt>
      <trkpt lat="48.33055" lon="-4.37273">
        <ele>7.83</ele>
        <time>2019-08-23T11:54:44Z</time>
      </trkpt>
      <trkpt lat="48.33052" lon="-4.37278">
        <ele>7.83</ele>
        <time>2019-08-23T11:54:45Z</time>
      </trkpt>
      <trkpt lat="48.3305" lon="-4.37284">
        <ele>7.83</ele>
        <time>2019-08-23T11:54:46Z</time>
      </trkpt>
      <trkpt lat="48.33044" lon="-4.373">
        <ele>7.83</ele>
        <time>2019-08-23T11:54:50Z</time>
      </trkpt>
      <trkpt lat="48.33043" lon="-4.37299">
        <ele>7.83</ele>
        <time>2019-08-23T11:54:51Z</time>
      </trkpt>
      <trkpt lat="48.33023" lon="-4.37287">
        <ele>9.75</ele>
        <time>2019-08-23T11:55:04Z</time>
      </trkpt>
      <trkpt lat="48.33006" lon="-4.37275">
        <ele>11.19</ele>
        <time>2019-08-23T11:55:14Z</time>
      </trkpt>
      <trkpt lat="48.33004" lon="-4.37273">
        <ele>11.19</ele>
        <time>2019-08-23T11:55:15Z</time>
      </trkpt>
      <trkpt lat="48.33003" lon="-4.37272">
        <ele>11.67</ele>
        <time>2019-08-23T11:55:16Z</time>
      </trkpt>
      <trkpt lat="48.33001" lon="-4.3727">
        <ele>11.67</ele>
        <time>2019-08-23T11:55:17Z</time>
      </trkpt>
      <trkpt lat="48.33" lon="-4.37269">
        <ele>12.15</ele>
        <time>2019-08-23T11:55:18Z</time>
      </trkpt>
      <trkpt lat="48.32979" lon="-4.37253">
        <ele>14.56</ele>
        <time>2019-08-23T11:55:32Z</time>
      </trkpt>
      <trkpt lat="48.32965" lon="-4.37243">
        <ele>17.44</ele>
        <time>2019-08-23T11:55:43Z</time>
      </trkpt>
      <trkpt lat="48.32954" lon="-4.37238">
        <ele>19.84</ele>
        <time>2019-08-23T11:55:51Z</time>
      </trkpt>
      <trkpt lat="48.32952" lon="-4.37237">
        <ele>20.81</ele>
        <time>2019-08-23T11:55:52Z</time>
      </trkpt>
      <trkpt lat="48.32951" lon="-4.37236">
        <ele>20.32</ele>
        <time>2019-08-23T11:55:53Z</time>
      </trkpt>
      <trkpt lat="48.32936" lon="-4.37223">
        <ele>23.69</ele>
        <time>2019-08-23T11:56:05Z</time>
      </trkpt>
      <trkpt lat="48.3293" lon="-4.37215">
        <ele>25.13</ele>
        <time>2019-08-23T11:56:11Z</time>
      </trkpt>
      <trkpt lat="48.32929" lon="-4.37215">
        <ele>25.61</ele>
        <time>2019-08-23T11:56:12Z</time>
      </trkpt>
      <trkpt lat="48.32927" lon="-4.37215">
        <ele>25.61</ele>
        <time>2019-08-23T11:56:13Z</time>
      </trkpt>
      <trkpt lat="48.32924" lon="-4.37219">
        <ele>27.05</ele>
        <time>2019-08-23T11:56:18Z</time>
      </trkpt>
      <trkpt lat="48.32923" lon="-4.3722">
        <ele>27.05</ele>
        <time>2019-08-23T11:56:19Z</time>
      </trkpt>
      <trkpt lat="48.32918" lon="-4.37237">
        <ele>28.5</ele>
        <time>2019-08-23T11:56:29Z</time>
      </trkpt>
      <trkpt lat="48.32911" lon="-4.37259">
        <ele>29.94</ele>
        <time>2019-08-23T11:56:37Z</time>
      </trkpt>
      <trkpt lat="48.32911" lon="-4.37262">
        <ele>29.94</ele>
        <time>2019-08-23T11:56:38Z</time>
      </trkpt>
      <trkpt lat="48.3291" lon="-4.37265">
        <ele>30.42</ele>
        <time>2019-08-23T11:56:39Z</time>
      </trkpt>
      <trkpt lat="48.32908" lon="-4.3727">
        <ele>30.42</ele>
        <time>2019-08-23T11:56:41Z</time>
      </trkpt>
      <trkpt lat="48.32907" lon="-4.37274">
        <ele>30.42</ele>
        <time>2019-08-23T11:56:42Z</time>
      </trkpt>
      <trkpt lat="48.32906" lon="-4.37278">
        <ele>30.42</ele>
        <time>2019-08-23T11:56:43Z</time>
      </trkpt>
      <trkpt lat="48.32905" lon="-4.37281">
        <ele>30.42</ele>
        <time>2019-08-23T11:56:44Z</time>
      </trkpt>
      <trkpt lat="48.32905" lon="-4.37285">
        <ele>30.42</ele>
        <time>2019-08-23T11:56:45Z</time>
      </trkpt>
      <trkpt lat="48.32905" lon="-4.37289">
        <ele>30.42</ele>
        <time>2019-08-23T11:56:46Z</time>
      </trkpt>
      <trkpt lat="48.32904" lon="-4.37293">
        <ele>29.94</ele>
        <time>2019-08-23T11:56:47Z</time>
      </trkpt>
      <trkpt lat="48.32903" lon="-4.37298">
        <ele>29.94</ele>
        <time>2019-08-23T11:56:48Z</time>
      </trkpt>
      <trkpt lat="48.32902" lon="-4.37302">
        <ele>29.94</ele>
        <time>2019-08-23T11:56:49Z</time>
      </trkpt>
      <trkpt lat="48.32894" lon="-4.37333">
        <ele>28.98</ele>
        <time>2019-08-23T11:56:55Z</time>
      </trkpt>
      <trkpt lat="48.32883" lon="-4.37357">
        <ele>28.02</ele>
        <time>2019-08-23T11:56:59Z</time>
      </trkpt>
      <trkpt lat="48.32881" lon="-4.37363">
        <ele>28.02</ele>
        <time>2019-08-23T11:57:00Z</time>
      </trkpt>
      <trkpt lat="48.32861" lon="-4.37401">
        <ele>28.98</ele>
        <time>2019-08-23T11:57:10Z</time>
      </trkpt>
      <trkpt lat="48.32841" lon="-4.37437">
        <ele>29.46</ele>
        <time>2019-08-23T11:57:22Z</time>
      </trkpt>
      <trkpt lat="48.3284" lon="-4.3744">
        <ele>29.94</ele>
        <time>2019-08-23T11:57:23Z</time>
      </trkpt>
      <trkpt lat="48.32839" lon="-4.37443">
        <ele>29.94</ele>
        <time>2019-08-23T11:57:24Z</time>
      </trkpt>
      <trkpt lat="48.32838" lon="-4.37446">
        <ele>29.94</ele>
        <time>2019-08-23T11:57:25Z</time>
      </trkpt>
      <trkpt lat="48.32837" lon="-4.37448">
        <ele>29.94</ele>
        <time>2019-08-23T11:57:26Z</time>
      </trkpt>
      <trkpt lat="48.32835" lon="-4.37449">
        <ele>30.42</ele>
        <time>2019-08-23T11:57:31Z</time>
      </trkpt>
      <trkpt lat="48.32834" lon="-4.3745">
        <ele>29.94</ele>
        <time>2019-08-23T11:57:32Z</time>
      </trkpt>
      <trkpt lat="48.32831" lon="-4.37453">
        <ele>29.94</ele>
        <time>2019-08-23T11:57:33Z</time>
      </trkpt>
      <trkpt lat="48.32829" lon="-4.37456">
        <ele>29.94</ele>
        <time>2019-08-23T11:57:34Z</time>
      </trkpt>
      <trkpt lat="48.32826" lon="-4.3746">
        <ele>29.94</ele>
        <time>2019-08-23T11:57:35Z</time>
      </trkpt>
      <trkpt lat="48.32823" lon="-4.37463">
        <ele>29.46</ele>
        <time>2019-08-23T11:57:36Z</time>
      </trkpt>
      <trkpt lat="48.3281" lon="-4.3748">
        <ele>28.98</ele>
        <time>2019-08-23T11:57:40Z</time>
      </trkpt>
      <trkpt lat="48.32807" lon="-4.37484">
        <ele>28.98</ele>
        <time>2019-08-23T11:57:41Z</time>
      </trkpt>
      <trkpt lat="48.32804" lon="-4.37487">
        <ele>28.98</ele>
        <time>2019-08-23T11:57:42Z</time>
      </trkpt>
      <trkpt lat="48.328" lon="-4.37487">
        <ele>28.5</ele>
        <time>2019-08-23T11:57:43Z</time>
      </trkpt>
      <trkpt lat="48.32795" lon="-4.37488">
        <ele>28.02</ele>
        <time>2019-08-23T11:57:44Z</time>
      </trkpt>
      <trkpt lat="48.32791" lon="-4.3749">
        <ele>27.53</ele>
        <time>2019-08-23T11:57:45Z</time>
      </trkpt>
      <trkpt lat="48.32788" lon="-4.37495">
        <ele>27.05</ele>
        <time>2019-08-23T11:57:46Z</time>
      </trkpt>
      <trkpt lat="48.32785" lon="-4.37501">
        <ele>26.57</ele>
        <time>2019-08-23T11:57:47Z</time>
      </trkpt>
      <trkpt lat="48.32777" lon="-4.37543">
        <ele>28.5</ele>
        <time>2019-08-23T11:57:56Z</time>
      </trkpt>
      <trkpt lat="48.32762" lon="-4.37577">
        <ele>28.02</ele>
        <time>2019-08-23T11:58:03Z</time>
      </trkpt>
      <trkpt lat="48.32755" lon="-4.37604">
        <ele>27.53</ele>
        <time>2019-08-23T11:58:08Z</time>
      </trkpt>
      <trkpt lat="48.32756" lon="-4.37608">
        <ele>27.53</ele>
        <time>2019-08-23T11:58:09Z</time>
      </trkpt>
      <trkpt lat="48.32758" lon="-4.37612">
        <ele>28.02</ele>
        <time>2019-08-23T11:58:10Z</time>
      </trkpt>
      <trkpt lat="48.3276" lon="-4.37615">
        <ele>28.02</ele>
        <time>2019-08-23T11:58:11Z</time>
      </trkpt>
      <trkpt lat="48.32762" lon="-4.37617">
        <ele>28.5</ele>
        <time>2019-08-23T11:58:12Z</time>
      </trkpt>
      <trkpt lat="48.32764" lon="-4.3762">
        <ele>28.98</ele>
        <time>2019-08-23T11:58:13Z</time>
      </trkpt>
      <trkpt lat="48.32765" lon="-4.37624">
        <ele>28.98</ele>
        <time>2019-08-23T11:58:14Z</time>
      </trkpt>
      <trkpt lat="48.32773" lon="-4.37671">
        <ele>29.46</ele>
        <time>2019-08-23T11:58:24Z</time>
      </trkpt>
      <trkpt lat="48.32777" lon="-4.37689">
        <ele>28.98</ele>
        <time>2019-08-23T11:58:27Z</time>
      </trkpt>
      <trkpt lat="48.32782" lon="-4.37701">
        <ele>28.02</ele>
        <time>2019-08-23T11:58:29Z</time>
      </trkpt>
      <trkpt lat="48.32787" lon="-4.37713">
        <ele>27.05</ele>
        <time>2019-08-23T11:58:31Z</time>
      </trkpt>
      <trkpt lat="48.32796" lon="-4.37745">
        <ele>24.17</ele>
        <time>2019-08-23T11:58:35Z</time>
      </trkpt>
      <trkpt lat="48.32799" lon="-4.37753">
        <ele>24.17</ele>
        <time>2019-08-23T11:58:36Z</time>
      </trkpt>
      <trkpt lat="48.32801" lon="-4.37762">
        <ele>23.21</ele>
        <time>2019-08-23T11:58:37Z</time>
      </trkpt>
      <trkpt lat="48.32804" lon="-4.37771">
        <ele>22.73</ele>
        <time>2019-08-23T11:58:38Z</time>
      </trkpt>
      <trkpt lat="48.32806" lon="-4.37779">
        <ele>22.25</ele>
        <time>2019-08-23T11:58:39Z</time>
      </trkpt>
      <trkpt lat="48.3281" lon="-4.37787">
        <ele>21.77</ele>
        <time>2019-08-23T11:58:40Z</time>
      </trkpt>
      <trkpt lat="48.32814" lon="-4.37794">
        <ele>21.77</ele>
        <time>2019-08-23T11:58:41Z</time>
      </trkpt>
      <trkpt lat="48.32818" lon="-4.37801">
        <ele>21.29</ele>
        <time>2019-08-23T11:58:42Z</time>
      </trkpt>
      <trkpt lat="48.32822" lon="-4.37808">
        <ele>21.29</ele>
        <time>2019-08-23T11:58:43Z</time>
      </trkpt>
      <trkpt lat="48.32839" lon="-4.37839">
        <ele>21.29</ele>
        <time>2019-08-23T11:58:48Z</time>
      </trkpt>
      <trkpt lat="48.32841" lon="-4.37846">
        <ele>21.29</ele>
        <time>2019-08-23T11:58:49Z</time>
      </trkpt>
      <trkpt lat="48.32843" lon="-4.37851">
        <ele>21.77</ele>
        <time>2019-08-23T11:58:50Z</time>
      </trkpt>
      <trkpt lat="48.32845" lon="-4.37856">
        <ele>21.77</ele>
        <time>2019-08-23T11:58:51Z</time>
      </trkpt>
      <trkpt lat="48.32847" lon="-4.37862">
        <ele>22.25</ele>
        <time>2019-08-23T11:58:52Z</time>
      </trkpt>
      <trkpt lat="48.32848" lon="-4.37867">
        <ele>22.25</ele>
        <time>2019-08-23T11:58:53Z</time>
      </trkpt>
      <trkpt lat="48.3285" lon="-4.37872">
        <ele>22.73</ele>
        <time>2019-08-23T11:58:54Z</time>
      </trkpt>
      <trkpt lat="48.32851" lon="-4.37876">
        <ele>22.73</ele>
        <time>2019-08-23T11:58:55Z</time>
      </trkpt>
      <trkpt lat="48.32853" lon="-4.37881">
        <ele>23.21</ele>
        <time>2019-08-23T11:58:56Z</time>
      </trkpt>
      <trkpt lat="48.32871" lon="-4.37925">
        <ele>23.69</ele>
        <time>2019-08-23T11:59:07Z</time>
      </trkpt>
      <trkpt lat="48.32872" lon="-4.37931">
        <ele>23.69</ele>
        <time>2019-08-23T11:59:08Z</time>
      </trkpt>
      <trkpt lat="48.32874" lon="-4.37937">
        <ele>23.21</ele>
        <time>2019-08-23T11:59:09Z</time>
      </trkpt>
      <trkpt lat="48.329" lon="-4.37995">
        <ele>21.77</ele>
        <time>2019-08-23T11:59:19Z</time>
      </trkpt>
      <trkpt lat="48.32904" lon="-4.37999">
        <ele>21.77</ele>
        <time>2019-08-23T11:59:20Z</time>
      </trkpt>
      <trkpt lat="48.32908" lon="-4.38002">
        <ele>21.77</ele>
        <time>2019-08-23T11:59:21Z</time>
      </trkpt>
      <trkpt lat="48.32913" lon="-4.38003">
        <ele>21.77</ele>
        <time>2019-08-23T11:59:22Z</time>
      </trkpt>
      <trkpt lat="48.32918" lon="-4.38003">
        <ele>21.29</ele>
        <time>2019-08-23T11:59:23Z</time>
      </trkpt>
      <trkpt lat="48.32923" lon="-4.38001">
        <ele>21.29</ele>
        <time>2019-08-23T11:59:24Z</time>
      </trkpt>
      <trkpt lat="48.32927" lon="-4.37998">
        <ele>21.29</ele>
        <time>2019-08-23T11:59:25Z</time>
      </trkpt>
      <trkpt lat="48.32931" lon="-4.37995">
        <ele>21.29</ele>
        <time>2019-08-23T11:59:26Z</time>
      </trkpt>
      <trkpt lat="48.32935" lon="-4.37992">
        <ele>20.81</ele>
        <time>2019-08-23T11:59:27Z</time>
      </trkpt>
      <trkpt lat="48.32946" lon="-4.37984">
        <ele>20.32</ele>
        <time>2019-08-23T11:59:30Z</time>
      </trkpt>
      <trkpt lat="48.3295" lon="-4.37986">
        <ele>20.32</ele>
        <time>2019-08-23T11:59:31Z</time>
      </trkpt>
      <trkpt lat="48.32954" lon="-4.37989">
        <ele>20.32</ele>
        <time>2019-08-23T11:59:32Z</time>
      </trkpt>
      <trkpt lat="48.32958" lon="-4.37993">
        <ele>20.81</ele>
        <time>2019-08-23T11:59:33Z</time>
      </trkpt>
      <trkpt lat="48.32961" lon="-4.37996">
        <ele>20.32</ele>
        <time>2019-08-23T11:59:34Z</time>
      </trkpt>
      <trkpt lat="48.32965" lon="-4.38">
        <ele>20.32</ele>
        <time>2019-08-23T11:59:35Z</time>
      </trkpt>
      <trkpt lat="48.32968" lon="-4.38003">
        <ele>20.81</ele>
        <time>2019-08-23T11:59:36Z</time>
      </trkpt>
      <trkpt lat="48.33004" lon="-4.38047">
        <ele>21.77</ele>
        <time>2019-08-23T11:59:48Z</time>
      </trkpt>
      <trkpt lat="48.33027" lon="-4.38107">
        <ele>24.17</ele>
        <time>2019-08-23T12:00:01Z</time>
      </trkpt>
      <trkpt lat="48.33057" lon="-4.38158">
        <ele>26.57</ele>
        <time>2019-08-23T12:00:14Z</time>
      </trkpt>
      <trkpt lat="48.33102" lon="-4.3821">
        <ele>28.98</ele>
        <time>2019-08-23T12:00:30Z</time>
      </trkpt>
      <trkpt lat="48.33162" lon="-4.38268">
        <ele>29.94</ele>
        <time>2019-08-23T12:00:48Z</time>
      </trkpt>
      <trkpt lat="48.332" lon="-4.38306">
        <ele>30.9</ele>
        <time>2019-08-23T12:01:00Z</time>
      </trkpt>
      <trkpt lat="48.33238" lon="-4.38356">
        <ele>32.34</ele>
        <time>2019-08-23T12:01:13Z</time>
      </trkpt>
      <trkpt lat="48.33249" lon="-4.38372">
        <ele>32.82</ele>
        <time>2019-08-23T12:01:17Z</time>
      </trkpt>
      <trkpt lat="48.33288" lon="-4.38426">
        <ele>33.3</ele>
        <time>2019-08-23T12:01:30Z</time>
      </trkpt>
      <trkpt lat="48.33276" lon="-4.38467">
        <ele>33.78</ele>
        <time>2019-08-23T12:01:38Z</time>
      </trkpt>
      <trkpt lat="48.33272" lon="-4.38491">
        <ele>33.3</ele>
        <time>2019-08-23T12:01:42Z</time>
      </trkpt>
      <trkpt lat="48.33271" lon="-4.38498">
        <ele>32.82</ele>
        <time>2019-08-23T12:01:43Z</time>
      </trkpt>
      <trkpt lat="48.33271" lon="-4.38505">
        <ele>32.82</ele>
        <time>2019-08-23T12:01:44Z</time>
      </trkpt>
      <trkpt lat="48.3327" lon="-4.3851">
        <ele>32.82</ele>
        <time>2019-08-23T12:01:45Z</time>
      </trkpt>
      <trkpt lat="48.3327" lon="-4.38513">
        <ele>33.3</ele>
        <time>2019-08-23T12:01:46Z</time>
      </trkpt>
      <trkpt lat="48.33269" lon="-4.38515">
        <ele>33.3</ele>
        <time>2019-08-23T12:01:47Z</time>
      </trkpt>
      <trkpt lat="48.33269" lon="-4.38518">
        <ele>33.3</ele>
        <time>2019-08-23T12:01:49Z</time>
      </trkpt>
      <trkpt lat="48.3327" lon="-4.38519">
        <ele>33.3</ele>
        <time>2019-08-23T12:01:51Z</time>
      </trkpt>
      <trkpt lat="48.33271" lon="-4.38517">
        <ele>33.3</ele>
        <time>2019-08-23T12:01:52Z</time>
      </trkpt>
      <trkpt lat="48.33266" lon="-4.38471">
        <ele>33.78</ele>
        <time>2019-08-23T12:02:02Z</time>
      </trkpt>
      <trkpt lat="48.33258" lon="-4.38466">
        <ele>34.26</ele>
        <time>2019-08-23T12:02:06Z</time>
      </trkpt>
      <trkpt lat="48.33229" lon="-4.38474">
        <ele>34.74</ele>
        <time>2019-08-23T12:02:17Z</time>
      </trkpt>
      <trkpt lat="48.3322" lon="-4.38482">
        <ele>34.74</ele>
        <time>2019-08-23T12:02:20Z</time>
      </trkpt>
      <trkpt lat="48.33206" lon="-4.385">
        <ele>34.26</ele>
        <time>2019-08-23T12:02:24Z</time>
      </trkpt>
      <trkpt lat="48.33203" lon="-4.38505">
        <ele>34.26</ele>
        <time>2019-08-23T12:02:25Z</time>
      </trkpt>
      <trkpt lat="48.33181" lon="-4.38554">
        <ele>33.78</ele>
        <time>2019-08-23T12:02:35Z</time>
      </trkpt>
      <trkpt lat="48.33149" lon="-4.38608">
        <ele>33.3</ele>
        <time>2019-08-23T12:02:47Z</time>
      </trkpt>
      <trkpt lat="48.33146" lon="-4.38614">
        <ele>32.82</ele>
        <time>2019-08-23T12:02:48Z</time>
      </trkpt>
      <trkpt lat="48.33134" lon="-4.38637">
        <ele>31.38</ele>
        <time>2019-08-23T12:02:51Z</time>
      </trkpt>
      <trkpt lat="48.3311" lon="-4.38689">
        <ele>30.42</ele>
        <time>2019-08-23T12:02:58Z</time>
      </trkpt>
      <trkpt lat="48.33073" lon="-4.38762">
        <ele>30.42</ele>
        <time>2019-08-23T12:03:10Z</time>
      </trkpt>
      <trkpt lat="48.33054" lon="-4.38813">
        <ele>30.42</ele>
        <time>2019-08-23T12:03:20Z</time>
      </trkpt>
      <trkpt lat="48.33023" lon="-4.38825">
        <ele>29.94</ele>
        <time>2019-08-23T12:03:30Z</time>
      </trkpt>
      <trkpt lat="48.3301" lon="-4.38823">
        <ele>29.46</ele>
        <time>2019-08-23T12:03:34Z</time>
      </trkpt>
      <trkpt lat="48.33007" lon="-4.3882">
        <ele>29.46</ele>
        <time>2019-08-23T12:03:35Z</time>
      </trkpt>
      <trkpt lat="48.32991" lon="-4.38804">
        <ele>28.5</ele>
        <time>2019-08-23T12:03:39Z</time>
      </trkpt>
      <trkpt lat="48.32975" lon="-4.38787">
        <ele>27.05</ele>
        <time>2019-08-23T12:03:43Z</time>
      </trkpt>
      <trkpt lat="48.3297" lon="-4.38787">
        <ele>26.57</ele>
        <time>2019-08-23T12:03:44Z</time>
      </trkpt>
      <trkpt lat="48.32965" lon="-4.3879">
        <ele>26.57</ele>
        <time>2019-08-23T12:03:45Z</time>
      </trkpt>
      <trkpt lat="48.32961" lon="-4.38795">
        <ele>26.57</ele>
        <time>2019-08-23T12:03:46Z</time>
      </trkpt>
      <trkpt lat="48.32957" lon="-4.38801">
        <ele>26.57</ele>
        <time>2019-08-23T12:03:47Z</time>
      </trkpt>
      <trkpt lat="48.32954" lon="-4.38808">
        <ele>26.57</ele>
        <time>2019-08-23T12:03:48Z</time>
      </trkpt>
      <trkpt lat="48.32951" lon="-4.38814">
        <ele>26.09</ele>
        <time>2019-08-23T12:03:49Z</time>
      </trkpt>
      <trkpt lat="48.32938" lon="-4.3884">
        <ele>27.05</ele>
        <time>2019-08-23T12:03:53Z</time>
      </trkpt>
      <trkpt lat="48.32935" lon="-4.38847">
        <ele>26.09</ele>
        <time>2019-08-23T12:03:54Z</time>
      </trkpt>
      <trkpt lat="48.32933" lon="-4.38853">
        <ele>26.09</ele>
        <time>2019-08-23T12:03:55Z</time>
      </trkpt>
      <trkpt lat="48.3293" lon="-4.3886">
        <ele>26.09</ele>
        <time>2019-08-23T12:03:56Z</time>
      </trkpt>
      <trkpt lat="48.32928" lon="-4.38866">
        <ele>26.09</ele>
        <time>2019-08-23T12:03:57Z</time>
      </trkpt>
      <trkpt lat="48.32928" lon="-4.38874">
        <ele>25.61</ele>
        <time>2019-08-23T12:03:58Z</time>
      </trkpt>
      <trkpt lat="48.3293" lon="-4.3888">
        <ele>26.09</ele>
        <time>2019-08-23T12:03:59Z</time>
      </trkpt>
      <trkpt lat="48.32933" lon="-4.38886">
        <ele>26.09</ele>
        <time>2019-08-23T12:04:00Z</time>
      </trkpt>
      <trkpt lat="48.32936" lon="-4.3889">
        <ele>26.57</ele>
        <time>2019-08-23T12:04:01Z</time>
      </trkpt>
      <trkpt lat="48.3296" lon="-4.38933">
        <ele>28.98</ele>
        <time>2019-08-23T12:04:12Z</time>
      </trkpt>
      <trkpt lat="48.32981" lon="-4.38976">
        <ele>29.46</ele>
        <time>2019-08-23T12:04:21Z</time>
      </trkpt>
      <trkpt lat="48.32982" lon="-4.38982">
        <ele>29.46</ele>
        <time>2019-08-23T12:04:22Z</time>
      </trkpt>
      <trkpt lat="48.32986" lon="-4.38999">
        <ele>29.46</ele>
        <time>2019-08-23T12:04:25Z</time>
      </trkpt>
      <trkpt lat="48.32998" lon="-4.39053">
        <ele>28.98</ele>
        <time>2019-08-23T12:04:34Z</time>
      </trkpt>
      <trkpt lat="48.33001" lon="-4.39065">
        <ele>28.5</ele>
        <time>2019-08-23T12:04:36Z</time>
      </trkpt>
      <trkpt lat="48.33009" lon="-4.39084">
        <ele>27.53</ele>
        <time>2019-08-23T12:04:39Z</time>
      </trkpt>
      <trkpt lat="48.33012" lon="-4.39091">
        <ele>27.53</ele>
        <time>2019-08-23T12:04:40Z</time>
      </trkpt>
      <trkpt lat="48.33015" lon="-4.39098">
        <ele>27.05</ele>
        <time>2019-08-23T12:04:41Z</time>
      </trkpt>
      <trkpt lat="48.33048" lon="-4.3917">
        <ele>27.05</ele>
        <time>2019-08-23T12:04:52Z</time>
      </trkpt>
      <trkpt lat="48.3305" lon="-4.39176">
        <ele>26.57</ele>
        <time>2019-08-23T12:04:53Z</time>
      </trkpt>
      <trkpt lat="48.3305" lon="-4.39183">
        <ele>27.05</ele>
        <time>2019-08-23T12:04:54Z</time>
      </trkpt>
      <trkpt lat="48.33048" lon="-4.39188">
        <ele>27.05</ele>
        <time>2019-08-23T12:04:55Z</time>
      </trkpt>
      <trkpt lat="48.33045" lon="-4.39193">
        <ele>27.53</ele>
        <time>2019-08-23T12:04:56Z</time>
      </trkpt>
      <trkpt lat="48.33042" lon="-4.39197">
        <ele>27.53</ele>
        <time>2019-08-23T12:04:57Z</time>
      </trkpt>
      <trkpt lat="48.33038" lon="-4.392">
        <ele>27.53</ele>
        <time>2019-08-23T12:04:58Z</time>
      </trkpt>
      <trkpt lat="48.32972" lon="-4.3925">
        <ele>26.09</ele>
        <time>2019-08-23T12:05:13Z</time>
      </trkpt>
      <trkpt lat="48.32959" lon="-4.39264">
        <ele>25.61</ele>
        <time>2019-08-23T12:05:16Z</time>
      </trkpt>
      <trkpt lat="48.32956" lon="-4.39271">
        <ele>25.13</ele>
        <time>2019-08-23T12:05:17Z</time>
      </trkpt>
      <trkpt lat="48.32953" lon="-4.39279">
        <ele>25.13</ele>
        <time>2019-08-23T12:05:18Z</time>
      </trkpt>
      <trkpt lat="48.3295" lon="-4.39293">
        <ele>24.65</ele>
        <time>2019-08-23T12:05:20Z</time>
      </trkpt>
      <trkpt lat="48.32951" lon="-4.39301">
        <ele>24.65</ele>
        <time>2019-08-23T12:05:21Z</time>
      </trkpt>
      <trkpt lat="48.32952" lon="-4.39308">
        <ele>24.65</ele>
        <time>2019-08-23T12:05:22Z</time>
      </trkpt>
      <trkpt lat="48.32953" lon="-4.39315">
        <ele>24.65</ele>
        <time>2019-08-23T12:05:23Z</time>
      </trkpt>
      <trkpt lat="48.32955" lon="-4.39321">
        <ele>24.65</ele>
        <time>2019-08-23T12:05:24Z</time>
      </trkpt>
      <trkpt lat="48.32955" lon="-4.39328">
        <ele>24.65</ele>
        <time>2019-08-23T12:05:25Z</time>
      </trkpt>
      <trkpt lat="48.32955" lon="-4.39335">
        <ele>24.65</ele>
        <time>2019-08-23T12:05:26Z</time>
      </trkpt>
      <trkpt lat="48.32956" lon="-4.39341">
        <ele>24.65</ele>
        <time>2019-08-23T12:05:27Z</time>
      </trkpt>
      <trkpt lat="48.32958" lon="-4.39346">
        <ele>24.65</ele>
        <time>2019-08-23T12:05:28Z</time>
      </trkpt>
      <trkpt lat="48.32979" lon="-4.39383">
        <ele>26.09</ele>
        <time>2019-08-23T12:05:39Z</time>
      </trkpt>
      <trkpt lat="48.32991" lon="-4.3942">
        <ele>27.05</ele>
        <time>2019-08-23T12:05:49Z</time>
      </trkpt>
      <trkpt lat="48.32999" lon="-4.39462">
        <ele>29.46</ele>
        <time>2019-08-23T12:06:00Z</time>
      </trkpt>
      <trkpt lat="48.33" lon="-4.39486">
        <ele>31.38</ele>
        <time>2019-08-23T12:06:08Z</time>
      </trkpt>
      <trkpt lat="48.32999" lon="-4.3949">
        <ele>31.86</ele>
        <time>2019-08-23T12:06:09Z</time>
      </trkpt>
      <trkpt lat="48.32999" lon="-4.39493">
        <ele>31.86</ele>
        <time>2019-08-23T12:06:10Z</time>
      </trkpt>
      <trkpt lat="48.33" lon="-4.39496">
        <ele>32.34</ele>
        <time>2019-08-23T12:06:11Z</time>
      </trkpt>
      <trkpt lat="48.32999" lon="-4.39499">
        <ele>32.82</ele>
        <time>2019-08-23T12:06:12Z</time>
      </trkpt>
      <trkpt lat="48.32999" lon="-4.39502">
        <ele>33.3</ele>
        <time>2019-08-23T12:06:13Z</time>
      </trkpt>
      <trkpt lat="48.32998" lon="-4.39505">
        <ele>33.3</ele>
        <time>2019-08-23T12:06:14Z</time>
      </trkpt>
      <trkpt lat="48.32998" lon="-4.39508">
        <ele>33.78</ele>
        <time>2019-08-23T12:06:15Z</time>
      </trkpt>
      <trkpt lat="48.32998" lon="-4.3951">
        <ele>33.78</ele>
        <time>2019-08-23T12:06:16Z</time>
      </trkpt>
      <trkpt lat="48.32997" lon="-4.39512">
        <ele>33.78</ele>
        <time>2019-08-23T12:06:17Z</time>
      </trkpt>
      <trkpt lat="48.32995" lon="-4.39514">
        <ele>33.78</ele>
        <time>2019-08-23T12:06:18Z</time>
      </trkpt>
      <trkpt lat="48.32967" lon="-4.39543">
        <ele>31.86</ele>
        <time>2019-08-23T12:06:29Z</time>
      </trkpt>
      <trkpt lat="48.32933" lon="-4.39574">
        <ele>29.94</ele>
        <time>2019-08-23T12:06:40Z</time>
      </trkpt>
      <trkpt lat="48.32926" lon="-4.39582">
        <ele>29.46</ele>
        <time>2019-08-23T12:06:42Z</time>
      </trkpt>
      <trkpt lat="48.32922" lon="-4.39586">
        <ele>29.46</ele>
        <time>2019-08-23T12:06:43Z</time>
      </trkpt>
      <trkpt lat="48.32918" lon="-4.3959">
        <ele>29.46</ele>
        <time>2019-08-23T12:06:44Z</time>
      </trkpt>
      <trkpt lat="48.32906" lon="-4.39605">
        <ele>29.46</ele>
        <time>2019-08-23T12:06:47Z</time>
      </trkpt>
      <trkpt lat="48.32897" lon="-4.39614">
        <ele>29.46</ele>
        <time>2019-08-23T12:06:49Z</time>
      </trkpt>
      <trkpt lat="48.32892" lon="-4.3962">
        <ele>29.46</ele>
        <time>2019-08-23T12:06:50Z</time>
      </trkpt>
      <trkpt lat="48.3288" lon="-4.39637">
        <ele>29.94</ele>
        <time>2019-08-23T12:06:53Z</time>
      </trkpt>
      <trkpt lat="48.32877" lon="-4.39641">
        <ele>29.94</ele>
        <time>2019-08-23T12:06:54Z</time>
      </trkpt>
      <trkpt lat="48.32851" lon="-4.39688">
        <ele>32.82</ele>
        <time>2019-08-23T12:07:06Z</time>
      </trkpt>
      <trkpt lat="48.32835" lon="-4.39723">
        <ele>33.78</ele>
        <time>2019-08-23T12:07:17Z</time>
      </trkpt>
      <trkpt lat="48.32812" lon="-4.39767">
        <ele>33.3</ele>
        <time>2019-08-23T12:07:29Z</time>
      </trkpt>
      <trkpt lat="48.32784" lon="-4.39823">
        <ele>32.82</ele>
        <time>2019-08-23T12:07:41Z</time>
      </trkpt>
      <trkpt lat="48.32776" lon="-4.39842">
        <ele>32.82</ele>
        <time>2019-08-23T12:07:45Z</time>
      </trkpt>
      <trkpt lat="48.32774" lon="-4.39847">
        <ele>32.34</ele>
        <time>2019-08-23T12:07:46Z</time>
      </trkpt>
      <trkpt lat="48.32747" lon="-4.39911">
        <ele>32.82</ele>
        <time>2019-08-23T12:07:59Z</time>
      </trkpt>
      <trkpt lat="48.32738" lon="-4.39954">
        <ele>35.23</ele>
        <time>2019-08-23T12:08:10Z</time>
      </trkpt>
      <trkpt lat="48.3274" lon="-4.39983">
        <ele>37.15</ele>
        <time>2019-08-23T12:08:20Z</time>
      </trkpt>
      <trkpt lat="48.32742" lon="-4.39984">
        <ele>37.63</ele>
        <time>2019-08-23T12:08:21Z</time>
      </trkpt>
      <trkpt lat="48.32769" lon="-4.39976">
        <ele>39.55</ele>
        <time>2019-08-23T12:08:35Z</time>
      </trkpt>
      <trkpt lat="48.32794" lon="-4.39955">
        <ele>40.51</ele>
        <time>2019-08-23T12:08:47Z</time>
      </trkpt>
      <trkpt lat="48.32805" lon="-4.39945">
        <ele>40.99</ele>
        <time>2019-08-23T12:09:00Z</time>
      </trkpt>
      <trkpt lat="48.32802" lon="-4.39949">
        <ele>40.99</ele>
        <time>2019-08-23T12:09:13Z</time>
      </trkpt>
      <trkpt lat="48.3279" lon="-4.39962">
        <ele>40.51</ele>
        <time>2019-08-23T12:09:22Z</time>
      </trkpt>
      <trkpt lat="48.32795" lon="-4.39976">
        <ele>42.92</ele>
        <time>2019-08-23T12:09:32Z</time>
      </trkpt>
      <trkpt lat="48.328" lon="-4.39989">
        <ele>44.36</ele>
        <time>2019-08-23T12:09:40Z</time>
      </trkpt>
      <trkpt lat="48.32805" lon="-4.4">
        <ele>45.32</ele>
        <time>2019-08-23T12:09:51Z</time>
      </trkpt>
      <trkpt lat="48.32807" lon="-4.40005">
        <ele>46.28</ele>
        <time>2019-08-23T12:10:06Z</time>
      </trkpt>
      <trkpt lat="48.32808" lon="-4.40004">
        <ele>46.76</ele>
        <time>2019-08-23T12:10:26Z</time>
      </trkpt>
      <trkpt lat="48.32805" lon="-4.4">
        <ele>45.8</ele>
        <time>2019-08-23T12:10:37Z</time>
      </trkpt>
      <trkpt lat="48.32795" lon="-4.39977">
        <ele>42.92</ele>
        <time>2019-08-23T12:10:46Z</time>
      </trkpt>
      <trkpt lat="48.32776" lon="-4.39976">
        <ele>40.51</ele>
        <time>2019-08-23T12:10:54Z</time>
      </trkpt>
      <trkpt lat="48.32773" lon="-4.39977">
        <ele>40.51</ele>
        <time>2019-08-23T12:10:55Z</time>
      </trkpt>
      <trkpt lat="48.32766" lon="-4.3998">
        <ele>40.03</ele>
        <time>2019-08-23T12:10:58Z</time>
      </trkpt>
      <trkpt lat="48.32766" lon="-4.39985">
        <ele>40.03</ele>
        <time>2019-08-23T12:11:02Z</time>
      </trkpt>
      <trkpt lat="48.32766" lon="-4.39987">
        <ele>40.03</ele>
        <time>2019-08-23T12:11:04Z</time>
      </trkpt>
      <trkpt lat="48.32774" lon="-4.40008">
        <ele>40.99</ele>
        <time>2019-08-23T12:11:16Z</time>
      </trkpt>
      <trkpt lat="48.32777" lon="-4.40014">
        <ele>41.47</ele>
        <time>2019-08-23T12:11:21Z</time>
      </trkpt>
      <trkpt lat="48.32782" lon="-4.40021">
        <ele>42.44</ele>
        <time>2019-08-23T12:11:29Z</time>
      </trkpt>
      <trkpt lat="48.32795" lon="-4.40022">
        <ele>44.36</ele>
        <time>2019-08-23T12:11:39Z</time>
      </trkpt>
      <trkpt lat="48.32809" lon="-4.40031">
        <ele>46.28</ele>
        <time>2019-08-23T12:11:49Z</time>
      </trkpt>
      <trkpt lat="48.32812" lon="-4.40033">
        <ele>46.76</ele>
        <time>2019-08-23T12:11:51Z</time>
      </trkpt>
      <trkpt lat="48.32831" lon="-4.40052">
        <ele>50.13</ele>
        <time>2019-08-23T12:12:03Z</time>
      </trkpt>
      <trkpt lat="48.32836" lon="-4.40061">
        <ele>51.57</ele>
        <time>2019-08-23T12:12:09Z</time>
      </trkpt>
      <trkpt lat="48.32842" lon="-4.40072">
        <ele>52.53</ele>
        <time>2019-08-23T12:12:17Z</time>
      </trkpt>
      <trkpt lat="48.32844" lon="-4.4009">
        <ele>54.93</ele>
        <time>2019-08-23T12:12:29Z</time>
      </trkpt>
      <trkpt lat="48.32843" lon="-4.40092">
        <ele>54.93</ele>
        <time>2019-08-23T12:12:30Z</time>
      </trkpt>
      <trkpt lat="48.32841" lon="-4.40102">
        <ele>55.89</ele>
        <time>2019-08-23T12:12:35Z</time>
      </trkpt>
      <trkpt lat="48.3284" lon="-4.40111">
        <ele>57.34</ele>
        <time>2019-08-23T12:12:42Z</time>
      </trkpt>
      <trkpt lat="48.32837" lon="-4.40122">
        <ele>57.82</ele>
        <time>2019-08-23T12:12:47Z</time>
      </trkpt>
      <trkpt lat="48.32833" lon="-4.40134">
        <ele>58.3</ele>
        <time>2019-08-23T12:12:52Z</time>
      </trkpt>
      <trkpt lat="48.32829" lon="-4.40145">
        <ele>58.3</ele>
        <time>2019-08-23T12:12:56Z</time>
      </trkpt>
      <trkpt lat="48.32828" lon="-4.40152">
        <ele>58.78</ele>
        <time>2019-08-23T12:12:59Z</time>
      </trkpt>
      <trkpt lat="48.32821" lon="-4.40165">
        <ele>59.26</ele>
        <time>2019-08-23T12:13:04Z</time>
      </trkpt>
      <trkpt lat="48.32818" lon="-4.40175">
        <ele>59.26</ele>
        <time>2019-08-23T12:13:08Z</time>
      </trkpt>
      <trkpt lat="48.3281" lon="-4.40193">
        <ele>59.74</ele>
        <time>2019-08-23T12:13:14Z</time>
      </trkpt>
      <trkpt lat="48.32795" lon="-4.40226">
        <ele>60.7</ele>
        <time>2019-08-23T12:13:26Z</time>
      </trkpt>
      <trkpt lat="48.32789" lon="-4.4024">
        <ele>61.66</ele>
        <time>2019-08-23T12:13:31Z</time>
      </trkpt>
      <trkpt lat="48.32781" lon="-4.40261">
        <ele>63.58</ele>
        <time>2019-08-23T12:13:38Z</time>
      </trkpt>
      <trkpt lat="48.32775" lon="-4.40284">
        <ele>65.51</ele>
        <time>2019-08-23T12:13:46Z</time>
      </trkpt>
      <trkpt lat="48.32775" lon="-4.4029">
        <ele>66.47</ele>
        <time>2019-08-23T12:13:49Z</time>
      </trkpt>
      <trkpt lat="48.32771" lon="-4.40302">
        <ele>67.91</ele>
        <time>2019-08-23T12:13:54Z</time>
      </trkpt>
      <trkpt lat="48.3276" lon="-4.40324">
        <ele>67.91</ele>
        <time>2019-08-23T12:14:04Z</time>
      </trkpt>
      <trkpt lat="48.32751" lon="-4.40343">
        <ele>68.39</ele>
        <time>2019-08-23T12:14:14Z</time>
      </trkpt>
      <trkpt lat="48.32744" lon="-4.40361">
        <ele>68.87</ele>
        <time>2019-08-23T12:14:23Z</time>
      </trkpt>
      <trkpt lat="48.32743" lon="-4.40368">
        <ele>69.35</ele>
        <time>2019-08-23T12:14:26Z</time>
      </trkpt>
      <trkpt lat="48.3274" lon="-4.40375">
        <ele>69.83</ele>
        <time>2019-08-23T12:14:30Z</time>
      </trkpt>
      <trkpt lat="48.32729" lon="-4.40401">
        <ele>70.79</ele>
        <time>2019-08-23T12:14:42Z</time>
      </trkpt>
      <trkpt lat="48.32723" lon="-4.40414">
        <ele>71.76</ele>
        <time>2019-08-23T12:14:48Z</time>
      </trkpt>
      <trkpt lat="48.32722" lon="-4.40423">
        <ele>71.76</ele>
        <time>2019-08-23T12:14:53Z</time>
      </trkpt>
      <trkpt lat="48.32713" lon="-4.40443">
        <ele>72.24</ele>
        <time>2019-08-23T12:15:05Z</time>
      </trkpt>
      <trkpt lat="48.32712" lon="-4.40447">
        <ele>72.24</ele>
        <time>2019-08-23T12:15:36Z</time>
      </trkpt>
      <trkpt lat="48.32711" lon="-4.40447">
        <ele>72.24</ele>
        <time>2019-08-23T12:16:04Z</time>
      </trkpt>
      <trkpt lat="48.3271" lon="-4.40447">
        <ele>72.72</ele>
        <time>2019-08-23T12:16:30Z</time>
      </trkpt>
      <trkpt lat="48.3271" lon="-4.40447">
        <ele>72.72</ele>
        <time>2019-08-23T12:17:00Z</time>
      </trkpt>
      <trkpt lat="48.3271" lon="-4.40447">
        <ele>72.72</ele>
        <time>2019-08-23T12:17:05Z</time>
      </trkpt>
      <trkpt lat="48.32704" lon="-4.40467">
        <ele>72.72</ele>
        <time>2019-08-23T12:17:15Z</time>
      </trkpt>
      <trkpt lat="48.32693" lon="-4.40506">
        <ele>73.2</ele>
        <time>2019-08-23T12:17:27Z</time>
      </trkpt>
      <trkpt lat="48.32681" lon="-4.40557">
        <ele>72.72</ele>
        <time>2019-08-23T12:17:37Z</time>
      </trkpt>
      <trkpt lat="48.32678" lon="-4.40563">
        <ele>72.24</ele>
        <time>2019-08-23T12:17:38Z</time>
      </trkpt>
      <trkpt lat="48.32676" lon="-4.40569">
        <ele>72.24</ele>
        <time>2019-08-23T12:17:39Z</time>
      </trkpt>
      <trkpt lat="48.32669" lon="-4.40592">
        <ele>72.24</ele>
        <time>2019-08-23T12:17:43Z</time>
      </trkpt>
      <trkpt lat="48.32657" lon="-4.40642">
        <ele>72.24</ele>
        <time>2019-08-23T12:17:52Z</time>
      </trkpt>
      <trkpt lat="48.32651" lon="-4.40673">
        <ele>72.24</ele>
        <time>2019-08-23T12:17:58Z</time>
      </trkpt>
      <trkpt lat="48.3265" lon="-4.40679">
        <ele>71.76</ele>
        <time>2019-08-23T12:17:59Z</time>
      </trkpt>
      <trkpt lat="48.32648" lon="-4.40685">
        <ele>72.24</ele>
        <time>2019-08-23T12:18:00Z</time>
      </trkpt>
      <trkpt lat="48.32648" lon="-4.4069">
        <ele>72.24</ele>
        <time>2019-08-23T12:18:01Z</time>
      </trkpt>
      <trkpt lat="48.32647" lon="-4.40696">
        <ele>72.24</ele>
        <time>2019-08-23T12:18:02Z</time>
      </trkpt>
      <trkpt lat="48.32642" lon="-4.4072">
        <ele>72.24</ele>
        <time>2019-08-23T12:18:06Z</time>
      </trkpt>
      <trkpt lat="48.3264" lon="-4.40729">
        <ele>72.24</ele>
        <time>2019-08-23T12:18:08Z</time>
      </trkpt>
      <trkpt lat="48.32639" lon="-4.40733">
        <ele>72.24</ele>
        <time>2019-08-23T12:18:09Z</time>
      </trkpt>
      <trkpt lat="48.32638" lon="-4.40738">
        <ele>72.24</ele>
        <time>2019-08-23T12:18:10Z</time>
      </trkpt>
      <trkpt lat="48.32636" lon="-4.40743">
        <ele>72.24</ele>
        <time>2019-08-23T12:18:11Z</time>
      </trkpt>
      <trkpt lat="48.32635" lon="-4.40749">
        <ele>71.76</ele>
        <time>2019-08-23T12:18:12Z</time>
      </trkpt>
      <trkpt lat="48.32634" lon="-4.40754">
        <ele>72.24</ele>
        <time>2019-08-23T12:18:13Z</time>
      </trkpt>
      <trkpt lat="48.32634" lon="-4.40758">
        <ele>71.76</ele>
        <time>2019-08-23T12:18:14Z</time>
      </trkpt>
      <trkpt lat="48.32633" lon="-4.40764">
        <ele>71.76</ele>
        <time>2019-08-23T12:18:15Z</time>
      </trkpt>
      <trkpt lat="48.32632" lon="-4.4077">
        <ele>71.76</ele>
        <time>2019-08-23T12:18:16Z</time>
      </trkpt>
      <trkpt lat="48.32632" lon="-4.40775">
        <ele>71.76</ele>
        <time>2019-08-23T12:18:17Z</time>
      </trkpt>
      <trkpt lat="48.32627" lon="-4.4083">
        <ele>70.31</ele>
        <time>2019-08-23T12:18:27Z</time>
      </trkpt>
      <trkpt lat="48.32622" lon="-4.40849">
        <ele>69.35</ele>
        <time>2019-08-23T12:18:30Z</time>
      </trkpt>
      <trkpt lat="48.32619" lon="-4.40856">
        <ele>69.35</ele>
        <time>2019-08-23T12:18:31Z</time>
      </trkpt>
      <trkpt lat="48.32617" lon="-4.40864">
        <ele>68.87</ele>
        <time>2019-08-23T12:18:32Z</time>
      </trkpt>
      <trkpt lat="48.32615" lon="-4.40872">
        <ele>68.39</ele>
        <time>2019-08-23T12:18:33Z</time>
      </trkpt>
      <trkpt lat="48.32613" lon="-4.4088">
        <ele>67.43</ele>
        <time>2019-08-23T12:18:34Z</time>
      </trkpt>
      <trkpt lat="48.32611" lon="-4.40888">
        <ele>67.43</ele>
        <time>2019-08-23T12:18:35Z</time>
      </trkpt>
      <trkpt lat="48.32611" lon="-4.40896">
        <ele>66.95</ele>
        <time>2019-08-23T12:18:36Z</time>
      </trkpt>
      <trkpt lat="48.32611" lon="-4.40917">
        <ele>66.47</ele>
        <time>2019-08-23T12:18:39Z</time>
      </trkpt>
      <trkpt lat="48.32613" lon="-4.40932">
        <ele>66.47</ele>
        <time>2019-08-23T12:18:41Z</time>
      </trkpt>
      <trkpt lat="48.32614" lon="-4.40939">
        <ele>65.99</ele>
        <time>2019-08-23T12:18:42Z</time>
      </trkpt>
      <trkpt lat="48.3262" lon="-4.40955">
        <ele>66.47</ele>
        <time>2019-08-23T12:18:48Z</time>
      </trkpt>
      <trkpt lat="48.32625" lon="-4.40957">
        <ele>66.95</ele>
        <time>2019-08-23T12:18:52Z</time>
      </trkpt>
      <trkpt lat="48.32633" lon="-4.40962">
        <ele>67.43</ele>
        <time>2019-08-23T12:19:03Z</time>
      </trkpt>
      <trkpt lat="48.32635" lon="-4.40963">
        <ele>67.43</ele>
        <time>2019-08-23T12:19:21Z</time>
      </trkpt>
      <trkpt lat="48.32637" lon="-4.40964">
        <ele>67.43</ele>
        <time>2019-08-23T12:19:30Z</time>
      </trkpt>
      <trkpt lat="48.32642" lon="-4.40967">
        <ele>67.91</ele>
        <time>2019-08-23T12:19:33Z</time>
      </trkpt>
      <trkpt lat="48.32644" lon="-4.40968">
        <ele>67.91</ele>
        <time>2019-08-23T12:19:34Z</time>
      </trkpt>
      <trkpt lat="48.32647" lon="-4.40969">
        <ele>67.91</ele>
        <time>2019-08-23T12:19:35Z</time>
      </trkpt>
      <trkpt lat="48.32649" lon="-4.4097">
        <ele>67.91</ele>
        <time>2019-08-23T12:19:36Z</time>
      </trkpt>
      <trkpt lat="48.32651" lon="-4.40971">
        <ele>68.39</ele>
        <time>2019-08-23T12:19:37Z</time>
      </trkpt>
      <trkpt lat="48.32653" lon="-4.40972">
        <ele>68.39</ele>
        <time>2019-08-23T12:19:38Z</time>
      </trkpt>
      <trkpt lat="48.32674" lon="-4.40984">
        <ele>69.83</ele>
        <time>2019-08-23T12:19:47Z</time>
      </trkpt>
      <trkpt lat="48.32676" lon="-4.40985">
        <ele>69.83</ele>
        <time>2019-08-23T12:19:48Z</time>
      </trkpt>
      <trkpt lat="48.32682" lon="-4.4099">
        <ele>69.83</ele>
        <time>2019-08-23T12:19:52Z</time>
      </trkpt>
      <trkpt lat="48.32684" lon="-4.40991">
        <ele>70.31</ele>
        <time>2019-08-23T12:19:53Z</time>
      </trkpt>
      <trkpt lat="48.32687" lon="-4.40993">
        <ele>70.31</ele>
        <time>2019-08-23T12:19:54Z</time>
      </trkpt>
      <trkpt lat="48.32706" lon="-4.41005">
        <ele>70.79</ele>
        <time>2019-08-23T12:20:02Z</time>
      </trkpt>
      <trkpt lat="48.32709" lon="-4.41007">
        <ele>70.79</ele>
        <time>2019-08-23T12:20:03Z</time>
      </trkpt>
      <trkpt lat="48.3271" lon="-4.41007">
        <ele>70.79</ele>
        <time>2019-08-23T12:20:04Z</time>
      </trkpt>
      <trkpt lat="48.32712" lon="-4.41008">
        <ele>70.79</ele>
        <time>2019-08-23T12:20:05Z</time>
      </trkpt>
      <trkpt lat="48.32714" lon="-4.41009">
        <ele>70.79</ele>
        <time>2019-08-23T12:20:06Z</time>
      </trkpt>
      <trkpt lat="48.32717" lon="-4.41011">
        <ele>70.79</ele>
        <time>2019-08-23T12:20:07Z</time>
      </trkpt>
      <trkpt lat="48.32723" lon="-4.41016">
        <ele>70.79</ele>
        <time>2019-08-23T12:20:17Z</time>
      </trkpt>
      <trkpt lat="48.32726" lon="-4.41018">
        <ele>70.79</ele>
        <time>2019-08-23T12:20:18Z</time>
      </trkpt>
      <trkpt lat="48.32728" lon="-4.4102">
        <ele>70.79</ele>
        <time>2019-08-23T12:20:19Z</time>
      </trkpt>
      <trkpt lat="48.3273" lon="-4.41023">
        <ele>70.79</ele>
        <time>2019-08-23T12:20:20Z</time>
      </trkpt>
      <trkpt lat="48.32731" lon="-4.41026">
        <ele>70.79</ele>
        <time>2019-08-23T12:20:21Z</time>
      </trkpt>
      <trkpt lat="48.32735" lon="-4.41027">
        <ele>70.79</ele>
        <time>2019-08-23T12:20:22Z</time>
      </trkpt>
      <trkpt lat="48.32738" lon="-4.41026">
        <ele>70.79</ele>
        <time>2019-08-23T12:20:23Z</time>
      </trkpt>
      <trkpt lat="48.3274" lon="-4.41025">
        <ele>70.79</ele>
        <time>2019-08-23T12:20:24Z</time>
      </trkpt>
      <trkpt lat="48.32742" lon="-4.41022">
        <ele>70.79</ele>
        <time>2019-08-23T12:20:25Z</time>
      </trkpt>
      <trkpt lat="48.32743" lon="-4.41019">
        <ele>70.79</ele>
        <time>2019-08-23T12:20:26Z</time>
      </trkpt>
      <trkpt lat="48.32744" lon="-4.41017">
        <ele>70.79</ele>
        <time>2019-08-23T12:20:27Z</time>
      </trkpt>
      <trkpt lat="48.32746" lon="-4.41014">
        <ele>70.79</ele>
        <time>2019-08-23T12:20:28Z</time>
      </trkpt>
      <trkpt lat="48.32759" lon="-4.40975">
        <ele>71.27</ele>
        <time>2019-08-23T12:20:39Z</time>
      </trkpt>
      <trkpt lat="48.3278" lon="-4.40934">
        <ele>72.24</ele>
        <time>2019-08-23T12:20:50Z</time>
      </trkpt>
      <trkpt lat="48.32808" lon="-4.4089">
        <ele>73.2</ele>
        <time>2019-08-23T12:21:03Z</time>
      </trkpt>
      <trkpt lat="48.32827" lon="-4.40841">
        <ele>73.68</ele>
        <time>2019-08-23T12:21:16Z</time>
      </trkpt>
      <trkpt lat="48.32842" lon="-4.40807">
        <ele>74.64</ele>
        <time>2019-08-23T12:21:26Z</time>
      </trkpt>
      <trkpt lat="48.32861" lon="-4.40759">
        <ele>75.6</ele>
        <time>2019-08-23T12:21:39Z</time>
      </trkpt>
      <trkpt lat="48.32868" lon="-4.40741">
        <ele>75.12</ele>
        <time>2019-08-23T12:21:44Z</time>
      </trkpt>
      <trkpt lat="48.32869" lon="-4.40737">
        <ele>75.6</ele>
        <time>2019-08-23T12:21:46Z</time>
      </trkpt>
      <trkpt lat="48.3287" lon="-4.40734">
        <ele>75.6</ele>
        <time>2019-08-23T12:21:47Z</time>
      </trkpt>
      <trkpt lat="48.32871" lon="-4.40729">
        <ele>75.6</ele>
        <time>2019-08-23T12:21:48Z</time>
      </trkpt>
      <trkpt lat="48.32873" lon="-4.40725">
        <ele>75.6</ele>
        <time>2019-08-23T12:21:49Z</time>
      </trkpt>
      <trkpt lat="48.32875" lon="-4.4072">
        <ele>76.08</ele>
        <time>2019-08-23T12:21:50Z</time>
      </trkpt>
      <trkpt lat="48.32877" lon="-4.40715">
        <ele>76.08</ele>
        <time>2019-08-23T12:21:51Z</time>
      </trkpt>
      <trkpt lat="48.32903" lon="-4.40655">
        <ele>76.08</ele>
        <time>2019-08-23T12:22:03Z</time>
      </trkpt>
      <trkpt lat="48.32918" lon="-4.40616">
        <ele>76.08</ele>
        <time>2019-08-23T12:22:13Z</time>
      </trkpt>
      <trkpt lat="48.32918" lon="-4.40613">
        <ele>76.08</ele>
        <time>2019-08-23T12:22:14Z</time>
      </trkpt>
      <trkpt lat="48.32933" lon="-4.40576">
        <ele>75.6</ele>
        <time>2019-08-23T12:22:23Z</time>
      </trkpt>
      <trkpt lat="48.32938" lon="-4.40568">
        <ele>75.6</ele>
        <time>2019-08-23T12:22:25Z</time>
      </trkpt>
      <trkpt lat="48.32938" lon="-4.40564">
        <ele>75.6</ele>
        <time>2019-08-23T12:22:26Z</time>
      </trkpt>
      <trkpt lat="48.32939" lon="-4.4056">
        <ele>75.12</ele>
        <time>2019-08-23T12:22:27Z</time>
      </trkpt>
      <trkpt lat="48.3294" lon="-4.40557">
        <ele>75.12</ele>
        <time>2019-08-23T12:22:28Z</time>
      </trkpt>
      <trkpt lat="48.32942" lon="-4.40553">
        <ele>74.64</ele>
        <time>2019-08-23T12:22:29Z</time>
      </trkpt>
      <trkpt lat="48.32945" lon="-4.40547">
        <ele>74.64</ele>
        <time>2019-08-23T12:22:30Z</time>
      </trkpt>
      <trkpt lat="48.32947" lon="-4.40541">
        <ele>74.64</ele>
        <time>2019-08-23T12:22:31Z</time>
      </trkpt>
      <trkpt lat="48.32949" lon="-4.40535">
        <ele>74.64</ele>
        <time>2019-08-23T12:22:32Z</time>
      </trkpt>
      <trkpt lat="48.32951" lon="-4.4053">
        <ele>74.16</ele>
        <time>2019-08-23T12:22:33Z</time>
      </trkpt>
      <trkpt lat="48.32953" lon="-4.40524">
        <ele>74.64</ele>
        <time>2019-08-23T12:22:34Z</time>
      </trkpt>
      <trkpt lat="48.32957" lon="-4.40518">
        <ele>74.16</ele>
        <time>2019-08-23T12:22:35Z</time>
      </trkpt>
      <trkpt lat="48.3296" lon="-4.40514">
        <ele>74.16</ele>
        <time>2019-08-23T12:22:36Z</time>
      </trkpt>
      <trkpt lat="48.32963" lon="-4.40509">
        <ele>74.16</ele>
        <time>2019-08-23T12:22:37Z</time>
      </trkpt>
      <trkpt lat="48.32967" lon="-4.40504">
        <ele>73.68</ele>
        <time>2019-08-23T12:22:38Z</time>
      </trkpt>
      <trkpt lat="48.32971" lon="-4.40498">
        <ele>73.68</ele>
        <time>2019-08-23T12:22:39Z</time>
      </trkpt>
      <trkpt lat="48.32998" lon="-4.40451">
        <ele>73.2</ele>
        <time>2019-08-23T12:22:48Z</time>
      </trkpt>
      <trkpt lat="48.33014" lon="-4.40396">
        <ele>71.76</ele>
        <time>2019-08-23T12:22:57Z</time>
      </trkpt>
      <trkpt lat="48.33017" lon="-4.40387">
        <ele>71.76</ele>
        <time>2019-08-23T12:22:58Z</time>
      </trkpt>
      <trkpt lat="48.33019" lon="-4.4038">
        <ele>71.27</ele>
        <time>2019-08-23T12:22:59Z</time>
      </trkpt>
      <trkpt lat="48.33021" lon="-4.40372">
        <ele>71.27</ele>
        <time>2019-08-23T12:23:00Z</time>
      </trkpt>
      <trkpt lat="48.33024" lon="-4.40366">
        <ele>71.27</ele>
        <time>2019-08-23T12:23:01Z</time>
      </trkpt>
      <trkpt lat="48.33025" lon="-4.4036">
        <ele>71.27</ele>
        <time>2019-08-23T12:23:02Z</time>
      </trkpt>
      <trkpt lat="48.33026" lon="-4.40355">
        <ele>71.27</ele>
        <time>2019-08-23T12:23:03Z</time>
      </trkpt>
      <trkpt lat="48.33027" lon="-4.4035">
        <ele>70.79</ele>
        <time>2019-08-23T12:23:04Z</time>
      </trkpt>
      <trkpt lat="48.33028" lon="-4.40345">
        <ele>71.27</ele>
        <time>2019-08-23T12:23:05Z</time>
      </trkpt>
      <trkpt lat="48.3303" lon="-4.40316">
        <ele>70.31</ele>
        <time>2019-08-23T12:23:11Z</time>
      </trkpt>
      <trkpt lat="48.3303" lon="-4.40311">
        <ele>70.31</ele>
        <time>2019-08-23T12:23:12Z</time>
      </trkpt>
      <trkpt lat="48.33031" lon="-4.40305">
        <ele>69.83</ele>
        <time>2019-08-23T12:23:13Z</time>
      </trkpt>
      <trkpt lat="48.33033" lon="-4.40297">
        <ele>69.83</ele>
        <time>2019-08-23T12:23:14Z</time>
      </trkpt>
      <trkpt lat="48.33036" lon="-4.40285">
        <ele>69.35</ele>
        <time>2019-08-23T12:23:15Z</time>
      </trkpt>
      <trkpt lat="48.33038" lon="-4.40277">
        <ele>69.35</ele>
        <time>2019-08-23T12:23:16Z</time>
      </trkpt>
      <trkpt lat="48.3304" lon="-4.40267">
        <ele>69.35</ele>
        <time>2019-08-23T12:23:17Z</time>
      </trkpt>
      <trkpt lat="48.33041" lon="-4.40261">
        <ele>68.87</ele>
        <time>2019-08-23T12:23:18Z</time>
      </trkpt>
      <trkpt lat="48.33042" lon="-4.40256">
        <ele>68.87</ele>
        <time>2019-08-23T12:23:19Z</time>
      </trkpt>
      <trkpt lat="48.33043" lon="-4.4025">
        <ele>68.39</ele>
        <time>2019-08-23T12:23:20Z</time>
      </trkpt>
      <trkpt lat="48.33044" lon="-4.40245">
        <ele>68.87</ele>
        <time>2019-08-23T12:23:21Z</time>
      </trkpt>
      <trkpt lat="48.33046" lon="-4.4024">
        <ele>68.87</ele>
        <time>2019-08-23T12:23:22Z</time>
      </trkpt>
      <trkpt lat="48.33047" lon="-4.40238">
        <ele>68.39</ele>
        <time>2019-08-23T12:23:23Z</time>
      </trkpt>
      <trkpt lat="48.33049" lon="-4.40236">
        <ele>68.39</ele>
        <time>2019-08-23T12:23:24Z</time>
      </trkpt>
      <trkpt lat="48.33051" lon="-4.40236">
        <ele>68.39</ele>
        <time>2019-08-23T12:23:25Z</time>
      </trkpt>
      <trkpt lat="48.33055" lon="-4.40236">
        <ele>68.39</ele>
        <time>2019-08-23T12:23:26Z</time>
      </trkpt>
      <trkpt lat="48.33097" lon="-4.40249">
        <ele>68.87</ele>
        <time>2019-08-23T12:23:35Z</time>
      </trkpt>
      <trkpt lat="48.33114" lon="-4.40259">
        <ele>69.35</ele>
        <time>2019-08-23T12:23:39Z</time>
      </trkpt>
      <trkpt lat="48.33119" lon="-4.40262">
        <ele>69.35</ele>
        <time>2019-08-23T12:23:40Z</time>
      </trkpt>
      <trkpt lat="48.33123" lon="-4.40264">
        <ele>69.35</ele>
        <time>2019-08-23T12:23:41Z</time>
      </trkpt>
      <trkpt lat="48.33175" lon="-4.40298">
        <ele>70.79</ele>
        <time>2019-08-23T12:23:54Z</time>
      </trkpt>
      <trkpt lat="48.33217" lon="-4.4032">
        <ele>73.2</ele>
        <time>2019-08-23T12:24:06Z</time>
      </trkpt>
      <trkpt lat="48.33232" lon="-4.40329">
        <ele>74.16</ele>
        <time>2019-08-23T12:24:11Z</time>
      </trkpt>
      <trkpt lat="48.33235" lon="-4.40327">
        <ele>74.16</ele>
        <time>2019-08-23T12:24:12Z</time>
      </trkpt>
      <trkpt lat="48.33237" lon="-4.40324">
        <ele>74.16</ele>
        <time>2019-08-23T12:24:13Z</time>
      </trkpt>
      <trkpt lat="48.33246" lon="-4.40288">
        <ele>73.2</ele>
        <time>2019-08-23T12:24:20Z</time>
      </trkpt>
      <trkpt lat="48.33248" lon="-4.40282">
        <ele>73.2</ele>
        <time>2019-08-23T12:24:21Z</time>
      </trkpt>
      <trkpt lat="48.33251" lon="-4.40269">
        <ele>72.72</ele>
        <time>2019-08-23T12:24:23Z</time>
      </trkpt>
      <trkpt lat="48.33253" lon="-4.40263">
        <ele>72.72</ele>
        <time>2019-08-23T12:24:24Z</time>
      </trkpt>
      <trkpt lat="48.33257" lon="-4.40251">
        <ele>72.24</ele>
        <time>2019-08-23T12:24:26Z</time>
      </trkpt>
      <trkpt lat="48.33262" lon="-4.4024">
        <ele>72.24</ele>
        <time>2019-08-23T12:24:28Z</time>
      </trkpt>
      <trkpt lat="48.33306" lon="-4.40168">
        <ele>71.27</ele>
        <time>2019-08-23T12:24:42Z</time>
      </trkpt>
      <trkpt lat="48.33325" lon="-4.40147">
        <ele>70.31</ele>
        <time>2019-08-23T12:24:47Z</time>
      </trkpt>
      <trkpt lat="48.33329" lon="-4.40145">
        <ele>71.27</ele>
        <time>2019-08-23T12:24:48Z</time>
      </trkpt>
      <trkpt lat="48.33337" lon="-4.40141">
        <ele>71.76</ele>
        <time>2019-08-23T12:24:50Z</time>
      </trkpt>
      <trkpt lat="48.33351" lon="-4.40138">
        <ele>72.72</ele>
        <time>2019-08-23T12:24:55Z</time>
      </trkpt>
      <trkpt lat="48.33353" lon="-4.40141">
        <ele>73.2</ele>
        <time>2019-08-23T12:24:56Z</time>
      </trkpt>
      <trkpt lat="48.33353" lon="-4.40144">
        <ele>73.68</ele>
        <time>2019-08-23T12:24:57Z</time>
      </trkpt>
      <trkpt lat="48.33354" lon="-4.40147">
        <ele>74.16</ele>
        <time>2019-08-23T12:24:58Z</time>
      </trkpt>
      <trkpt lat="48.33355" lon="-4.4015">
        <ele>74.64</ele>
        <time>2019-08-23T12:24:59Z</time>
      </trkpt>
      <trkpt lat="48.33356" lon="-4.40153">
        <ele>75.12</ele>
        <time>2019-08-23T12:25:00Z</time>
      </trkpt>
      <trkpt lat="48.33357" lon="-4.40155">
        <ele>75.12</ele>
        <time>2019-08-23T12:25:01Z</time>
      </trkpt>
      <trkpt lat="48.33358" lon="-4.40156">
        <ele>75.6</ele>
        <time>2019-08-23T12:25:02Z</time>
      </trkpt>
      <trkpt lat="48.3336" lon="-4.40157">
        <ele>76.08</ele>
        <time>2019-08-23T12:25:03Z</time>
      </trkpt>
      <trkpt lat="48.33388" lon="-4.4017">
        <ele>78.97</ele>
        <time>2019-08-23T12:25:16Z</time>
      </trkpt>
      <trkpt lat="48.33411" lon="-4.40174">
        <ele>80.89</ele>
        <time>2019-08-23T12:25:27Z</time>
      </trkpt>
      <trkpt lat="48.33414" lon="-4.40173">
        <ele>80.89</ele>
        <time>2019-08-23T12:25:37Z</time>
      </trkpt>
      <trkpt lat="48.33413" lon="-4.40174">
        <ele>80.89</ele>
        <time>2019-08-23T12:25:49Z</time>
      </trkpt>
      <trkpt lat="48.33414" lon="-4.40176">
        <ele>80.41</ele>
        <time>2019-08-23T12:26:25Z</time>
      </trkpt>
      <trkpt lat="48.33414" lon="-4.40178">
        <ele>80.41</ele>
        <time>2019-08-23T12:27:07Z</time>
      </trkpt>
      <trkpt lat="48.33413" lon="-4.40175">
        <ele>80.41</ele>
        <time>2019-08-23T12:27:51Z</time>
      </trkpt>
      <trkpt lat="48.33412" lon="-4.40176">
        <ele>80.41</ele>
        <time>2019-08-23T12:28:19Z</time>
      </trkpt>
      <trkpt lat="48.33414" lon="-4.40174">
        <ele>79.93</ele>
        <time>2019-08-23T12:28:35Z</time>
      </trkpt>
      <trkpt lat="48.33413" lon="-4.40175">
        <ele>80.41</ele>
        <time>2019-08-23T12:29:05Z</time>
      </trkpt>
      <trkpt lat="48.33413" lon="-4.40176">
        <ele>80.41</ele>
        <time>2019-08-23T12:29:20Z</time>
      </trkpt>
      <trkpt lat="48.33413" lon="-4.40177">
        <ele>80.41</ele>
        <time>2019-08-23T12:29:21Z</time>
      </trkpt>
      <trkpt lat="48.33426" lon="-4.40201">
        <ele>78</ele>
        <time>2019-08-23T12:29:30Z</time>
      </trkpt>
      <trkpt lat="48.33427" lon="-4.40205">
        <ele>77.52</ele>
        <time>2019-08-23T12:29:31Z</time>
      </trkpt>
      <trkpt lat="48.33427" lon="-4.4021">
        <ele>77.52</ele>
        <time>2019-08-23T12:29:32Z</time>
      </trkpt>
      <trkpt lat="48.33424" lon="-4.40235">
        <ele>75.6</ele>
        <time>2019-08-23T12:29:38Z</time>
      </trkpt>
      <trkpt lat="48.33425" lon="-4.40239">
        <ele>75.12</ele>
        <time>2019-08-23T12:29:39Z</time>
      </trkpt>
      <trkpt lat="48.33427" lon="-4.40241">
        <ele>75.12</ele>
        <time>2019-08-23T12:29:40Z</time>
      </trkpt>
      <trkpt lat="48.3343" lon="-4.40243">
        <ele>74.64</ele>
        <time>2019-08-23T12:29:41Z</time>
      </trkpt>
      <trkpt lat="48.33432" lon="-4.40244">
        <ele>74.64</ele>
        <time>2019-08-23T12:29:42Z</time>
      </trkpt>
      <trkpt lat="48.33435" lon="-4.40243">
        <ele>73.68</ele>
        <time>2019-08-23T12:29:43Z</time>
      </trkpt>
      <trkpt lat="48.33438" lon="-4.40243">
        <ele>73.2</ele>
        <time>2019-08-23T12:29:44Z</time>
      </trkpt>
      <trkpt lat="48.33446" lon="-4.4024">
        <ele>71.76</ele>
        <time>2019-08-23T12:29:47Z</time>
      </trkpt>
      <trkpt lat="48.3346" lon="-4.40246">
        <ele>69.35</ele>
        <time>2019-08-23T12:29:52Z</time>
      </trkpt>
      <trkpt lat="48.33477" lon="-4.40245">
        <ele>65.99</ele>
        <time>2019-08-23T12:29:57Z</time>
      </trkpt>
      <trkpt lat="48.33481" lon="-4.40244">
        <ele>65.51</ele>
        <time>2019-08-23T12:29:58Z</time>
      </trkpt>
      <trkpt lat="48.33485" lon="-4.40243">
        <ele>65.51</ele>
        <time>2019-08-23T12:29:59Z</time>
      </trkpt>
      <trkpt lat="48.33496" lon="-4.40243">
        <ele>63.58</ele>
        <time>2019-08-23T12:30:02Z</time>
      </trkpt>
      <trkpt lat="48.335" lon="-4.40244">
        <ele>63.1</ele>
        <time>2019-08-23T12:30:03Z</time>
      </trkpt>
      <trkpt lat="48.33509" lon="-4.40246">
        <ele>61.66</ele>
        <time>2019-08-23T12:30:05Z</time>
      </trkpt>
      <trkpt lat="48.33517" lon="-4.40249">
        <ele>60.22</ele>
        <time>2019-08-23T12:30:07Z</time>
      </trkpt>
      <trkpt lat="48.33521" lon="-4.40251">
        <ele>59.74</ele>
        <time>2019-08-23T12:30:08Z</time>
      </trkpt>
      <trkpt lat="48.33525" lon="-4.4025">
        <ele>59.26</ele>
        <time>2019-08-23T12:30:09Z</time>
      </trkpt>
      <trkpt lat="48.33528" lon="-4.40249">
        <ele>58.3</ele>
        <time>2019-08-23T12:30:10Z</time>
      </trkpt>
      <trkpt lat="48.33532" lon="-4.40247">
        <ele>57.34</ele>
        <time>2019-08-23T12:30:11Z</time>
      </trkpt>
      <trkpt lat="48.33536" lon="-4.40246">
        <ele>56.86</ele>
        <time>2019-08-23T12:30:12Z</time>
      </trkpt>
      <trkpt lat="48.3354" lon="-4.40246">
        <ele>55.89</ele>
        <time>2019-08-23T12:30:13Z</time>
      </trkpt>
      <trkpt lat="48.33543" lon="-4.40246">
        <ele>55.41</ele>
        <time>2019-08-23T12:30:14Z</time>
      </trkpt>
      <trkpt lat="48.3355" lon="-4.40248">
        <ele>53.97</ele>
        <time>2019-08-23T12:30:17Z</time>
      </trkpt>
      <trkpt lat="48.33553" lon="-4.4025">
        <ele>53.01</ele>
        <time>2019-08-23T12:30:18Z</time>
      </trkpt>
      <trkpt lat="48.33555" lon="-4.40253">
        <ele>52.53</ele>
        <time>2019-08-23T12:30:19Z</time>
      </trkpt>
      <trkpt lat="48.33558" lon="-4.40256">
        <ele>52.53</ele>
        <time>2019-08-23T12:30:20Z</time>
      </trkpt>
      <trkpt lat="48.33561" lon="-4.40257">
        <ele>52.05</ele>
        <time>2019-08-23T12:30:21Z</time>
      </trkpt>
      <trkpt lat="48.33563" lon="-4.40258">
        <ele>52.05</ele>
        <time>2019-08-23T12:30:22Z</time>
      </trkpt>
      <trkpt lat="48.33565" lon="-4.40259">
        <ele>51.57</ele>
        <time>2019-08-23T12:30:23Z</time>
      </trkpt>
      <trkpt lat="48.33566" lon="-4.40261">
        <ele>51.57</ele>
        <time>2019-08-23T12:30:24Z</time>
      </trkpt>
      <trkpt lat="48.33566" lon="-4.40263">
        <ele>51.57</ele>
        <time>2019-08-23T12:30:25Z</time>
      </trkpt>
      <trkpt lat="48.33565" lon="-4.40264">
        <ele>51.57</ele>
        <time>2019-08-23T12:30:26Z</time>
      </trkpt>
      <trkpt lat="48.33564" lon="-4.40267">
        <ele>51.57</ele>
        <time>2019-08-23T12:30:28Z</time>
      </trkpt>
      <trkpt lat="48.33563" lon="-4.40268">
        <ele>51.57</ele>
        <time>2019-08-23T12:30:29Z</time>
      </trkpt>
      <trkpt lat="48.33562" lon="-4.40282">
        <ele>50.13</ele>
        <time>2019-08-23T12:30:40Z</time>
      </trkpt>
      <trkpt lat="48.33561" lon="-4.40289">
        <ele>49.65</ele>
        <time>2019-08-23T12:30:43Z</time>
      </trkpt>
      <trkpt lat="48.33561" lon="-4.40293">
        <ele>49.65</ele>
        <time>2019-08-23T12:30:44Z</time>
      </trkpt>
      <trkpt lat="48.3356" lon="-4.40298">
        <ele>49.16</ele>
        <time>2019-08-23T12:30:45Z</time>
      </trkpt>
      <trkpt lat="48.33558" lon="-4.40304">
        <ele>49.16</ele>
        <time>2019-08-23T12:30:46Z</time>
      </trkpt>
      <trkpt lat="48.33556" lon="-4.4031">
        <ele>48.68</ele>
        <time>2019-08-23T12:30:47Z</time>
      </trkpt>
      <trkpt lat="48.33554" lon="-4.40316">
        <ele>48.2</ele>
        <time>2019-08-23T12:30:48Z</time>
      </trkpt>
      <trkpt lat="48.33539" lon="-4.40352">
        <ele>45.8</ele>
        <time>2019-08-23T12:30:55Z</time>
      </trkpt>
      <trkpt lat="48.33509" lon="-4.40396">
        <ele>42.92</ele>
        <time>2019-08-23T12:31:06Z</time>
      </trkpt>
      <trkpt lat="48.33483" lon="-4.40429">
        <ele>39.55</ele>
        <time>2019-08-23T12:31:14Z</time>
      </trkpt>
      <trkpt lat="48.3347" lon="-4.40444">
        <ele>37.63</ele>
        <time>2019-08-23T12:31:18Z</time>
      </trkpt>
      <trkpt lat="48.33468" lon="-4.40454">
        <ele>36.19</ele>
        <time>2019-08-23T12:31:21Z</time>
      </trkpt>
      <trkpt lat="48.33469" lon="-4.40456">
        <ele>36.19</ele>
        <time>2019-08-23T12:31:22Z</time>
      </trkpt>
      <trkpt lat="48.3347" lon="-4.40456">
        <ele>36.19</ele>
        <time>2019-08-23T12:31:23Z</time>
      </trkpt>
      <trkpt lat="48.33471" lon="-4.40456">
        <ele>36.19</ele>
        <time>2019-08-23T12:31:24Z</time>
      </trkpt>
      <trkpt lat="48.33473" lon="-4.40455">
        <ele>35.71</ele>
        <time>2019-08-23T12:31:25Z</time>
      </trkpt>
      <trkpt lat="48.33474" lon="-4.40454">
        <ele>35.71</ele>
        <time>2019-08-23T12:31:26Z</time>
      </trkpt>
      <trkpt lat="48.33476" lon="-4.40452">
        <ele>35.23</ele>
        <time>2019-08-23T12:31:27Z</time>
      </trkpt>
      <trkpt lat="48.33496" lon="-4.40443">
        <ele>31.86</ele>
        <time>2019-08-23T12:31:33Z</time>
      </trkpt>
      <trkpt lat="48.33501" lon="-4.40441">
        <ele>30.9</ele>
        <time>2019-08-23T12:31:34Z</time>
      </trkpt>
      <trkpt lat="48.33506" lon="-4.4044">
        <ele>30.42</ele>
        <time>2019-08-23T12:31:35Z</time>
      </trkpt>
      <trkpt lat="48.33511" lon="-4.40439">
        <ele>29.94</ele>
        <time>2019-08-23T12:31:36Z</time>
      </trkpt>
      <trkpt lat="48.33523" lon="-4.40437">
        <ele>28.02</ele>
        <time>2019-08-23T12:31:39Z</time>
      </trkpt>
      <trkpt lat="48.33528" lon="-4.40434">
        <ele>27.53</ele>
        <time>2019-08-23T12:31:40Z</time>
      </trkpt>
      <trkpt lat="48.33535" lon="-4.40429">
        <ele>27.05</ele>
        <time>2019-08-23T12:31:41Z</time>
      </trkpt>
      <trkpt lat="48.33542" lon="-4.40425">
        <ele>27.05</ele>
        <time>2019-08-23T12:31:42Z</time>
      </trkpt>
      <trkpt lat="48.33548" lon="-4.4042">
        <ele>27.05</ele>
        <time>2019-08-23T12:31:43Z</time>
      </trkpt>
      <trkpt lat="48.33578" lon="-4.40394">
        <ele>25.61</ele>
        <time>2019-08-23T12:31:50Z</time>
      </trkpt>
      <trkpt lat="48.336" lon="-4.40376">
        <ele>24.65</ele>
        <time>2019-08-23T12:31:54Z</time>
      </trkpt>
      <trkpt lat="48.33615" lon="-4.4036">
        <ele>24.65</ele>
        <time>2019-08-23T12:31:57Z</time>
      </trkpt>
      <trkpt lat="48.33619" lon="-4.40354">
        <ele>24.17</ele>
        <time>2019-08-23T12:31:58Z</time>
      </trkpt>
      <trkpt lat="48.33622" lon="-4.40349">
        <ele>24.65</ele>
        <time>2019-08-23T12:31:59Z</time>
      </trkpt>
      <trkpt lat="48.33634" lon="-4.40321">
        <ele>25.13</ele>
        <time>2019-08-23T12:32:05Z</time>
      </trkpt>
      <trkpt lat="48.33636" lon="-4.40318">
        <ele>25.61</ele>
        <time>2019-08-23T12:32:06Z</time>
      </trkpt>
      <trkpt lat="48.33637" lon="-4.40315">
        <ele>25.61</ele>
        <time>2019-08-23T12:32:07Z</time>
      </trkpt>
      <trkpt lat="48.33658" lon="-4.40283">
        <ele>25.61</ele>
        <time>2019-08-23T12:32:17Z</time>
      </trkpt>
      <trkpt lat="48.33675" lon="-4.40243">
        <ele>25.13</ele>
        <time>2019-08-23T12:32:26Z</time>
      </trkpt>
      <trkpt lat="48.33699" lon="-4.40197">
        <ele>24.65</ele>
        <time>2019-08-23T12:32:37Z</time>
      </trkpt>
      <trkpt lat="48.33718" lon="-4.40148">
        <ele>24.65</ele>
        <time>2019-08-23T12:32:47Z</time>
      </trkpt>
      <trkpt lat="48.33725" lon="-4.4013">
        <ele>24.65</ele>
        <time>2019-08-23T12:32:51Z</time>
      </trkpt>
      <trkpt lat="48.33727" lon="-4.40125">
        <ele>24.65</ele>
        <time>2019-08-23T12:32:52Z</time>
      </trkpt>
      <trkpt lat="48.33736" lon="-4.4011">
        <ele>24.65</ele>
        <time>2019-08-23T12:32:56Z</time>
      </trkpt>
      <trkpt lat="48.33738" lon="-4.40106">
        <ele>24.17</ele>
        <time>2019-08-23T12:32:57Z</time>
      </trkpt>
      <trkpt lat="48.33739" lon="-4.40103">
        <ele>24.65</ele>
        <time>2019-08-23T12:32:58Z</time>
      </trkpt>
      <trkpt lat="48.33762" lon="-4.40066">
        <ele>23.21</ele>
        <time>2019-08-23T12:33:06Z</time>
      </trkpt>
      <trkpt lat="48.33787" lon="-4.40011">
        <ele>22.25</ele>
        <time>2019-08-23T12:33:16Z</time>
      </trkpt>
      <trkpt lat="48.33789" lon="-4.40004">
        <ele>22.25</ele>
        <time>2019-08-23T12:33:17Z</time>
      </trkpt>
      <trkpt lat="48.33791" lon="-4.39998">
        <ele>22.25</ele>
        <time>2019-08-23T12:33:18Z</time>
      </trkpt>
      <trkpt lat="48.33794" lon="-4.39984">
        <ele>22.25</ele>
        <time>2019-08-23T12:33:20Z</time>
      </trkpt>
      <trkpt lat="48.33803" lon="-4.39964">
        <ele>21.77</ele>
        <time>2019-08-23T12:33:23Z</time>
      </trkpt>
      <trkpt lat="48.33806" lon="-4.39957">
        <ele>21.77</ele>
        <time>2019-08-23T12:33:24Z</time>
      </trkpt>
      <trkpt lat="48.33809" lon="-4.39951">
        <ele>21.77</ele>
        <time>2019-08-23T12:33:25Z</time>
      </trkpt>
      <trkpt lat="48.33812" lon="-4.39944">
        <ele>21.77</ele>
        <time>2019-08-23T12:33:26Z</time>
      </trkpt>
      <trkpt lat="48.33815" lon="-4.39938">
        <ele>21.77</ele>
        <time>2019-08-23T12:33:27Z</time>
      </trkpt>
      <trkpt lat="48.33824" lon="-4.3992">
        <ele>21.77</ele>
        <time>2019-08-23T12:33:30Z</time>
      </trkpt>
      <trkpt lat="48.33827" lon="-4.39914">
        <ele>21.77</ele>
        <time>2019-08-23T12:33:31Z</time>
      </trkpt>
      <trkpt lat="48.3383" lon="-4.39908">
        <ele>21.29</ele>
        <time>2019-08-23T12:33:32Z</time>
      </trkpt>
      <trkpt lat="48.33832" lon="-4.39902">
        <ele>21.29</ele>
        <time>2019-08-23T12:33:33Z</time>
      </trkpt>
      <trkpt lat="48.33832" lon="-4.39896">
        <ele>21.77</ele>
        <time>2019-08-23T12:33:34Z</time>
      </trkpt>
      <trkpt lat="48.33833" lon="-4.3989">
        <ele>21.77</ele>
        <time>2019-08-23T12:33:35Z</time>
      </trkpt>
      <trkpt lat="48.33835" lon="-4.39884">
        <ele>21.77</ele>
        <time>2019-08-23T12:33:36Z</time>
      </trkpt>
      <trkpt lat="48.33836" lon="-4.39878">
        <ele>22.25</ele>
        <time>2019-08-23T12:33:37Z</time>
      </trkpt>
      <trkpt lat="48.33837" lon="-4.39873">
        <ele>22.25</ele>
        <time>2019-08-23T12:33:38Z</time>
      </trkpt>
      <trkpt lat="48.33839" lon="-4.39867">
        <ele>22.25</ele>
        <time>2019-08-23T12:33:39Z</time>
      </trkpt>
      <trkpt lat="48.3384" lon="-4.39862">
        <ele>22.73</ele>
        <time>2019-08-23T12:33:40Z</time>
      </trkpt>
      <trkpt lat="48.33842" lon="-4.39858">
        <ele>22.73</ele>
        <time>2019-08-23T12:33:41Z</time>
      </trkpt>
      <trkpt lat="48.33842" lon="-4.39854">
        <ele>23.21</ele>
        <time>2019-08-23T12:33:42Z</time>
      </trkpt>
      <trkpt lat="48.33843" lon="-4.39851">
        <ele>23.21</ele>
        <time>2019-08-23T12:33:43Z</time>
      </trkpt>
      <trkpt lat="48.33844" lon="-4.39847">
        <ele>23.21</ele>
        <time>2019-08-23T12:33:44Z</time>
      </trkpt>
      <trkpt lat="48.33845" lon="-4.39844">
        <ele>23.21</ele>
        <time>2019-08-23T12:33:45Z</time>
      </trkpt>
      <trkpt lat="48.33846" lon="-4.39841">
        <ele>23.69</ele>
        <time>2019-08-23T12:33:46Z</time>
      </trkpt>
      <trkpt lat="48.33848" lon="-4.39838">
        <ele>23.69</ele>
        <time>2019-08-23T12:33:47Z</time>
      </trkpt>
      <trkpt lat="48.33848" lon="-4.39835">
        <ele>23.69</ele>
        <time>2019-08-23T12:33:48Z</time>
      </trkpt>
      <trkpt lat="48.33849" lon="-4.39833">
        <ele>24.17</ele>
        <time>2019-08-23T12:33:49Z</time>
      </trkpt>
      <trkpt lat="48.3385" lon="-4.3983">
        <ele>24.17</ele>
        <time>2019-08-23T12:33:50Z</time>
      </trkpt>
      <trkpt lat="48.33856" lon="-4.39817">
        <ele>24.65</ele>
        <time>2019-08-23T12:33:56Z</time>
      </trkpt>
      <trkpt lat="48.33858" lon="-4.39815">
        <ele>26.09</ele>
        <time>2019-08-23T12:33:57Z</time>
      </trkpt>
      <trkpt lat="48.3386" lon="-4.39813">
        <ele>25.13</ele>
        <time>2019-08-23T12:33:58Z</time>
      </trkpt>
      <trkpt lat="48.33861" lon="-4.39811">
        <ele>25.13</ele>
        <time>2019-08-23T12:33:59Z</time>
      </trkpt>
      <trkpt lat="48.33864" lon="-4.39809">
        <ele>25.61</ele>
        <time>2019-08-23T12:34:00Z</time>
      </trkpt>
      <trkpt lat="48.33893" lon="-4.39784">
        <ele>26.09</ele>
        <time>2019-08-23T12:34:11Z</time>
      </trkpt>
      <trkpt lat="48.33896" lon="-4.39781">
        <ele>26.09</ele>
        <time>2019-08-23T12:34:12Z</time>
      </trkpt>
      <trkpt lat="48.33899" lon="-4.39778">
        <ele>26.09</ele>
        <time>2019-08-23T12:34:13Z</time>
      </trkpt>
      <trkpt lat="48.33902" lon="-4.39774">
        <ele>26.09</ele>
        <time>2019-08-23T12:34:14Z</time>
      </trkpt>
      <trkpt lat="48.33904" lon="-4.39771">
        <ele>26.09</ele>
        <time>2019-08-23T12:34:15Z</time>
      </trkpt>
      <trkpt lat="48.33906" lon="-4.39769">
        <ele>26.09</ele>
        <time>2019-08-23T12:34:16Z</time>
      </trkpt>
      <trkpt lat="48.33911" lon="-4.39765">
        <ele>26.57</ele>
        <time>2019-08-23T12:34:18Z</time>
      </trkpt>
      <trkpt lat="48.33914" lon="-4.39763">
        <ele>26.57</ele>
        <time>2019-08-23T12:34:19Z</time>
      </trkpt>
      <trkpt lat="48.33916" lon="-4.3976">
        <ele>26.57</ele>
        <time>2019-08-23T12:34:20Z</time>
      </trkpt>
      <trkpt lat="48.33919" lon="-4.39758">
        <ele>26.57</ele>
        <time>2019-08-23T12:34:21Z</time>
      </trkpt>
      <trkpt lat="48.33921" lon="-4.39756">
        <ele>26.57</ele>
        <time>2019-08-23T12:34:22Z</time>
      </trkpt>
      <trkpt lat="48.33923" lon="-4.39754">
        <ele>27.05</ele>
        <time>2019-08-23T12:34:23Z</time>
      </trkpt>
      <trkpt lat="48.33926" lon="-4.39752">
        <ele>27.53</ele>
        <time>2019-08-23T12:34:24Z</time>
      </trkpt>
      <trkpt lat="48.3393" lon="-4.39748">
        <ele>27.53</ele>
        <time>2019-08-23T12:34:26Z</time>
      </trkpt>
      <trkpt lat="48.33933" lon="-4.39746">
        <ele>28.02</ele>
        <time>2019-08-23T12:34:27Z</time>
      </trkpt>
      <trkpt lat="48.33935" lon="-4.39743">
        <ele>28.02</ele>
        <time>2019-08-23T12:34:28Z</time>
      </trkpt>
      <trkpt lat="48.33936" lon="-4.3974">
        <ele>28.02</ele>
        <time>2019-08-23T12:34:29Z</time>
      </trkpt>
      <trkpt lat="48.33937" lon="-4.39738">
        <ele>28.5</ele>
        <time>2019-08-23T12:34:30Z</time>
      </trkpt>
      <trkpt lat="48.33938" lon="-4.39736">
        <ele>28.5</ele>
        <time>2019-08-23T12:34:31Z</time>
      </trkpt>
      <trkpt lat="48.33939" lon="-4.39734">
        <ele>28.5</ele>
        <time>2019-08-23T12:34:32Z</time>
      </trkpt>
      <trkpt lat="48.33941" lon="-4.39731">
        <ele>28.5</ele>
        <time>2019-08-23T12:34:33Z</time>
      </trkpt>
      <trkpt lat="48.33943" lon="-4.39729">
        <ele>28.98</ele>
        <time>2019-08-23T12:34:34Z</time>
      </trkpt>
      <trkpt lat="48.33944" lon="-4.39727">
        <ele>28.98</ele>
        <time>2019-08-23T12:34:35Z</time>
      </trkpt>
      <trkpt lat="48.3395" lon="-4.39723">
        <ele>29.94</ele>
        <time>2019-08-23T12:34:39Z</time>
      </trkpt>
      <trkpt lat="48.33954" lon="-4.39718">
        <ele>30.42</ele>
        <time>2019-08-23T12:34:42Z</time>
      </trkpt>
      <trkpt lat="48.33955" lon="-4.39716">
        <ele>30.9</ele>
        <time>2019-08-23T12:34:43Z</time>
      </trkpt>
      <trkpt lat="48.33957" lon="-4.39714">
        <ele>30.9</ele>
        <time>2019-08-23T12:34:44Z</time>
      </trkpt>
      <trkpt lat="48.33958" lon="-4.39712">
        <ele>31.38</ele>
        <time>2019-08-23T12:34:45Z</time>
      </trkpt>
      <trkpt lat="48.33959" lon="-4.3971">
        <ele>31.38</ele>
        <time>2019-08-23T12:34:46Z</time>
      </trkpt>
      <trkpt lat="48.3396" lon="-4.39708">
        <ele>31.86</ele>
        <time>2019-08-23T12:34:47Z</time>
      </trkpt>
      <trkpt lat="48.33969" lon="-4.39692">
        <ele>33.3</ele>
        <time>2019-08-23T12:34:53Z</time>
      </trkpt>
      <trkpt lat="48.33969" lon="-4.3969">
        <ele>33.3</ele>
        <time>2019-08-23T12:34:54Z</time>
      </trkpt>
      <trkpt lat="48.3397" lon="-4.39687">
        <ele>33.3</ele>
        <time>2019-08-23T12:34:55Z</time>
      </trkpt>
      <trkpt lat="48.33971" lon="-4.39684">
        <ele>33.78</ele>
        <time>2019-08-23T12:34:56Z</time>
      </trkpt>
      <trkpt lat="48.33972" lon="-4.39682">
        <ele>33.78</ele>
        <time>2019-08-23T12:34:57Z</time>
      </trkpt>
      <trkpt lat="48.33973" lon="-4.3968">
        <ele>33.78</ele>
        <time>2019-08-23T12:34:58Z</time>
      </trkpt>
      <trkpt lat="48.33975" lon="-4.39677">
        <ele>34.26</ele>
        <time>2019-08-23T12:34:59Z</time>
      </trkpt>
      <trkpt lat="48.33976" lon="-4.39674">
        <ele>34.26</ele>
        <time>2019-08-23T12:35:00Z</time>
      </trkpt>
      <trkpt lat="48.33977" lon="-4.39671">
        <ele>34.26</ele>
        <time>2019-08-23T12:35:01Z</time>
      </trkpt>
      <trkpt lat="48.33978" lon="-4.39667">
        <ele>34.26</ele>
        <time>2019-08-23T12:35:02Z</time>
      </trkpt>
      <trkpt lat="48.33985" lon="-4.39624">
        <ele>33.3</ele>
        <time>2019-08-23T12:35:13Z</time>
      </trkpt>
      <trkpt lat="48.33982" lon="-4.39598">
        <ele>32.34</ele>
        <time>2019-08-23T12:35:18Z</time>
      </trkpt>
      <trkpt lat="48.33981" lon="-4.39591">
        <ele>31.86</ele>
        <time>2019-08-23T12:35:19Z</time>
      </trkpt>
      <trkpt lat="48.33975" lon="-4.39579">
        <ele>30.9</ele>
        <time>2019-08-23T12:35:21Z</time>
      </trkpt>
      <trkpt lat="48.3397" lon="-4.39575">
        <ele>29.94</ele>
        <time>2019-08-23T12:35:22Z</time>
      </trkpt>
      <trkpt lat="48.33965" lon="-4.39572">
        <ele>28.98</ele>
        <time>2019-08-23T12:35:23Z</time>
      </trkpt>
      <trkpt lat="48.33955" lon="-4.39565">
        <ele>28.5</ele>
        <time>2019-08-23T12:35:25Z</time>
      </trkpt>
      <trkpt lat="48.33952" lon="-4.39558">
        <ele>28.02</ele>
        <time>2019-08-23T12:35:26Z</time>
      </trkpt>
      <trkpt lat="48.33949" lon="-4.39549">
        <ele>27.53</ele>
        <time>2019-08-23T12:35:27Z</time>
      </trkpt>
      <trkpt lat="48.33947" lon="-4.39539">
        <ele>26.57</ele>
        <time>2019-08-23T12:35:28Z</time>
      </trkpt>
      <trkpt lat="48.33945" lon="-4.39528">
        <ele>26.09</ele>
        <time>2019-08-23T12:35:29Z</time>
      </trkpt>
      <trkpt lat="48.33943" lon="-4.39518">
        <ele>26.09</ele>
        <time>2019-08-23T12:35:30Z</time>
      </trkpt>
      <trkpt lat="48.33941" lon="-4.39508">
        <ele>25.13</ele>
        <time>2019-08-23T12:35:31Z</time>
      </trkpt>
      <trkpt lat="48.33939" lon="-4.39498">
        <ele>25.13</ele>
        <time>2019-08-23T12:35:32Z</time>
      </trkpt>
      <trkpt lat="48.33937" lon="-4.39454">
        <ele>23.69</ele>
        <time>2019-08-23T12:35:36Z</time>
      </trkpt>
      <trkpt lat="48.33938" lon="-4.39443">
        <ele>22.73</ele>
        <time>2019-08-23T12:35:37Z</time>
      </trkpt>
      <trkpt lat="48.33947" lon="-4.39394">
        <ele>19.36</ele>
        <time>2019-08-23T12:35:41Z</time>
      </trkpt>
      <trkpt lat="48.33948" lon="-4.39382">
        <ele>18.88</ele>
        <time>2019-08-23T12:35:42Z</time>
      </trkpt>
      <trkpt lat="48.33946" lon="-4.3936">
        <ele>16.96</ele>
        <time>2019-08-23T12:35:44Z</time>
      </trkpt>
      <trkpt lat="48.33948" lon="-4.39325">
        <ele>14.56</ele>
        <time>2019-08-23T12:35:47Z</time>
      </trkpt>
      <trkpt lat="48.33954" lon="-4.39288">
        <ele>11.19</ele>
        <time>2019-08-23T12:35:50Z</time>
      </trkpt>
      <trkpt lat="48.3396" lon="-4.39258">
        <ele>9.27</ele>
        <time>2019-08-23T12:35:53Z</time>
      </trkpt>
      <trkpt lat="48.33964" lon="-4.39239">
        <ele>9.75</ele>
        <time>2019-08-23T12:36:00Z</time>
      </trkpt>
      <trkpt lat="48.33965" lon="-4.39237">
        <ele>9.27</ele>
        <time>2019-08-23T12:36:15Z</time>
      </trkpt>
      <trkpt lat="48.33965" lon="-4.39237">
        <ele>9.27</ele>
        <time>2019-08-23T12:36:19Z</time>
      </trkpt>
      <trkpt lat="48.33966" lon="-4.39236">
        <ele>9.27</ele>
        <time>2019-08-23T12:36:20Z</time>
      </trkpt>
      <trkpt lat="48.33967" lon="-4.39234">
        <ele>9.27</ele>
        <time>2019-08-23T12:36:21Z</time>
      </trkpt>
      <trkpt lat="48.33969" lon="-4.39232">
        <ele>9.27</ele>
        <time>2019-08-23T12:36:22Z</time>
      </trkpt>
      <trkpt lat="48.33971" lon="-4.39231">
        <ele>8.79</ele>
        <time>2019-08-23T12:36:23Z</time>
      </trkpt>
      <trkpt lat="48.33974" lon="-4.39231">
        <ele>9.27</ele>
        <time>2019-08-23T12:36:24Z</time>
      </trkpt>
      <trkpt lat="48.33977" lon="-4.39232">
        <ele>8.79</ele>
        <time>2019-08-23T12:36:25Z</time>
      </trkpt>
      <trkpt lat="48.33981" lon="-4.39233">
        <ele>8.79</ele>
        <time>2019-08-23T12:36:26Z</time>
      </trkpt>
      <trkpt lat="48.33984" lon="-4.39235">
        <ele>8.79</ele>
        <time>2019-08-23T12:36:27Z</time>
      </trkpt>
      <trkpt lat="48.33988" lon="-4.39236">
        <ele>8.79</ele>
        <time>2019-08-23T12:36:28Z</time>
      </trkpt>
      <trkpt lat="48.33992" lon="-4.39237">
        <ele>8.79</ele>
        <time>2019-08-23T12:36:29Z</time>
      </trkpt>
      <trkpt lat="48.33994" lon="-4.39236">
        <ele>9.27</ele>
        <time>2019-08-23T12:36:30Z</time>
      </trkpt>
      <trkpt lat="48.33997" lon="-4.39236">
        <ele>9.27</ele>
        <time>2019-08-23T12:36:31Z</time>
      </trkpt>
      <trkpt lat="48.3403" lon="-4.39231">
        <ele>8.79</ele>
        <time>2019-08-23T12:36:39Z</time>
      </trkpt>
      <trkpt lat="48.34065" lon="-4.39219">
        <ele>9.27</ele>
        <time>2019-08-23T12:36:47Z</time>
      </trkpt>
      <trkpt lat="48.34069" lon="-4.39217">
        <ele>9.27</ele>
        <time>2019-08-23T12:36:48Z</time>
      </trkpt>
      <trkpt lat="48.34073" lon="-4.39215">
        <ele>9.27</ele>
        <time>2019-08-23T12:36:49Z</time>
      </trkpt>
      <trkpt lat="48.34077" lon="-4.39213">
        <ele>9.27</ele>
        <time>2019-08-23T12:36:50Z</time>
      </trkpt>
      <trkpt lat="48.34081" lon="-4.39211">
        <ele>9.27</ele>
        <time>2019-08-23T12:36:51Z</time>
      </trkpt>
      <trkpt lat="48.34084" lon="-4.39208">
        <ele>9.27</ele>
        <time>2019-08-23T12:36:52Z</time>
      </trkpt>
      <trkpt lat="48.34088" lon="-4.39205">
        <ele>9.27</ele>
        <time>2019-08-23T12:36:53Z</time>
      </trkpt>
      <trkpt lat="48.34098" lon="-4.39194">
        <ele>9.27</ele>
        <time>2019-08-23T12:36:56Z</time>
      </trkpt>
      <trkpt lat="48.34106" lon="-4.39186">
        <ele>9.27</ele>
        <time>2019-08-23T12:36:58Z</time>
      </trkpt>
      <trkpt lat="48.34109" lon="-4.39182">
        <ele>9.27</ele>
        <time>2019-08-23T12:36:59Z</time>
      </trkpt>
      <trkpt lat="48.34112" lon="-4.39177">
        <ele>9.27</ele>
        <time>2019-08-23T12:37:00Z</time>
      </trkpt>
      <trkpt lat="48.34137" lon="-4.39141">
        <ele>9.27</ele>
        <time>2019-08-23T12:37:09Z</time>
      </trkpt>
      <trkpt lat="48.34142" lon="-4.39129">
        <ele>9.27</ele>
        <time>2019-08-23T12:37:12Z</time>
      </trkpt>
      <trkpt lat="48.34141" lon="-4.39127">
        <ele>9.27</ele>
        <time>2019-08-23T12:37:13Z</time>
      </trkpt>
      <trkpt lat="48.34138" lon="-4.39126">
        <ele>9.27</ele>
        <time>2019-08-23T12:37:14Z</time>
      </trkpt>
      <trkpt lat="48.34136" lon="-4.39125">
        <ele>9.27</ele>
        <time>2019-08-23T12:37:15Z</time>
      </trkpt>
      <trkpt lat="48.34134" lon="-4.39125">
        <ele>9.27</ele>
        <time>2019-08-23T12:37:16Z</time>
      </trkpt>
      <trkpt lat="48.34116" lon="-4.39128">
        <ele>9.27</ele>
        <time>2019-08-23T12:37:25Z</time>
      </trkpt>
      <trkpt lat="48.34114" lon="-4.39128">
        <ele>9.27</ele>
        <time>2019-08-23T12:37:35Z</time>
      </trkpt>
      <trkpt lat="48.34112" lon="-4.39125">
        <ele>9.75</ele>
        <time>2019-08-23T12:37:48Z</time>
      </trkpt>
      <trkpt lat="48.34112" lon="-4.39125">
        <ele>9.75</ele>
        <time>2019-08-23T12:38:07Z</time>
      </trkpt>
      <trkpt lat="48.34112" lon="-4.39124">
        <ele>9.75</ele>
        <time>2019-08-23T12:38:44Z</time>
      </trkpt>
      <trkpt lat="48.34112" lon="-4.39123">
        <ele>9.75</ele>
        <time>2019-08-23T12:39:17Z</time>
      </trkpt>
      <trkpt lat="48.34112" lon="-4.39123">
        <ele>9.75</ele>
        <time>2019-08-23T12:39:43Z</time>
      </trkpt>
      <trkpt lat="48.34112" lon="-4.39125">
        <ele>9.75</ele>
        <time>2019-08-23T12:40:13Z</time>
      </trkpt>
      <trkpt lat="48.34113" lon="-4.39127">
        <ele>9.75</ele>
        <time>2019-08-23T12:40:43Z</time>
      </trkpt>
      <trkpt lat="48.34112" lon="-4.39127">
        <ele>9.75</ele>
        <time>2019-08-23T12:41:14Z</time>
      </trkpt>
      <trkpt lat="48.34113" lon="-4.39128">
        <ele>9.75</ele>
        <time>2019-08-23T12:41:55Z</time>
      </trkpt>
      <trkpt lat="48.34113" lon="-4.39128">
        <ele>9.75</ele>
        <time>2019-08-23T12:42:33Z</time>
      </trkpt>
      <trkpt lat="48.34112" lon="-4.39126">
        <ele>9.75</ele>
        <time>2019-08-23T12:43:09Z</time>
      </trkpt>
      <trkpt lat="48.34112" lon="-4.39126">
        <ele>9.75</ele>
        <time>2019-08-23T12:43:24Z</time>
      </trkpt>
      <trkpt lat="48.34114" lon="-4.39125">
        <ele>11.19</ele>
        <time>2019-08-23T12:58:58Z</time>
      </trkpt>
      <trkpt lat="48.34113" lon="-4.39126">
        <ele>9.75</ele>
        <time>2019-08-23T12:58:59Z</time>
      </trkpt>
      <trkpt lat="48.34112" lon="-4.39122">
        <ele>11.19</ele>
        <time>2019-08-23T12:59:22Z</time>
      </trkpt>
      <trkpt lat="48.34114" lon="-4.39124">
        <ele>9.75</ele>
        <time>2019-08-23T12:59:46Z</time>
      </trkpt>
      <trkpt lat="48.34113" lon="-4.39125">
        <ele>9.27</ele>
        <time>2019-08-23T13:00:15Z</time>
      </trkpt>
      <trkpt lat="48.34112" lon="-4.39124">
        <ele>9.27</ele>
        <time>2019-08-23T13:00:52Z</time>
      </trkpt>
      <trkpt lat="48.34111" lon="-4.39126">
        <ele>9.27</ele>
        <time>2019-08-23T13:01:21Z</time>
      </trkpt>
      <trkpt lat="48.34111" lon="-4.39126">
        <ele>9.27</ele>
        <time>2019-08-23T13:01:49Z</time>
      </trkpt>
      <trkpt lat="48.34112" lon="-4.39125">
        <ele>9.75</ele>
        <time>2019-08-23T13:02:25Z</time>
      </trkpt>
      <trkpt lat="48.34113" lon="-4.39126">
        <ele>9.27</ele>
        <time>2019-08-23T13:02:38Z</time>
      </trkpt>
      <trkpt lat="48.34113" lon="-4.39127">
        <ele>9.27</ele>
        <time>2019-08-23T13:02:46Z</time>
      </trkpt>
      <trkpt lat="48.34135" lon="-4.39105">
        <ele>9.75</ele>
        <time>2019-08-23T13:02:58Z</time>
      </trkpt>
      <trkpt lat="48.3416" lon="-4.39074">
        <ele>9.27</ele>
        <time>2019-08-23T13:03:09Z</time>
      </trkpt>
      <trkpt lat="48.34169" lon="-4.39078">
        <ele>9.27</ele>
        <time>2019-08-23T13:03:14Z</time>
      </trkpt>
      <trkpt lat="48.34183" lon="-4.39068">
        <ele>8.79</ele>
        <time>2019-08-23T13:03:20Z</time>
      </trkpt>
      <trkpt lat="48.3419" lon="-4.39064">
        <ele>8.79</ele>
        <time>2019-08-23T13:03:22Z</time>
      </trkpt>
      <trkpt lat="48.34198" lon="-4.39061">
        <ele>8.31</ele>
        <time>2019-08-23T13:03:24Z</time>
      </trkpt>
      <trkpt lat="48.34202" lon="-4.39063">
        <ele>8.31</ele>
        <time>2019-08-23T13:03:25Z</time>
      </trkpt>
      <trkpt lat="48.34204" lon="-4.39068">
        <ele>7.83</ele>
        <time>2019-08-23T13:03:26Z</time>
      </trkpt>
      <trkpt lat="48.34205" lon="-4.39074">
        <ele>8.31</ele>
        <time>2019-08-23T13:03:27Z</time>
      </trkpt>
      <trkpt lat="48.34206" lon="-4.3908">
        <ele>8.31</ele>
        <time>2019-08-23T13:03:28Z</time>
      </trkpt>
      <trkpt lat="48.34207" lon="-4.39086">
        <ele>7.83</ele>
        <time>2019-08-23T13:03:29Z</time>
      </trkpt>
      <trkpt lat="48.34207" lon="-4.39092">
        <ele>7.83</ele>
        <time>2019-08-23T13:03:30Z</time>
      </trkpt>
      <trkpt lat="48.34206" lon="-4.39097">
        <ele>7.83</ele>
        <time>2019-08-23T13:03:31Z</time>
      </trkpt>
      <trkpt lat="48.34204" lon="-4.39102">
        <ele>7.83</ele>
        <time>2019-08-23T13:03:32Z</time>
      </trkpt>
      <trkpt lat="48.34201" lon="-4.39107">
        <ele>8.31</ele>
        <time>2019-08-23T13:03:33Z</time>
      </trkpt>
      <trkpt lat="48.34198" lon="-4.39111">
        <ele>7.83</ele>
        <time>2019-08-23T13:03:34Z</time>
      </trkpt>
      <trkpt lat="48.34196" lon="-4.39115">
        <ele>7.83</ele>
        <time>2019-08-23T13:03:35Z</time>
      </trkpt>
      <trkpt lat="48.34194" lon="-4.3912">
        <ele>7.83</ele>
        <time>2019-08-23T13:03:36Z</time>
      </trkpt>
      <trkpt lat="48.34178" lon="-4.39169">
        <ele>7.83</ele>
        <time>2019-08-23T13:03:47Z</time>
      </trkpt>
      <trkpt lat="48.34176" lon="-4.39199">
        <ele>7.83</ele>
        <time>2019-08-23T13:03:52Z</time>
      </trkpt>
      <trkpt lat="48.34177" lon="-4.39206">
        <ele>7.83</ele>
        <time>2019-08-23T13:03:53Z</time>
      </trkpt>
      <trkpt lat="48.34177" lon="-4.39212">
        <ele>7.83</ele>
        <time>2019-08-23T13:03:54Z</time>
      </trkpt>
      <trkpt lat="48.34178" lon="-4.39218">
        <ele>7.83</ele>
        <time>2019-08-23T13:03:55Z</time>
      </trkpt>
      <trkpt lat="48.34178" lon="-4.39224">
        <ele>7.83</ele>
        <time>2019-08-23T13:03:56Z</time>
      </trkpt>
      <trkpt lat="48.34181" lon="-4.39272">
        <ele>7.83</ele>
        <time>2019-08-23T13:04:04Z</time>
      </trkpt>
      <trkpt lat="48.34181" lon="-4.39278">
        <ele>7.83</ele>
        <time>2019-08-23T13:04:05Z</time>
      </trkpt>
      <trkpt lat="48.34181" lon="-4.39338">
        <ele>8.79</ele>
        <time>2019-08-23T13:04:16Z</time>
      </trkpt>
      <trkpt lat="48.34189" lon="-4.39412">
        <ele>8.79</ele>
        <time>2019-08-23T13:04:31Z</time>
      </trkpt>
      <trkpt lat="48.34208" lon="-4.39464">
        <ele>7.83</ele>
        <time>2019-08-23T13:04:43Z</time>
      </trkpt>
      <trkpt lat="48.34211" lon="-4.39476">
        <ele>7.83</ele>
        <time>2019-08-23T13:04:46Z</time>
      </trkpt>
      <trkpt lat="48.34211" lon="-4.39481">
        <ele>7.83</ele>
        <time>2019-08-23T13:04:47Z</time>
      </trkpt>
      <trkpt lat="48.34208" lon="-4.3954">
        <ele>7.83</ele>
        <time>2019-08-23T13:04:57Z</time>
      </trkpt>
      <trkpt lat="48.34212" lon="-4.39599">
        <ele>7.83</ele>
        <time>2019-08-23T13:05:08Z</time>
      </trkpt>
      <trkpt lat="48.34223" lon="-4.3966">
        <ele>8.79</ele>
        <time>2019-08-23T13:05:21Z</time>
      </trkpt>
      <trkpt lat="48.34231" lon="-4.39704">
        <ele>10.23</ele>
        <time>2019-08-23T13:05:32Z</time>
      </trkpt>
      <trkpt lat="48.34243" lon="-4.39747">
        <ele>11.67</ele>
        <time>2019-08-23T13:05:43Z</time>
      </trkpt>
      <trkpt lat="48.34244" lon="-4.3978">
        <ele>12.63</ele>
        <time>2019-08-23T13:05:52Z</time>
      </trkpt>
      <trkpt lat="48.34236" lon="-4.39837">
        <ele>12.63</ele>
        <time>2019-08-23T13:06:03Z</time>
      </trkpt>
      <trkpt lat="48.34214" lon="-4.39897">
        <ele>11.67</ele>
        <time>2019-08-23T13:06:14Z</time>
      </trkpt>
      <trkpt lat="48.34207" lon="-4.39973">
        <ele>11.19</ele>
        <time>2019-08-23T13:06:26Z</time>
      </trkpt>
      <trkpt lat="48.34207" lon="-4.40001">
        <ele>10.71</ele>
        <time>2019-08-23T13:06:30Z</time>
      </trkpt>
      <trkpt lat="48.34207" lon="-4.40008">
        <ele>10.71</ele>
        <time>2019-08-23T13:06:31Z</time>
      </trkpt>
      <trkpt lat="48.34225" lon="-4.40081">
        <ele>8.79</ele>
        <time>2019-08-23T13:06:41Z</time>
      </trkpt>
      <trkpt lat="48.34228" lon="-4.40088">
        <ele>8.79</ele>
        <time>2019-08-23T13:06:42Z</time>
      </trkpt>
      <trkpt lat="48.34232" lon="-4.40094">
        <ele>8.31</ele>
        <time>2019-08-23T13:06:43Z</time>
      </trkpt>
      <trkpt lat="48.34236" lon="-4.40099">
        <ele>8.31</ele>
        <time>2019-08-23T13:06:44Z</time>
      </trkpt>
      <trkpt lat="48.34241" lon="-4.40101">
        <ele>8.31</ele>
        <time>2019-08-23T13:06:45Z</time>
      </trkpt>
      <trkpt lat="48.34245" lon="-4.40103">
        <ele>8.79</ele>
        <time>2019-08-23T13:06:46Z</time>
      </trkpt>
      <trkpt lat="48.34249" lon="-4.40104">
        <ele>9.27</ele>
        <time>2019-08-23T13:06:47Z</time>
      </trkpt>
      <trkpt lat="48.34276" lon="-4.40105">
        <ele>12.15</ele>
        <time>2019-08-23T13:06:57Z</time>
      </trkpt>
      <trkpt lat="48.34298" lon="-4.40078">
        <ele>14.56</ele>
        <time>2019-08-23T13:07:10Z</time>
      </trkpt>
      <trkpt lat="48.34323" lon="-4.4005">
        <ele>17.44</ele>
        <time>2019-08-23T13:07:25Z</time>
      </trkpt>
      <trkpt lat="48.3435" lon="-4.40047">
        <ele>19.36</ele>
        <time>2019-08-23T13:07:37Z</time>
      </trkpt>
      <trkpt lat="48.34352" lon="-4.40049">
        <ele>19.36</ele>
        <time>2019-08-23T13:07:38Z</time>
      </trkpt>
      <trkpt lat="48.34354" lon="-4.40051">
        <ele>19.84</ele>
        <time>2019-08-23T13:07:39Z</time>
      </trkpt>
      <trkpt lat="48.34355" lon="-4.40054">
        <ele>19.84</ele>
        <time>2019-08-23T13:07:40Z</time>
      </trkpt>
      <trkpt lat="48.34356" lon="-4.40057">
        <ele>19.84</ele>
        <time>2019-08-23T13:07:41Z</time>
      </trkpt>
      <trkpt lat="48.34357" lon="-4.40061">
        <ele>20.32</ele>
        <time>2019-08-23T13:07:42Z</time>
      </trkpt>
      <trkpt lat="48.34358" lon="-4.40066">
        <ele>19.84</ele>
        <time>2019-08-23T13:07:43Z</time>
      </trkpt>
      <trkpt lat="48.34359" lon="-4.40071">
        <ele>19.84</ele>
        <time>2019-08-23T13:07:44Z</time>
      </trkpt>
      <trkpt lat="48.34359" lon="-4.40076">
        <ele>19.84</ele>
        <time>2019-08-23T13:07:45Z</time>
      </trkpt>
      <trkpt lat="48.34359" lon="-4.40081">
        <ele>19.84</ele>
        <time>2019-08-23T13:07:46Z</time>
      </trkpt>
      <trkpt lat="48.34358" lon="-4.40086">
        <ele>19.84</ele>
        <time>2019-08-23T13:07:47Z</time>
      </trkpt>
      <trkpt lat="48.34357" lon="-4.40091">
        <ele>19.36</ele>
        <time>2019-08-23T13:07:48Z</time>
      </trkpt>
      <trkpt lat="48.34356" lon="-4.40097">
        <ele>19.36</ele>
        <time>2019-08-23T13:07:49Z</time>
      </trkpt>
      <trkpt lat="48.34351" lon="-4.40118">
        <ele>18.4</ele>
        <time>2019-08-23T13:07:52Z</time>
      </trkpt>
      <trkpt lat="48.3435" lon="-4.40126">
        <ele>17.92</ele>
        <time>2019-08-23T13:07:53Z</time>
      </trkpt>
      <trkpt lat="48.34351" lon="-4.40134">
        <ele>17.44</ele>
        <time>2019-08-23T13:07:54Z</time>
      </trkpt>
      <trkpt lat="48.34353" lon="-4.40142">
        <ele>17.44</ele>
        <time>2019-08-23T13:07:55Z</time>
      </trkpt>
      <trkpt lat="48.34354" lon="-4.40149">
        <ele>17.44</ele>
        <time>2019-08-23T13:07:56Z</time>
      </trkpt>
      <trkpt lat="48.34356" lon="-4.40156">
        <ele>17.92</ele>
        <time>2019-08-23T13:07:57Z</time>
      </trkpt>
      <trkpt lat="48.34358" lon="-4.40162">
        <ele>17.92</ele>
        <time>2019-08-23T13:07:58Z</time>
      </trkpt>
      <trkpt lat="48.34359" lon="-4.40168">
        <ele>17.92</ele>
        <time>2019-08-23T13:07:59Z</time>
      </trkpt>
      <trkpt lat="48.34378" lon="-4.40208">
        <ele>19.36</ele>
        <time>2019-08-23T13:08:09Z</time>
      </trkpt>
      <trkpt lat="48.34378" lon="-4.40209">
        <ele>19.84</ele>
        <time>2019-08-23T13:08:10Z</time>
      </trkpt>
      <trkpt lat="48.3438" lon="-4.4021">
        <ele>20.32</ele>
        <time>2019-08-23T13:08:11Z</time>
      </trkpt>
      <trkpt lat="48.34381" lon="-4.40211">
        <ele>20.32</ele>
        <time>2019-08-23T13:08:12Z</time>
      </trkpt>
      <trkpt lat="48.34382" lon="-4.40212">
        <ele>21.29</ele>
        <time>2019-08-23T13:08:13Z</time>
      </trkpt>
      <trkpt lat="48.34384" lon="-4.40213">
        <ele>21.29</ele>
        <time>2019-08-23T13:08:14Z</time>
      </trkpt>
      <trkpt lat="48.34385" lon="-4.40215">
        <ele>21.77</ele>
        <time>2019-08-23T13:08:15Z</time>
      </trkpt>
      <trkpt lat="48.34399" lon="-4.40226">
        <ele>23.69</ele>
        <time>2019-08-23T13:08:24Z</time>
      </trkpt>
      <trkpt lat="48.34404" lon="-4.40229">
        <ele>24.17</ele>
        <time>2019-08-23T13:08:27Z</time>
      </trkpt>
      <trkpt lat="48.34406" lon="-4.40231">
        <ele>24.65</ele>
        <time>2019-08-23T13:08:28Z</time>
      </trkpt>
      <trkpt lat="48.34408" lon="-4.40232">
        <ele>24.65</ele>
        <time>2019-08-23T13:08:29Z</time>
      </trkpt>
      <trkpt lat="48.34409" lon="-4.40234">
        <ele>24.65</ele>
        <time>2019-08-23T13:08:30Z</time>
      </trkpt>
      <trkpt lat="48.3441" lon="-4.40236">
        <ele>25.13</ele>
        <time>2019-08-23T13:08:31Z</time>
      </trkpt>
      <trkpt lat="48.34412" lon="-4.40238">
        <ele>25.13</ele>
        <time>2019-08-23T13:08:32Z</time>
      </trkpt>
      <trkpt lat="48.34413" lon="-4.40239">
        <ele>25.61</ele>
        <time>2019-08-23T13:08:33Z</time>
      </trkpt>
      <trkpt lat="48.34415" lon="-4.4024">
        <ele>25.61</ele>
        <time>2019-08-23T13:08:34Z</time>
      </trkpt>
      <trkpt lat="48.34416" lon="-4.40241">
        <ele>25.61</ele>
        <time>2019-08-23T13:08:35Z</time>
      </trkpt>
      <trkpt lat="48.34421" lon="-4.40247">
        <ele>26.09</ele>
        <time>2019-08-23T13:08:38Z</time>
      </trkpt>
      <trkpt lat="48.34422" lon="-4.4025">
        <ele>26.57</ele>
        <time>2019-08-23T13:08:39Z</time>
      </trkpt>
      <trkpt lat="48.34423" lon="-4.40253">
        <ele>26.57</ele>
        <time>2019-08-23T13:08:40Z</time>
      </trkpt>
      <trkpt lat="48.34423" lon="-4.40255">
        <ele>27.05</ele>
        <time>2019-08-23T13:08:41Z</time>
      </trkpt>
      <trkpt lat="48.34423" lon="-4.40257">
        <ele>27.05</ele>
        <time>2019-08-23T13:08:42Z</time>
      </trkpt>
      <trkpt lat="48.34424" lon="-4.4026">
        <ele>27.53</ele>
        <time>2019-08-23T13:08:43Z</time>
      </trkpt>
      <trkpt lat="48.34425" lon="-4.40262">
        <ele>27.53</ele>
        <time>2019-08-23T13:08:44Z</time>
      </trkpt>
      <trkpt lat="48.34425" lon="-4.40265">
        <ele>27.53</ele>
        <time>2019-08-23T13:08:45Z</time>
      </trkpt>
      <trkpt lat="48.34426" lon="-4.40267">
        <ele>28.02</ele>
        <time>2019-08-23T13:08:46Z</time>
      </trkpt>
      <trkpt lat="48.34427" lon="-4.4027">
        <ele>28.02</ele>
        <time>2019-08-23T13:08:47Z</time>
      </trkpt>
      <trkpt lat="48.34428" lon="-4.40272">
        <ele>28.02</ele>
        <time>2019-08-23T13:08:48Z</time>
      </trkpt>
      <trkpt lat="48.34429" lon="-4.40275">
        <ele>28.5</ele>
        <time>2019-08-23T13:08:49Z</time>
      </trkpt>
      <trkpt lat="48.3443" lon="-4.40277">
        <ele>28.5</ele>
        <time>2019-08-23T13:08:50Z</time>
      </trkpt>
      <trkpt lat="48.34431" lon="-4.40293">
        <ele>29.94</ele>
        <time>2019-08-23T13:08:56Z</time>
      </trkpt>
      <trkpt lat="48.34432" lon="-4.40295">
        <ele>29.94</ele>
        <time>2019-08-23T13:08:57Z</time>
      </trkpt>
      <trkpt lat="48.34433" lon="-4.40297">
        <ele>29.94</ele>
        <time>2019-08-23T13:08:58Z</time>
      </trkpt>
      <trkpt lat="48.34434" lon="-4.403">
        <ele>29.94</ele>
        <time>2019-08-23T13:08:59Z</time>
      </trkpt>
      <trkpt lat="48.34434" lon="-4.40303">
        <ele>29.94</ele>
        <time>2019-08-23T13:09:00Z</time>
      </trkpt>
      <trkpt lat="48.34426" lon="-4.4033">
        <ele>31.86</ele>
        <time>2019-08-23T13:09:11Z</time>
      </trkpt>
      <trkpt lat="48.34424" lon="-4.40334">
        <ele>32.34</ele>
        <time>2019-08-23T13:09:13Z</time>
      </trkpt>
      <trkpt lat="48.34424" lon="-4.40337">
        <ele>32.34</ele>
        <time>2019-08-23T13:09:14Z</time>
      </trkpt>
      <trkpt lat="48.34424" lon="-4.40339">
        <ele>32.82</ele>
        <time>2019-08-23T13:09:15Z</time>
      </trkpt>
      <trkpt lat="48.34423" lon="-4.40341">
        <ele>32.82</ele>
        <time>2019-08-23T13:09:16Z</time>
      </trkpt>
      <trkpt lat="48.34424" lon="-4.40344">
        <ele>32.82</ele>
        <time>2019-08-23T13:09:17Z</time>
      </trkpt>
      <trkpt lat="48.34424" lon="-4.40346">
        <ele>33.3</ele>
        <time>2019-08-23T13:09:18Z</time>
      </trkpt>
      <trkpt lat="48.34425" lon="-4.40349">
        <ele>33.3</ele>
        <time>2019-08-23T13:09:19Z</time>
      </trkpt>
      <trkpt lat="48.34439" lon="-4.40389">
        <ele>34.26</ele>
        <time>2019-08-23T13:09:33Z</time>
      </trkpt>
      <trkpt lat="48.34446" lon="-4.40418">
        <ele>35.23</ele>
        <time>2019-08-23T13:09:43Z</time>
      </trkpt>
      <trkpt lat="48.34447" lon="-4.4042">
        <ele>35.23</ele>
        <time>2019-08-23T13:09:44Z</time>
      </trkpt>
      <trkpt lat="48.34448" lon="-4.40422">
        <ele>35.71</ele>
        <time>2019-08-23T13:09:45Z</time>
      </trkpt>
      <trkpt lat="48.34449" lon="-4.40423">
        <ele>35.71</ele>
        <time>2019-08-23T13:09:46Z</time>
      </trkpt>
      <trkpt lat="48.3445" lon="-4.40424">
        <ele>35.71</ele>
        <time>2019-08-23T13:09:47Z</time>
      </trkpt>
      <trkpt lat="48.34452" lon="-4.40423">
        <ele>35.23</ele>
        <time>2019-08-23T13:09:48Z</time>
      </trkpt>
      <trkpt lat="48.34453" lon="-4.40424">
        <ele>35.71</ele>
        <time>2019-08-23T13:09:49Z</time>
      </trkpt>
      <trkpt lat="48.34455" lon="-4.40425">
        <ele>35.23</ele>
        <time>2019-08-23T13:09:50Z</time>
      </trkpt>
      <trkpt lat="48.34457" lon="-4.40426">
        <ele>35.71</ele>
        <time>2019-08-23T13:09:51Z</time>
      </trkpt>
      <trkpt lat="48.34459" lon="-4.40427">
        <ele>35.71</ele>
        <time>2019-08-23T13:09:52Z</time>
      </trkpt>
      <trkpt lat="48.34461" lon="-4.40428">
        <ele>35.71</ele>
        <time>2019-08-23T13:09:53Z</time>
      </trkpt>
      <trkpt lat="48.34474" lon="-4.40429">
        <ele>37.15</ele>
        <time>2019-08-23T13:10:01Z</time>
      </trkpt>
      <trkpt lat="48.34475" lon="-4.40426">
        <ele>37.15</ele>
        <time>2019-08-23T13:10:02Z</time>
      </trkpt>
      <trkpt lat="48.34476" lon="-4.40424">
        <ele>37.15</ele>
        <time>2019-08-23T13:10:03Z</time>
      </trkpt>
      <trkpt lat="48.34477" lon="-4.40423">
        <ele>37.15</ele>
        <time>2019-08-23T13:10:04Z</time>
      </trkpt>
      <trkpt lat="48.34478" lon="-4.40421">
        <ele>37.15</ele>
        <time>2019-08-23T13:10:05Z</time>
      </trkpt>
      <trkpt lat="48.34479" lon="-4.40419">
        <ele>37.15</ele>
        <time>2019-08-23T13:10:06Z</time>
      </trkpt>
      <trkpt lat="48.3448" lon="-4.40417">
        <ele>37.15</ele>
        <time>2019-08-23T13:10:07Z</time>
      </trkpt>
      <trkpt lat="48.3448" lon="-4.40415">
        <ele>37.15</ele>
        <time>2019-08-23T13:10:08Z</time>
      </trkpt>
      <trkpt lat="48.34481" lon="-4.40413">
        <ele>37.63</ele>
        <time>2019-08-23T13:10:09Z</time>
      </trkpt>
      <trkpt lat="48.34481" lon="-4.40412">
        <ele>37.63</ele>
        <time>2019-08-23T13:10:10Z</time>
      </trkpt>
      <trkpt lat="48.34482" lon="-4.4041">
        <ele>37.63</ele>
        <time>2019-08-23T13:10:11Z</time>
      </trkpt>
      <trkpt lat="48.34482" lon="-4.40408">
        <ele>38.11</ele>
        <time>2019-08-23T13:10:12Z</time>
      </trkpt>
      <trkpt lat="48.34483" lon="-4.40404">
        <ele>38.11</ele>
        <time>2019-08-23T13:10:14Z</time>
      </trkpt>
      <trkpt lat="48.34484" lon="-4.40403">
        <ele>38.11</ele>
        <time>2019-08-23T13:10:15Z</time>
      </trkpt>
      <trkpt lat="48.34485" lon="-4.40401">
        <ele>38.11</ele>
        <time>2019-08-23T13:10:16Z</time>
      </trkpt>
      <trkpt lat="48.34486" lon="-4.40399">
        <ele>39.07</ele>
        <time>2019-08-23T13:10:17Z</time>
      </trkpt>
      <trkpt lat="48.34493" lon="-4.40385">
        <ele>39.55</ele>
        <time>2019-08-23T13:10:24Z</time>
      </trkpt>
      <trkpt lat="48.34493" lon="-4.40383">
        <ele>40.03</ele>
        <time>2019-08-23T13:10:25Z</time>
      </trkpt>
      <trkpt lat="48.34494" lon="-4.40381">
        <ele>40.51</ele>
        <time>2019-08-23T13:10:26Z</time>
      </trkpt>
      <trkpt lat="48.34496" lon="-4.40379">
        <ele>40.51</ele>
        <time>2019-08-23T13:10:27Z</time>
      </trkpt>
      <trkpt lat="48.34497" lon="-4.40378">
        <ele>40.51</ele>
        <time>2019-08-23T13:10:28Z</time>
      </trkpt>
      <trkpt lat="48.34498" lon="-4.40376">
        <ele>40.51</ele>
        <time>2019-08-23T13:10:29Z</time>
      </trkpt>
      <trkpt lat="48.34502" lon="-4.40368">
        <ele>41.47</ele>
        <time>2019-08-23T13:10:33Z</time>
      </trkpt>
      <trkpt lat="48.34505" lon="-4.40363">
        <ele>41.47</ele>
        <time>2019-08-23T13:10:36Z</time>
      </trkpt>
      <trkpt lat="48.34507" lon="-4.40361">
        <ele>41.95</ele>
        <time>2019-08-23T13:10:37Z</time>
      </trkpt>
      <trkpt lat="48.34525" lon="-4.40345">
        <ele>43.88</ele>
        <time>2019-08-23T13:10:49Z</time>
      </trkpt>
      <trkpt lat="48.34531" lon="-4.40338">
        <ele>44.84</ele>
        <time>2019-08-23T13:10:54Z</time>
      </trkpt>
      <trkpt lat="48.34533" lon="-4.40336">
        <ele>44.84</ele>
        <time>2019-08-23T13:10:55Z</time>
      </trkpt>
      <trkpt lat="48.34534" lon="-4.40335">
        <ele>45.32</ele>
        <time>2019-08-23T13:10:56Z</time>
      </trkpt>
      <trkpt lat="48.34549" lon="-4.40324">
        <ele>46.28</ele>
        <time>2019-08-23T13:11:07Z</time>
      </trkpt>
      <trkpt lat="48.34555" lon="-4.4032">
        <ele>47.24</ele>
        <time>2019-08-23T13:11:11Z</time>
      </trkpt>
      <trkpt lat="48.34557" lon="-4.40319">
        <ele>47.72</ele>
        <time>2019-08-23T13:11:12Z</time>
      </trkpt>
      <trkpt lat="48.34559" lon="-4.40318">
        <ele>47.72</ele>
        <time>2019-08-23T13:11:13Z</time>
      </trkpt>
      <trkpt lat="48.34561" lon="-4.40317">
        <ele>48.2</ele>
        <time>2019-08-23T13:11:14Z</time>
      </trkpt>
      <trkpt lat="48.34563" lon="-4.40316">
        <ele>48.2</ele>
        <time>2019-08-23T13:11:15Z</time>
      </trkpt>
      <trkpt lat="48.34565" lon="-4.40315">
        <ele>48.68</ele>
        <time>2019-08-23T13:11:16Z</time>
      </trkpt>
      <trkpt lat="48.34573" lon="-4.40313">
        <ele>49.16</ele>
        <time>2019-08-23T13:11:20Z</time>
      </trkpt>
      <trkpt lat="48.34595" lon="-4.40324">
        <ele>51.09</ele>
        <time>2019-08-23T13:11:33Z</time>
      </trkpt>
      <trkpt lat="48.34603" lon="-4.40328">
        <ele>52.05</ele>
        <time>2019-08-23T13:11:38Z</time>
      </trkpt>
      <trkpt lat="48.34605" lon="-4.40328">
        <ele>52.05</ele>
        <time>2019-08-23T13:11:39Z</time>
      </trkpt>
      <trkpt lat="48.34607" lon="-4.40329">
        <ele>52.53</ele>
        <time>2019-08-23T13:11:40Z</time>
      </trkpt>
      <trkpt lat="48.34608" lon="-4.40329">
        <ele>52.53</ele>
        <time>2019-08-23T13:11:41Z</time>
      </trkpt>
      <trkpt lat="48.34617" lon="-4.40333">
        <ele>53.49</ele>
        <time>2019-08-23T13:11:47Z</time>
      </trkpt>
      <trkpt lat="48.34619" lon="-4.40333">
        <ele>53.49</ele>
        <time>2019-08-23T13:11:48Z</time>
      </trkpt>
      <trkpt lat="48.34621" lon="-4.40334">
        <ele>53.49</ele>
        <time>2019-08-23T13:11:49Z</time>
      </trkpt>
      <trkpt lat="48.34625" lon="-4.40337">
        <ele>53.97</ele>
        <time>2019-08-23T13:11:52Z</time>
      </trkpt>
      <trkpt lat="48.34631" lon="-4.40339">
        <ele>53.97</ele>
        <time>2019-08-23T13:11:55Z</time>
      </trkpt>
      <trkpt lat="48.34633" lon="-4.40341">
        <ele>54.45</ele>
        <time>2019-08-23T13:11:56Z</time>
      </trkpt>
      <trkpt lat="48.34635" lon="-4.40345">
        <ele>54.93</ele>
        <time>2019-08-23T13:11:58Z</time>
      </trkpt>
      <trkpt lat="48.34635" lon="-4.40347">
        <ele>54.93</ele>
        <time>2019-08-23T13:11:59Z</time>
      </trkpt>
      <trkpt lat="48.34634" lon="-4.40349">
        <ele>54.93</ele>
        <time>2019-08-23T13:12:00Z</time>
      </trkpt>
      <trkpt lat="48.34628" lon="-4.4039">
        <ele>55.89</ele>
        <time>2019-08-23T13:12:13Z</time>
      </trkpt>
      <trkpt lat="48.34631" lon="-4.40427">
        <ele>55.89</ele>
        <time>2019-08-23T13:12:22Z</time>
      </trkpt>
      <trkpt lat="48.3463" lon="-4.40462">
        <ele>55.89</ele>
        <time>2019-08-23T13:12:30Z</time>
      </trkpt>
      <trkpt lat="48.34615" lon="-4.40537">
        <ele>55.41</ele>
        <time>2019-08-23T13:12:42Z</time>
      </trkpt>
      <trkpt lat="48.34612" lon="-4.40555">
        <ele>55.41</ele>
        <time>2019-08-23T13:12:45Z</time>
      </trkpt>
      <trkpt lat="48.3461" lon="-4.4056">
        <ele>55.41</ele>
        <time>2019-08-23T13:12:46Z</time>
      </trkpt>
      <trkpt lat="48.34596" lon="-4.40615">
        <ele>55.41</ele>
        <time>2019-08-23T13:12:56Z</time>
      </trkpt>
      <trkpt lat="48.34595" lon="-4.4069">
        <ele>57.34</ele>
        <time>2019-08-23T13:13:10Z</time>
      </trkpt>
      <trkpt lat="48.34583" lon="-4.40752">
        <ele>58.3</ele>
        <time>2019-08-23T13:13:23Z</time>
      </trkpt>
      <trkpt lat="48.34574" lon="-4.40798">
        <ele>59.26</ele>
        <time>2019-08-23T13:13:33Z</time>
      </trkpt>
      <trkpt lat="48.34564" lon="-4.40868">
        <ele>61.18</ele>
        <time>2019-08-23T13:13:48Z</time>
      </trkpt>
      <trkpt lat="48.34532" lon="-4.40896">
        <ele>61.18</ele>
        <time>2019-08-23T13:14:00Z</time>
      </trkpt>
      <trkpt lat="48.34505" lon="-4.40891">
        <ele>61.66</ele>
        <time>2019-08-23T13:14:08Z</time>
      </trkpt>
      <trkpt lat="48.34503" lon="-4.40894">
        <ele>61.66</ele>
        <time>2019-08-23T13:14:09Z</time>
      </trkpt>
      <trkpt lat="48.34502" lon="-4.40898">
        <ele>61.66</ele>
        <time>2019-08-23T13:14:10Z</time>
      </trkpt>
      <trkpt lat="48.34502" lon="-4.40902">
        <ele>62.14</ele>
        <time>2019-08-23T13:14:11Z</time>
      </trkpt>
      <trkpt lat="48.34501" lon="-4.40905">
        <ele>62.14</ele>
        <time>2019-08-23T13:14:12Z</time>
      </trkpt>
      <trkpt lat="48.34501" lon="-4.40909">
        <ele>62.62</ele>
        <time>2019-08-23T13:14:13Z</time>
      </trkpt>
      <trkpt lat="48.345" lon="-4.40912">
        <ele>62.62</ele>
        <time>2019-08-23T13:14:14Z</time>
      </trkpt>
      <trkpt lat="48.34499" lon="-4.40915">
        <ele>63.1</ele>
        <time>2019-08-23T13:14:15Z</time>
      </trkpt>
      <trkpt lat="48.34497" lon="-4.40916">
        <ele>63.1</ele>
        <time>2019-08-23T13:14:16Z</time>
      </trkpt>
      <trkpt lat="48.34495" lon="-4.40918">
        <ele>63.1</ele>
        <time>2019-08-23T13:14:17Z</time>
      </trkpt>
      <trkpt lat="48.34494" lon="-4.4092">
        <ele>63.58</ele>
        <time>2019-08-23T13:14:18Z</time>
      </trkpt>
      <trkpt lat="48.34492" lon="-4.40922">
        <ele>64.07</ele>
        <time>2019-08-23T13:14:20Z</time>
      </trkpt>
      <trkpt lat="48.3449" lon="-4.40922">
        <ele>64.55</ele>
        <time>2019-08-23T13:14:21Z</time>
      </trkpt>
      <trkpt lat="48.34473" lon="-4.40929">
        <ele>66.47</ele>
        <time>2019-08-23T13:14:31Z</time>
      </trkpt>
      <trkpt lat="48.34472" lon="-4.4093">
        <ele>66.47</ele>
        <time>2019-08-23T13:14:32Z</time>
      </trkpt>
      <trkpt lat="48.3447" lon="-4.40931">
        <ele>66.47</ele>
        <time>2019-08-23T13:14:33Z</time>
      </trkpt>
      <trkpt lat="48.34453" lon="-4.40948">
        <ele>68.39</ele>
        <time>2019-08-23T13:14:45Z</time>
      </trkpt>
      <trkpt lat="48.34443" lon="-4.40959">
        <ele>68.87</ele>
        <time>2019-08-23T13:14:51Z</time>
      </trkpt>
      <trkpt lat="48.34441" lon="-4.40961">
        <ele>69.35</ele>
        <time>2019-08-23T13:14:52Z</time>
      </trkpt>
      <trkpt lat="48.34439" lon="-4.40963">
        <ele>69.35</ele>
        <time>2019-08-23T13:14:53Z</time>
      </trkpt>
      <trkpt lat="48.34438" lon="-4.40965">
        <ele>69.35</ele>
        <time>2019-08-23T13:14:54Z</time>
      </trkpt>
      <trkpt lat="48.34437" lon="-4.40967">
        <ele>69.83</ele>
        <time>2019-08-23T13:14:55Z</time>
      </trkpt>
      <trkpt lat="48.34435" lon="-4.40968">
        <ele>69.83</ele>
        <time>2019-08-23T13:14:56Z</time>
      </trkpt>
      <trkpt lat="48.34433" lon="-4.4097">
        <ele>70.79</ele>
        <time>2019-08-23T13:14:57Z</time>
      </trkpt>
      <trkpt lat="48.34431" lon="-4.40973">
        <ele>69.83</ele>
        <time>2019-08-23T13:14:58Z</time>
      </trkpt>
      <trkpt lat="48.34429" lon="-4.40976">
        <ele>69.83</ele>
        <time>2019-08-23T13:14:59Z</time>
      </trkpt>
      <trkpt lat="48.34427" lon="-4.40979">
        <ele>69.83</ele>
        <time>2019-08-23T13:15:00Z</time>
      </trkpt>
      <trkpt lat="48.34425" lon="-4.40982">
        <ele>69.83</ele>
        <time>2019-08-23T13:15:01Z</time>
      </trkpt>
      <trkpt lat="48.34413" lon="-4.41022">
        <ele>70.79</ele>
        <time>2019-08-23T13:15:13Z</time>
      </trkpt>
      <trkpt lat="48.34408" lon="-4.41057">
        <ele>72.24</ele>
        <time>2019-08-23T13:15:24Z</time>
      </trkpt>
      <trkpt lat="48.34407" lon="-4.4106">
        <ele>72.72</ele>
        <time>2019-08-23T13:15:25Z</time>
      </trkpt>
      <trkpt lat="48.34407" lon="-4.41064">
        <ele>72.72</ele>
        <time>2019-08-23T13:15:26Z</time>
      </trkpt>
      <trkpt lat="48.34406" lon="-4.41067">
        <ele>72.72</ele>
        <time>2019-08-23T13:15:27Z</time>
      </trkpt>
      <trkpt lat="48.34404" lon="-4.4107">
        <ele>72.72</ele>
        <time>2019-08-23T13:15:28Z</time>
      </trkpt>
      <trkpt lat="48.34403" lon="-4.41073">
        <ele>73.2</ele>
        <time>2019-08-23T13:15:29Z</time>
      </trkpt>
      <trkpt lat="48.34401" lon="-4.41077">
        <ele>73.2</ele>
        <time>2019-08-23T13:15:30Z</time>
      </trkpt>
      <trkpt lat="48.34398" lon="-4.41079">
        <ele>73.2</ele>
        <time>2019-08-23T13:15:31Z</time>
      </trkpt>
      <trkpt lat="48.34395" lon="-4.41082">
        <ele>73.2</ele>
        <time>2019-08-23T13:15:32Z</time>
      </trkpt>
      <trkpt lat="48.34365" lon="-4.41106">
        <ele>71.76</ele>
        <time>2019-08-23T13:15:41Z</time>
      </trkpt>
      <trkpt lat="48.34362" lon="-4.4111">
        <ele>71.27</ele>
        <time>2019-08-23T13:15:42Z</time>
      </trkpt>
      <trkpt lat="48.34358" lon="-4.41114">
        <ele>71.27</ele>
        <time>2019-08-23T13:15:43Z</time>
      </trkpt>
      <trkpt lat="48.34353" lon="-4.41118">
        <ele>70.79</ele>
        <time>2019-08-23T13:15:44Z</time>
      </trkpt>
      <trkpt lat="48.3435" lon="-4.41123">
        <ele>70.31</ele>
        <time>2019-08-23T13:15:45Z</time>
      </trkpt>
      <trkpt lat="48.34347" lon="-4.41128">
        <ele>70.31</ele>
        <time>2019-08-23T13:15:46Z</time>
      </trkpt>
      <trkpt lat="48.3434" lon="-4.41135">
        <ele>69.35</ele>
        <time>2019-08-23T13:15:48Z</time>
      </trkpt>
      <trkpt lat="48.34335" lon="-4.41136">
        <ele>68.39</ele>
        <time>2019-08-23T13:15:49Z</time>
      </trkpt>
      <trkpt lat="48.34331" lon="-4.41138">
        <ele>67.91</ele>
        <time>2019-08-23T13:15:50Z</time>
      </trkpt>
      <trkpt lat="48.34328" lon="-4.4114">
        <ele>67.43</ele>
        <time>2019-08-23T13:15:51Z</time>
      </trkpt>
      <trkpt lat="48.34323" lon="-4.41142">
        <ele>66.95</ele>
        <time>2019-08-23T13:15:52Z</time>
      </trkpt>
      <trkpt lat="48.34318" lon="-4.41147">
        <ele>66.47</ele>
        <time>2019-08-23T13:15:53Z</time>
      </trkpt>
      <trkpt lat="48.34313" lon="-4.41152">
        <ele>65.99</ele>
        <time>2019-08-23T13:15:54Z</time>
      </trkpt>
      <trkpt lat="48.34309" lon="-4.41156">
        <ele>65.51</ele>
        <time>2019-08-23T13:15:55Z</time>
      </trkpt>
      <trkpt lat="48.34288" lon="-4.41182">
        <ele>64.07</ele>
        <time>2019-08-23T13:16:03Z</time>
      </trkpt>
      <trkpt lat="48.34269" lon="-4.41203">
        <ele>63.1</ele>
        <time>2019-08-23T13:16:11Z</time>
      </trkpt>
      <trkpt lat="48.34266" lon="-4.41208">
        <ele>62.62</ele>
        <time>2019-08-23T13:16:12Z</time>
      </trkpt>
      <trkpt lat="48.34262" lon="-4.41214">
        <ele>62.14</ele>
        <time>2019-08-23T13:16:13Z</time>
      </trkpt>
      <trkpt lat="48.34258" lon="-4.41219">
        <ele>61.66</ele>
        <time>2019-08-23T13:16:14Z</time>
      </trkpt>
      <trkpt lat="48.34252" lon="-4.41223">
        <ele>60.7</ele>
        <time>2019-08-23T13:16:15Z</time>
      </trkpt>
      <trkpt lat="48.34247" lon="-4.41227">
        <ele>60.22</ele>
        <time>2019-08-23T13:16:16Z</time>
      </trkpt>
      <trkpt lat="48.34242" lon="-4.41229">
        <ele>59.74</ele>
        <time>2019-08-23T13:16:17Z</time>
      </trkpt>
      <trkpt lat="48.34236" lon="-4.4123">
        <ele>59.26</ele>
        <time>2019-08-23T13:16:18Z</time>
      </trkpt>
      <trkpt lat="48.34231" lon="-4.4123">
        <ele>58.78</ele>
        <time>2019-08-23T13:16:19Z</time>
      </trkpt>
      <trkpt lat="48.34226" lon="-4.41229">
        <ele>58.3</ele>
        <time>2019-08-23T13:16:20Z</time>
      </trkpt>
      <trkpt lat="48.34222" lon="-4.41229">
        <ele>57.82</ele>
        <time>2019-08-23T13:16:21Z</time>
      </trkpt>
      <trkpt lat="48.34218" lon="-4.41228">
        <ele>57.34</ele>
        <time>2019-08-23T13:16:22Z</time>
      </trkpt>
      <trkpt lat="48.34214" lon="-4.41226">
        <ele>56.86</ele>
        <time>2019-08-23T13:16:23Z</time>
      </trkpt>
      <trkpt lat="48.34199" lon="-4.41217">
        <ele>55.41</ele>
        <time>2019-08-23T13:16:26Z</time>
      </trkpt>
      <trkpt lat="48.34194" lon="-4.41213">
        <ele>54.93</ele>
        <time>2019-08-23T13:16:27Z</time>
      </trkpt>
      <trkpt lat="48.34189" lon="-4.41208">
        <ele>54.93</ele>
        <time>2019-08-23T13:16:28Z</time>
      </trkpt>
      <trkpt lat="48.34158" lon="-4.41167">
        <ele>51.57</ele>
        <time>2019-08-23T13:16:35Z</time>
      </trkpt>
      <trkpt lat="48.34129" lon="-4.41137">
        <ele>49.16</ele>
        <time>2019-08-23T13:16:40Z</time>
      </trkpt>
      <trkpt lat="48.34125" lon="-4.41135">
        <ele>48.68</ele>
        <time>2019-08-23T13:16:41Z</time>
      </trkpt>
      <trkpt lat="48.3412" lon="-4.41135">
        <ele>48.68</ele>
        <time>2019-08-23T13:16:42Z</time>
      </trkpt>
      <trkpt lat="48.34116" lon="-4.41137">
        <ele>48.68</ele>
        <time>2019-08-23T13:16:43Z</time>
      </trkpt>
      <trkpt lat="48.34113" lon="-4.41139">
        <ele>48.68</ele>
        <time>2019-08-23T13:16:44Z</time>
      </trkpt>
      <trkpt lat="48.34109" lon="-4.41142">
        <ele>48.2</ele>
        <time>2019-08-23T13:16:45Z</time>
      </trkpt>
      <trkpt lat="48.34105" lon="-4.41141">
        <ele>48.2</ele>
        <time>2019-08-23T13:16:46Z</time>
      </trkpt>
      <trkpt lat="48.34101" lon="-4.41138">
        <ele>47.72</ele>
        <time>2019-08-23T13:16:47Z</time>
      </trkpt>
      <trkpt lat="48.34098" lon="-4.41133">
        <ele>46.76</ele>
        <time>2019-08-23T13:16:48Z</time>
      </trkpt>
      <trkpt lat="48.34094" lon="-4.41127">
        <ele>46.28</ele>
        <time>2019-08-23T13:16:49Z</time>
      </trkpt>
      <trkpt lat="48.3409" lon="-4.41122">
        <ele>45.8</ele>
        <time>2019-08-23T13:16:50Z</time>
      </trkpt>
      <trkpt lat="48.34086" lon="-4.41119">
        <ele>45.32</ele>
        <time>2019-08-23T13:16:51Z</time>
      </trkpt>
      <trkpt lat="48.34083" lon="-4.41119">
        <ele>44.84</ele>
        <time>2019-08-23T13:16:52Z</time>
      </trkpt>
      <trkpt lat="48.34079" lon="-4.41124">
        <ele>44.36</ele>
        <time>2019-08-23T13:16:53Z</time>
      </trkpt>
      <trkpt lat="48.34076" lon="-4.4113">
        <ele>43.88</ele>
        <time>2019-08-23T13:16:54Z</time>
      </trkpt>
      <trkpt lat="48.34073" lon="-4.41134">
        <ele>43.4</ele>
        <time>2019-08-23T13:16:55Z</time>
      </trkpt>
      <trkpt lat="48.3407" lon="-4.41138">
        <ele>42.44</ele>
        <time>2019-08-23T13:17:01Z</time>
      </trkpt>
      <trkpt lat="48.34069" lon="-4.41138">
        <ele>42.44</ele>
        <time>2019-08-23T13:17:02Z</time>
      </trkpt>
      <trkpt lat="48.34066" lon="-4.41138">
        <ele>41.95</ele>
        <time>2019-08-23T13:17:03Z</time>
      </trkpt>
      <trkpt lat="48.34063" lon="-4.41136">
        <ele>41.47</ele>
        <time>2019-08-23T13:17:04Z</time>
      </trkpt>
      <trkpt lat="48.34061" lon="-4.41135">
        <ele>40.99</ele>
        <time>2019-08-23T13:17:05Z</time>
      </trkpt>
      <trkpt lat="48.34058" lon="-4.41135">
        <ele>40.51</ele>
        <time>2019-08-23T13:17:06Z</time>
      </trkpt>
      <trkpt lat="48.34047" lon="-4.41126">
        <ele>37.63</ele>
        <time>2019-08-23T13:17:11Z</time>
      </trkpt>
      <trkpt lat="48.34044" lon="-4.41125">
        <ele>36.67</ele>
        <time>2019-08-23T13:17:12Z</time>
      </trkpt>
      <trkpt lat="48.34041" lon="-4.41122">
        <ele>36.19</ele>
        <time>2019-08-23T13:17:13Z</time>
      </trkpt>
      <trkpt lat="48.34039" lon="-4.41119">
        <ele>35.71</ele>
        <time>2019-08-23T13:17:14Z</time>
      </trkpt>
      <trkpt lat="48.34037" lon="-4.41116">
        <ele>35.23</ele>
        <time>2019-08-23T13:17:15Z</time>
      </trkpt>
      <trkpt lat="48.34036" lon="-4.41115">
        <ele>35.23</ele>
        <time>2019-08-23T13:17:16Z</time>
      </trkpt>
      <trkpt lat="48.34034" lon="-4.41114">
        <ele>34.74</ele>
        <time>2019-08-23T13:17:17Z</time>
      </trkpt>
      <trkpt lat="48.3403" lon="-4.41115">
        <ele>33.78</ele>
        <time>2019-08-23T13:17:18Z</time>
      </trkpt>
      <trkpt lat="48.34028" lon="-4.41118">
        <ele>33.78</ele>
        <time>2019-08-23T13:17:19Z</time>
      </trkpt>
      <trkpt lat="48.34025" lon="-4.41123">
        <ele>33.78</ele>
        <time>2019-08-23T13:17:20Z</time>
      </trkpt>
      <trkpt lat="48.34022" lon="-4.41129">
        <ele>33.3</ele>
        <time>2019-08-23T13:17:21Z</time>
      </trkpt>
      <trkpt lat="48.34012" lon="-4.41153">
        <ele>32.82</ele>
        <time>2019-08-23T13:17:25Z</time>
      </trkpt>
      <trkpt lat="48.3401" lon="-4.4116">
        <ele>32.34</ele>
        <time>2019-08-23T13:17:26Z</time>
      </trkpt>
      <trkpt lat="48.33997" lon="-4.41198">
        <ele>32.34</ele>
        <time>2019-08-23T13:17:32Z</time>
      </trkpt>
      <trkpt lat="48.33993" lon="-4.41209">
        <ele>32.34</ele>
        <time>2019-08-23T13:17:34Z</time>
      </trkpt>
      <trkpt lat="48.33991" lon="-4.41214">
        <ele>32.34</ele>
        <time>2019-08-23T13:17:35Z</time>
      </trkpt>
      <trkpt lat="48.33973" lon="-4.41263">
        <ele>32.34</ele>
        <time>2019-08-23T13:17:46Z</time>
      </trkpt>
      <trkpt lat="48.33955" lon="-4.41327">
        <ele>33.78</ele>
        <time>2019-08-23T13:17:59Z</time>
      </trkpt>
      <trkpt lat="48.33949" lon="-4.41355">
        <ele>33.78</ele>
        <time>2019-08-23T13:18:04Z</time>
      </trkpt>
      <trkpt lat="48.33942" lon="-4.41384">
        <ele>33.78</ele>
        <time>2019-08-23T13:18:09Z</time>
      </trkpt>
      <trkpt lat="48.33939" lon="-4.41416">
        <ele>34.26</ele>
        <time>2019-08-23T13:18:14Z</time>
      </trkpt>
      <trkpt lat="48.33938" lon="-4.41484">
        <ele>34.26</ele>
        <time>2019-08-23T13:18:26Z</time>
      </trkpt>
      <trkpt lat="48.3394" lon="-4.41556">
        <ele>35.23</ele>
        <time>2019-08-23T13:18:39Z</time>
      </trkpt>
      <trkpt lat="48.3394" lon="-4.41611">
        <ele>36.19</ele>
        <time>2019-08-23T13:18:51Z</time>
      </trkpt>
      <trkpt lat="48.33938" lon="-4.41624">
        <ele>35.23</ele>
        <time>2019-08-23T13:18:53Z</time>
      </trkpt>
      <trkpt lat="48.33937" lon="-4.4163">
        <ele>35.71</ele>
        <time>2019-08-23T13:18:54Z</time>
      </trkpt>
      <trkpt lat="48.33923" lon="-4.4167">
        <ele>38.59</ele>
        <time>2019-08-23T13:19:04Z</time>
      </trkpt>
      <trkpt lat="48.33894" lon="-4.41714">
        <ele>40.99</ele>
        <time>2019-08-23T13:19:19Z</time>
      </trkpt>
      <trkpt lat="48.33892" lon="-4.41715">
        <ele>40.99</ele>
        <time>2019-08-23T13:19:21Z</time>
      </trkpt>
      <trkpt lat="48.3389" lon="-4.41719">
        <ele>41.47</ele>
        <time>2019-08-23T13:19:25Z</time>
      </trkpt>
      <trkpt lat="48.33889" lon="-4.41721">
        <ele>40.99</ele>
        <time>2019-08-23T13:19:26Z</time>
      </trkpt>
      <trkpt lat="48.33888" lon="-4.41724">
        <ele>41.47</ele>
        <time>2019-08-23T13:19:27Z</time>
      </trkpt>
      <trkpt lat="48.33869" lon="-4.41754">
        <ele>42.44</ele>
        <time>2019-08-23T13:19:38Z</time>
      </trkpt>
      <trkpt lat="48.33853" lon="-4.41793">
        <ele>44.84</ele>
        <time>2019-08-23T13:19:50Z</time>
      </trkpt>
      <trkpt lat="48.33852" lon="-4.41796">
        <ele>44.84</ele>
        <time>2019-08-23T13:19:51Z</time>
      </trkpt>
      <trkpt lat="48.33839" lon="-4.41835">
        <ele>46.76</ele>
        <time>2019-08-23T13:20:03Z</time>
      </trkpt>
      <trkpt lat="48.33833" lon="-4.41873">
        <ele>49.16</ele>
        <time>2019-08-23T13:20:15Z</time>
      </trkpt>
      <trkpt lat="48.33823" lon="-4.41904">
        <ele>50.61</ele>
        <time>2019-08-23T13:20:24Z</time>
      </trkpt>
      <trkpt lat="48.33822" lon="-4.41907">
        <ele>51.09</ele>
        <time>2019-08-23T13:20:25Z</time>
      </trkpt>
      <trkpt lat="48.33802" lon="-4.41941">
        <ele>52.05</ele>
        <time>2019-08-23T13:20:37Z</time>
      </trkpt>
      <trkpt lat="48.33791" lon="-4.41962">
        <ele>53.01</ele>
        <time>2019-08-23T13:20:44Z</time>
      </trkpt>
      <trkpt lat="48.33789" lon="-4.41965">
        <ele>53.49</ele>
        <time>2019-08-23T13:20:45Z</time>
      </trkpt>
      <trkpt lat="48.33788" lon="-4.41968">
        <ele>53.49</ele>
        <time>2019-08-23T13:20:46Z</time>
      </trkpt>
      <trkpt lat="48.33786" lon="-4.41971">
        <ele>53.49</ele>
        <time>2019-08-23T13:20:47Z</time>
      </trkpt>
      <trkpt lat="48.33785" lon="-4.41975">
        <ele>53.49</ele>
        <time>2019-08-23T13:20:48Z</time>
      </trkpt>
      <trkpt lat="48.33783" lon="-4.41978">
        <ele>53.49</ele>
        <time>2019-08-23T13:20:49Z</time>
      </trkpt>
      <trkpt lat="48.33761" lon="-4.42029">
        <ele>54.93</ele>
        <time>2019-08-23T13:21:04Z</time>
      </trkpt>
      <trkpt lat="48.33747" lon="-4.42063">
        <ele>55.41</ele>
        <time>2019-08-23T13:21:14Z</time>
      </trkpt>
      <trkpt lat="48.3373" lon="-4.42102">
        <ele>57.34</ele>
        <time>2019-08-23T13:21:26Z</time>
      </trkpt>
      <trkpt lat="48.33715" lon="-4.42138">
        <ele>59.26</ele>
        <time>2019-08-23T13:21:38Z</time>
      </trkpt>
      <trkpt lat="48.337" lon="-4.4218">
        <ele>61.18</ele>
        <time>2019-08-23T13:21:51Z</time>
      </trkpt>
      <trkpt lat="48.33694" lon="-4.42193">
        <ele>61.66</ele>
        <time>2019-08-23T13:21:55Z</time>
      </trkpt>
      <trkpt lat="48.33693" lon="-4.42196">
        <ele>61.66</ele>
        <time>2019-08-23T13:21:56Z</time>
      </trkpt>
      <trkpt lat="48.33692" lon="-4.42198">
        <ele>61.66</ele>
        <time>2019-08-23T13:21:57Z</time>
      </trkpt>
      <trkpt lat="48.3369" lon="-4.42201">
        <ele>61.66</ele>
        <time>2019-08-23T13:21:58Z</time>
      </trkpt>
      <trkpt lat="48.33688" lon="-4.42205">
        <ele>61.66</ele>
        <time>2019-08-23T13:21:59Z</time>
      </trkpt>
      <trkpt lat="48.33686" lon="-4.42209">
        <ele>62.14</ele>
        <time>2019-08-23T13:22:00Z</time>
      </trkpt>
      <trkpt lat="48.33684" lon="-4.42212">
        <ele>62.14</ele>
        <time>2019-08-23T13:22:01Z</time>
      </trkpt>
      <trkpt lat="48.33683" lon="-4.42215">
        <ele>62.14</ele>
        <time>2019-08-23T13:22:02Z</time>
      </trkpt>
      <trkpt lat="48.33671" lon="-4.42253">
        <ele>63.58</ele>
        <time>2019-08-23T13:22:13Z</time>
      </trkpt>
      <trkpt lat="48.33665" lon="-4.42293">
        <ele>65.51</ele>
        <time>2019-08-23T13:22:25Z</time>
      </trkpt>
      <trkpt lat="48.33653" lon="-4.42323">
        <ele>67.91</ele>
        <time>2019-08-23T13:22:35Z</time>
      </trkpt>
      <trkpt lat="48.33637" lon="-4.42356">
        <ele>69.35</ele>
        <time>2019-08-23T13:22:47Z</time>
      </trkpt>
      <trkpt lat="48.33618" lon="-4.42401">
        <ele>70.79</ele>
        <time>2019-08-23T13:23:02Z</time>
      </trkpt>
      <trkpt lat="48.33602" lon="-4.42443">
        <ele>71.27</ele>
        <time>2019-08-23T13:23:15Z</time>
      </trkpt>
      <trkpt lat="48.33601" lon="-4.42446">
        <ele>71.27</ele>
        <time>2019-08-23T13:23:16Z</time>
      </trkpt>
      <trkpt lat="48.336" lon="-4.4245">
        <ele>71.27</ele>
        <time>2019-08-23T13:23:17Z</time>
      </trkpt>
      <trkpt lat="48.33598" lon="-4.42452">
        <ele>71.27</ele>
        <time>2019-08-23T13:23:18Z</time>
      </trkpt>
      <trkpt lat="48.33581" lon="-4.42491">
        <ele>71.27</ele>
        <time>2019-08-23T13:23:30Z</time>
      </trkpt>
      <trkpt lat="48.3357" lon="-4.42519">
        <ele>71.76</ele>
        <time>2019-08-23T13:23:42Z</time>
      </trkpt>
      <trkpt lat="48.3357" lon="-4.42518">
        <ele>71.76</ele>
        <time>2019-08-23T13:24:01Z</time>
      </trkpt>
      <trkpt lat="48.3357" lon="-4.42518">
        <ele>71.76</ele>
        <time>2019-08-23T13:24:15Z</time>
      </trkpt>
      <trkpt lat="48.33569" lon="-4.42523">
        <ele>71.76</ele>
        <time>2019-08-23T13:24:23Z</time>
      </trkpt>
      <trkpt lat="48.33568" lon="-4.42526">
        <ele>71.76</ele>
        <time>2019-08-23T13:24:25Z</time>
      </trkpt>
      <trkpt lat="48.33568" lon="-4.42527">
        <ele>71.76</ele>
        <time>2019-08-23T13:24:26Z</time>
      </trkpt>
      <trkpt lat="48.33567" lon="-4.42529">
        <ele>71.76</ele>
        <time>2019-08-23T13:24:27Z</time>
      </trkpt>
      <trkpt lat="48.33566" lon="-4.4253">
        <ele>71.76</ele>
        <time>2019-08-23T13:24:28Z</time>
      </trkpt>
      <trkpt lat="48.33566" lon="-4.42532">
        <ele>71.76</ele>
        <time>2019-08-23T13:24:29Z</time>
      </trkpt>
      <trkpt lat="48.33565" lon="-4.42534">
        <ele>71.76</ele>
        <time>2019-08-23T13:24:30Z</time>
      </trkpt>
      <trkpt lat="48.33557" lon="-4.4257">
        <ele>71.76</ele>
        <time>2019-08-23T13:24:44Z</time>
      </trkpt>
      <trkpt lat="48.33553" lon="-4.42635">
        <ele>73.68</ele>
        <time>2019-08-23T13:24:59Z</time>
      </trkpt>
      <trkpt lat="48.33571" lon="-4.4267">
        <ele>74.16</ele>
        <time>2019-08-23T13:25:10Z</time>
      </trkpt>
      <trkpt lat="48.33595" lon="-4.42705">
        <ele>76.08</ele>
        <time>2019-08-23T13:25:23Z</time>
      </trkpt>
      <trkpt lat="48.33608" lon="-4.42756">
        <ele>77.52</ele>
        <time>2019-08-23T13:25:37Z</time>
      </trkpt>
      <trkpt lat="48.33642" lon="-4.42777">
        <ele>79.45</ele>
        <time>2019-08-23T13:25:51Z</time>
      </trkpt>
      <trkpt lat="48.33671" lon="-4.42796">
        <ele>81.85</ele>
        <time>2019-08-23T13:26:03Z</time>
      </trkpt>
      <trkpt lat="48.33685" lon="-4.42807">
        <ele>81.85</ele>
        <time>2019-08-23T13:26:10Z</time>
      </trkpt>
      <trkpt lat="48.33686" lon="-4.42811">
        <ele>81.85</ele>
        <time>2019-08-23T13:26:11Z</time>
      </trkpt>
      <trkpt lat="48.33684" lon="-4.42813">
        <ele>81.85</ele>
        <time>2019-08-23T13:26:12Z</time>
      </trkpt>
      <trkpt lat="48.33681" lon="-4.42818">
        <ele>81.85</ele>
        <time>2019-08-23T13:26:14Z</time>
      </trkpt>
      <trkpt lat="48.33676" lon="-4.42837">
        <ele>81.85</ele>
        <time>2019-08-23T13:26:21Z</time>
      </trkpt>
      <trkpt lat="48.33677" lon="-4.4284">
        <ele>81.85</ele>
        <time>2019-08-23T13:26:22Z</time>
      </trkpt>
      <trkpt lat="48.33677" lon="-4.42843">
        <ele>81.85</ele>
        <time>2019-08-23T13:26:23Z</time>
      </trkpt>
      <trkpt lat="48.33678" lon="-4.42846">
        <ele>81.85</ele>
        <time>2019-08-23T13:26:24Z</time>
      </trkpt>
      <trkpt lat="48.33679" lon="-4.42848">
        <ele>81.85</ele>
        <time>2019-08-23T13:26:25Z</time>
      </trkpt>
      <trkpt lat="48.33681" lon="-4.42851">
        <ele>81.85</ele>
        <time>2019-08-23T13:26:26Z</time>
      </trkpt>
      <trkpt lat="48.33682" lon="-4.42853">
        <ele>81.85</ele>
        <time>2019-08-23T13:26:27Z</time>
      </trkpt>
      <trkpt lat="48.33684" lon="-4.42856">
        <ele>82.33</ele>
        <time>2019-08-23T13:26:28Z</time>
      </trkpt>
      <trkpt lat="48.33685" lon="-4.42858">
        <ele>81.85</ele>
        <time>2019-08-23T13:26:29Z</time>
      </trkpt>
      <trkpt lat="48.33687" lon="-4.4286">
        <ele>82.33</ele>
        <time>2019-08-23T13:26:30Z</time>
      </trkpt>
      <trkpt lat="48.33688" lon="-4.42863">
        <ele>82.33</ele>
        <time>2019-08-23T13:26:31Z</time>
      </trkpt>
      <trkpt lat="48.33706" lon="-4.4289">
        <ele>82.81</ele>
        <time>2019-08-23T13:26:40Z</time>
      </trkpt>
      <trkpt lat="48.33721" lon="-4.42918">
        <ele>82.81</ele>
        <time>2019-08-23T13:26:48Z</time>
      </trkpt>
      <trkpt lat="48.33722" lon="-4.42922">
        <ele>82.81</ele>
        <time>2019-08-23T13:26:49Z</time>
      </trkpt>
      <trkpt lat="48.33724" lon="-4.42926">
        <ele>82.81</ele>
        <time>2019-08-23T13:26:50Z</time>
      </trkpt>
      <trkpt lat="48.33725" lon="-4.42929">
        <ele>82.81</ele>
        <time>2019-08-23T13:26:51Z</time>
      </trkpt>
      <trkpt lat="48.33727" lon="-4.42933">
        <ele>82.81</ele>
        <time>2019-08-23T13:26:52Z</time>
      </trkpt>
      <trkpt lat="48.33729" lon="-4.42937">
        <ele>82.81</ele>
        <time>2019-08-23T13:26:53Z</time>
      </trkpt>
      <trkpt lat="48.33736" lon="-4.42949">
        <ele>82.81</ele>
        <time>2019-08-23T13:26:56Z</time>
      </trkpt>
      <trkpt lat="48.33739" lon="-4.42952">
        <ele>82.81</ele>
        <time>2019-08-23T13:26:57Z</time>
      </trkpt>
      <trkpt lat="48.33768" lon="-4.42962">
        <ele>82.81</ele>
        <time>2019-08-23T13:27:06Z</time>
      </trkpt>
      <trkpt lat="48.33799" lon="-4.42962">
        <ele>81.37</ele>
        <time>2019-08-23T13:27:15Z</time>
      </trkpt>
      <trkpt lat="48.33811" lon="-4.42963">
        <ele>80.41</ele>
        <time>2019-08-23T13:27:18Z</time>
      </trkpt>
      <trkpt lat="48.33824" lon="-4.42967">
        <ele>79.45</ele>
        <time>2019-08-23T13:27:21Z</time>
      </trkpt>
      <trkpt lat="48.33828" lon="-4.42968">
        <ele>78.48</ele>
        <time>2019-08-23T13:27:22Z</time>
      </trkpt>
      <trkpt lat="48.33854" lon="-4.42981">
        <ele>75.6</ele>
        <time>2019-08-23T13:27:29Z</time>
      </trkpt>
      <trkpt lat="48.33854" lon="-4.42984">
        <ele>75.6</ele>
        <time>2019-08-23T13:27:30Z</time>
      </trkpt>
      <trkpt lat="48.33855" lon="-4.42989">
        <ele>75.12</ele>
        <time>2019-08-23T13:27:31Z</time>
      </trkpt>
      <trkpt lat="48.33856" lon="-4.42995">
        <ele>75.12</ele>
        <time>2019-08-23T13:27:32Z</time>
      </trkpt>
      <trkpt lat="48.33856" lon="-4.43001">
        <ele>75.12</ele>
        <time>2019-08-23T13:27:33Z</time>
      </trkpt>
      <trkpt lat="48.33855" lon="-4.43006">
        <ele>75.12</ele>
        <time>2019-08-23T13:27:34Z</time>
      </trkpt>
      <trkpt lat="48.33854" lon="-4.43011">
        <ele>75.12</ele>
        <time>2019-08-23T13:27:35Z</time>
      </trkpt>
      <trkpt lat="48.33852" lon="-4.43015">
        <ele>75.12</ele>
        <time>2019-08-23T13:27:36Z</time>
      </trkpt>
      <trkpt lat="48.33851" lon="-4.4302">
        <ele>74.64</ele>
        <time>2019-08-23T13:27:37Z</time>
      </trkpt>
      <trkpt lat="48.33849" lon="-4.43025">
        <ele>75.12</ele>
        <time>2019-08-23T13:27:38Z</time>
      </trkpt>
      <trkpt lat="48.33829" lon="-4.43073">
        <ele>75.12</ele>
        <time>2019-08-23T13:27:49Z</time>
      </trkpt>
      <trkpt lat="48.33813" lon="-4.4311">
        <ele>74.64</ele>
        <time>2019-08-23T13:27:59Z</time>
      </trkpt>
      <trkpt lat="48.33799" lon="-4.43154">
        <ele>74.64</ele>
        <time>2019-08-23T13:28:09Z</time>
      </trkpt>
      <trkpt lat="48.33776" lon="-4.43202">
        <ele>74.64</ele>
        <time>2019-08-23T13:28:19Z</time>
      </trkpt>
      <trkpt lat="48.33757" lon="-4.43244">
        <ele>74.64</ele>
        <time>2019-08-23T13:28:29Z</time>
      </trkpt>
      <trkpt lat="48.33735" lon="-4.43297">
        <ele>74.64</ele>
        <time>2019-08-23T13:28:40Z</time>
      </trkpt>
      <trkpt lat="48.33728" lon="-4.43348">
        <ele>73.68</ele>
        <time>2019-08-23T13:28:49Z</time>
      </trkpt>
      <trkpt lat="48.33731" lon="-4.43374">
        <ele>72.72</ele>
        <time>2019-08-23T13:28:53Z</time>
      </trkpt>
      <trkpt lat="48.33732" lon="-4.43394">
        <ele>72.72</ele>
        <time>2019-08-23T13:28:56Z</time>
      </trkpt>
      <trkpt lat="48.33733" lon="-4.434">
        <ele>72.24</ele>
        <time>2019-08-23T13:28:57Z</time>
      </trkpt>
      <trkpt lat="48.33737" lon="-4.43424">
        <ele>72.24</ele>
        <time>2019-08-23T13:29:01Z</time>
      </trkpt>
      <trkpt lat="48.33743" lon="-4.43461">
        <ele>70.79</ele>
        <time>2019-08-23T13:29:07Z</time>
      </trkpt>
      <trkpt lat="48.33744" lon="-4.43469">
        <ele>70.79</ele>
        <time>2019-08-23T13:29:08Z</time>
      </trkpt>
      <trkpt lat="48.33745" lon="-4.43484">
        <ele>69.83</ele>
        <time>2019-08-23T13:29:10Z</time>
      </trkpt>
      <trkpt lat="48.3375" lon="-4.43522">
        <ele>68.87</ele>
        <time>2019-08-23T13:29:15Z</time>
      </trkpt>
      <trkpt lat="48.3375" lon="-4.4353">
        <ele>68.39</ele>
        <time>2019-08-23T13:29:16Z</time>
      </trkpt>
      <trkpt lat="48.33749" lon="-4.43539">
        <ele>67.91</ele>
        <time>2019-08-23T13:29:17Z</time>
      </trkpt>
      <trkpt lat="48.33747" lon="-4.43547">
        <ele>67.91</ele>
        <time>2019-08-23T13:29:18Z</time>
      </trkpt>
      <trkpt lat="48.33745" lon="-4.43554">
        <ele>67.91</ele>
        <time>2019-08-23T13:29:19Z</time>
      </trkpt>
      <trkpt lat="48.33733" lon="-4.436">
        <ele>66.95</ele>
        <time>2019-08-23T13:29:25Z</time>
      </trkpt>
      <trkpt lat="48.33731" lon="-4.43609">
        <ele>66.47</ele>
        <time>2019-08-23T13:29:26Z</time>
      </trkpt>
      <trkpt lat="48.33729" lon="-4.43618">
        <ele>65.99</ele>
        <time>2019-08-23T13:29:27Z</time>
      </trkpt>
      <trkpt lat="48.33727" lon="-4.43626">
        <ele>65.99</ele>
        <time>2019-08-23T13:29:28Z</time>
      </trkpt>
      <trkpt lat="48.33725" lon="-4.43635">
        <ele>65.51</ele>
        <time>2019-08-23T13:29:29Z</time>
      </trkpt>
      <trkpt lat="48.33722" lon="-4.43643">
        <ele>65.51</ele>
        <time>2019-08-23T13:29:30Z</time>
      </trkpt>
      <trkpt lat="48.3372" lon="-4.43649">
        <ele>65.51</ele>
        <time>2019-08-23T13:29:31Z</time>
      </trkpt>
      <trkpt lat="48.33717" lon="-4.43653">
        <ele>65.51</ele>
        <time>2019-08-23T13:29:32Z</time>
      </trkpt>
      <trkpt lat="48.33714" lon="-4.43656">
        <ele>65.51</ele>
        <time>2019-08-23T13:29:33Z</time>
      </trkpt>
      <trkpt lat="48.33711" lon="-4.43657">
        <ele>65.51</ele>
        <time>2019-08-23T13:29:34Z</time>
      </trkpt>
      <trkpt lat="48.33708" lon="-4.43657">
        <ele>65.99</ele>
        <time>2019-08-23T13:29:35Z</time>
      </trkpt>
      <trkpt lat="48.33706" lon="-4.43656">
        <ele>65.99</ele>
        <time>2019-08-23T13:29:36Z</time>
      </trkpt>
      <trkpt lat="48.33703" lon="-4.43655">
        <ele>66.47</ele>
        <time>2019-08-23T13:29:37Z</time>
      </trkpt>
      <trkpt lat="48.337" lon="-4.43654">
        <ele>66.47</ele>
        <time>2019-08-23T13:29:38Z</time>
      </trkpt>
      <trkpt lat="48.33698" lon="-4.43653">
        <ele>66.95</ele>
        <time>2019-08-23T13:29:39Z</time>
      </trkpt>
      <trkpt lat="48.33695" lon="-4.43652">
        <ele>66.95</ele>
        <time>2019-08-23T13:29:40Z</time>
      </trkpt>
      <trkpt lat="48.33671" lon="-4.43634">
        <ele>68.87</ele>
        <time>2019-08-23T13:29:51Z</time>
      </trkpt>
      <trkpt lat="48.33668" lon="-4.43635">
        <ele>68.87</ele>
        <time>2019-08-23T13:29:52Z</time>
      </trkpt>
      <trkpt lat="48.33666" lon="-4.43637">
        <ele>68.87</ele>
        <time>2019-08-23T13:29:53Z</time>
      </trkpt>
      <trkpt lat="48.33664" lon="-4.4364">
        <ele>68.87</ele>
        <time>2019-08-23T13:29:54Z</time>
      </trkpt>
      <trkpt lat="48.33663" lon="-4.43644">
        <ele>68.87</ele>
        <time>2019-08-23T13:29:55Z</time>
      </trkpt>
      <trkpt lat="48.3366" lon="-4.43648">
        <ele>68.39</ele>
        <time>2019-08-23T13:29:56Z</time>
      </trkpt>
      <trkpt lat="48.33657" lon="-4.43652">
        <ele>68.39</ele>
        <time>2019-08-23T13:29:57Z</time>
      </trkpt>
      <trkpt lat="48.33631" lon="-4.43694">
        <ele>66.95</ele>
        <time>2019-08-23T13:30:06Z</time>
      </trkpt>
      <trkpt lat="48.33622" lon="-4.43716">
        <ele>66.95</ele>
        <time>2019-08-23T13:30:10Z</time>
      </trkpt>
      <trkpt lat="48.3362" lon="-4.43722">
        <ele>66.47</ele>
        <time>2019-08-23T13:30:11Z</time>
      </trkpt>
      <trkpt lat="48.33608" lon="-4.43752">
        <ele>65.51</ele>
        <time>2019-08-23T13:30:16Z</time>
      </trkpt>
      <trkpt lat="48.33606" lon="-4.43759">
        <ele>65.51</ele>
        <time>2019-08-23T13:30:17Z</time>
      </trkpt>
      <trkpt lat="48.33587" lon="-4.43796">
        <ele>64.07</ele>
        <time>2019-08-23T13:30:23Z</time>
      </trkpt>
      <trkpt lat="48.33583" lon="-4.438">
        <ele>63.58</ele>
        <time>2019-08-23T13:30:24Z</time>
      </trkpt>
      <trkpt lat="48.33579" lon="-4.43804">
        <ele>63.58</ele>
        <time>2019-08-23T13:30:25Z</time>
      </trkpt>
      <trkpt lat="48.33576" lon="-4.43808">
        <ele>63.58</ele>
        <time>2019-08-23T13:30:26Z</time>
      </trkpt>
      <trkpt lat="48.33572" lon="-4.43812">
        <ele>63.58</ele>
        <time>2019-08-23T13:30:27Z</time>
      </trkpt>
      <trkpt lat="48.33569" lon="-4.43816">
        <ele>63.1</ele>
        <time>2019-08-23T13:30:28Z</time>
      </trkpt>
      <trkpt lat="48.33552" lon="-4.43839">
        <ele>62.62</ele>
        <time>2019-08-23T13:30:33Z</time>
      </trkpt>
      <trkpt lat="48.33533" lon="-4.43863">
        <ele>61.66</ele>
        <time>2019-08-23T13:30:38Z</time>
      </trkpt>
      <trkpt lat="48.3353" lon="-4.43868">
        <ele>61.18</ele>
        <time>2019-08-23T13:30:39Z</time>
      </trkpt>
      <trkpt lat="48.33526" lon="-4.43873">
        <ele>61.18</ele>
        <time>2019-08-23T13:30:40Z</time>
      </trkpt>
      <trkpt lat="48.33522" lon="-4.43875">
        <ele>61.18</ele>
        <time>2019-08-23T13:30:41Z</time>
      </trkpt>
      <trkpt lat="48.33519" lon="-4.43877">
        <ele>61.18</ele>
        <time>2019-08-23T13:30:42Z</time>
      </trkpt>
      <trkpt lat="48.33514" lon="-4.43878">
        <ele>61.18</ele>
        <time>2019-08-23T13:30:43Z</time>
      </trkpt>
      <trkpt lat="48.33509" lon="-4.43879">
        <ele>61.18</ele>
        <time>2019-08-23T13:30:44Z</time>
      </trkpt>
      <trkpt lat="48.33505" lon="-4.4388">
        <ele>61.18</ele>
        <time>2019-08-23T13:30:45Z</time>
      </trkpt>
      <trkpt lat="48.33497" lon="-4.43883">
        <ele>61.18</ele>
        <time>2019-08-23T13:30:47Z</time>
      </trkpt>
      <trkpt lat="48.33493" lon="-4.43885">
        <ele>61.18</ele>
        <time>2019-08-23T13:30:48Z</time>
      </trkpt>
      <trkpt lat="48.33485" lon="-4.43889">
        <ele>60.7</ele>
        <time>2019-08-23T13:30:50Z</time>
      </trkpt>
      <trkpt lat="48.33473" lon="-4.43895">
        <ele>60.22</ele>
        <time>2019-08-23T13:30:53Z</time>
      </trkpt>
      <trkpt lat="48.33469" lon="-4.43897">
        <ele>60.22</ele>
        <time>2019-08-23T13:30:54Z</time>
      </trkpt>
      <trkpt lat="48.33465" lon="-4.439">
        <ele>59.74</ele>
        <time>2019-08-23T13:30:55Z</time>
      </trkpt>
      <trkpt lat="48.33461" lon="-4.43901">
        <ele>59.74</ele>
        <time>2019-08-23T13:30:56Z</time>
      </trkpt>
      <trkpt lat="48.33458" lon="-4.43903">
        <ele>59.74</ele>
        <time>2019-08-23T13:30:57Z</time>
      </trkpt>
      <trkpt lat="48.33452" lon="-4.43909">
        <ele>60.22</ele>
        <time>2019-08-23T13:30:59Z</time>
      </trkpt>
      <trkpt lat="48.33449" lon="-4.43913">
        <ele>59.26</ele>
        <time>2019-08-23T13:31:00Z</time>
      </trkpt>
      <trkpt lat="48.33441" lon="-4.4392">
        <ele>58.78</ele>
        <time>2019-08-23T13:31:02Z</time>
      </trkpt>
      <trkpt lat="48.33422" lon="-4.43944">
        <ele>57.82</ele>
        <time>2019-08-23T13:31:07Z</time>
      </trkpt>
      <trkpt lat="48.33417" lon="-4.43949">
        <ele>57.82</ele>
        <time>2019-08-23T13:31:08Z</time>
      </trkpt>
      <trkpt lat="48.33413" lon="-4.43954">
        <ele>57.82</ele>
        <time>2019-08-23T13:31:09Z</time>
      </trkpt>
      <trkpt lat="48.33409" lon="-4.43959">
        <ele>57.34</ele>
        <time>2019-08-23T13:31:10Z</time>
      </trkpt>
      <trkpt lat="48.33405" lon="-4.43965">
        <ele>56.86</ele>
        <time>2019-08-23T13:31:11Z</time>
      </trkpt>
      <trkpt lat="48.33386" lon="-4.43989">
        <ele>55.41</ele>
        <time>2019-08-23T13:31:15Z</time>
      </trkpt>
      <trkpt lat="48.33375" lon="-4.43999">
        <ele>53.97</ele>
        <time>2019-08-23T13:31:17Z</time>
      </trkpt>
      <trkpt lat="48.3337" lon="-4.44003">
        <ele>53.49</ele>
        <time>2019-08-23T13:31:18Z</time>
      </trkpt>
      <trkpt lat="48.33365" lon="-4.44005">
        <ele>53.49</ele>
        <time>2019-08-23T13:31:19Z</time>
      </trkpt>
      <trkpt lat="48.3336" lon="-4.44008">
        <ele>53.01</ele>
        <time>2019-08-23T13:31:20Z</time>
      </trkpt>
      <trkpt lat="48.3335" lon="-4.44015">
        <ele>52.53</ele>
        <time>2019-08-23T13:31:22Z</time>
      </trkpt>
      <trkpt lat="48.33345" lon="-4.44017">
        <ele>52.05</ele>
        <time>2019-08-23T13:31:23Z</time>
      </trkpt>
      <trkpt lat="48.33339" lon="-4.44018">
        <ele>51.57</ele>
        <time>2019-08-23T13:31:24Z</time>
      </trkpt>
      <trkpt lat="48.33324" lon="-4.44018">
        <ele>51.09</ele>
        <time>2019-08-23T13:31:27Z</time>
      </trkpt>
      <trkpt lat="48.3332" lon="-4.44019">
        <ele>51.09</ele>
        <time>2019-08-23T13:31:28Z</time>
      </trkpt>
      <trkpt lat="48.33304" lon="-4.4403">
        <ele>50.13</ele>
        <time>2019-08-23T13:31:33Z</time>
      </trkpt>
      <trkpt lat="48.33303" lon="-4.44032">
        <ele>50.13</ele>
        <time>2019-08-23T13:31:34Z</time>
      </trkpt>
      <trkpt lat="48.33302" lon="-4.44034">
        <ele>49.65</ele>
        <time>2019-08-23T13:31:35Z</time>
      </trkpt>
      <trkpt lat="48.33301" lon="-4.44036">
        <ele>49.65</ele>
        <time>2019-08-23T13:31:36Z</time>
      </trkpt>
      <trkpt lat="48.33296" lon="-4.44045">
        <ele>48.68</ele>
        <time>2019-08-23T13:31:41Z</time>
      </trkpt>
      <trkpt lat="48.33294" lon="-4.44047">
        <ele>48.68</ele>
        <time>2019-08-23T13:31:42Z</time>
      </trkpt>
      <trkpt lat="48.33292" lon="-4.44051">
        <ele>48.2</ele>
        <time>2019-08-23T13:31:43Z</time>
      </trkpt>
      <trkpt lat="48.3329" lon="-4.44055">
        <ele>48.2</ele>
        <time>2019-08-23T13:31:44Z</time>
      </trkpt>
      <trkpt lat="48.33288" lon="-4.44061">
        <ele>47.24</ele>
        <time>2019-08-23T13:31:45Z</time>
      </trkpt>
      <trkpt lat="48.33285" lon="-4.44067">
        <ele>46.76</ele>
        <time>2019-08-23T13:31:46Z</time>
      </trkpt>
      <trkpt lat="48.33281" lon="-4.44075">
        <ele>46.28</ele>
        <time>2019-08-23T13:31:47Z</time>
      </trkpt>
      <trkpt lat="48.3326" lon="-4.44108">
        <ele>42.92</ele>
        <time>2019-08-23T13:31:52Z</time>
      </trkpt>
      <trkpt lat="48.33255" lon="-4.44114">
        <ele>42.44</ele>
        <time>2019-08-23T13:31:53Z</time>
      </trkpt>
      <trkpt lat="48.33235" lon="-4.44135">
        <ele>40.99</ele>
        <time>2019-08-23T13:31:58Z</time>
      </trkpt>
      <trkpt lat="48.33232" lon="-4.44141">
        <ele>40.51</ele>
        <time>2019-08-23T13:31:59Z</time>
      </trkpt>
      <trkpt lat="48.3323" lon="-4.44148">
        <ele>40.03</ele>
        <time>2019-08-23T13:32:00Z</time>
      </trkpt>
      <trkpt lat="48.33225" lon="-4.44164">
        <ele>39.07</ele>
        <time>2019-08-23T13:32:02Z</time>
      </trkpt>
      <trkpt lat="48.33223" lon="-4.44172">
        <ele>38.11</ele>
        <time>2019-08-23T13:32:03Z</time>
      </trkpt>
      <trkpt lat="48.33221" lon="-4.44186">
        <ele>37.15</ele>
        <time>2019-08-23T13:32:05Z</time>
      </trkpt>
      <trkpt lat="48.33211" lon="-4.44235">
        <ele>33.3</ele>
        <time>2019-08-23T13:32:10Z</time>
      </trkpt>
      <trkpt lat="48.33207" lon="-4.44263">
        <ele>31.38</ele>
        <time>2019-08-23T13:32:13Z</time>
      </trkpt>
      <trkpt lat="48.33205" lon="-4.44279">
        <ele>30.42</ele>
        <time>2019-08-23T13:32:15Z</time>
      </trkpt>
      <trkpt lat="48.33202" lon="-4.44287">
        <ele>29.94</ele>
        <time>2019-08-23T13:32:16Z</time>
      </trkpt>
      <trkpt lat="48.33197" lon="-4.44294">
        <ele>29.46</ele>
        <time>2019-08-23T13:32:17Z</time>
      </trkpt>
      <trkpt lat="48.33183" lon="-4.44315">
        <ele>28.02</ele>
        <time>2019-08-23T13:32:20Z</time>
      </trkpt>
      <trkpt lat="48.33179" lon="-4.44323">
        <ele>27.53</ele>
        <time>2019-08-23T13:32:21Z</time>
      </trkpt>
      <trkpt lat="48.3317" lon="-4.44337">
        <ele>26.57</ele>
        <time>2019-08-23T13:32:23Z</time>
      </trkpt>
      <trkpt lat="48.33166" lon="-4.44343">
        <ele>26.09</ele>
        <time>2019-08-23T13:32:24Z</time>
      </trkpt>
      <trkpt lat="48.33163" lon="-4.4435">
        <ele>25.61</ele>
        <time>2019-08-23T13:32:25Z</time>
      </trkpt>
      <trkpt lat="48.33161" lon="-4.44356">
        <ele>25.61</ele>
        <time>2019-08-23T13:32:26Z</time>
      </trkpt>
      <trkpt lat="48.3316" lon="-4.44361">
        <ele>25.13</ele>
        <time>2019-08-23T13:32:27Z</time>
      </trkpt>
      <trkpt lat="48.33159" lon="-4.44365">
        <ele>25.13</ele>
        <time>2019-08-23T13:32:28Z</time>
      </trkpt>
      <trkpt lat="48.33159" lon="-4.44368">
        <ele>25.13</ele>
        <time>2019-08-23T13:32:29Z</time>
      </trkpt>
      <trkpt lat="48.33157" lon="-4.4437">
        <ele>24.65</ele>
        <time>2019-08-23T13:32:31Z</time>
      </trkpt>
      <trkpt lat="48.33154" lon="-4.44371">
        <ele>24.65</ele>
        <time>2019-08-23T13:32:33Z</time>
      </trkpt>
      <trkpt lat="48.33153" lon="-4.4437">
        <ele>25.13</ele>
        <time>2019-08-23T13:32:34Z</time>
      </trkpt>
      <trkpt lat="48.33151" lon="-4.4437">
        <ele>25.13</ele>
        <time>2019-08-23T13:32:35Z</time>
      </trkpt>
      <trkpt lat="48.33149" lon="-4.4437">
        <ele>24.65</ele>
        <time>2019-08-23T13:32:36Z</time>
      </trkpt>
      <trkpt lat="48.33146" lon="-4.4437">
        <ele>25.13</ele>
        <time>2019-08-23T13:32:37Z</time>
      </trkpt>
      <trkpt lat="48.33116" lon="-4.4437">
        <ele>26.09</ele>
        <time>2019-08-23T13:32:49Z</time>
      </trkpt>
      <trkpt lat="48.33089" lon="-4.44388">
        <ele>26.57</ele>
        <time>2019-08-23T13:33:00Z</time>
      </trkpt>
      <trkpt lat="48.3307" lon="-4.44401">
        <ele>27.05</ele>
        <time>2019-08-23T13:33:08Z</time>
      </trkpt>
      <trkpt lat="48.33065" lon="-4.44398">
        <ele>27.05</ele>
        <time>2019-08-23T13:33:10Z</time>
      </trkpt>
      <trkpt lat="48.33064" lon="-4.44396">
        <ele>27.53</ele>
        <time>2019-08-23T13:33:11Z</time>
      </trkpt>
      <trkpt lat="48.33062" lon="-4.44393">
        <ele>27.53</ele>
        <time>2019-08-23T13:33:12Z</time>
      </trkpt>
      <trkpt lat="48.33059" lon="-4.44384">
        <ele>27.53</ele>
        <time>2019-08-23T13:33:15Z</time>
      </trkpt>
      <trkpt lat="48.33058" lon="-4.44382">
        <ele>28.02</ele>
        <time>2019-08-23T13:33:16Z</time>
      </trkpt>
      <trkpt lat="48.33057" lon="-4.44379">
        <ele>28.02</ele>
        <time>2019-08-23T13:33:17Z</time>
      </trkpt>
      <trkpt lat="48.33056" lon="-4.44375">
        <ele>28.02</ele>
        <time>2019-08-23T13:33:18Z</time>
      </trkpt>
      <trkpt lat="48.33055" lon="-4.44373">
        <ele>28.5</ele>
        <time>2019-08-23T13:33:19Z</time>
      </trkpt>
      <trkpt lat="48.33054" lon="-4.44371">
        <ele>28.5</ele>
        <time>2019-08-23T13:33:20Z</time>
      </trkpt>
      <trkpt lat="48.33052" lon="-4.44369">
        <ele>28.98</ele>
        <time>2019-08-23T13:33:21Z</time>
      </trkpt>
      <trkpt lat="48.3305" lon="-4.44368">
        <ele>28.98</ele>
        <time>2019-08-23T13:33:22Z</time>
      </trkpt>
      <trkpt lat="48.33048" lon="-4.44368">
        <ele>28.98</ele>
        <time>2019-08-23T13:33:23Z</time>
      </trkpt>
      <trkpt lat="48.33046" lon="-4.44369">
        <ele>29.46</ele>
        <time>2019-08-23T13:33:24Z</time>
      </trkpt>
      <trkpt lat="48.33044" lon="-4.4437">
        <ele>29.46</ele>
        <time>2019-08-23T13:33:25Z</time>
      </trkpt>
      <trkpt lat="48.33042" lon="-4.44372">
        <ele>29.46</ele>
        <time>2019-08-23T13:33:26Z</time>
      </trkpt>
      <trkpt lat="48.3304" lon="-4.44373">
        <ele>29.46</ele>
        <time>2019-08-23T13:33:27Z</time>
      </trkpt>
      <trkpt lat="48.33038" lon="-4.44374">
        <ele>29.94</ele>
        <time>2019-08-23T13:33:28Z</time>
      </trkpt>
      <trkpt lat="48.33036" lon="-4.44376">
        <ele>29.94</ele>
        <time>2019-08-23T13:33:29Z</time>
      </trkpt>
      <trkpt lat="48.33034" lon="-4.44379">
        <ele>29.94</ele>
        <time>2019-08-23T13:33:30Z</time>
      </trkpt>
      <trkpt lat="48.33032" lon="-4.44381">
        <ele>30.42</ele>
        <time>2019-08-23T13:33:31Z</time>
      </trkpt>
      <trkpt lat="48.3301" lon="-4.44415">
        <ele>30.9</ele>
        <time>2019-08-23T13:33:42Z</time>
      </trkpt>
      <trkpt lat="48.32994" lon="-4.44452">
        <ele>31.86</ele>
        <time>2019-08-23T13:33:52Z</time>
      </trkpt>
      <trkpt lat="48.32976" lon="-4.44488">
        <ele>32.82</ele>
        <time>2019-08-23T13:34:03Z</time>
      </trkpt>
      <trkpt lat="48.32972" lon="-4.44506">
        <ele>32.34</ele>
        <time>2019-08-23T13:34:07Z</time>
      </trkpt>
      <trkpt lat="48.32971" lon="-4.44514">
        <ele>31.86</ele>
        <time>2019-08-23T13:34:08Z</time>
      </trkpt>
      <trkpt lat="48.3297" lon="-4.44522">
        <ele>31.38</ele>
        <time>2019-08-23T13:34:09Z</time>
      </trkpt>
      <trkpt lat="48.32968" lon="-4.44547">
        <ele>28.98</ele>
        <time>2019-08-23T13:34:12Z</time>
      </trkpt>
      <trkpt lat="48.32968" lon="-4.44557">
        <ele>28.5</ele>
        <time>2019-08-23T13:34:13Z</time>
      </trkpt>
      <trkpt lat="48.32966" lon="-4.44577">
        <ele>28.02</ele>
        <time>2019-08-23T13:34:15Z</time>
      </trkpt>
      <trkpt lat="48.32956" lon="-4.44624">
        <ele>27.05</ele>
        <time>2019-08-23T13:34:23Z</time>
      </trkpt>
      <trkpt lat="48.32936" lon="-4.44688">
        <ele>26.57</ele>
        <time>2019-08-23T13:34:36Z</time>
      </trkpt>
      <trkpt lat="48.32932" lon="-4.44701">
        <ele>25.61</ele>
        <time>2019-08-23T13:34:38Z</time>
      </trkpt>
      <trkpt lat="48.3293" lon="-4.44707">
        <ele>25.61</ele>
        <time>2019-08-23T13:34:39Z</time>
      </trkpt>
      <trkpt lat="48.32922" lon="-4.44728">
        <ele>24.65</ele>
        <time>2019-08-23T13:34:42Z</time>
      </trkpt>
      <trkpt lat="48.3292" lon="-4.44736">
        <ele>24.17</ele>
        <time>2019-08-23T13:34:43Z</time>
      </trkpt>
      <trkpt lat="48.32918" lon="-4.44743">
        <ele>23.69</ele>
        <time>2019-08-23T13:34:44Z</time>
      </trkpt>
      <trkpt lat="48.32917" lon="-4.44752">
        <ele>23.21</ele>
        <time>2019-08-23T13:34:45Z</time>
      </trkpt>
      <trkpt lat="48.32915" lon="-4.44761">
        <ele>22.73</ele>
        <time>2019-08-23T13:34:46Z</time>
      </trkpt>
      <trkpt lat="48.32913" lon="-4.44769">
        <ele>21.77</ele>
        <time>2019-08-23T13:34:47Z</time>
      </trkpt>
      <trkpt lat="48.32911" lon="-4.44777">
        <ele>21.29</ele>
        <time>2019-08-23T13:34:48Z</time>
      </trkpt>
      <trkpt lat="48.3291" lon="-4.44784">
        <ele>20.81</ele>
        <time>2019-08-23T13:34:49Z</time>
      </trkpt>
      <trkpt lat="48.32907" lon="-4.44791">
        <ele>20.81</ele>
        <time>2019-08-23T13:34:50Z</time>
      </trkpt>
      <trkpt lat="48.32905" lon="-4.44798">
        <ele>20.81</ele>
        <time>2019-08-23T13:34:51Z</time>
      </trkpt>
      <trkpt lat="48.32898" lon="-4.44817">
        <ele>20.32</ele>
        <time>2019-08-23T13:34:54Z</time>
      </trkpt>
      <trkpt lat="48.32894" lon="-4.4482">
        <ele>20.32</ele>
        <time>2019-08-23T13:34:55Z</time>
      </trkpt>
      <trkpt lat="48.3289" lon="-4.44822">
        <ele>20.32</ele>
        <time>2019-08-23T13:34:56Z</time>
      </trkpt>
      <trkpt lat="48.32888" lon="-4.44825">
        <ele>20.32</ele>
        <time>2019-08-23T13:34:57Z</time>
      </trkpt>
      <trkpt lat="48.32887" lon="-4.44829">
        <ele>20.81</ele>
        <time>2019-08-23T13:34:58Z</time>
      </trkpt>
      <trkpt lat="48.32887" lon="-4.44831">
        <ele>20.81</ele>
        <time>2019-08-23T13:34:59Z</time>
      </trkpt>
      <trkpt lat="48.32888" lon="-4.44833">
        <ele>21.77</ele>
        <time>2019-08-23T13:35:00Z</time>
      </trkpt>
      <trkpt lat="48.32889" lon="-4.44834">
        <ele>20.81</ele>
        <time>2019-08-23T13:35:01Z</time>
      </trkpt>
      <trkpt lat="48.3289" lon="-4.44836">
        <ele>20.81</ele>
        <time>2019-08-23T13:35:02Z</time>
      </trkpt>
      <trkpt lat="48.32891" lon="-4.44838">
        <ele>20.81</ele>
        <time>2019-08-23T13:35:03Z</time>
      </trkpt>
      <trkpt lat="48.32892" lon="-4.44842">
        <ele>20.81</ele>
        <time>2019-08-23T13:35:06Z</time>
      </trkpt>
      <trkpt lat="48.32891" lon="-4.44844">
        <ele>20.81</ele>
        <time>2019-08-23T13:35:07Z</time>
      </trkpt>
      <trkpt lat="48.32892" lon="-4.44847">
        <ele>20.81</ele>
        <time>2019-08-23T13:35:09Z</time>
      </trkpt>
      <trkpt lat="48.32893" lon="-4.44849">
        <ele>20.81</ele>
        <time>2019-08-23T13:35:10Z</time>
      </trkpt>
      <trkpt lat="48.32893" lon="-4.44851">
        <ele>20.81</ele>
        <time>2019-08-23T13:35:11Z</time>
      </trkpt>
      <trkpt lat="48.32894" lon="-4.44853">
        <ele>20.81</ele>
        <time>2019-08-23T13:35:12Z</time>
      </trkpt>
      <trkpt lat="48.32895" lon="-4.44855">
        <ele>20.81</ele>
        <time>2019-08-23T13:35:13Z</time>
      </trkpt>
      <trkpt lat="48.32896" lon="-4.44858">
        <ele>20.81</ele>
        <time>2019-08-23T13:35:14Z</time>
      </trkpt>
      <trkpt lat="48.32898" lon="-4.4486">
        <ele>20.81</ele>
        <time>2019-08-23T13:35:15Z</time>
      </trkpt>
      <trkpt lat="48.329" lon="-4.44862">
        <ele>20.81</ele>
        <time>2019-08-23T13:35:16Z</time>
      </trkpt>
      <trkpt lat="48.32902" lon="-4.44864">
        <ele>20.81</ele>
        <time>2019-08-23T13:35:17Z</time>
      </trkpt>
      <trkpt lat="48.32905" lon="-4.44867">
        <ele>20.32</ele>
        <time>2019-08-23T13:35:18Z</time>
      </trkpt>
      <trkpt lat="48.32908" lon="-4.4487">
        <ele>20.32</ele>
        <time>2019-08-23T13:35:19Z</time>
      </trkpt>
      <trkpt lat="48.32911" lon="-4.44872">
        <ele>20.32</ele>
        <time>2019-08-23T13:35:20Z</time>
      </trkpt>
      <trkpt lat="48.32915" lon="-4.44872">
        <ele>19.84</ele>
        <time>2019-08-23T13:35:21Z</time>
      </trkpt>
      <trkpt lat="48.32919" lon="-4.4487">
        <ele>19.36</ele>
        <time>2019-08-23T13:35:22Z</time>
      </trkpt>
      <trkpt lat="48.32922" lon="-4.44868">
        <ele>19.36</ele>
        <time>2019-08-23T13:35:23Z</time>
      </trkpt>
      <trkpt lat="48.32925" lon="-4.44866">
        <ele>19.84</ele>
        <time>2019-08-23T13:35:24Z</time>
      </trkpt>
      <trkpt lat="48.32926" lon="-4.44863">
        <ele>19.84</ele>
        <time>2019-08-23T13:35:25Z</time>
      </trkpt>
      <trkpt lat="48.32927" lon="-4.4486">
        <ele>19.84</ele>
        <time>2019-08-23T13:35:26Z</time>
      </trkpt>
      <trkpt lat="48.32928" lon="-4.44857">
        <ele>19.36</ele>
        <time>2019-08-23T13:35:27Z</time>
      </trkpt>
      <trkpt lat="48.32928" lon="-4.44852">
        <ele>19.84</ele>
        <time>2019-08-23T13:35:28Z</time>
      </trkpt>
      <trkpt lat="48.32929" lon="-4.44848">
        <ele>19.84</ele>
        <time>2019-08-23T13:35:29Z</time>
      </trkpt>
      <trkpt lat="48.3293" lon="-4.44844">
        <ele>19.84</ele>
        <time>2019-08-23T13:35:30Z</time>
      </trkpt>
      <trkpt lat="48.32931" lon="-4.4484">
        <ele>19.36</ele>
        <time>2019-08-23T13:35:31Z</time>
      </trkpt>
      <trkpt lat="48.32932" lon="-4.44835">
        <ele>19.36</ele>
        <time>2019-08-23T13:35:32Z</time>
      </trkpt>
      <trkpt lat="48.32933" lon="-4.44832">
        <ele>19.36</ele>
        <time>2019-08-23T13:35:33Z</time>
      </trkpt>
      <trkpt lat="48.32936" lon="-4.4483">
        <ele>19.36</ele>
        <time>2019-08-23T13:35:34Z</time>
      </trkpt>
      <trkpt lat="48.32939" lon="-4.44831">
        <ele>18.88</ele>
        <time>2019-08-23T13:35:35Z</time>
      </trkpt>
      <trkpt lat="48.32942" lon="-4.44832">
        <ele>18.88</ele>
        <time>2019-08-23T13:35:36Z</time>
      </trkpt>
      <trkpt lat="48.32945" lon="-4.44835">
        <ele>18.4</ele>
        <time>2019-08-23T13:35:37Z</time>
      </trkpt>
      <trkpt lat="48.32948" lon="-4.44838">
        <ele>18.4</ele>
        <time>2019-08-23T13:35:38Z</time>
      </trkpt>
      <trkpt lat="48.32984" lon="-4.44862">
        <ele>15.04</ele>
        <time>2019-08-23T13:35:50Z</time>
      </trkpt>
      <trkpt lat="48.32987" lon="-4.44861">
        <ele>15.04</ele>
        <time>2019-08-23T13:35:51Z</time>
      </trkpt>
      <trkpt lat="48.33015" lon="-4.44837">
        <ele>12.15</ele>
        <time>2019-08-23T13:35:59Z</time>
      </trkpt>
      <trkpt lat="48.33018" lon="-4.44832">
        <ele>12.15</ele>
        <time>2019-08-23T13:36:00Z</time>
      </trkpt>
      <trkpt lat="48.33021" lon="-4.44827">
        <ele>11.67</ele>
        <time>2019-08-23T13:36:01Z</time>
      </trkpt>
      <trkpt lat="48.33025" lon="-4.44824">
        <ele>11.67</ele>
        <time>2019-08-23T13:36:02Z</time>
      </trkpt>
      <trkpt lat="48.33029" lon="-4.44822">
        <ele>11.67</ele>
        <time>2019-08-23T13:36:03Z</time>
      </trkpt>
      <trkpt lat="48.33034" lon="-4.44822">
        <ele>11.67</ele>
        <time>2019-08-23T13:36:04Z</time>
      </trkpt>
      <trkpt lat="48.33038" lon="-4.44821">
        <ele>11.19</ele>
        <time>2019-08-23T13:36:05Z</time>
      </trkpt>
      <trkpt lat="48.33043" lon="-4.44818">
        <ele>10.71</ele>
        <time>2019-08-23T13:36:06Z</time>
      </trkpt>
      <trkpt lat="48.33048" lon="-4.44815">
        <ele>10.71</ele>
        <time>2019-08-23T13:36:07Z</time>
      </trkpt>
      <trkpt lat="48.33053" lon="-4.44813">
        <ele>10.23</ele>
        <time>2019-08-23T13:36:08Z</time>
      </trkpt>
      <trkpt lat="48.33058" lon="-4.44811">
        <ele>10.23</ele>
        <time>2019-08-23T13:36:09Z</time>
      </trkpt>
      <trkpt lat="48.33063" lon="-4.4481">
        <ele>9.75</ele>
        <time>2019-08-23T13:36:10Z</time>
      </trkpt>
      <trkpt lat="48.33068" lon="-4.44808">
        <ele>9.75</ele>
        <time>2019-08-23T13:36:11Z</time>
      </trkpt>
      <trkpt lat="48.33073" lon="-4.44806">
        <ele>9.27</ele>
        <time>2019-08-23T13:36:12Z</time>
      </trkpt>
      <trkpt lat="48.33105" lon="-4.44796">
        <ele>8.79</ele>
        <time>2019-08-23T13:36:18Z</time>
      </trkpt>
      <trkpt lat="48.33109" lon="-4.44795">
        <ele>8.31</ele>
        <time>2019-08-23T13:36:19Z</time>
      </trkpt>
      <trkpt lat="48.33118" lon="-4.44791">
        <ele>8.31</ele>
        <time>2019-08-23T13:36:21Z</time>
      </trkpt>
      <trkpt lat="48.33123" lon="-4.4479">
        <ele>8.31</ele>
        <time>2019-08-23T13:36:22Z</time>
      </trkpt>
      <trkpt lat="48.33136" lon="-4.44786">
        <ele>8.31</ele>
        <time>2019-08-23T13:36:25Z</time>
      </trkpt>
      <trkpt lat="48.33166" lon="-4.44778">
        <ele>8.79</ele>
        <time>2019-08-23T13:36:36Z</time>
      </trkpt>
      <trkpt lat="48.33168" lon="-4.44779">
        <ele>8.31</ele>
        <time>2019-08-23T13:36:51Z</time>
      </trkpt>
      <trkpt lat="48.33168" lon="-4.44779">
        <ele>8.31</ele>
        <time>2019-08-23T13:37:14Z</time>
      </trkpt>
      <trkpt lat="48.33168" lon="-4.4478">
        <ele>8.31</ele>
        <time>2019-08-23T13:37:41Z</time>
      </trkpt>
      <trkpt lat="48.33168" lon="-4.44775">
        <ele>8.31</ele>
        <time>2019-08-23T13:38:00Z</time>
      </trkpt>
      <trkpt lat="48.33168" lon="-4.44752">
        <ele>8.79</ele>
        <time>2019-08-23T13:38:09Z</time>
      </trkpt>
      <trkpt lat="48.3317" lon="-4.44698">
        <ele>9.27</ele>
        <time>2019-08-23T13:38:22Z</time>
      </trkpt>
      <trkpt lat="48.33172" lon="-4.44644">
        <ele>11.19</ele>
        <time>2019-08-23T13:38:35Z</time>
      </trkpt>
      <trkpt lat="48.33171" lon="-4.44596">
        <ele>13.12</ele>
        <time>2019-08-23T13:38:47Z</time>
      </trkpt>
      <trkpt lat="48.33166" lon="-4.44548">
        <ele>16.48</ele>
        <time>2019-08-23T13:39:00Z</time>
      </trkpt>
      <trkpt lat="48.33161" lon="-4.44506">
        <ele>17.44</ele>
        <time>2019-08-23T13:39:12Z</time>
      </trkpt>
      <trkpt lat="48.33162" lon="-4.44502">
        <ele>17.44</ele>
        <time>2019-08-23T13:39:13Z</time>
      </trkpt>
      <trkpt lat="48.33164" lon="-4.445">
        <ele>17.44</ele>
        <time>2019-08-23T13:39:14Z</time>
      </trkpt>
      <trkpt lat="48.33166" lon="-4.44499">
        <ele>17.92</ele>
        <time>2019-08-23T13:39:15Z</time>
      </trkpt>
      <trkpt lat="48.33168" lon="-4.44498">
        <ele>17.92</ele>
        <time>2019-08-23T13:39:16Z</time>
      </trkpt>
      <trkpt lat="48.33205" lon="-4.44489">
        <ele>17.44</ele>
        <time>2019-08-23T13:39:27Z</time>
      </trkpt>
      <trkpt lat="48.33208" lon="-4.44492">
        <ele>16.96</ele>
        <time>2019-08-23T13:39:28Z</time>
      </trkpt>
      <trkpt lat="48.33212" lon="-4.44496">
        <ele>16.96</ele>
        <time>2019-08-23T13:39:29Z</time>
      </trkpt>
      <trkpt lat="48.33226" lon="-4.44519">
        <ele>15.52</ele>
        <time>2019-08-23T13:39:33Z</time>
      </trkpt>
      <trkpt lat="48.33231" lon="-4.44524">
        <ele>15.04</ele>
        <time>2019-08-23T13:39:34Z</time>
      </trkpt>
      <trkpt lat="48.33236" lon="-4.44529">
        <ele>14.56</ele>
        <time>2019-08-23T13:39:35Z</time>
      </trkpt>
      <trkpt lat="48.33242" lon="-4.44533">
        <ele>14.56</ele>
        <time>2019-08-23T13:39:36Z</time>
      </trkpt>
      <trkpt lat="48.33247" lon="-4.44537">
        <ele>14.56</ele>
        <time>2019-08-23T13:39:37Z</time>
      </trkpt>
      <trkpt lat="48.33282" lon="-4.44557">
        <ele>13.6</ele>
        <time>2019-08-23T13:39:43Z</time>
      </trkpt>
      <trkpt lat="48.33304" lon="-4.44566">
        <ele>13.12</ele>
        <time>2019-08-23T13:39:47Z</time>
      </trkpt>
      <trkpt lat="48.33309" lon="-4.44566">
        <ele>13.12</ele>
        <time>2019-08-23T13:39:48Z</time>
      </trkpt>
      <trkpt lat="48.33314" lon="-4.44566">
        <ele>13.12</ele>
        <time>2019-08-23T13:39:49Z</time>
      </trkpt>
      <trkpt lat="48.33328" lon="-4.44567">
        <ele>13.12</ele>
        <time>2019-08-23T13:39:52Z</time>
      </trkpt>
      <trkpt lat="48.33337" lon="-4.44567">
        <ele>13.6</ele>
        <time>2019-08-23T13:39:54Z</time>
      </trkpt>
      <trkpt lat="48.33342" lon="-4.44567">
        <ele>13.6</ele>
        <time>2019-08-23T13:39:55Z</time>
      </trkpt>
      <trkpt lat="48.33394" lon="-4.44583">
        <ele>14.56</ele>
        <time>2019-08-23T13:40:08Z</time>
      </trkpt>
      <trkpt lat="48.33431" lon="-4.44595">
        <ele>16</ele>
        <time>2019-08-23T13:40:19Z</time>
      </trkpt>
      <trkpt lat="48.33475" lon="-4.44589">
        <ele>18.4</ele>
        <time>2019-08-23T13:40:33Z</time>
      </trkpt>
      <trkpt lat="48.33503" lon="-4.44573">
        <ele>20.32</ele>
        <time>2019-08-23T13:40:45Z</time>
      </trkpt>
      <trkpt lat="48.33534" lon="-4.44548">
        <ele>23.21</ele>
        <time>2019-08-23T13:40:59Z</time>
      </trkpt>
      <trkpt lat="48.33568" lon="-4.44542">
        <ele>25.13</ele>
        <time>2019-08-23T13:41:13Z</time>
      </trkpt>
      <trkpt lat="48.33595" lon="-4.44544">
        <ele>26.57</ele>
        <time>2019-08-23T13:41:23Z</time>
      </trkpt>
      <trkpt lat="48.33638" lon="-4.44549">
        <ele>27.53</ele>
        <time>2019-08-23T13:41:38Z</time>
      </trkpt>
      <trkpt lat="48.33678" lon="-4.44554">
        <ele>28.98</ele>
        <time>2019-08-23T13:41:52Z</time>
      </trkpt>
      <trkpt lat="48.33718" lon="-4.4456">
        <ele>30.42</ele>
        <time>2019-08-23T13:42:06Z</time>
      </trkpt>
      <trkpt lat="48.33757" lon="-4.44581">
        <ele>30.9</ele>
        <time>2019-08-23T13:42:21Z</time>
      </trkpt>
      <trkpt lat="48.33781" lon="-4.44582">
        <ele>29.46</ele>
        <time>2019-08-23T13:42:31Z</time>
      </trkpt>
      <trkpt lat="48.33794" lon="-4.44577">
        <ele>28.5</ele>
        <time>2019-08-23T13:42:34Z</time>
      </trkpt>
      <trkpt lat="48.33844" lon="-4.4454">
        <ele>28.98</ele>
        <time>2019-08-23T13:42:47Z</time>
      </trkpt>
      <trkpt lat="48.33851" lon="-4.44511">
        <ele>30.42</ele>
        <time>2019-08-23T13:42:55Z</time>
      </trkpt>
      <trkpt lat="48.33853" lon="-4.44507">
        <ele>30.42</ele>
        <time>2019-08-23T13:42:56Z</time>
      </trkpt>
      <trkpt lat="48.33859" lon="-4.44494">
        <ele>29.46</ele>
        <time>2019-08-23T13:42:59Z</time>
      </trkpt>
      <trkpt lat="48.33862" lon="-4.4449">
        <ele>28.98</ele>
        <time>2019-08-23T13:43:00Z</time>
      </trkpt>
      <trkpt lat="48.33864" lon="-4.44487">
        <ele>28.98</ele>
        <time>2019-08-23T13:43:01Z</time>
      </trkpt>
      <trkpt lat="48.33867" lon="-4.44484">
        <ele>28.02</ele>
        <time>2019-08-23T13:43:02Z</time>
      </trkpt>
      <trkpt lat="48.3387" lon="-4.44482">
        <ele>27.53</ele>
        <time>2019-08-23T13:43:03Z</time>
      </trkpt>
      <trkpt lat="48.33887" lon="-4.44473">
        <ele>24.65</ele>
        <time>2019-08-23T13:43:07Z</time>
      </trkpt>
      <trkpt lat="48.33896" lon="-4.44467">
        <ele>23.69</ele>
        <time>2019-08-23T13:43:09Z</time>
      </trkpt>
      <trkpt lat="48.33914" lon="-4.44452">
        <ele>22.25</ele>
        <time>2019-08-23T13:43:13Z</time>
      </trkpt>
      <trkpt lat="48.33918" lon="-4.44449">
        <ele>22.25</ele>
        <time>2019-08-23T13:43:14Z</time>
      </trkpt>
      <trkpt lat="48.33921" lon="-4.44446">
        <ele>22.25</ele>
        <time>2019-08-23T13:43:15Z</time>
      </trkpt>
      <trkpt lat="48.33923" lon="-4.44443">
        <ele>22.25</ele>
        <time>2019-08-23T13:43:16Z</time>
      </trkpt>
      <trkpt lat="48.33926" lon="-4.44441">
        <ele>22.25</ele>
        <time>2019-08-23T13:43:17Z</time>
      </trkpt>
      <trkpt lat="48.33927" lon="-4.44439">
        <ele>22.25</ele>
        <time>2019-08-23T13:43:18Z</time>
      </trkpt>
      <trkpt lat="48.33929" lon="-4.44437">
        <ele>22.25</ele>
        <time>2019-08-23T13:43:19Z</time>
      </trkpt>
      <trkpt lat="48.33931" lon="-4.44435">
        <ele>21.77</ele>
        <time>2019-08-23T13:43:20Z</time>
      </trkpt>
      <trkpt lat="48.33933" lon="-4.44432">
        <ele>21.29</ele>
        <time>2019-08-23T13:43:21Z</time>
      </trkpt>
      <trkpt lat="48.33935" lon="-4.44429">
        <ele>20.81</ele>
        <time>2019-08-23T13:43:22Z</time>
      </trkpt>
      <trkpt lat="48.33946" lon="-4.44405">
        <ele>18.88</ele>
        <time>2019-08-23T13:43:27Z</time>
      </trkpt>
      <trkpt lat="48.33948" lon="-4.44399">
        <ele>18.88</ele>
        <time>2019-08-23T13:43:28Z</time>
      </trkpt>
      <trkpt lat="48.33953" lon="-4.44388">
        <ele>18.4</ele>
        <time>2019-08-23T13:43:30Z</time>
      </trkpt>
      <trkpt lat="48.33956" lon="-4.44382">
        <ele>17.92</ele>
        <time>2019-08-23T13:43:31Z</time>
      </trkpt>
      <trkpt lat="48.33958" lon="-4.44376">
        <ele>17.92</ele>
        <time>2019-08-23T13:43:32Z</time>
      </trkpt>
      <trkpt lat="48.33963" lon="-4.44365">
        <ele>17.44</ele>
        <time>2019-08-23T13:43:34Z</time>
      </trkpt>
      <trkpt lat="48.33966" lon="-4.44359">
        <ele>17.44</ele>
        <time>2019-08-23T13:43:35Z</time>
      </trkpt>
      <trkpt lat="48.33968" lon="-4.44354">
        <ele>17.44</ele>
        <time>2019-08-23T13:43:36Z</time>
      </trkpt>
      <trkpt lat="48.3397" lon="-4.44349">
        <ele>16.96</ele>
        <time>2019-08-23T13:43:37Z</time>
      </trkpt>
      <trkpt lat="48.33972" lon="-4.44345">
        <ele>16.96</ele>
        <time>2019-08-23T13:43:38Z</time>
      </trkpt>
      <trkpt lat="48.33973" lon="-4.44342">
        <ele>16.96</ele>
        <time>2019-08-23T13:43:39Z</time>
      </trkpt>
      <trkpt lat="48.33975" lon="-4.44339">
        <ele>16.48</ele>
        <time>2019-08-23T13:43:40Z</time>
      </trkpt>
      <trkpt lat="48.33976" lon="-4.44335">
        <ele>16.96</ele>
        <time>2019-08-23T13:43:41Z</time>
      </trkpt>
      <trkpt lat="48.33977" lon="-4.44333">
        <ele>16.48</ele>
        <time>2019-08-23T13:43:42Z</time>
      </trkpt>
      <trkpt lat="48.33978" lon="-4.44331">
        <ele>16</ele>
        <time>2019-08-23T13:43:43Z</time>
      </trkpt>
      <trkpt lat="48.3398" lon="-4.44329">
        <ele>16</ele>
        <time>2019-08-23T13:43:44Z</time>
      </trkpt>
      <trkpt lat="48.33982" lon="-4.44326">
        <ele>15.52</ele>
        <time>2019-08-23T13:43:45Z</time>
      </trkpt>
      <trkpt lat="48.33983" lon="-4.44322">
        <ele>15.52</ele>
        <time>2019-08-23T13:43:46Z</time>
      </trkpt>
      <trkpt lat="48.33985" lon="-4.44318">
        <ele>15.52</ele>
        <time>2019-08-23T13:43:47Z</time>
      </trkpt>
      <trkpt lat="48.33986" lon="-4.44314">
        <ele>15.04</ele>
        <time>2019-08-23T13:43:48Z</time>
      </trkpt>
      <trkpt lat="48.33988" lon="-4.4431">
        <ele>15.04</ele>
        <time>2019-08-23T13:43:49Z</time>
      </trkpt>
      <trkpt lat="48.34" lon="-4.44262">
        <ele>14.08</ele>
        <time>2019-08-23T13:43:58Z</time>
      </trkpt>
      <trkpt lat="48.34001" lon="-4.44255">
        <ele>14.08</ele>
        <time>2019-08-23T13:43:59Z</time>
      </trkpt>
      <trkpt lat="48.34004" lon="-4.44242">
        <ele>14.08</ele>
        <time>2019-08-23T13:44:01Z</time>
      </trkpt>
      <trkpt lat="48.34005" lon="-4.44235">
        <ele>14.08</ele>
        <time>2019-08-23T13:44:02Z</time>
      </trkpt>
      <trkpt lat="48.34005" lon="-4.44228">
        <ele>14.56</ele>
        <time>2019-08-23T13:44:03Z</time>
      </trkpt>
      <trkpt lat="48.34005" lon="-4.44223">
        <ele>15.04</ele>
        <time>2019-08-23T13:44:04Z</time>
      </trkpt>
      <trkpt lat="48.34004" lon="-4.4422">
        <ele>15.52</ele>
        <time>2019-08-23T13:44:05Z</time>
      </trkpt>
      <trkpt lat="48.34003" lon="-4.44211">
        <ele>17.44</ele>
        <time>2019-08-23T13:44:13Z</time>
      </trkpt>
      <trkpt lat="48.34004" lon="-4.44205">
        <ele>17.44</ele>
        <time>2019-08-23T13:44:24Z</time>
      </trkpt>
      <trkpt lat="48.34004" lon="-4.44192">
        <ele>17.92</ele>
        <time>2019-08-23T13:44:31Z</time>
      </trkpt>
      <trkpt lat="48.34003" lon="-4.4419">
        <ele>17.92</ele>
        <time>2019-08-23T13:44:32Z</time>
      </trkpt>
      <trkpt lat="48.34002" lon="-4.44187">
        <ele>18.4</ele>
        <time>2019-08-23T13:44:33Z</time>
      </trkpt>
      <trkpt lat="48.34002" lon="-4.44185">
        <ele>18.4</ele>
        <time>2019-08-23T13:44:34Z</time>
      </trkpt>
      <trkpt lat="48.34002" lon="-4.44183">
        <ele>18.4</ele>
        <time>2019-08-23T13:44:35Z</time>
      </trkpt>
      <trkpt lat="48.34003" lon="-4.44181">
        <ele>18.4</ele>
        <time>2019-08-23T13:44:47Z</time>
      </trkpt>
      <trkpt lat="48.34003" lon="-4.44182">
        <ele>18.4</ele>
        <time>2019-08-23T13:44:55Z</time>
      </trkpt>
      <trkpt lat="48.34004" lon="-4.44183">
        <ele>17.92</ele>
        <time>2019-08-23T13:44:56Z</time>
      </trkpt>
      <trkpt lat="48.34005" lon="-4.44185">
        <ele>18.4</ele>
        <time>2019-08-23T13:44:57Z</time>
      </trkpt>
      <trkpt lat="48.34006" lon="-4.44187">
        <ele>18.4</ele>
        <time>2019-08-23T13:45:10Z</time>
      </trkpt>
      <trkpt lat="48.34005" lon="-4.44188">
        <ele>18.4</ele>
        <time>2019-08-23T13:45:31Z</time>
      </trkpt>
      <trkpt lat="48.34005" lon="-4.4419">
        <ele>17.92</ele>
        <time>2019-08-23T13:45:48Z</time>
      </trkpt>
      <trkpt lat="48.34004" lon="-4.4419">
        <ele>17.92</ele>
        <time>2019-08-23T13:46:08Z</time>
      </trkpt>
      <trkpt lat="48.34004" lon="-4.44189">
        <ele>18.4</ele>
        <time>2019-08-23T13:46:09Z</time>
      </trkpt>
      <trkpt lat="48.34004" lon="-4.44187">
        <ele>18.4</ele>
        <time>2019-08-23T13:46:10Z</time>
      </trkpt>
      <trkpt lat="48.34004" lon="-4.44184">
        <ele>18.4</ele>
        <time>2019-08-23T13:46:11Z</time>
      </trkpt>
      <trkpt lat="48.34004" lon="-4.44182">
        <ele>18.4</ele>
        <time>2019-08-23T13:46:12Z</time>
      </trkpt>
      <trkpt lat="48.34004" lon="-4.4418">
        <ele>17.92</ele>
        <time>2019-08-23T13:46:13Z</time>
      </trkpt>
      <trkpt lat="48.34004" lon="-4.44178">
        <ele>17.92</ele>
        <time>2019-08-23T13:46:14Z</time>
      </trkpt>
      <trkpt lat="48.34005" lon="-4.44175">
        <ele>17.92</ele>
        <time>2019-08-23T13:46:15Z</time>
      </trkpt>
      <trkpt lat="48.34005" lon="-4.44172">
        <ele>17.92</ele>
        <time>2019-08-23T13:46:16Z</time>
      </trkpt>
      <trkpt lat="48.34006" lon="-4.44169">
        <ele>17.92</ele>
        <time>2019-08-23T13:46:17Z</time>
      </trkpt>
      <trkpt lat="48.34007" lon="-4.44166">
        <ele>17.92</ele>
        <time>2019-08-23T13:46:18Z</time>
      </trkpt>
      <trkpt lat="48.34008" lon="-4.44162">
        <ele>17.92</ele>
        <time>2019-08-23T13:46:19Z</time>
      </trkpt>
      <trkpt lat="48.34009" lon="-4.44158">
        <ele>17.44</ele>
        <time>2019-08-23T13:46:20Z</time>
      </trkpt>
      <trkpt lat="48.3401" lon="-4.44155">
        <ele>17.44</ele>
        <time>2019-08-23T13:46:21Z</time>
      </trkpt>
      <trkpt lat="48.34011" lon="-4.44152">
        <ele>17.44</ele>
        <time>2019-08-23T13:46:22Z</time>
      </trkpt>
      <trkpt lat="48.34012" lon="-4.44149">
        <ele>17.44</ele>
        <time>2019-08-23T13:46:23Z</time>
      </trkpt>
      <trkpt lat="48.34013" lon="-4.44146">
        <ele>17.44</ele>
        <time>2019-08-23T13:46:24Z</time>
      </trkpt>
      <trkpt lat="48.34013" lon="-4.44143">
        <ele>17.44</ele>
        <time>2019-08-23T13:46:25Z</time>
      </trkpt>
      <trkpt lat="48.34014" lon="-4.4414">
        <ele>17.44</ele>
        <time>2019-08-23T13:46:26Z</time>
      </trkpt>
      <trkpt lat="48.34015" lon="-4.44137">
        <ele>17.44</ele>
        <time>2019-08-23T13:46:27Z</time>
      </trkpt>
      <trkpt lat="48.34017" lon="-4.44133">
        <ele>16.96</ele>
        <time>2019-08-23T13:46:28Z</time>
      </trkpt>
      <trkpt lat="48.3402" lon="-4.44129">
        <ele>16.48</ele>
        <time>2019-08-23T13:46:29Z</time>
      </trkpt>
      <trkpt lat="48.34022" lon="-4.44123">
        <ele>16</ele>
        <time>2019-08-23T13:46:30Z</time>
      </trkpt>
      <trkpt lat="48.34024" lon="-4.44118">
        <ele>16</ele>
        <time>2019-08-23T13:46:31Z</time>
      </trkpt>
      <trkpt lat="48.3403" lon="-4.44102">
        <ele>15.52</ele>
        <time>2019-08-23T13:46:34Z</time>
      </trkpt>
      <trkpt lat="48.34037" lon="-4.44084">
        <ele>14.56</ele>
        <time>2019-08-23T13:46:37Z</time>
      </trkpt>
      <trkpt lat="48.3404" lon="-4.44077">
        <ele>14.08</ele>
        <time>2019-08-23T13:46:38Z</time>
      </trkpt>
      <trkpt lat="48.34043" lon="-4.44069">
        <ele>13.6</ele>
        <time>2019-08-23T13:46:39Z</time>
      </trkpt>
      <trkpt lat="48.34054" lon="-4.44034">
        <ele>13.12</ele>
        <time>2019-08-23T13:46:44Z</time>
      </trkpt>
      <trkpt lat="48.34063" lon="-4.44016">
        <ele>11.67</ele>
        <time>2019-08-23T13:46:47Z</time>
      </trkpt>
      <trkpt lat="48.34065" lon="-4.4401">
        <ele>11.67</ele>
        <time>2019-08-23T13:46:48Z</time>
      </trkpt>
      <trkpt lat="48.34067" lon="-4.44003">
        <ele>12.15</ele>
        <time>2019-08-23T13:46:49Z</time>
      </trkpt>
      <trkpt lat="48.34094" lon="-4.43896">
        <ele>10.71</ele>
        <time>2019-08-23T13:47:06Z</time>
      </trkpt>
      <trkpt lat="48.34096" lon="-4.4389">
        <ele>10.71</ele>
        <time>2019-08-23T13:47:07Z</time>
      </trkpt>
      <trkpt lat="48.34097" lon="-4.43884">
        <ele>10.71</ele>
        <time>2019-08-23T13:47:08Z</time>
      </trkpt>
      <trkpt lat="48.34104" lon="-4.43868">
        <ele>10.71</ele>
        <time>2019-08-23T13:47:13Z</time>
      </trkpt>
      <trkpt lat="48.34106" lon="-4.43868">
        <ele>10.71</ele>
        <time>2019-08-23T13:47:14Z</time>
      </trkpt>
      <trkpt lat="48.34109" lon="-4.4387">
        <ele>10.23</ele>
        <time>2019-08-23T13:47:15Z</time>
      </trkpt>
      <trkpt lat="48.34112" lon="-4.43873">
        <ele>9.75</ele>
        <time>2019-08-23T13:47:16Z</time>
      </trkpt>
      <trkpt lat="48.34114" lon="-4.43878">
        <ele>9.27</ele>
        <time>2019-08-23T13:47:17Z</time>
      </trkpt>
      <trkpt lat="48.34117" lon="-4.43885">
        <ele>8.79</ele>
        <time>2019-08-23T13:47:18Z</time>
      </trkpt>
      <trkpt lat="48.34121" lon="-4.43891">
        <ele>8.79</ele>
        <time>2019-08-23T13:47:19Z</time>
      </trkpt>
      <trkpt lat="48.34125" lon="-4.43896">
        <ele>8.31</ele>
        <time>2019-08-23T13:47:20Z</time>
      </trkpt>
      <trkpt lat="48.3413" lon="-4.43901">
        <ele>7.83</ele>
        <time>2019-08-23T13:47:21Z</time>
      </trkpt>
      <trkpt lat="48.34135" lon="-4.43905">
        <ele>7.35</ele>
        <time>2019-08-23T13:47:22Z</time>
      </trkpt>
      <trkpt lat="48.34147" lon="-4.43912">
        <ele>7.35</ele>
        <time>2019-08-23T13:47:25Z</time>
      </trkpt>
      <trkpt lat="48.34151" lon="-4.43911">
        <ele>7.35</ele>
        <time>2019-08-23T13:47:26Z</time>
      </trkpt>
      <trkpt lat="48.34155" lon="-4.43907">
        <ele>7.35</ele>
        <time>2019-08-23T13:47:27Z</time>
      </trkpt>
      <trkpt lat="48.34159" lon="-4.43904">
        <ele>7.83</ele>
        <time>2019-08-23T13:47:28Z</time>
      </trkpt>
      <trkpt lat="48.34164" lon="-4.43901">
        <ele>7.35</ele>
        <time>2019-08-23T13:47:29Z</time>
      </trkpt>
      <trkpt lat="48.34168" lon="-4.43899">
        <ele>7.35</ele>
        <time>2019-08-23T13:47:30Z</time>
      </trkpt>
      <trkpt lat="48.34214" lon="-4.43869">
        <ele>6.87</ele>
        <time>2019-08-23T13:47:41Z</time>
      </trkpt>
      <trkpt lat="48.34246" lon="-4.43849">
        <ele>6.87</ele>
        <time>2019-08-23T13:47:49Z</time>
      </trkpt>
      <trkpt lat="48.34271" lon="-4.43842">
        <ele>6.87</ele>
        <time>2019-08-23T13:47:55Z</time>
      </trkpt>
      <trkpt lat="48.34308" lon="-4.43823">
        <ele>6.87</ele>
        <time>2019-08-23T13:48:05Z</time>
      </trkpt>
      <trkpt lat="48.34311" lon="-4.4382">
        <ele>6.87</ele>
        <time>2019-08-23T13:48:06Z</time>
      </trkpt>
      <trkpt lat="48.34328" lon="-4.43798">
        <ele>6.39</ele>
        <time>2019-08-23T13:48:11Z</time>
      </trkpt>
      <trkpt lat="48.3433" lon="-4.43792">
        <ele>6.39</ele>
        <time>2019-08-23T13:48:12Z</time>
      </trkpt>
      <trkpt lat="48.34331" lon="-4.43786">
        <ele>5.91</ele>
        <time>2019-08-23T13:48:13Z</time>
      </trkpt>
      <trkpt lat="48.34331" lon="-4.43779">
        <ele>6.39</ele>
        <time>2019-08-23T13:48:14Z</time>
      </trkpt>
      <trkpt lat="48.34331" lon="-4.43773">
        <ele>5.91</ele>
        <time>2019-08-23T13:48:15Z</time>
      </trkpt>
      <trkpt lat="48.34329" lon="-4.43734">
        <ele>6.39</ele>
        <time>2019-08-23T13:48:21Z</time>
      </trkpt>
      <trkpt lat="48.34328" lon="-4.43728">
        <ele>6.87</ele>
        <time>2019-08-23T13:48:22Z</time>
      </trkpt>
      <trkpt lat="48.34328" lon="-4.43708">
        <ele>6.87</ele>
        <time>2019-08-23T13:48:25Z</time>
      </trkpt>
      <trkpt lat="48.34329" lon="-4.43702">
        <ele>6.87</ele>
        <time>2019-08-23T13:48:26Z</time>
      </trkpt>
      <trkpt lat="48.3433" lon="-4.43696">
        <ele>6.87</ele>
        <time>2019-08-23T13:48:27Z</time>
      </trkpt>
      <trkpt lat="48.34332" lon="-4.4369">
        <ele>7.35</ele>
        <time>2019-08-23T13:48:28Z</time>
      </trkpt>
      <trkpt lat="48.34334" lon="-4.43684">
        <ele>6.87</ele>
        <time>2019-08-23T13:48:29Z</time>
      </trkpt>
      <trkpt lat="48.34341" lon="-4.43666">
        <ele>6.87</ele>
        <time>2019-08-23T13:48:32Z</time>
      </trkpt>
      <trkpt lat="48.34347" lon="-4.43648">
        <ele>6.87</ele>
        <time>2019-08-23T13:48:35Z</time>
      </trkpt>
      <trkpt lat="48.34377" lon="-4.4355">
        <ele>5.91</ele>
        <time>2019-08-23T13:48:49Z</time>
      </trkpt>
      <trkpt lat="48.34384" lon="-4.43515">
        <ele>6.39</ele>
        <time>2019-08-23T13:48:54Z</time>
      </trkpt>
      <trkpt lat="48.344" lon="-4.43453">
        <ele>6.39</ele>
        <time>2019-08-23T13:49:03Z</time>
      </trkpt>
      <trkpt lat="48.34402" lon="-4.43447">
        <ele>6.39</ele>
        <time>2019-08-23T13:49:04Z</time>
      </trkpt>
      <trkpt lat="48.34406" lon="-4.43428">
        <ele>6.39</ele>
        <time>2019-08-23T13:49:07Z</time>
      </trkpt>
      <trkpt lat="48.34408" lon="-4.43422">
        <ele>6.39</ele>
        <time>2019-08-23T13:49:08Z</time>
      </trkpt>
      <trkpt lat="48.34408" lon="-4.43415">
        <ele>6.39</ele>
        <time>2019-08-23T13:49:09Z</time>
      </trkpt>
      <trkpt lat="48.34414" lon="-4.43383">
        <ele>6.39</ele>
        <time>2019-08-23T13:49:15Z</time>
      </trkpt>
      <trkpt lat="48.34419" lon="-4.43383">
        <ele>6.87</ele>
        <time>2019-08-23T13:49:18Z</time>
      </trkpt>
      <trkpt lat="48.34423" lon="-4.43398">
        <ele>8.79</ele>
        <time>2019-08-23T13:49:26Z</time>
      </trkpt>
      <trkpt lat="48.34428" lon="-4.43419">
        <ele>12.15</ele>
        <time>2019-08-23T13:49:36Z</time>
      </trkpt>
      <trkpt lat="48.34429" lon="-4.4343">
        <ele>14.08</ele>
        <time>2019-08-23T13:49:41Z</time>
      </trkpt>
      <trkpt lat="48.34434" lon="-4.43452">
        <ele>17.92</ele>
        <time>2019-08-23T13:49:51Z</time>
      </trkpt>
      <trkpt lat="48.34436" lon="-4.43454">
        <ele>17.92</ele>
        <time>2019-08-23T13:49:52Z</time>
      </trkpt>
      <trkpt lat="48.34447" lon="-4.43472">
        <ele>20.81</ele>
        <time>2019-08-23T13:50:04Z</time>
      </trkpt>
      <trkpt lat="48.34455" lon="-4.43481">
        <ele>21.77</ele>
        <time>2019-08-23T13:50:09Z</time>
      </trkpt>
      <trkpt lat="48.34459" lon="-4.43491">
        <ele>24.17</ele>
        <time>2019-08-23T13:50:16Z</time>
      </trkpt>
      <trkpt lat="48.34459" lon="-4.43525">
        <ele>25.13</ele>
        <time>2019-08-23T13:50:31Z</time>
      </trkpt>
      <trkpt lat="48.34459" lon="-4.43529">
        <ele>25.13</ele>
        <time>2019-08-23T13:50:59Z</time>
      </trkpt>
      <trkpt lat="48.34451" lon="-4.43548">
        <ele>24.65</ele>
        <time>2019-08-23T13:51:20Z</time>
      </trkpt>
      <trkpt lat="48.34448" lon="-4.43583">
        <ele>24.65</ele>
        <time>2019-08-23T13:51:30Z</time>
      </trkpt>
      <trkpt lat="48.34472" lon="-4.43606">
        <ele>27.53</ele>
        <time>2019-08-23T13:51:43Z</time>
      </trkpt>
      <trkpt lat="48.34499" lon="-4.43634">
        <ele>29.46</ele>
        <time>2019-08-23T13:51:57Z</time>
      </trkpt>
      <trkpt lat="48.3451" lon="-4.43669">
        <ele>31.38</ele>
        <time>2019-08-23T13:52:09Z</time>
      </trkpt>
      <trkpt lat="48.34508" lon="-4.43727">
        <ele>33.78</ele>
        <time>2019-08-23T13:52:25Z</time>
      </trkpt>
      <trkpt lat="48.34515" lon="-4.43777">
        <ele>35.23</ele>
        <time>2019-08-23T13:52:39Z</time>
      </trkpt>
      <trkpt lat="48.34524" lon="-4.43809">
        <ele>38.11</ele>
        <time>2019-08-23T13:52:52Z</time>
      </trkpt>
      <trkpt lat="48.34541" lon="-4.43812">
        <ele>40.03</ele>
        <time>2019-08-23T13:53:04Z</time>
      </trkpt>
      <trkpt lat="48.34557" lon="-4.43806">
        <ele>41.95</ele>
        <time>2019-08-23T13:53:15Z</time>
      </trkpt>
      <trkpt lat="48.34578" lon="-4.43808">
        <ele>43.4</ele>
        <time>2019-08-23T13:53:28Z</time>
      </trkpt>
      <trkpt lat="48.34581" lon="-4.43808">
        <ele>43.4</ele>
        <time>2019-08-23T13:53:30Z</time>
      </trkpt>
      <trkpt lat="48.34583" lon="-4.43808">
        <ele>43.88</ele>
        <time>2019-08-23T13:53:32Z</time>
      </trkpt>
      <trkpt lat="48.34591" lon="-4.43799">
        <ele>44.36</ele>
        <time>2019-08-23T13:53:37Z</time>
      </trkpt>
      <trkpt lat="48.34595" lon="-4.43793">
        <ele>44.36</ele>
        <time>2019-08-23T13:53:40Z</time>
      </trkpt>
      <trkpt lat="48.34599" lon="-4.43781">
        <ele>45.32</ele>
        <time>2019-08-23T13:53:45Z</time>
      </trkpt>
      <trkpt lat="48.34605" lon="-4.43764">
        <ele>45.8</ele>
        <time>2019-08-23T13:53:52Z</time>
      </trkpt>
      <trkpt lat="48.34623" lon="-4.43725">
        <ele>47.72</ele>
        <time>2019-08-23T13:54:06Z</time>
      </trkpt>
      <trkpt lat="48.34636" lon="-4.43698">
        <ele>48.68</ele>
        <time>2019-08-23T13:54:17Z</time>
      </trkpt>
      <trkpt lat="48.3465" lon="-4.43673">
        <ele>49.65</ele>
        <time>2019-08-23T13:54:29Z</time>
      </trkpt>
      <trkpt lat="48.34653" lon="-4.43669">
        <ele>50.13</ele>
        <time>2019-08-23T13:54:44Z</time>
      </trkpt>
      <trkpt lat="48.34654" lon="-4.43665">
        <ele>50.13</ele>
        <time>2019-08-23T13:55:06Z</time>
      </trkpt>
      <trkpt lat="48.34655" lon="-4.43663">
        <ele>50.13</ele>
        <time>2019-08-23T13:55:25Z</time>
      </trkpt>
      <trkpt lat="48.34656" lon="-4.43663">
        <ele>50.13</ele>
        <time>2019-08-23T13:55:50Z</time>
      </trkpt>
      <trkpt lat="48.3466" lon="-4.43661">
        <ele>50.13</ele>
        <time>2019-08-23T13:56:21Z</time>
      </trkpt>
      <trkpt lat="48.3466" lon="-4.43661">
        <ele>50.13</ele>
        <time>2019-08-23T13:56:28Z</time>
      </trkpt>
      <trkpt lat="48.34662" lon="-4.43658">
        <ele>50.13</ele>
        <time>2019-08-23T13:56:33Z</time>
      </trkpt>
      <trkpt lat="48.34673" lon="-4.43639">
        <ele>51.09</ele>
        <time>2019-08-23T13:56:45Z</time>
      </trkpt>
      <trkpt lat="48.34688" lon="-4.43623">
        <ele>51.57</ele>
        <time>2019-08-23T13:56:55Z</time>
      </trkpt>
      <trkpt lat="48.34705" lon="-4.43599">
        <ele>52.53</ele>
        <time>2019-08-23T13:57:04Z</time>
      </trkpt>
      <trkpt lat="48.34711" lon="-4.43585">
        <ele>53.01</ele>
        <time>2019-08-23T13:57:08Z</time>
      </trkpt>
      <trkpt lat="48.34717" lon="-4.43577">
        <ele>53.01</ele>
        <time>2019-08-23T13:57:11Z</time>
      </trkpt>
      <trkpt lat="48.34719" lon="-4.4357">
        <ele>53.01</ele>
        <time>2019-08-23T13:57:13Z</time>
      </trkpt>
      <trkpt lat="48.34726" lon="-4.43559">
        <ele>53.49</ele>
        <time>2019-08-23T13:57:17Z</time>
      </trkpt>
      <trkpt lat="48.34734" lon="-4.43547">
        <ele>53.49</ele>
        <time>2019-08-23T13:57:21Z</time>
      </trkpt>
      <trkpt lat="48.34747" lon="-4.43554">
        <ele>53.97</ele>
        <time>2019-08-23T13:57:27Z</time>
      </trkpt>
      <trkpt lat="48.34751" lon="-4.4356">
        <ele>54.45</ele>
        <time>2019-08-23T13:57:29Z</time>
      </trkpt>
      <trkpt lat="48.34778" lon="-4.43581">
        <ele>56.86</ele>
        <time>2019-08-23T13:57:42Z</time>
      </trkpt>
      <trkpt lat="48.34784" lon="-4.43584">
        <ele>56.86</ele>
        <time>2019-08-23T13:57:45Z</time>
      </trkpt>
      <trkpt lat="48.34805" lon="-4.43595">
        <ele>57.82</ele>
        <time>2019-08-23T13:57:55Z</time>
      </trkpt>
      <trkpt lat="48.34822" lon="-4.43616">
        <ele>58.3</ele>
        <time>2019-08-23T13:58:02Z</time>
      </trkpt>
      <trkpt lat="48.34831" lon="-4.43628">
        <ele>58.3</ele>
        <time>2019-08-23T13:58:06Z</time>
      </trkpt>
      <trkpt lat="48.3484" lon="-4.43636">
        <ele>58.78</ele>
        <time>2019-08-23T13:58:11Z</time>
      </trkpt>
      <trkpt lat="48.34847" lon="-4.43639">
        <ele>58.3</ele>
        <time>2019-08-23T13:58:14Z</time>
      </trkpt>
      <trkpt lat="48.3486" lon="-4.43651">
        <ele>58.3</ele>
        <time>2019-08-23T13:58:19Z</time>
      </trkpt>
      <trkpt lat="48.34884" lon="-4.43673">
        <ele>58.3</ele>
        <time>2019-08-23T13:58:30Z</time>
      </trkpt>
      <trkpt lat="48.34914" lon="-4.43686">
        <ele>57.34</ele>
        <time>2019-08-23T13:58:39Z</time>
      </trkpt>
      <trkpt lat="48.34929" lon="-4.43699">
        <ele>56.86</ele>
        <time>2019-08-23T13:58:43Z</time>
      </trkpt>
      <trkpt lat="48.34959" lon="-4.4372">
        <ele>55.89</ele>
        <time>2019-08-23T13:58:52Z</time>
      </trkpt>
      <trkpt lat="48.3498" lon="-4.43727">
        <ele>54.45</ele>
        <time>2019-08-23T13:58:56Z</time>
      </trkpt>
      <trkpt lat="48.34995" lon="-4.43731">
        <ele>53.97</ele>
        <time>2019-08-23T13:58:59Z</time>
      </trkpt>
      <trkpt lat="48.34999" lon="-4.43733">
        <ele>53.97</ele>
        <time>2019-08-23T13:59:00Z</time>
      </trkpt>
      <trkpt lat="48.35004" lon="-4.43735">
        <ele>53.97</ele>
        <time>2019-08-23T13:59:01Z</time>
      </trkpt>
      <trkpt lat="48.35008" lon="-4.43736">
        <ele>54.93</ele>
        <time>2019-08-23T13:59:02Z</time>
      </trkpt>
      <trkpt lat="48.35012" lon="-4.43738">
        <ele>54.45</ele>
        <time>2019-08-23T13:59:03Z</time>
      </trkpt>
      <trkpt lat="48.35052" lon="-4.43766">
        <ele>54.45</ele>
        <time>2019-08-23T13:59:15Z</time>
      </trkpt>
      <trkpt lat="48.3509" lon="-4.43778">
        <ele>54.93</ele>
        <time>2019-08-23T13:59:26Z</time>
      </trkpt>
      <trkpt lat="48.35129" lon="-4.43792">
        <ele>54.93</ele>
        <time>2019-08-23T13:59:37Z</time>
      </trkpt>
      <trkpt lat="48.35181" lon="-4.43807">
        <ele>54.93</ele>
        <time>2019-08-23T13:59:50Z</time>
      </trkpt>
      <trkpt lat="48.35221" lon="-4.43821">
        <ele>55.89</ele>
        <time>2019-08-23T14:00:01Z</time>
      </trkpt>
      <trkpt lat="48.35223" lon="-4.43819">
        <ele>55.89</ele>
        <time>2019-08-23T14:00:02Z</time>
      </trkpt>
      <trkpt lat="48.35225" lon="-4.43817">
        <ele>56.37</ele>
        <time>2019-08-23T14:00:03Z</time>
      </trkpt>
      <trkpt lat="48.35228" lon="-4.43815">
        <ele>56.37</ele>
        <time>2019-08-23T14:00:04Z</time>
      </trkpt>
      <trkpt lat="48.35229" lon="-4.43812">
        <ele>56.86</ele>
        <time>2019-08-23T14:00:05Z</time>
      </trkpt>
      <trkpt lat="48.35232" lon="-4.43811">
        <ele>57.34</ele>
        <time>2019-08-23T14:00:06Z</time>
      </trkpt>
      <trkpt lat="48.35234" lon="-4.43809">
        <ele>57.34</ele>
        <time>2019-08-23T14:00:07Z</time>
      </trkpt>
      <trkpt lat="48.35237" lon="-4.43806">
        <ele>57.82</ele>
        <time>2019-08-23T14:00:08Z</time>
      </trkpt>
      <trkpt lat="48.3524" lon="-4.43804">
        <ele>57.82</ele>
        <time>2019-08-23T14:00:09Z</time>
      </trkpt>
      <trkpt lat="48.35242" lon="-4.43803">
        <ele>57.82</ele>
        <time>2019-08-23T14:00:10Z</time>
      </trkpt>
      <trkpt lat="48.35244" lon="-4.438">
        <ele>58.3</ele>
        <time>2019-08-23T14:00:11Z</time>
      </trkpt>
      <trkpt lat="48.3527" lon="-4.4375">
        <ele>59.74</ele>
        <time>2019-08-23T14:00:25Z</time>
      </trkpt>
      <trkpt lat="48.35279" lon="-4.43737">
        <ele>59.26</ele>
        <time>2019-08-23T14:00:28Z</time>
      </trkpt>
      <trkpt lat="48.35282" lon="-4.43732">
        <ele>58.78</ele>
        <time>2019-08-23T14:00:29Z</time>
      </trkpt>
      <trkpt lat="48.35308" lon="-4.43693">
        <ele>55.41</ele>
        <time>2019-08-23T14:00:35Z</time>
      </trkpt>
      <trkpt lat="48.35321" lon="-4.43669">
        <ele>52.53</ele>
        <time>2019-08-23T14:00:38Z</time>
      </trkpt>
      <trkpt lat="48.35323" lon="-4.43661">
        <ele>52.53</ele>
        <time>2019-08-23T14:00:39Z</time>
      </trkpt>
      <trkpt lat="48.35328" lon="-4.43643">
        <ele>53.01</ele>
        <time>2019-08-23T14:00:42Z</time>
      </trkpt>
      <trkpt lat="48.35326" lon="-4.43638">
        <ele>52.53</ele>
        <time>2019-08-23T14:00:43Z</time>
      </trkpt>
      <trkpt lat="48.35324" lon="-4.43635">
        <ele>52.53</ele>
        <time>2019-08-23T14:00:44Z</time>
      </trkpt>
      <trkpt lat="48.35296" lon="-4.43599">
        <ele>55.41</ele>
        <time>2019-08-23T14:00:57Z</time>
      </trkpt>
      <trkpt lat="48.35265" lon="-4.43565">
        <ele>57.34</ele>
        <time>2019-08-23T14:01:11Z</time>
      </trkpt>
      <trkpt lat="48.35225" lon="-4.43521">
        <ele>58.78</ele>
        <time>2019-08-23T14:01:28Z</time>
      </trkpt>
      <trkpt lat="48.35223" lon="-4.43479">
        <ele>59.74</ele>
        <time>2019-08-23T14:01:39Z</time>
      </trkpt>
      <trkpt lat="48.35244" lon="-4.43417">
        <ele>60.22</ele>
        <time>2019-08-23T14:01:54Z</time>
      </trkpt>
      <trkpt lat="48.35263" lon="-4.43367">
        <ele>60.22</ele>
        <time>2019-08-23T14:02:05Z</time>
      </trkpt>
      <trkpt lat="48.35262" lon="-4.43362">
        <ele>60.22</ele>
        <time>2019-08-23T14:02:06Z</time>
      </trkpt>
      <trkpt lat="48.3526" lon="-4.43358">
        <ele>60.22</ele>
        <time>2019-08-23T14:02:07Z</time>
      </trkpt>
      <trkpt lat="48.35259" lon="-4.43354">
        <ele>60.22</ele>
        <time>2019-08-23T14:02:08Z</time>
      </trkpt>
      <trkpt lat="48.35258" lon="-4.4335">
        <ele>60.7</ele>
        <time>2019-08-23T14:02:09Z</time>
      </trkpt>
      <trkpt lat="48.3524" lon="-4.43329">
        <ele>61.66</ele>
        <time>2019-08-23T14:02:19Z</time>
      </trkpt>
      <trkpt lat="48.35238" lon="-4.43329">
        <ele>62.14</ele>
        <time>2019-08-23T14:02:20Z</time>
      </trkpt>
      <trkpt lat="48.35236" lon="-4.43329">
        <ele>62.14</ele>
        <time>2019-08-23T14:02:21Z</time>
      </trkpt>
      <trkpt lat="48.35212" lon="-4.43326">
        <ele>63.58</ele>
        <time>2019-08-23T14:02:31Z</time>
      </trkpt>
      <trkpt lat="48.35198" lon="-4.43319">
        <ele>64.07</ele>
        <time>2019-08-23T14:02:37Z</time>
      </trkpt>
      <trkpt lat="48.35196" lon="-4.43316">
        <ele>64.55</ele>
        <time>2019-08-23T14:02:38Z</time>
      </trkpt>
      <trkpt lat="48.35194" lon="-4.43314">
        <ele>64.55</ele>
        <time>2019-08-23T14:02:39Z</time>
      </trkpt>
      <trkpt lat="48.35191" lon="-4.43311">
        <ele>64.55</ele>
        <time>2019-08-23T14:02:40Z</time>
      </trkpt>
      <trkpt lat="48.35189" lon="-4.43308">
        <ele>64.55</ele>
        <time>2019-08-23T14:02:41Z</time>
      </trkpt>
      <trkpt lat="48.35187" lon="-4.43306">
        <ele>65.03</ele>
        <time>2019-08-23T14:02:42Z</time>
      </trkpt>
      <trkpt lat="48.35185" lon="-4.43303">
        <ele>65.03</ele>
        <time>2019-08-23T14:02:43Z</time>
      </trkpt>
      <trkpt lat="48.35183" lon="-4.433">
        <ele>65.03</ele>
        <time>2019-08-23T14:02:44Z</time>
      </trkpt>
      <trkpt lat="48.35181" lon="-4.43297">
        <ele>65.03</ele>
        <time>2019-08-23T14:02:45Z</time>
      </trkpt>
      <trkpt lat="48.35179" lon="-4.43294">
        <ele>65.03</ele>
        <time>2019-08-23T14:02:46Z</time>
      </trkpt>
      <trkpt lat="48.35156" lon="-4.43268">
        <ele>65.51</ele>
        <time>2019-08-23T14:02:57Z</time>
      </trkpt>
      <trkpt lat="48.35131" lon="-4.4326">
        <ele>65.51</ele>
        <time>2019-08-23T14:03:07Z</time>
      </trkpt>
      <trkpt lat="48.35102" lon="-4.43263">
        <ele>65.03</ele>
        <time>2019-08-23T14:03:16Z</time>
      </trkpt>
      <trkpt lat="48.35071" lon="-4.43262">
        <ele>64.07</ele>
        <time>2019-08-23T14:03:26Z</time>
      </trkpt>
      <trkpt lat="48.35038" lon="-4.43266">
        <ele>63.1</ele>
        <time>2019-08-23T14:03:35Z</time>
      </trkpt>
      <trkpt lat="48.35027" lon="-4.43275">
        <ele>62.14</ele>
        <time>2019-08-23T14:03:39Z</time>
      </trkpt>
      <trkpt lat="48.35023" lon="-4.43274">
        <ele>62.14</ele>
        <time>2019-08-23T14:03:40Z</time>
      </trkpt>
      <trkpt lat="48.3502" lon="-4.43273">
        <ele>62.14</ele>
        <time>2019-08-23T14:03:41Z</time>
      </trkpt>
      <trkpt lat="48.35017" lon="-4.43271">
        <ele>61.66</ele>
        <time>2019-08-23T14:03:42Z</time>
      </trkpt>
      <trkpt lat="48.35014" lon="-4.43268">
        <ele>61.18</ele>
        <time>2019-08-23T14:03:43Z</time>
      </trkpt>
      <trkpt lat="48.35011" lon="-4.43265">
        <ele>61.18</ele>
        <time>2019-08-23T14:03:44Z</time>
      </trkpt>
      <trkpt lat="48.35001" lon="-4.43254">
        <ele>60.22</ele>
        <time>2019-08-23T14:03:47Z</time>
      </trkpt>
      <trkpt lat="48.34976" lon="-4.43221">
        <ele>57.34</ele>
        <time>2019-08-23T14:03:57Z</time>
      </trkpt>
      <trkpt lat="48.34954" lon="-4.43194">
        <ele>54.45</ele>
        <time>2019-08-23T14:04:06Z</time>
      </trkpt>
      <trkpt lat="48.34945" lon="-4.43181">
        <ele>53.49</ele>
        <time>2019-08-23T14:04:12Z</time>
      </trkpt>
      <trkpt lat="48.34944" lon="-4.43179">
        <ele>53.01</ele>
        <time>2019-08-23T14:04:13Z</time>
      </trkpt>
      <trkpt lat="48.34943" lon="-4.43177">
        <ele>53.01</ele>
        <time>2019-08-23T14:04:14Z</time>
      </trkpt>
      <trkpt lat="48.34941" lon="-4.43175">
        <ele>53.01</ele>
        <time>2019-08-23T14:04:15Z</time>
      </trkpt>
      <trkpt lat="48.34939" lon="-4.43172">
        <ele>52.53</ele>
        <time>2019-08-23T14:04:16Z</time>
      </trkpt>
      <trkpt lat="48.34937" lon="-4.4317">
        <ele>52.53</ele>
        <time>2019-08-23T14:04:17Z</time>
      </trkpt>
      <trkpt lat="48.34935" lon="-4.43168">
        <ele>52.05</ele>
        <time>2019-08-23T14:04:18Z</time>
      </trkpt>
      <trkpt lat="48.34933" lon="-4.43167">
        <ele>51.57</ele>
        <time>2019-08-23T14:04:19Z</time>
      </trkpt>
      <trkpt lat="48.34932" lon="-4.43165">
        <ele>51.57</ele>
        <time>2019-08-23T14:04:20Z</time>
      </trkpt>
      <trkpt lat="48.3493" lon="-4.43163">
        <ele>51.09</ele>
        <time>2019-08-23T14:04:21Z</time>
      </trkpt>
      <trkpt lat="48.34928" lon="-4.43162">
        <ele>51.09</ele>
        <time>2019-08-23T14:04:22Z</time>
      </trkpt>
      <trkpt lat="48.34926" lon="-4.43161">
        <ele>51.09</ele>
        <time>2019-08-23T14:04:23Z</time>
      </trkpt>
      <trkpt lat="48.34924" lon="-4.43159">
        <ele>50.61</ele>
        <time>2019-08-23T14:04:24Z</time>
      </trkpt>
      <trkpt lat="48.34922" lon="-4.43156">
        <ele>50.61</ele>
        <time>2019-08-23T14:04:25Z</time>
      </trkpt>
      <trkpt lat="48.3492" lon="-4.43154">
        <ele>50.13</ele>
        <time>2019-08-23T14:04:26Z</time>
      </trkpt>
      <trkpt lat="48.34918" lon="-4.43152">
        <ele>49.65</ele>
        <time>2019-08-23T14:04:27Z</time>
      </trkpt>
      <trkpt lat="48.34891" lon="-4.43129">
        <ele>46.76</ele>
        <time>2019-08-23T14:04:36Z</time>
      </trkpt>
      <trkpt lat="48.34888" lon="-4.43127">
        <ele>46.28</ele>
        <time>2019-08-23T14:04:37Z</time>
      </trkpt>
      <trkpt lat="48.34876" lon="-4.43123">
        <ele>45.32</ele>
        <time>2019-08-23T14:04:42Z</time>
      </trkpt>
      <trkpt lat="48.34874" lon="-4.43124">
        <ele>45.32</ele>
        <time>2019-08-23T14:04:43Z</time>
      </trkpt>
      <trkpt lat="48.34872" lon="-4.43126">
        <ele>45.32</ele>
        <time>2019-08-23T14:04:44Z</time>
      </trkpt>
      <trkpt lat="48.34871" lon="-4.43127">
        <ele>45.32</ele>
        <time>2019-08-23T14:04:45Z</time>
      </trkpt>
      <trkpt lat="48.34869" lon="-4.43128">
        <ele>45.32</ele>
        <time>2019-08-23T14:04:46Z</time>
      </trkpt>
      <trkpt lat="48.34868" lon="-4.4313">
        <ele>45.32</ele>
        <time>2019-08-23T14:04:47Z</time>
      </trkpt>
      <trkpt lat="48.34866" lon="-4.43132">
        <ele>45.32</ele>
        <time>2019-08-23T14:04:48Z</time>
      </trkpt>
      <trkpt lat="48.34861" lon="-4.43136">
        <ele>45.32</ele>
        <time>2019-08-23T14:05:01Z</time>
      </trkpt>
      <trkpt lat="48.3486" lon="-4.43136">
        <ele>45.32</ele>
        <time>2019-08-23T14:05:23Z</time>
      </trkpt>
      <trkpt lat="48.34859" lon="-4.43137">
        <ele>44.84</ele>
        <time>2019-08-23T14:05:38Z</time>
      </trkpt>
      <trkpt lat="48.34859" lon="-4.4314">
        <ele>45.32</ele>
        <time>2019-08-23T14:05:39Z</time>
      </trkpt>
      <trkpt lat="48.34858" lon="-4.43143">
        <ele>44.84</ele>
        <time>2019-08-23T14:05:40Z</time>
      </trkpt>
      <trkpt lat="48.34857" lon="-4.43145">
        <ele>45.32</ele>
        <time>2019-08-23T14:05:41Z</time>
      </trkpt>
      <trkpt lat="48.34855" lon="-4.43148">
        <ele>45.32</ele>
        <time>2019-08-23T14:05:42Z</time>
      </trkpt>
      <trkpt lat="48.34854" lon="-4.43151">
        <ele>44.84</ele>
        <time>2019-08-23T14:05:43Z</time>
      </trkpt>
      <trkpt lat="48.34851" lon="-4.43154">
        <ele>44.84</ele>
        <time>2019-08-23T14:05:44Z</time>
      </trkpt>
      <trkpt lat="48.34822" lon="-4.43185">
        <ele>43.4</ele>
        <time>2019-08-23T14:05:55Z</time>
      </trkpt>
      <trkpt lat="48.34818" lon="-4.43186">
        <ele>42.44</ele>
        <time>2019-08-23T14:05:56Z</time>
      </trkpt>
      <trkpt lat="48.34812" lon="-4.43184">
        <ele>41.95</ele>
        <time>2019-08-23T14:05:57Z</time>
      </trkpt>
      <trkpt lat="48.34805" lon="-4.4318">
        <ele>40.51</ele>
        <time>2019-08-23T14:05:58Z</time>
      </trkpt>
      <trkpt lat="48.34798" lon="-4.43174">
        <ele>39.55</ele>
        <time>2019-08-23T14:05:59Z</time>
      </trkpt>
      <trkpt lat="48.34773" lon="-4.43151">
        <ele>35.23</ele>
        <time>2019-08-23T14:06:02Z</time>
      </trkpt>
      <trkpt lat="48.34757" lon="-4.43133">
        <ele>32.34</ele>
        <time>2019-08-23T14:06:04Z</time>
      </trkpt>
      <trkpt lat="48.3473" lon="-4.43105">
        <ele>28.98</ele>
        <time>2019-08-23T14:06:08Z</time>
      </trkpt>
      <trkpt lat="48.34715" lon="-4.43087">
        <ele>27.05</ele>
        <time>2019-08-23T14:06:11Z</time>
      </trkpt>
      <trkpt lat="48.34711" lon="-4.4308">
        <ele>26.09</ele>
        <time>2019-08-23T14:06:12Z</time>
      </trkpt>
      <trkpt lat="48.34696" lon="-4.43053">
        <ele>23.21</ele>
        <time>2019-08-23T14:06:16Z</time>
      </trkpt>
      <trkpt lat="48.34691" lon="-4.43043">
        <ele>22.25</ele>
        <time>2019-08-23T14:06:18Z</time>
      </trkpt>
      <trkpt lat="48.34687" lon="-4.43037">
        <ele>22.25</ele>
        <time>2019-08-23T14:06:21Z</time>
      </trkpt>
      <trkpt lat="48.34686" lon="-4.43035">
        <ele>22.25</ele>
        <time>2019-08-23T14:06:22Z</time>
      </trkpt>
      <trkpt lat="48.34684" lon="-4.43035">
        <ele>21.77</ele>
        <time>2019-08-23T14:06:23Z</time>
      </trkpt>
      <trkpt lat="48.34682" lon="-4.43034">
        <ele>21.77</ele>
        <time>2019-08-23T14:06:25Z</time>
      </trkpt>
      <trkpt lat="48.34682" lon="-4.43033">
        <ele>21.77</ele>
        <time>2019-08-23T14:06:26Z</time>
      </trkpt>
      <trkpt lat="48.34681" lon="-4.43031">
        <ele>21.29</ele>
        <time>2019-08-23T14:06:27Z</time>
      </trkpt>
      <trkpt lat="48.3468" lon="-4.4303">
        <ele>21.29</ele>
        <time>2019-08-23T14:06:28Z</time>
      </trkpt>
      <trkpt lat="48.34679" lon="-4.43028">
        <ele>20.81</ele>
        <time>2019-08-23T14:06:29Z</time>
      </trkpt>
      <trkpt lat="48.34679" lon="-4.43026">
        <ele>20.81</ele>
        <time>2019-08-23T14:06:30Z</time>
      </trkpt>
      <trkpt lat="48.34678" lon="-4.43025">
        <ele>20.32</ele>
        <time>2019-08-23T14:06:31Z</time>
      </trkpt>
      <trkpt lat="48.34677" lon="-4.43024">
        <ele>19.84</ele>
        <time>2019-08-23T14:06:32Z</time>
      </trkpt>
      <trkpt lat="48.34675" lon="-4.43022">
        <ele>19.36</ele>
        <time>2019-08-23T14:06:33Z</time>
      </trkpt>
      <trkpt lat="48.34672" lon="-4.43019">
        <ele>18.88</ele>
        <time>2019-08-23T14:06:34Z</time>
      </trkpt>
      <trkpt lat="48.3467" lon="-4.43016">
        <ele>18.88</ele>
        <time>2019-08-23T14:06:35Z</time>
      </trkpt>
      <trkpt lat="48.34668" lon="-4.43014">
        <ele>18.4</ele>
        <time>2019-08-23T14:06:36Z</time>
      </trkpt>
      <trkpt lat="48.34665" lon="-4.4301">
        <ele>17.44</ele>
        <time>2019-08-23T14:06:37Z</time>
      </trkpt>
      <trkpt lat="48.34662" lon="-4.43003">
        <ele>17.44</ele>
        <time>2019-08-23T14:06:38Z</time>
      </trkpt>
      <trkpt lat="48.3466" lon="-4.42996">
        <ele>16.96</ele>
        <time>2019-08-23T14:06:39Z</time>
      </trkpt>
      <trkpt lat="48.34658" lon="-4.42988">
        <ele>16.48</ele>
        <time>2019-08-23T14:06:40Z</time>
      </trkpt>
      <trkpt lat="48.34656" lon="-4.4298">
        <ele>16</ele>
        <time>2019-08-23T14:06:41Z</time>
      </trkpt>
      <trkpt lat="48.34649" lon="-4.42943">
        <ele>13.12</ele>
        <time>2019-08-23T14:06:45Z</time>
      </trkpt>
      <trkpt lat="48.34643" lon="-4.42915">
        <ele>12.15</ele>
        <time>2019-08-23T14:06:48Z</time>
      </trkpt>
      <trkpt lat="48.34642" lon="-4.42907">
        <ele>11.67</ele>
        <time>2019-08-23T14:06:49Z</time>
      </trkpt>
      <trkpt lat="48.34639" lon="-4.42899">
        <ele>11.19</ele>
        <time>2019-08-23T14:06:50Z</time>
      </trkpt>
      <trkpt lat="48.34635" lon="-4.42891">
        <ele>11.19</ele>
        <time>2019-08-23T14:06:51Z</time>
      </trkpt>
      <trkpt lat="48.34631" lon="-4.42886">
        <ele>11.19</ele>
        <time>2019-08-23T14:06:52Z</time>
      </trkpt>
      <trkpt lat="48.34628" lon="-4.42881">
        <ele>11.19</ele>
        <time>2019-08-23T14:06:53Z</time>
      </trkpt>
      <trkpt lat="48.34614" lon="-4.42852">
        <ele>12.15</ele>
        <time>2019-08-23T14:07:01Z</time>
      </trkpt>
      <trkpt lat="48.34616" lon="-4.42846">
        <ele>12.63</ele>
        <time>2019-08-23T14:07:05Z</time>
      </trkpt>
      <trkpt lat="48.34618" lon="-4.42845">
        <ele>12.63</ele>
        <time>2019-08-23T14:07:06Z</time>
      </trkpt>
      <trkpt lat="48.34638" lon="-4.42817">
        <ele>13.6</ele>
        <time>2019-08-23T14:07:18Z</time>
      </trkpt>
      <trkpt lat="48.34658" lon="-4.42785">
        <ele>13.6</ele>
        <time>2019-08-23T14:07:28Z</time>
      </trkpt>
      <trkpt lat="48.34674" lon="-4.42753">
        <ele>15.04</ele>
        <time>2019-08-23T14:07:38Z</time>
      </trkpt>
      <trkpt lat="48.34683" lon="-4.42728">
        <ele>15.52</ele>
        <time>2019-08-23T14:07:45Z</time>
      </trkpt>
      <trkpt lat="48.34683" lon="-4.42726">
        <ele>16</ele>
        <time>2019-08-23T14:07:46Z</time>
      </trkpt>
      <trkpt lat="48.34685" lon="-4.42722">
        <ele>16</ele>
        <time>2019-08-23T14:07:47Z</time>
      </trkpt>
      <trkpt lat="48.34686" lon="-4.42719">
        <ele>16</ele>
        <time>2019-08-23T14:07:48Z</time>
      </trkpt>
      <trkpt lat="48.34687" lon="-4.42716">
        <ele>16.48</ele>
        <time>2019-08-23T14:07:49Z</time>
      </trkpt>
      <trkpt lat="48.34689" lon="-4.42713">
        <ele>16.48</ele>
        <time>2019-08-23T14:07:50Z</time>
      </trkpt>
      <trkpt lat="48.34691" lon="-4.4271">
        <ele>16.48</ele>
        <time>2019-08-23T14:07:51Z</time>
      </trkpt>
      <trkpt lat="48.34693" lon="-4.42708">
        <ele>16.48</ele>
        <time>2019-08-23T14:07:52Z</time>
      </trkpt>
      <trkpt lat="48.3472" lon="-4.42678">
        <ele>16</ele>
        <time>2019-08-23T14:08:03Z</time>
      </trkpt>
      <trkpt lat="48.34743" lon="-4.42648">
        <ele>16.96</ele>
        <time>2019-08-23T14:08:12Z</time>
      </trkpt>
      <trkpt lat="48.34768" lon="-4.42624">
        <ele>18.4</ele>
        <time>2019-08-23T14:08:24Z</time>
      </trkpt>
      <trkpt lat="48.34788" lon="-4.42606">
        <ele>18.88</ele>
        <time>2019-08-23T14:08:33Z</time>
      </trkpt>
      <trkpt lat="48.3481" lon="-4.42587">
        <ele>19.84</ele>
        <time>2019-08-23T14:08:43Z</time>
      </trkpt>
      <trkpt lat="48.3481" lon="-4.42587">
        <ele>19.84</ele>
        <time>2019-08-23T14:08:44Z</time>
      </trkpt>
      <trkpt lat="48.34811" lon="-4.42586">
        <ele>19.36</ele>
        <time>2019-08-23T14:08:45Z</time>
      </trkpt>
      <trkpt lat="48.34814" lon="-4.42586">
        <ele>18.88</ele>
        <time>2019-08-23T14:08:46Z</time>
      </trkpt>
      <trkpt lat="48.34817" lon="-4.42588">
        <ele>18.88</ele>
        <time>2019-08-23T14:08:47Z</time>
      </trkpt>
      <trkpt lat="48.34821" lon="-4.42591">
        <ele>18.4</ele>
        <time>2019-08-23T14:08:48Z</time>
      </trkpt>
      <trkpt lat="48.34842" lon="-4.42606">
        <ele>16.96</ele>
        <time>2019-08-23T14:08:53Z</time>
      </trkpt>
      <trkpt lat="48.34846" lon="-4.42605">
        <ele>16.96</ele>
        <time>2019-08-23T14:08:54Z</time>
      </trkpt>
      <trkpt lat="48.3485" lon="-4.42605">
        <ele>16.96</ele>
        <time>2019-08-23T14:08:55Z</time>
      </trkpt>
      <trkpt lat="48.34853" lon="-4.42605">
        <ele>17.44</ele>
        <time>2019-08-23T14:08:56Z</time>
      </trkpt>
      <trkpt lat="48.34857" lon="-4.42605">
        <ele>17.44</ele>
        <time>2019-08-23T14:08:57Z</time>
      </trkpt>
      <trkpt lat="48.3486" lon="-4.42604">
        <ele>16.96</ele>
        <time>2019-08-23T14:08:58Z</time>
      </trkpt>
      <trkpt lat="48.34863" lon="-4.42604">
        <ele>16.96</ele>
        <time>2019-08-23T14:08:59Z</time>
      </trkpt>
      <trkpt lat="48.34866" lon="-4.42603">
        <ele>16.96</ele>
        <time>2019-08-23T14:09:00Z</time>
      </trkpt>
      <trkpt lat="48.34868" lon="-4.42601">
        <ele>17.44</ele>
        <time>2019-08-23T14:09:01Z</time>
      </trkpt>
      <trkpt lat="48.34871" lon="-4.426">
        <ele>17.44</ele>
        <time>2019-08-23T14:09:02Z</time>
      </trkpt>
      <trkpt lat="48.34873" lon="-4.42597">
        <ele>17.44</ele>
        <time>2019-08-23T14:09:03Z</time>
      </trkpt>
      <trkpt lat="48.34876" lon="-4.42595">
        <ele>18.88</ele>
        <time>2019-08-23T14:09:04Z</time>
      </trkpt>
      <trkpt lat="48.34878" lon="-4.42594">
        <ele>17.92</ele>
        <time>2019-08-23T14:09:05Z</time>
      </trkpt>
      <trkpt lat="48.3488" lon="-4.42592">
        <ele>17.92</ele>
        <time>2019-08-23T14:09:06Z</time>
      </trkpt>
      <trkpt lat="48.34882" lon="-4.4259">
        <ele>18.4</ele>
        <time>2019-08-23T14:09:07Z</time>
      </trkpt>
      <trkpt lat="48.34884" lon="-4.42589">
        <ele>18.4</ele>
        <time>2019-08-23T14:09:08Z</time>
      </trkpt>
      <trkpt lat="48.34885" lon="-4.42589">
        <ele>18.4</ele>
        <time>2019-08-23T14:09:09Z</time>
      </trkpt>
      <trkpt lat="48.34887" lon="-4.4259">
        <ele>18.88</ele>
        <time>2019-08-23T14:09:10Z</time>
      </trkpt>
      <trkpt lat="48.34889" lon="-4.4259">
        <ele>18.4</ele>
        <time>2019-08-23T14:09:11Z</time>
      </trkpt>
      <trkpt lat="48.34892" lon="-4.42591">
        <ele>18.88</ele>
        <time>2019-08-23T14:09:12Z</time>
      </trkpt>
      <trkpt lat="48.34894" lon="-4.42591">
        <ele>18.88</ele>
        <time>2019-08-23T14:09:13Z</time>
      </trkpt>
      <trkpt lat="48.34896" lon="-4.42591">
        <ele>18.88</ele>
        <time>2019-08-23T14:09:14Z</time>
      </trkpt>
      <trkpt lat="48.34898" lon="-4.42592">
        <ele>18.88</ele>
        <time>2019-08-23T14:09:15Z</time>
      </trkpt>
      <trkpt lat="48.34901" lon="-4.42592">
        <ele>18.88</ele>
        <time>2019-08-23T14:09:16Z</time>
      </trkpt>
      <trkpt lat="48.34905" lon="-4.42593">
        <ele>18.88</ele>
        <time>2019-08-23T14:09:17Z</time>
      </trkpt>
      <trkpt lat="48.34907" lon="-4.42593">
        <ele>18.88</ele>
        <time>2019-08-23T14:09:18Z</time>
      </trkpt>
      <trkpt lat="48.34913" lon="-4.42593">
        <ele>18.88</ele>
        <time>2019-08-23T14:09:22Z</time>
      </trkpt>
      <trkpt lat="48.34913" lon="-4.42586">
        <ele>19.36</ele>
        <time>2019-08-23T14:09:25Z</time>
      </trkpt>
      <trkpt lat="48.3492" lon="-4.4256">
        <ele>19.84</ele>
        <time>2019-08-23T14:09:34Z</time>
      </trkpt>
      <trkpt lat="48.34919" lon="-4.42558">
        <ele>20.32</ele>
        <time>2019-08-23T14:09:35Z</time>
      </trkpt>
      <trkpt lat="48.34919" lon="-4.42556">
        <ele>20.32</ele>
        <time>2019-08-23T14:09:36Z</time>
      </trkpt>
      <trkpt lat="48.34918" lon="-4.42553">
        <ele>20.32</ele>
        <time>2019-08-23T14:09:37Z</time>
      </trkpt>
      <trkpt lat="48.34919" lon="-4.4255">
        <ele>20.81</ele>
        <time>2019-08-23T14:09:38Z</time>
      </trkpt>
      <trkpt lat="48.34919" lon="-4.42547">
        <ele>20.81</ele>
        <time>2019-08-23T14:09:39Z</time>
      </trkpt>
      <trkpt lat="48.34919" lon="-4.42544">
        <ele>20.81</ele>
        <time>2019-08-23T14:09:40Z</time>
      </trkpt>
      <trkpt lat="48.34922" lon="-4.42528">
        <ele>21.29</ele>
        <time>2019-08-23T14:09:47Z</time>
      </trkpt>
      <trkpt lat="48.34923" lon="-4.42524">
        <ele>21.77</ele>
        <time>2019-08-23T14:09:48Z</time>
      </trkpt>
      <trkpt lat="48.34923" lon="-4.42521">
        <ele>22.25</ele>
        <time>2019-08-23T14:09:49Z</time>
      </trkpt>
      <trkpt lat="48.34924" lon="-4.42516">
        <ele>22.25</ele>
        <time>2019-08-23T14:09:51Z</time>
      </trkpt>
      <trkpt lat="48.34924" lon="-4.42512">
        <ele>22.25</ele>
        <time>2019-08-23T14:09:52Z</time>
      </trkpt>
      <trkpt lat="48.34925" lon="-4.42509">
        <ele>22.73</ele>
        <time>2019-08-23T14:09:53Z</time>
      </trkpt>
      <trkpt lat="48.34926" lon="-4.42505">
        <ele>22.73</ele>
        <time>2019-08-23T14:09:54Z</time>
      </trkpt>
      <trkpt lat="48.34927" lon="-4.42486">
        <ele>23.69</ele>
        <time>2019-08-23T14:09:59Z</time>
      </trkpt>
      <trkpt lat="48.34926" lon="-4.42478">
        <ele>24.17</ele>
        <time>2019-08-23T14:10:02Z</time>
      </trkpt>
      <trkpt lat="48.34925" lon="-4.42475">
        <ele>24.17</ele>
        <time>2019-08-23T14:10:03Z</time>
      </trkpt>
      <trkpt lat="48.34924" lon="-4.42472">
        <ele>24.17</ele>
        <time>2019-08-23T14:10:04Z</time>
      </trkpt>
      <trkpt lat="48.34923" lon="-4.4247">
        <ele>24.17</ele>
        <time>2019-08-23T14:10:05Z</time>
      </trkpt>
      <trkpt lat="48.34922" lon="-4.42468">
        <ele>24.65</ele>
        <time>2019-08-23T14:10:06Z</time>
      </trkpt>
      <trkpt lat="48.34921" lon="-4.42465">
        <ele>24.65</ele>
        <time>2019-08-23T14:10:07Z</time>
      </trkpt>
      <trkpt lat="48.34921" lon="-4.42462">
        <ele>25.13</ele>
        <time>2019-08-23T14:10:08Z</time>
      </trkpt>
      <trkpt lat="48.34919" lon="-4.42458">
        <ele>25.13</ele>
        <time>2019-08-23T14:10:09Z</time>
      </trkpt>
      <trkpt lat="48.34918" lon="-4.42456">
        <ele>25.13</ele>
        <time>2019-08-23T14:10:10Z</time>
      </trkpt>
      <trkpt lat="48.34917" lon="-4.42455">
        <ele>26.09</ele>
        <time>2019-08-23T14:10:11Z</time>
      </trkpt>
      <trkpt lat="48.34915" lon="-4.42454">
        <ele>26.09</ele>
        <time>2019-08-23T14:10:12Z</time>
      </trkpt>
      <trkpt lat="48.34914" lon="-4.42453">
        <ele>26.57</ele>
        <time>2019-08-23T14:10:13Z</time>
      </trkpt>
      <trkpt lat="48.34912" lon="-4.42453">
        <ele>26.57</ele>
        <time>2019-08-23T14:10:14Z</time>
      </trkpt>
      <trkpt lat="48.34903" lon="-4.42453">
        <ele>28.98</ele>
        <time>2019-08-23T14:10:26Z</time>
      </trkpt>
      <trkpt lat="48.34897" lon="-4.42451">
        <ele>29.46</ele>
        <time>2019-08-23T14:10:31Z</time>
      </trkpt>
      <trkpt lat="48.34889" lon="-4.42449">
        <ele>30.42</ele>
        <time>2019-08-23T14:10:39Z</time>
      </trkpt>
      <trkpt lat="48.34888" lon="-4.42449">
        <ele>30.42</ele>
        <time>2019-08-23T14:10:40Z</time>
      </trkpt>
      <trkpt lat="48.34876" lon="-4.42445">
        <ele>32.82</ele>
        <time>2019-08-23T14:10:50Z</time>
      </trkpt>
      <trkpt lat="48.34861" lon="-4.42444">
        <ele>33.78</ele>
        <time>2019-08-23T14:10:58Z</time>
      </trkpt>
      <trkpt lat="48.34859" lon="-4.42445">
        <ele>34.26</ele>
        <time>2019-08-23T14:10:59Z</time>
      </trkpt>
      <trkpt lat="48.34855" lon="-4.42446">
        <ele>34.74</ele>
        <time>2019-08-23T14:11:01Z</time>
      </trkpt>
      <trkpt lat="48.34853" lon="-4.42447">
        <ele>35.23</ele>
        <time>2019-08-23T14:11:02Z</time>
      </trkpt>
      <trkpt lat="48.34839" lon="-4.42452">
        <ele>37.63</ele>
        <time>2019-08-23T14:11:10Z</time>
      </trkpt>
      <trkpt lat="48.34825" lon="-4.42466">
        <ele>40.03</ele>
        <time>2019-08-23T14:11:20Z</time>
      </trkpt>
      <trkpt lat="48.34823" lon="-4.42467">
        <ele>40.03</ele>
        <time>2019-08-23T14:11:21Z</time>
      </trkpt>
      <trkpt lat="48.34819" lon="-4.42469">
        <ele>40.51</ele>
        <time>2019-08-23T14:11:24Z</time>
      </trkpt>
      <trkpt lat="48.34805" lon="-4.42478">
        <ele>41.95</ele>
        <time>2019-08-23T14:11:35Z</time>
      </trkpt>
      <trkpt lat="48.34798" lon="-4.42482">
        <ele>42.92</ele>
        <time>2019-08-23T14:11:40Z</time>
      </trkpt>
      <trkpt lat="48.34796" lon="-4.42483">
        <ele>42.92</ele>
        <time>2019-08-23T14:11:41Z</time>
      </trkpt>
      <trkpt lat="48.34794" lon="-4.42483">
        <ele>42.92</ele>
        <time>2019-08-23T14:11:42Z</time>
      </trkpt>
      <trkpt lat="48.34792" lon="-4.42484">
        <ele>42.92</ele>
        <time>2019-08-23T14:11:43Z</time>
      </trkpt>
      <trkpt lat="48.34791" lon="-4.42485">
        <ele>43.4</ele>
        <time>2019-08-23T14:11:44Z</time>
      </trkpt>
      <trkpt lat="48.34789" lon="-4.42485">
        <ele>43.4</ele>
        <time>2019-08-23T14:11:45Z</time>
      </trkpt>
      <trkpt lat="48.34787" lon="-4.42487">
        <ele>43.4</ele>
        <time>2019-08-23T14:11:46Z</time>
      </trkpt>
      <trkpt lat="48.34772" lon="-4.42497">
        <ele>44.36</ele>
        <time>2019-08-23T14:11:55Z</time>
      </trkpt>
      <trkpt lat="48.34754" lon="-4.42508">
        <ele>44.84</ele>
        <time>2019-08-23T14:12:05Z</time>
      </trkpt>
      <trkpt lat="48.3473" lon="-4.42506">
        <ele>45.8</ele>
        <time>2019-08-23T14:12:16Z</time>
      </trkpt>
      <trkpt lat="48.34724" lon="-4.42502">
        <ele>45.8</ele>
        <time>2019-08-23T14:12:19Z</time>
      </trkpt>
      <trkpt lat="48.34722" lon="-4.425">
        <ele>45.8</ele>
        <time>2019-08-23T14:12:20Z</time>
      </trkpt>
      <trkpt lat="48.3471" lon="-4.42471">
        <ele>46.28</ele>
        <time>2019-08-23T14:12:31Z</time>
      </trkpt>
      <trkpt lat="48.34705" lon="-4.42458">
        <ele>47.24</ele>
        <time>2019-08-23T14:12:36Z</time>
      </trkpt>
      <trkpt lat="48.34704" lon="-4.42455">
        <ele>47.24</ele>
        <time>2019-08-23T14:12:37Z</time>
      </trkpt>
      <trkpt lat="48.34703" lon="-4.42451">
        <ele>47.24</ele>
        <time>2019-08-23T14:12:38Z</time>
      </trkpt>
      <trkpt lat="48.34702" lon="-4.42448">
        <ele>47.24</ele>
        <time>2019-08-23T14:12:39Z</time>
      </trkpt>
      <trkpt lat="48.34701" lon="-4.42444">
        <ele>47.72</ele>
        <time>2019-08-23T14:12:40Z</time>
      </trkpt>
      <trkpt lat="48.347" lon="-4.42441">
        <ele>47.72</ele>
        <time>2019-08-23T14:12:41Z</time>
      </trkpt>
      <trkpt lat="48.347" lon="-4.42439">
        <ele>47.72</ele>
        <time>2019-08-23T14:12:42Z</time>
      </trkpt>
      <trkpt lat="48.34692" lon="-4.42423">
        <ele>47.72</ele>
        <time>2019-08-23T14:12:51Z</time>
      </trkpt>
      <trkpt lat="48.34691" lon="-4.4242">
        <ele>47.24</ele>
        <time>2019-08-23T14:12:52Z</time>
      </trkpt>
      <trkpt lat="48.34689" lon="-4.42412">
        <ele>47.72</ele>
        <time>2019-08-23T14:12:55Z</time>
      </trkpt>
      <trkpt lat="48.34689" lon="-4.42409">
        <ele>47.24</ele>
        <time>2019-08-23T14:12:56Z</time>
      </trkpt>
      <trkpt lat="48.34688" lon="-4.42405">
        <ele>47.72</ele>
        <time>2019-08-23T14:12:57Z</time>
      </trkpt>
      <trkpt lat="48.34687" lon="-4.42401">
        <ele>47.72</ele>
        <time>2019-08-23T14:12:58Z</time>
      </trkpt>
      <trkpt lat="48.34686" lon="-4.42398">
        <ele>47.72</ele>
        <time>2019-08-23T14:12:59Z</time>
      </trkpt>
      <trkpt lat="48.34686" lon="-4.42394">
        <ele>48.2</ele>
        <time>2019-08-23T14:13:00Z</time>
      </trkpt>
      <trkpt lat="48.34686" lon="-4.42391">
        <ele>48.2</ele>
        <time>2019-08-23T14:13:01Z</time>
      </trkpt>
      <trkpt lat="48.34686" lon="-4.42388">
        <ele>48.2</ele>
        <time>2019-08-23T14:13:02Z</time>
      </trkpt>
      <trkpt lat="48.34686" lon="-4.42386">
        <ele>48.2</ele>
        <time>2019-08-23T14:13:03Z</time>
      </trkpt>
      <trkpt lat="48.34686" lon="-4.42383">
        <ele>49.16</ele>
        <time>2019-08-23T14:13:04Z</time>
      </trkpt>
      <trkpt lat="48.34687" lon="-4.42381">
        <ele>48.68</ele>
        <time>2019-08-23T14:13:05Z</time>
      </trkpt>
      <trkpt lat="48.34688" lon="-4.42361">
        <ele>49.65</ele>
        <time>2019-08-23T14:13:15Z</time>
      </trkpt>
      <trkpt lat="48.34688" lon="-4.42358">
        <ele>50.13</ele>
        <time>2019-08-23T14:13:16Z</time>
      </trkpt>
      <trkpt lat="48.34689" lon="-4.42352">
        <ele>50.61</ele>
        <time>2019-08-23T14:13:19Z</time>
      </trkpt>
      <trkpt lat="48.34689" lon="-4.4235">
        <ele>50.61</ele>
        <time>2019-08-23T14:13:20Z</time>
      </trkpt>
      <trkpt lat="48.34689" lon="-4.42348">
        <ele>51.09</ele>
        <time>2019-08-23T14:13:21Z</time>
      </trkpt>
      <trkpt lat="48.3469" lon="-4.4234">
        <ele>51.09</ele>
        <time>2019-08-23T14:13:25Z</time>
      </trkpt>
      <trkpt lat="48.34691" lon="-4.42338">
        <ele>51.57</ele>
        <time>2019-08-23T14:13:26Z</time>
      </trkpt>
      <trkpt lat="48.34693" lon="-4.4232">
        <ele>53.01</ele>
        <time>2019-08-23T14:13:35Z</time>
      </trkpt>
      <trkpt lat="48.34701" lon="-4.42294">
        <ele>54.93</ele>
        <time>2019-08-23T14:13:46Z</time>
      </trkpt>
      <trkpt lat="48.34714" lon="-4.42268">
        <ele>56.37</ele>
        <time>2019-08-23T14:13:58Z</time>
      </trkpt>
      <trkpt lat="48.34728" lon="-4.42241">
        <ele>57.82</ele>
        <time>2019-08-23T14:14:10Z</time>
      </trkpt>
      <trkpt lat="48.34728" lon="-4.42239">
        <ele>57.82</ele>
        <time>2019-08-23T14:14:11Z</time>
      </trkpt>
      <trkpt lat="48.34729" lon="-4.42237">
        <ele>57.82</ele>
        <time>2019-08-23T14:14:12Z</time>
      </trkpt>
      <trkpt lat="48.3473" lon="-4.42236">
        <ele>57.82</ele>
        <time>2019-08-23T14:14:13Z</time>
      </trkpt>
      <trkpt lat="48.3473" lon="-4.42233">
        <ele>57.82</ele>
        <time>2019-08-23T14:14:14Z</time>
      </trkpt>
      <trkpt lat="48.34729" lon="-4.42224">
        <ele>57.82</ele>
        <time>2019-08-23T14:14:17Z</time>
      </trkpt>
      <trkpt lat="48.34731" lon="-4.42222">
        <ele>58.3</ele>
        <time>2019-08-23T14:14:31Z</time>
      </trkpt>
      <trkpt lat="48.34734" lon="-4.4222">
        <ele>58.3</ele>
        <time>2019-08-23T14:14:48Z</time>
      </trkpt>
      <trkpt lat="48.34737" lon="-4.42217">
        <ele>58.78</ele>
        <time>2019-08-23T14:15:27Z</time>
      </trkpt>
      <trkpt lat="48.34739" lon="-4.42216">
        <ele>58.78</ele>
        <time>2019-08-23T14:15:59Z</time>
      </trkpt>
      <trkpt lat="48.34739" lon="-4.42215">
        <ele>59.26</ele>
        <time>2019-08-23T14:16:30Z</time>
      </trkpt>
      <trkpt lat="48.34741" lon="-4.42213">
        <ele>58.78</ele>
        <time>2019-08-23T14:16:55Z</time>
      </trkpt>
      <trkpt lat="48.34741" lon="-4.42212">
        <ele>58.78</ele>
        <time>2019-08-23T14:16:56Z</time>
      </trkpt>
      <trkpt lat="48.3475" lon="-4.42205">
        <ele>58.78</ele>
        <time>2019-08-23T14:17:08Z</time>
      </trkpt>
      <trkpt lat="48.34762" lon="-4.42196">
        <ele>59.26</ele>
        <time>2019-08-23T14:17:18Z</time>
      </trkpt>
      <trkpt lat="48.34766" lon="-4.42194">
        <ele>59.26</ele>
        <time>2019-08-23T14:17:20Z</time>
      </trkpt>
      <trkpt lat="48.34785" lon="-4.42156">
        <ele>58.3</ele>
        <time>2019-08-23T14:17:31Z</time>
      </trkpt>
      <trkpt lat="48.34803" lon="-4.42117">
        <ele>57.34</ele>
        <time>2019-08-23T14:17:41Z</time>
      </trkpt>
      <trkpt lat="48.34803" lon="-4.42108">
        <ele>57.34</ele>
        <time>2019-08-23T14:17:43Z</time>
      </trkpt>
      <trkpt lat="48.3482" lon="-4.42084">
        <ele>55.89</ele>
        <time>2019-08-23T14:17:50Z</time>
      </trkpt>
      <trkpt lat="48.34823" lon="-4.42078">
        <ele>55.41</ele>
        <time>2019-08-23T14:17:51Z</time>
      </trkpt>
      <trkpt lat="48.34824" lon="-4.42071">
        <ele>54.93</ele>
        <time>2019-08-23T14:17:52Z</time>
      </trkpt>
      <trkpt lat="48.34826" lon="-4.4205">
        <ele>54.45</ele>
        <time>2019-08-23T14:17:55Z</time>
      </trkpt>
      <trkpt lat="48.34827" lon="-4.42043">
        <ele>53.97</ele>
        <time>2019-08-23T14:17:56Z</time>
      </trkpt>
      <trkpt lat="48.34834" lon="-4.41973">
        <ele>52.53</ele>
        <time>2019-08-23T14:18:07Z</time>
      </trkpt>
      <trkpt lat="48.34833" lon="-4.41962">
        <ele>52.05</ele>
        <time>2019-08-23T14:18:09Z</time>
      </trkpt>
      <trkpt lat="48.34834" lon="-4.41956">
        <ele>52.05</ele>
        <time>2019-08-23T14:18:10Z</time>
      </trkpt>
      <trkpt lat="48.34835" lon="-4.41951">
        <ele>52.05</ele>
        <time>2019-08-23T14:18:11Z</time>
      </trkpt>
      <trkpt lat="48.34839" lon="-4.41925">
        <ele>51.57</ele>
        <time>2019-08-23T14:18:17Z</time>
      </trkpt>
      <trkpt lat="48.34841" lon="-4.41924">
        <ele>51.57</ele>
        <time>2019-08-23T14:18:18Z</time>
      </trkpt>
      <trkpt lat="48.34842" lon="-4.41924">
        <ele>51.09</ele>
        <time>2019-08-23T14:18:19Z</time>
      </trkpt>
      <trkpt lat="48.34845" lon="-4.41923">
        <ele>51.09</ele>
        <time>2019-08-23T14:18:20Z</time>
      </trkpt>
      <trkpt lat="48.34847" lon="-4.41922">
        <ele>50.61</ele>
        <time>2019-08-23T14:18:21Z</time>
      </trkpt>
      <trkpt lat="48.34849" lon="-4.41922">
        <ele>50.61</ele>
        <time>2019-08-23T14:18:22Z</time>
      </trkpt>
      <trkpt lat="48.34851" lon="-4.41921">
        <ele>50.61</ele>
        <time>2019-08-23T14:18:23Z</time>
      </trkpt>
      <trkpt lat="48.34863" lon="-4.41919">
        <ele>50.13</ele>
        <time>2019-08-23T14:18:27Z</time>
      </trkpt>
      <trkpt lat="48.34865" lon="-4.41918">
        <ele>49.65</ele>
        <time>2019-08-23T14:18:28Z</time>
      </trkpt>
      <trkpt lat="48.34867" lon="-4.41917">
        <ele>49.65</ele>
        <time>2019-08-23T14:18:29Z</time>
      </trkpt>
      <trkpt lat="48.3487" lon="-4.41917">
        <ele>49.65</ele>
        <time>2019-08-23T14:18:30Z</time>
      </trkpt>
      <trkpt lat="48.34873" lon="-4.41917">
        <ele>49.65</ele>
        <time>2019-08-23T14:18:31Z</time>
      </trkpt>
      <trkpt lat="48.34875" lon="-4.41916">
        <ele>49.65</ele>
        <time>2019-08-23T14:18:32Z</time>
      </trkpt>
      <trkpt lat="48.34905" lon="-4.41917">
        <ele>48.68</ele>
        <time>2019-08-23T14:18:43Z</time>
      </trkpt>
      <trkpt lat="48.34908" lon="-4.41917">
        <ele>48.68</ele>
        <time>2019-08-23T14:18:45Z</time>
      </trkpt>
      <trkpt lat="48.34911" lon="-4.41917">
        <ele>48.68</ele>
        <time>2019-08-23T14:18:46Z</time>
      </trkpt>
      <trkpt lat="48.34913" lon="-4.41915">
        <ele>48.68</ele>
        <time>2019-08-23T14:18:47Z</time>
      </trkpt>
      <trkpt lat="48.34923" lon="-4.4186">
        <ele>47.24</ele>
        <time>2019-08-23T14:19:00Z</time>
      </trkpt>
      <trkpt lat="48.34917" lon="-4.41803">
        <ele>46.28</ele>
        <time>2019-08-23T14:19:10Z</time>
      </trkpt>
      <trkpt lat="48.34915" lon="-4.41791">
        <ele>45.32</ele>
        <time>2019-08-23T14:19:12Z</time>
      </trkpt>
      <trkpt lat="48.34913" lon="-4.41762">
        <ele>44.84</ele>
        <time>2019-08-23T14:19:16Z</time>
      </trkpt>
      <trkpt lat="48.34912" lon="-4.41755">
        <ele>44.36</ele>
        <time>2019-08-23T14:19:17Z</time>
      </trkpt>
      <trkpt lat="48.34911" lon="-4.4173">
        <ele>43.88</ele>
        <time>2019-08-23T14:19:21Z</time>
      </trkpt>
      <trkpt lat="48.3491" lon="-4.41723">
        <ele>43.88</ele>
        <time>2019-08-23T14:19:22Z</time>
      </trkpt>
      <trkpt lat="48.34905" lon="-4.41659">
        <ele>43.4</ele>
        <time>2019-08-23T14:19:34Z</time>
      </trkpt>
      <trkpt lat="48.34903" lon="-4.41657">
        <ele>43.4</ele>
        <time>2019-08-23T14:19:35Z</time>
      </trkpt>
      <trkpt lat="48.349" lon="-4.41655">
        <ele>43.88</ele>
        <time>2019-08-23T14:19:36Z</time>
      </trkpt>
      <trkpt lat="48.34897" lon="-4.41653">
        <ele>43.88</ele>
        <time>2019-08-23T14:19:37Z</time>
      </trkpt>
      <trkpt lat="48.34895" lon="-4.41652">
        <ele>44.36</ele>
        <time>2019-08-23T14:19:38Z</time>
      </trkpt>
      <trkpt lat="48.34892" lon="-4.41651">
        <ele>44.36</ele>
        <time>2019-08-23T14:19:39Z</time>
      </trkpt>
      <trkpt lat="48.3489" lon="-4.4165">
        <ele>44.36</ele>
        <time>2019-08-23T14:19:40Z</time>
      </trkpt>
      <trkpt lat="48.34887" lon="-4.41649">
        <ele>44.36</ele>
        <time>2019-08-23T14:19:41Z</time>
      </trkpt>
      <trkpt lat="48.34885" lon="-4.41649">
        <ele>44.36</ele>
        <time>2019-08-23T14:19:42Z</time>
      </trkpt>
      <trkpt lat="48.34876" lon="-4.41644">
        <ele>44.84</ele>
        <time>2019-08-23T14:19:45Z</time>
      </trkpt>
      <trkpt lat="48.34874" lon="-4.41641">
        <ele>44.84</ele>
        <time>2019-08-23T14:19:46Z</time>
      </trkpt>
      <trkpt lat="48.34873" lon="-4.41637">
        <ele>44.84</ele>
        <time>2019-08-23T14:19:47Z</time>
      </trkpt>
      <trkpt lat="48.34872" lon="-4.41633">
        <ele>45.32</ele>
        <time>2019-08-23T14:19:48Z</time>
      </trkpt>
      <trkpt lat="48.34871" lon="-4.41629">
        <ele>45.32</ele>
        <time>2019-08-23T14:19:49Z</time>
      </trkpt>
      <trkpt lat="48.3487" lon="-4.41625">
        <ele>45.32</ele>
        <time>2019-08-23T14:19:50Z</time>
      </trkpt>
      <trkpt lat="48.34869" lon="-4.41567">
        <ele>46.28</ele>
        <time>2019-08-23T14:20:02Z</time>
      </trkpt>
      <trkpt lat="48.34875" lon="-4.41491">
        <ele>47.24</ele>
        <time>2019-08-23T14:20:17Z</time>
      </trkpt>
      <trkpt lat="48.34881" lon="-4.41453">
        <ele>47.24</ele>
        <time>2019-08-23T14:20:24Z</time>
      </trkpt>
      <trkpt lat="48.34887" lon="-4.41425">
        <ele>47.24</ele>
        <time>2019-08-23T14:20:29Z</time>
      </trkpt>
      <trkpt lat="48.34889" lon="-4.41413">
        <ele>46.76</ele>
        <time>2019-08-23T14:20:31Z</time>
      </trkpt>
      <trkpt lat="48.34892" lon="-4.41401">
        <ele>46.76</ele>
        <time>2019-08-23T14:20:33Z</time>
      </trkpt>
      <trkpt lat="48.34893" lon="-4.41396">
        <ele>46.76</ele>
        <time>2019-08-23T14:20:34Z</time>
      </trkpt>
      <trkpt lat="48.34896" lon="-4.41384">
        <ele>46.76</ele>
        <time>2019-08-23T14:20:36Z</time>
      </trkpt>
      <trkpt lat="48.34898" lon="-4.41378">
        <ele>46.76</ele>
        <time>2019-08-23T14:20:37Z</time>
      </trkpt>
      <trkpt lat="48.34899" lon="-4.41372">
        <ele>46.28</ele>
        <time>2019-08-23T14:20:38Z</time>
      </trkpt>
      <trkpt lat="48.34907" lon="-4.41343">
        <ele>46.76</ele>
        <time>2019-08-23T14:20:43Z</time>
      </trkpt>
      <trkpt lat="48.34937" lon="-4.41273">
        <ele>45.8</ele>
        <time>2019-08-23T14:20:56Z</time>
      </trkpt>
      <trkpt lat="48.34946" lon="-4.41262">
        <ele>45.8</ele>
        <time>2019-08-23T14:20:59Z</time>
      </trkpt>
      <trkpt lat="48.3495" lon="-4.41261">
        <ele>45.8</ele>
        <time>2019-08-23T14:21:00Z</time>
      </trkpt>
      <trkpt lat="48.34953" lon="-4.41263">
        <ele>45.32</ele>
        <time>2019-08-23T14:21:01Z</time>
      </trkpt>
      <trkpt lat="48.34957" lon="-4.41264">
        <ele>45.32</ele>
        <time>2019-08-23T14:21:02Z</time>
      </trkpt>
      <trkpt lat="48.34961" lon="-4.41267">
        <ele>44.84</ele>
        <time>2019-08-23T14:21:03Z</time>
      </trkpt>
      <trkpt lat="48.34966" lon="-4.41271">
        <ele>44.84</ele>
        <time>2019-08-23T14:21:04Z</time>
      </trkpt>
      <trkpt lat="48.3497" lon="-4.41274">
        <ele>44.84</ele>
        <time>2019-08-23T14:21:05Z</time>
      </trkpt>
      <trkpt lat="48.34984" lon="-4.41286">
        <ele>43.4</ele>
        <time>2019-08-23T14:21:08Z</time>
      </trkpt>
      <trkpt lat="48.35035" lon="-4.41331">
        <ele>40.03</ele>
        <time>2019-08-23T14:21:17Z</time>
      </trkpt>
      <trkpt lat="48.35067" lon="-4.41356">
        <ele>38.11</ele>
        <time>2019-08-23T14:21:22Z</time>
      </trkpt>
      <trkpt lat="48.35116" lon="-4.4138">
        <ele>37.63</ele>
        <time>2019-08-23T14:21:30Z</time>
      </trkpt>
      <trkpt lat="48.35121" lon="-4.41383">
        <ele>37.15</ele>
        <time>2019-08-23T14:21:31Z</time>
      </trkpt>
      <trkpt lat="48.35127" lon="-4.41386">
        <ele>37.15</ele>
        <time>2019-08-23T14:21:32Z</time>
      </trkpt>
      <trkpt lat="48.35132" lon="-4.41389">
        <ele>37.15</ele>
        <time>2019-08-23T14:21:33Z</time>
      </trkpt>
      <trkpt lat="48.35138" lon="-4.41393">
        <ele>37.15</ele>
        <time>2019-08-23T14:21:34Z</time>
      </trkpt>
      <trkpt lat="48.35201" lon="-4.41437">
        <ele>35.23</ele>
        <time>2019-08-23T14:21:46Z</time>
      </trkpt>
      <trkpt lat="48.35229" lon="-4.41461">
        <ele>34.74</ele>
        <time>2019-08-23T14:21:52Z</time>
      </trkpt>
      <trkpt lat="48.35234" lon="-4.41465">
        <ele>34.74</ele>
        <time>2019-08-23T14:21:53Z</time>
      </trkpt>
      <trkpt lat="48.35238" lon="-4.41467">
        <ele>34.26</ele>
        <time>2019-08-23T14:21:54Z</time>
      </trkpt>
      <trkpt lat="48.35241" lon="-4.41465">
        <ele>34.74</ele>
        <time>2019-08-23T14:21:55Z</time>
      </trkpt>
      <trkpt lat="48.35244" lon="-4.41462">
        <ele>34.74</ele>
        <time>2019-08-23T14:21:56Z</time>
      </trkpt>
      <trkpt lat="48.35246" lon="-4.41459">
        <ele>34.74</ele>
        <time>2019-08-23T14:21:57Z</time>
      </trkpt>
      <trkpt lat="48.35249" lon="-4.41456">
        <ele>34.74</ele>
        <time>2019-08-23T14:21:58Z</time>
      </trkpt>
      <trkpt lat="48.35251" lon="-4.41454">
        <ele>34.74</ele>
        <time>2019-08-23T14:21:59Z</time>
      </trkpt>
      <trkpt lat="48.35254" lon="-4.41452">
        <ele>34.74</ele>
        <time>2019-08-23T14:22:00Z</time>
      </trkpt>
      <trkpt lat="48.35266" lon="-4.41437">
        <ele>34.74</ele>
        <time>2019-08-23T14:22:06Z</time>
      </trkpt>
      <trkpt lat="48.35279" lon="-4.41408">
        <ele>35.23</ele>
        <time>2019-08-23T14:22:16Z</time>
      </trkpt>
      <trkpt lat="48.35281" lon="-4.41401">
        <ele>35.23</ele>
        <time>2019-08-23T14:22:18Z</time>
      </trkpt>
      <trkpt lat="48.35281" lon="-4.41398">
        <ele>35.23</ele>
        <time>2019-08-23T14:22:19Z</time>
      </trkpt>
      <trkpt lat="48.35282" lon="-4.41395">
        <ele>35.23</ele>
        <time>2019-08-23T14:22:20Z</time>
      </trkpt>
      <trkpt lat="48.35283" lon="-4.41393">
        <ele>35.23</ele>
        <time>2019-08-23T14:22:21Z</time>
      </trkpt>
      <trkpt lat="48.35284" lon="-4.4139">
        <ele>35.23</ele>
        <time>2019-08-23T14:22:22Z</time>
      </trkpt>
      <trkpt lat="48.35289" lon="-4.41351">
        <ele>36.19</ele>
        <time>2019-08-23T14:22:34Z</time>
      </trkpt>
      <trkpt lat="48.35289" lon="-4.41348">
        <ele>36.19</ele>
        <time>2019-08-23T14:22:35Z</time>
      </trkpt>
      <trkpt lat="48.35289" lon="-4.41344">
        <ele>36.19</ele>
        <time>2019-08-23T14:22:36Z</time>
      </trkpt>
      <trkpt lat="48.35298" lon="-4.41304">
        <ele>36.67</ele>
        <time>2019-08-23T14:22:49Z</time>
      </trkpt>
      <trkpt lat="48.353" lon="-4.41301">
        <ele>36.67</ele>
        <time>2019-08-23T14:22:50Z</time>
      </trkpt>
      <trkpt lat="48.35301" lon="-4.41298">
        <ele>36.67</ele>
        <time>2019-08-23T14:22:52Z</time>
      </trkpt>
      <trkpt lat="48.35303" lon="-4.41295">
        <ele>36.67</ele>
        <time>2019-08-23T14:22:53Z</time>
      </trkpt>
      <trkpt lat="48.35317" lon="-4.41267">
        <ele>37.15</ele>
        <time>2019-08-23T14:23:03Z</time>
      </trkpt>
      <trkpt lat="48.35321" lon="-4.4126">
        <ele>37.15</ele>
        <time>2019-08-23T14:23:07Z</time>
      </trkpt>
      <trkpt lat="48.35324" lon="-4.41258">
        <ele>37.15</ele>
        <time>2019-08-23T14:23:08Z</time>
      </trkpt>
      <trkpt lat="48.35327" lon="-4.41255">
        <ele>37.63</ele>
        <time>2019-08-23T14:23:09Z</time>
      </trkpt>
      <trkpt lat="48.35329" lon="-4.41251">
        <ele>37.15</ele>
        <time>2019-08-23T14:23:10Z</time>
      </trkpt>
      <trkpt lat="48.35331" lon="-4.41248">
        <ele>37.63</ele>
        <time>2019-08-23T14:23:11Z</time>
      </trkpt>
      <trkpt lat="48.35336" lon="-4.41238">
        <ele>37.63</ele>
        <time>2019-08-23T14:23:14Z</time>
      </trkpt>
      <trkpt lat="48.35338" lon="-4.41235">
        <ele>37.63</ele>
        <time>2019-08-23T14:23:15Z</time>
      </trkpt>
      <trkpt lat="48.3534" lon="-4.41232">
        <ele>37.63</ele>
        <time>2019-08-23T14:23:16Z</time>
      </trkpt>
      <trkpt lat="48.35342" lon="-4.41229">
        <ele>37.63</ele>
        <time>2019-08-23T14:23:17Z</time>
      </trkpt>
      <trkpt lat="48.35343" lon="-4.41226">
        <ele>38.11</ele>
        <time>2019-08-23T14:23:18Z</time>
      </trkpt>
      <trkpt lat="48.35345" lon="-4.41223">
        <ele>38.11</ele>
        <time>2019-08-23T14:23:19Z</time>
      </trkpt>
      <trkpt lat="48.35347" lon="-4.4122">
        <ele>38.11</ele>
        <time>2019-08-23T14:23:20Z</time>
      </trkpt>
      <trkpt lat="48.3535" lon="-4.41217">
        <ele>38.11</ele>
        <time>2019-08-23T14:23:21Z</time>
      </trkpt>
      <trkpt lat="48.35352" lon="-4.41214">
        <ele>38.11</ele>
        <time>2019-08-23T14:23:22Z</time>
      </trkpt>
      <trkpt lat="48.35354" lon="-4.41211">
        <ele>38.11</ele>
        <time>2019-08-23T14:23:23Z</time>
      </trkpt>
      <trkpt lat="48.35356" lon="-4.41209">
        <ele>38.11</ele>
        <time>2019-08-23T14:23:24Z</time>
      </trkpt>
      <trkpt lat="48.35357" lon="-4.41207">
        <ele>38.11</ele>
        <time>2019-08-23T14:23:25Z</time>
      </trkpt>
      <trkpt lat="48.35359" lon="-4.41204">
        <ele>38.11</ele>
        <time>2019-08-23T14:23:26Z</time>
      </trkpt>
      <trkpt lat="48.35361" lon="-4.41202">
        <ele>38.59</ele>
        <time>2019-08-23T14:23:27Z</time>
      </trkpt>
      <trkpt lat="48.35364" lon="-4.41199">
        <ele>38.11</ele>
        <time>2019-08-23T14:23:28Z</time>
      </trkpt>
      <trkpt lat="48.35366" lon="-4.41197">
        <ele>38.59</ele>
        <time>2019-08-23T14:23:29Z</time>
      </trkpt>
      <trkpt lat="48.35368" lon="-4.41194">
        <ele>38.59</ele>
        <time>2019-08-23T14:23:30Z</time>
      </trkpt>
      <trkpt lat="48.3537" lon="-4.41193">
        <ele>38.59</ele>
        <time>2019-08-23T14:23:31Z</time>
      </trkpt>
      <trkpt lat="48.35373" lon="-4.4119">
        <ele>38.59</ele>
        <time>2019-08-23T14:23:32Z</time>
      </trkpt>
      <trkpt lat="48.35375" lon="-4.41187">
        <ele>38.59</ele>
        <time>2019-08-23T14:23:33Z</time>
      </trkpt>
      <trkpt lat="48.35377" lon="-4.41185">
        <ele>38.11</ele>
        <time>2019-08-23T14:23:34Z</time>
      </trkpt>
      <trkpt lat="48.35379" lon="-4.41184">
        <ele>38.59</ele>
        <time>2019-08-23T14:23:35Z</time>
      </trkpt>
      <trkpt lat="48.35401" lon="-4.41158">
        <ele>39.07</ele>
        <time>2019-08-23T14:23:45Z</time>
      </trkpt>
      <trkpt lat="48.35405" lon="-4.41146">
        <ele>39.07</ele>
        <time>2019-08-23T14:23:49Z</time>
      </trkpt>
      <trkpt lat="48.35407" lon="-4.41143">
        <ele>39.07</ele>
        <time>2019-08-23T14:23:50Z</time>
      </trkpt>
      <trkpt lat="48.35407" lon="-4.4114">
        <ele>39.55</ele>
        <time>2019-08-23T14:23:51Z</time>
      </trkpt>
      <trkpt lat="48.35407" lon="-4.41136">
        <ele>39.55</ele>
        <time>2019-08-23T14:23:52Z</time>
      </trkpt>
      <trkpt lat="48.35408" lon="-4.41132">
        <ele>39.55</ele>
        <time>2019-08-23T14:23:53Z</time>
      </trkpt>
      <trkpt lat="48.35409" lon="-4.41129">
        <ele>39.55</ele>
        <time>2019-08-23T14:23:54Z</time>
      </trkpt>
      <trkpt lat="48.3541" lon="-4.41126">
        <ele>39.55</ele>
        <time>2019-08-23T14:23:55Z</time>
      </trkpt>
      <trkpt lat="48.35411" lon="-4.41124">
        <ele>39.55</ele>
        <time>2019-08-23T14:23:56Z</time>
      </trkpt>
      <trkpt lat="48.35435" lon="-4.41106">
        <ele>40.03</ele>
        <time>2019-08-23T14:24:06Z</time>
      </trkpt>
      <trkpt lat="48.35458" lon="-4.41098">
        <ele>39.55</ele>
        <time>2019-08-23T14:24:17Z</time>
      </trkpt>
      <trkpt lat="48.3548" lon="-4.4109">
        <ele>39.55</ele>
        <time>2019-08-23T14:24:25Z</time>
      </trkpt>
      <trkpt lat="48.35488" lon="-4.41078">
        <ele>39.55</ele>
        <time>2019-08-23T14:24:29Z</time>
      </trkpt>
      <trkpt lat="48.35491" lon="-4.41076">
        <ele>39.55</ele>
        <time>2019-08-23T14:24:30Z</time>
      </trkpt>
      <trkpt lat="48.35492" lon="-4.41073">
        <ele>39.55</ele>
        <time>2019-08-23T14:24:31Z</time>
      </trkpt>
      <trkpt lat="48.35494" lon="-4.41071">
        <ele>39.55</ele>
        <time>2019-08-23T14:24:32Z</time>
      </trkpt>
      <trkpt lat="48.35495" lon="-4.41069">
        <ele>39.55</ele>
        <time>2019-08-23T14:24:33Z</time>
      </trkpt>
      <trkpt lat="48.35497" lon="-4.41067">
        <ele>39.55</ele>
        <time>2019-08-23T14:24:34Z</time>
      </trkpt>
      <trkpt lat="48.35499" lon="-4.41065">
        <ele>39.55</ele>
        <time>2019-08-23T14:24:35Z</time>
      </trkpt>
      <trkpt lat="48.35501" lon="-4.41063">
        <ele>40.03</ele>
        <time>2019-08-23T14:24:36Z</time>
      </trkpt>
      <trkpt lat="48.35502" lon="-4.41062">
        <ele>40.03</ele>
        <time>2019-08-23T14:24:37Z</time>
      </trkpt>
      <trkpt lat="48.35504" lon="-4.41062">
        <ele>40.03</ele>
        <time>2019-08-23T14:24:38Z</time>
      </trkpt>
      <trkpt lat="48.35506" lon="-4.41063">
        <ele>40.03</ele>
        <time>2019-08-23T14:24:39Z</time>
      </trkpt>
      <trkpt lat="48.35508" lon="-4.41064">
        <ele>40.03</ele>
        <time>2019-08-23T14:24:40Z</time>
      </trkpt>
      <trkpt lat="48.3551" lon="-4.41066">
        <ele>40.51</ele>
        <time>2019-08-23T14:24:41Z</time>
      </trkpt>
      <trkpt lat="48.35512" lon="-4.41067">
        <ele>40.51</ele>
        <time>2019-08-23T14:24:42Z</time>
      </trkpt>
      <trkpt lat="48.35514" lon="-4.41069">
        <ele>40.51</ele>
        <time>2019-08-23T14:24:43Z</time>
      </trkpt>
      <trkpt lat="48.35515" lon="-4.41071">
        <ele>40.51</ele>
        <time>2019-08-23T14:24:44Z</time>
      </trkpt>
      <trkpt lat="48.35516" lon="-4.41072">
        <ele>40.51</ele>
        <time>2019-08-23T14:24:45Z</time>
      </trkpt>
      <trkpt lat="48.35518" lon="-4.41074">
        <ele>40.99</ele>
        <time>2019-08-23T14:24:46Z</time>
      </trkpt>
      <trkpt lat="48.35519" lon="-4.41075">
        <ele>40.99</ele>
        <time>2019-08-23T14:24:47Z</time>
      </trkpt>
      <trkpt lat="48.35521" lon="-4.41077">
        <ele>41.47</ele>
        <time>2019-08-23T14:24:48Z</time>
      </trkpt>
      <trkpt lat="48.35523" lon="-4.41078">
        <ele>41.47</ele>
        <time>2019-08-23T14:24:49Z</time>
      </trkpt>
      <trkpt lat="48.35524" lon="-4.41079">
        <ele>41.95</ele>
        <time>2019-08-23T14:24:50Z</time>
      </trkpt>
      <trkpt lat="48.35525" lon="-4.41081">
        <ele>41.95</ele>
        <time>2019-08-23T14:24:51Z</time>
      </trkpt>
      <trkpt lat="48.35542" lon="-4.41096">
        <ele>44.84</ele>
        <time>2019-08-23T14:25:03Z</time>
      </trkpt>
      <trkpt lat="48.35544" lon="-4.41098">
        <ele>45.32</ele>
        <time>2019-08-23T14:25:04Z</time>
      </trkpt>
      <trkpt lat="48.35546" lon="-4.41101">
        <ele>45.32</ele>
        <time>2019-08-23T14:25:05Z</time>
      </trkpt>
      <trkpt lat="48.35548" lon="-4.41102">
        <ele>45.8</ele>
        <time>2019-08-23T14:25:06Z</time>
      </trkpt>
      <trkpt lat="48.3555" lon="-4.41104">
        <ele>45.8</ele>
        <time>2019-08-23T14:25:07Z</time>
      </trkpt>
      <trkpt lat="48.35551" lon="-4.41106">
        <ele>46.28</ele>
        <time>2019-08-23T14:25:08Z</time>
      </trkpt>
      <trkpt lat="48.35578" lon="-4.41132">
        <ele>48.68</ele>
        <time>2019-08-23T14:25:22Z</time>
      </trkpt>
      <trkpt lat="48.35607" lon="-4.41156">
        <ele>49.65</ele>
        <time>2019-08-23T14:25:35Z</time>
      </trkpt>
      <trkpt lat="48.35632" lon="-4.41184">
        <ele>51.09</ele>
        <time>2019-08-23T14:25:47Z</time>
      </trkpt>
      <trkpt lat="48.35632" lon="-4.41189">
        <ele>51.09</ele>
        <time>2019-08-23T14:25:48Z</time>
      </trkpt>
      <trkpt lat="48.35631" lon="-4.41193">
        <ele>51.09</ele>
        <time>2019-08-23T14:25:49Z</time>
      </trkpt>
      <trkpt lat="48.3563" lon="-4.41197">
        <ele>51.09</ele>
        <time>2019-08-23T14:25:50Z</time>
      </trkpt>
      <trkpt lat="48.35629" lon="-4.41202">
        <ele>51.09</ele>
        <time>2019-08-23T14:25:51Z</time>
      </trkpt>
      <trkpt lat="48.35622" lon="-4.41226">
        <ele>51.09</ele>
        <time>2019-08-23T14:25:56Z</time>
      </trkpt>
      <trkpt lat="48.35623" lon="-4.41232">
        <ele>51.09</ele>
        <time>2019-08-23T14:25:57Z</time>
      </trkpt>
      <trkpt lat="48.35624" lon="-4.41237">
        <ele>51.09</ele>
        <time>2019-08-23T14:25:58Z</time>
      </trkpt>
      <trkpt lat="48.35626" lon="-4.4124">
        <ele>51.09</ele>
        <time>2019-08-23T14:25:59Z</time>
      </trkpt>
      <trkpt lat="48.35628" lon="-4.41243">
        <ele>51.09</ele>
        <time>2019-08-23T14:26:00Z</time>
      </trkpt>
      <trkpt lat="48.35631" lon="-4.41245">
        <ele>51.57</ele>
        <time>2019-08-23T14:26:01Z</time>
      </trkpt>
      <trkpt lat="48.35633" lon="-4.41246">
        <ele>51.57</ele>
        <time>2019-08-23T14:26:02Z</time>
      </trkpt>
      <trkpt lat="48.35635" lon="-4.41248">
        <ele>52.05</ele>
        <time>2019-08-23T14:26:03Z</time>
      </trkpt>
      <trkpt lat="48.35654" lon="-4.41235">
        <ele>52.53</ele>
        <time>2019-08-23T14:26:13Z</time>
      </trkpt>
      <trkpt lat="48.35667" lon="-4.41201">
        <ele>53.01</ele>
        <time>2019-08-23T14:26:24Z</time>
      </trkpt>
      <trkpt lat="48.35686" lon="-4.41164">
        <ele>53.49</ele>
        <time>2019-08-23T14:26:36Z</time>
      </trkpt>
      <trkpt lat="48.35715" lon="-4.41115">
        <ele>53.49</ele>
        <time>2019-08-23T14:26:49Z</time>
      </trkpt>
      <trkpt lat="48.35724" lon="-4.41095">
        <ele>53.01</ele>
        <time>2019-08-23T14:26:53Z</time>
      </trkpt>
      <trkpt lat="48.35727" lon="-4.4109">
        <ele>53.49</ele>
        <time>2019-08-23T14:26:54Z</time>
      </trkpt>
      <trkpt lat="48.3575" lon="-4.41031">
        <ele>52.53</ele>
        <time>2019-08-23T14:27:05Z</time>
      </trkpt>
      <trkpt lat="48.35752" lon="-4.41024">
        <ele>53.01</ele>
        <time>2019-08-23T14:27:06Z</time>
      </trkpt>
      <trkpt lat="48.35753" lon="-4.41018">
        <ele>52.05</ele>
        <time>2019-08-23T14:27:07Z</time>
      </trkpt>
      <trkpt lat="48.35759" lon="-4.40987">
        <ele>52.53</ele>
        <time>2019-08-23T14:27:12Z</time>
      </trkpt>
      <trkpt lat="48.35762" lon="-4.40975">
        <ele>52.53</ele>
        <time>2019-08-23T14:27:14Z</time>
      </trkpt>
      <trkpt lat="48.35765" lon="-4.40959">
        <ele>52.53</ele>
        <time>2019-08-23T14:27:17Z</time>
      </trkpt>
      <trkpt lat="48.35766" lon="-4.40953">
        <ele>52.53</ele>
        <time>2019-08-23T14:27:18Z</time>
      </trkpt>
      <trkpt lat="48.35767" lon="-4.40948">
        <ele>52.05</ele>
        <time>2019-08-23T14:27:19Z</time>
      </trkpt>
      <trkpt lat="48.35768" lon="-4.40942">
        <ele>52.05</ele>
        <time>2019-08-23T14:27:20Z</time>
      </trkpt>
      <trkpt lat="48.35768" lon="-4.40937">
        <ele>52.05</ele>
        <time>2019-08-23T14:27:21Z</time>
      </trkpt>
      <trkpt lat="48.35774" lon="-4.40887">
        <ele>50.61</ele>
        <time>2019-08-23T14:27:31Z</time>
      </trkpt>
      <trkpt lat="48.35774" lon="-4.40881">
        <ele>50.61</ele>
        <time>2019-08-23T14:27:32Z</time>
      </trkpt>
      <trkpt lat="48.35774" lon="-4.40875">
        <ele>50.13</ele>
        <time>2019-08-23T14:27:33Z</time>
      </trkpt>
      <trkpt lat="48.35773" lon="-4.40869">
        <ele>50.61</ele>
        <time>2019-08-23T14:27:34Z</time>
      </trkpt>
      <trkpt lat="48.35769" lon="-4.40857">
        <ele>49.65</ele>
        <time>2019-08-23T14:27:36Z</time>
      </trkpt>
      <trkpt lat="48.3576" lon="-4.40829">
        <ele>48.2</ele>
        <time>2019-08-23T14:27:40Z</time>
      </trkpt>
      <trkpt lat="48.35757" lon="-4.40823">
        <ele>47.72</ele>
        <time>2019-08-23T14:27:41Z</time>
      </trkpt>
      <trkpt lat="48.35754" lon="-4.40817">
        <ele>47.24</ele>
        <time>2019-08-23T14:27:42Z</time>
      </trkpt>
      <trkpt lat="48.35743" lon="-4.40801">
        <ele>46.28</ele>
        <time>2019-08-23T14:27:45Z</time>
      </trkpt>
      <trkpt lat="48.3574" lon="-4.40795">
        <ele>46.28</ele>
        <time>2019-08-23T14:27:46Z</time>
      </trkpt>
      <trkpt lat="48.35736" lon="-4.4079">
        <ele>46.28</ele>
        <time>2019-08-23T14:27:47Z</time>
      </trkpt>
      <trkpt lat="48.35732" lon="-4.40785">
        <ele>45.8</ele>
        <time>2019-08-23T14:27:48Z</time>
      </trkpt>
      <trkpt lat="48.35728" lon="-4.40781">
        <ele>45.8</ele>
        <time>2019-08-23T14:27:49Z</time>
      </trkpt>
      <trkpt lat="48.35724" lon="-4.40776">
        <ele>45.8</ele>
        <time>2019-08-23T14:27:50Z</time>
      </trkpt>
      <trkpt lat="48.3572" lon="-4.40771">
        <ele>45.8</ele>
        <time>2019-08-23T14:27:51Z</time>
      </trkpt>
      <trkpt lat="48.35716" lon="-4.40766">
        <ele>45.8</ele>
        <time>2019-08-23T14:27:52Z</time>
      </trkpt>
      <trkpt lat="48.35702" lon="-4.40748">
        <ele>45.8</ele>
        <time>2019-08-23T14:27:56Z</time>
      </trkpt>
      <trkpt lat="48.35699" lon="-4.40743">
        <ele>45.8</ele>
        <time>2019-08-23T14:27:57Z</time>
      </trkpt>
      <trkpt lat="48.35696" lon="-4.40739">
        <ele>45.8</ele>
        <time>2019-08-23T14:27:58Z</time>
      </trkpt>
      <trkpt lat="48.35694" lon="-4.40734">
        <ele>46.28</ele>
        <time>2019-08-23T14:27:59Z</time>
      </trkpt>
      <trkpt lat="48.35692" lon="-4.4073">
        <ele>46.28</ele>
        <time>2019-08-23T14:28:00Z</time>
      </trkpt>
      <trkpt lat="48.35691" lon="-4.40726">
        <ele>46.28</ele>
        <time>2019-08-23T14:28:01Z</time>
      </trkpt>
      <trkpt lat="48.35688" lon="-4.40723">
        <ele>46.28</ele>
        <time>2019-08-23T14:28:02Z</time>
      </trkpt>
      <trkpt lat="48.35686" lon="-4.40719">
        <ele>46.28</ele>
        <time>2019-08-23T14:28:03Z</time>
      </trkpt>
      <trkpt lat="48.35683" lon="-4.40716">
        <ele>46.28</ele>
        <time>2019-08-23T14:28:04Z</time>
      </trkpt>
      <trkpt lat="48.35664" lon="-4.40683">
        <ele>47.24</ele>
        <time>2019-08-23T14:28:13Z</time>
      </trkpt>
      <trkpt lat="48.35652" lon="-4.40655">
        <ele>48.2</ele>
        <time>2019-08-23T14:28:21Z</time>
      </trkpt>
      <trkpt lat="48.35651" lon="-4.40653">
        <ele>48.2</ele>
        <time>2019-08-23T14:28:22Z</time>
      </trkpt>
      <trkpt lat="48.35645" lon="-4.40639">
        <ele>49.16</ele>
        <time>2019-08-23T14:28:27Z</time>
      </trkpt>
      <trkpt lat="48.35644" lon="-4.40636">
        <ele>49.65</ele>
        <time>2019-08-23T14:28:28Z</time>
      </trkpt>
      <trkpt lat="48.35642" lon="-4.40634">
        <ele>49.65</ele>
        <time>2019-08-23T14:28:29Z</time>
      </trkpt>
      <trkpt lat="48.3564" lon="-4.40631">
        <ele>49.65</ele>
        <time>2019-08-23T14:28:30Z</time>
      </trkpt>
      <trkpt lat="48.35639" lon="-4.40628">
        <ele>50.13</ele>
        <time>2019-08-23T14:28:31Z</time>
      </trkpt>
      <trkpt lat="48.35637" lon="-4.40622">
        <ele>50.13</ele>
        <time>2019-08-23T14:28:33Z</time>
      </trkpt>
      <trkpt lat="48.35636" lon="-4.4062">
        <ele>50.61</ele>
        <time>2019-08-23T14:28:34Z</time>
      </trkpt>
      <trkpt lat="48.35624" lon="-4.40586">
        <ele>52.53</ele>
        <time>2019-08-23T14:28:46Z</time>
      </trkpt>
      <trkpt lat="48.35624" lon="-4.40583">
        <ele>52.53</ele>
        <time>2019-08-23T14:28:47Z</time>
      </trkpt>
      <trkpt lat="48.35624" lon="-4.4058">
        <ele>53.01</ele>
        <time>2019-08-23T14:28:48Z</time>
      </trkpt>
      <trkpt lat="48.35624" lon="-4.40577">
        <ele>53.01</ele>
        <time>2019-08-23T14:28:49Z</time>
      </trkpt>
      <trkpt lat="48.35624" lon="-4.40574">
        <ele>53.01</ele>
        <time>2019-08-23T14:28:50Z</time>
      </trkpt>
      <trkpt lat="48.35624" lon="-4.4057">
        <ele>53.49</ele>
        <time>2019-08-23T14:28:51Z</time>
      </trkpt>
      <trkpt lat="48.35624" lon="-4.40567">
        <ele>53.49</ele>
        <time>2019-08-23T14:28:52Z</time>
      </trkpt>
      <trkpt lat="48.35624" lon="-4.40564">
        <ele>53.97</ele>
        <time>2019-08-23T14:28:53Z</time>
      </trkpt>
      <trkpt lat="48.35624" lon="-4.4056">
        <ele>53.97</ele>
        <time>2019-08-23T14:28:54Z</time>
      </trkpt>
      <trkpt lat="48.35624" lon="-4.40557">
        <ele>53.97</ele>
        <time>2019-08-23T14:28:55Z</time>
      </trkpt>
      <trkpt lat="48.35625" lon="-4.40525">
        <ele>54.93</ele>
        <time>2019-08-23T14:29:04Z</time>
      </trkpt>
      <trkpt lat="48.35626" lon="-4.40522">
        <ele>55.41</ele>
        <time>2019-08-23T14:29:05Z</time>
      </trkpt>
      <trkpt lat="48.35626" lon="-4.40519">
        <ele>55.89</ele>
        <time>2019-08-23T14:29:06Z</time>
      </trkpt>
      <trkpt lat="48.35627" lon="-4.40516">
        <ele>55.41</ele>
        <time>2019-08-23T14:29:07Z</time>
      </trkpt>
      <trkpt lat="48.35627" lon="-4.40513">
        <ele>55.41</ele>
        <time>2019-08-23T14:29:08Z</time>
      </trkpt>
      <trkpt lat="48.3563" lon="-4.40502">
        <ele>55.89</ele>
        <time>2019-08-23T14:29:11Z</time>
      </trkpt>
      <trkpt lat="48.3563" lon="-4.40499">
        <ele>55.89</ele>
        <time>2019-08-23T14:29:12Z</time>
      </trkpt>
      <trkpt lat="48.3563" lon="-4.40495">
        <ele>55.89</ele>
        <time>2019-08-23T14:29:13Z</time>
      </trkpt>
      <trkpt lat="48.35627" lon="-4.4047">
        <ele>56.37</ele>
        <time>2019-08-23T14:29:20Z</time>
      </trkpt>
      <trkpt lat="48.35622" lon="-4.40457">
        <ele>57.34</ele>
        <time>2019-08-23T14:29:24Z</time>
      </trkpt>
      <trkpt lat="48.35622" lon="-4.40454">
        <ele>57.34</ele>
        <time>2019-08-23T14:29:25Z</time>
      </trkpt>
      <trkpt lat="48.35621" lon="-4.4045">
        <ele>57.34</ele>
        <time>2019-08-23T14:29:26Z</time>
      </trkpt>
      <trkpt lat="48.35621" lon="-4.40447">
        <ele>57.82</ele>
        <time>2019-08-23T14:29:27Z</time>
      </trkpt>
      <trkpt lat="48.35621" lon="-4.40443">
        <ele>57.82</ele>
        <time>2019-08-23T14:29:28Z</time>
      </trkpt>
      <trkpt lat="48.35617" lon="-4.40406">
        <ele>59.74</ele>
        <time>2019-08-23T14:29:40Z</time>
      </trkpt>
      <trkpt lat="48.35617" lon="-4.40403">
        <ele>59.74</ele>
        <time>2019-08-23T14:29:41Z</time>
      </trkpt>
      <trkpt lat="48.35616" lon="-4.40399">
        <ele>59.74</ele>
        <time>2019-08-23T14:29:42Z</time>
      </trkpt>
      <trkpt lat="48.35621" lon="-4.40357">
        <ele>60.7</ele>
        <time>2019-08-23T14:29:53Z</time>
      </trkpt>
      <trkpt lat="48.35628" lon="-4.40332">
        <ele>60.7</ele>
        <time>2019-08-23T14:30:00Z</time>
      </trkpt>
      <trkpt lat="48.3563" lon="-4.40329">
        <ele>60.7</ele>
        <time>2019-08-23T14:30:01Z</time>
      </trkpt>
      <trkpt lat="48.35632" lon="-4.40326">
        <ele>60.7</ele>
        <time>2019-08-23T14:30:02Z</time>
      </trkpt>
      <trkpt lat="48.35633" lon="-4.40323">
        <ele>60.7</ele>
        <time>2019-08-23T14:30:03Z</time>
      </trkpt>
      <trkpt lat="48.35634" lon="-4.4032">
        <ele>61.18</ele>
        <time>2019-08-23T14:30:04Z</time>
      </trkpt>
      <trkpt lat="48.35641" lon="-4.40295">
        <ele>61.18</ele>
        <time>2019-08-23T14:30:11Z</time>
      </trkpt>
      <trkpt lat="48.35643" lon="-4.40292">
        <ele>61.18</ele>
        <time>2019-08-23T14:30:12Z</time>
      </trkpt>
      <trkpt lat="48.35657" lon="-4.40256">
        <ele>61.66</ele>
        <time>2019-08-23T14:30:21Z</time>
      </trkpt>
      <trkpt lat="48.35663" lon="-4.40235">
        <ele>62.14</ele>
        <time>2019-08-23T14:30:26Z</time>
      </trkpt>
      <trkpt lat="48.35664" lon="-4.40231">
        <ele>62.14</ele>
        <time>2019-08-23T14:30:27Z</time>
      </trkpt>
      <trkpt lat="48.35667" lon="-4.40194">
        <ele>63.58</ele>
        <time>2019-08-23T14:30:37Z</time>
      </trkpt>
      <trkpt lat="48.35666" lon="-4.40174">
        <ele>64.07</ele>
        <time>2019-08-23T14:30:43Z</time>
      </trkpt>
      <trkpt lat="48.35664" lon="-4.40171">
        <ele>64.07</ele>
        <time>2019-08-23T14:30:44Z</time>
      </trkpt>
      <trkpt lat="48.35665" lon="-4.40167">
        <ele>64.55</ele>
        <time>2019-08-23T14:30:45Z</time>
      </trkpt>
      <trkpt lat="48.35666" lon="-4.40158">
        <ele>65.03</ele>
        <time>2019-08-23T14:30:47Z</time>
      </trkpt>
      <trkpt lat="48.35667" lon="-4.40154">
        <ele>65.03</ele>
        <time>2019-08-23T14:30:48Z</time>
      </trkpt>
      <trkpt lat="48.35668" lon="-4.40149">
        <ele>64.55</ele>
        <time>2019-08-23T14:30:49Z</time>
      </trkpt>
      <trkpt lat="48.35669" lon="-4.40145">
        <ele>65.03</ele>
        <time>2019-08-23T14:30:50Z</time>
      </trkpt>
      <trkpt lat="48.3567" lon="-4.40141">
        <ele>65.03</ele>
        <time>2019-08-23T14:30:51Z</time>
      </trkpt>
      <trkpt lat="48.3567" lon="-4.40138">
        <ele>65.03</ele>
        <time>2019-08-23T14:30:52Z</time>
      </trkpt>
      <trkpt lat="48.35671" lon="-4.40134">
        <ele>65.03</ele>
        <time>2019-08-23T14:30:53Z</time>
      </trkpt>
      <trkpt lat="48.35671" lon="-4.40132">
        <ele>65.03</ele>
        <time>2019-08-23T14:30:54Z</time>
      </trkpt>
      <trkpt lat="48.35673" lon="-4.4013">
        <ele>65.03</ele>
        <time>2019-08-23T14:30:55Z</time>
      </trkpt>
      <trkpt lat="48.35675" lon="-4.40127">
        <ele>63.58</ele>
        <time>2019-08-23T14:30:59Z</time>
      </trkpt>
      <trkpt lat="48.3569" lon="-4.40115">
        <ele>62.62</ele>
        <time>2019-08-23T14:31:05Z</time>
      </trkpt>
      <trkpt lat="48.35711" lon="-4.40077">
        <ele>62.62</ele>
        <time>2019-08-23T14:31:15Z</time>
      </trkpt>
      <trkpt lat="48.35736" lon="-4.4004">
        <ele>62.62</ele>
        <time>2019-08-23T14:31:24Z</time>
      </trkpt>
      <trkpt lat="48.35748" lon="-4.39998">
        <ele>63.1</ele>
        <time>2019-08-23T14:31:34Z</time>
      </trkpt>
      <trkpt lat="48.35765" lon="-4.39957">
        <ele>64.07</ele>
        <time>2019-08-23T14:31:46Z</time>
      </trkpt>
      <trkpt lat="48.35784" lon="-4.39945">
        <ele>63.1</ele>
        <time>2019-08-23T14:31:54Z</time>
      </trkpt>
      <trkpt lat="48.35788" lon="-4.3994">
        <ele>63.1</ele>
        <time>2019-08-23T14:31:55Z</time>
      </trkpt>
      <trkpt lat="48.3579" lon="-4.39934">
        <ele>63.1</ele>
        <time>2019-08-23T14:31:56Z</time>
      </trkpt>
      <trkpt lat="48.35795" lon="-4.39898">
        <ele>64.07</ele>
        <time>2019-08-23T14:32:05Z</time>
      </trkpt>
      <trkpt lat="48.358" lon="-4.39876">
        <ele>64.55</ele>
        <time>2019-08-23T14:32:10Z</time>
      </trkpt>
      <trkpt lat="48.35801" lon="-4.39872">
        <ele>65.03</ele>
        <time>2019-08-23T14:32:11Z</time>
      </trkpt>
      <trkpt lat="48.35808" lon="-4.39833">
        <ele>66.95</ele>
        <time>2019-08-23T14:32:22Z</time>
      </trkpt>
      <trkpt lat="48.35815" lon="-4.39794">
        <ele>67.43</ele>
        <time>2019-08-23T14:32:32Z</time>
      </trkpt>
      <trkpt lat="48.35823" lon="-4.39755">
        <ele>67.43</ele>
        <time>2019-08-23T14:32:41Z</time>
      </trkpt>
      <trkpt lat="48.35836" lon="-4.39719">
        <ele>66.95</ele>
        <time>2019-08-23T14:32:50Z</time>
      </trkpt>
      <trkpt lat="48.3585" lon="-4.39681">
        <ele>67.43</ele>
        <time>2019-08-23T14:32:58Z</time>
      </trkpt>
      <trkpt lat="48.3585" lon="-4.39678">
        <ele>66.95</ele>
        <time>2019-08-23T14:32:59Z</time>
      </trkpt>
      <trkpt lat="48.35851" lon="-4.39674">
        <ele>66.95</ele>
        <time>2019-08-23T14:33:00Z</time>
      </trkpt>
      <trkpt lat="48.35854" lon="-4.39669">
        <ele>66.95</ele>
        <time>2019-08-23T14:33:01Z</time>
      </trkpt>
      <trkpt lat="48.35856" lon="-4.39664">
        <ele>66.95</ele>
        <time>2019-08-23T14:33:02Z</time>
      </trkpt>
      <trkpt lat="48.35858" lon="-4.39659">
        <ele>66.95</ele>
        <time>2019-08-23T14:33:03Z</time>
      </trkpt>
      <trkpt lat="48.35868" lon="-4.39632">
        <ele>66.47</ele>
        <time>2019-08-23T14:33:08Z</time>
      </trkpt>
      <trkpt lat="48.3587" lon="-4.39626">
        <ele>66.47</ele>
        <time>2019-08-23T14:33:09Z</time>
      </trkpt>
      <trkpt lat="48.35872" lon="-4.39622">
        <ele>66.47</ele>
        <time>2019-08-23T14:33:10Z</time>
      </trkpt>
      <trkpt lat="48.35873" lon="-4.39617">
        <ele>66.47</ele>
        <time>2019-08-23T14:33:11Z</time>
      </trkpt>
      <trkpt lat="48.35875" lon="-4.39611">
        <ele>66.47</ele>
        <time>2019-08-23T14:33:12Z</time>
      </trkpt>
      <trkpt lat="48.35877" lon="-4.39605">
        <ele>66.47</ele>
        <time>2019-08-23T14:33:13Z</time>
      </trkpt>
      <trkpt lat="48.35879" lon="-4.39599">
        <ele>66.47</ele>
        <time>2019-08-23T14:33:14Z</time>
      </trkpt>
      <trkpt lat="48.35898" lon="-4.39537">
        <ele>66.47</ele>
        <time>2019-08-23T14:33:25Z</time>
      </trkpt>
      <trkpt lat="48.35918" lon="-4.39491">
        <ele>66.95</ele>
        <time>2019-08-23T14:33:35Z</time>
      </trkpt>
      <trkpt lat="48.35921" lon="-4.39486">
        <ele>66.95</ele>
        <time>2019-08-23T14:33:36Z</time>
      </trkpt>
      <trkpt lat="48.35924" lon="-4.39482">
        <ele>66.47</ele>
        <time>2019-08-23T14:33:37Z</time>
      </trkpt>
      <trkpt lat="48.35927" lon="-4.39478">
        <ele>66.95</ele>
        <time>2019-08-23T14:33:38Z</time>
      </trkpt>
      <trkpt lat="48.3595" lon="-4.39431">
        <ele>66.95</ele>
        <time>2019-08-23T14:33:48Z</time>
      </trkpt>
      <trkpt lat="48.35975" lon="-4.39397">
        <ele>66.47</ele>
        <time>2019-08-23T14:33:56Z</time>
      </trkpt>
      <trkpt lat="48.3598" lon="-4.39398">
        <ele>65.99</ele>
        <time>2019-08-23T14:33:57Z</time>
      </trkpt>
      <trkpt lat="48.35984" lon="-4.394">
        <ele>65.03</ele>
        <time>2019-08-23T14:33:58Z</time>
      </trkpt>
      <trkpt lat="48.35988" lon="-4.39404">
        <ele>65.03</ele>
        <time>2019-08-23T14:33:59Z</time>
      </trkpt>
      <trkpt lat="48.35991" lon="-4.39406">
        <ele>64.55</ele>
        <time>2019-08-23T14:34:00Z</time>
      </trkpt>
      <trkpt lat="48.35995" lon="-4.39409">
        <ele>64.55</ele>
        <time>2019-08-23T14:34:01Z</time>
      </trkpt>
      <trkpt lat="48.36019" lon="-4.39431">
        <ele>64.07</ele>
        <time>2019-08-23T14:34:09Z</time>
      </trkpt>
      <trkpt lat="48.36042" lon="-4.39451">
        <ele>63.58</ele>
        <time>2019-08-23T14:34:16Z</time>
      </trkpt>
      <trkpt lat="48.36047" lon="-4.39454">
        <ele>63.1</ele>
        <time>2019-08-23T14:34:17Z</time>
      </trkpt>
      <trkpt lat="48.3605" lon="-4.39458">
        <ele>63.1</ele>
        <time>2019-08-23T14:34:18Z</time>
      </trkpt>
      <trkpt lat="48.36053" lon="-4.39462">
        <ele>63.1</ele>
        <time>2019-08-23T14:34:19Z</time>
      </trkpt>
      <trkpt lat="48.36056" lon="-4.39466">
        <ele>63.1</ele>
        <time>2019-08-23T14:34:20Z</time>
      </trkpt>
      <trkpt lat="48.36073" lon="-4.3948">
        <ele>62.62</ele>
        <time>2019-08-23T14:34:25Z</time>
      </trkpt>
      <trkpt lat="48.36076" lon="-4.39482">
        <ele>62.62</ele>
        <time>2019-08-23T14:34:26Z</time>
      </trkpt>
      <trkpt lat="48.3608" lon="-4.39484">
        <ele>62.62</ele>
        <time>2019-08-23T14:34:27Z</time>
      </trkpt>
      <trkpt lat="48.36083" lon="-4.39486">
        <ele>62.62</ele>
        <time>2019-08-23T14:34:28Z</time>
      </trkpt>
      <trkpt lat="48.36086" lon="-4.39488">
        <ele>62.62</ele>
        <time>2019-08-23T14:34:29Z</time>
      </trkpt>
      <trkpt lat="48.3609" lon="-4.3949">
        <ele>62.62</ele>
        <time>2019-08-23T14:34:30Z</time>
      </trkpt>
      <trkpt lat="48.36092" lon="-4.39494">
        <ele>62.62</ele>
        <time>2019-08-23T14:34:31Z</time>
      </trkpt>
      <trkpt lat="48.36094" lon="-4.39498">
        <ele>62.14</ele>
        <time>2019-08-23T14:34:32Z</time>
      </trkpt>
      <trkpt lat="48.36098" lon="-4.39504">
        <ele>62.14</ele>
        <time>2019-08-23T14:34:34Z</time>
      </trkpt>
      <trkpt lat="48.36104" lon="-4.39509">
        <ele>62.62</ele>
        <time>2019-08-23T14:34:38Z</time>
      </trkpt>
      <trkpt lat="48.36105" lon="-4.39511">
        <ele>62.62</ele>
        <time>2019-08-23T14:34:39Z</time>
      </trkpt>
      <trkpt lat="48.36106" lon="-4.39512">
        <ele>62.62</ele>
        <time>2019-08-23T14:34:40Z</time>
      </trkpt>
      <trkpt lat="48.36108" lon="-4.39513">
        <ele>62.62</ele>
        <time>2019-08-23T14:34:41Z</time>
      </trkpt>
      <trkpt lat="48.36111" lon="-4.39513">
        <ele>62.62</ele>
        <time>2019-08-23T14:34:43Z</time>
      </trkpt>
      <trkpt lat="48.36113" lon="-4.39513">
        <ele>62.62</ele>
        <time>2019-08-23T14:34:44Z</time>
      </trkpt>
      <trkpt lat="48.36116" lon="-4.39514">
        <ele>62.62</ele>
        <time>2019-08-23T14:34:45Z</time>
      </trkpt>
      <trkpt lat="48.36127" lon="-4.39518">
        <ele>62.62</ele>
        <time>2019-08-23T14:34:51Z</time>
      </trkpt>
      <trkpt lat="48.36129" lon="-4.39518">
        <ele>62.62</ele>
        <time>2019-08-23T14:34:52Z</time>
      </trkpt>
      <trkpt lat="48.36131" lon="-4.39518">
        <ele>62.62</ele>
        <time>2019-08-23T14:34:53Z</time>
      </trkpt>
      <trkpt lat="48.36134" lon="-4.39518">
        <ele>62.62</ele>
        <time>2019-08-23T14:34:54Z</time>
      </trkpt>
      <trkpt lat="48.36136" lon="-4.39518">
        <ele>62.62</ele>
        <time>2019-08-23T14:34:55Z</time>
      </trkpt>
      <trkpt lat="48.36138" lon="-4.39518">
        <ele>62.62</ele>
        <time>2019-08-23T14:34:56Z</time>
      </trkpt>
      <trkpt lat="48.36155" lon="-4.39519">
        <ele>63.1</ele>
        <time>2019-08-23T14:35:06Z</time>
      </trkpt>
      <trkpt lat="48.36157" lon="-4.3952">
        <ele>64.07</ele>
        <time>2019-08-23T14:35:07Z</time>
      </trkpt>
      <trkpt lat="48.36158" lon="-4.39521">
        <ele>63.1</ele>
        <time>2019-08-23T14:35:08Z</time>
      </trkpt>
      <trkpt lat="48.3616" lon="-4.39521">
        <ele>63.1</ele>
        <time>2019-08-23T14:35:09Z</time>
      </trkpt>
      <trkpt lat="48.36163" lon="-4.39521">
        <ele>63.58</ele>
        <time>2019-08-23T14:35:10Z</time>
      </trkpt>
      <trkpt lat="48.36165" lon="-4.39521">
        <ele>63.58</ele>
        <time>2019-08-23T14:35:11Z</time>
      </trkpt>
      <trkpt lat="48.36168" lon="-4.39522">
        <ele>63.1</ele>
        <time>2019-08-23T14:35:13Z</time>
      </trkpt>
      <trkpt lat="48.3617" lon="-4.39522">
        <ele>63.58</ele>
        <time>2019-08-23T14:35:14Z</time>
      </trkpt>
      <trkpt lat="48.36172" lon="-4.39523">
        <ele>63.58</ele>
        <time>2019-08-23T14:35:15Z</time>
      </trkpt>
      <trkpt lat="48.36174" lon="-4.39525">
        <ele>63.58</ele>
        <time>2019-08-23T14:35:16Z</time>
      </trkpt>
      <trkpt lat="48.36176" lon="-4.39525">
        <ele>63.58</ele>
        <time>2019-08-23T14:35:17Z</time>
      </trkpt>
      <trkpt lat="48.36178" lon="-4.39525">
        <ele>63.58</ele>
        <time>2019-08-23T14:35:18Z</time>
      </trkpt>
      <trkpt lat="48.36194" lon="-4.39527">
        <ele>64.07</ele>
        <time>2019-08-23T14:35:24Z</time>
      </trkpt>
      <trkpt lat="48.36198" lon="-4.39526">
        <ele>64.07</ele>
        <time>2019-08-23T14:35:26Z</time>
      </trkpt>
      <trkpt lat="48.3622" lon="-4.39531">
        <ele>65.03</ele>
        <time>2019-08-23T14:35:37Z</time>
      </trkpt>
      <trkpt lat="48.36232" lon="-4.39534">
        <ele>65.03</ele>
        <time>2019-08-23T14:35:43Z</time>
      </trkpt>
      <trkpt lat="48.36234" lon="-4.39534">
        <ele>65.03</ele>
        <time>2019-08-23T14:35:44Z</time>
      </trkpt>
      <trkpt lat="48.36235" lon="-4.39533">
        <ele>65.03</ele>
        <time>2019-08-23T14:35:45Z</time>
      </trkpt>
      <trkpt lat="48.36238" lon="-4.39533">
        <ele>65.03</ele>
        <time>2019-08-23T14:35:46Z</time>
      </trkpt>
      <trkpt lat="48.3624" lon="-4.39534">
        <ele>65.51</ele>
        <time>2019-08-23T14:35:47Z</time>
      </trkpt>
      <trkpt lat="48.36243" lon="-4.39534">
        <ele>65.51</ele>
        <time>2019-08-23T14:35:48Z</time>
      </trkpt>
      <trkpt lat="48.36244" lon="-4.39534">
        <ele>65.51</ele>
        <time>2019-08-23T14:35:49Z</time>
      </trkpt>
      <trkpt lat="48.36249" lon="-4.39536">
        <ele>65.51</ele>
        <time>2019-08-23T14:35:52Z</time>
      </trkpt>
      <trkpt lat="48.36256" lon="-4.39537">
        <ele>65.99</ele>
        <time>2019-08-23T14:35:56Z</time>
      </trkpt>
      <trkpt lat="48.36259" lon="-4.39538">
        <ele>66.47</ele>
        <time>2019-08-23T14:35:58Z</time>
      </trkpt>
      <trkpt lat="48.36275" lon="-4.39541">
        <ele>66.95</ele>
        <time>2019-08-23T14:36:08Z</time>
      </trkpt>
      <trkpt lat="48.36288" lon="-4.39544">
        <ele>67.43</ele>
        <time>2019-08-23T14:36:15Z</time>
      </trkpt>
      <trkpt lat="48.36295" lon="-4.39549">
        <ele>67.91</ele>
        <time>2019-08-23T14:36:20Z</time>
      </trkpt>
      <trkpt lat="48.3632" lon="-4.39549">
        <ele>67.91</ele>
        <time>2019-08-23T14:36:28Z</time>
      </trkpt>
      <trkpt lat="48.36322" lon="-4.39549">
        <ele>67.91</ele>
        <time>2019-08-23T14:36:29Z</time>
      </trkpt>
      <trkpt lat="48.36337" lon="-4.39553">
        <ele>68.87</ele>
        <time>2019-08-23T14:36:37Z</time>
      </trkpt>
      <trkpt lat="48.36358" lon="-4.39553">
        <ele>69.35</ele>
        <time>2019-08-23T14:36:47Z</time>
      </trkpt>
      <trkpt lat="48.36371" lon="-4.39552">
        <ele>70.31</ele>
        <time>2019-08-23T14:36:54Z</time>
      </trkpt>
      <trkpt lat="48.36373" lon="-4.39551">
        <ele>70.31</ele>
        <time>2019-08-23T14:36:55Z</time>
      </trkpt>
      <trkpt lat="48.36379" lon="-4.39552">
        <ele>70.31</ele>
        <time>2019-08-23T14:36:58Z</time>
      </trkpt>
      <trkpt lat="48.3638" lon="-4.39552">
        <ele>70.79</ele>
        <time>2019-08-23T14:36:59Z</time>
      </trkpt>
      <trkpt lat="48.36383" lon="-4.39554">
        <ele>70.79</ele>
        <time>2019-08-23T14:37:01Z</time>
      </trkpt>
      <trkpt lat="48.36385" lon="-4.39557">
        <ele>70.79</ele>
        <time>2019-08-23T14:37:03Z</time>
      </trkpt>
      <trkpt lat="48.36388" lon="-4.39558">
        <ele>71.27</ele>
        <time>2019-08-23T14:37:04Z</time>
      </trkpt>
      <trkpt lat="48.3639" lon="-4.39558">
        <ele>71.27</ele>
        <time>2019-08-23T14:37:05Z</time>
      </trkpt>
      <trkpt lat="48.36394" lon="-4.39559">
        <ele>71.27</ele>
        <time>2019-08-23T14:37:06Z</time>
      </trkpt>
      <trkpt lat="48.36396" lon="-4.3956">
        <ele>72.24</ele>
        <time>2019-08-23T14:37:07Z</time>
      </trkpt>
      <trkpt lat="48.3641" lon="-4.39567">
        <ele>71.76</ele>
        <time>2019-08-23T14:37:13Z</time>
      </trkpt>
      <trkpt lat="48.36412" lon="-4.39568">
        <ele>71.76</ele>
        <time>2019-08-23T14:37:14Z</time>
      </trkpt>
      <trkpt lat="48.36414" lon="-4.39569">
        <ele>72.24</ele>
        <time>2019-08-23T14:37:15Z</time>
      </trkpt>
      <trkpt lat="48.36417" lon="-4.39569">
        <ele>72.24</ele>
        <time>2019-08-23T14:37:16Z</time>
      </trkpt>
      <trkpt lat="48.36419" lon="-4.3957">
        <ele>72.24</ele>
        <time>2019-08-23T14:37:17Z</time>
      </trkpt>
      <trkpt lat="48.36421" lon="-4.39572">
        <ele>72.24</ele>
        <time>2019-08-23T14:37:18Z</time>
      </trkpt>
      <trkpt lat="48.36423" lon="-4.39573">
        <ele>72.72</ele>
        <time>2019-08-23T14:37:19Z</time>
      </trkpt>
      <trkpt lat="48.36425" lon="-4.39576">
        <ele>72.72</ele>
        <time>2019-08-23T14:37:20Z</time>
      </trkpt>
      <trkpt lat="48.36426" lon="-4.39578">
        <ele>73.2</ele>
        <time>2019-08-23T14:37:21Z</time>
      </trkpt>
      <trkpt lat="48.36427" lon="-4.39581">
        <ele>73.2</ele>
        <time>2019-08-23T14:37:22Z</time>
      </trkpt>
      <trkpt lat="48.36428" lon="-4.39583">
        <ele>73.68</ele>
        <time>2019-08-23T14:37:23Z</time>
      </trkpt>
      <trkpt lat="48.3643" lon="-4.39585">
        <ele>74.16</ele>
        <time>2019-08-23T14:37:24Z</time>
      </trkpt>
      <trkpt lat="48.36431" lon="-4.39587">
        <ele>74.16</ele>
        <time>2019-08-23T14:37:25Z</time>
      </trkpt>
      <trkpt lat="48.36432" lon="-4.39589">
        <ele>74.64</ele>
        <time>2019-08-23T14:37:26Z</time>
      </trkpt>
      <trkpt lat="48.36434" lon="-4.39591">
        <ele>75.12</ele>
        <time>2019-08-23T14:37:28Z</time>
      </trkpt>
      <trkpt lat="48.36435" lon="-4.39591">
        <ele>75.12</ele>
        <time>2019-08-23T14:37:29Z</time>
      </trkpt>
      <trkpt lat="48.36437" lon="-4.3959">
        <ele>75.12</ele>
        <time>2019-08-23T14:37:30Z</time>
      </trkpt>
      <trkpt lat="48.36439" lon="-4.39589">
        <ele>74.64</ele>
        <time>2019-08-23T14:37:31Z</time>
      </trkpt>
      <trkpt lat="48.36441" lon="-4.39587">
        <ele>75.12</ele>
        <time>2019-08-23T14:37:32Z</time>
      </trkpt>
      <trkpt lat="48.36444" lon="-4.39586">
        <ele>75.12</ele>
        <time>2019-08-23T14:37:33Z</time>
      </trkpt>
      <trkpt lat="48.3647" lon="-4.39572">
        <ele>75.6</ele>
        <time>2019-08-23T14:37:46Z</time>
      </trkpt>
      <trkpt lat="48.365" lon="-4.39546">
        <ele>76.08</ele>
        <time>2019-08-23T14:37:58Z</time>
      </trkpt>
      <trkpt lat="48.36536" lon="-4.39519">
        <ele>77.04</ele>
        <time>2019-08-23T14:38:11Z</time>
      </trkpt>
      <trkpt lat="48.36573" lon="-4.39497">
        <ele>78.97</ele>
        <time>2019-08-23T14:38:25Z</time>
      </trkpt>
      <trkpt lat="48.36605" lon="-4.39492">
        <ele>79.93</ele>
        <time>2019-08-23T14:38:37Z</time>
      </trkpt>
      <trkpt lat="48.36642" lon="-4.39448">
        <ele>80.89</ele>
        <time>2019-08-23T14:38:51Z</time>
      </trkpt>
      <trkpt lat="48.36662" lon="-4.39438">
        <ele>81.37</ele>
        <time>2019-08-23T14:38:59Z</time>
      </trkpt>
      <trkpt lat="48.367" lon="-4.39444">
        <ele>82.81</ele>
        <time>2019-08-23T14:39:12Z</time>
      </trkpt>
      <trkpt lat="48.36734" lon="-4.3947">
        <ele>83.77</ele>
        <time>2019-08-23T14:39:24Z</time>
      </trkpt>
      <trkpt lat="48.36763" lon="-4.39505">
        <ele>85.69</ele>
        <time>2019-08-23T14:39:37Z</time>
      </trkpt>
      <trkpt lat="48.36801" lon="-4.39526">
        <ele>86.66</ele>
        <time>2019-08-23T14:39:50Z</time>
      </trkpt>
      <trkpt lat="48.36812" lon="-4.39561">
        <ele>87.14</ele>
        <time>2019-08-23T14:39:59Z</time>
      </trkpt>
      <trkpt lat="48.36815" lon="-4.39563">
        <ele>87.14</ele>
        <time>2019-08-23T14:40:00Z</time>
      </trkpt>
      <trkpt lat="48.36817" lon="-4.39566">
        <ele>87.62</ele>
        <time>2019-08-23T14:40:01Z</time>
      </trkpt>
      <trkpt lat="48.36837" lon="-4.39594">
        <ele>88.58</ele>
        <time>2019-08-23T14:40:12Z</time>
      </trkpt>
      <trkpt lat="48.36861" lon="-4.39621">
        <ele>89.06</ele>
        <time>2019-08-23T14:40:23Z</time>
      </trkpt>
      <trkpt lat="48.36883" lon="-4.39641">
        <ele>89.54</ele>
        <time>2019-08-23T14:40:32Z</time>
      </trkpt>
      <trkpt lat="48.36888" lon="-4.39646">
        <ele>89.54</ele>
        <time>2019-08-23T14:40:34Z</time>
      </trkpt>
      <trkpt lat="48.36891" lon="-4.39649">
        <ele>89.54</ele>
        <time>2019-08-23T14:40:36Z</time>
      </trkpt>
      <trkpt lat="48.36893" lon="-4.39651">
        <ele>89.54</ele>
        <time>2019-08-23T14:40:37Z</time>
      </trkpt>
      <trkpt lat="48.36928" lon="-4.39673">
        <ele>89.54</ele>
        <time>2019-08-23T14:40:49Z</time>
      </trkpt>
      <trkpt lat="48.36935" lon="-4.39675">
        <ele>90.02</ele>
        <time>2019-08-23T14:40:51Z</time>
      </trkpt>
      <trkpt lat="48.36937" lon="-4.39677">
        <ele>90.02</ele>
        <time>2019-08-23T14:40:52Z</time>
      </trkpt>
      <trkpt lat="48.36966" lon="-4.39695">
        <ele>90.02</ele>
        <time>2019-08-23T14:41:03Z</time>
      </trkpt>
      <trkpt lat="48.36985" lon="-4.39676">
        <ele>90.5</ele>
        <time>2019-08-23T14:41:13Z</time>
      </trkpt>
      <trkpt lat="48.37003" lon="-4.39652">
        <ele>90.5</ele>
        <time>2019-08-23T14:41:23Z</time>
      </trkpt>
      <trkpt lat="48.37005" lon="-4.39652">
        <ele>90.5</ele>
        <time>2019-08-23T14:41:24Z</time>
      </trkpt>
      <trkpt lat="48.37007" lon="-4.39653">
        <ele>90.98</ele>
        <time>2019-08-23T14:41:25Z</time>
      </trkpt>
      <trkpt lat="48.37008" lon="-4.39655">
        <ele>90.98</ele>
        <time>2019-08-23T14:41:26Z</time>
      </trkpt>
      <trkpt lat="48.3701" lon="-4.39656">
        <ele>90.98</ele>
        <time>2019-08-23T14:41:27Z</time>
      </trkpt>
      <trkpt lat="48.37019" lon="-4.39667">
        <ele>90.98</ele>
        <time>2019-08-23T14:41:32Z</time>
      </trkpt>
      <trkpt lat="48.37022" lon="-4.39669">
        <ele>90.98</ele>
        <time>2019-08-23T14:41:33Z</time>
      </trkpt>
      <trkpt lat="48.37025" lon="-4.39671">
        <ele>90.5</ele>
        <time>2019-08-23T14:41:34Z</time>
      </trkpt>
      <trkpt lat="48.37026" lon="-4.39674">
        <ele>90.98</ele>
        <time>2019-08-23T14:41:35Z</time>
      </trkpt>
      <trkpt lat="48.37029" lon="-4.39676">
        <ele>90.98</ele>
        <time>2019-08-23T14:41:36Z</time>
      </trkpt>
      <trkpt lat="48.37031" lon="-4.39678">
        <ele>90.98</ele>
        <time>2019-08-23T14:41:37Z</time>
      </trkpt>
      <trkpt lat="48.37032" lon="-4.3968">
        <ele>90.98</ele>
        <time>2019-08-23T14:41:38Z</time>
      </trkpt>
      <trkpt lat="48.37034" lon="-4.39683">
        <ele>90.98</ele>
        <time>2019-08-23T14:41:39Z</time>
      </trkpt>
      <trkpt lat="48.37036" lon="-4.39685">
        <ele>90.98</ele>
        <time>2019-08-23T14:41:40Z</time>
      </trkpt>
      <trkpt lat="48.37038" lon="-4.39687">
        <ele>91.46</ele>
        <time>2019-08-23T14:41:41Z</time>
      </trkpt>
      <trkpt lat="48.3704" lon="-4.39689">
        <ele>90.98</ele>
        <time>2019-08-23T14:41:42Z</time>
      </trkpt>
      <trkpt lat="48.37042" lon="-4.39692">
        <ele>91.46</ele>
        <time>2019-08-23T14:41:43Z</time>
      </trkpt>
      <trkpt lat="48.37044" lon="-4.39695">
        <ele>91.46</ele>
        <time>2019-08-23T14:41:44Z</time>
      </trkpt>
      <trkpt lat="48.37056" lon="-4.39712">
        <ele>91.46</ele>
        <time>2019-08-23T14:41:51Z</time>
      </trkpt>
      <trkpt lat="48.37057" lon="-4.39714">
        <ele>91.46</ele>
        <time>2019-08-23T14:41:52Z</time>
      </trkpt>
      <trkpt lat="48.3706" lon="-4.39717">
        <ele>91.94</ele>
        <time>2019-08-23T14:41:53Z</time>
      </trkpt>
      <trkpt lat="48.37062" lon="-4.39721">
        <ele>91.94</ele>
        <time>2019-08-23T14:41:54Z</time>
      </trkpt>
      <trkpt lat="48.37064" lon="-4.39724">
        <ele>91.94</ele>
        <time>2019-08-23T14:41:55Z</time>
      </trkpt>
      <trkpt lat="48.37084" lon="-4.39755">
        <ele>92.42</ele>
        <time>2019-08-23T14:42:06Z</time>
      </trkpt>
      <trkpt lat="48.37086" lon="-4.39756">
        <ele>92.42</ele>
        <time>2019-08-23T14:42:07Z</time>
      </trkpt>
      <trkpt lat="48.37087" lon="-4.39757">
        <ele>92.42</ele>
        <time>2019-08-23T14:42:08Z</time>
      </trkpt>
      <trkpt lat="48.3709" lon="-4.39757">
        <ele>92.42</ele>
        <time>2019-08-23T14:42:09Z</time>
      </trkpt>
      <trkpt lat="48.37092" lon="-4.39756">
        <ele>92.42</ele>
        <time>2019-08-23T14:42:10Z</time>
      </trkpt>
      <trkpt lat="48.37095" lon="-4.39754">
        <ele>92.42</ele>
        <time>2019-08-23T14:42:11Z</time>
      </trkpt>
      <trkpt lat="48.37131" lon="-4.3974">
        <ele>92.42</ele>
        <time>2019-08-23T14:42:23Z</time>
      </trkpt>
      <trkpt lat="48.37148" lon="-4.39724">
        <ele>92.9</ele>
        <time>2019-08-23T14:42:30Z</time>
      </trkpt>
      <trkpt lat="48.37148" lon="-4.3972">
        <ele>92.9</ele>
        <time>2019-08-23T14:42:31Z</time>
      </trkpt>
      <trkpt lat="48.37148" lon="-4.39716">
        <ele>92.9</ele>
        <time>2019-08-23T14:42:32Z</time>
      </trkpt>
      <trkpt lat="48.37146" lon="-4.39712">
        <ele>92.9</ele>
        <time>2019-08-23T14:42:33Z</time>
      </trkpt>
      <trkpt lat="48.37144" lon="-4.39708">
        <ele>92.9</ele>
        <time>2019-08-23T14:42:34Z</time>
      </trkpt>
      <trkpt lat="48.37119" lon="-4.39643">
        <ele>92.9</ele>
        <time>2019-08-23T14:42:49Z</time>
      </trkpt>
      <trkpt lat="48.37115" lon="-4.39585">
        <ele>92.9</ele>
        <time>2019-08-23T14:43:01Z</time>
      </trkpt>
      <trkpt lat="48.37124" lon="-4.39519">
        <ele>92.9</ele>
        <time>2019-08-23T14:43:13Z</time>
      </trkpt>
      <trkpt lat="48.37125" lon="-4.39512">
        <ele>92.9</ele>
        <time>2019-08-23T14:43:14Z</time>
      </trkpt>
      <trkpt lat="48.37126" lon="-4.39506">
        <ele>92.9</ele>
        <time>2019-08-23T14:43:15Z</time>
      </trkpt>
      <trkpt lat="48.37135" lon="-4.39406">
        <ele>92.42</ele>
        <time>2019-08-23T14:43:31Z</time>
      </trkpt>
      <trkpt lat="48.37138" lon="-4.39343">
        <ele>92.9</ele>
        <time>2019-08-23T14:43:41Z</time>
      </trkpt>
      <trkpt lat="48.37156" lon="-4.3926">
        <ele>92.9</ele>
        <time>2019-08-23T14:43:56Z</time>
      </trkpt>
      <trkpt lat="48.37181" lon="-4.39176">
        <ele>94.35</ele>
        <time>2019-08-23T14:44:13Z</time>
      </trkpt>
      <trkpt lat="48.37183" lon="-4.39174">
        <ele>94.35</ele>
        <time>2019-08-23T14:44:14Z</time>
      </trkpt>
      <trkpt lat="48.37186" lon="-4.39174">
        <ele>94.35</ele>
        <time>2019-08-23T14:44:15Z</time>
      </trkpt>
      <trkpt lat="48.37188" lon="-4.39176">
        <ele>94.35</ele>
        <time>2019-08-23T14:44:16Z</time>
      </trkpt>
      <trkpt lat="48.3719" lon="-4.39179">
        <ele>94.35</ele>
        <time>2019-08-23T14:44:17Z</time>
      </trkpt>
      <trkpt lat="48.37192" lon="-4.39182">
        <ele>94.35</ele>
        <time>2019-08-23T14:44:18Z</time>
      </trkpt>
      <trkpt lat="48.37194" lon="-4.39187">
        <ele>94.35</ele>
        <time>2019-08-23T14:44:19Z</time>
      </trkpt>
      <trkpt lat="48.37196" lon="-4.39191">
        <ele>94.35</ele>
        <time>2019-08-23T14:44:20Z</time>
      </trkpt>
      <trkpt lat="48.37208" lon="-4.3922">
        <ele>93.87</ele>
        <time>2019-08-23T14:44:26Z</time>
      </trkpt>
      <trkpt lat="48.37244" lon="-4.39279">
        <ele>93.39</ele>
        <time>2019-08-23T14:44:38Z</time>
      </trkpt>
      <trkpt lat="48.37247" lon="-4.39283">
        <ele>93.39</ele>
        <time>2019-08-23T14:44:39Z</time>
      </trkpt>
      <trkpt lat="48.3725" lon="-4.39288">
        <ele>93.39</ele>
        <time>2019-08-23T14:44:40Z</time>
      </trkpt>
      <trkpt lat="48.37253" lon="-4.39293">
        <ele>93.39</ele>
        <time>2019-08-23T14:44:41Z</time>
      </trkpt>
      <trkpt lat="48.37254" lon="-4.39298">
        <ele>93.39</ele>
        <time>2019-08-23T14:44:42Z</time>
      </trkpt>
      <trkpt lat="48.37257" lon="-4.39303">
        <ele>93.39</ele>
        <time>2019-08-23T14:44:43Z</time>
      </trkpt>
      <trkpt lat="48.37259" lon="-4.39307">
        <ele>93.39</ele>
        <time>2019-08-23T14:44:44Z</time>
      </trkpt>
      <trkpt lat="48.37263" lon="-4.39311">
        <ele>93.39</ele>
        <time>2019-08-23T14:44:45Z</time>
      </trkpt>
      <trkpt lat="48.37327" lon="-4.39355">
        <ele>93.39</ele>
        <time>2019-08-23T14:45:00Z</time>
      </trkpt>
      <trkpt lat="48.37351" lon="-4.39376">
        <ele>93.87</ele>
        <time>2019-08-23T14:45:06Z</time>
      </trkpt>
      <trkpt lat="48.37354" lon="-4.3938">
        <ele>93.87</ele>
        <time>2019-08-23T14:45:07Z</time>
      </trkpt>
      <trkpt lat="48.37368" lon="-4.39401">
        <ele>93.87</ele>
        <time>2019-08-23T14:45:11Z</time>
      </trkpt>
      <trkpt lat="48.37375" lon="-4.39419">
        <ele>94.35</ele>
        <time>2019-08-23T14:45:14Z</time>
      </trkpt>
      <trkpt lat="48.37377" lon="-4.39425">
        <ele>93.87</ele>
        <time>2019-08-23T14:45:15Z</time>
      </trkpt>
      <trkpt lat="48.37398" lon="-4.39486">
        <ele>94.83</ele>
        <time>2019-08-23T14:45:25Z</time>
      </trkpt>
      <trkpt lat="48.37404" lon="-4.39498">
        <ele>94.35</ele>
        <time>2019-08-23T14:45:27Z</time>
      </trkpt>
      <trkpt lat="48.37406" lon="-4.39504">
        <ele>94.83</ele>
        <time>2019-08-23T14:45:28Z</time>
      </trkpt>
      <trkpt lat="48.37408" lon="-4.3951">
        <ele>94.83</ele>
        <time>2019-08-23T14:45:29Z</time>
      </trkpt>
      <trkpt lat="48.37431" lon="-4.39573">
        <ele>94.35</ele>
        <time>2019-08-23T14:45:39Z</time>
      </trkpt>
      <trkpt lat="48.37437" lon="-4.39586">
        <ele>93.87</ele>
        <time>2019-08-23T14:45:41Z</time>
      </trkpt>
      <trkpt lat="48.3744" lon="-4.39593">
        <ele>93.39</ele>
        <time>2019-08-23T14:45:42Z</time>
      </trkpt>
      <trkpt lat="48.37443" lon="-4.396">
        <ele>92.9</ele>
        <time>2019-08-23T14:45:43Z</time>
      </trkpt>
      <trkpt lat="48.37446" lon="-4.39606">
        <ele>92.9</ele>
        <time>2019-08-23T14:45:44Z</time>
      </trkpt>
      <trkpt lat="48.3745" lon="-4.3961">
        <ele>92.9</ele>
        <time>2019-08-23T14:45:45Z</time>
      </trkpt>
      <trkpt lat="48.37453" lon="-4.39615">
        <ele>92.9</ele>
        <time>2019-08-23T14:45:46Z</time>
      </trkpt>
      <trkpt lat="48.37456" lon="-4.39619">
        <ele>92.42</ele>
        <time>2019-08-23T14:45:47Z</time>
      </trkpt>
      <trkpt lat="48.3746" lon="-4.39623">
        <ele>92.42</ele>
        <time>2019-08-23T14:45:48Z</time>
      </trkpt>
      <trkpt lat="48.37463" lon="-4.39625">
        <ele>92.42</ele>
        <time>2019-08-23T14:45:49Z</time>
      </trkpt>
      <trkpt lat="48.37465" lon="-4.39625">
        <ele>92.42</ele>
        <time>2019-08-23T14:45:50Z</time>
      </trkpt>
      <trkpt lat="48.37467" lon="-4.39622">
        <ele>92.42</ele>
        <time>2019-08-23T14:45:51Z</time>
      </trkpt>
      <trkpt lat="48.37468" lon="-4.39617">
        <ele>92.42</ele>
        <time>2019-08-23T14:45:52Z</time>
      </trkpt>
      <trkpt lat="48.37469" lon="-4.39612">
        <ele>92.42</ele>
        <time>2019-08-23T14:45:53Z</time>
      </trkpt>
      <trkpt lat="48.37471" lon="-4.39607">
        <ele>92.42</ele>
        <time>2019-08-23T14:45:54Z</time>
      </trkpt>
      <trkpt lat="48.37481" lon="-4.39573">
        <ele>91.94</ele>
        <time>2019-08-23T14:46:01Z</time>
      </trkpt>
      <trkpt lat="48.37483" lon="-4.39568">
        <ele>91.94</ele>
        <time>2019-08-23T14:46:02Z</time>
      </trkpt>
      <trkpt lat="48.37486" lon="-4.39563">
        <ele>91.46</ele>
        <time>2019-08-23T14:46:03Z</time>
      </trkpt>
      <trkpt lat="48.37489" lon="-4.39558">
        <ele>91.46</ele>
        <time>2019-08-23T14:46:04Z</time>
      </trkpt>
      <trkpt lat="48.37492" lon="-4.39555">
        <ele>90.98</ele>
        <time>2019-08-23T14:46:05Z</time>
      </trkpt>
      <trkpt lat="48.37495" lon="-4.39551">
        <ele>90.98</ele>
        <time>2019-08-23T14:46:06Z</time>
      </trkpt>
      <trkpt lat="48.37498" lon="-4.39548">
        <ele>90.98</ele>
        <time>2019-08-23T14:46:07Z</time>
      </trkpt>
      <trkpt lat="48.37501" lon="-4.39545">
        <ele>90.5</ele>
        <time>2019-08-23T14:46:08Z</time>
      </trkpt>
      <trkpt lat="48.37504" lon="-4.39542">
        <ele>90.5</ele>
        <time>2019-08-23T14:46:09Z</time>
      </trkpt>
      <trkpt lat="48.37509" lon="-4.39538">
        <ele>90.5</ele>
        <time>2019-08-23T14:46:10Z</time>
      </trkpt>
      <trkpt lat="48.37512" lon="-4.39535">
        <ele>90.02</ele>
        <time>2019-08-23T14:46:11Z</time>
      </trkpt>
      <trkpt lat="48.37516" lon="-4.39532">
        <ele>89.54</ele>
        <time>2019-08-23T14:46:12Z</time>
      </trkpt>
      <trkpt lat="48.37519" lon="-4.39529">
        <ele>89.06</ele>
        <time>2019-08-23T14:46:13Z</time>
      </trkpt>
      <trkpt lat="48.37546" lon="-4.39503">
        <ele>87.14</ele>
        <time>2019-08-23T14:46:20Z</time>
      </trkpt>
      <trkpt lat="48.37577" lon="-4.3949">
        <ele>84.25</ele>
        <time>2019-08-23T14:46:29Z</time>
      </trkpt>
      <trkpt lat="48.37608" lon="-4.39461">
        <ele>84.25</ele>
        <time>2019-08-23T14:46:40Z</time>
      </trkpt>
      <trkpt lat="48.37631" lon="-4.39432">
        <ele>83.77</ele>
        <time>2019-08-23T14:46:50Z</time>
      </trkpt>
      <trkpt lat="48.37646" lon="-4.39408">
        <ele>83.29</ele>
        <time>2019-08-23T14:46:57Z</time>
      </trkpt>
      <trkpt lat="48.37648" lon="-4.39405">
        <ele>83.29</ele>
        <time>2019-08-23T14:46:58Z</time>
      </trkpt>
      <trkpt lat="48.37651" lon="-4.39402">
        <ele>83.29</ele>
        <time>2019-08-23T14:46:59Z</time>
      </trkpt>
      <trkpt lat="48.37653" lon="-4.394">
        <ele>83.29</ele>
        <time>2019-08-23T14:47:00Z</time>
      </trkpt>
      <trkpt lat="48.37655" lon="-4.39398">
        <ele>83.77</ele>
        <time>2019-08-23T14:47:01Z</time>
      </trkpt>
      <trkpt lat="48.37657" lon="-4.39395">
        <ele>83.29</ele>
        <time>2019-08-23T14:47:02Z</time>
      </trkpt>
      <trkpt lat="48.37671" lon="-4.39366">
        <ele>83.29</ele>
        <time>2019-08-23T14:47:13Z</time>
      </trkpt>
      <trkpt lat="48.37673" lon="-4.39366">
        <ele>83.29</ele>
        <time>2019-08-23T14:47:14Z</time>
      </trkpt>
      <trkpt lat="48.37675" lon="-4.39366">
        <ele>83.29</ele>
        <time>2019-08-23T14:47:15Z</time>
      </trkpt>
      <trkpt lat="48.37677" lon="-4.39366">
        <ele>83.29</ele>
        <time>2019-08-23T14:47:16Z</time>
      </trkpt>
      <trkpt lat="48.37679" lon="-4.39368">
        <ele>83.29</ele>
        <time>2019-08-23T14:47:17Z</time>
      </trkpt>
      <trkpt lat="48.37681" lon="-4.39369">
        <ele>83.29</ele>
        <time>2019-08-23T14:47:18Z</time>
      </trkpt>
      <trkpt lat="48.37683" lon="-4.3937">
        <ele>83.29</ele>
        <time>2019-08-23T14:47:19Z</time>
      </trkpt>
      <trkpt lat="48.37685" lon="-4.3937">
        <ele>82.81</ele>
        <time>2019-08-23T14:47:20Z</time>
      </trkpt>
      <trkpt lat="48.37716" lon="-4.39388">
        <ele>81.37</ele>
        <time>2019-08-23T14:47:30Z</time>
      </trkpt>
      <trkpt lat="48.37732" lon="-4.39421">
        <ele>80.41</ele>
        <time>2019-08-23T14:47:39Z</time>
      </trkpt>
      <trkpt lat="48.37748" lon="-4.39439">
        <ele>79.45</ele>
        <time>2019-08-23T14:47:45Z</time>
      </trkpt>
      <trkpt lat="48.3775" lon="-4.39444">
        <ele>79.45</ele>
        <time>2019-08-23T14:47:46Z</time>
      </trkpt>
      <trkpt lat="48.37752" lon="-4.39447">
        <ele>78.97</ele>
        <time>2019-08-23T14:47:47Z</time>
      </trkpt>
      <trkpt lat="48.37755" lon="-4.39449">
        <ele>78.97</ele>
        <time>2019-08-23T14:47:48Z</time>
      </trkpt>
      <trkpt lat="48.37757" lon="-4.39454">
        <ele>78.48</ele>
        <time>2019-08-23T14:47:49Z</time>
      </trkpt>
      <trkpt lat="48.37759" lon="-4.39459">
        <ele>78.48</ele>
        <time>2019-08-23T14:47:50Z</time>
      </trkpt>
      <trkpt lat="48.37773" lon="-4.39509">
        <ele>76.56</ele>
        <time>2019-08-23T14:47:59Z</time>
      </trkpt>
      <trkpt lat="48.37776" lon="-4.3952">
        <ele>76.08</ele>
        <time>2019-08-23T14:48:01Z</time>
      </trkpt>
      <trkpt lat="48.37779" lon="-4.39535">
        <ele>75.6</ele>
        <time>2019-08-23T14:48:04Z</time>
      </trkpt>
      <trkpt lat="48.37781" lon="-4.39537">
        <ele>75.12</ele>
        <time>2019-08-23T14:48:05Z</time>
      </trkpt>
      <trkpt lat="48.37787" lon="-4.39544">
        <ele>74.64</ele>
        <time>2019-08-23T14:48:07Z</time>
      </trkpt>
      <trkpt lat="48.3779" lon="-4.39549">
        <ele>74.64</ele>
        <time>2019-08-23T14:48:08Z</time>
      </trkpt>
      <trkpt lat="48.37797" lon="-4.39567">
        <ele>74.16</ele>
        <time>2019-08-23T14:48:11Z</time>
      </trkpt>
      <trkpt lat="48.378" lon="-4.39571">
        <ele>73.68</ele>
        <time>2019-08-23T14:48:12Z</time>
      </trkpt>
      <trkpt lat="48.37802" lon="-4.39572">
        <ele>73.2</ele>
        <time>2019-08-23T14:48:13Z</time>
      </trkpt>
      <trkpt lat="48.37805" lon="-4.39573">
        <ele>73.2</ele>
        <time>2019-08-23T14:48:14Z</time>
      </trkpt>
      <trkpt lat="48.37807" lon="-4.39573">
        <ele>73.68</ele>
        <time>2019-08-23T14:48:15Z</time>
      </trkpt>
      <trkpt lat="48.37809" lon="-4.39574">
        <ele>73.68</ele>
        <time>2019-08-23T14:48:16Z</time>
      </trkpt>
      <trkpt lat="48.37811" lon="-4.39573">
        <ele>73.68</ele>
        <time>2019-08-23T14:48:17Z</time>
      </trkpt>
      <trkpt lat="48.37814" lon="-4.39573">
        <ele>73.2</ele>
        <time>2019-08-23T14:48:18Z</time>
      </trkpt>
      <trkpt lat="48.37821" lon="-4.3958">
        <ele>73.2</ele>
        <time>2019-08-23T14:48:21Z</time>
      </trkpt>
      <trkpt lat="48.37848" lon="-4.3963">
        <ele>69.83</ele>
        <time>2019-08-23T14:48:30Z</time>
      </trkpt>
      <trkpt lat="48.37853" lon="-4.39636">
        <ele>69.35</ele>
        <time>2019-08-23T14:48:31Z</time>
      </trkpt>
      <trkpt lat="48.37856" lon="-4.39643">
        <ele>68.87</ele>
        <time>2019-08-23T14:48:32Z</time>
      </trkpt>
      <trkpt lat="48.37859" lon="-4.3965">
        <ele>68.39</ele>
        <time>2019-08-23T14:48:33Z</time>
      </trkpt>
      <trkpt lat="48.37862" lon="-4.39658">
        <ele>67.43</ele>
        <time>2019-08-23T14:48:34Z</time>
      </trkpt>
      <trkpt lat="48.37864" lon="-4.39666">
        <ele>66.95</ele>
        <time>2019-08-23T14:48:35Z</time>
      </trkpt>
      <trkpt lat="48.37865" lon="-4.39674">
        <ele>66.47</ele>
        <time>2019-08-23T14:48:36Z</time>
      </trkpt>
      <trkpt lat="48.37867" lon="-4.39682">
        <ele>65.51</ele>
        <time>2019-08-23T14:48:37Z</time>
      </trkpt>
      <trkpt lat="48.37869" lon="-4.39689">
        <ele>65.03</ele>
        <time>2019-08-23T14:48:38Z</time>
      </trkpt>
      <trkpt lat="48.37871" lon="-4.39695">
        <ele>64.55</ele>
        <time>2019-08-23T14:48:39Z</time>
      </trkpt>
      <trkpt lat="48.37872" lon="-4.39701">
        <ele>64.07</ele>
        <time>2019-08-23T14:48:40Z</time>
      </trkpt>
      <trkpt lat="48.37874" lon="-4.39709">
        <ele>63.1</ele>
        <time>2019-08-23T14:48:41Z</time>
      </trkpt>
      <trkpt lat="48.37874" lon="-4.39718">
        <ele>63.1</ele>
        <time>2019-08-23T14:48:42Z</time>
      </trkpt>
      <trkpt lat="48.37875" lon="-4.39745">
        <ele>60.22</ele>
        <time>2019-08-23T14:48:45Z</time>
      </trkpt>
      <trkpt lat="48.37876" lon="-4.39753">
        <ele>59.74</ele>
        <time>2019-08-23T14:48:46Z</time>
      </trkpt>
      <trkpt lat="48.37878" lon="-4.39761">
        <ele>59.26</ele>
        <time>2019-08-23T14:48:47Z</time>
      </trkpt>
      <trkpt lat="48.3788" lon="-4.39769">
        <ele>58.78</ele>
        <time>2019-08-23T14:48:48Z</time>
      </trkpt>
      <trkpt lat="48.3788" lon="-4.39776">
        <ele>58.3</ele>
        <time>2019-08-23T14:48:49Z</time>
      </trkpt>
      <trkpt lat="48.37885" lon="-4.39802">
        <ele>56.86</ele>
        <time>2019-08-23T14:48:53Z</time>
      </trkpt>
      <trkpt lat="48.37887" lon="-4.39811">
        <ele>56.37</ele>
        <time>2019-08-23T14:48:54Z</time>
      </trkpt>
      <trkpt lat="48.37905" lon="-4.39878">
        <ele>53.01</ele>
        <time>2019-08-23T14:49:04Z</time>
      </trkpt>
      <trkpt lat="48.3791" lon="-4.39906">
        <ele>52.05</ele>
        <time>2019-08-23T14:49:08Z</time>
      </trkpt>
      <trkpt lat="48.37911" lon="-4.39914">
        <ele>52.05</ele>
        <time>2019-08-23T14:49:09Z</time>
      </trkpt>
      <trkpt lat="48.37914" lon="-4.39924">
        <ele>50.13</ele>
        <time>2019-08-23T14:49:10Z</time>
      </trkpt>
      <trkpt lat="48.37917" lon="-4.39933">
        <ele>49.65</ele>
        <time>2019-08-23T14:49:11Z</time>
      </trkpt>
      <trkpt lat="48.37921" lon="-4.39942">
        <ele>48.2</ele>
        <time>2019-08-23T14:49:12Z</time>
      </trkpt>
      <trkpt lat="48.37926" lon="-4.3995">
        <ele>47.72</ele>
        <time>2019-08-23T14:49:13Z</time>
      </trkpt>
      <trkpt lat="48.37947" lon="-4.39989">
        <ele>44.36</ele>
        <time>2019-08-23T14:49:17Z</time>
      </trkpt>
      <trkpt lat="48.37964" lon="-4.40017">
        <ele>42.92</ele>
        <time>2019-08-23T14:49:20Z</time>
      </trkpt>
      <trkpt lat="48.37987" lon="-4.40048">
        <ele>40.03</ele>
        <time>2019-08-23T14:49:25Z</time>
      </trkpt>
      <trkpt lat="48.37991" lon="-4.4005">
        <ele>39.55</ele>
        <time>2019-08-23T14:49:26Z</time>
      </trkpt>
      <trkpt lat="48.37993" lon="-4.40051">
        <ele>39.07</ele>
        <time>2019-08-23T14:49:27Z</time>
      </trkpt>
      <trkpt lat="48.38018" lon="-4.40022">
        <ele>38.11</ele>
        <time>2019-08-23T14:49:37Z</time>
      </trkpt>
      <trkpt lat="48.38055" lon="-4.39955">
        <ele>38.59</ele>
        <time>2019-08-23T14:49:51Z</time>
      </trkpt>
      <trkpt lat="48.38078" lon="-4.39915">
        <ele>39.07</ele>
        <time>2019-08-23T14:50:01Z</time>
      </trkpt>
      <trkpt lat="48.38109" lon="-4.39869">
        <ele>40.03</ele>
        <time>2019-08-23T14:50:13Z</time>
      </trkpt>
      <trkpt lat="48.38141" lon="-4.39829">
        <ele>40.03</ele>
        <time>2019-08-23T14:50:25Z</time>
      </trkpt>
      <trkpt lat="48.38182" lon="-4.39774">
        <ele>40.99</ele>
        <time>2019-08-23T14:50:38Z</time>
      </trkpt>
      <trkpt lat="48.38196" lon="-4.39757">
        <ele>40.99</ele>
        <time>2019-08-23T14:50:42Z</time>
      </trkpt>
      <trkpt lat="48.38206" lon="-4.39743">
        <ele>40.99</ele>
        <time>2019-08-23T14:50:45Z</time>
      </trkpt>
      <trkpt lat="48.38209" lon="-4.39738">
        <ele>40.99</ele>
        <time>2019-08-23T14:50:46Z</time>
      </trkpt>
      <trkpt lat="48.38212" lon="-4.39734">
        <ele>40.99</ele>
        <time>2019-08-23T14:50:47Z</time>
      </trkpt>
      <trkpt lat="48.38223" lon="-4.39721">
        <ele>40.99</ele>
        <time>2019-08-23T14:50:50Z</time>
      </trkpt>
      <trkpt lat="48.38254" lon="-4.39672">
        <ele>41.47</ele>
        <time>2019-08-23T14:51:00Z</time>
      </trkpt>
      <trkpt lat="48.38257" lon="-4.39667">
        <ele>41.47</ele>
        <time>2019-08-23T14:51:01Z</time>
      </trkpt>
      <trkpt lat="48.38259" lon="-4.39662">
        <ele>41.47</ele>
        <time>2019-08-23T14:51:02Z</time>
      </trkpt>
      <trkpt lat="48.38262" lon="-4.39657">
        <ele>41.47</ele>
        <time>2019-08-23T14:51:03Z</time>
      </trkpt>
      <trkpt lat="48.38265" lon="-4.39653">
        <ele>41.47</ele>
        <time>2019-08-23T14:51:04Z</time>
      </trkpt>
      <trkpt lat="48.38268" lon="-4.39648">
        <ele>41.47</ele>
        <time>2019-08-23T14:51:05Z</time>
      </trkpt>
      <trkpt lat="48.3827" lon="-4.39644">
        <ele>41.47</ele>
        <time>2019-08-23T14:51:06Z</time>
      </trkpt>
      <trkpt lat="48.38273" lon="-4.3964">
        <ele>41.95</ele>
        <time>2019-08-23T14:51:07Z</time>
      </trkpt>
      <trkpt lat="48.38275" lon="-4.39636">
        <ele>41.95</ele>
        <time>2019-08-23T14:51:08Z</time>
      </trkpt>
      <trkpt lat="48.38281" lon="-4.39631">
        <ele>41.95</ele>
        <time>2019-08-23T14:51:10Z</time>
      </trkpt>
      <trkpt lat="48.38292" lon="-4.39631">
        <ele>41.47</ele>
        <time>2019-08-23T14:51:20Z</time>
      </trkpt>
      <trkpt lat="48.38293" lon="-4.3963">
        <ele>41.47</ele>
        <time>2019-08-23T14:51:35Z</time>
      </trkpt>
      <trkpt lat="48.38294" lon="-4.3963">
        <ele>40.51</ele>
        <time>2019-08-23T14:51:49Z</time>
      </trkpt>
      <trkpt lat="48.38293" lon="-4.39631">
        <ele>40.99</ele>
        <time>2019-08-23T14:52:22Z</time>
      </trkpt>
      <trkpt lat="48.38294" lon="-4.39632">
        <ele>40.99</ele>
        <time>2019-08-23T14:52:52Z</time>
      </trkpt>
      <trkpt lat="48.38293" lon="-4.39632">
        <ele>40.99</ele>
        <time>2019-08-23T14:53:23Z</time>
      </trkpt>
      <trkpt lat="48.38293" lon="-4.3963">
        <ele>40.99</ele>
        <time>2019-08-23T14:53:53Z</time>
      </trkpt>
      <trkpt lat="48.38292" lon="-4.3963">
        <ele>40.99</ele>
        <time>2019-08-23T14:54:26Z</time>
      </trkpt>
      <trkpt lat="48.38292" lon="-4.39632">
        <ele>41.47</ele>
        <time>2019-08-23T14:54:56Z</time>
      </trkpt>
      <trkpt lat="48.38292" lon="-4.39632">
        <ele>40.03</ele>
        <time>2019-08-23T14:55:01Z</time>
      </trkpt>
    </trkseg>
  </trk>
</gpx>